<?xml version="1.0" encoding="UTF-8" standalone="no" ?>
<gpx xmlns="http://www.topografix.com/GPX/1/1" xmlns:xsi="http://www.w3.org/2001/XMLSchema-instance" xsi:schemaLocation="http://www.topografix.com/GPX/1/1 http://www.topografix.com/GPX/1/1/gpx.xsd" version="1.1" creator="VisuGPX - https://www.visugpx.com">
  <metadata>
    <name>Mtp Grabels 17102020</name>
  </metadata>
  <trk>
    <name><![CDATA[Move]]></name>
    <trkseg>
      <trkpt lat="43.61165" lon="3.87745">
        <ele>61.70000076294</ele>
        <time>2020-10-17T06:56:47.000Z</time>
      </trkpt>
      <trkpt lat="43.61168" lon="3.87748">
        <ele>60.70000076294</ele>
        <time>2020-10-17T06:58:38.000Z</time>
      </trkpt>
      <trkpt lat="43.61168" lon="3.87747">
        <ele>46.9</ele>
        <time>2020-10-17T06:58:39.000Z</time>
      </trkpt>
      <trkpt lat="43.61168" lon="3.87746">
        <ele>61.01042244507</ele>
        <time>2020-10-17T06:58:45.000Z</time>
      </trkpt>
      <trkpt lat="43.61169" lon="3.87755">
        <ele>62.963302740323</ele>
        <time>2020-10-17T06:59:56.000Z</time>
      </trkpt>
      <trkpt lat="43.61168" lon="3.87753">
        <ele>62.555555410579</ele>
        <time>2020-10-17T07:00:00.000Z</time>
      </trkpt>
      <trkpt lat="43.61167" lon="3.87749">
        <ele>62.351681745707</ele>
        <time>2020-10-17T07:00:02.000Z</time>
      </trkpt>
      <trkpt lat="43.61169" lon="3.87748">
        <ele>61.331449894418</ele>
        <time>2020-10-17T07:00:09.000Z</time>
      </trkpt>
      <trkpt lat="43.61169" lon="3.87747">
        <ele>61.01752797048</ele>
        <time>2020-10-17T07:00:11.000Z</time>
      </trkpt>
      <trkpt lat="43.61172" lon="3.87752">
        <ele>62.104186087864</ele>
        <time>2020-10-17T07:00:22.000Z</time>
      </trkpt>
      <trkpt lat="43.61176" lon="3.87757">
        <ele>63.023492403016</ele>
        <time>2020-10-17T07:00:25.000Z</time>
      </trkpt>
      <trkpt lat="43.61177" lon="3.87758">
        <ele>63.636363279784</ele>
        <time>2020-10-17T07:00:27.000Z</time>
      </trkpt>
      <trkpt lat="43.61177" lon="3.87757">
        <ele>65.002843933679</ele>
        <time>2020-10-17T07:00:33.000Z</time>
      </trkpt>
      <trkpt lat="43.6116" lon="3.87753">
        <ele>65.249490671766</ele>
        <time>2020-10-17T07:01:47.000Z</time>
      </trkpt>
      <trkpt lat="43.61151" lon="3.87747">
        <ele>65.164179902873</ele>
        <time>2020-10-17T07:01:50.000Z</time>
      </trkpt>
      <trkpt lat="43.6115" lon="3.87735">
        <ele>66.6567157906</ele>
        <time>2020-10-17T07:01:55.000Z</time>
      </trkpt>
      <trkpt lat="43.61148" lon="3.87748">
        <ele>69.91499776</ele>
        <time>2020-10-17T07:02:11.000Z</time>
      </trkpt>
      <trkpt lat="43.61151" lon="3.87754">
        <ele>64</ele>
        <time>2020-10-17T07:02:21.000Z</time>
      </trkpt>
      <trkpt lat="43.61151" lon="3.87753">
        <ele>64</ele>
        <time>2020-10-17T07:02:23.000Z</time>
      </trkpt>
      <trkpt lat="43.61151" lon="3.8776">
        <ele>64.100542608696</ele>
        <time>2020-10-17T07:03:16.000Z</time>
      </trkpt>
      <trkpt lat="43.61152" lon="3.87761">
        <ele>64.91576</ele>
        <time>2020-10-17T07:03:19.000Z</time>
      </trkpt>
      <trkpt lat="43.61146" lon="3.87762">
        <ele>66.811610467852</ele>
        <time>2020-10-17T07:03:36.000Z</time>
      </trkpt>
      <trkpt lat="43.61144" lon="3.8776">
        <ele>66.302445166563</ele>
        <time>2020-10-17T07:03:37.000Z</time>
      </trkpt>
      <trkpt lat="43.61141" lon="3.87757">
        <ele>65.793279865274</ele>
        <time>2020-10-17T07:03:38.000Z</time>
      </trkpt>
      <trkpt lat="43.61139" lon="3.87754">
        <ele>65.284114563985</ele>
        <time>2020-10-17T07:03:39.000Z</time>
      </trkpt>
      <trkpt lat="43.61137" lon="3.87751">
        <ele>64.774949262696</ele>
        <time>2020-10-17T07:03:40.000Z</time>
      </trkpt>
      <trkpt lat="43.61135" lon="3.87747">
        <ele>64.265783961407</ele>
        <time>2020-10-17T07:03:41.000Z</time>
      </trkpt>
      <trkpt lat="43.61134" lon="3.87744">
        <ele>63.756618660118</ele>
        <time>2020-10-17T07:03:42.000Z</time>
      </trkpt>
      <trkpt lat="43.61131" lon="3.87741">
        <ele>63.247453358829</ele>
        <time>2020-10-17T07:03:43.000Z</time>
      </trkpt>
      <trkpt lat="43.61129" lon="3.87737">
        <ele>62.73828805754</ele>
        <time>2020-10-17T07:03:44.000Z</time>
      </trkpt>
      <trkpt lat="43.61127" lon="3.87733">
        <ele>62.229122756251</ele>
        <time>2020-10-17T07:03:45.000Z</time>
      </trkpt>
      <trkpt lat="43.61125" lon="3.8773">
        <ele>61.839493229572</ele>
        <time>2020-10-17T07:03:46.000Z</time>
      </trkpt>
      <trkpt lat="43.61123" lon="3.87727">
        <ele>61.547664435798</ele>
        <time>2020-10-17T07:03:47.000Z</time>
      </trkpt>
      <trkpt lat="43.6112" lon="3.87725">
        <ele>61.255835642023</ele>
        <time>2020-10-17T07:03:48.000Z</time>
      </trkpt>
      <trkpt lat="43.61118" lon="3.87723">
        <ele>60.964006848249</ele>
        <time>2020-10-17T07:03:49.000Z</time>
      </trkpt>
      <trkpt lat="43.61114" lon="3.87722">
        <ele>60.672178054475</ele>
        <time>2020-10-17T07:03:50.000Z</time>
      </trkpt>
      <trkpt lat="43.61112" lon="3.8772">
        <ele>60.3803492607</ele>
        <time>2020-10-17T07:03:51.000Z</time>
      </trkpt>
      <trkpt lat="43.61109" lon="3.87719">
        <ele>60.088520466926</ele>
        <time>2020-10-17T07:03:52.000Z</time>
      </trkpt>
      <trkpt lat="43.61106" lon="3.87717">
        <ele>59.796691673152</ele>
        <time>2020-10-17T07:03:53.000Z</time>
      </trkpt>
      <trkpt lat="43.61103" lon="3.87715">
        <ele>59.504862879377</ele>
        <time>2020-10-17T07:03:54.000Z</time>
      </trkpt>
      <trkpt lat="43.611" lon="3.87713">
        <ele>59.213034085603</ele>
        <time>2020-10-17T07:03:55.000Z</time>
      </trkpt>
      <trkpt lat="43.61097" lon="3.87711">
        <ele>59</ele>
        <time>2020-10-17T07:03:56.000Z</time>
      </trkpt>
      <trkpt lat="43.61093" lon="3.87709">
        <ele>59</ele>
        <time>2020-10-17T07:03:57.000Z</time>
      </trkpt>
      <trkpt lat="43.61091" lon="3.87706">
        <ele>59</ele>
        <time>2020-10-17T07:03:58.000Z</time>
      </trkpt>
      <trkpt lat="43.61089" lon="3.87701">
        <ele>59</ele>
        <time>2020-10-17T07:03:59.000Z</time>
      </trkpt>
      <trkpt lat="43.61088" lon="3.87696">
        <ele>59</ele>
        <time>2020-10-17T07:04:00.000Z</time>
      </trkpt>
      <trkpt lat="43.61089" lon="3.8769">
        <ele>59</ele>
        <time>2020-10-17T07:04:01.000Z</time>
      </trkpt>
      <trkpt lat="43.6109" lon="3.87685">
        <ele>59</ele>
        <time>2020-10-17T07:04:02.000Z</time>
      </trkpt>
      <trkpt lat="43.6109" lon="3.87679">
        <ele>59</ele>
        <time>2020-10-17T07:04:03.000Z</time>
      </trkpt>
      <trkpt lat="43.61091" lon="3.87674">
        <ele>59</ele>
        <time>2020-10-17T07:04:04.000Z</time>
      </trkpt>
      <trkpt lat="43.61091" lon="3.87669">
        <ele>59</ele>
        <time>2020-10-17T07:04:05.000Z</time>
      </trkpt>
      <trkpt lat="43.61091" lon="3.87663">
        <ele>59</ele>
        <time>2020-10-17T07:04:06.000Z</time>
      </trkpt>
      <trkpt lat="43.61092" lon="3.87658">
        <ele>59</ele>
        <time>2020-10-17T07:04:07.000Z</time>
      </trkpt>
      <trkpt lat="43.61092" lon="3.87652">
        <ele>59</ele>
        <time>2020-10-17T07:04:08.000Z</time>
      </trkpt>
      <trkpt lat="43.61092" lon="3.87647">
        <ele>59</ele>
        <time>2020-10-17T07:04:09.000Z</time>
      </trkpt>
      <trkpt lat="43.61091" lon="3.87641">
        <ele>59</ele>
        <time>2020-10-17T07:04:10.000Z</time>
      </trkpt>
      <trkpt lat="43.6109" lon="3.87636">
        <ele>59</ele>
        <time>2020-10-17T07:04:11.000Z</time>
      </trkpt>
      <trkpt lat="43.61088" lon="3.8763">
        <ele>59</ele>
        <time>2020-10-17T07:04:12.000Z</time>
      </trkpt>
      <trkpt lat="43.61087" lon="3.87624">
        <ele>59</ele>
        <time>2020-10-17T07:04:13.000Z</time>
      </trkpt>
      <trkpt lat="43.61086" lon="3.87618">
        <ele>59</ele>
        <time>2020-10-17T07:04:14.000Z</time>
      </trkpt>
      <trkpt lat="43.61086" lon="3.87612">
        <ele>59</ele>
        <time>2020-10-17T07:04:15.000Z</time>
      </trkpt>
      <trkpt lat="43.61086" lon="3.87606">
        <ele>58.94599936</ele>
        <time>2020-10-17T07:04:16.000Z</time>
      </trkpt>
      <trkpt lat="43.61086" lon="3.87599">
        <ele>58.74599936</ele>
        <time>2020-10-17T07:04:17.000Z</time>
      </trkpt>
      <trkpt lat="43.61087" lon="3.87593">
        <ele>58.54599936</ele>
        <time>2020-10-17T07:04:18.000Z</time>
      </trkpt>
      <trkpt lat="43.61087" lon="3.87586">
        <ele>58.34599936</ele>
        <time>2020-10-17T07:04:19.000Z</time>
      </trkpt>
      <trkpt lat="43.61088" lon="3.8758">
        <ele>58.14599936</ele>
        <time>2020-10-17T07:04:20.000Z</time>
      </trkpt>
      <trkpt lat="43.6109" lon="3.87573">
        <ele>57.94599936</ele>
        <time>2020-10-17T07:04:21.000Z</time>
      </trkpt>
      <trkpt lat="43.6109" lon="3.87567">
        <ele>57.74599936</ele>
        <time>2020-10-17T07:04:22.000Z</time>
      </trkpt>
      <trkpt lat="43.61091" lon="3.87561">
        <ele>57.54599936</ele>
        <time>2020-10-17T07:04:23.000Z</time>
      </trkpt>
      <trkpt lat="43.61092" lon="3.87555">
        <ele>57.34599936</ele>
        <time>2020-10-17T07:04:24.000Z</time>
      </trkpt>
      <trkpt lat="43.61093" lon="3.87548">
        <ele>57.14599936</ele>
        <time>2020-10-17T07:04:25.000Z</time>
      </trkpt>
      <trkpt lat="43.61093" lon="3.87542">
        <ele>56.944443786008</ele>
        <time>2020-10-17T07:04:26.000Z</time>
      </trkpt>
      <trkpt lat="43.61094" lon="3.87536">
        <ele>56.738682469136</ele>
        <time>2020-10-17T07:04:27.000Z</time>
      </trkpt>
      <trkpt lat="43.61094" lon="3.87529">
        <ele>56.532921152263</ele>
        <time>2020-10-17T07:04:28.000Z</time>
      </trkpt>
      <trkpt lat="43.61095" lon="3.87523">
        <ele>56.327159835391</ele>
        <time>2020-10-17T07:04:29.000Z</time>
      </trkpt>
      <trkpt lat="43.61096" lon="3.87517">
        <ele>56.121398518518</ele>
        <time>2020-10-17T07:04:30.000Z</time>
      </trkpt>
      <trkpt lat="43.61096" lon="3.87511">
        <ele>55.915637201646</ele>
        <time>2020-10-17T07:04:31.000Z</time>
      </trkpt>
      <trkpt lat="43.61097" lon="3.87504">
        <ele>55.709875884774</ele>
        <time>2020-10-17T07:04:32.000Z</time>
      </trkpt>
      <trkpt lat="43.61097" lon="3.87498">
        <ele>55.504114567901</ele>
        <time>2020-10-17T07:04:33.000Z</time>
      </trkpt>
      <trkpt lat="43.61098" lon="3.87492">
        <ele>55.298353251029</ele>
        <time>2020-10-17T07:04:34.000Z</time>
      </trkpt>
      <trkpt lat="43.61098" lon="3.87485">
        <ele>55.092591934156</ele>
        <time>2020-10-17T07:04:35.000Z</time>
      </trkpt>
      <trkpt lat="43.61099" lon="3.87479">
        <ele>55</ele>
        <time>2020-10-17T07:04:36.000Z</time>
      </trkpt>
      <trkpt lat="43.61099" lon="3.87472">
        <ele>55</ele>
        <time>2020-10-17T07:04:37.000Z</time>
      </trkpt>
      <trkpt lat="43.611" lon="3.87466">
        <ele>55</ele>
        <time>2020-10-17T07:04:38.000Z</time>
      </trkpt>
      <trkpt lat="43.611" lon="3.87459">
        <ele>55</ele>
        <time>2020-10-17T07:04:39.000Z</time>
      </trkpt>
      <trkpt lat="43.611" lon="3.87453">
        <ele>55</ele>
        <time>2020-10-17T07:04:40.000Z</time>
      </trkpt>
      <trkpt lat="43.611" lon="3.87446">
        <ele>55</ele>
        <time>2020-10-17T07:04:41.000Z</time>
      </trkpt>
      <trkpt lat="43.611" lon="3.8744">
        <ele>55</ele>
        <time>2020-10-17T07:04:42.000Z</time>
      </trkpt>
      <trkpt lat="43.61101" lon="3.87434">
        <ele>55</ele>
        <time>2020-10-17T07:04:43.000Z</time>
      </trkpt>
      <trkpt lat="43.61102" lon="3.87428">
        <ele>55</ele>
        <time>2020-10-17T07:04:44.000Z</time>
      </trkpt>
      <trkpt lat="43.61103" lon="3.87422">
        <ele>55</ele>
        <time>2020-10-17T07:04:45.000Z</time>
      </trkpt>
      <trkpt lat="43.61104" lon="3.87415">
        <ele>54.94499968</ele>
        <time>2020-10-17T07:04:46.000Z</time>
      </trkpt>
      <trkpt lat="43.61105" lon="3.87409">
        <ele>54.84499968</ele>
        <time>2020-10-17T07:04:47.000Z</time>
      </trkpt>
      <trkpt lat="43.61105" lon="3.87403">
        <ele>54.74499968</ele>
        <time>2020-10-17T07:04:48.000Z</time>
      </trkpt>
      <trkpt lat="43.61106" lon="3.87396">
        <ele>54.64499968</ele>
        <time>2020-10-17T07:04:49.000Z</time>
      </trkpt>
      <trkpt lat="43.61107" lon="3.8739">
        <ele>54.54499968</ele>
        <time>2020-10-17T07:04:50.000Z</time>
      </trkpt>
      <trkpt lat="43.61107" lon="3.87384">
        <ele>54.44499968</ele>
        <time>2020-10-17T07:04:51.000Z</time>
      </trkpt>
      <trkpt lat="43.61108" lon="3.87377">
        <ele>54.34499968</ele>
        <time>2020-10-17T07:04:52.000Z</time>
      </trkpt>
      <trkpt lat="43.61109" lon="3.87371">
        <ele>54.24499968</ele>
        <time>2020-10-17T07:04:53.000Z</time>
      </trkpt>
      <trkpt lat="43.61109" lon="3.87365">
        <ele>54.14499968</ele>
        <time>2020-10-17T07:04:54.000Z</time>
      </trkpt>
      <trkpt lat="43.61111" lon="3.87359">
        <ele>54.04499968</ele>
        <time>2020-10-17T07:04:55.000Z</time>
      </trkpt>
      <trkpt lat="43.61111" lon="3.87353">
        <ele>54</ele>
        <time>2020-10-17T07:04:56.000Z</time>
      </trkpt>
      <trkpt lat="43.61111" lon="3.87347">
        <ele>54</ele>
        <time>2020-10-17T07:04:57.000Z</time>
      </trkpt>
      <trkpt lat="43.61112" lon="3.87341">
        <ele>54</ele>
        <time>2020-10-17T07:04:58.000Z</time>
      </trkpt>
      <trkpt lat="43.61112" lon="3.87334">
        <ele>54</ele>
        <time>2020-10-17T07:04:59.000Z</time>
      </trkpt>
      <trkpt lat="43.61112" lon="3.87328">
        <ele>54</ele>
        <time>2020-10-17T07:05:00.000Z</time>
      </trkpt>
      <trkpt lat="43.61112" lon="3.87321">
        <ele>54</ele>
        <time>2020-10-17T07:05:01.000Z</time>
      </trkpt>
      <trkpt lat="43.61112" lon="3.87315">
        <ele>54</ele>
        <time>2020-10-17T07:05:02.000Z</time>
      </trkpt>
      <trkpt lat="43.61113" lon="3.87309">
        <ele>54</ele>
        <time>2020-10-17T07:05:03.000Z</time>
      </trkpt>
      <trkpt lat="43.61113" lon="3.87302">
        <ele>54</ele>
        <time>2020-10-17T07:05:04.000Z</time>
      </trkpt>
      <trkpt lat="43.61113" lon="3.87295">
        <ele>54</ele>
        <time>2020-10-17T07:05:05.000Z</time>
      </trkpt>
      <trkpt lat="43.61113" lon="3.87289">
        <ele>54.05500032</ele>
        <time>2020-10-17T07:05:06.000Z</time>
      </trkpt>
      <trkpt lat="43.61114" lon="3.87282">
        <ele>54.15500032</ele>
        <time>2020-10-17T07:05:07.000Z</time>
      </trkpt>
      <trkpt lat="43.61114" lon="3.87275">
        <ele>54.25500032</ele>
        <time>2020-10-17T07:05:08.000Z</time>
      </trkpt>
      <trkpt lat="43.61115" lon="3.87268">
        <ele>54.35500032</ele>
        <time>2020-10-17T07:05:09.000Z</time>
      </trkpt>
      <trkpt lat="43.61115" lon="3.87261">
        <ele>54.45500032</ele>
        <time>2020-10-17T07:05:10.000Z</time>
      </trkpt>
      <trkpt lat="43.61115" lon="3.87255">
        <ele>54.55500032</ele>
        <time>2020-10-17T07:05:11.000Z</time>
      </trkpt>
      <trkpt lat="43.61115" lon="3.87248">
        <ele>54.65500032</ele>
        <time>2020-10-17T07:05:12.000Z</time>
      </trkpt>
      <trkpt lat="43.61116" lon="3.87242">
        <ele>54.75500032</ele>
        <time>2020-10-17T07:05:13.000Z</time>
      </trkpt>
      <trkpt lat="43.61116" lon="3.87236">
        <ele>54.85500032</ele>
        <time>2020-10-17T07:05:14.000Z</time>
      </trkpt>
      <trkpt lat="43.61116" lon="3.8723">
        <ele>54.95500032</ele>
        <time>2020-10-17T07:05:15.000Z</time>
      </trkpt>
      <trkpt lat="43.61116" lon="3.87224">
        <ele>54.94505460781</ele>
        <time>2020-10-17T07:05:16.000Z</time>
      </trkpt>
      <trkpt lat="43.61118" lon="3.87218">
        <ele>54.845154475974</ele>
        <time>2020-10-17T07:05:17.000Z</time>
      </trkpt>
      <trkpt lat="43.6112" lon="3.87213">
        <ele>54.745254344137</ele>
        <time>2020-10-17T07:05:18.000Z</time>
      </trkpt>
      <trkpt lat="43.61123" lon="3.87209">
        <ele>54.645354212301</ele>
        <time>2020-10-17T07:05:19.000Z</time>
      </trkpt>
      <trkpt lat="43.61127" lon="3.87205">
        <ele>54.545454080465</ele>
        <time>2020-10-17T07:05:20.000Z</time>
      </trkpt>
      <trkpt lat="43.61131" lon="3.87202">
        <ele>54.445553948629</ele>
        <time>2020-10-17T07:05:21.000Z</time>
      </trkpt>
      <trkpt lat="43.61137" lon="3.87201">
        <ele>54.345653816792</ele>
        <time>2020-10-17T07:05:22.000Z</time>
      </trkpt>
      <trkpt lat="43.61142" lon="3.872">
        <ele>54.245753684956</ele>
        <time>2020-10-17T07:05:23.000Z</time>
      </trkpt>
      <trkpt lat="43.61148" lon="3.872">
        <ele>54.14585355312</ele>
        <time>2020-10-17T07:05:24.000Z</time>
      </trkpt>
      <trkpt lat="43.61154" lon="3.872">
        <ele>54.045953421284</ele>
        <time>2020-10-17T07:05:25.000Z</time>
      </trkpt>
      <trkpt lat="43.61161" lon="3.87201">
        <ele>53.83783596786</ele>
        <time>2020-10-17T07:05:26.000Z</time>
      </trkpt>
      <trkpt lat="43.61168" lon="3.872">
        <ele>53.537535763752</ele>
        <time>2020-10-17T07:05:27.000Z</time>
      </trkpt>
      <trkpt lat="43.61175" lon="3.872">
        <ele>53.237235559644</ele>
        <time>2020-10-17T07:05:28.000Z</time>
      </trkpt>
      <trkpt lat="43.61181" lon="3.87199">
        <ele>52.936935355536</ele>
        <time>2020-10-17T07:05:29.000Z</time>
      </trkpt>
      <trkpt lat="43.61186" lon="3.87197">
        <ele>52.636635151428</ele>
        <time>2020-10-17T07:05:30.000Z</time>
      </trkpt>
      <trkpt lat="43.6119" lon="3.87195">
        <ele>52.33633494732</ele>
        <time>2020-10-17T07:05:31.000Z</time>
      </trkpt>
      <trkpt lat="43.61193" lon="3.87191">
        <ele>52.036034743212</ele>
        <time>2020-10-17T07:05:32.000Z</time>
      </trkpt>
      <trkpt lat="43.61195" lon="3.87185">
        <ele>51.735734539104</ele>
        <time>2020-10-17T07:05:33.000Z</time>
      </trkpt>
      <trkpt lat="43.61196" lon="3.87178">
        <ele>51.435434334996</ele>
        <time>2020-10-17T07:05:34.000Z</time>
      </trkpt>
      <trkpt lat="43.61198" lon="3.8717">
        <ele>51.135134130888</ele>
        <time>2020-10-17T07:05:35.000Z</time>
      </trkpt>
      <trkpt lat="43.61199" lon="3.87162">
        <ele>51</ele>
        <time>2020-10-17T07:05:36.000Z</time>
      </trkpt>
      <trkpt lat="43.61199" lon="3.87153">
        <ele>51</ele>
        <time>2020-10-17T07:05:37.000Z</time>
      </trkpt>
      <trkpt lat="43.612" lon="3.87144">
        <ele>51</ele>
        <time>2020-10-17T07:05:38.000Z</time>
      </trkpt>
      <trkpt lat="43.61201" lon="3.87135">
        <ele>51</ele>
        <time>2020-10-17T07:05:39.000Z</time>
      </trkpt>
      <trkpt lat="43.61201" lon="3.87126">
        <ele>51</ele>
        <time>2020-10-17T07:05:40.000Z</time>
      </trkpt>
      <trkpt lat="43.61202" lon="3.87117">
        <ele>51</ele>
        <time>2020-10-17T07:05:41.000Z</time>
      </trkpt>
      <trkpt lat="43.61203" lon="3.87108">
        <ele>51</ele>
        <time>2020-10-17T07:05:42.000Z</time>
      </trkpt>
      <trkpt lat="43.61203" lon="3.87098">
        <ele>51</ele>
        <time>2020-10-17T07:05:43.000Z</time>
      </trkpt>
      <trkpt lat="43.61204" lon="3.87089">
        <ele>51</ele>
        <time>2020-10-17T07:05:44.000Z</time>
      </trkpt>
      <trkpt lat="43.61204" lon="3.87079">
        <ele>51</ele>
        <time>2020-10-17T07:05:45.000Z</time>
      </trkpt>
      <trkpt lat="43.61205" lon="3.8707">
        <ele>50.974227117016</ele>
        <time>2020-10-17T07:05:46.000Z</time>
      </trkpt>
      <trkpt lat="43.61206" lon="3.8706">
        <ele>50.871134265491</ele>
        <time>2020-10-17T07:05:47.000Z</time>
      </trkpt>
      <trkpt lat="43.61206" lon="3.87051">
        <ele>50.768041413965</ele>
        <time>2020-10-17T07:05:48.000Z</time>
      </trkpt>
      <trkpt lat="43.61206" lon="3.87042">
        <ele>50.66494856244</ele>
        <time>2020-10-17T07:05:49.000Z</time>
      </trkpt>
      <trkpt lat="43.61207" lon="3.87032">
        <ele>50.561855710915</ele>
        <time>2020-10-17T07:05:50.000Z</time>
      </trkpt>
      <trkpt lat="43.61207" lon="3.87023">
        <ele>50.45876285939</ele>
        <time>2020-10-17T07:05:51.000Z</time>
      </trkpt>
      <trkpt lat="43.61208" lon="3.87014">
        <ele>50.355670007865</ele>
        <time>2020-10-17T07:05:52.000Z</time>
      </trkpt>
      <trkpt lat="43.61209" lon="3.87005">
        <ele>50.25257715634</ele>
        <time>2020-10-17T07:05:53.000Z</time>
      </trkpt>
      <trkpt lat="43.6121" lon="3.86996">
        <ele>50.149484304814</ele>
        <time>2020-10-17T07:05:54.000Z</time>
      </trkpt>
      <trkpt lat="43.6121" lon="3.86986">
        <ele>50.046391453289</ele>
        <time>2020-10-17T07:05:55.000Z</time>
      </trkpt>
      <trkpt lat="43.61211" lon="3.86977">
        <ele>49.94499968</ele>
        <time>2020-10-17T07:05:56.000Z</time>
      </trkpt>
      <trkpt lat="43.61212" lon="3.86967">
        <ele>49.84499968</ele>
        <time>2020-10-17T07:05:57.000Z</time>
      </trkpt>
      <trkpt lat="43.61212" lon="3.86958">
        <ele>49.74499968</ele>
        <time>2020-10-17T07:05:58.000Z</time>
      </trkpt>
      <trkpt lat="43.61213" lon="3.86949">
        <ele>49.64499968</ele>
        <time>2020-10-17T07:05:59.000Z</time>
      </trkpt>
      <trkpt lat="43.61214" lon="3.86939">
        <ele>49.54499968</ele>
        <time>2020-10-17T07:06:00.000Z</time>
      </trkpt>
      <trkpt lat="43.61215" lon="3.8693">
        <ele>49.44499968</ele>
        <time>2020-10-17T07:06:01.000Z</time>
      </trkpt>
      <trkpt lat="43.61216" lon="3.86921">
        <ele>49.34499968</ele>
        <time>2020-10-17T07:06:02.000Z</time>
      </trkpt>
      <trkpt lat="43.61217" lon="3.86912">
        <ele>49.24499968</ele>
        <time>2020-10-17T07:06:03.000Z</time>
      </trkpt>
      <trkpt lat="43.61218" lon="3.86903">
        <ele>49.14499968</ele>
        <time>2020-10-17T07:06:04.000Z</time>
      </trkpt>
      <trkpt lat="43.61218" lon="3.86894">
        <ele>49.04499968</ele>
        <time>2020-10-17T07:06:05.000Z</time>
      </trkpt>
      <trkpt lat="43.61219" lon="3.86885">
        <ele>48.839804992743</ele>
        <time>2020-10-17T07:06:06.000Z</time>
      </trkpt>
      <trkpt lat="43.61219" lon="3.86877">
        <ele>48.548543037799</ele>
        <time>2020-10-17T07:06:07.000Z</time>
      </trkpt>
      <trkpt lat="43.61219" lon="3.86869">
        <ele>48.257281082854</ele>
        <time>2020-10-17T07:06:08.000Z</time>
      </trkpt>
      <trkpt lat="43.61219" lon="3.86861">
        <ele>47.96601912791</ele>
        <time>2020-10-17T07:06:09.000Z</time>
      </trkpt>
      <trkpt lat="43.6122" lon="3.86852">
        <ele>47.674757172966</ele>
        <time>2020-10-17T07:06:10.000Z</time>
      </trkpt>
      <trkpt lat="43.6122" lon="3.86844">
        <ele>47.383495218022</ele>
        <time>2020-10-17T07:06:11.000Z</time>
      </trkpt>
      <trkpt lat="43.6122" lon="3.86836">
        <ele>47.092233263078</ele>
        <time>2020-10-17T07:06:12.000Z</time>
      </trkpt>
      <trkpt lat="43.6122" lon="3.86828">
        <ele>46.800971308134</ele>
        <time>2020-10-17T07:06:13.000Z</time>
      </trkpt>
      <trkpt lat="43.61221" lon="3.8682">
        <ele>46.50970935319</ele>
        <time>2020-10-17T07:06:14.000Z</time>
      </trkpt>
      <trkpt lat="43.61221" lon="3.86812">
        <ele>46.218447398246</ele>
        <time>2020-10-17T07:06:15.000Z</time>
      </trkpt>
      <trkpt lat="43.61219" lon="3.86804">
        <ele>45.949135967728</ele>
        <time>2020-10-17T07:06:16.000Z</time>
      </trkpt>
      <trkpt lat="43.61215" lon="3.86797">
        <ele>45.745677234367</ele>
        <time>2020-10-17T07:06:17.000Z</time>
      </trkpt>
      <trkpt lat="43.61211" lon="3.8679">
        <ele>45.542218501007</ele>
        <time>2020-10-17T07:06:18.000Z</time>
      </trkpt>
      <trkpt lat="43.61208" lon="3.86782">
        <ele>45.338759767647</ele>
        <time>2020-10-17T07:06:19.000Z</time>
      </trkpt>
      <trkpt lat="43.61206" lon="3.86773">
        <ele>45.135301034286</ele>
        <time>2020-10-17T07:06:20.000Z</time>
      </trkpt>
      <trkpt lat="43.61206" lon="3.86764">
        <ele>44.931842300926</ele>
        <time>2020-10-17T07:06:21.000Z</time>
      </trkpt>
      <trkpt lat="43.61206" lon="3.86755">
        <ele>44.728383567566</ele>
        <time>2020-10-17T07:06:22.000Z</time>
      </trkpt>
      <trkpt lat="43.61207" lon="3.86747">
        <ele>44.524924834205</ele>
        <time>2020-10-17T07:06:23.000Z</time>
      </trkpt>
      <trkpt lat="43.61207" lon="3.86738">
        <ele>44.321466100845</ele>
        <time>2020-10-17T07:06:24.000Z</time>
      </trkpt>
      <trkpt lat="43.61208" lon="3.86728">
        <ele>44.118007367485</ele>
        <time>2020-10-17T07:06:25.000Z</time>
      </trkpt>
      <trkpt lat="43.61208" lon="3.86719">
        <ele>43.914894831103</ele>
        <time>2020-10-17T07:06:26.000Z</time>
      </trkpt>
      <trkpt lat="43.61208" lon="3.86711">
        <ele>43.712260388825</ele>
        <time>2020-10-17T07:06:27.000Z</time>
      </trkpt>
      <trkpt lat="43.61209" lon="3.86702">
        <ele>43.509625946546</ele>
        <time>2020-10-17T07:06:28.000Z</time>
      </trkpt>
      <trkpt lat="43.61209" lon="3.86693">
        <ele>43.306991504267</ele>
        <time>2020-10-17T07:06:29.000Z</time>
      </trkpt>
      <trkpt lat="43.61209" lon="3.86684">
        <ele>43.104357061989</ele>
        <time>2020-10-17T07:06:30.000Z</time>
      </trkpt>
      <trkpt lat="43.61208" lon="3.86676">
        <ele>42.90172261971</ele>
        <time>2020-10-17T07:06:31.000Z</time>
      </trkpt>
      <trkpt lat="43.61205" lon="3.86669">
        <ele>42.699088177431</ele>
        <time>2020-10-17T07:06:32.000Z</time>
      </trkpt>
      <trkpt lat="43.612" lon="3.86665">
        <ele>42.496453735153</ele>
        <time>2020-10-17T07:06:33.000Z</time>
      </trkpt>
      <trkpt lat="43.61195" lon="3.86663">
        <ele>42.293819292874</ele>
        <time>2020-10-17T07:06:34.000Z</time>
      </trkpt>
      <trkpt lat="43.6119" lon="3.86661">
        <ele>42.091184850595</ele>
        <time>2020-10-17T07:06:35.000Z</time>
      </trkpt>
      <trkpt lat="43.61185" lon="3.86659">
        <ele>42.05500032</ele>
        <time>2020-10-17T07:06:36.000Z</time>
      </trkpt>
      <trkpt lat="43.6118" lon="3.86656">
        <ele>42.15500032</ele>
        <time>2020-10-17T07:06:37.000Z</time>
      </trkpt>
      <trkpt lat="43.61177" lon="3.86652">
        <ele>42.25500032</ele>
        <time>2020-10-17T07:06:38.000Z</time>
      </trkpt>
      <trkpt lat="43.61175" lon="3.86645">
        <ele>42.35500032</ele>
        <time>2020-10-17T07:06:39.000Z</time>
      </trkpt>
      <trkpt lat="43.61174" lon="3.86638">
        <ele>42.45500032</ele>
        <time>2020-10-17T07:06:40.000Z</time>
      </trkpt>
      <trkpt lat="43.61174" lon="3.8663">
        <ele>42.55500032</ele>
        <time>2020-10-17T07:06:41.000Z</time>
      </trkpt>
      <trkpt lat="43.61174" lon="3.86622">
        <ele>42.65500032</ele>
        <time>2020-10-17T07:06:42.000Z</time>
      </trkpt>
      <trkpt lat="43.61175" lon="3.86615">
        <ele>42.75500032</ele>
        <time>2020-10-17T07:06:43.000Z</time>
      </trkpt>
      <trkpt lat="43.61175" lon="3.86607">
        <ele>42.85500032</ele>
        <time>2020-10-17T07:06:44.000Z</time>
      </trkpt>
      <trkpt lat="43.61176" lon="3.86599">
        <ele>42.95500032</ele>
        <time>2020-10-17T07:06:45.000Z</time>
      </trkpt>
      <trkpt lat="43.61177" lon="3.86592">
        <ele>43.11000064</ele>
        <time>2020-10-17T07:06:46.000Z</time>
      </trkpt>
      <trkpt lat="43.61177" lon="3.86584">
        <ele>43.31000064</ele>
        <time>2020-10-17T07:06:47.000Z</time>
      </trkpt>
      <trkpt lat="43.61178" lon="3.86576">
        <ele>43.51000064</ele>
        <time>2020-10-17T07:06:48.000Z</time>
      </trkpt>
      <trkpt lat="43.61178" lon="3.86568">
        <ele>43.71000064</ele>
        <time>2020-10-17T07:06:49.000Z</time>
      </trkpt>
      <trkpt lat="43.61179" lon="3.86561">
        <ele>43.91000064</ele>
        <time>2020-10-17T07:06:50.000Z</time>
      </trkpt>
      <trkpt lat="43.6118" lon="3.86554">
        <ele>44.11000064</ele>
        <time>2020-10-17T07:06:51.000Z</time>
      </trkpt>
      <trkpt lat="43.61181" lon="3.86548">
        <ele>44.31000064</ele>
        <time>2020-10-17T07:06:52.000Z</time>
      </trkpt>
      <trkpt lat="43.61182" lon="3.8654">
        <ele>44.51000064</ele>
        <time>2020-10-17T07:06:53.000Z</time>
      </trkpt>
      <trkpt lat="43.61182" lon="3.86533">
        <ele>44.71000064</ele>
        <time>2020-10-17T07:06:54.000Z</time>
      </trkpt>
      <trkpt lat="43.61183" lon="3.86526">
        <ele>44.91000064</ele>
        <time>2020-10-17T07:06:55.000Z</time>
      </trkpt>
      <trkpt lat="43.61183" lon="3.86518">
        <ele>45.053502256809</ele>
        <time>2020-10-17T07:06:56.000Z</time>
      </trkpt>
      <trkpt lat="43.61183" lon="3.86511">
        <ele>45.150778521401</ele>
        <time>2020-10-17T07:06:57.000Z</time>
      </trkpt>
      <trkpt lat="43.61183" lon="3.86503">
        <ele>45.248054785992</ele>
        <time>2020-10-17T07:06:58.000Z</time>
      </trkpt>
      <trkpt lat="43.61184" lon="3.86496">
        <ele>45.345331050584</ele>
        <time>2020-10-17T07:06:59.000Z</time>
      </trkpt>
      <trkpt lat="43.61184" lon="3.86488">
        <ele>45.442607315175</ele>
        <time>2020-10-17T07:07:00.000Z</time>
      </trkpt>
      <trkpt lat="43.61185" lon="3.86481">
        <ele>45.539883579767</ele>
        <time>2020-10-17T07:07:01.000Z</time>
      </trkpt>
      <trkpt lat="43.61186" lon="3.86474">
        <ele>45.637159844358</ele>
        <time>2020-10-17T07:07:02.000Z</time>
      </trkpt>
      <trkpt lat="43.61187" lon="3.86466">
        <ele>45.734436108949</ele>
        <time>2020-10-17T07:07:03.000Z</time>
      </trkpt>
      <trkpt lat="43.61188" lon="3.86459">
        <ele>45.831712373541</ele>
        <time>2020-10-17T07:07:04.000Z</time>
      </trkpt>
      <trkpt lat="43.61189" lon="3.86452">
        <ele>45.928988638132</ele>
        <time>2020-10-17T07:07:05.000Z</time>
      </trkpt>
      <trkpt lat="43.6119" lon="3.86444">
        <ele>46.055556213992</ele>
        <time>2020-10-17T07:07:06.000Z</time>
      </trkpt>
      <trkpt lat="43.6119" lon="3.86437">
        <ele>46.261317530864</ele>
        <time>2020-10-17T07:07:07.000Z</time>
      </trkpt>
      <trkpt lat="43.61189" lon="3.8643">
        <ele>46.467078847737</ele>
        <time>2020-10-17T07:07:08.000Z</time>
      </trkpt>
      <trkpt lat="43.61189" lon="3.86422">
        <ele>46.672840164609</ele>
        <time>2020-10-17T07:07:09.000Z</time>
      </trkpt>
      <trkpt lat="43.6119" lon="3.86414">
        <ele>46.878601481482</ele>
        <time>2020-10-17T07:07:10.000Z</time>
      </trkpt>
      <trkpt lat="43.6119" lon="3.86407">
        <ele>47.084362798354</ele>
        <time>2020-10-17T07:07:11.000Z</time>
      </trkpt>
      <trkpt lat="43.61191" lon="3.86399">
        <ele>47.290124115226</ele>
        <time>2020-10-17T07:07:12.000Z</time>
      </trkpt>
      <trkpt lat="43.61192" lon="3.86392">
        <ele>47.495885432099</ele>
        <time>2020-10-17T07:07:13.000Z</time>
      </trkpt>
      <trkpt lat="43.61193" lon="3.86385">
        <ele>47.701646748971</ele>
        <time>2020-10-17T07:07:14.000Z</time>
      </trkpt>
      <trkpt lat="43.61193" lon="3.86377">
        <ele>47.907408065844</ele>
        <time>2020-10-17T07:07:15.000Z</time>
      </trkpt>
      <trkpt lat="43.61194" lon="3.8637">
        <ele>48.05500032</ele>
        <time>2020-10-17T07:07:16.000Z</time>
      </trkpt>
      <trkpt lat="43.61194" lon="3.86362">
        <ele>48.15500032</ele>
        <time>2020-10-17T07:07:17.000Z</time>
      </trkpt>
      <trkpt lat="43.61195" lon="3.86354">
        <ele>48.25500032</ele>
        <time>2020-10-17T07:07:18.000Z</time>
      </trkpt>
      <trkpt lat="43.61196" lon="3.86347">
        <ele>48.35500032</ele>
        <time>2020-10-17T07:07:19.000Z</time>
      </trkpt>
      <trkpt lat="43.61196" lon="3.86339">
        <ele>48.45500032</ele>
        <time>2020-10-17T07:07:20.000Z</time>
      </trkpt>
      <trkpt lat="43.61197" lon="3.86332">
        <ele>48.55500032</ele>
        <time>2020-10-17T07:07:21.000Z</time>
      </trkpt>
      <trkpt lat="43.61198" lon="3.86324">
        <ele>48.65500032</ele>
        <time>2020-10-17T07:07:22.000Z</time>
      </trkpt>
      <trkpt lat="43.61199" lon="3.86317">
        <ele>48.75500032</ele>
        <time>2020-10-17T07:07:23.000Z</time>
      </trkpt>
      <trkpt lat="43.61199" lon="3.86309">
        <ele>48.85500032</ele>
        <time>2020-10-17T07:07:24.000Z</time>
      </trkpt>
      <trkpt lat="43.61199" lon="3.86301">
        <ele>48.95500032</ele>
        <time>2020-10-17T07:07:25.000Z</time>
      </trkpt>
      <trkpt lat="43.612" lon="3.86294">
        <ele>49.053502256809</ele>
        <time>2020-10-17T07:07:26.000Z</time>
      </trkpt>
      <trkpt lat="43.61201" lon="3.86286">
        <ele>49.150778521401</ele>
        <time>2020-10-17T07:07:27.000Z</time>
      </trkpt>
      <trkpt lat="43.61201" lon="3.86279">
        <ele>49.248054785992</ele>
        <time>2020-10-17T07:07:28.000Z</time>
      </trkpt>
      <trkpt lat="43.61202" lon="3.86271">
        <ele>49.345331050584</ele>
        <time>2020-10-17T07:07:29.000Z</time>
      </trkpt>
      <trkpt lat="43.61202" lon="3.86264">
        <ele>49.442607315175</ele>
        <time>2020-10-17T07:07:30.000Z</time>
      </trkpt>
      <trkpt lat="43.61203" lon="3.86256">
        <ele>49.539883579767</ele>
        <time>2020-10-17T07:07:31.000Z</time>
      </trkpt>
      <trkpt lat="43.61203" lon="3.86249">
        <ele>49.637159844358</ele>
        <time>2020-10-17T07:07:32.000Z</time>
      </trkpt>
      <trkpt lat="43.61204" lon="3.86242">
        <ele>49.734436108949</ele>
        <time>2020-10-17T07:07:33.000Z</time>
      </trkpt>
      <trkpt lat="43.61205" lon="3.86234">
        <ele>49.831712373541</ele>
        <time>2020-10-17T07:07:34.000Z</time>
      </trkpt>
      <trkpt lat="43.61205" lon="3.86227">
        <ele>49.928988638132</ele>
        <time>2020-10-17T07:07:35.000Z</time>
      </trkpt>
      <trkpt lat="43.61205" lon="3.8622">
        <ele>50.027273032874</ele>
        <time>2020-10-17T07:07:36.000Z</time>
      </trkpt>
      <trkpt lat="43.61206" lon="3.86213">
        <ele>50.128283068585</ele>
        <time>2020-10-17T07:07:37.000Z</time>
      </trkpt>
      <trkpt lat="43.61206" lon="3.86205">
        <ele>50.229293104295</ele>
        <time>2020-10-17T07:07:38.000Z</time>
      </trkpt>
      <trkpt lat="43.61206" lon="3.86198">
        <ele>50.330303140006</ele>
        <time>2020-10-17T07:07:39.000Z</time>
      </trkpt>
      <trkpt lat="43.61206" lon="3.86191">
        <ele>50.431313175717</ele>
        <time>2020-10-17T07:07:40.000Z</time>
      </trkpt>
      <trkpt lat="43.61206" lon="3.86184">
        <ele>50.532323211427</ele>
        <time>2020-10-17T07:07:41.000Z</time>
      </trkpt>
      <trkpt lat="43.61205" lon="3.86178">
        <ele>50.633333247138</ele>
        <time>2020-10-17T07:07:42.000Z</time>
      </trkpt>
      <trkpt lat="43.61205" lon="3.86171">
        <ele>50.734343282849</ele>
        <time>2020-10-17T07:07:43.000Z</time>
      </trkpt>
      <trkpt lat="43.61205" lon="3.86164">
        <ele>50.835353318559</ele>
        <time>2020-10-17T07:07:44.000Z</time>
      </trkpt>
      <trkpt lat="43.61206" lon="3.86157">
        <ele>50.93636335427</ele>
        <time>2020-10-17T07:07:45.000Z</time>
      </trkpt>
      <trkpt lat="43.61206" lon="3.8615">
        <ele>51.03767790643</ele>
        <time>2020-10-17T07:07:46.000Z</time>
      </trkpt>
      <trkpt lat="43.61206" lon="3.86142">
        <ele>51.139510966687</ele>
        <time>2020-10-17T07:07:47.000Z</time>
      </trkpt>
      <trkpt lat="43.61206" lon="3.86135">
        <ele>51.241344026945</ele>
        <time>2020-10-17T07:07:48.000Z</time>
      </trkpt>
      <trkpt lat="43.61207" lon="3.86127">
        <ele>51.343177087203</ele>
        <time>2020-10-17T07:07:49.000Z</time>
      </trkpt>
      <trkpt lat="43.61209" lon="3.86119">
        <ele>51.445010147461</ele>
        <time>2020-10-17T07:07:50.000Z</time>
      </trkpt>
      <trkpt lat="43.6121" lon="3.86111">
        <ele>51.546843207719</ele>
        <time>2020-10-17T07:07:51.000Z</time>
      </trkpt>
      <trkpt lat="43.61212" lon="3.86104">
        <ele>51.648676267976</ele>
        <time>2020-10-17T07:07:52.000Z</time>
      </trkpt>
      <trkpt lat="43.61214" lon="3.86097">
        <ele>51.750509328234</ele>
        <time>2020-10-17T07:07:53.000Z</time>
      </trkpt>
      <trkpt lat="43.61215" lon="3.8609">
        <ele>51.852342388492</ele>
        <time>2020-10-17T07:07:54.000Z</time>
      </trkpt>
      <trkpt lat="43.61218" lon="3.86083">
        <ele>51.95417544875</ele>
        <time>2020-10-17T07:07:55.000Z</time>
      </trkpt>
      <trkpt lat="43.6122" lon="3.86077">
        <ele>52.11000064</ele>
        <time>2020-10-17T07:07:56.000Z</time>
      </trkpt>
      <trkpt lat="43.61222" lon="3.86071">
        <ele>52.31000064</ele>
        <time>2020-10-17T07:07:57.000Z</time>
      </trkpt>
      <trkpt lat="43.61224" lon="3.86065">
        <ele>52.51000064</ele>
        <time>2020-10-17T07:07:58.000Z</time>
      </trkpt>
      <trkpt lat="43.61227" lon="3.86059">
        <ele>52.71000064</ele>
        <time>2020-10-17T07:07:59.000Z</time>
      </trkpt>
      <trkpt lat="43.61231" lon="3.86052">
        <ele>52.91000064</ele>
        <time>2020-10-17T07:08:00.000Z</time>
      </trkpt>
      <trkpt lat="43.61233" lon="3.86045">
        <ele>53.11000064</ele>
        <time>2020-10-17T07:08:01.000Z</time>
      </trkpt>
      <trkpt lat="43.61235" lon="3.86038">
        <ele>53.31000064</ele>
        <time>2020-10-17T07:08:02.000Z</time>
      </trkpt>
      <trkpt lat="43.61238" lon="3.86031">
        <ele>53.51000064</ele>
        <time>2020-10-17T07:08:03.000Z</time>
      </trkpt>
      <trkpt lat="43.6124" lon="3.86024">
        <ele>53.71000064</ele>
        <time>2020-10-17T07:08:04.000Z</time>
      </trkpt>
      <trkpt lat="43.61242" lon="3.86017">
        <ele>53.91000064</ele>
        <time>2020-10-17T07:08:05.000Z</time>
      </trkpt>
      <trkpt lat="43.61245" lon="3.86012">
        <ele>54.05500032</ele>
        <time>2020-10-17T07:08:06.000Z</time>
      </trkpt>
      <trkpt lat="43.61247" lon="3.86007">
        <ele>54.15500032</ele>
        <time>2020-10-17T07:08:07.000Z</time>
      </trkpt>
      <trkpt lat="43.6125" lon="3.86001">
        <ele>54.25500032</ele>
        <time>2020-10-17T07:08:08.000Z</time>
      </trkpt>
      <trkpt lat="43.61254" lon="3.85996">
        <ele>54.35500032</ele>
        <time>2020-10-17T07:08:09.000Z</time>
      </trkpt>
      <trkpt lat="43.61258" lon="3.8599">
        <ele>54.45500032</ele>
        <time>2020-10-17T07:08:10.000Z</time>
      </trkpt>
      <trkpt lat="43.61261" lon="3.85983">
        <ele>54.55500032</ele>
        <time>2020-10-17T07:08:11.000Z</time>
      </trkpt>
      <trkpt lat="43.61265" lon="3.85978">
        <ele>54.65500032</ele>
        <time>2020-10-17T07:08:12.000Z</time>
      </trkpt>
      <trkpt lat="43.61268" lon="3.85972">
        <ele>54.75500032</ele>
        <time>2020-10-17T07:08:13.000Z</time>
      </trkpt>
      <trkpt lat="43.61272" lon="3.85967">
        <ele>54.85500032</ele>
        <time>2020-10-17T07:08:14.000Z</time>
      </trkpt>
      <trkpt lat="43.61276" lon="3.85962">
        <ele>54.95500032</ele>
        <time>2020-10-17T07:08:15.000Z</time>
      </trkpt>
      <trkpt lat="43.61279" lon="3.85957">
        <ele>54.94499968</ele>
        <time>2020-10-17T07:08:16.000Z</time>
      </trkpt>
      <trkpt lat="43.61283" lon="3.85951">
        <ele>54.84499968</ele>
        <time>2020-10-17T07:08:17.000Z</time>
      </trkpt>
      <trkpt lat="43.61286" lon="3.85947">
        <ele>54.74499968</ele>
        <time>2020-10-17T07:08:18.000Z</time>
      </trkpt>
      <trkpt lat="43.6129" lon="3.85941">
        <ele>54.64499968</ele>
        <time>2020-10-17T07:08:19.000Z</time>
      </trkpt>
      <trkpt lat="43.61295" lon="3.85936">
        <ele>54.54499968</ele>
        <time>2020-10-17T07:08:20.000Z</time>
      </trkpt>
      <trkpt lat="43.613" lon="3.85932">
        <ele>54.44499968</ele>
        <time>2020-10-17T07:08:21.000Z</time>
      </trkpt>
      <trkpt lat="43.61304" lon="3.85927">
        <ele>54.34499968</ele>
        <time>2020-10-17T07:08:22.000Z</time>
      </trkpt>
      <trkpt lat="43.61308" lon="3.85922">
        <ele>54.24499968</ele>
        <time>2020-10-17T07:08:23.000Z</time>
      </trkpt>
      <trkpt lat="43.61313" lon="3.85916">
        <ele>54.14499968</ele>
        <time>2020-10-17T07:08:24.000Z</time>
      </trkpt>
      <trkpt lat="43.61317" lon="3.85911">
        <ele>54.04499968</ele>
        <time>2020-10-17T07:08:25.000Z</time>
      </trkpt>
      <trkpt lat="43.61322" lon="3.85906">
        <ele>53.94499968</ele>
        <time>2020-10-17T07:08:26.000Z</time>
      </trkpt>
      <trkpt lat="43.61326" lon="3.85902">
        <ele>53.84499968</ele>
        <time>2020-10-17T07:08:27.000Z</time>
      </trkpt>
      <trkpt lat="43.61331" lon="3.85897">
        <ele>53.74499968</ele>
        <time>2020-10-17T07:08:28.000Z</time>
      </trkpt>
      <trkpt lat="43.61335" lon="3.85893">
        <ele>53.64499968</ele>
        <time>2020-10-17T07:08:29.000Z</time>
      </trkpt>
      <trkpt lat="43.61339" lon="3.85889">
        <ele>53.54499968</ele>
        <time>2020-10-17T07:08:30.000Z</time>
      </trkpt>
      <trkpt lat="43.61344" lon="3.85884">
        <ele>53.44499968</ele>
        <time>2020-10-17T07:08:31.000Z</time>
      </trkpt>
      <trkpt lat="43.61348" lon="3.85879">
        <ele>53.34499968</ele>
        <time>2020-10-17T07:08:32.000Z</time>
      </trkpt>
      <trkpt lat="43.61352" lon="3.85875">
        <ele>53.24499968</ele>
        <time>2020-10-17T07:08:33.000Z</time>
      </trkpt>
      <trkpt lat="43.61356" lon="3.8587">
        <ele>53.14499968</ele>
        <time>2020-10-17T07:08:34.000Z</time>
      </trkpt>
      <trkpt lat="43.6136" lon="3.85865">
        <ele>53.04499968</ele>
        <time>2020-10-17T07:08:35.000Z</time>
      </trkpt>
      <trkpt lat="43.61364" lon="3.85861">
        <ele>52.94499968</ele>
        <time>2020-10-17T07:08:36.000Z</time>
      </trkpt>
      <trkpt lat="43.61368" lon="3.85855">
        <ele>52.84499968</ele>
        <time>2020-10-17T07:08:37.000Z</time>
      </trkpt>
      <trkpt lat="43.61373" lon="3.85851">
        <ele>52.74499968</ele>
        <time>2020-10-17T07:08:38.000Z</time>
      </trkpt>
      <trkpt lat="43.61377" lon="3.85847">
        <ele>52.64499968</ele>
        <time>2020-10-17T07:08:39.000Z</time>
      </trkpt>
      <trkpt lat="43.61381" lon="3.85843">
        <ele>52.54499968</ele>
        <time>2020-10-17T07:08:40.000Z</time>
      </trkpt>
      <trkpt lat="43.61384" lon="3.85839">
        <ele>52.44499968</ele>
        <time>2020-10-17T07:08:41.000Z</time>
      </trkpt>
      <trkpt lat="43.61389" lon="3.85833">
        <ele>52.34499968</ele>
        <time>2020-10-17T07:08:42.000Z</time>
      </trkpt>
      <trkpt lat="43.61393" lon="3.85827">
        <ele>52.24499968</ele>
        <time>2020-10-17T07:08:43.000Z</time>
      </trkpt>
      <trkpt lat="43.61398" lon="3.85822">
        <ele>52.14499968</ele>
        <time>2020-10-17T07:08:44.000Z</time>
      </trkpt>
      <trkpt lat="43.61403" lon="3.85817">
        <ele>52.04499968</ele>
        <time>2020-10-17T07:08:45.000Z</time>
      </trkpt>
      <trkpt lat="43.61407" lon="3.85811">
        <ele>52</ele>
        <time>2020-10-17T07:08:46.000Z</time>
      </trkpt>
      <trkpt lat="43.61411" lon="3.85806">
        <ele>52</ele>
        <time>2020-10-17T07:08:47.000Z</time>
      </trkpt>
      <trkpt lat="43.61415" lon="3.85801">
        <ele>52</ele>
        <time>2020-10-17T07:08:48.000Z</time>
      </trkpt>
      <trkpt lat="43.61419" lon="3.85796">
        <ele>52</ele>
        <time>2020-10-17T07:08:49.000Z</time>
      </trkpt>
      <trkpt lat="43.61423" lon="3.85791">
        <ele>52</ele>
        <time>2020-10-17T07:08:50.000Z</time>
      </trkpt>
      <trkpt lat="43.61427" lon="3.85786">
        <ele>52</ele>
        <time>2020-10-17T07:08:51.000Z</time>
      </trkpt>
      <trkpt lat="43.61431" lon="3.85782">
        <ele>52</ele>
        <time>2020-10-17T07:08:52.000Z</time>
      </trkpt>
      <trkpt lat="43.61436" lon="3.85777">
        <ele>52</ele>
        <time>2020-10-17T07:08:53.000Z</time>
      </trkpt>
      <trkpt lat="43.6144" lon="3.85772">
        <ele>52</ele>
        <time>2020-10-17T07:08:54.000Z</time>
      </trkpt>
      <trkpt lat="43.61444" lon="3.85768">
        <ele>52</ele>
        <time>2020-10-17T07:08:55.000Z</time>
      </trkpt>
      <trkpt lat="43.61448" lon="3.85763">
        <ele>52</ele>
        <time>2020-10-17T07:08:56.000Z</time>
      </trkpt>
      <trkpt lat="43.61452" lon="3.85758">
        <ele>52</ele>
        <time>2020-10-17T07:08:57.000Z</time>
      </trkpt>
      <trkpt lat="43.61456" lon="3.85754">
        <ele>52</ele>
        <time>2020-10-17T07:08:58.000Z</time>
      </trkpt>
      <trkpt lat="43.6146" lon="3.85749">
        <ele>52</ele>
        <time>2020-10-17T07:08:59.000Z</time>
      </trkpt>
      <trkpt lat="43.61464" lon="3.85744">
        <ele>52</ele>
        <time>2020-10-17T07:09:00.000Z</time>
      </trkpt>
      <trkpt lat="43.61468" lon="3.85739">
        <ele>52</ele>
        <time>2020-10-17T07:09:01.000Z</time>
      </trkpt>
      <trkpt lat="43.61472" lon="3.85734">
        <ele>52</ele>
        <time>2020-10-17T07:09:02.000Z</time>
      </trkpt>
      <trkpt lat="43.61476" lon="3.85729">
        <ele>52</ele>
        <time>2020-10-17T07:09:03.000Z</time>
      </trkpt>
      <trkpt lat="43.6148" lon="3.85724">
        <ele>52</ele>
        <time>2020-10-17T07:09:04.000Z</time>
      </trkpt>
      <trkpt lat="43.61484" lon="3.85718">
        <ele>52</ele>
        <time>2020-10-17T07:09:05.000Z</time>
      </trkpt>
      <trkpt lat="43.61488" lon="3.85713">
        <ele>52.054509749696</ele>
        <time>2020-10-17T07:09:06.000Z</time>
      </trkpt>
      <trkpt lat="43.61492" lon="3.85707">
        <ele>52.153617808878</ele>
        <time>2020-10-17T07:09:07.000Z</time>
      </trkpt>
      <trkpt lat="43.61496" lon="3.85702">
        <ele>52.25272586806</ele>
        <time>2020-10-17T07:09:08.000Z</time>
      </trkpt>
      <trkpt lat="43.615" lon="3.85698">
        <ele>52.351833927242</ele>
        <time>2020-10-17T07:09:09.000Z</time>
      </trkpt>
      <trkpt lat="43.61503" lon="3.85694">
        <ele>52.450941986424</ele>
        <time>2020-10-17T07:09:10.000Z</time>
      </trkpt>
      <trkpt lat="43.61506" lon="3.85691">
        <ele>52.550050045606</ele>
        <time>2020-10-17T07:09:11.000Z</time>
      </trkpt>
      <trkpt lat="43.61509" lon="3.85686">
        <ele>52.649158104788</ele>
        <time>2020-10-17T07:09:12.000Z</time>
      </trkpt>
      <trkpt lat="43.61513" lon="3.85682">
        <ele>52.748266163969</ele>
        <time>2020-10-17T07:09:13.000Z</time>
      </trkpt>
      <trkpt lat="43.61517" lon="3.85677">
        <ele>52.847374223151</ele>
        <time>2020-10-17T07:09:14.000Z</time>
      </trkpt>
      <trkpt lat="43.6152" lon="3.85673">
        <ele>52.946482282333</ele>
        <time>2020-10-17T07:09:15.000Z</time>
      </trkpt>
      <trkpt lat="43.61524" lon="3.85668">
        <ele>53.046418390662</ele>
        <time>2020-10-17T07:09:16.000Z</time>
      </trkpt>
      <trkpt lat="43.61529" lon="3.85663">
        <ele>53.14732653164</ele>
        <time>2020-10-17T07:09:17.000Z</time>
      </trkpt>
      <trkpt lat="43.61533" lon="3.85659">
        <ele>53.248234672619</ele>
        <time>2020-10-17T07:09:18.000Z</time>
      </trkpt>
      <trkpt lat="43.61537" lon="3.85654">
        <ele>53.349142813597</ele>
        <time>2020-10-17T07:09:19.000Z</time>
      </trkpt>
      <trkpt lat="43.61541" lon="3.8565">
        <ele>53.450050954575</ele>
        <time>2020-10-17T07:09:20.000Z</time>
      </trkpt>
      <trkpt lat="43.61544" lon="3.85645">
        <ele>53.550959095553</ele>
        <time>2020-10-17T07:09:21.000Z</time>
      </trkpt>
      <trkpt lat="43.61548" lon="3.8564">
        <ele>53.651867236531</ele>
        <time>2020-10-17T07:09:22.000Z</time>
      </trkpt>
      <trkpt lat="43.61552" lon="3.85636">
        <ele>53.75277537751</ele>
        <time>2020-10-17T07:09:23.000Z</time>
      </trkpt>
      <trkpt lat="43.61556" lon="3.85632">
        <ele>53.853683518488</ele>
        <time>2020-10-17T07:09:24.000Z</time>
      </trkpt>
      <trkpt lat="43.6156" lon="3.85628">
        <ele>53.954591659466</ele>
        <time>2020-10-17T07:09:25.000Z</time>
      </trkpt>
      <trkpt lat="43.61564" lon="3.85624">
        <ele>54</ele>
        <time>2020-10-17T07:09:26.000Z</time>
      </trkpt>
      <trkpt lat="43.61568" lon="3.85619">
        <ele>54</ele>
        <time>2020-10-17T07:09:27.000Z</time>
      </trkpt>
      <trkpt lat="43.61572" lon="3.85614">
        <ele>54</ele>
        <time>2020-10-17T07:09:28.000Z</time>
      </trkpt>
      <trkpt lat="43.61576" lon="3.85609">
        <ele>54</ele>
        <time>2020-10-17T07:09:29.000Z</time>
      </trkpt>
      <trkpt lat="43.6158" lon="3.85604">
        <ele>54</ele>
        <time>2020-10-17T07:09:30.000Z</time>
      </trkpt>
      <trkpt lat="43.61585" lon="3.85599">
        <ele>54</ele>
        <time>2020-10-17T07:09:31.000Z</time>
      </trkpt>
      <trkpt lat="43.61589" lon="3.85594">
        <ele>54</ele>
        <time>2020-10-17T07:09:32.000Z</time>
      </trkpt>
      <trkpt lat="43.61593" lon="3.85589">
        <ele>54</ele>
        <time>2020-10-17T07:09:33.000Z</time>
      </trkpt>
      <trkpt lat="43.61597" lon="3.85585">
        <ele>54</ele>
        <time>2020-10-17T07:09:34.000Z</time>
      </trkpt>
      <trkpt lat="43.61601" lon="3.8558">
        <ele>54</ele>
        <time>2020-10-17T07:09:35.000Z</time>
      </trkpt>
      <trkpt lat="43.61605" lon="3.85576">
        <ele>54</ele>
        <time>2020-10-17T07:09:36.000Z</time>
      </trkpt>
      <trkpt lat="43.61609" lon="3.85571">
        <ele>54</ele>
        <time>2020-10-17T07:09:37.000Z</time>
      </trkpt>
      <trkpt lat="43.61613" lon="3.85566">
        <ele>54</ele>
        <time>2020-10-17T07:09:38.000Z</time>
      </trkpt>
      <trkpt lat="43.61617" lon="3.85561">
        <ele>54</ele>
        <time>2020-10-17T07:09:39.000Z</time>
      </trkpt>
      <trkpt lat="43.61621" lon="3.85556">
        <ele>54</ele>
        <time>2020-10-17T07:09:40.000Z</time>
      </trkpt>
      <trkpt lat="43.61625" lon="3.85551">
        <ele>54</ele>
        <time>2020-10-17T07:09:41.000Z</time>
      </trkpt>
      <trkpt lat="43.61629" lon="3.85547">
        <ele>54</ele>
        <time>2020-10-17T07:09:42.000Z</time>
      </trkpt>
      <trkpt lat="43.61633" lon="3.85542">
        <ele>54</ele>
        <time>2020-10-17T07:09:43.000Z</time>
      </trkpt>
      <trkpt lat="43.61637" lon="3.85538">
        <ele>54</ele>
        <time>2020-10-17T07:09:44.000Z</time>
      </trkpt>
      <trkpt lat="43.61641" lon="3.85533">
        <ele>54</ele>
        <time>2020-10-17T07:09:45.000Z</time>
      </trkpt>
      <trkpt lat="43.61645" lon="3.85528">
        <ele>54.05500032</ele>
        <time>2020-10-17T07:09:46.000Z</time>
      </trkpt>
      <trkpt lat="43.61649" lon="3.85524">
        <ele>54.15500032</ele>
        <time>2020-10-17T07:09:47.000Z</time>
      </trkpt>
      <trkpt lat="43.61653" lon="3.85519">
        <ele>54.25500032</ele>
        <time>2020-10-17T07:09:48.000Z</time>
      </trkpt>
      <trkpt lat="43.61657" lon="3.85514">
        <ele>54.35500032</ele>
        <time>2020-10-17T07:09:49.000Z</time>
      </trkpt>
      <trkpt lat="43.61661" lon="3.85509">
        <ele>54.45500032</ele>
        <time>2020-10-17T07:09:50.000Z</time>
      </trkpt>
      <trkpt lat="43.61665" lon="3.85504">
        <ele>54.55500032</ele>
        <time>2020-10-17T07:09:51.000Z</time>
      </trkpt>
      <trkpt lat="43.6167" lon="3.85499">
        <ele>54.65500032</ele>
        <time>2020-10-17T07:09:52.000Z</time>
      </trkpt>
      <trkpt lat="43.61674" lon="3.85495">
        <ele>54.75500032</ele>
        <time>2020-10-17T07:09:53.000Z</time>
      </trkpt>
      <trkpt lat="43.61678" lon="3.8549">
        <ele>54.85500032</ele>
        <time>2020-10-17T07:09:54.000Z</time>
      </trkpt>
      <trkpt lat="43.61682" lon="3.85485">
        <ele>54.95500032</ele>
        <time>2020-10-17T07:09:55.000Z</time>
      </trkpt>
      <trkpt lat="43.61686" lon="3.8548">
        <ele>54.946497743191</ele>
        <time>2020-10-17T07:09:56.000Z</time>
      </trkpt>
      <trkpt lat="43.6169" lon="3.85475">
        <ele>54.849221478599</ele>
        <time>2020-10-17T07:09:57.000Z</time>
      </trkpt>
      <trkpt lat="43.61694" lon="3.8547">
        <ele>54.751945214008</ele>
        <time>2020-10-17T07:09:58.000Z</time>
      </trkpt>
      <trkpt lat="43.61698" lon="3.85465">
        <ele>54.654668949416</ele>
        <time>2020-10-17T07:09:59.000Z</time>
      </trkpt>
      <trkpt lat="43.61702" lon="3.8546">
        <ele>54.557392684825</ele>
        <time>2020-10-17T07:10:00.000Z</time>
      </trkpt>
      <trkpt lat="43.61706" lon="3.85456">
        <ele>54.460116420233</ele>
        <time>2020-10-17T07:10:01.000Z</time>
      </trkpt>
      <trkpt lat="43.6171" lon="3.85451">
        <ele>54.362840155642</ele>
        <time>2020-10-17T07:10:02.000Z</time>
      </trkpt>
      <trkpt lat="43.61714" lon="3.85446">
        <ele>54.265563891051</ele>
        <time>2020-10-17T07:10:03.000Z</time>
      </trkpt>
      <trkpt lat="43.61718" lon="3.85441">
        <ele>54.168287626459</ele>
        <time>2020-10-17T07:10:04.000Z</time>
      </trkpt>
      <trkpt lat="43.61722" lon="3.85436">
        <ele>54.071011361868</ele>
        <time>2020-10-17T07:10:05.000Z</time>
      </trkpt>
      <trkpt lat="43.61726" lon="3.85432">
        <ele>54</ele>
        <time>2020-10-17T07:10:06.000Z</time>
      </trkpt>
      <trkpt lat="43.6173" lon="3.85427">
        <ele>54</ele>
        <time>2020-10-17T07:10:07.000Z</time>
      </trkpt>
      <trkpt lat="43.61734" lon="3.85423">
        <ele>54</ele>
        <time>2020-10-17T07:10:08.000Z</time>
      </trkpt>
      <trkpt lat="43.61738" lon="3.85419">
        <ele>54</ele>
        <time>2020-10-17T07:10:09.000Z</time>
      </trkpt>
      <trkpt lat="43.61742" lon="3.85414">
        <ele>54</ele>
        <time>2020-10-17T07:10:10.000Z</time>
      </trkpt>
      <trkpt lat="43.61746" lon="3.85409">
        <ele>54</ele>
        <time>2020-10-17T07:10:11.000Z</time>
      </trkpt>
      <trkpt lat="43.6175" lon="3.85404">
        <ele>54</ele>
        <time>2020-10-17T07:10:12.000Z</time>
      </trkpt>
      <trkpt lat="43.61753" lon="3.85399">
        <ele>54</ele>
        <time>2020-10-17T07:10:13.000Z</time>
      </trkpt>
      <trkpt lat="43.61756" lon="3.85393">
        <ele>54</ele>
        <time>2020-10-17T07:10:14.000Z</time>
      </trkpt>
      <trkpt lat="43.61759" lon="3.85387">
        <ele>54</ele>
        <time>2020-10-17T07:10:15.000Z</time>
      </trkpt>
      <trkpt lat="43.61762" lon="3.85381">
        <ele>53.976239338843</ele>
        <time>2020-10-17T07:10:16.000Z</time>
      </trkpt>
      <trkpt lat="43.61765" lon="3.85376">
        <ele>53.872933553719</ele>
        <time>2020-10-17T07:10:17.000Z</time>
      </trkpt>
      <trkpt lat="43.61768" lon="3.8537">
        <ele>53.769627768595</ele>
        <time>2020-10-17T07:10:18.000Z</time>
      </trkpt>
      <trkpt lat="43.61772" lon="3.85364">
        <ele>53.666321983471</ele>
        <time>2020-10-17T07:10:19.000Z</time>
      </trkpt>
      <trkpt lat="43.61776" lon="3.8536">
        <ele>53.563016198347</ele>
        <time>2020-10-17T07:10:20.000Z</time>
      </trkpt>
      <trkpt lat="43.61781" lon="3.85356">
        <ele>53.459710413223</ele>
        <time>2020-10-17T07:10:21.000Z</time>
      </trkpt>
      <trkpt lat="43.61786" lon="3.85353">
        <ele>53.356404628099</ele>
        <time>2020-10-17T07:10:22.000Z</time>
      </trkpt>
      <trkpt lat="43.61791" lon="3.85351">
        <ele>53.253098842975</ele>
        <time>2020-10-17T07:10:23.000Z</time>
      </trkpt>
      <trkpt lat="43.61797" lon="3.85347">
        <ele>53.149793057851</ele>
        <time>2020-10-17T07:10:24.000Z</time>
      </trkpt>
      <trkpt lat="43.61802" lon="3.85344">
        <ele>53.046487272727</ele>
        <time>2020-10-17T07:10:25.000Z</time>
      </trkpt>
      <trkpt lat="43.61808" lon="3.8534">
        <ele>53</ele>
        <time>2020-10-17T07:10:26.000Z</time>
      </trkpt>
      <trkpt lat="43.61813" lon="3.85337">
        <ele>53</ele>
        <time>2020-10-17T07:10:27.000Z</time>
      </trkpt>
      <trkpt lat="43.61819" lon="3.85333">
        <ele>53</ele>
        <time>2020-10-17T07:10:28.000Z</time>
      </trkpt>
      <trkpt lat="43.61824" lon="3.85329">
        <ele>53</ele>
        <time>2020-10-17T07:10:29.000Z</time>
      </trkpt>
      <trkpt lat="43.6183" lon="3.85325">
        <ele>53</ele>
        <time>2020-10-17T07:10:30.000Z</time>
      </trkpt>
      <trkpt lat="43.61835" lon="3.85322">
        <ele>53</ele>
        <time>2020-10-17T07:10:31.000Z</time>
      </trkpt>
      <trkpt lat="43.61841" lon="3.85318">
        <ele>53</ele>
        <time>2020-10-17T07:10:32.000Z</time>
      </trkpt>
      <trkpt lat="43.61846" lon="3.85314">
        <ele>53</ele>
        <time>2020-10-17T07:10:33.000Z</time>
      </trkpt>
      <trkpt lat="43.61851" lon="3.85309">
        <ele>53</ele>
        <time>2020-10-17T07:10:34.000Z</time>
      </trkpt>
      <trkpt lat="43.61856" lon="3.85304">
        <ele>53</ele>
        <time>2020-10-17T07:10:35.000Z</time>
      </trkpt>
      <trkpt lat="43.61861" lon="3.853">
        <ele>52.94499968</ele>
        <time>2020-10-17T07:10:36.000Z</time>
      </trkpt>
      <trkpt lat="43.61866" lon="3.85295">
        <ele>52.84499968</ele>
        <time>2020-10-17T07:10:37.000Z</time>
      </trkpt>
      <trkpt lat="43.61871" lon="3.85289">
        <ele>52.74499968</ele>
        <time>2020-10-17T07:10:38.000Z</time>
      </trkpt>
      <trkpt lat="43.61875" lon="3.85283">
        <ele>52.64499968</ele>
        <time>2020-10-17T07:10:39.000Z</time>
      </trkpt>
      <trkpt lat="43.61879" lon="3.85277">
        <ele>52.54499968</ele>
        <time>2020-10-17T07:10:40.000Z</time>
      </trkpt>
      <trkpt lat="43.61883" lon="3.85271">
        <ele>52.44499968</ele>
        <time>2020-10-17T07:10:41.000Z</time>
      </trkpt>
      <trkpt lat="43.61887" lon="3.85265">
        <ele>52.34499968</ele>
        <time>2020-10-17T07:10:42.000Z</time>
      </trkpt>
      <trkpt lat="43.61891" lon="3.85259">
        <ele>52.24499968</ele>
        <time>2020-10-17T07:10:43.000Z</time>
      </trkpt>
      <trkpt lat="43.61896" lon="3.85252">
        <ele>52.14499968</ele>
        <time>2020-10-17T07:10:44.000Z</time>
      </trkpt>
      <trkpt lat="43.619" lon="3.85246">
        <ele>52.04499968</ele>
        <time>2020-10-17T07:10:45.000Z</time>
      </trkpt>
      <trkpt lat="43.61904" lon="3.8524">
        <ele>52</ele>
        <time>2020-10-17T07:10:46.000Z</time>
      </trkpt>
      <trkpt lat="43.61908" lon="3.85233">
        <ele>52</ele>
        <time>2020-10-17T07:10:47.000Z</time>
      </trkpt>
      <trkpt lat="43.61912" lon="3.85226">
        <ele>52</ele>
        <time>2020-10-17T07:10:48.000Z</time>
      </trkpt>
      <trkpt lat="43.61916" lon="3.8522">
        <ele>52</ele>
        <time>2020-10-17T07:10:49.000Z</time>
      </trkpt>
      <trkpt lat="43.6192" lon="3.85213">
        <ele>52</ele>
        <time>2020-10-17T07:10:50.000Z</time>
      </trkpt>
      <trkpt lat="43.61925" lon="3.85207">
        <ele>52</ele>
        <time>2020-10-17T07:10:51.000Z</time>
      </trkpt>
      <trkpt lat="43.61929" lon="3.852">
        <ele>52</ele>
        <time>2020-10-17T07:10:52.000Z</time>
      </trkpt>
      <trkpt lat="43.61933" lon="3.85194">
        <ele>52</ele>
        <time>2020-10-17T07:10:53.000Z</time>
      </trkpt>
      <trkpt lat="43.61937" lon="3.85187">
        <ele>52</ele>
        <time>2020-10-17T07:10:54.000Z</time>
      </trkpt>
      <trkpt lat="43.61942" lon="3.85181">
        <ele>52</ele>
        <time>2020-10-17T07:10:55.000Z</time>
      </trkpt>
      <trkpt lat="43.61946" lon="3.85175">
        <ele>51.946601664248</ele>
        <time>2020-10-17T07:10:56.000Z</time>
      </trkpt>
      <trkpt lat="43.6195" lon="3.85169">
        <ele>51.849514345933</ele>
        <time>2020-10-17T07:10:57.000Z</time>
      </trkpt>
      <trkpt lat="43.61955" lon="3.85163">
        <ele>51.752427027618</ele>
        <time>2020-10-17T07:10:58.000Z</time>
      </trkpt>
      <trkpt lat="43.61959" lon="3.85157">
        <ele>51.655339709303</ele>
        <time>2020-10-17T07:10:59.000Z</time>
      </trkpt>
      <trkpt lat="43.61963" lon="3.85151">
        <ele>51.558252390989</ele>
        <time>2020-10-17T07:11:00.000Z</time>
      </trkpt>
      <trkpt lat="43.61968" lon="3.85145">
        <ele>51.461165072674</ele>
        <time>2020-10-17T07:11:01.000Z</time>
      </trkpt>
      <trkpt lat="43.61972" lon="3.85139">
        <ele>51.364077754359</ele>
        <time>2020-10-17T07:11:02.000Z</time>
      </trkpt>
      <trkpt lat="43.61977" lon="3.85133">
        <ele>51.266990436045</ele>
        <time>2020-10-17T07:11:03.000Z</time>
      </trkpt>
      <trkpt lat="43.61981" lon="3.85128">
        <ele>51.16990311773</ele>
        <time>2020-10-17T07:11:04.000Z</time>
      </trkpt>
      <trkpt lat="43.61985" lon="3.85122">
        <ele>51.072815799415</ele>
        <time>2020-10-17T07:11:05.000Z</time>
      </trkpt>
      <trkpt lat="43.6199" lon="3.85117">
        <ele>50.974227117016</ele>
        <time>2020-10-17T07:11:06.000Z</time>
      </trkpt>
      <trkpt lat="43.61995" lon="3.85113">
        <ele>50.871134265491</ele>
        <time>2020-10-17T07:11:07.000Z</time>
      </trkpt>
      <trkpt lat="43.62" lon="3.85108">
        <ele>50.768041413965</ele>
        <time>2020-10-17T07:11:08.000Z</time>
      </trkpt>
      <trkpt lat="43.62004" lon="3.85102">
        <ele>50.66494856244</ele>
        <time>2020-10-17T07:11:09.000Z</time>
      </trkpt>
      <trkpt lat="43.62008" lon="3.85095">
        <ele>50.561855710915</ele>
        <time>2020-10-17T07:11:10.000Z</time>
      </trkpt>
      <trkpt lat="43.6201" lon="3.85088">
        <ele>50.45876285939</ele>
        <time>2020-10-17T07:11:11.000Z</time>
      </trkpt>
      <trkpt lat="43.62011" lon="3.8508">
        <ele>50.355670007865</ele>
        <time>2020-10-17T07:11:12.000Z</time>
      </trkpt>
      <trkpt lat="43.62011" lon="3.85072">
        <ele>50.25257715634</ele>
        <time>2020-10-17T07:11:13.000Z</time>
      </trkpt>
      <trkpt lat="43.62011" lon="3.85064">
        <ele>50.149484304814</ele>
        <time>2020-10-17T07:11:14.000Z</time>
      </trkpt>
      <trkpt lat="43.62012" lon="3.85057">
        <ele>50.046391453289</ele>
        <time>2020-10-17T07:11:15.000Z</time>
      </trkpt>
      <trkpt lat="43.62012" lon="3.8505">
        <ele>50</ele>
        <time>2020-10-17T07:11:16.000Z</time>
      </trkpt>
      <trkpt lat="43.62014" lon="3.85043">
        <ele>50</ele>
        <time>2020-10-17T07:11:17.000Z</time>
      </trkpt>
      <trkpt lat="43.62017" lon="3.85037">
        <ele>50</ele>
        <time>2020-10-17T07:11:18.000Z</time>
      </trkpt>
      <trkpt lat="43.62021" lon="3.85032">
        <ele>50</ele>
        <time>2020-10-17T07:11:19.000Z</time>
      </trkpt>
      <trkpt lat="43.62024" lon="3.85026">
        <ele>50</ele>
        <time>2020-10-17T07:11:20.000Z</time>
      </trkpt>
      <trkpt lat="43.62028" lon="3.8502">
        <ele>50</ele>
        <time>2020-10-17T07:11:21.000Z</time>
      </trkpt>
      <trkpt lat="43.62031" lon="3.85014">
        <ele>50</ele>
        <time>2020-10-17T07:11:22.000Z</time>
      </trkpt>
      <trkpt lat="43.62035" lon="3.85007">
        <ele>50</ele>
        <time>2020-10-17T07:11:23.000Z</time>
      </trkpt>
      <trkpt lat="43.62039" lon="3.85001">
        <ele>50</ele>
        <time>2020-10-17T07:11:24.000Z</time>
      </trkpt>
      <trkpt lat="43.62042" lon="3.84994">
        <ele>50</ele>
        <time>2020-10-17T07:11:25.000Z</time>
      </trkpt>
      <trkpt lat="43.62046" lon="3.84987">
        <ele>50</ele>
        <time>2020-10-17T07:11:26.000Z</time>
      </trkpt>
      <trkpt lat="43.6205" lon="3.8498">
        <ele>50</ele>
        <time>2020-10-17T07:11:27.000Z</time>
      </trkpt>
      <trkpt lat="43.62054" lon="3.84973">
        <ele>50</ele>
        <time>2020-10-17T07:11:28.000Z</time>
      </trkpt>
      <trkpt lat="43.62057" lon="3.84966">
        <ele>50</ele>
        <time>2020-10-17T07:11:29.000Z</time>
      </trkpt>
      <trkpt lat="43.62061" lon="3.84959">
        <ele>50</ele>
        <time>2020-10-17T07:11:30.000Z</time>
      </trkpt>
      <trkpt lat="43.62065" lon="3.84952">
        <ele>50</ele>
        <time>2020-10-17T07:11:31.000Z</time>
      </trkpt>
      <trkpt lat="43.62069" lon="3.84945">
        <ele>50</ele>
        <time>2020-10-17T07:11:32.000Z</time>
      </trkpt>
      <trkpt lat="43.62073" lon="3.84938">
        <ele>50</ele>
        <time>2020-10-17T07:11:33.000Z</time>
      </trkpt>
      <trkpt lat="43.62077" lon="3.84931">
        <ele>50</ele>
        <time>2020-10-17T07:11:34.000Z</time>
      </trkpt>
      <trkpt lat="43.62082" lon="3.84924">
        <ele>50</ele>
        <time>2020-10-17T07:11:35.000Z</time>
      </trkpt>
      <trkpt lat="43.62086" lon="3.84917">
        <ele>49.94499968</ele>
        <time>2020-10-17T07:11:36.000Z</time>
      </trkpt>
      <trkpt lat="43.6209" lon="3.8491">
        <ele>49.84499968</ele>
        <time>2020-10-17T07:11:37.000Z</time>
      </trkpt>
      <trkpt lat="43.62093" lon="3.84902">
        <ele>49.74499968</ele>
        <time>2020-10-17T07:11:38.000Z</time>
      </trkpt>
      <trkpt lat="43.62097" lon="3.84895">
        <ele>49.64499968</ele>
        <time>2020-10-17T07:11:39.000Z</time>
      </trkpt>
      <trkpt lat="43.62101" lon="3.84888">
        <ele>49.54499968</ele>
        <time>2020-10-17T07:11:40.000Z</time>
      </trkpt>
      <trkpt lat="43.62105" lon="3.84881">
        <ele>49.44499968</ele>
        <time>2020-10-17T07:11:41.000Z</time>
      </trkpt>
      <trkpt lat="43.62109" lon="3.84873">
        <ele>49.34499968</ele>
        <time>2020-10-17T07:11:42.000Z</time>
      </trkpt>
      <trkpt lat="43.62113" lon="3.84866">
        <ele>49.24499968</ele>
        <time>2020-10-17T07:11:43.000Z</time>
      </trkpt>
      <trkpt lat="43.62117" lon="3.8486">
        <ele>49.14499968</ele>
        <time>2020-10-17T07:11:44.000Z</time>
      </trkpt>
      <trkpt lat="43.62122" lon="3.84853">
        <ele>49.04499968</ele>
        <time>2020-10-17T07:11:45.000Z</time>
      </trkpt>
      <trkpt lat="43.62126" lon="3.84846">
        <ele>49</ele>
        <time>2020-10-17T07:11:46.000Z</time>
      </trkpt>
      <trkpt lat="43.6213" lon="3.84838">
        <ele>49</ele>
        <time>2020-10-17T07:11:47.000Z</time>
      </trkpt>
      <trkpt lat="43.62134" lon="3.84831">
        <ele>49</ele>
        <time>2020-10-17T07:11:48.000Z</time>
      </trkpt>
      <trkpt lat="43.62138" lon="3.84824">
        <ele>49</ele>
        <time>2020-10-17T07:11:49.000Z</time>
      </trkpt>
      <trkpt lat="43.62142" lon="3.84817">
        <ele>49</ele>
        <time>2020-10-17T07:11:50.000Z</time>
      </trkpt>
      <trkpt lat="43.62146" lon="3.8481">
        <ele>49</ele>
        <time>2020-10-17T07:11:51.000Z</time>
      </trkpt>
      <trkpt lat="43.6215" lon="3.84803">
        <ele>49</ele>
        <time>2020-10-17T07:11:52.000Z</time>
      </trkpt>
      <trkpt lat="43.62154" lon="3.84796">
        <ele>49</ele>
        <time>2020-10-17T07:11:53.000Z</time>
      </trkpt>
      <trkpt lat="43.62158" lon="3.84789">
        <ele>49</ele>
        <time>2020-10-17T07:11:54.000Z</time>
      </trkpt>
      <trkpt lat="43.62161" lon="3.84782">
        <ele>49</ele>
        <time>2020-10-17T07:11:55.000Z</time>
      </trkpt>
      <trkpt lat="43.62164" lon="3.84775">
        <ele>49</ele>
        <time>2020-10-17T07:11:56.000Z</time>
      </trkpt>
      <trkpt lat="43.62167" lon="3.84767">
        <ele>49</ele>
        <time>2020-10-17T07:11:57.000Z</time>
      </trkpt>
      <trkpt lat="43.6217" lon="3.8476">
        <ele>49</ele>
        <time>2020-10-17T07:11:58.000Z</time>
      </trkpt>
      <trkpt lat="43.62172" lon="3.84752">
        <ele>49</ele>
        <time>2020-10-17T07:11:59.000Z</time>
      </trkpt>
      <trkpt lat="43.62175" lon="3.84745">
        <ele>49</ele>
        <time>2020-10-17T07:12:00.000Z</time>
      </trkpt>
      <trkpt lat="43.62177" lon="3.84738">
        <ele>49</ele>
        <time>2020-10-17T07:12:01.000Z</time>
      </trkpt>
      <trkpt lat="43.62179" lon="3.8473">
        <ele>49</ele>
        <time>2020-10-17T07:12:02.000Z</time>
      </trkpt>
      <trkpt lat="43.62181" lon="3.84723">
        <ele>49</ele>
        <time>2020-10-17T07:12:03.000Z</time>
      </trkpt>
      <trkpt lat="43.62184" lon="3.84716">
        <ele>49</ele>
        <time>2020-10-17T07:12:04.000Z</time>
      </trkpt>
      <trkpt lat="43.62186" lon="3.84709">
        <ele>49</ele>
        <time>2020-10-17T07:12:05.000Z</time>
      </trkpt>
      <trkpt lat="43.62188" lon="3.84702">
        <ele>49</ele>
        <time>2020-10-17T07:12:06.000Z</time>
      </trkpt>
      <trkpt lat="43.6219" lon="3.84695">
        <ele>49</ele>
        <time>2020-10-17T07:12:07.000Z</time>
      </trkpt>
      <trkpt lat="43.62192" lon="3.84689">
        <ele>49</ele>
        <time>2020-10-17T07:12:08.000Z</time>
      </trkpt>
      <trkpt lat="43.62194" lon="3.84683">
        <ele>49</ele>
        <time>2020-10-17T07:12:09.000Z</time>
      </trkpt>
      <trkpt lat="43.62196" lon="3.84677">
        <ele>49</ele>
        <time>2020-10-17T07:12:10.000Z</time>
      </trkpt>
      <trkpt lat="43.62198" lon="3.84671">
        <ele>49</ele>
        <time>2020-10-17T07:12:11.000Z</time>
      </trkpt>
      <trkpt lat="43.622" lon="3.84665">
        <ele>49</ele>
        <time>2020-10-17T07:12:12.000Z</time>
      </trkpt>
      <trkpt lat="43.62202" lon="3.84659">
        <ele>49</ele>
        <time>2020-10-17T07:12:13.000Z</time>
      </trkpt>
      <trkpt lat="43.62203" lon="3.84654">
        <ele>49</ele>
        <time>2020-10-17T07:12:14.000Z</time>
      </trkpt>
      <trkpt lat="43.62205" lon="3.84648">
        <ele>49</ele>
        <time>2020-10-17T07:12:15.000Z</time>
      </trkpt>
      <trkpt lat="43.62208" lon="3.84642">
        <ele>49.05500032</ele>
        <time>2020-10-17T07:12:16.000Z</time>
      </trkpt>
      <trkpt lat="43.6221" lon="3.84637">
        <ele>49.15500032</ele>
        <time>2020-10-17T07:12:17.000Z</time>
      </trkpt>
      <trkpt lat="43.62212" lon="3.84631">
        <ele>49.25500032</ele>
        <time>2020-10-17T07:12:18.000Z</time>
      </trkpt>
      <trkpt lat="43.62214" lon="3.84626">
        <ele>49.35500032</ele>
        <time>2020-10-17T07:12:19.000Z</time>
      </trkpt>
      <trkpt lat="43.62216" lon="3.8462">
        <ele>49.45500032</ele>
        <time>2020-10-17T07:12:20.000Z</time>
      </trkpt>
      <trkpt lat="43.62218" lon="3.84615">
        <ele>49.55500032</ele>
        <time>2020-10-17T07:12:21.000Z</time>
      </trkpt>
      <trkpt lat="43.6222" lon="3.84609">
        <ele>49.65500032</ele>
        <time>2020-10-17T07:12:22.000Z</time>
      </trkpt>
      <trkpt lat="43.62222" lon="3.84604">
        <ele>49.75500032</ele>
        <time>2020-10-17T07:12:23.000Z</time>
      </trkpt>
      <trkpt lat="43.62223" lon="3.84599">
        <ele>49.85500032</ele>
        <time>2020-10-17T07:12:24.000Z</time>
      </trkpt>
      <trkpt lat="43.62225" lon="3.84594">
        <ele>49.95500032</ele>
        <time>2020-10-17T07:12:25.000Z</time>
      </trkpt>
      <trkpt lat="43.62226" lon="3.84589">
        <ele>50.11000064</ele>
        <time>2020-10-17T07:12:26.000Z</time>
      </trkpt>
      <trkpt lat="43.62227" lon="3.84584">
        <ele>50.31000064</ele>
        <time>2020-10-17T07:12:27.000Z</time>
      </trkpt>
      <trkpt lat="43.62228" lon="3.84579">
        <ele>50.51000064</ele>
        <time>2020-10-17T07:12:28.000Z</time>
      </trkpt>
      <trkpt lat="43.6223" lon="3.84574">
        <ele>50.71000064</ele>
        <time>2020-10-17T07:12:29.000Z</time>
      </trkpt>
      <trkpt lat="43.62232" lon="3.84569">
        <ele>50.91000064</ele>
        <time>2020-10-17T07:12:30.000Z</time>
      </trkpt>
      <trkpt lat="43.62234" lon="3.84564">
        <ele>51.11000064</ele>
        <time>2020-10-17T07:12:31.000Z</time>
      </trkpt>
      <trkpt lat="43.62237" lon="3.8456">
        <ele>51.31000064</ele>
        <time>2020-10-17T07:12:32.000Z</time>
      </trkpt>
      <trkpt lat="43.6224" lon="3.84556">
        <ele>51.51000064</ele>
        <time>2020-10-17T07:12:33.000Z</time>
      </trkpt>
      <trkpt lat="43.62242" lon="3.84551">
        <ele>51.71000064</ele>
        <time>2020-10-17T07:12:34.000Z</time>
      </trkpt>
      <trkpt lat="43.62245" lon="3.84547">
        <ele>51.91000064</ele>
        <time>2020-10-17T07:12:35.000Z</time>
      </trkpt>
      <trkpt lat="43.62247" lon="3.84542">
        <ele>52.05500032</ele>
        <time>2020-10-17T07:12:36.000Z</time>
      </trkpt>
      <trkpt lat="43.62249" lon="3.84537">
        <ele>52.15500032</ele>
        <time>2020-10-17T07:12:37.000Z</time>
      </trkpt>
      <trkpt lat="43.6225" lon="3.84531">
        <ele>52.25500032</ele>
        <time>2020-10-17T07:12:38.000Z</time>
      </trkpt>
      <trkpt lat="43.62251" lon="3.84526">
        <ele>52.35500032</ele>
        <time>2020-10-17T07:12:39.000Z</time>
      </trkpt>
      <trkpt lat="43.62253" lon="3.84521">
        <ele>52.45500032</ele>
        <time>2020-10-17T07:12:40.000Z</time>
      </trkpt>
      <trkpt lat="43.62255" lon="3.84517">
        <ele>52.55500032</ele>
        <time>2020-10-17T07:12:41.000Z</time>
      </trkpt>
      <trkpt lat="43.62257" lon="3.84513">
        <ele>52.65500032</ele>
        <time>2020-10-17T07:12:42.000Z</time>
      </trkpt>
      <trkpt lat="43.6226" lon="3.84509">
        <ele>52.75500032</ele>
        <time>2020-10-17T07:12:43.000Z</time>
      </trkpt>
      <trkpt lat="43.62263" lon="3.84505">
        <ele>52.85500032</ele>
        <time>2020-10-17T07:12:44.000Z</time>
      </trkpt>
      <trkpt lat="43.62266" lon="3.84501">
        <ele>52.95500032</ele>
        <time>2020-10-17T07:12:45.000Z</time>
      </trkpt>
      <trkpt lat="43.62269" lon="3.84496">
        <ele>53.11000064</ele>
        <time>2020-10-17T07:12:46.000Z</time>
      </trkpt>
      <trkpt lat="43.62272" lon="3.84491">
        <ele>53.31000064</ele>
        <time>2020-10-17T07:12:47.000Z</time>
      </trkpt>
      <trkpt lat="43.62275" lon="3.84486">
        <ele>53.51000064</ele>
        <time>2020-10-17T07:12:48.000Z</time>
      </trkpt>
      <trkpt lat="43.62278" lon="3.84481">
        <ele>53.71000064</ele>
        <time>2020-10-17T07:12:49.000Z</time>
      </trkpt>
      <trkpt lat="43.62281" lon="3.84477">
        <ele>53.91000064</ele>
        <time>2020-10-17T07:12:50.000Z</time>
      </trkpt>
      <trkpt lat="43.62285" lon="3.84472">
        <ele>54.11000064</ele>
        <time>2020-10-17T07:12:51.000Z</time>
      </trkpt>
      <trkpt lat="43.62288" lon="3.84467">
        <ele>54.31000064</ele>
        <time>2020-10-17T07:12:52.000Z</time>
      </trkpt>
      <trkpt lat="43.62291" lon="3.84463">
        <ele>54.51000064</ele>
        <time>2020-10-17T07:12:53.000Z</time>
      </trkpt>
      <trkpt lat="43.62294" lon="3.84458">
        <ele>54.71000064</ele>
        <time>2020-10-17T07:12:54.000Z</time>
      </trkpt>
      <trkpt lat="43.62297" lon="3.84453">
        <ele>54.91000064</ele>
        <time>2020-10-17T07:12:55.000Z</time>
      </trkpt>
      <trkpt lat="43.62299" lon="3.84448">
        <ele>55</ele>
        <time>2020-10-17T07:12:56.000Z</time>
      </trkpt>
      <trkpt lat="43.62302" lon="3.84443">
        <ele>55</ele>
        <time>2020-10-17T07:12:57.000Z</time>
      </trkpt>
      <trkpt lat="43.62305" lon="3.84438">
        <ele>55</ele>
        <time>2020-10-17T07:12:58.000Z</time>
      </trkpt>
      <trkpt lat="43.62308" lon="3.84434">
        <ele>55</ele>
        <time>2020-10-17T07:12:59.000Z</time>
      </trkpt>
      <trkpt lat="43.62311" lon="3.84429">
        <ele>55</ele>
        <time>2020-10-17T07:13:00.000Z</time>
      </trkpt>
      <trkpt lat="43.62314" lon="3.84425">
        <ele>55</ele>
        <time>2020-10-17T07:13:01.000Z</time>
      </trkpt>
      <trkpt lat="43.62317" lon="3.8442">
        <ele>55</ele>
        <time>2020-10-17T07:13:02.000Z</time>
      </trkpt>
      <trkpt lat="43.6232" lon="3.84416">
        <ele>55</ele>
        <time>2020-10-17T07:13:03.000Z</time>
      </trkpt>
      <trkpt lat="43.62324" lon="3.84411">
        <ele>55</ele>
        <time>2020-10-17T07:13:04.000Z</time>
      </trkpt>
      <trkpt lat="43.62327" lon="3.84406">
        <ele>55</ele>
        <time>2020-10-17T07:13:05.000Z</time>
      </trkpt>
      <trkpt lat="43.6233" lon="3.84402">
        <ele>55.045454251607</ele>
        <time>2020-10-17T07:13:06.000Z</time>
      </trkpt>
      <trkpt lat="43.62333" lon="3.84397">
        <ele>55.146464417916</ele>
        <time>2020-10-17T07:13:07.000Z</time>
      </trkpt>
      <trkpt lat="43.62336" lon="3.84393">
        <ele>55.247474584226</ele>
        <time>2020-10-17T07:13:08.000Z</time>
      </trkpt>
      <trkpt lat="43.6234" lon="3.84388">
        <ele>55.348484750536</ele>
        <time>2020-10-17T07:13:09.000Z</time>
      </trkpt>
      <trkpt lat="43.62343" lon="3.84384">
        <ele>55.449494916845</ele>
        <time>2020-10-17T07:13:10.000Z</time>
      </trkpt>
      <trkpt lat="43.62346" lon="3.8438">
        <ele>55.550505083155</ele>
        <time>2020-10-17T07:13:11.000Z</time>
      </trkpt>
      <trkpt lat="43.62349" lon="3.84376">
        <ele>55.651515249464</ele>
        <time>2020-10-17T07:13:12.000Z</time>
      </trkpt>
      <trkpt lat="43.62352" lon="3.84372">
        <ele>55.752525415774</ele>
        <time>2020-10-17T07:13:13.000Z</time>
      </trkpt>
      <trkpt lat="43.62355" lon="3.84368">
        <ele>55.853535582084</ele>
        <time>2020-10-17T07:13:14.000Z</time>
      </trkpt>
      <trkpt lat="43.62357" lon="3.84364">
        <ele>55.954545748393</ele>
        <time>2020-10-17T07:13:15.000Z</time>
      </trkpt>
      <trkpt lat="43.62359" lon="3.84359">
        <ele>56.053502256809</ele>
        <time>2020-10-17T07:13:16.000Z</time>
      </trkpt>
      <trkpt lat="43.6236" lon="3.84354">
        <ele>56.150778521401</ele>
        <time>2020-10-17T07:13:17.000Z</time>
      </trkpt>
      <trkpt lat="43.62362" lon="3.84349">
        <ele>56.248054785992</ele>
        <time>2020-10-17T07:13:18.000Z</time>
      </trkpt>
      <trkpt lat="43.62361" lon="3.84343">
        <ele>56.345331050584</ele>
        <time>2020-10-17T07:13:19.000Z</time>
      </trkpt>
      <trkpt lat="43.62361" lon="3.84338">
        <ele>56.442607315175</ele>
        <time>2020-10-17T07:13:20.000Z</time>
      </trkpt>
      <trkpt lat="43.6236" lon="3.84333">
        <ele>56.539883579767</ele>
        <time>2020-10-17T07:13:21.000Z</time>
      </trkpt>
      <trkpt lat="43.6236" lon="3.84327">
        <ele>56.637159844358</ele>
        <time>2020-10-17T07:13:22.000Z</time>
      </trkpt>
      <trkpt lat="43.62361" lon="3.84322">
        <ele>56.734436108949</ele>
        <time>2020-10-17T07:13:23.000Z</time>
      </trkpt>
      <trkpt lat="43.62362" lon="3.84317">
        <ele>56.831712373541</ele>
        <time>2020-10-17T07:13:24.000Z</time>
      </trkpt>
      <trkpt lat="43.62364" lon="3.84312">
        <ele>56.928988638132</ele>
        <time>2020-10-17T07:13:25.000Z</time>
      </trkpt>
      <trkpt lat="43.62366" lon="3.84307">
        <ele>57</ele>
        <time>2020-10-17T07:13:26.000Z</time>
      </trkpt>
      <trkpt lat="43.62368" lon="3.84302">
        <ele>57</ele>
        <time>2020-10-17T07:13:27.000Z</time>
      </trkpt>
      <trkpt lat="43.62371" lon="3.84298">
        <ele>57</ele>
        <time>2020-10-17T07:13:28.000Z</time>
      </trkpt>
      <trkpt lat="43.62373" lon="3.84294">
        <ele>57</ele>
        <time>2020-10-17T07:13:29.000Z</time>
      </trkpt>
      <trkpt lat="43.62376" lon="3.8429">
        <ele>57</ele>
        <time>2020-10-17T07:13:30.000Z</time>
      </trkpt>
      <trkpt lat="43.62379" lon="3.84286">
        <ele>57</ele>
        <time>2020-10-17T07:13:31.000Z</time>
      </trkpt>
      <trkpt lat="43.62381" lon="3.84283">
        <ele>57</ele>
        <time>2020-10-17T07:13:32.000Z</time>
      </trkpt>
      <trkpt lat="43.62383" lon="3.84279">
        <ele>57</ele>
        <time>2020-10-17T07:13:33.000Z</time>
      </trkpt>
      <trkpt lat="43.62384" lon="3.84275">
        <ele>57</ele>
        <time>2020-10-17T07:13:34.000Z</time>
      </trkpt>
      <trkpt lat="43.62384" lon="3.84271">
        <ele>57</ele>
        <time>2020-10-17T07:13:35.000Z</time>
      </trkpt>
      <trkpt lat="43.62384" lon="3.84268">
        <ele>57.05500032</ele>
        <time>2020-10-17T07:13:36.000Z</time>
      </trkpt>
      <trkpt lat="43.62382" lon="3.84264">
        <ele>57.15500032</ele>
        <time>2020-10-17T07:13:37.000Z</time>
      </trkpt>
      <trkpt lat="43.6238" lon="3.8426">
        <ele>57.25500032</ele>
        <time>2020-10-17T07:13:38.000Z</time>
      </trkpt>
      <trkpt lat="43.62378" lon="3.84257">
        <ele>57.35500032</ele>
        <time>2020-10-17T07:13:39.000Z</time>
      </trkpt>
      <trkpt lat="43.62376" lon="3.84254">
        <ele>57.45500032</ele>
        <time>2020-10-17T07:13:40.000Z</time>
      </trkpt>
      <trkpt lat="43.62375" lon="3.8425">
        <ele>57.55500032</ele>
        <time>2020-10-17T07:13:41.000Z</time>
      </trkpt>
      <trkpt lat="43.62373" lon="3.84247">
        <ele>57.65500032</ele>
        <time>2020-10-17T07:13:42.000Z</time>
      </trkpt>
      <trkpt lat="43.62372" lon="3.84244">
        <ele>57.75500032</ele>
        <time>2020-10-17T07:13:43.000Z</time>
      </trkpt>
      <trkpt lat="43.62371" lon="3.84241">
        <ele>57.85500032</ele>
        <time>2020-10-17T07:13:44.000Z</time>
      </trkpt>
      <trkpt lat="43.62371" lon="3.84237">
        <ele>57.95500032</ele>
        <time>2020-10-17T07:13:45.000Z</time>
      </trkpt>
      <trkpt lat="43.62373" lon="3.84234">
        <ele>58.05500032</ele>
        <time>2020-10-17T07:13:46.000Z</time>
      </trkpt>
      <trkpt lat="43.62375" lon="3.84232">
        <ele>58.15500032</ele>
        <time>2020-10-17T07:13:47.000Z</time>
      </trkpt>
      <trkpt lat="43.62378" lon="3.84231">
        <ele>58.25500032</ele>
        <time>2020-10-17T07:13:48.000Z</time>
      </trkpt>
      <trkpt lat="43.62381" lon="3.8423">
        <ele>58.35500032</ele>
        <time>2020-10-17T07:13:49.000Z</time>
      </trkpt>
      <trkpt lat="43.62383" lon="3.84229">
        <ele>58.45500032</ele>
        <time>2020-10-17T07:13:50.000Z</time>
      </trkpt>
      <trkpt lat="43.62386" lon="3.84228">
        <ele>58.55500032</ele>
        <time>2020-10-17T07:13:51.000Z</time>
      </trkpt>
      <trkpt lat="43.62388" lon="3.84226">
        <ele>58.65500032</ele>
        <time>2020-10-17T07:13:52.000Z</time>
      </trkpt>
      <trkpt lat="43.6239" lon="3.84223">
        <ele>58.75500032</ele>
        <time>2020-10-17T07:13:53.000Z</time>
      </trkpt>
      <trkpt lat="43.62391" lon="3.8422">
        <ele>58.85500032</ele>
        <time>2020-10-17T07:13:54.000Z</time>
      </trkpt>
      <trkpt lat="43.62392" lon="3.84218">
        <ele>58.95500032</ele>
        <time>2020-10-17T07:13:55.000Z</time>
      </trkpt>
      <trkpt lat="43.62391" lon="3.84214">
        <ele>59.05500032</ele>
        <time>2020-10-17T07:13:56.000Z</time>
      </trkpt>
      <trkpt lat="43.62391" lon="3.84209">
        <ele>59.15500032</ele>
        <time>2020-10-17T07:13:57.000Z</time>
      </trkpt>
      <trkpt lat="43.6239" lon="3.84204">
        <ele>59.25500032</ele>
        <time>2020-10-17T07:13:58.000Z</time>
      </trkpt>
      <trkpt lat="43.6239" lon="3.84199">
        <ele>59.35500032</ele>
        <time>2020-10-17T07:13:59.000Z</time>
      </trkpt>
      <trkpt lat="43.62389" lon="3.84194">
        <ele>59.45500032</ele>
        <time>2020-10-17T07:14:00.000Z</time>
      </trkpt>
      <trkpt lat="43.62388" lon="3.84189">
        <ele>59.55500032</ele>
        <time>2020-10-17T07:14:01.000Z</time>
      </trkpt>
      <trkpt lat="43.62388" lon="3.84185">
        <ele>59.65500032</ele>
        <time>2020-10-17T07:14:02.000Z</time>
      </trkpt>
      <trkpt lat="43.62386" lon="3.8418">
        <ele>59.75500032</ele>
        <time>2020-10-17T07:14:03.000Z</time>
      </trkpt>
      <trkpt lat="43.62385" lon="3.84175">
        <ele>59.85500032</ele>
        <time>2020-10-17T07:14:04.000Z</time>
      </trkpt>
      <trkpt lat="43.62383" lon="3.8417">
        <ele>59.95500032</ele>
        <time>2020-10-17T07:14:05.000Z</time>
      </trkpt>
      <trkpt lat="43.62383" lon="3.84166">
        <ele>60.05500032</ele>
        <time>2020-10-17T07:14:06.000Z</time>
      </trkpt>
      <trkpt lat="43.62385" lon="3.84162">
        <ele>60.15500032</ele>
        <time>2020-10-17T07:14:07.000Z</time>
      </trkpt>
      <trkpt lat="43.62386" lon="3.84159">
        <ele>60.25500032</ele>
        <time>2020-10-17T07:14:08.000Z</time>
      </trkpt>
      <trkpt lat="43.62387" lon="3.84156">
        <ele>60.35500032</ele>
        <time>2020-10-17T07:14:09.000Z</time>
      </trkpt>
      <trkpt lat="43.62387" lon="3.84154">
        <ele>60.991642950398</ele>
        <time>2020-10-17T07:14:16.000Z</time>
      </trkpt>
      <trkpt lat="43.62392" lon="3.84151">
        <ele>60.034729958004</ele>
        <time>2020-10-17T07:15:05.000Z</time>
      </trkpt>
      <trkpt lat="43.62395" lon="3.8415">
        <ele>60.136874970582</ele>
        <time>2020-10-17T07:15:06.000Z</time>
      </trkpt>
      <trkpt lat="43.62398" lon="3.84149">
        <ele>60.23901998316</ele>
        <time>2020-10-17T07:15:07.000Z</time>
      </trkpt>
      <trkpt lat="43.62402" lon="3.84148">
        <ele>60.341164995738</ele>
        <time>2020-10-17T07:15:08.000Z</time>
      </trkpt>
      <trkpt lat="43.62406" lon="3.84146">
        <ele>60.443310008315</ele>
        <time>2020-10-17T07:15:09.000Z</time>
      </trkpt>
      <trkpt lat="43.6241" lon="3.84145">
        <ele>60.545455020893</ele>
        <time>2020-10-17T07:15:10.000Z</time>
      </trkpt>
      <trkpt lat="43.62414" lon="3.84143">
        <ele>60.647600033471</ele>
        <time>2020-10-17T07:15:11.000Z</time>
      </trkpt>
      <trkpt lat="43.62418" lon="3.84142">
        <ele>60.749745046049</ele>
        <time>2020-10-17T07:15:12.000Z</time>
      </trkpt>
      <trkpt lat="43.62423" lon="3.84142">
        <ele>60.851890058626</ele>
        <time>2020-10-17T07:15:13.000Z</time>
      </trkpt>
      <trkpt lat="43.62427" lon="3.8414">
        <ele>60.954035071204</ele>
        <time>2020-10-17T07:15:14.000Z</time>
      </trkpt>
      <trkpt lat="43.62431" lon="3.84138">
        <ele>61.054835795067</ele>
        <time>2020-10-17T07:15:15.000Z</time>
      </trkpt>
      <trkpt lat="43.62434" lon="3.84136">
        <ele>61.154536660567</ele>
        <time>2020-10-17T07:15:16.000Z</time>
      </trkpt>
      <trkpt lat="43.62438" lon="3.84134">
        <ele>61.254237526066</ele>
        <time>2020-10-17T07:15:17.000Z</time>
      </trkpt>
      <trkpt lat="43.62442" lon="3.84133">
        <ele>61.353938391565</ele>
        <time>2020-10-17T07:15:18.000Z</time>
      </trkpt>
      <trkpt lat="43.62447" lon="3.84131">
        <ele>61.453639257064</ele>
        <time>2020-10-17T07:15:19.000Z</time>
      </trkpt>
      <trkpt lat="43.62451" lon="3.8413">
        <ele>61.553340122563</ele>
        <time>2020-10-17T07:15:20.000Z</time>
      </trkpt>
      <trkpt lat="43.62455" lon="3.84128">
        <ele>61.653040988063</ele>
        <time>2020-10-17T07:15:21.000Z</time>
      </trkpt>
      <trkpt lat="43.62459" lon="3.84126">
        <ele>61.752741853562</ele>
        <time>2020-10-17T07:15:22.000Z</time>
      </trkpt>
      <trkpt lat="43.62464" lon="3.84124">
        <ele>61.852442719061</ele>
        <time>2020-10-17T07:15:23.000Z</time>
      </trkpt>
      <trkpt lat="43.62467" lon="3.8412">
        <ele>61.95214358456</ele>
        <time>2020-10-17T07:15:24.000Z</time>
      </trkpt>
      <trkpt lat="43.62471" lon="3.84115">
        <ele>62.104312972297</ele>
        <time>2020-10-17T07:15:25.000Z</time>
      </trkpt>
      <trkpt lat="43.62474" lon="3.84109">
        <ele>62.304914842099</ele>
        <time>2020-10-17T07:15:26.000Z</time>
      </trkpt>
      <trkpt lat="43.62477" lon="3.84103">
        <ele>62.505516711901</ele>
        <time>2020-10-17T07:15:27.000Z</time>
      </trkpt>
      <trkpt lat="43.6248" lon="3.84097">
        <ele>62.706118581703</ele>
        <time>2020-10-17T07:15:28.000Z</time>
      </trkpt>
      <trkpt lat="43.62482" lon="3.8409">
        <ele>62.906720451505</ele>
        <time>2020-10-17T07:15:29.000Z</time>
      </trkpt>
      <trkpt lat="43.62485" lon="3.84084">
        <ele>63.107322321307</ele>
        <time>2020-10-17T07:15:30.000Z</time>
      </trkpt>
      <trkpt lat="43.62488" lon="3.84078">
        <ele>63.307924191109</ele>
        <time>2020-10-17T07:15:31.000Z</time>
      </trkpt>
      <trkpt lat="43.6249" lon="3.84072">
        <ele>63.508526060911</ele>
        <time>2020-10-17T07:15:32.000Z</time>
      </trkpt>
      <trkpt lat="43.62493" lon="3.84065">
        <ele>63.709127930713</ele>
        <time>2020-10-17T07:15:33.000Z</time>
      </trkpt>
      <trkpt lat="43.62496" lon="3.84059">
        <ele>63.909729800515</ele>
        <time>2020-10-17T07:15:34.000Z</time>
      </trkpt>
      <trkpt lat="43.62498" lon="3.84053">
        <ele>64.11000064</ele>
        <time>2020-10-17T07:15:35.000Z</time>
      </trkpt>
      <trkpt lat="43.62501" lon="3.84047">
        <ele>64.31000064</ele>
        <time>2020-10-17T07:15:36.000Z</time>
      </trkpt>
      <trkpt lat="43.62503" lon="3.8404">
        <ele>64.51000064</ele>
        <time>2020-10-17T07:15:37.000Z</time>
      </trkpt>
      <trkpt lat="43.62506" lon="3.84034">
        <ele>64.71000064</ele>
        <time>2020-10-17T07:15:38.000Z</time>
      </trkpt>
      <trkpt lat="43.62508" lon="3.84028">
        <ele>64.91000064</ele>
        <time>2020-10-17T07:15:39.000Z</time>
      </trkpt>
      <trkpt lat="43.6251" lon="3.84022">
        <ele>65.11000064</ele>
        <time>2020-10-17T07:15:40.000Z</time>
      </trkpt>
      <trkpt lat="43.62513" lon="3.84016">
        <ele>65.31000064</ele>
        <time>2020-10-17T07:15:41.000Z</time>
      </trkpt>
      <trkpt lat="43.62515" lon="3.8401">
        <ele>65.51000064</ele>
        <time>2020-10-17T07:15:42.000Z</time>
      </trkpt>
      <trkpt lat="43.62517" lon="3.84005">
        <ele>65.71000064</ele>
        <time>2020-10-17T07:15:43.000Z</time>
      </trkpt>
      <trkpt lat="43.62519" lon="3.84">
        <ele>65.91000064</ele>
        <time>2020-10-17T07:15:44.000Z</time>
      </trkpt>
      <trkpt lat="43.6252" lon="3.83995">
        <ele>66.16500096</ele>
        <time>2020-10-17T07:15:45.000Z</time>
      </trkpt>
      <trkpt lat="43.62522" lon="3.83991">
        <ele>66.46500096</ele>
        <time>2020-10-17T07:15:46.000Z</time>
      </trkpt>
      <trkpt lat="43.62524" lon="3.83986">
        <ele>66.76500096</ele>
        <time>2020-10-17T07:15:47.000Z</time>
      </trkpt>
      <trkpt lat="43.62526" lon="3.83982">
        <ele>67.06500096</ele>
        <time>2020-10-17T07:15:48.000Z</time>
      </trkpt>
      <trkpt lat="43.62527" lon="3.83978">
        <ele>67.36500096</ele>
        <time>2020-10-17T07:15:49.000Z</time>
      </trkpt>
      <trkpt lat="43.62529" lon="3.83974">
        <ele>67.66500096</ele>
        <time>2020-10-17T07:15:50.000Z</time>
      </trkpt>
      <trkpt lat="43.62531" lon="3.83969">
        <ele>67.96500096</ele>
        <time>2020-10-17T07:15:51.000Z</time>
      </trkpt>
      <trkpt lat="43.62533" lon="3.83965">
        <ele>68.26500096</ele>
        <time>2020-10-17T07:15:52.000Z</time>
      </trkpt>
      <trkpt lat="43.62535" lon="3.8396">
        <ele>68.56500096</ele>
        <time>2020-10-17T07:15:53.000Z</time>
      </trkpt>
      <trkpt lat="43.62536" lon="3.83955">
        <ele>68.86500096</ele>
        <time>2020-10-17T07:15:54.000Z</time>
      </trkpt>
      <trkpt lat="43.62538" lon="3.8395">
        <ele>69.11000064</ele>
        <time>2020-10-17T07:15:55.000Z</time>
      </trkpt>
      <trkpt lat="43.62538" lon="3.83944">
        <ele>69.31000064</ele>
        <time>2020-10-17T07:15:56.000Z</time>
      </trkpt>
      <trkpt lat="43.62538" lon="3.83939">
        <ele>69.51000064</ele>
        <time>2020-10-17T07:15:57.000Z</time>
      </trkpt>
      <trkpt lat="43.62538" lon="3.83934">
        <ele>69.71000064</ele>
        <time>2020-10-17T07:15:58.000Z</time>
      </trkpt>
      <trkpt lat="43.62537" lon="3.83929">
        <ele>69.91000064</ele>
        <time>2020-10-17T07:15:59.000Z</time>
      </trkpt>
      <trkpt lat="43.62536" lon="3.83924">
        <ele>70.11000064</ele>
        <time>2020-10-17T07:16:00.000Z</time>
      </trkpt>
      <trkpt lat="43.62535" lon="3.83919">
        <ele>70.31000064</ele>
        <time>2020-10-17T07:16:01.000Z</time>
      </trkpt>
      <trkpt lat="43.62534" lon="3.83914">
        <ele>70.51000064</ele>
        <time>2020-10-17T07:16:02.000Z</time>
      </trkpt>
      <trkpt lat="43.62533" lon="3.83909">
        <ele>70.71000064</ele>
        <time>2020-10-17T07:16:03.000Z</time>
      </trkpt>
      <trkpt lat="43.62533" lon="3.83904">
        <ele>70.91000064</ele>
        <time>2020-10-17T07:16:04.000Z</time>
      </trkpt>
      <trkpt lat="43.62533" lon="3.83899">
        <ele>71.11000064</ele>
        <time>2020-10-17T07:16:05.000Z</time>
      </trkpt>
      <trkpt lat="43.62533" lon="3.83894">
        <ele>71.31000064</ele>
        <time>2020-10-17T07:16:06.000Z</time>
      </trkpt>
      <trkpt lat="43.62532" lon="3.83889">
        <ele>71.51000064</ele>
        <time>2020-10-17T07:16:07.000Z</time>
      </trkpt>
      <trkpt lat="43.6253" lon="3.83884">
        <ele>71.71000064</ele>
        <time>2020-10-17T07:16:08.000Z</time>
      </trkpt>
      <trkpt lat="43.62529" lon="3.83879">
        <ele>71.91000064</ele>
        <time>2020-10-17T07:16:09.000Z</time>
      </trkpt>
      <trkpt lat="43.62528" lon="3.83875">
        <ele>72.11000064</ele>
        <time>2020-10-17T07:16:10.000Z</time>
      </trkpt>
      <trkpt lat="43.62527" lon="3.8387">
        <ele>72.31000064</ele>
        <time>2020-10-17T07:16:11.000Z</time>
      </trkpt>
      <trkpt lat="43.62526" lon="3.83865">
        <ele>72.51000064</ele>
        <time>2020-10-17T07:16:12.000Z</time>
      </trkpt>
      <trkpt lat="43.62524" lon="3.8386">
        <ele>72.71000064</ele>
        <time>2020-10-17T07:16:13.000Z</time>
      </trkpt>
      <trkpt lat="43.62523" lon="3.83856">
        <ele>72.91000064</ele>
        <time>2020-10-17T07:16:14.000Z</time>
      </trkpt>
      <trkpt lat="43.62522" lon="3.83851">
        <ele>73.05500032</ele>
        <time>2020-10-17T07:16:15.000Z</time>
      </trkpt>
      <trkpt lat="43.6252" lon="3.83846">
        <ele>73.15500032</ele>
        <time>2020-10-17T07:16:16.000Z</time>
      </trkpt>
      <trkpt lat="43.62518" lon="3.83842">
        <ele>73.25500032</ele>
        <time>2020-10-17T07:16:17.000Z</time>
      </trkpt>
      <trkpt lat="43.62516" lon="3.83838">
        <ele>73.35500032</ele>
        <time>2020-10-17T07:16:18.000Z</time>
      </trkpt>
      <trkpt lat="43.62513" lon="3.83834">
        <ele>73.45500032</ele>
        <time>2020-10-17T07:16:19.000Z</time>
      </trkpt>
      <trkpt lat="43.6251" lon="3.83831">
        <ele>73.55500032</ele>
        <time>2020-10-17T07:16:20.000Z</time>
      </trkpt>
      <trkpt lat="43.62507" lon="3.83828">
        <ele>73.65500032</ele>
        <time>2020-10-17T07:16:21.000Z</time>
      </trkpt>
      <trkpt lat="43.62504" lon="3.83825">
        <ele>73.75500032</ele>
        <time>2020-10-17T07:16:22.000Z</time>
      </trkpt>
      <trkpt lat="43.625" lon="3.83822">
        <ele>73.85500032</ele>
        <time>2020-10-17T07:16:23.000Z</time>
      </trkpt>
      <trkpt lat="43.62497" lon="3.8382">
        <ele>73.95500032</ele>
        <time>2020-10-17T07:16:24.000Z</time>
      </trkpt>
      <trkpt lat="43.62493" lon="3.83818">
        <ele>74.054781195219</ele>
        <time>2020-10-17T07:16:25.000Z</time>
      </trkpt>
      <trkpt lat="43.6249" lon="3.83816">
        <ele>74.154382788845</ele>
        <time>2020-10-17T07:16:26.000Z</time>
      </trkpt>
      <trkpt lat="43.62487" lon="3.83813">
        <ele>74.25398438247</ele>
        <time>2020-10-17T07:16:27.000Z</time>
      </trkpt>
      <trkpt lat="43.62483" lon="3.83811">
        <ele>74.353585976096</ele>
        <time>2020-10-17T07:16:28.000Z</time>
      </trkpt>
      <trkpt lat="43.6248" lon="3.83808">
        <ele>74.453187569721</ele>
        <time>2020-10-17T07:16:29.000Z</time>
      </trkpt>
      <trkpt lat="43.62476" lon="3.83806">
        <ele>74.552789163347</ele>
        <time>2020-10-17T07:16:30.000Z</time>
      </trkpt>
      <trkpt lat="43.62473" lon="3.83803">
        <ele>74.652390756972</ele>
        <time>2020-10-17T07:16:31.000Z</time>
      </trkpt>
      <trkpt lat="43.6247" lon="3.838">
        <ele>74.751992350598</ele>
        <time>2020-10-17T07:16:32.000Z</time>
      </trkpt>
      <trkpt lat="43.62466" lon="3.83798">
        <ele>74.851593944223</ele>
        <time>2020-10-17T07:16:33.000Z</time>
      </trkpt>
      <trkpt lat="43.62463" lon="3.83795">
        <ele>74.951195537849</ele>
        <time>2020-10-17T07:16:34.000Z</time>
      </trkpt>
      <trkpt lat="43.6246" lon="3.83793">
        <ele>75.051205140562</ele>
        <time>2020-10-17T07:16:35.000Z</time>
      </trkpt>
      <trkpt lat="43.62457" lon="3.8379">
        <ele>75.151606746988</ele>
        <time>2020-10-17T07:16:36.000Z</time>
      </trkpt>
      <trkpt lat="43.62454" lon="3.83787">
        <ele>75.252008353414</ele>
        <time>2020-10-17T07:16:37.000Z</time>
      </trkpt>
      <trkpt lat="43.62451" lon="3.83784">
        <ele>75.352409959839</ele>
        <time>2020-10-17T07:16:38.000Z</time>
      </trkpt>
      <trkpt lat="43.62448" lon="3.8378">
        <ele>75.452811566265</ele>
        <time>2020-10-17T07:16:39.000Z</time>
      </trkpt>
      <trkpt lat="43.62445" lon="3.83776">
        <ele>75.553213172691</ele>
        <time>2020-10-17T07:16:40.000Z</time>
      </trkpt>
      <trkpt lat="43.62443" lon="3.83772">
        <ele>75.653614779116</ele>
        <time>2020-10-17T07:16:41.000Z</time>
      </trkpt>
      <trkpt lat="43.62442" lon="3.83767">
        <ele>75.754016385542</ele>
        <time>2020-10-17T07:16:42.000Z</time>
      </trkpt>
      <trkpt lat="43.6244" lon="3.83762">
        <ele>75.854417991968</ele>
        <time>2020-10-17T07:16:43.000Z</time>
      </trkpt>
      <trkpt lat="43.62439" lon="3.83757">
        <ele>75.954819598394</ele>
        <time>2020-10-17T07:16:44.000Z</time>
      </trkpt>
      <trkpt lat="43.62438" lon="3.83751">
        <ele>76</ele>
        <time>2020-10-17T07:16:45.000Z</time>
      </trkpt>
      <trkpt lat="43.62437" lon="3.83745">
        <ele>76</ele>
        <time>2020-10-17T07:16:46.000Z</time>
      </trkpt>
      <trkpt lat="43.62435" lon="3.83738">
        <ele>76</ele>
        <time>2020-10-17T07:16:47.000Z</time>
      </trkpt>
      <trkpt lat="43.62434" lon="3.83732">
        <ele>76</ele>
        <time>2020-10-17T07:16:48.000Z</time>
      </trkpt>
      <trkpt lat="43.62433" lon="3.83726">
        <ele>76</ele>
        <time>2020-10-17T07:16:49.000Z</time>
      </trkpt>
      <trkpt lat="43.62432" lon="3.8372">
        <ele>76</ele>
        <time>2020-10-17T07:16:50.000Z</time>
      </trkpt>
      <trkpt lat="43.62431" lon="3.83714">
        <ele>76</ele>
        <time>2020-10-17T07:16:51.000Z</time>
      </trkpt>
      <trkpt lat="43.62429" lon="3.83708">
        <ele>76</ele>
        <time>2020-10-17T07:16:52.000Z</time>
      </trkpt>
      <trkpt lat="43.62427" lon="3.83702">
        <ele>76</ele>
        <time>2020-10-17T07:16:53.000Z</time>
      </trkpt>
      <trkpt lat="43.62425" lon="3.83698">
        <ele>76</ele>
        <time>2020-10-17T07:16:54.000Z</time>
      </trkpt>
      <trkpt lat="43.62422" lon="3.83694">
        <ele>76.054053465357</ele>
        <time>2020-10-17T07:16:55.000Z</time>
      </trkpt>
      <trkpt lat="43.6242" lon="3.83691">
        <ele>76.154153661649</ele>
        <time>2020-10-17T07:16:56.000Z</time>
      </trkpt>
      <trkpt lat="43.62419" lon="3.83687">
        <ele>76.254253857942</ele>
        <time>2020-10-17T07:16:57.000Z</time>
      </trkpt>
      <trkpt lat="43.62418" lon="3.83682">
        <ele>76.354354054234</ele>
        <time>2020-10-17T07:16:58.000Z</time>
      </trkpt>
      <trkpt lat="43.62416" lon="3.83678">
        <ele>76.454454250527</ele>
        <time>2020-10-17T07:16:59.000Z</time>
      </trkpt>
      <trkpt lat="43.62415" lon="3.83674">
        <ele>76.554554446819</ele>
        <time>2020-10-17T07:17:00.000Z</time>
      </trkpt>
      <trkpt lat="43.62416" lon="3.83669">
        <ele>76.654654643112</ele>
        <time>2020-10-17T07:17:01.000Z</time>
      </trkpt>
      <trkpt lat="43.62419" lon="3.83667">
        <ele>76.754754839404</ele>
        <time>2020-10-17T07:17:02.000Z</time>
      </trkpt>
      <trkpt lat="43.62422" lon="3.83666">
        <ele>76.854855035697</ele>
        <time>2020-10-17T07:17:03.000Z</time>
      </trkpt>
      <trkpt lat="43.62426" lon="3.83666">
        <ele>76.954955231989</ele>
        <time>2020-10-17T07:17:04.000Z</time>
      </trkpt>
      <trkpt lat="43.6243" lon="3.83666">
        <ele>77.05500032</ele>
        <time>2020-10-17T07:17:05.000Z</time>
      </trkpt>
      <trkpt lat="43.62433" lon="3.83665">
        <ele>77.15500032</ele>
        <time>2020-10-17T07:17:06.000Z</time>
      </trkpt>
      <trkpt lat="43.62437" lon="3.83664">
        <ele>77.25500032</ele>
        <time>2020-10-17T07:17:07.000Z</time>
      </trkpt>
      <trkpt lat="43.6244" lon="3.83662">
        <ele>77.35500032</ele>
        <time>2020-10-17T07:17:08.000Z</time>
      </trkpt>
      <trkpt lat="43.62443" lon="3.83661">
        <ele>77.45500032</ele>
        <time>2020-10-17T07:17:09.000Z</time>
      </trkpt>
      <trkpt lat="43.62446" lon="3.8366">
        <ele>77.55500032</ele>
        <time>2020-10-17T07:17:10.000Z</time>
      </trkpt>
      <trkpt lat="43.6245" lon="3.83659">
        <ele>77.65500032</ele>
        <time>2020-10-17T07:17:11.000Z</time>
      </trkpt>
      <trkpt lat="43.62453" lon="3.83657">
        <ele>77.75500032</ele>
        <time>2020-10-17T07:17:12.000Z</time>
      </trkpt>
      <trkpt lat="43.62456" lon="3.83656">
        <ele>77.85500032</ele>
        <time>2020-10-17T07:17:13.000Z</time>
      </trkpt>
      <trkpt lat="43.62459" lon="3.83655">
        <ele>77.95500032</ele>
        <time>2020-10-17T07:17:14.000Z</time>
      </trkpt>
      <trkpt lat="43.62462" lon="3.83654">
        <ele>78</ele>
        <time>2020-10-17T07:17:15.000Z</time>
      </trkpt>
      <trkpt lat="43.62465" lon="3.83653">
        <ele>78</ele>
        <time>2020-10-17T07:17:16.000Z</time>
      </trkpt>
      <trkpt lat="43.62468" lon="3.83652">
        <ele>78</ele>
        <time>2020-10-17T07:17:17.000Z</time>
      </trkpt>
      <trkpt lat="43.62471" lon="3.8365">
        <ele>78</ele>
        <time>2020-10-17T07:17:18.000Z</time>
      </trkpt>
      <trkpt lat="43.62474" lon="3.83649">
        <ele>78</ele>
        <time>2020-10-17T07:17:19.000Z</time>
      </trkpt>
      <trkpt lat="43.62478" lon="3.83648">
        <ele>78</ele>
        <time>2020-10-17T07:17:20.000Z</time>
      </trkpt>
      <trkpt lat="43.62481" lon="3.83647">
        <ele>78</ele>
        <time>2020-10-17T07:17:21.000Z</time>
      </trkpt>
      <trkpt lat="43.62485" lon="3.83645">
        <ele>78</ele>
        <time>2020-10-17T07:17:22.000Z</time>
      </trkpt>
      <trkpt lat="43.62488" lon="3.83643">
        <ele>78</ele>
        <time>2020-10-17T07:17:23.000Z</time>
      </trkpt>
      <trkpt lat="43.62491" lon="3.8364">
        <ele>78</ele>
        <time>2020-10-17T07:17:24.000Z</time>
      </trkpt>
      <trkpt lat="43.62493" lon="3.83635">
        <ele>78.05500032</ele>
        <time>2020-10-17T07:17:25.000Z</time>
      </trkpt>
      <trkpt lat="43.62495" lon="3.83631">
        <ele>78.15500032</ele>
        <time>2020-10-17T07:17:26.000Z</time>
      </trkpt>
      <trkpt lat="43.62497" lon="3.83626">
        <ele>78.25500032</ele>
        <time>2020-10-17T07:17:27.000Z</time>
      </trkpt>
      <trkpt lat="43.62498" lon="3.83621">
        <ele>78.35500032</ele>
        <time>2020-10-17T07:17:28.000Z</time>
      </trkpt>
      <trkpt lat="43.625" lon="3.83616">
        <ele>78.45500032</ele>
        <time>2020-10-17T07:17:29.000Z</time>
      </trkpt>
      <trkpt lat="43.62502" lon="3.83612">
        <ele>78.55500032</ele>
        <time>2020-10-17T07:17:30.000Z</time>
      </trkpt>
      <trkpt lat="43.62505" lon="3.83609">
        <ele>78.65500032</ele>
        <time>2020-10-17T07:17:31.000Z</time>
      </trkpt>
      <trkpt lat="43.62509" lon="3.83607">
        <ele>78.75500032</ele>
        <time>2020-10-17T07:17:32.000Z</time>
      </trkpt>
      <trkpt lat="43.62512" lon="3.83604">
        <ele>78.85500032</ele>
        <time>2020-10-17T07:17:33.000Z</time>
      </trkpt>
      <trkpt lat="43.62516" lon="3.83603">
        <ele>78.95500032</ele>
        <time>2020-10-17T07:17:34.000Z</time>
      </trkpt>
      <trkpt lat="43.6252" lon="3.83602">
        <ele>79</ele>
        <time>2020-10-17T07:17:35.000Z</time>
      </trkpt>
      <trkpt lat="43.62524" lon="3.83603">
        <ele>79</ele>
        <time>2020-10-17T07:17:36.000Z</time>
      </trkpt>
      <trkpt lat="43.62528" lon="3.83605">
        <ele>79</ele>
        <time>2020-10-17T07:17:37.000Z</time>
      </trkpt>
      <trkpt lat="43.62532" lon="3.83607">
        <ele>79</ele>
        <time>2020-10-17T07:17:38.000Z</time>
      </trkpt>
      <trkpt lat="43.62535" lon="3.8361">
        <ele>79</ele>
        <time>2020-10-17T07:17:39.000Z</time>
      </trkpt>
      <trkpt lat="43.62538" lon="3.83613">
        <ele>79</ele>
        <time>2020-10-17T07:17:40.000Z</time>
      </trkpt>
      <trkpt lat="43.62542" lon="3.83616">
        <ele>79</ele>
        <time>2020-10-17T07:17:41.000Z</time>
      </trkpt>
      <trkpt lat="43.62545" lon="3.83619">
        <ele>79</ele>
        <time>2020-10-17T07:17:42.000Z</time>
      </trkpt>
      <trkpt lat="43.62549" lon="3.83621">
        <ele>79</ele>
        <time>2020-10-17T07:17:43.000Z</time>
      </trkpt>
      <trkpt lat="43.62553" lon="3.8362">
        <ele>79</ele>
        <time>2020-10-17T07:17:44.000Z</time>
      </trkpt>
      <trkpt lat="43.62556" lon="3.83619">
        <ele>78.94499968</ele>
        <time>2020-10-17T07:17:45.000Z</time>
      </trkpt>
      <trkpt lat="43.6256" lon="3.83618">
        <ele>78.84499968</ele>
        <time>2020-10-17T07:17:46.000Z</time>
      </trkpt>
      <trkpt lat="43.62564" lon="3.83616">
        <ele>78.74499968</ele>
        <time>2020-10-17T07:17:47.000Z</time>
      </trkpt>
      <trkpt lat="43.62569" lon="3.83614">
        <ele>78.64499968</ele>
        <time>2020-10-17T07:17:48.000Z</time>
      </trkpt>
      <trkpt lat="43.62573" lon="3.83612">
        <ele>78.54499968</ele>
        <time>2020-10-17T07:17:49.000Z</time>
      </trkpt>
      <trkpt lat="43.62576" lon="3.83609">
        <ele>78.44499968</ele>
        <time>2020-10-17T07:17:50.000Z</time>
      </trkpt>
      <trkpt lat="43.62576" lon="3.83604">
        <ele>78.34499968</ele>
        <time>2020-10-17T07:17:51.000Z</time>
      </trkpt>
      <trkpt lat="43.62575" lon="3.83599">
        <ele>78.24499968</ele>
        <time>2020-10-17T07:17:52.000Z</time>
      </trkpt>
      <trkpt lat="43.62574" lon="3.83595">
        <ele>78.14499968</ele>
        <time>2020-10-17T07:17:53.000Z</time>
      </trkpt>
      <trkpt lat="43.62573" lon="3.83592">
        <ele>78.04499968</ele>
        <time>2020-10-17T07:17:54.000Z</time>
      </trkpt>
      <trkpt lat="43.62571" lon="3.83588">
        <ele>78</ele>
        <time>2020-10-17T07:17:55.000Z</time>
      </trkpt>
      <trkpt lat="43.62568" lon="3.83584">
        <ele>78</ele>
        <time>2020-10-17T07:17:56.000Z</time>
      </trkpt>
      <trkpt lat="43.62566" lon="3.83581">
        <ele>78</ele>
        <time>2020-10-17T07:17:57.000Z</time>
      </trkpt>
      <trkpt lat="43.62563" lon="3.83577">
        <ele>78</ele>
        <time>2020-10-17T07:17:58.000Z</time>
      </trkpt>
      <trkpt lat="43.62559" lon="3.83574">
        <ele>78</ele>
        <time>2020-10-17T07:17:59.000Z</time>
      </trkpt>
      <trkpt lat="43.62556" lon="3.83571">
        <ele>78</ele>
        <time>2020-10-17T07:18:00.000Z</time>
      </trkpt>
      <trkpt lat="43.62552" lon="3.83567">
        <ele>78</ele>
        <time>2020-10-17T07:18:01.000Z</time>
      </trkpt>
      <trkpt lat="43.62548" lon="3.83565">
        <ele>78</ele>
        <time>2020-10-17T07:18:02.000Z</time>
      </trkpt>
      <trkpt lat="43.62545" lon="3.83562">
        <ele>78</ele>
        <time>2020-10-17T07:18:03.000Z</time>
      </trkpt>
      <trkpt lat="43.62541" lon="3.83559">
        <ele>78</ele>
        <time>2020-10-17T07:18:04.000Z</time>
      </trkpt>
      <trkpt lat="43.62538" lon="3.83556">
        <ele>78</ele>
        <time>2020-10-17T07:18:05.000Z</time>
      </trkpt>
      <trkpt lat="43.62535" lon="3.83553">
        <ele>78</ele>
        <time>2020-10-17T07:18:06.000Z</time>
      </trkpt>
      <trkpt lat="43.62533" lon="3.83549">
        <ele>78</ele>
        <time>2020-10-17T07:18:07.000Z</time>
      </trkpt>
      <trkpt lat="43.62533" lon="3.83545">
        <ele>78</ele>
        <time>2020-10-17T07:18:08.000Z</time>
      </trkpt>
      <trkpt lat="43.62532" lon="3.83542">
        <ele>78</ele>
        <time>2020-10-17T07:18:09.000Z</time>
      </trkpt>
      <trkpt lat="43.62532" lon="3.83537">
        <ele>78</ele>
        <time>2020-10-17T07:18:10.000Z</time>
      </trkpt>
      <trkpt lat="43.62531" lon="3.83532">
        <ele>78</ele>
        <time>2020-10-17T07:18:11.000Z</time>
      </trkpt>
      <trkpt lat="43.62529" lon="3.83527">
        <ele>78</ele>
        <time>2020-10-17T07:18:12.000Z</time>
      </trkpt>
      <trkpt lat="43.62527" lon="3.83522">
        <ele>78</ele>
        <time>2020-10-17T07:18:13.000Z</time>
      </trkpt>
      <trkpt lat="43.62525" lon="3.83517">
        <ele>78</ele>
        <time>2020-10-17T07:18:14.000Z</time>
      </trkpt>
      <trkpt lat="43.62523" lon="3.83512">
        <ele>78.050251883336</ele>
        <time>2020-10-17T07:18:15.000Z</time>
      </trkpt>
      <trkpt lat="43.62521" lon="3.83507">
        <ele>78.150754363576</ele>
        <time>2020-10-17T07:18:16.000Z</time>
      </trkpt>
      <trkpt lat="43.62518" lon="3.83502">
        <ele>78.251256843817</ele>
        <time>2020-10-17T07:18:17.000Z</time>
      </trkpt>
      <trkpt lat="43.62517" lon="3.83497">
        <ele>78.351759324057</ele>
        <time>2020-10-17T07:18:18.000Z</time>
      </trkpt>
      <trkpt lat="43.62515" lon="3.83492">
        <ele>78.452261804298</ele>
        <time>2020-10-17T07:18:19.000Z</time>
      </trkpt>
      <trkpt lat="43.62513" lon="3.83487">
        <ele>78.552764284538</ele>
        <time>2020-10-17T07:18:20.000Z</time>
      </trkpt>
      <trkpt lat="43.62511" lon="3.83484">
        <ele>78.653266764778</ele>
        <time>2020-10-17T07:18:21.000Z</time>
      </trkpt>
      <trkpt lat="43.62509" lon="3.83479">
        <ele>78.753769245019</ele>
        <time>2020-10-17T07:18:22.000Z</time>
      </trkpt>
      <trkpt lat="43.62509" lon="3.83475">
        <ele>78.854271725259</ele>
        <time>2020-10-17T07:18:23.000Z</time>
      </trkpt>
      <trkpt lat="43.62511" lon="3.83471">
        <ele>78.9547742055</ele>
        <time>2020-10-17T07:18:24.000Z</time>
      </trkpt>
      <trkpt lat="43.62513" lon="3.83468">
        <ele>79</ele>
        <time>2020-10-17T07:18:25.000Z</time>
      </trkpt>
      <trkpt lat="43.62515" lon="3.83466">
        <ele>79</ele>
        <time>2020-10-17T07:18:26.000Z</time>
      </trkpt>
      <trkpt lat="43.62517" lon="3.83465">
        <ele>79</ele>
        <time>2020-10-17T07:18:27.000Z</time>
      </trkpt>
      <trkpt lat="43.62518" lon="3.83464">
        <ele>79</ele>
        <time>2020-10-17T07:18:28.000Z</time>
      </trkpt>
      <trkpt lat="43.6252" lon="3.83463">
        <ele>79</ele>
        <time>2020-10-17T07:18:29.000Z</time>
      </trkpt>
      <trkpt lat="43.62524" lon="3.83463">
        <ele>79</ele>
        <time>2020-10-17T07:18:31.000Z</time>
      </trkpt>
      <trkpt lat="43.62527" lon="3.83462">
        <ele>79</ele>
        <time>2020-10-17T07:18:33.000Z</time>
      </trkpt>
      <trkpt lat="43.62528" lon="3.83464">
        <ele>78.973222830658</ele>
        <time>2020-10-17T07:18:35.000Z</time>
      </trkpt>
      <trkpt lat="43.62526" lon="3.83466">
        <ele>78.767249675057</ele>
        <time>2020-10-17T07:18:37.000Z</time>
      </trkpt>
      <trkpt lat="43.62523" lon="3.83466">
        <ele>78.664263097256</ele>
        <time>2020-10-17T07:18:38.000Z</time>
      </trkpt>
      <trkpt lat="43.62521" lon="3.83466">
        <ele>78.561276519456</ele>
        <time>2020-10-17T07:18:39.000Z</time>
      </trkpt>
      <trkpt lat="43.62518" lon="3.83467">
        <ele>78.458289941655</ele>
        <time>2020-10-17T07:18:40.000Z</time>
      </trkpt>
      <trkpt lat="43.62515" lon="3.83468">
        <ele>78.355303363855</ele>
        <time>2020-10-17T07:18:41.000Z</time>
      </trkpt>
      <trkpt lat="43.62511" lon="3.8347">
        <ele>78.252316786054</ele>
        <time>2020-10-17T07:18:42.000Z</time>
      </trkpt>
      <trkpt lat="43.62508" lon="3.8347">
        <ele>78.149330208254</ele>
        <time>2020-10-17T07:18:43.000Z</time>
      </trkpt>
      <trkpt lat="43.62505" lon="3.83468">
        <ele>78.046343630453</ele>
        <time>2020-10-17T07:18:44.000Z</time>
      </trkpt>
      <trkpt lat="43.62504" lon="3.83463">
        <ele>77.94499968</ele>
        <time>2020-10-17T07:18:45.000Z</time>
      </trkpt>
      <trkpt lat="43.62504" lon="3.83457">
        <ele>77.84499968</ele>
        <time>2020-10-17T07:18:46.000Z</time>
      </trkpt>
      <trkpt lat="43.62505" lon="3.83452">
        <ele>77.74499968</ele>
        <time>2020-10-17T07:18:47.000Z</time>
      </trkpt>
      <trkpt lat="43.62507" lon="3.83448">
        <ele>77.64499968</ele>
        <time>2020-10-17T07:18:48.000Z</time>
      </trkpt>
      <trkpt lat="43.62509" lon="3.83443">
        <ele>77.54499968</ele>
        <time>2020-10-17T07:18:49.000Z</time>
      </trkpt>
      <trkpt lat="43.6251" lon="3.83439">
        <ele>77.44499968</ele>
        <time>2020-10-17T07:18:50.000Z</time>
      </trkpt>
      <trkpt lat="43.62512" lon="3.83434">
        <ele>77.34499968</ele>
        <time>2020-10-17T07:18:51.000Z</time>
      </trkpt>
      <trkpt lat="43.62513" lon="3.8343">
        <ele>77.24499968</ele>
        <time>2020-10-17T07:18:52.000Z</time>
      </trkpt>
      <trkpt lat="43.62514" lon="3.83425">
        <ele>77.14499968</ele>
        <time>2020-10-17T07:18:53.000Z</time>
      </trkpt>
      <trkpt lat="43.62516" lon="3.83421">
        <ele>77.04499968</ele>
        <time>2020-10-17T07:18:54.000Z</time>
      </trkpt>
      <trkpt lat="43.62517" lon="3.83417">
        <ele>77.05500032</ele>
        <time>2020-10-17T07:18:55.000Z</time>
      </trkpt>
      <trkpt lat="43.62516" lon="3.83412">
        <ele>77.15500032</ele>
        <time>2020-10-17T07:18:56.000Z</time>
      </trkpt>
      <trkpt lat="43.62516" lon="3.83407">
        <ele>77.25500032</ele>
        <time>2020-10-17T07:18:57.000Z</time>
      </trkpt>
      <trkpt lat="43.62517" lon="3.83403">
        <ele>77.35500032</ele>
        <time>2020-10-17T07:18:58.000Z</time>
      </trkpt>
      <trkpt lat="43.62518" lon="3.83399">
        <ele>77.45500032</ele>
        <time>2020-10-17T07:18:59.000Z</time>
      </trkpt>
      <trkpt lat="43.6252" lon="3.83394">
        <ele>77.55500032</ele>
        <time>2020-10-17T07:19:00.000Z</time>
      </trkpt>
      <trkpt lat="43.62521" lon="3.83389">
        <ele>77.65500032</ele>
        <time>2020-10-17T07:19:01.000Z</time>
      </trkpt>
      <trkpt lat="43.62523" lon="3.83385">
        <ele>77.75500032</ele>
        <time>2020-10-17T07:19:02.000Z</time>
      </trkpt>
      <trkpt lat="43.62524" lon="3.8338">
        <ele>77.85500032</ele>
        <time>2020-10-17T07:19:03.000Z</time>
      </trkpt>
      <trkpt lat="43.62526" lon="3.83375">
        <ele>77.95500032</ele>
        <time>2020-10-17T07:19:04.000Z</time>
      </trkpt>
      <trkpt lat="43.62527" lon="3.8337">
        <ele>78.05500032</ele>
        <time>2020-10-17T07:19:05.000Z</time>
      </trkpt>
      <trkpt lat="43.62529" lon="3.83366">
        <ele>78.15500032</ele>
        <time>2020-10-17T07:19:06.000Z</time>
      </trkpt>
      <trkpt lat="43.6253" lon="3.83361">
        <ele>78.25500032</ele>
        <time>2020-10-17T07:19:07.000Z</time>
      </trkpt>
      <trkpt lat="43.62532" lon="3.83356">
        <ele>78.35500032</ele>
        <time>2020-10-17T07:19:08.000Z</time>
      </trkpt>
      <trkpt lat="43.62533" lon="3.83352">
        <ele>78.45500032</ele>
        <time>2020-10-17T07:19:09.000Z</time>
      </trkpt>
      <trkpt lat="43.62534" lon="3.8335">
        <ele>78.55500032</ele>
        <time>2020-10-17T07:19:10.000Z</time>
      </trkpt>
      <trkpt lat="43.62535" lon="3.83348">
        <ele>79.005143513866</ele>
        <time>2020-10-17T07:19:18.000Z</time>
      </trkpt>
      <trkpt lat="43.62535" lon="3.83342">
        <ele>81</ele>
        <time>2020-10-17T07:22:01.000Z</time>
      </trkpt>
      <trkpt lat="43.62536" lon="3.83338">
        <ele>81</ele>
        <time>2020-10-17T07:22:02.000Z</time>
      </trkpt>
      <trkpt lat="43.62537" lon="3.83335">
        <ele>81</ele>
        <time>2020-10-17T07:22:03.000Z</time>
      </trkpt>
      <trkpt lat="43.62539" lon="3.83332">
        <ele>81</ele>
        <time>2020-10-17T07:22:04.000Z</time>
      </trkpt>
      <trkpt lat="43.6254" lon="3.83328">
        <ele>81</ele>
        <time>2020-10-17T07:22:05.000Z</time>
      </trkpt>
      <trkpt lat="43.62541" lon="3.83324">
        <ele>81</ele>
        <time>2020-10-17T07:22:06.000Z</time>
      </trkpt>
      <trkpt lat="43.62542" lon="3.83321">
        <ele>81</ele>
        <time>2020-10-17T07:22:07.000Z</time>
      </trkpt>
      <trkpt lat="43.62543" lon="3.83317">
        <ele>81</ele>
        <time>2020-10-17T07:22:08.000Z</time>
      </trkpt>
      <trkpt lat="43.62544" lon="3.83313">
        <ele>81</ele>
        <time>2020-10-17T07:22:09.000Z</time>
      </trkpt>
      <trkpt lat="43.62545" lon="3.8331">
        <ele>81</ele>
        <time>2020-10-17T07:22:10.000Z</time>
      </trkpt>
      <trkpt lat="43.62546" lon="3.83306">
        <ele>81</ele>
        <time>2020-10-17T07:22:11.000Z</time>
      </trkpt>
      <trkpt lat="43.62547" lon="3.83303">
        <ele>81</ele>
        <time>2020-10-17T07:22:12.000Z</time>
      </trkpt>
      <trkpt lat="43.62548" lon="3.83299">
        <ele>81</ele>
        <time>2020-10-17T07:22:13.000Z</time>
      </trkpt>
      <trkpt lat="43.6255" lon="3.83296">
        <ele>81</ele>
        <time>2020-10-17T07:22:14.000Z</time>
      </trkpt>
      <trkpt lat="43.62551" lon="3.83292">
        <ele>81</ele>
        <time>2020-10-17T07:22:15.000Z</time>
      </trkpt>
      <trkpt lat="43.62552" lon="3.83289">
        <ele>81</ele>
        <time>2020-10-17T07:22:16.000Z</time>
      </trkpt>
      <trkpt lat="43.62554" lon="3.83286">
        <ele>81</ele>
        <time>2020-10-17T07:22:17.000Z</time>
      </trkpt>
      <trkpt lat="43.62555" lon="3.83283">
        <ele>81</ele>
        <time>2020-10-17T07:22:18.000Z</time>
      </trkpt>
      <trkpt lat="43.62557" lon="3.83281">
        <ele>81</ele>
        <time>2020-10-17T07:22:19.000Z</time>
      </trkpt>
      <trkpt lat="43.62559" lon="3.83279">
        <ele>81</ele>
        <time>2020-10-17T07:22:20.000Z</time>
      </trkpt>
      <trkpt lat="43.62562" lon="3.83277">
        <ele>80.972221893004</ele>
        <time>2020-10-17T07:22:21.000Z</time>
      </trkpt>
      <trkpt lat="43.62564" lon="3.83276">
        <ele>80.869341234568</ele>
        <time>2020-10-17T07:22:22.000Z</time>
      </trkpt>
      <trkpt lat="43.62567" lon="3.83274">
        <ele>80.766460576132</ele>
        <time>2020-10-17T07:22:23.000Z</time>
      </trkpt>
      <trkpt lat="43.62569" lon="3.83273">
        <ele>80.663579917696</ele>
        <time>2020-10-17T07:22:24.000Z</time>
      </trkpt>
      <trkpt lat="43.62572" lon="3.8327">
        <ele>80.560699259259</ele>
        <time>2020-10-17T07:22:25.000Z</time>
      </trkpt>
      <trkpt lat="43.62574" lon="3.83268">
        <ele>80.457818600823</ele>
        <time>2020-10-17T07:22:26.000Z</time>
      </trkpt>
      <trkpt lat="43.62576" lon="3.83265">
        <ele>80.354937942387</ele>
        <time>2020-10-17T07:22:27.000Z</time>
      </trkpt>
      <trkpt lat="43.62578" lon="3.83262">
        <ele>80.252057283951</ele>
        <time>2020-10-17T07:22:28.000Z</time>
      </trkpt>
      <trkpt lat="43.62579" lon="3.83259">
        <ele>80.149176625514</ele>
        <time>2020-10-17T07:22:29.000Z</time>
      </trkpt>
      <trkpt lat="43.62581" lon="3.83255">
        <ele>80.046295967078</ele>
        <time>2020-10-17T07:22:30.000Z</time>
      </trkpt>
      <trkpt lat="43.62582" lon="3.83251">
        <ele>80</ele>
        <time>2020-10-17T07:22:31.000Z</time>
      </trkpt>
      <trkpt lat="43.62583" lon="3.83247">
        <ele>80</ele>
        <time>2020-10-17T07:22:32.000Z</time>
      </trkpt>
      <trkpt lat="43.62583" lon="3.83244">
        <ele>80</ele>
        <time>2020-10-17T07:22:33.000Z</time>
      </trkpt>
      <trkpt lat="43.62584" lon="3.8324">
        <ele>80</ele>
        <time>2020-10-17T07:22:34.000Z</time>
      </trkpt>
      <trkpt lat="43.62583" lon="3.83237">
        <ele>80</ele>
        <time>2020-10-17T07:22:35.000Z</time>
      </trkpt>
      <trkpt lat="43.62582" lon="3.83234">
        <ele>80</ele>
        <time>2020-10-17T07:22:36.000Z</time>
      </trkpt>
      <trkpt lat="43.6258" lon="3.83231">
        <ele>80</ele>
        <time>2020-10-17T07:22:37.000Z</time>
      </trkpt>
      <trkpt lat="43.62578" lon="3.83229">
        <ele>80</ele>
        <time>2020-10-17T07:22:38.000Z</time>
      </trkpt>
      <trkpt lat="43.62577" lon="3.83225">
        <ele>80</ele>
        <time>2020-10-17T07:22:39.000Z</time>
      </trkpt>
      <trkpt lat="43.62578" lon="3.83222">
        <ele>80</ele>
        <time>2020-10-17T07:22:40.000Z</time>
      </trkpt>
      <trkpt lat="43.6258" lon="3.8322">
        <ele>80.05500032</ele>
        <time>2020-10-17T07:22:41.000Z</time>
      </trkpt>
      <trkpt lat="43.62583" lon="3.83219">
        <ele>80.15500032</ele>
        <time>2020-10-17T07:22:42.000Z</time>
      </trkpt>
      <trkpt lat="43.62585" lon="3.83217">
        <ele>80.25500032</ele>
        <time>2020-10-17T07:22:43.000Z</time>
      </trkpt>
      <trkpt lat="43.62587" lon="3.83215">
        <ele>80.35500032</ele>
        <time>2020-10-17T07:22:44.000Z</time>
      </trkpt>
      <trkpt lat="43.6259" lon="3.83214">
        <ele>80.45500032</ele>
        <time>2020-10-17T07:22:45.000Z</time>
      </trkpt>
      <trkpt lat="43.62592" lon="3.83212">
        <ele>80.55500032</ele>
        <time>2020-10-17T07:22:46.000Z</time>
      </trkpt>
      <trkpt lat="43.62594" lon="3.8321">
        <ele>80.65500032</ele>
        <time>2020-10-17T07:22:47.000Z</time>
      </trkpt>
      <trkpt lat="43.62597" lon="3.83209">
        <ele>80.75500032</ele>
        <time>2020-10-17T07:22:48.000Z</time>
      </trkpt>
      <trkpt lat="43.62598" lon="3.83207">
        <ele>80.85500032</ele>
        <time>2020-10-17T07:22:49.000Z</time>
      </trkpt>
      <trkpt lat="43.626" lon="3.83205">
        <ele>80.95500032</ele>
        <time>2020-10-17T07:22:50.000Z</time>
      </trkpt>
      <trkpt lat="43.62602" lon="3.83204">
        <ele>81</ele>
        <time>2020-10-17T07:22:51.000Z</time>
      </trkpt>
      <trkpt lat="43.62604" lon="3.83203">
        <ele>81</ele>
        <time>2020-10-17T07:22:52.000Z</time>
      </trkpt>
      <trkpt lat="43.62606" lon="3.83201">
        <ele>81</ele>
        <time>2020-10-17T07:22:53.000Z</time>
      </trkpt>
      <trkpt lat="43.62607" lon="3.83198">
        <ele>81</ele>
        <time>2020-10-17T07:22:54.000Z</time>
      </trkpt>
      <trkpt lat="43.62609" lon="3.83194">
        <ele>81</ele>
        <time>2020-10-17T07:22:55.000Z</time>
      </trkpt>
      <trkpt lat="43.6261" lon="3.8319">
        <ele>81</ele>
        <time>2020-10-17T07:22:56.000Z</time>
      </trkpt>
      <trkpt lat="43.62611" lon="3.83185">
        <ele>81</ele>
        <time>2020-10-17T07:22:57.000Z</time>
      </trkpt>
      <trkpt lat="43.62613" lon="3.8318">
        <ele>81</ele>
        <time>2020-10-17T07:22:58.000Z</time>
      </trkpt>
      <trkpt lat="43.62615" lon="3.83175">
        <ele>81</ele>
        <time>2020-10-17T07:22:59.000Z</time>
      </trkpt>
      <trkpt lat="43.62617" lon="3.8317">
        <ele>81</ele>
        <time>2020-10-17T07:23:00.000Z</time>
      </trkpt>
      <trkpt lat="43.62618" lon="3.83166">
        <ele>81.05500032</ele>
        <time>2020-10-17T07:23:01.000Z</time>
      </trkpt>
      <trkpt lat="43.6262" lon="3.83162">
        <ele>81.15500032</ele>
        <time>2020-10-17T07:23:02.000Z</time>
      </trkpt>
      <trkpt lat="43.62622" lon="3.83157">
        <ele>81.25500032</ele>
        <time>2020-10-17T07:23:03.000Z</time>
      </trkpt>
      <trkpt lat="43.62623" lon="3.83153">
        <ele>81.35500032</ele>
        <time>2020-10-17T07:23:04.000Z</time>
      </trkpt>
      <trkpt lat="43.62625" lon="3.8315">
        <ele>81.45500032</ele>
        <time>2020-10-17T07:23:05.000Z</time>
      </trkpt>
      <trkpt lat="43.62626" lon="3.83146">
        <ele>81.55500032</ele>
        <time>2020-10-17T07:23:06.000Z</time>
      </trkpt>
      <trkpt lat="43.62628" lon="3.83142">
        <ele>81.65500032</ele>
        <time>2020-10-17T07:23:07.000Z</time>
      </trkpt>
      <trkpt lat="43.6263" lon="3.83139">
        <ele>81.75500032</ele>
        <time>2020-10-17T07:23:08.000Z</time>
      </trkpt>
      <trkpt lat="43.62632" lon="3.83136">
        <ele>81.85500032</ele>
        <time>2020-10-17T07:23:09.000Z</time>
      </trkpt>
      <trkpt lat="43.62634" lon="3.83134">
        <ele>81.95500032</ele>
        <time>2020-10-17T07:23:10.000Z</time>
      </trkpt>
      <trkpt lat="43.62636" lon="3.8313">
        <ele>82</ele>
        <time>2020-10-17T07:23:11.000Z</time>
      </trkpt>
      <trkpt lat="43.62637" lon="3.83126">
        <ele>82</ele>
        <time>2020-10-17T07:23:12.000Z</time>
      </trkpt>
      <trkpt lat="43.62637" lon="3.83122">
        <ele>82</ele>
        <time>2020-10-17T07:23:13.000Z</time>
      </trkpt>
      <trkpt lat="43.62637" lon="3.83118">
        <ele>82</ele>
        <time>2020-10-17T07:23:14.000Z</time>
      </trkpt>
      <trkpt lat="43.62638" lon="3.83113">
        <ele>82</ele>
        <time>2020-10-17T07:23:15.000Z</time>
      </trkpt>
      <trkpt lat="43.62638" lon="3.83109">
        <ele>82</ele>
        <time>2020-10-17T07:23:16.000Z</time>
      </trkpt>
      <trkpt lat="43.62638" lon="3.83105">
        <ele>82</ele>
        <time>2020-10-17T07:23:17.000Z</time>
      </trkpt>
      <trkpt lat="43.62638" lon="3.83101">
        <ele>82</ele>
        <time>2020-10-17T07:23:18.000Z</time>
      </trkpt>
      <trkpt lat="43.62638" lon="3.83097">
        <ele>82</ele>
        <time>2020-10-17T07:23:19.000Z</time>
      </trkpt>
      <trkpt lat="43.62639" lon="3.83093">
        <ele>82</ele>
        <time>2020-10-17T07:23:20.000Z</time>
      </trkpt>
      <trkpt lat="43.62639" lon="3.8309">
        <ele>81.94499968</ele>
        <time>2020-10-17T07:23:21.000Z</time>
      </trkpt>
      <trkpt lat="43.62639" lon="3.83085">
        <ele>81.84499968</ele>
        <time>2020-10-17T07:23:22.000Z</time>
      </trkpt>
      <trkpt lat="43.62639" lon="3.8308">
        <ele>81.74499968</ele>
        <time>2020-10-17T07:23:23.000Z</time>
      </trkpt>
      <trkpt lat="43.6264" lon="3.83076">
        <ele>81.64499968</ele>
        <time>2020-10-17T07:23:24.000Z</time>
      </trkpt>
      <trkpt lat="43.62641" lon="3.83071">
        <ele>81.54499968</ele>
        <time>2020-10-17T07:23:25.000Z</time>
      </trkpt>
      <trkpt lat="43.62641" lon="3.83067">
        <ele>81.44499968</ele>
        <time>2020-10-17T07:23:26.000Z</time>
      </trkpt>
      <trkpt lat="43.62641" lon="3.83062">
        <ele>81.34499968</ele>
        <time>2020-10-17T07:23:27.000Z</time>
      </trkpt>
      <trkpt lat="43.62642" lon="3.83058">
        <ele>81.24499968</ele>
        <time>2020-10-17T07:23:28.000Z</time>
      </trkpt>
      <trkpt lat="43.62642" lon="3.83053">
        <ele>81.14499968</ele>
        <time>2020-10-17T07:23:29.000Z</time>
      </trkpt>
      <trkpt lat="43.62643" lon="3.83048">
        <ele>81.04499968</ele>
        <time>2020-10-17T07:23:30.000Z</time>
      </trkpt>
      <trkpt lat="43.62643" lon="3.83044">
        <ele>81</ele>
        <time>2020-10-17T07:23:31.000Z</time>
      </trkpt>
      <trkpt lat="43.62644" lon="3.83039">
        <ele>81</ele>
        <time>2020-10-17T07:23:32.000Z</time>
      </trkpt>
      <trkpt lat="43.62644" lon="3.83035">
        <ele>81</ele>
        <time>2020-10-17T07:23:33.000Z</time>
      </trkpt>
      <trkpt lat="43.62644" lon="3.8303">
        <ele>81</ele>
        <time>2020-10-17T07:23:34.000Z</time>
      </trkpt>
      <trkpt lat="43.62645" lon="3.83026">
        <ele>81</ele>
        <time>2020-10-17T07:23:35.000Z</time>
      </trkpt>
      <trkpt lat="43.62646" lon="3.83022">
        <ele>81</ele>
        <time>2020-10-17T07:23:36.000Z</time>
      </trkpt>
      <trkpt lat="43.62646" lon="3.83017">
        <ele>81</ele>
        <time>2020-10-17T07:23:37.000Z</time>
      </trkpt>
      <trkpt lat="43.62648" lon="3.83013">
        <ele>81</ele>
        <time>2020-10-17T07:23:38.000Z</time>
      </trkpt>
      <trkpt lat="43.62651" lon="3.83011">
        <ele>81</ele>
        <time>2020-10-17T07:23:39.000Z</time>
      </trkpt>
      <trkpt lat="43.62653" lon="3.8301">
        <ele>81</ele>
        <time>2020-10-17T07:23:40.000Z</time>
      </trkpt>
      <trkpt lat="43.62656" lon="3.8301">
        <ele>81.10799872</ele>
        <time>2020-10-17T07:23:41.000Z</time>
      </trkpt>
      <trkpt lat="43.62659" lon="3.83012">
        <ele>81.30799872</ele>
        <time>2020-10-17T07:23:42.000Z</time>
      </trkpt>
      <trkpt lat="43.62661" lon="3.83013">
        <ele>81.50799872</ele>
        <time>2020-10-17T07:23:43.000Z</time>
      </trkpt>
      <trkpt lat="43.62663" lon="3.83015">
        <ele>81.70799872</ele>
        <time>2020-10-17T07:23:44.000Z</time>
      </trkpt>
      <trkpt lat="43.62666" lon="3.83016">
        <ele>81.90799872</ele>
        <time>2020-10-17T07:23:45.000Z</time>
      </trkpt>
      <trkpt lat="43.62668" lon="3.83016">
        <ele>82.10799872</ele>
        <time>2020-10-17T07:23:46.000Z</time>
      </trkpt>
      <trkpt lat="43.6267" lon="3.83017">
        <ele>82.30799872</ele>
        <time>2020-10-17T07:23:47.000Z</time>
      </trkpt>
      <trkpt lat="43.62672" lon="3.83018">
        <ele>82.50799872</ele>
        <time>2020-10-17T07:23:48.000Z</time>
      </trkpt>
      <trkpt lat="43.62675" lon="3.83018">
        <ele>82.70799872</ele>
        <time>2020-10-17T07:23:49.000Z</time>
      </trkpt>
      <trkpt lat="43.62677" lon="3.83019">
        <ele>82.90799872</ele>
        <time>2020-10-17T07:23:50.000Z</time>
      </trkpt>
      <trkpt lat="43.62679" lon="3.83019">
        <ele>83.108106930713</ele>
        <time>2020-10-17T07:23:51.000Z</time>
      </trkpt>
      <trkpt lat="43.62681" lon="3.8302">
        <ele>83.308307323298</ele>
        <time>2020-10-17T07:23:52.000Z</time>
      </trkpt>
      <trkpt lat="43.62683" lon="3.8302">
        <ele>83.508507715883</ele>
        <time>2020-10-17T07:23:53.000Z</time>
      </trkpt>
      <trkpt lat="43.62685" lon="3.83021">
        <ele>83.708708108468</ele>
        <time>2020-10-17T07:23:54.000Z</time>
      </trkpt>
      <trkpt lat="43.62687" lon="3.83022">
        <ele>83.908908501053</ele>
        <time>2020-10-17T07:23:55.000Z</time>
      </trkpt>
      <trkpt lat="43.6269" lon="3.83023">
        <ele>84.109108893638</ele>
        <time>2020-10-17T07:23:56.000Z</time>
      </trkpt>
      <trkpt lat="43.62692" lon="3.83024">
        <ele>84.309309286223</ele>
        <time>2020-10-17T07:23:57.000Z</time>
      </trkpt>
      <trkpt lat="43.62694" lon="3.83025">
        <ele>84.509509678808</ele>
        <time>2020-10-17T07:23:58.000Z</time>
      </trkpt>
      <trkpt lat="43.62697" lon="3.83026">
        <ele>84.709710071393</ele>
        <time>2020-10-17T07:23:59.000Z</time>
      </trkpt>
      <trkpt lat="43.627" lon="3.83027">
        <ele>84.909910463978</ele>
        <time>2020-10-17T07:24:00.000Z</time>
      </trkpt>
      <trkpt lat="43.62702" lon="3.83028">
        <ele>85</ele>
        <time>2020-10-17T07:24:01.000Z</time>
      </trkpt>
      <trkpt lat="43.62705" lon="3.83029">
        <ele>85</ele>
        <time>2020-10-17T07:24:02.000Z</time>
      </trkpt>
      <trkpt lat="43.62708" lon="3.8303">
        <ele>85</ele>
        <time>2020-10-17T07:24:03.000Z</time>
      </trkpt>
      <trkpt lat="43.6271" lon="3.83031">
        <ele>85</ele>
        <time>2020-10-17T07:24:04.000Z</time>
      </trkpt>
      <trkpt lat="43.62713" lon="3.83031">
        <ele>85</ele>
        <time>2020-10-17T07:24:05.000Z</time>
      </trkpt>
      <trkpt lat="43.62716" lon="3.83033">
        <ele>85</ele>
        <time>2020-10-17T07:24:06.000Z</time>
      </trkpt>
      <trkpt lat="43.62719" lon="3.83034">
        <ele>85</ele>
        <time>2020-10-17T07:24:07.000Z</time>
      </trkpt>
      <trkpt lat="43.62722" lon="3.83035">
        <ele>85</ele>
        <time>2020-10-17T07:24:08.000Z</time>
      </trkpt>
      <trkpt lat="43.62724" lon="3.83036">
        <ele>85</ele>
        <time>2020-10-17T07:24:09.000Z</time>
      </trkpt>
      <trkpt lat="43.62727" lon="3.83037">
        <ele>85</ele>
        <time>2020-10-17T07:24:10.000Z</time>
      </trkpt>
      <trkpt lat="43.62729" lon="3.83038">
        <ele>85.107213032538</ele>
        <time>2020-10-17T07:24:11.000Z</time>
      </trkpt>
      <trkpt lat="43.62732" lon="3.8304">
        <ele>85.302144684822</ele>
        <time>2020-10-17T07:24:12.000Z</time>
      </trkpt>
      <trkpt lat="43.62734" lon="3.83041">
        <ele>85.497076337106</ele>
        <time>2020-10-17T07:24:13.000Z</time>
      </trkpt>
      <trkpt lat="43.62736" lon="3.83043">
        <ele>85.692007989391</ele>
        <time>2020-10-17T07:24:14.000Z</time>
      </trkpt>
      <trkpt lat="43.62739" lon="3.83045">
        <ele>85.886939641675</ele>
        <time>2020-10-17T07:24:15.000Z</time>
      </trkpt>
      <trkpt lat="43.62741" lon="3.83047">
        <ele>86.081871293959</ele>
        <time>2020-10-17T07:24:16.000Z</time>
      </trkpt>
      <trkpt lat="43.62743" lon="3.83049">
        <ele>86.276802946244</ele>
        <time>2020-10-17T07:24:17.000Z</time>
      </trkpt>
      <trkpt lat="43.62745" lon="3.8305">
        <ele>86.471734598528</ele>
        <time>2020-10-17T07:24:18.000Z</time>
      </trkpt>
      <trkpt lat="43.62748" lon="3.83052">
        <ele>86.666666250812</ele>
        <time>2020-10-17T07:24:19.000Z</time>
      </trkpt>
      <trkpt lat="43.6275" lon="3.83053">
        <ele>86.861597903097</ele>
        <time>2020-10-17T07:24:20.000Z</time>
      </trkpt>
      <trkpt lat="43.62752" lon="3.83055">
        <ele>87</ele>
        <time>2020-10-17T07:24:21.000Z</time>
      </trkpt>
      <trkpt lat="43.62755" lon="3.83058">
        <ele>87</ele>
        <time>2020-10-17T07:24:22.000Z</time>
      </trkpt>
      <trkpt lat="43.62757" lon="3.8306">
        <ele>87</ele>
        <time>2020-10-17T07:24:23.000Z</time>
      </trkpt>
      <trkpt lat="43.62759" lon="3.83063">
        <ele>87</ele>
        <time>2020-10-17T07:24:24.000Z</time>
      </trkpt>
      <trkpt lat="43.62761" lon="3.83066">
        <ele>87</ele>
        <time>2020-10-17T07:24:25.000Z</time>
      </trkpt>
      <trkpt lat="43.62763" lon="3.83068">
        <ele>87</ele>
        <time>2020-10-17T07:24:26.000Z</time>
      </trkpt>
      <trkpt lat="43.62765" lon="3.83071">
        <ele>87</ele>
        <time>2020-10-17T07:24:27.000Z</time>
      </trkpt>
      <trkpt lat="43.62767" lon="3.83074">
        <ele>87</ele>
        <time>2020-10-17T07:24:28.000Z</time>
      </trkpt>
      <trkpt lat="43.62769" lon="3.83076">
        <ele>87</ele>
        <time>2020-10-17T07:24:29.000Z</time>
      </trkpt>
      <trkpt lat="43.62771" lon="3.83079">
        <ele>87</ele>
        <time>2020-10-17T07:24:30.000Z</time>
      </trkpt>
      <trkpt lat="43.62772" lon="3.83083">
        <ele>87</ele>
        <time>2020-10-17T07:24:31.000Z</time>
      </trkpt>
      <trkpt lat="43.62774" lon="3.83086">
        <ele>87</ele>
        <time>2020-10-17T07:24:32.000Z</time>
      </trkpt>
      <trkpt lat="43.62775" lon="3.83089">
        <ele>87</ele>
        <time>2020-10-17T07:24:33.000Z</time>
      </trkpt>
      <trkpt lat="43.62777" lon="3.83092">
        <ele>87</ele>
        <time>2020-10-17T07:24:34.000Z</time>
      </trkpt>
      <trkpt lat="43.62779" lon="3.83095">
        <ele>87</ele>
        <time>2020-10-17T07:24:35.000Z</time>
      </trkpt>
      <trkpt lat="43.62781" lon="3.83097">
        <ele>87</ele>
        <time>2020-10-17T07:24:36.000Z</time>
      </trkpt>
      <trkpt lat="43.62783" lon="3.83099">
        <ele>87</ele>
        <time>2020-10-17T07:24:37.000Z</time>
      </trkpt>
      <trkpt lat="43.62786" lon="3.83099">
        <ele>87</ele>
        <time>2020-10-17T07:24:38.000Z</time>
      </trkpt>
      <trkpt lat="43.6279" lon="3.83099">
        <ele>87</ele>
        <time>2020-10-17T07:24:39.000Z</time>
      </trkpt>
      <trkpt lat="43.62793" lon="3.83098">
        <ele>87</ele>
        <time>2020-10-17T07:24:40.000Z</time>
      </trkpt>
      <trkpt lat="43.62795" lon="3.83097">
        <ele>87</ele>
        <time>2020-10-17T07:24:41.000Z</time>
      </trkpt>
      <trkpt lat="43.62798" lon="3.83096">
        <ele>87</ele>
        <time>2020-10-17T07:24:42.000Z</time>
      </trkpt>
      <trkpt lat="43.62801" lon="3.83095">
        <ele>87</ele>
        <time>2020-10-17T07:24:43.000Z</time>
      </trkpt>
      <trkpt lat="43.62805" lon="3.83093">
        <ele>87</ele>
        <time>2020-10-17T07:24:44.000Z</time>
      </trkpt>
      <trkpt lat="43.62808" lon="3.83092">
        <ele>87</ele>
        <time>2020-10-17T07:24:45.000Z</time>
      </trkpt>
      <trkpt lat="43.62812" lon="3.83091">
        <ele>87</ele>
        <time>2020-10-17T07:24:46.000Z</time>
      </trkpt>
      <trkpt lat="43.62816" lon="3.8309">
        <ele>87</ele>
        <time>2020-10-17T07:24:47.000Z</time>
      </trkpt>
      <trkpt lat="43.6282" lon="3.83089">
        <ele>87</ele>
        <time>2020-10-17T07:24:48.000Z</time>
      </trkpt>
      <trkpt lat="43.62823" lon="3.83089">
        <ele>87</ele>
        <time>2020-10-17T07:24:49.000Z</time>
      </trkpt>
      <trkpt lat="43.62827" lon="3.83089">
        <ele>87</ele>
        <time>2020-10-17T07:24:50.000Z</time>
      </trkpt>
      <trkpt lat="43.62831" lon="3.83088">
        <ele>87</ele>
        <time>2020-10-17T07:24:51.000Z</time>
      </trkpt>
      <trkpt lat="43.62834" lon="3.83088">
        <ele>87</ele>
        <time>2020-10-17T07:24:52.000Z</time>
      </trkpt>
      <trkpt lat="43.62838" lon="3.83088">
        <ele>87</ele>
        <time>2020-10-17T07:24:53.000Z</time>
      </trkpt>
      <trkpt lat="43.6284" lon="3.83087">
        <ele>87</ele>
        <time>2020-10-17T07:24:54.000Z</time>
      </trkpt>
      <trkpt lat="43.62842" lon="3.83085">
        <ele>87</ele>
        <time>2020-10-17T07:24:55.000Z</time>
      </trkpt>
      <trkpt lat="43.62843" lon="3.83082">
        <ele>87</ele>
        <time>2020-10-17T07:24:56.000Z</time>
      </trkpt>
      <trkpt lat="43.62844" lon="3.83079">
        <ele>87</ele>
        <time>2020-10-17T07:24:57.000Z</time>
      </trkpt>
      <trkpt lat="43.62845" lon="3.83076">
        <ele>87</ele>
        <time>2020-10-17T07:24:58.000Z</time>
      </trkpt>
      <trkpt lat="43.62845" lon="3.83072">
        <ele>87</ele>
        <time>2020-10-17T07:25:00.000Z</time>
      </trkpt>
      <trkpt lat="43.62847" lon="3.8307">
        <ele>86.398057383731</ele>
        <time>2020-10-17T07:25:02.000Z</time>
      </trkpt>
      <trkpt lat="43.62848" lon="3.83066">
        <ele>86.009708110473</ele>
        <time>2020-10-17T07:25:03.000Z</time>
      </trkpt>
      <trkpt lat="43.62847" lon="3.83061">
        <ele>85.621358837214</ele>
        <time>2020-10-17T07:25:04.000Z</time>
      </trkpt>
      <trkpt lat="43.62845" lon="3.83054">
        <ele>85.233009563955</ele>
        <time>2020-10-17T07:25:05.000Z</time>
      </trkpt>
      <trkpt lat="43.62843" lon="3.83048">
        <ele>84.844660290696</ele>
        <time>2020-10-17T07:25:06.000Z</time>
      </trkpt>
      <trkpt lat="43.62841" lon="3.83042">
        <ele>84.456311017438</ele>
        <time>2020-10-17T07:25:07.000Z</time>
      </trkpt>
      <trkpt lat="43.62839" lon="3.83036">
        <ele>84.067961744179</ele>
        <time>2020-10-17T07:25:08.000Z</time>
      </trkpt>
      <trkpt lat="43.62838" lon="3.83029">
        <ele>83.67961247092</ele>
        <time>2020-10-17T07:25:09.000Z</time>
      </trkpt>
      <trkpt lat="43.62838" lon="3.83022">
        <ele>83.291263197662</ele>
        <time>2020-10-17T07:25:10.000Z</time>
      </trkpt>
      <trkpt lat="43.62837" lon="3.83014">
        <ele>82.922681351048</ele>
        <time>2020-10-17T07:25:11.000Z</time>
      </trkpt>
      <trkpt lat="43.62837" lon="3.83005">
        <ele>82.613402796472</ele>
        <time>2020-10-17T07:25:12.000Z</time>
      </trkpt>
      <trkpt lat="43.62837" lon="3.82997">
        <ele>82.304124241896</ele>
        <time>2020-10-17T07:25:13.000Z</time>
      </trkpt>
      <trkpt lat="43.62837" lon="3.82988">
        <ele>81.994845687321</ele>
        <time>2020-10-17T07:25:14.000Z</time>
      </trkpt>
      <trkpt lat="43.62836" lon="3.82979">
        <ele>81.685567132745</ele>
        <time>2020-10-17T07:25:15.000Z</time>
      </trkpt>
      <trkpt lat="43.62834" lon="3.82971">
        <ele>81.37628857817</ele>
        <time>2020-10-17T07:25:16.000Z</time>
      </trkpt>
      <trkpt lat="43.62833" lon="3.82963">
        <ele>81.067010023594</ele>
        <time>2020-10-17T07:25:17.000Z</time>
      </trkpt>
      <trkpt lat="43.62833" lon="3.82955">
        <ele>80.757731469019</ele>
        <time>2020-10-17T07:25:18.000Z</time>
      </trkpt>
      <trkpt lat="43.62834" lon="3.82946">
        <ele>80.448452914443</ele>
        <time>2020-10-17T07:25:19.000Z</time>
      </trkpt>
      <trkpt lat="43.62834" lon="3.82937">
        <ele>80.139174359868</ele>
        <time>2020-10-17T07:25:20.000Z</time>
      </trkpt>
      <trkpt lat="43.62835" lon="3.82928">
        <ele>79.839649162962</ele>
        <time>2020-10-17T07:25:21.000Z</time>
      </trkpt>
      <trkpt lat="43.62836" lon="3.8292">
        <ele>79.548103882792</ele>
        <time>2020-10-17T07:25:22.000Z</time>
      </trkpt>
      <trkpt lat="43.62837" lon="3.82914">
        <ele>79.256558602623</ele>
        <time>2020-10-17T07:25:23.000Z</time>
      </trkpt>
      <trkpt lat="43.62839" lon="3.8291">
        <ele>78.965013322453</ele>
        <time>2020-10-17T07:25:24.000Z</time>
      </trkpt>
      <trkpt lat="43.6284" lon="3.82908">
        <ele>78.673468042284</ele>
        <time>2020-10-17T07:25:25.000Z</time>
      </trkpt>
      <trkpt lat="43.62841" lon="3.82905">
        <ele>78.090377481944</ele>
        <time>2020-10-17T07:25:27.000Z</time>
      </trkpt>
      <trkpt lat="43.62841" lon="3.82902">
        <ele>77.507286921605</ele>
        <time>2020-10-17T07:25:29.000Z</time>
      </trkpt>
      <trkpt lat="43.62841" lon="3.82899">
        <ele>76.946445661315</ele>
        <time>2020-10-17T07:25:31.000Z</time>
      </trkpt>
      <trkpt lat="43.62842" lon="3.82896">
        <ele>76.534499350114</ele>
        <time>2020-10-17T07:25:33.000Z</time>
      </trkpt>
      <trkpt lat="43.62843" lon="3.82892">
        <ele>76.122553038912</ele>
        <time>2020-10-17T07:25:35.000Z</time>
      </trkpt>
      <trkpt lat="43.62844" lon="3.82888">
        <ele>75.91657988331</ele>
        <time>2020-10-17T07:25:36.000Z</time>
      </trkpt>
      <trkpt lat="43.62844" lon="3.82884">
        <ele>75.710606727709</ele>
        <time>2020-10-17T07:25:37.000Z</time>
      </trkpt>
      <trkpt lat="43.62845" lon="3.82879">
        <ele>75.504633572108</ele>
        <time>2020-10-17T07:25:38.000Z</time>
      </trkpt>
      <trkpt lat="43.62846" lon="3.82875">
        <ele>75.298660416507</ele>
        <time>2020-10-17T07:25:39.000Z</time>
      </trkpt>
      <trkpt lat="43.62847" lon="3.8287">
        <ele>75.092687260906</ele>
        <time>2020-10-17T07:25:40.000Z</time>
      </trkpt>
      <trkpt lat="43.62849" lon="3.82867">
        <ele>74.88999936</ele>
        <time>2020-10-17T07:25:41.000Z</time>
      </trkpt>
      <trkpt lat="43.62851" lon="3.82864">
        <ele>74.68999936</ele>
        <time>2020-10-17T07:25:42.000Z</time>
      </trkpt>
      <trkpt lat="43.62853" lon="3.82863">
        <ele>74.48999936</ele>
        <time>2020-10-17T07:25:43.000Z</time>
      </trkpt>
      <trkpt lat="43.62855" lon="3.82862">
        <ele>74.28999936</ele>
        <time>2020-10-17T07:25:44.000Z</time>
      </trkpt>
      <trkpt lat="43.62857" lon="3.82862">
        <ele>74.08999936</ele>
        <time>2020-10-17T07:25:45.000Z</time>
      </trkpt>
      <trkpt lat="43.62859" lon="3.82862">
        <ele>73.88999936</ele>
        <time>2020-10-17T07:25:46.000Z</time>
      </trkpt>
      <trkpt lat="43.62861" lon="3.82862">
        <ele>73.68999936</ele>
        <time>2020-10-17T07:25:47.000Z</time>
      </trkpt>
      <trkpt lat="43.62864" lon="3.82863">
        <ele>73.48999936</ele>
        <time>2020-10-17T07:25:48.000Z</time>
      </trkpt>
      <trkpt lat="43.62866" lon="3.82863">
        <ele>73.28999936</ele>
        <time>2020-10-17T07:25:49.000Z</time>
      </trkpt>
      <trkpt lat="43.62869" lon="3.82863">
        <ele>73.08999936</ele>
        <time>2020-10-17T07:25:50.000Z</time>
      </trkpt>
      <trkpt lat="43.62872" lon="3.82863">
        <ele>72.946601664247</ele>
        <time>2020-10-17T07:25:51.000Z</time>
      </trkpt>
      <trkpt lat="43.62876" lon="3.82864">
        <ele>72.849514345933</ele>
        <time>2020-10-17T07:25:52.000Z</time>
      </trkpt>
      <trkpt lat="43.62879" lon="3.82864">
        <ele>72.752427027618</ele>
        <time>2020-10-17T07:25:53.000Z</time>
      </trkpt>
      <trkpt lat="43.62882" lon="3.82864">
        <ele>72.655339709304</ele>
        <time>2020-10-17T07:25:54.000Z</time>
      </trkpt>
      <trkpt lat="43.62885" lon="3.82864">
        <ele>72.558252390989</ele>
        <time>2020-10-17T07:25:55.000Z</time>
      </trkpt>
      <trkpt lat="43.62888" lon="3.82864">
        <ele>72.461165072674</ele>
        <time>2020-10-17T07:25:56.000Z</time>
      </trkpt>
      <trkpt lat="43.62892" lon="3.82864">
        <ele>72.364077754359</ele>
        <time>2020-10-17T07:25:57.000Z</time>
      </trkpt>
      <trkpt lat="43.62895" lon="3.82864">
        <ele>72.266990436045</ele>
        <time>2020-10-17T07:25:58.000Z</time>
      </trkpt>
      <trkpt lat="43.62899" lon="3.82865">
        <ele>72.16990311773</ele>
        <time>2020-10-17T07:25:59.000Z</time>
      </trkpt>
      <trkpt lat="43.62904" lon="3.82865">
        <ele>72.072815799415</ele>
        <time>2020-10-17T07:26:00.000Z</time>
      </trkpt>
      <trkpt lat="43.62908" lon="3.82865">
        <ele>72</ele>
        <time>2020-10-17T07:26:01.000Z</time>
      </trkpt>
      <trkpt lat="43.62913" lon="3.82866">
        <ele>72</ele>
        <time>2020-10-17T07:26:02.000Z</time>
      </trkpt>
      <trkpt lat="43.62917" lon="3.82866">
        <ele>72</ele>
        <time>2020-10-17T07:26:03.000Z</time>
      </trkpt>
      <trkpt lat="43.62922" lon="3.82866">
        <ele>72</ele>
        <time>2020-10-17T07:26:04.000Z</time>
      </trkpt>
      <trkpt lat="43.62926" lon="3.82866">
        <ele>72</ele>
        <time>2020-10-17T07:26:05.000Z</time>
      </trkpt>
      <trkpt lat="43.6293" lon="3.82866">
        <ele>72</ele>
        <time>2020-10-17T07:26:06.000Z</time>
      </trkpt>
      <trkpt lat="43.62934" lon="3.82866">
        <ele>72</ele>
        <time>2020-10-17T07:26:07.000Z</time>
      </trkpt>
      <trkpt lat="43.62938" lon="3.82866">
        <ele>72</ele>
        <time>2020-10-17T07:26:08.000Z</time>
      </trkpt>
      <trkpt lat="43.62942" lon="3.82866">
        <ele>72</ele>
        <time>2020-10-17T07:26:09.000Z</time>
      </trkpt>
      <trkpt lat="43.62945" lon="3.82867">
        <ele>72</ele>
        <time>2020-10-17T07:26:10.000Z</time>
      </trkpt>
      <trkpt lat="43.62949" lon="3.82867">
        <ele>71.94499968</ele>
        <time>2020-10-17T07:26:11.000Z</time>
      </trkpt>
      <trkpt lat="43.62953" lon="3.82867">
        <ele>71.84499968</ele>
        <time>2020-10-17T07:26:12.000Z</time>
      </trkpt>
      <trkpt lat="43.62956" lon="3.82867">
        <ele>71.74499968</ele>
        <time>2020-10-17T07:26:13.000Z</time>
      </trkpt>
      <trkpt lat="43.6296" lon="3.82867">
        <ele>71.64499968</ele>
        <time>2020-10-17T07:26:14.000Z</time>
      </trkpt>
      <trkpt lat="43.62964" lon="3.82867">
        <ele>71.54499968</ele>
        <time>2020-10-17T07:26:15.000Z</time>
      </trkpt>
      <trkpt lat="43.62968" lon="3.82868">
        <ele>71.44499968</ele>
        <time>2020-10-17T07:26:16.000Z</time>
      </trkpt>
      <trkpt lat="43.62972" lon="3.82868">
        <ele>71.34499968</ele>
        <time>2020-10-17T07:26:17.000Z</time>
      </trkpt>
      <trkpt lat="43.62975" lon="3.82868">
        <ele>71.24499968</ele>
        <time>2020-10-17T07:26:18.000Z</time>
      </trkpt>
      <trkpt lat="43.62979" lon="3.82868">
        <ele>71.14499968</ele>
        <time>2020-10-17T07:26:19.000Z</time>
      </trkpt>
      <trkpt lat="43.62983" lon="3.82869">
        <ele>71.04499968</ele>
        <time>2020-10-17T07:26:20.000Z</time>
      </trkpt>
      <trkpt lat="43.62986" lon="3.82869">
        <ele>71.054945321931</ele>
        <time>2020-10-17T07:26:21.000Z</time>
      </trkpt>
      <trkpt lat="43.6299" lon="3.82869">
        <ele>71.154845326022</ele>
        <time>2020-10-17T07:26:22.000Z</time>
      </trkpt>
      <trkpt lat="43.62993" lon="3.8287">
        <ele>71.254745330114</ele>
        <time>2020-10-17T07:26:23.000Z</time>
      </trkpt>
      <trkpt lat="43.62997" lon="3.82871">
        <ele>71.354645334206</ele>
        <time>2020-10-17T07:26:24.000Z</time>
      </trkpt>
      <trkpt lat="43.63" lon="3.82871">
        <ele>71.454545338298</ele>
        <time>2020-10-17T07:26:25.000Z</time>
      </trkpt>
      <trkpt lat="43.63004" lon="3.82872">
        <ele>71.55444534239</ele>
        <time>2020-10-17T07:26:26.000Z</time>
      </trkpt>
      <trkpt lat="43.63007" lon="3.82873">
        <ele>71.654345346482</ele>
        <time>2020-10-17T07:26:27.000Z</time>
      </trkpt>
      <trkpt lat="43.6301" lon="3.82873">
        <ele>71.754245350574</ele>
        <time>2020-10-17T07:26:28.000Z</time>
      </trkpt>
      <trkpt lat="43.63013" lon="3.82874">
        <ele>71.854145354666</ele>
        <time>2020-10-17T07:26:29.000Z</time>
      </trkpt>
      <trkpt lat="43.63016" lon="3.82875">
        <ele>71.954045358758</ele>
        <time>2020-10-17T07:26:30.000Z</time>
      </trkpt>
      <trkpt lat="43.6302" lon="3.82875">
        <ele>72</ele>
        <time>2020-10-17T07:26:31.000Z</time>
      </trkpt>
      <trkpt lat="43.63023" lon="3.82876">
        <ele>72</ele>
        <time>2020-10-17T07:26:32.000Z</time>
      </trkpt>
      <trkpt lat="43.63026" lon="3.82876">
        <ele>72</ele>
        <time>2020-10-17T07:26:33.000Z</time>
      </trkpt>
      <trkpt lat="43.63029" lon="3.82876">
        <ele>72</ele>
        <time>2020-10-17T07:26:34.000Z</time>
      </trkpt>
      <trkpt lat="43.63032" lon="3.82876">
        <ele>72</ele>
        <time>2020-10-17T07:26:35.000Z</time>
      </trkpt>
      <trkpt lat="43.63035" lon="3.82876">
        <ele>72</ele>
        <time>2020-10-17T07:26:36.000Z</time>
      </trkpt>
      <trkpt lat="43.63038" lon="3.82876">
        <ele>72</ele>
        <time>2020-10-17T07:26:37.000Z</time>
      </trkpt>
      <trkpt lat="43.6304" lon="3.82876">
        <ele>72</ele>
        <time>2020-10-17T07:26:38.000Z</time>
      </trkpt>
      <trkpt lat="43.63043" lon="3.82876">
        <ele>72</ele>
        <time>2020-10-17T07:26:39.000Z</time>
      </trkpt>
      <trkpt lat="43.63046" lon="3.82876">
        <ele>72</ele>
        <time>2020-10-17T07:26:40.000Z</time>
      </trkpt>
      <trkpt lat="43.63048" lon="3.82876">
        <ele>72.05500032</ele>
        <time>2020-10-17T07:26:41.000Z</time>
      </trkpt>
      <trkpt lat="43.63051" lon="3.82876">
        <ele>72.15500032</ele>
        <time>2020-10-17T07:26:42.000Z</time>
      </trkpt>
      <trkpt lat="43.63054" lon="3.82876">
        <ele>72.25500032</ele>
        <time>2020-10-17T07:26:43.000Z</time>
      </trkpt>
      <trkpt lat="43.63056" lon="3.82877">
        <ele>72.35500032</ele>
        <time>2020-10-17T07:26:44.000Z</time>
      </trkpt>
      <trkpt lat="43.63058" lon="3.82879">
        <ele>72.45500032</ele>
        <time>2020-10-17T07:26:45.000Z</time>
      </trkpt>
      <trkpt lat="43.6306" lon="3.82881">
        <ele>72.55500032</ele>
        <time>2020-10-17T07:26:46.000Z</time>
      </trkpt>
      <trkpt lat="43.63062" lon="3.82884">
        <ele>72.65500032</ele>
        <time>2020-10-17T07:26:47.000Z</time>
      </trkpt>
      <trkpt lat="43.63064" lon="3.82886">
        <ele>72.75500032</ele>
        <time>2020-10-17T07:26:48.000Z</time>
      </trkpt>
      <trkpt lat="43.63066" lon="3.82888">
        <ele>72.85500032</ele>
        <time>2020-10-17T07:26:49.000Z</time>
      </trkpt>
      <trkpt lat="43.63068" lon="3.82889">
        <ele>72.95500032</ele>
        <time>2020-10-17T07:26:50.000Z</time>
      </trkpt>
      <trkpt lat="43.63071" lon="3.82888">
        <ele>73</ele>
        <time>2020-10-17T07:26:51.000Z</time>
      </trkpt>
      <trkpt lat="43.63073" lon="3.82887">
        <ele>73</ele>
        <time>2020-10-17T07:26:52.000Z</time>
      </trkpt>
      <trkpt lat="43.63075" lon="3.82885">
        <ele>73</ele>
        <time>2020-10-17T07:26:53.000Z</time>
      </trkpt>
      <trkpt lat="43.63077" lon="3.82883">
        <ele>73</ele>
        <time>2020-10-17T07:26:54.000Z</time>
      </trkpt>
      <trkpt lat="43.63079" lon="3.82881">
        <ele>73</ele>
        <time>2020-10-17T07:26:55.000Z</time>
      </trkpt>
      <trkpt lat="43.63081" lon="3.82879">
        <ele>73</ele>
        <time>2020-10-17T07:26:56.000Z</time>
      </trkpt>
      <trkpt lat="43.63083" lon="3.82876">
        <ele>73</ele>
        <time>2020-10-17T07:26:57.000Z</time>
      </trkpt>
      <trkpt lat="43.63085" lon="3.82874">
        <ele>73</ele>
        <time>2020-10-17T07:26:58.000Z</time>
      </trkpt>
      <trkpt lat="43.63087" lon="3.82872">
        <ele>73</ele>
        <time>2020-10-17T07:26:59.000Z</time>
      </trkpt>
      <trkpt lat="43.63089" lon="3.8287">
        <ele>73</ele>
        <time>2020-10-17T07:27:00.000Z</time>
      </trkpt>
      <trkpt lat="43.63091" lon="3.82869">
        <ele>72.94499968</ele>
        <time>2020-10-17T07:27:01.000Z</time>
      </trkpt>
      <trkpt lat="43.63092" lon="3.82868">
        <ele>72.84499968</ele>
        <time>2020-10-17T07:27:02.000Z</time>
      </trkpt>
      <trkpt lat="43.63094" lon="3.82866">
        <ele>72.74499968</ele>
        <time>2020-10-17T07:27:03.000Z</time>
      </trkpt>
      <trkpt lat="43.63095" lon="3.82864">
        <ele>72.64499968</ele>
        <time>2020-10-17T07:27:04.000Z</time>
      </trkpt>
      <trkpt lat="43.63097" lon="3.82862">
        <ele>72.54499968</ele>
        <time>2020-10-17T07:27:05.000Z</time>
      </trkpt>
      <trkpt lat="43.631" lon="3.8286">
        <ele>72.44499968</ele>
        <time>2020-10-17T07:27:06.000Z</time>
      </trkpt>
      <trkpt lat="43.63102" lon="3.82858">
        <ele>72.34499968</ele>
        <time>2020-10-17T07:27:07.000Z</time>
      </trkpt>
      <trkpt lat="43.63104" lon="3.82855">
        <ele>72.24499968</ele>
        <time>2020-10-17T07:27:08.000Z</time>
      </trkpt>
      <trkpt lat="43.63106" lon="3.82853">
        <ele>72.14499968</ele>
        <time>2020-10-17T07:27:09.000Z</time>
      </trkpt>
      <trkpt lat="43.63108" lon="3.82852">
        <ele>72.04499968</ele>
        <time>2020-10-17T07:27:10.000Z</time>
      </trkpt>
      <trkpt lat="43.6311" lon="3.8285">
        <ele>72.05500032</ele>
        <time>2020-10-17T07:27:11.000Z</time>
      </trkpt>
      <trkpt lat="43.63111" lon="3.82848">
        <ele>72.15500032</ele>
        <time>2020-10-17T07:27:12.000Z</time>
      </trkpt>
      <trkpt lat="43.63113" lon="3.82847">
        <ele>72.25500032</ele>
        <time>2020-10-17T07:27:13.000Z</time>
      </trkpt>
      <trkpt lat="43.63115" lon="3.82847">
        <ele>72.35500032</ele>
        <time>2020-10-17T07:27:14.000Z</time>
      </trkpt>
      <trkpt lat="43.63117" lon="3.82848">
        <ele>72.45500032</ele>
        <time>2020-10-17T07:27:15.000Z</time>
      </trkpt>
      <trkpt lat="43.63118" lon="3.82851">
        <ele>72.55500032</ele>
        <time>2020-10-17T07:27:16.000Z</time>
      </trkpt>
      <trkpt lat="43.63119" lon="3.82854">
        <ele>72.65500032</ele>
        <time>2020-10-17T07:27:17.000Z</time>
      </trkpt>
      <trkpt lat="43.6312" lon="3.82856">
        <ele>72.75500032</ele>
        <time>2020-10-17T07:27:18.000Z</time>
      </trkpt>
      <trkpt lat="43.63121" lon="3.82859">
        <ele>72.85500032</ele>
        <time>2020-10-17T07:27:19.000Z</time>
      </trkpt>
      <trkpt lat="43.63123" lon="3.82861">
        <ele>72.95500032</ele>
        <time>2020-10-17T07:27:20.000Z</time>
      </trkpt>
      <trkpt lat="43.63124" lon="3.82864">
        <ele>73.11000064</ele>
        <time>2020-10-17T07:27:21.000Z</time>
      </trkpt>
      <trkpt lat="43.63125" lon="3.82866">
        <ele>73.31000064</ele>
        <time>2020-10-17T07:27:22.000Z</time>
      </trkpt>
      <trkpt lat="43.63126" lon="3.82869">
        <ele>73.51000064</ele>
        <time>2020-10-17T07:27:23.000Z</time>
      </trkpt>
      <trkpt lat="43.63128" lon="3.82871">
        <ele>73.71000064</ele>
        <time>2020-10-17T07:27:24.000Z</time>
      </trkpt>
      <trkpt lat="43.63129" lon="3.82873">
        <ele>73.91000064</ele>
        <time>2020-10-17T07:27:25.000Z</time>
      </trkpt>
      <trkpt lat="43.6313" lon="3.82876">
        <ele>74.11000064</ele>
        <time>2020-10-17T07:27:26.000Z</time>
      </trkpt>
      <trkpt lat="43.63131" lon="3.82878">
        <ele>74.31000064</ele>
        <time>2020-10-17T07:27:27.000Z</time>
      </trkpt>
      <trkpt lat="43.63133" lon="3.8288">
        <ele>74.51000064</ele>
        <time>2020-10-17T07:27:28.000Z</time>
      </trkpt>
      <trkpt lat="43.63135" lon="3.82882">
        <ele>74.71000064</ele>
        <time>2020-10-17T07:27:29.000Z</time>
      </trkpt>
      <trkpt lat="43.63136" lon="3.82885">
        <ele>74.91000064</ele>
        <time>2020-10-17T07:27:30.000Z</time>
      </trkpt>
      <trkpt lat="43.63138" lon="3.82888">
        <ele>75.05500032</ele>
        <time>2020-10-17T07:27:31.000Z</time>
      </trkpt>
      <trkpt lat="43.63139" lon="3.82891">
        <ele>75.15500032</ele>
        <time>2020-10-17T07:27:32.000Z</time>
      </trkpt>
      <trkpt lat="43.63141" lon="3.82894">
        <ele>75.25500032</ele>
        <time>2020-10-17T07:27:33.000Z</time>
      </trkpt>
      <trkpt lat="43.63142" lon="3.82897">
        <ele>75.35500032</ele>
        <time>2020-10-17T07:27:34.000Z</time>
      </trkpt>
      <trkpt lat="43.63144" lon="3.829">
        <ele>75.45500032</ele>
        <time>2020-10-17T07:27:35.000Z</time>
      </trkpt>
      <trkpt lat="43.63146" lon="3.82903">
        <ele>75.55500032</ele>
        <time>2020-10-17T07:27:36.000Z</time>
      </trkpt>
      <trkpt lat="43.63148" lon="3.82906">
        <ele>75.65500032</ele>
        <time>2020-10-17T07:27:37.000Z</time>
      </trkpt>
      <trkpt lat="43.63149" lon="3.82909">
        <ele>75.75500032</ele>
        <time>2020-10-17T07:27:38.000Z</time>
      </trkpt>
      <trkpt lat="43.63151" lon="3.82912">
        <ele>75.85500032</ele>
        <time>2020-10-17T07:27:39.000Z</time>
      </trkpt>
      <trkpt lat="43.63153" lon="3.82916">
        <ele>75.95500032</ele>
        <time>2020-10-17T07:27:40.000Z</time>
      </trkpt>
      <trkpt lat="43.63154" lon="3.8292">
        <ele>76</ele>
        <time>2020-10-17T07:27:41.000Z</time>
      </trkpt>
      <trkpt lat="43.63156" lon="3.82923">
        <ele>76</ele>
        <time>2020-10-17T07:27:42.000Z</time>
      </trkpt>
      <trkpt lat="43.63157" lon="3.82927">
        <ele>76</ele>
        <time>2020-10-17T07:27:43.000Z</time>
      </trkpt>
      <trkpt lat="43.63158" lon="3.82931">
        <ele>76</ele>
        <time>2020-10-17T07:27:44.000Z</time>
      </trkpt>
      <trkpt lat="43.6316" lon="3.82934">
        <ele>76</ele>
        <time>2020-10-17T07:27:45.000Z</time>
      </trkpt>
      <trkpt lat="43.63161" lon="3.82938">
        <ele>76</ele>
        <time>2020-10-17T07:27:46.000Z</time>
      </trkpt>
      <trkpt lat="43.63163" lon="3.82942">
        <ele>76</ele>
        <time>2020-10-17T07:27:47.000Z</time>
      </trkpt>
      <trkpt lat="43.63164" lon="3.82946">
        <ele>76</ele>
        <time>2020-10-17T07:27:48.000Z</time>
      </trkpt>
      <trkpt lat="43.63165" lon="3.8295">
        <ele>76</ele>
        <time>2020-10-17T07:27:49.000Z</time>
      </trkpt>
      <trkpt lat="43.63166" lon="3.82954">
        <ele>76</ele>
        <time>2020-10-17T07:27:50.000Z</time>
      </trkpt>
      <trkpt lat="43.63167" lon="3.82958">
        <ele>76</ele>
        <time>2020-10-17T07:27:51.000Z</time>
      </trkpt>
      <trkpt lat="43.63168" lon="3.82962">
        <ele>76</ele>
        <time>2020-10-17T07:27:52.000Z</time>
      </trkpt>
      <trkpt lat="43.63169" lon="3.82965">
        <ele>76</ele>
        <time>2020-10-17T07:27:53.000Z</time>
      </trkpt>
      <trkpt lat="43.6317" lon="3.82968">
        <ele>76</ele>
        <time>2020-10-17T07:27:54.000Z</time>
      </trkpt>
      <trkpt lat="43.6317" lon="3.82972">
        <ele>76</ele>
        <time>2020-10-17T07:27:55.000Z</time>
      </trkpt>
      <trkpt lat="43.63171" lon="3.82975">
        <ele>76</ele>
        <time>2020-10-17T07:27:56.000Z</time>
      </trkpt>
      <trkpt lat="43.63173" lon="3.82977">
        <ele>76</ele>
        <time>2020-10-17T07:27:57.000Z</time>
      </trkpt>
      <trkpt lat="43.63175" lon="3.82977">
        <ele>76</ele>
        <time>2020-10-17T07:27:58.000Z</time>
      </trkpt>
      <trkpt lat="43.63177" lon="3.82975">
        <ele>76</ele>
        <time>2020-10-17T07:27:59.000Z</time>
      </trkpt>
      <trkpt lat="43.63179" lon="3.82973">
        <ele>76</ele>
        <time>2020-10-17T07:28:00.000Z</time>
      </trkpt>
      <trkpt lat="43.63181" lon="3.82971">
        <ele>76.051936074958</ele>
        <time>2020-10-17T07:28:01.000Z</time>
      </trkpt>
      <trkpt lat="43.63184" lon="3.82969">
        <ele>76.146364752751</ele>
        <time>2020-10-17T07:28:02.000Z</time>
      </trkpt>
      <trkpt lat="43.63187" lon="3.82966">
        <ele>76.240793430544</ele>
        <time>2020-10-17T07:28:03.000Z</time>
      </trkpt>
      <trkpt lat="43.63189" lon="3.82964">
        <ele>76.335222108337</ele>
        <time>2020-10-17T07:28:04.000Z</time>
      </trkpt>
      <trkpt lat="43.63192" lon="3.82962">
        <ele>76.42965078613</ele>
        <time>2020-10-17T07:28:05.000Z</time>
      </trkpt>
      <trkpt lat="43.63195" lon="3.8296">
        <ele>76.524079463923</ele>
        <time>2020-10-17T07:28:06.000Z</time>
      </trkpt>
      <trkpt lat="43.63198" lon="3.82958">
        <ele>76.618508141716</ele>
        <time>2020-10-17T07:28:07.000Z</time>
      </trkpt>
      <trkpt lat="43.632" lon="3.82955">
        <ele>76.712936819509</ele>
        <time>2020-10-17T07:28:08.000Z</time>
      </trkpt>
      <trkpt lat="43.63203" lon="3.82953">
        <ele>76.807365497302</ele>
        <time>2020-10-17T07:28:09.000Z</time>
      </trkpt>
      <trkpt lat="43.63206" lon="3.82952">
        <ele>76.901794175095</ele>
        <time>2020-10-17T07:28:10.000Z</time>
      </trkpt>
      <trkpt lat="43.63208" lon="3.8295">
        <ele>76.996222852888</ele>
        <time>2020-10-17T07:28:11.000Z</time>
      </trkpt>
      <trkpt lat="43.63209" lon="3.82948">
        <ele>77</ele>
        <time>2020-10-17T07:28:12.000Z</time>
      </trkpt>
      <trkpt lat="43.6321" lon="3.82945">
        <ele>77</ele>
        <time>2020-10-17T07:28:13.000Z</time>
      </trkpt>
      <trkpt lat="43.63209" lon="3.82941">
        <ele>77</ele>
        <time>2020-10-17T07:28:14.000Z</time>
      </trkpt>
      <trkpt lat="43.63209" lon="3.82938">
        <ele>77</ele>
        <time>2020-10-17T07:28:15.000Z</time>
      </trkpt>
      <trkpt lat="43.63207" lon="3.82934">
        <ele>77</ele>
        <time>2020-10-17T07:28:16.000Z</time>
      </trkpt>
      <trkpt lat="43.63206" lon="3.8293">
        <ele>77</ele>
        <time>2020-10-17T07:28:17.000Z</time>
      </trkpt>
      <trkpt lat="43.63205" lon="3.82927">
        <ele>77</ele>
        <time>2020-10-17T07:28:18.000Z</time>
      </trkpt>
      <trkpt lat="43.63203" lon="3.82923">
        <ele>77</ele>
        <time>2020-10-17T07:28:19.000Z</time>
      </trkpt>
      <trkpt lat="43.63202" lon="3.8292">
        <ele>77</ele>
        <time>2020-10-17T07:28:20.000Z</time>
      </trkpt>
      <trkpt lat="43.63201" lon="3.82917">
        <ele>77.051545765968</ele>
        <time>2020-10-17T07:28:21.000Z</time>
      </trkpt>
      <trkpt lat="43.632" lon="3.82913">
        <ele>77.257731469019</ele>
        <time>2020-10-17T07:28:22.000Z</time>
      </trkpt>
      <trkpt lat="43.63199" lon="3.8291">
        <ele>77.463917172069</ele>
        <time>2020-10-17T07:28:23.000Z</time>
      </trkpt>
      <trkpt lat="43.63198" lon="3.82906">
        <ele>77.670102875119</ele>
        <time>2020-10-17T07:28:24.000Z</time>
      </trkpt>
      <trkpt lat="43.63197" lon="3.82903">
        <ele>77.87628857817</ele>
        <time>2020-10-17T07:28:25.000Z</time>
      </trkpt>
      <trkpt lat="43.63196" lon="3.82899">
        <ele>78.08247428122</ele>
        <time>2020-10-17T07:28:26.000Z</time>
      </trkpt>
      <trkpt lat="43.63195" lon="3.82896">
        <ele>78.28865998427</ele>
        <time>2020-10-17T07:28:27.000Z</time>
      </trkpt>
      <trkpt lat="43.63194" lon="3.82893">
        <ele>78.494845687321</ele>
        <time>2020-10-17T07:28:28.000Z</time>
      </trkpt>
      <trkpt lat="43.63193" lon="3.82889">
        <ele>78.701031390371</ele>
        <time>2020-10-17T07:28:29.000Z</time>
      </trkpt>
      <trkpt lat="43.63192" lon="3.82885">
        <ele>78.907217093422</ele>
        <time>2020-10-17T07:28:30.000Z</time>
      </trkpt>
      <trkpt lat="43.63192" lon="3.82882">
        <ele>79.053502256809</ele>
        <time>2020-10-17T07:28:31.000Z</time>
      </trkpt>
      <trkpt lat="43.63191" lon="3.82878">
        <ele>79.150778521401</ele>
        <time>2020-10-17T07:28:32.000Z</time>
      </trkpt>
      <trkpt lat="43.63191" lon="3.82875">
        <ele>79.248054785992</ele>
        <time>2020-10-17T07:28:33.000Z</time>
      </trkpt>
      <trkpt lat="43.6319" lon="3.82872">
        <ele>79.345331050584</ele>
        <time>2020-10-17T07:28:34.000Z</time>
      </trkpt>
      <trkpt lat="43.6319" lon="3.82868">
        <ele>79.442607315175</ele>
        <time>2020-10-17T07:28:35.000Z</time>
      </trkpt>
      <trkpt lat="43.63189" lon="3.82865">
        <ele>79.539883579766</ele>
        <time>2020-10-17T07:28:36.000Z</time>
      </trkpt>
      <trkpt lat="43.63188" lon="3.82861">
        <ele>79.637159844358</ele>
        <time>2020-10-17T07:28:37.000Z</time>
      </trkpt>
      <trkpt lat="43.63188" lon="3.82858">
        <ele>79.734436108949</ele>
        <time>2020-10-17T07:28:38.000Z</time>
      </trkpt>
      <trkpt lat="43.63187" lon="3.82854">
        <ele>79.831712373541</ele>
        <time>2020-10-17T07:28:39.000Z</time>
      </trkpt>
      <trkpt lat="43.63186" lon="3.82851">
        <ele>79.928988638132</ele>
        <time>2020-10-17T07:28:40.000Z</time>
      </trkpt>
      <trkpt lat="43.63185" lon="3.82847">
        <ele>80.027778106996</ele>
        <time>2020-10-17T07:28:41.000Z</time>
      </trkpt>
      <trkpt lat="43.63185" lon="3.82844">
        <ele>80.130658765432</ele>
        <time>2020-10-17T07:28:42.000Z</time>
      </trkpt>
      <trkpt lat="43.63184" lon="3.82841">
        <ele>80.233539423868</ele>
        <time>2020-10-17T07:28:43.000Z</time>
      </trkpt>
      <trkpt lat="43.63183" lon="3.82837">
        <ele>80.336420082304</ele>
        <time>2020-10-17T07:28:44.000Z</time>
      </trkpt>
      <trkpt lat="43.63182" lon="3.82834">
        <ele>80.439300740741</ele>
        <time>2020-10-17T07:28:45.000Z</time>
      </trkpt>
      <trkpt lat="43.63181" lon="3.8283">
        <ele>80.542181399177</ele>
        <time>2020-10-17T07:28:46.000Z</time>
      </trkpt>
      <trkpt lat="43.63181" lon="3.82826">
        <ele>80.645062057613</ele>
        <time>2020-10-17T07:28:47.000Z</time>
      </trkpt>
      <trkpt lat="43.6318" lon="3.82822">
        <ele>80.747942716049</ele>
        <time>2020-10-17T07:28:48.000Z</time>
      </trkpt>
      <trkpt lat="43.63178" lon="3.82819">
        <ele>80.850823374486</ele>
        <time>2020-10-17T07:28:49.000Z</time>
      </trkpt>
      <trkpt lat="43.63177" lon="3.82815">
        <ele>80.953704032922</ele>
        <time>2020-10-17T07:28:50.000Z</time>
      </trkpt>
      <trkpt lat="43.63175" lon="3.82812">
        <ele>81.05500032</ele>
        <time>2020-10-17T07:28:51.000Z</time>
      </trkpt>
      <trkpt lat="43.63175" lon="3.82808">
        <ele>81.15500032</ele>
        <time>2020-10-17T07:28:52.000Z</time>
      </trkpt>
      <trkpt lat="43.63175" lon="3.82805">
        <ele>81.25500032</ele>
        <time>2020-10-17T07:28:53.000Z</time>
      </trkpt>
      <trkpt lat="43.63175" lon="3.82801">
        <ele>81.35500032</ele>
        <time>2020-10-17T07:28:54.000Z</time>
      </trkpt>
      <trkpt lat="43.63174" lon="3.82798">
        <ele>81.45500032</ele>
        <time>2020-10-17T07:28:55.000Z</time>
      </trkpt>
      <trkpt lat="43.63173" lon="3.82794">
        <ele>81.55500032</ele>
        <time>2020-10-17T07:28:56.000Z</time>
      </trkpt>
      <trkpt lat="43.63173" lon="3.82791">
        <ele>81.65500032</ele>
        <time>2020-10-17T07:28:57.000Z</time>
      </trkpt>
      <trkpt lat="43.63174" lon="3.82787">
        <ele>81.75500032</ele>
        <time>2020-10-17T07:28:58.000Z</time>
      </trkpt>
      <trkpt lat="43.63176" lon="3.82785">
        <ele>81.85500032</ele>
        <time>2020-10-17T07:28:59.000Z</time>
      </trkpt>
      <trkpt lat="43.63178" lon="3.82782">
        <ele>81.95500032</ele>
        <time>2020-10-17T07:29:00.000Z</time>
      </trkpt>
      <trkpt lat="43.63179" lon="3.8278">
        <ele>82.054945321931</ele>
        <time>2020-10-17T07:29:01.000Z</time>
      </trkpt>
      <trkpt lat="43.63181" lon="3.82777">
        <ele>82.154845326022</ele>
        <time>2020-10-17T07:29:02.000Z</time>
      </trkpt>
      <trkpt lat="43.63182" lon="3.82774">
        <ele>82.254745330114</ele>
        <time>2020-10-17T07:29:03.000Z</time>
      </trkpt>
      <trkpt lat="43.63184" lon="3.82771">
        <ele>82.354645334206</ele>
        <time>2020-10-17T07:29:04.000Z</time>
      </trkpt>
      <trkpt lat="43.63186" lon="3.82769">
        <ele>82.454545338298</ele>
        <time>2020-10-17T07:29:05.000Z</time>
      </trkpt>
      <trkpt lat="43.63188" lon="3.82766">
        <ele>82.55444534239</ele>
        <time>2020-10-17T07:29:06.000Z</time>
      </trkpt>
      <trkpt lat="43.63189" lon="3.82763">
        <ele>82.654345346482</ele>
        <time>2020-10-17T07:29:07.000Z</time>
      </trkpt>
      <trkpt lat="43.63191" lon="3.8276">
        <ele>82.754245350574</ele>
        <time>2020-10-17T07:29:08.000Z</time>
      </trkpt>
      <trkpt lat="43.63192" lon="3.82757">
        <ele>82.854145354666</ele>
        <time>2020-10-17T07:29:09.000Z</time>
      </trkpt>
      <trkpt lat="43.63193" lon="3.82754">
        <ele>82.954045358758</ele>
        <time>2020-10-17T07:29:10.000Z</time>
      </trkpt>
      <trkpt lat="43.63195" lon="3.82751">
        <ele>83.054053465357</ele>
        <time>2020-10-17T07:29:11.000Z</time>
      </trkpt>
      <trkpt lat="43.63196" lon="3.82748">
        <ele>83.154153661649</ele>
        <time>2020-10-17T07:29:12.000Z</time>
      </trkpt>
      <trkpt lat="43.63197" lon="3.82745">
        <ele>83.254253857942</ele>
        <time>2020-10-17T07:29:13.000Z</time>
      </trkpt>
      <trkpt lat="43.63199" lon="3.82742">
        <ele>83.354354054234</ele>
        <time>2020-10-17T07:29:14.000Z</time>
      </trkpt>
      <trkpt lat="43.632" lon="3.82739">
        <ele>83.454454250527</ele>
        <time>2020-10-17T07:29:15.000Z</time>
      </trkpt>
      <trkpt lat="43.63202" lon="3.82736">
        <ele>83.554554446819</ele>
        <time>2020-10-17T07:29:16.000Z</time>
      </trkpt>
      <trkpt lat="43.63204" lon="3.82734">
        <ele>83.654654643112</ele>
        <time>2020-10-17T07:29:17.000Z</time>
      </trkpt>
      <trkpt lat="43.63205" lon="3.82731">
        <ele>83.754754839404</ele>
        <time>2020-10-17T07:29:18.000Z</time>
      </trkpt>
      <trkpt lat="43.63207" lon="3.82729">
        <ele>83.854855035697</ele>
        <time>2020-10-17T07:29:19.000Z</time>
      </trkpt>
      <trkpt lat="43.63208" lon="3.82726">
        <ele>83.954955231989</ele>
        <time>2020-10-17T07:29:20.000Z</time>
      </trkpt>
      <trkpt lat="43.6321" lon="3.82723">
        <ele>84</ele>
        <time>2020-10-17T07:29:21.000Z</time>
      </trkpt>
      <trkpt lat="43.63212" lon="3.82721">
        <ele>84</ele>
        <time>2020-10-17T07:29:22.000Z</time>
      </trkpt>
      <trkpt lat="43.63213" lon="3.82718">
        <ele>84</ele>
        <time>2020-10-17T07:29:23.000Z</time>
      </trkpt>
      <trkpt lat="43.63215" lon="3.82716">
        <ele>84</ele>
        <time>2020-10-17T07:29:24.000Z</time>
      </trkpt>
      <trkpt lat="43.63217" lon="3.82714">
        <ele>84</ele>
        <time>2020-10-17T07:29:25.000Z</time>
      </trkpt>
      <trkpt lat="43.63219" lon="3.82711">
        <ele>84</ele>
        <time>2020-10-17T07:29:26.000Z</time>
      </trkpt>
      <trkpt lat="43.63221" lon="3.82708">
        <ele>84</ele>
        <time>2020-10-17T07:29:27.000Z</time>
      </trkpt>
      <trkpt lat="43.63223" lon="3.82705">
        <ele>84</ele>
        <time>2020-10-17T07:29:28.000Z</time>
      </trkpt>
      <trkpt lat="43.63224" lon="3.82701">
        <ele>84</ele>
        <time>2020-10-17T07:29:29.000Z</time>
      </trkpt>
      <trkpt lat="43.63226" lon="3.82698">
        <ele>84</ele>
        <time>2020-10-17T07:29:30.000Z</time>
      </trkpt>
      <trkpt lat="43.63227" lon="3.82694">
        <ele>84</ele>
        <time>2020-10-17T07:29:31.000Z</time>
      </trkpt>
      <trkpt lat="43.63229" lon="3.82691">
        <ele>84</ele>
        <time>2020-10-17T07:29:32.000Z</time>
      </trkpt>
      <trkpt lat="43.63231" lon="3.82687">
        <ele>84</ele>
        <time>2020-10-17T07:29:33.000Z</time>
      </trkpt>
      <trkpt lat="43.63233" lon="3.82683">
        <ele>84</ele>
        <time>2020-10-17T07:29:34.000Z</time>
      </trkpt>
      <trkpt lat="43.63235" lon="3.8268">
        <ele>84</ele>
        <time>2020-10-17T07:29:35.000Z</time>
      </trkpt>
      <trkpt lat="43.63237" lon="3.82676">
        <ele>84</ele>
        <time>2020-10-17T07:29:36.000Z</time>
      </trkpt>
      <trkpt lat="43.63239" lon="3.82672">
        <ele>84</ele>
        <time>2020-10-17T07:29:37.000Z</time>
      </trkpt>
      <trkpt lat="43.63242" lon="3.82669">
        <ele>84</ele>
        <time>2020-10-17T07:29:38.000Z</time>
      </trkpt>
      <trkpt lat="43.63245" lon="3.82665">
        <ele>84</ele>
        <time>2020-10-17T07:29:39.000Z</time>
      </trkpt>
      <trkpt lat="43.63248" lon="3.82662">
        <ele>84</ele>
        <time>2020-10-17T07:29:40.000Z</time>
      </trkpt>
      <trkpt lat="43.6325" lon="3.82658">
        <ele>84</ele>
        <time>2020-10-17T07:29:41.000Z</time>
      </trkpt>
      <trkpt lat="43.63254" lon="3.82654">
        <ele>84</ele>
        <time>2020-10-17T07:29:42.000Z</time>
      </trkpt>
      <trkpt lat="43.63257" lon="3.8265">
        <ele>84</ele>
        <time>2020-10-17T07:29:43.000Z</time>
      </trkpt>
      <trkpt lat="43.6326" lon="3.82647">
        <ele>84</ele>
        <time>2020-10-17T07:29:44.000Z</time>
      </trkpt>
      <trkpt lat="43.63263" lon="3.82643">
        <ele>84</ele>
        <time>2020-10-17T07:29:45.000Z</time>
      </trkpt>
      <trkpt lat="43.63267" lon="3.82639">
        <ele>84</ele>
        <time>2020-10-17T07:29:46.000Z</time>
      </trkpt>
      <trkpt lat="43.6327" lon="3.82635">
        <ele>84</ele>
        <time>2020-10-17T07:29:47.000Z</time>
      </trkpt>
      <trkpt lat="43.63274" lon="3.82632">
        <ele>84</ele>
        <time>2020-10-17T07:29:48.000Z</time>
      </trkpt>
      <trkpt lat="43.63277" lon="3.82628">
        <ele>84</ele>
        <time>2020-10-17T07:29:49.000Z</time>
      </trkpt>
      <trkpt lat="43.63281" lon="3.82624">
        <ele>84</ele>
        <time>2020-10-17T07:29:50.000Z</time>
      </trkpt>
      <trkpt lat="43.63284" lon="3.82621">
        <ele>83.94499968</ele>
        <time>2020-10-17T07:29:51.000Z</time>
      </trkpt>
      <trkpt lat="43.63288" lon="3.82617">
        <ele>83.84499968</ele>
        <time>2020-10-17T07:29:52.000Z</time>
      </trkpt>
      <trkpt lat="43.63292" lon="3.82614">
        <ele>83.74499968</ele>
        <time>2020-10-17T07:29:53.000Z</time>
      </trkpt>
      <trkpt lat="43.63295" lon="3.82612">
        <ele>83.64499968</ele>
        <time>2020-10-17T07:29:54.000Z</time>
      </trkpt>
      <trkpt lat="43.63299" lon="3.82609">
        <ele>83.54499968</ele>
        <time>2020-10-17T07:29:55.000Z</time>
      </trkpt>
      <trkpt lat="43.63303" lon="3.82606">
        <ele>83.44499968</ele>
        <time>2020-10-17T07:29:56.000Z</time>
      </trkpt>
      <trkpt lat="43.63306" lon="3.82603">
        <ele>83.34499968</ele>
        <time>2020-10-17T07:29:57.000Z</time>
      </trkpt>
      <trkpt lat="43.63309" lon="3.826">
        <ele>83.24499968</ele>
        <time>2020-10-17T07:29:58.000Z</time>
      </trkpt>
      <trkpt lat="43.63313" lon="3.82597">
        <ele>83.14499968</ele>
        <time>2020-10-17T07:29:59.000Z</time>
      </trkpt>
      <trkpt lat="43.63316" lon="3.82594">
        <ele>83.04499968</ele>
        <time>2020-10-17T07:30:00.000Z</time>
      </trkpt>
      <trkpt lat="43.6332" lon="3.82591">
        <ele>83</ele>
        <time>2020-10-17T07:30:01.000Z</time>
      </trkpt>
      <trkpt lat="43.63323" lon="3.82588">
        <ele>83</ele>
        <time>2020-10-17T07:30:02.000Z</time>
      </trkpt>
      <trkpt lat="43.63327" lon="3.82585">
        <ele>83</ele>
        <time>2020-10-17T07:30:03.000Z</time>
      </trkpt>
      <trkpt lat="43.6333" lon="3.82583">
        <ele>83</ele>
        <time>2020-10-17T07:30:04.000Z</time>
      </trkpt>
      <trkpt lat="43.63334" lon="3.8258">
        <ele>83</ele>
        <time>2020-10-17T07:30:05.000Z</time>
      </trkpt>
      <trkpt lat="43.63338" lon="3.82578">
        <ele>83</ele>
        <time>2020-10-17T07:30:06.000Z</time>
      </trkpt>
      <trkpt lat="43.63341" lon="3.82575">
        <ele>83</ele>
        <time>2020-10-17T07:30:07.000Z</time>
      </trkpt>
      <trkpt lat="43.63345" lon="3.82573">
        <ele>83</ele>
        <time>2020-10-17T07:30:08.000Z</time>
      </trkpt>
      <trkpt lat="43.63349" lon="3.82571">
        <ele>83</ele>
        <time>2020-10-17T07:30:09.000Z</time>
      </trkpt>
      <trkpt lat="43.63353" lon="3.82569">
        <ele>83</ele>
        <time>2020-10-17T07:30:10.000Z</time>
      </trkpt>
      <trkpt lat="43.63356" lon="3.82567">
        <ele>82.94499968</ele>
        <time>2020-10-17T07:30:11.000Z</time>
      </trkpt>
      <trkpt lat="43.6336" lon="3.82565">
        <ele>82.84499968</ele>
        <time>2020-10-17T07:30:12.000Z</time>
      </trkpt>
      <trkpt lat="43.63363" lon="3.82562">
        <ele>82.74499968</ele>
        <time>2020-10-17T07:30:13.000Z</time>
      </trkpt>
      <trkpt lat="43.63367" lon="3.8256">
        <ele>82.64499968</ele>
        <time>2020-10-17T07:30:14.000Z</time>
      </trkpt>
      <trkpt lat="43.63371" lon="3.82559">
        <ele>82.54499968</ele>
        <time>2020-10-17T07:30:15.000Z</time>
      </trkpt>
      <trkpt lat="43.63374" lon="3.82557">
        <ele>82.44499968</ele>
        <time>2020-10-17T07:30:16.000Z</time>
      </trkpt>
      <trkpt lat="43.63378" lon="3.82556">
        <ele>82.34499968</ele>
        <time>2020-10-17T07:30:17.000Z</time>
      </trkpt>
      <trkpt lat="43.63382" lon="3.82555">
        <ele>82.24499968</ele>
        <time>2020-10-17T07:30:18.000Z</time>
      </trkpt>
      <trkpt lat="43.63386" lon="3.82555">
        <ele>82.14499968</ele>
        <time>2020-10-17T07:30:19.000Z</time>
      </trkpt>
      <trkpt lat="43.63389" lon="3.82554">
        <ele>82.04499968</ele>
        <time>2020-10-17T07:30:20.000Z</time>
      </trkpt>
      <trkpt lat="43.63393" lon="3.82554">
        <ele>82.11000064</ele>
        <time>2020-10-17T07:30:21.000Z</time>
      </trkpt>
      <trkpt lat="43.63396" lon="3.82553">
        <ele>82.31000064</ele>
        <time>2020-10-17T07:30:22.000Z</time>
      </trkpt>
      <trkpt lat="43.63399" lon="3.82553">
        <ele>82.51000064</ele>
        <time>2020-10-17T07:30:23.000Z</time>
      </trkpt>
      <trkpt lat="43.63403" lon="3.82552">
        <ele>82.71000064</ele>
        <time>2020-10-17T07:30:24.000Z</time>
      </trkpt>
      <trkpt lat="43.63406" lon="3.82552">
        <ele>82.91000064</ele>
        <time>2020-10-17T07:30:25.000Z</time>
      </trkpt>
      <trkpt lat="43.63409" lon="3.82551">
        <ele>83.11000064</ele>
        <time>2020-10-17T07:30:26.000Z</time>
      </trkpt>
      <trkpt lat="43.63413" lon="3.82551">
        <ele>83.31000064</ele>
        <time>2020-10-17T07:30:27.000Z</time>
      </trkpt>
      <trkpt lat="43.63416" lon="3.8255">
        <ele>83.51000064</ele>
        <time>2020-10-17T07:30:28.000Z</time>
      </trkpt>
      <trkpt lat="43.6342" lon="3.8255">
        <ele>83.71000064</ele>
        <time>2020-10-17T07:30:29.000Z</time>
      </trkpt>
      <trkpt lat="43.63423" lon="3.8255">
        <ele>83.91000064</ele>
        <time>2020-10-17T07:30:30.000Z</time>
      </trkpt>
      <trkpt lat="43.63426" lon="3.82549">
        <ele>84.05500032</ele>
        <time>2020-10-17T07:30:31.000Z</time>
      </trkpt>
      <trkpt lat="43.63429" lon="3.82549">
        <ele>84.15500032</ele>
        <time>2020-10-17T07:30:32.000Z</time>
      </trkpt>
      <trkpt lat="43.63432" lon="3.82548">
        <ele>84.25500032</ele>
        <time>2020-10-17T07:30:33.000Z</time>
      </trkpt>
      <trkpt lat="43.63435" lon="3.82548">
        <ele>84.35500032</ele>
        <time>2020-10-17T07:30:34.000Z</time>
      </trkpt>
      <trkpt lat="43.63438" lon="3.82548">
        <ele>84.45500032</ele>
        <time>2020-10-17T07:30:35.000Z</time>
      </trkpt>
      <trkpt lat="43.63441" lon="3.82547">
        <ele>84.55500032</ele>
        <time>2020-10-17T07:30:36.000Z</time>
      </trkpt>
      <trkpt lat="43.63443" lon="3.82547">
        <ele>84.65500032</ele>
        <time>2020-10-17T07:30:37.000Z</time>
      </trkpt>
      <trkpt lat="43.63446" lon="3.82546">
        <ele>84.75500032</ele>
        <time>2020-10-17T07:30:38.000Z</time>
      </trkpt>
      <trkpt lat="43.63448" lon="3.82546">
        <ele>84.85500032</ele>
        <time>2020-10-17T07:30:39.000Z</time>
      </trkpt>
      <trkpt lat="43.63451" lon="3.82546">
        <ele>84.95500032</ele>
        <time>2020-10-17T07:30:40.000Z</time>
      </trkpt>
      <trkpt lat="43.63454" lon="3.82546">
        <ele>85.11000064</ele>
        <time>2020-10-17T07:30:41.000Z</time>
      </trkpt>
      <trkpt lat="43.63456" lon="3.82545">
        <ele>85.31000064</ele>
        <time>2020-10-17T07:30:42.000Z</time>
      </trkpt>
      <trkpt lat="43.63459" lon="3.82546">
        <ele>85.51000064</ele>
        <time>2020-10-17T07:30:43.000Z</time>
      </trkpt>
      <trkpt lat="43.63462" lon="3.82545">
        <ele>85.71000064</ele>
        <time>2020-10-17T07:30:44.000Z</time>
      </trkpt>
      <trkpt lat="43.63465" lon="3.82545">
        <ele>85.91000064</ele>
        <time>2020-10-17T07:30:45.000Z</time>
      </trkpt>
      <trkpt lat="43.63467" lon="3.82545">
        <ele>86.11000064</ele>
        <time>2020-10-17T07:30:46.000Z</time>
      </trkpt>
      <trkpt lat="43.6347" lon="3.82545">
        <ele>86.31000064</ele>
        <time>2020-10-17T07:30:47.000Z</time>
      </trkpt>
      <trkpt lat="43.63473" lon="3.82545">
        <ele>86.51000064</ele>
        <time>2020-10-17T07:30:48.000Z</time>
      </trkpt>
      <trkpt lat="43.63476" lon="3.82545">
        <ele>86.71000064</ele>
        <time>2020-10-17T07:30:49.000Z</time>
      </trkpt>
      <trkpt lat="43.63479" lon="3.82545">
        <ele>86.91000064</ele>
        <time>2020-10-17T07:30:50.000Z</time>
      </trkpt>
      <trkpt lat="43.63481" lon="3.82545">
        <ele>87.053398335753</ele>
        <time>2020-10-17T07:30:51.000Z</time>
      </trkpt>
      <trkpt lat="43.63484" lon="3.82545">
        <ele>87.150485654067</ele>
        <time>2020-10-17T07:30:52.000Z</time>
      </trkpt>
      <trkpt lat="43.63487" lon="3.82544">
        <ele>87.247572972382</ele>
        <time>2020-10-17T07:30:53.000Z</time>
      </trkpt>
      <trkpt lat="43.6349" lon="3.82544">
        <ele>87.344660290696</ele>
        <time>2020-10-17T07:30:54.000Z</time>
      </trkpt>
      <trkpt lat="43.63492" lon="3.82544">
        <ele>87.441747609011</ele>
        <time>2020-10-17T07:30:55.000Z</time>
      </trkpt>
      <trkpt lat="43.63495" lon="3.82543">
        <ele>87.538834927326</ele>
        <time>2020-10-17T07:30:56.000Z</time>
      </trkpt>
      <trkpt lat="43.63498" lon="3.82543">
        <ele>87.635922245641</ele>
        <time>2020-10-17T07:30:57.000Z</time>
      </trkpt>
      <trkpt lat="43.63501" lon="3.82542">
        <ele>87.733009563955</ele>
        <time>2020-10-17T07:30:58.000Z</time>
      </trkpt>
      <trkpt lat="43.63503" lon="3.82542">
        <ele>87.83009688227</ele>
        <time>2020-10-17T07:30:59.000Z</time>
      </trkpt>
      <trkpt lat="43.63506" lon="3.82541">
        <ele>87.927184200585</ele>
        <time>2020-10-17T07:31:00.000Z</time>
      </trkpt>
      <trkpt lat="43.63508" lon="3.8254">
        <ele>88.051551072012</ele>
        <time>2020-10-17T07:31:01.000Z</time>
      </trkpt>
      <trkpt lat="43.63511" lon="3.82539">
        <ele>88.257757999509</ele>
        <time>2020-10-17T07:31:02.000Z</time>
      </trkpt>
      <trkpt lat="43.63513" lon="3.82538">
        <ele>88.463964927006</ele>
        <time>2020-10-17T07:31:03.000Z</time>
      </trkpt>
      <trkpt lat="43.63515" lon="3.82538">
        <ele>88.670171854503</ele>
        <time>2020-10-17T07:31:04.000Z</time>
      </trkpt>
      <trkpt lat="43.63518" lon="3.82538">
        <ele>88.876378782</ele>
        <time>2020-10-17T07:31:05.000Z</time>
      </trkpt>
      <trkpt lat="43.6352" lon="3.82537">
        <ele>89.082585709497</ele>
        <time>2020-10-17T07:31:06.000Z</time>
      </trkpt>
      <trkpt lat="43.63522" lon="3.82537">
        <ele>89.288792636994</ele>
        <time>2020-10-17T07:31:07.000Z</time>
      </trkpt>
      <trkpt lat="43.63526" lon="3.82536">
        <ele>89.701206491988</ele>
        <time>2020-10-17T07:31:09.000Z</time>
      </trkpt>
      <trkpt lat="43.63529" lon="3.82536">
        <ele>90.05510016</ele>
        <time>2020-10-17T07:31:11.000Z</time>
      </trkpt>
      <trkpt lat="43.63531" lon="3.82535">
        <ele>90.15510016</ele>
        <time>2020-10-17T07:31:12.000Z</time>
      </trkpt>
      <trkpt lat="43.63533" lon="3.82535">
        <ele>90.25510016</ele>
        <time>2020-10-17T07:31:13.000Z</time>
      </trkpt>
      <trkpt lat="43.63536" lon="3.82534">
        <ele>90.35510016</ele>
        <time>2020-10-17T07:31:14.000Z</time>
      </trkpt>
      <trkpt lat="43.63538" lon="3.82534">
        <ele>90.45510016</ele>
        <time>2020-10-17T07:31:15.000Z</time>
      </trkpt>
      <trkpt lat="43.63541" lon="3.82533">
        <ele>90.55510016</ele>
        <time>2020-10-17T07:31:16.000Z</time>
      </trkpt>
      <trkpt lat="43.63544" lon="3.82533">
        <ele>90.65510016</ele>
        <time>2020-10-17T07:31:17.000Z</time>
      </trkpt>
      <trkpt lat="43.63547" lon="3.82533">
        <ele>90.75510016</ele>
        <time>2020-10-17T07:31:18.000Z</time>
      </trkpt>
      <trkpt lat="43.6355" lon="3.82532">
        <ele>90.85510016</ele>
        <time>2020-10-17T07:31:19.000Z</time>
      </trkpt>
      <trkpt lat="43.63552" lon="3.8253">
        <ele>90.95510016</ele>
        <time>2020-10-17T07:31:20.000Z</time>
      </trkpt>
      <trkpt lat="43.63555" lon="3.82528">
        <ele>91</ele>
        <time>2020-10-17T07:31:21.000Z</time>
      </trkpt>
      <trkpt lat="43.63558" lon="3.82525">
        <ele>91</ele>
        <time>2020-10-17T07:31:22.000Z</time>
      </trkpt>
      <trkpt lat="43.6356" lon="3.82523">
        <ele>91</ele>
        <time>2020-10-17T07:31:23.000Z</time>
      </trkpt>
      <trkpt lat="43.63563" lon="3.82521">
        <ele>91</ele>
        <time>2020-10-17T07:31:24.000Z</time>
      </trkpt>
      <trkpt lat="43.63565" lon="3.82519">
        <ele>91</ele>
        <time>2020-10-17T07:31:25.000Z</time>
      </trkpt>
      <trkpt lat="43.63568" lon="3.82517">
        <ele>91</ele>
        <time>2020-10-17T07:31:26.000Z</time>
      </trkpt>
      <trkpt lat="43.63571" lon="3.82515">
        <ele>91</ele>
        <time>2020-10-17T07:31:27.000Z</time>
      </trkpt>
      <trkpt lat="43.63573" lon="3.82515">
        <ele>91</ele>
        <time>2020-10-17T07:31:28.000Z</time>
      </trkpt>
      <trkpt lat="43.63576" lon="3.82518">
        <ele>91</ele>
        <time>2020-10-17T07:31:29.000Z</time>
      </trkpt>
      <trkpt lat="43.63577" lon="3.82521">
        <ele>91</ele>
        <time>2020-10-17T07:31:30.000Z</time>
      </trkpt>
      <trkpt lat="43.63578" lon="3.82526">
        <ele>91</ele>
        <time>2020-10-17T07:31:31.000Z</time>
      </trkpt>
      <trkpt lat="43.63578" lon="3.8253">
        <ele>91</ele>
        <time>2020-10-17T07:31:32.000Z</time>
      </trkpt>
      <trkpt lat="43.63579" lon="3.82535">
        <ele>91</ele>
        <time>2020-10-17T07:31:33.000Z</time>
      </trkpt>
      <trkpt lat="43.6358" lon="3.8254">
        <ele>91</ele>
        <time>2020-10-17T07:31:34.000Z</time>
      </trkpt>
      <trkpt lat="43.63581" lon="3.82546">
        <ele>91</ele>
        <time>2020-10-17T07:31:35.000Z</time>
      </trkpt>
      <trkpt lat="43.63582" lon="3.82551">
        <ele>91</ele>
        <time>2020-10-17T07:31:36.000Z</time>
      </trkpt>
      <trkpt lat="43.63583" lon="3.82557">
        <ele>91</ele>
        <time>2020-10-17T07:31:37.000Z</time>
      </trkpt>
      <trkpt lat="43.63584" lon="3.82562">
        <ele>91</ele>
        <time>2020-10-17T07:31:38.000Z</time>
      </trkpt>
      <trkpt lat="43.63585" lon="3.82568">
        <ele>91</ele>
        <time>2020-10-17T07:31:39.000Z</time>
      </trkpt>
      <trkpt lat="43.63586" lon="3.82574">
        <ele>91</ele>
        <time>2020-10-17T07:31:40.000Z</time>
      </trkpt>
      <trkpt lat="43.63587" lon="3.82579">
        <ele>91.053594172332</ele>
        <time>2020-10-17T07:31:41.000Z</time>
      </trkpt>
      <trkpt lat="43.63588" lon="3.82584">
        <ele>91.15086099031</ele>
        <time>2020-10-17T07:31:42.000Z</time>
      </trkpt>
      <trkpt lat="43.63588" lon="3.82589">
        <ele>91.248127808288</ele>
        <time>2020-10-17T07:31:43.000Z</time>
      </trkpt>
      <trkpt lat="43.63589" lon="3.82594">
        <ele>91.345394626265</ele>
        <time>2020-10-17T07:31:44.000Z</time>
      </trkpt>
      <trkpt lat="43.6359" lon="3.82598">
        <ele>91.442661444243</ele>
        <time>2020-10-17T07:31:45.000Z</time>
      </trkpt>
      <trkpt lat="43.63591" lon="3.82603">
        <ele>91.53992826222</ele>
        <time>2020-10-17T07:31:46.000Z</time>
      </trkpt>
      <trkpt lat="43.63591" lon="3.82608">
        <ele>91.637195080198</ele>
        <time>2020-10-17T07:31:47.000Z</time>
      </trkpt>
      <trkpt lat="43.63592" lon="3.82613">
        <ele>91.734461898175</ele>
        <time>2020-10-17T07:31:48.000Z</time>
      </trkpt>
      <trkpt lat="43.63593" lon="3.82618">
        <ele>91.831728716153</ele>
        <time>2020-10-17T07:31:49.000Z</time>
      </trkpt>
      <trkpt lat="43.63594" lon="3.82624">
        <ele>91.92899553413</ele>
        <time>2020-10-17T07:31:50.000Z</time>
      </trkpt>
      <trkpt lat="43.63595" lon="3.82629">
        <ele>91.94484103948</ele>
        <time>2020-10-17T07:31:51.000Z</time>
      </trkpt>
      <trkpt lat="43.63597" lon="3.82634">
        <ele>91.740551014324</ele>
        <time>2020-10-17T07:31:52.000Z</time>
      </trkpt>
      <trkpt lat="43.63599" lon="3.82638">
        <ele>91.536260989169</ele>
        <time>2020-10-17T07:31:53.000Z</time>
      </trkpt>
      <trkpt lat="43.63604" lon="3.8264">
        <ele>91.331970964014</ele>
        <time>2020-10-17T07:31:54.000Z</time>
      </trkpt>
      <trkpt lat="43.63609" lon="3.82643">
        <ele>91.127680938858</ele>
        <time>2020-10-17T07:31:55.000Z</time>
      </trkpt>
      <trkpt lat="43.63614" lon="3.82647">
        <ele>90.923390913703</ele>
        <time>2020-10-17T07:31:56.000Z</time>
      </trkpt>
      <trkpt lat="43.63618" lon="3.82652">
        <ele>90.719100888547</ele>
        <time>2020-10-17T07:31:57.000Z</time>
      </trkpt>
      <trkpt lat="43.63621" lon="3.82658">
        <ele>90.514810863392</ele>
        <time>2020-10-17T07:31:58.000Z</time>
      </trkpt>
      <trkpt lat="43.63624" lon="3.82665">
        <ele>90.310520838236</ele>
        <time>2020-10-17T07:31:59.000Z</time>
      </trkpt>
      <trkpt lat="43.63626" lon="3.82673">
        <ele>90.106230813081</ele>
        <time>2020-10-17T07:32:00.000Z</time>
      </trkpt>
      <trkpt lat="43.63629" lon="3.82679">
        <ele>89.80664646337</ele>
        <time>2020-10-17T07:32:01.000Z</time>
      </trkpt>
      <trkpt lat="43.63633" lon="3.82684">
        <ele>89.403826595392</ele>
        <time>2020-10-17T07:32:02.000Z</time>
      </trkpt>
      <trkpt lat="43.63635" lon="3.82691">
        <ele>89.001006727414</ele>
        <time>2020-10-17T07:32:03.000Z</time>
      </trkpt>
      <trkpt lat="43.63635" lon="3.827">
        <ele>88.598186859436</ele>
        <time>2020-10-17T07:32:04.000Z</time>
      </trkpt>
      <trkpt lat="43.63634" lon="3.82709">
        <ele>88.195366991458</ele>
        <time>2020-10-17T07:32:05.000Z</time>
      </trkpt>
      <trkpt lat="43.63634" lon="3.82719">
        <ele>87.792547123479</ele>
        <time>2020-10-17T07:32:06.000Z</time>
      </trkpt>
      <trkpt lat="43.63634" lon="3.8273">
        <ele>87.389727255501</ele>
        <time>2020-10-17T07:32:07.000Z</time>
      </trkpt>
      <trkpt lat="43.63633" lon="3.82741">
        <ele>86.986907387523</ele>
        <time>2020-10-17T07:32:08.000Z</time>
      </trkpt>
      <trkpt lat="43.63633" lon="3.82751">
        <ele>86.584087519545</ele>
        <time>2020-10-17T07:32:09.000Z</time>
      </trkpt>
      <trkpt lat="43.63633" lon="3.82758">
        <ele>86.181267651567</ele>
        <time>2020-10-17T07:32:10.000Z</time>
      </trkpt>
      <trkpt lat="43.63633" lon="3.82762">
        <ele>85.94499968</ele>
        <time>2020-10-17T07:32:11.000Z</time>
      </trkpt>
      <trkpt lat="43.63633" lon="3.82765">
        <ele>85.84499968</ele>
        <time>2020-10-17T07:32:12.000Z</time>
      </trkpt>
      <trkpt lat="43.63634" lon="3.82768">
        <ele>85.74499968</ele>
        <time>2020-10-17T07:32:13.000Z</time>
      </trkpt>
      <trkpt lat="43.63636" lon="3.82769">
        <ele>85.54499968</ele>
        <time>2020-10-17T07:32:15.000Z</time>
      </trkpt>
      <trkpt lat="43.6364" lon="3.82768">
        <ele>85.34499968</ele>
        <time>2020-10-17T07:32:17.000Z</time>
      </trkpt>
      <trkpt lat="43.63642" lon="3.82768">
        <ele>85.24499968</ele>
        <time>2020-10-17T07:32:18.000Z</time>
      </trkpt>
      <trkpt lat="43.63644" lon="3.82767">
        <ele>85.14499968</ele>
        <time>2020-10-17T07:32:19.000Z</time>
      </trkpt>
      <trkpt lat="43.63646" lon="3.82768">
        <ele>85.04499968</ele>
        <time>2020-10-17T07:32:20.000Z</time>
      </trkpt>
      <trkpt lat="43.63649" lon="3.82771">
        <ele>84.94499968</ele>
        <time>2020-10-17T07:32:21.000Z</time>
      </trkpt>
      <trkpt lat="43.63652" lon="3.82772">
        <ele>84.84499968</ele>
        <time>2020-10-17T07:32:22.000Z</time>
      </trkpt>
      <trkpt lat="43.63656" lon="3.82773">
        <ele>84.74499968</ele>
        <time>2020-10-17T07:32:23.000Z</time>
      </trkpt>
      <trkpt lat="43.63659" lon="3.82772">
        <ele>84.64499968</ele>
        <time>2020-10-17T07:32:24.000Z</time>
      </trkpt>
      <trkpt lat="43.63663" lon="3.82771">
        <ele>84.54499968</ele>
        <time>2020-10-17T07:32:25.000Z</time>
      </trkpt>
      <trkpt lat="43.63667" lon="3.82769">
        <ele>84.44499968</ele>
        <time>2020-10-17T07:32:26.000Z</time>
      </trkpt>
      <trkpt lat="43.6367" lon="3.82768">
        <ele>84.34499968</ele>
        <time>2020-10-17T07:32:27.000Z</time>
      </trkpt>
      <trkpt lat="43.63673" lon="3.82767">
        <ele>84.24499968</ele>
        <time>2020-10-17T07:32:28.000Z</time>
      </trkpt>
      <trkpt lat="43.63676" lon="3.82766">
        <ele>84.14499968</ele>
        <time>2020-10-17T07:32:29.000Z</time>
      </trkpt>
      <trkpt lat="43.63679" lon="3.82766">
        <ele>84.04499968</ele>
        <time>2020-10-17T07:32:30.000Z</time>
      </trkpt>
      <trkpt lat="43.63682" lon="3.82765">
        <ele>84</ele>
        <time>2020-10-17T07:32:31.000Z</time>
      </trkpt>
      <trkpt lat="43.63686" lon="3.82764">
        <ele>84</ele>
        <time>2020-10-17T07:32:32.000Z</time>
      </trkpt>
      <trkpt lat="43.63689" lon="3.82763">
        <ele>84</ele>
        <time>2020-10-17T07:32:33.000Z</time>
      </trkpt>
      <trkpt lat="43.63692" lon="3.82763">
        <ele>84</ele>
        <time>2020-10-17T07:32:34.000Z</time>
      </trkpt>
      <trkpt lat="43.63696" lon="3.82762">
        <ele>84</ele>
        <time>2020-10-17T07:32:35.000Z</time>
      </trkpt>
      <trkpt lat="43.63699" lon="3.82762">
        <ele>84</ele>
        <time>2020-10-17T07:32:36.000Z</time>
      </trkpt>
      <trkpt lat="43.63702" lon="3.82761">
        <ele>84</ele>
        <time>2020-10-17T07:32:37.000Z</time>
      </trkpt>
      <trkpt lat="43.63705" lon="3.8276">
        <ele>84</ele>
        <time>2020-10-17T07:32:38.000Z</time>
      </trkpt>
      <trkpt lat="43.63709" lon="3.82759">
        <ele>84</ele>
        <time>2020-10-17T07:32:39.000Z</time>
      </trkpt>
      <trkpt lat="43.63713" lon="3.82758">
        <ele>84</ele>
        <time>2020-10-17T07:32:40.000Z</time>
      </trkpt>
      <trkpt lat="43.63716" lon="3.82758">
        <ele>84</ele>
        <time>2020-10-17T07:32:41.000Z</time>
      </trkpt>
      <trkpt lat="43.6372" lon="3.82757">
        <ele>84</ele>
        <time>2020-10-17T07:32:42.000Z</time>
      </trkpt>
      <trkpt lat="43.63723" lon="3.82756">
        <ele>84</ele>
        <time>2020-10-17T07:32:43.000Z</time>
      </trkpt>
      <trkpt lat="43.63726" lon="3.82755">
        <ele>84</ele>
        <time>2020-10-17T07:32:44.000Z</time>
      </trkpt>
      <trkpt lat="43.6373" lon="3.82754">
        <ele>84</ele>
        <time>2020-10-17T07:32:45.000Z</time>
      </trkpt>
      <trkpt lat="43.63733" lon="3.82753">
        <ele>84</ele>
        <time>2020-10-17T07:32:46.000Z</time>
      </trkpt>
      <trkpt lat="43.63736" lon="3.82752">
        <ele>84</ele>
        <time>2020-10-17T07:32:47.000Z</time>
      </trkpt>
      <trkpt lat="43.63739" lon="3.82751">
        <ele>84</ele>
        <time>2020-10-17T07:32:48.000Z</time>
      </trkpt>
      <trkpt lat="43.63743" lon="3.8275">
        <ele>84</ele>
        <time>2020-10-17T07:32:49.000Z</time>
      </trkpt>
      <trkpt lat="43.63746" lon="3.82749">
        <ele>84</ele>
        <time>2020-10-17T07:32:50.000Z</time>
      </trkpt>
      <trkpt lat="43.63749" lon="3.82749">
        <ele>84</ele>
        <time>2020-10-17T07:32:51.000Z</time>
      </trkpt>
      <trkpt lat="43.63753" lon="3.82749">
        <ele>84</ele>
        <time>2020-10-17T07:32:52.000Z</time>
      </trkpt>
      <trkpt lat="43.63756" lon="3.82748">
        <ele>84</ele>
        <time>2020-10-17T07:32:53.000Z</time>
      </trkpt>
      <trkpt lat="43.6376" lon="3.82747">
        <ele>84</ele>
        <time>2020-10-17T07:32:54.000Z</time>
      </trkpt>
      <trkpt lat="43.63764" lon="3.82747">
        <ele>84</ele>
        <time>2020-10-17T07:32:55.000Z</time>
      </trkpt>
      <trkpt lat="43.63768" lon="3.82747">
        <ele>84</ele>
        <time>2020-10-17T07:32:56.000Z</time>
      </trkpt>
      <trkpt lat="43.63772" lon="3.82747">
        <ele>84</ele>
        <time>2020-10-17T07:32:57.000Z</time>
      </trkpt>
      <trkpt lat="43.63776" lon="3.82748">
        <ele>84</ele>
        <time>2020-10-17T07:32:58.000Z</time>
      </trkpt>
      <trkpt lat="43.6378" lon="3.82748">
        <ele>84</ele>
        <time>2020-10-17T07:32:59.000Z</time>
      </trkpt>
      <trkpt lat="43.63784" lon="3.82748">
        <ele>84</ele>
        <time>2020-10-17T07:33:00.000Z</time>
      </trkpt>
      <trkpt lat="43.63788" lon="3.82747">
        <ele>84</ele>
        <time>2020-10-17T07:33:01.000Z</time>
      </trkpt>
      <trkpt lat="43.63791" lon="3.82745">
        <ele>84</ele>
        <time>2020-10-17T07:33:02.000Z</time>
      </trkpt>
      <trkpt lat="43.63795" lon="3.82743">
        <ele>84</ele>
        <time>2020-10-17T07:33:03.000Z</time>
      </trkpt>
      <trkpt lat="43.63799" lon="3.82741">
        <ele>84</ele>
        <time>2020-10-17T07:33:04.000Z</time>
      </trkpt>
      <trkpt lat="43.63803" lon="3.82739">
        <ele>84</ele>
        <time>2020-10-17T07:33:05.000Z</time>
      </trkpt>
      <trkpt lat="43.63807" lon="3.82737">
        <ele>84</ele>
        <time>2020-10-17T07:33:06.000Z</time>
      </trkpt>
      <trkpt lat="43.63811" lon="3.82734">
        <ele>84</ele>
        <time>2020-10-17T07:33:07.000Z</time>
      </trkpt>
      <trkpt lat="43.63815" lon="3.82732">
        <ele>84</ele>
        <time>2020-10-17T07:33:08.000Z</time>
      </trkpt>
      <trkpt lat="43.63819" lon="3.8273">
        <ele>84</ele>
        <time>2020-10-17T07:33:09.000Z</time>
      </trkpt>
      <trkpt lat="43.63822" lon="3.82728">
        <ele>84</ele>
        <time>2020-10-17T07:33:10.000Z</time>
      </trkpt>
      <trkpt lat="43.63826" lon="3.82726">
        <ele>84.05500032</ele>
        <time>2020-10-17T07:33:11.000Z</time>
      </trkpt>
      <trkpt lat="43.6383" lon="3.82725">
        <ele>84.15500032</ele>
        <time>2020-10-17T07:33:12.000Z</time>
      </trkpt>
      <trkpt lat="43.63834" lon="3.82723">
        <ele>84.25500032</ele>
        <time>2020-10-17T07:33:13.000Z</time>
      </trkpt>
      <trkpt lat="43.63837" lon="3.82722">
        <ele>84.35500032</ele>
        <time>2020-10-17T07:33:14.000Z</time>
      </trkpt>
      <trkpt lat="43.6384" lon="3.82721">
        <ele>84.45500032</ele>
        <time>2020-10-17T07:33:15.000Z</time>
      </trkpt>
      <trkpt lat="43.63844" lon="3.8272">
        <ele>84.55500032</ele>
        <time>2020-10-17T07:33:16.000Z</time>
      </trkpt>
      <trkpt lat="43.63847" lon="3.82719">
        <ele>84.65500032</ele>
        <time>2020-10-17T07:33:17.000Z</time>
      </trkpt>
      <trkpt lat="43.6385" lon="3.82718">
        <ele>84.75500032</ele>
        <time>2020-10-17T07:33:18.000Z</time>
      </trkpt>
      <trkpt lat="43.63853" lon="3.82717">
        <ele>84.85500032</ele>
        <time>2020-10-17T07:33:19.000Z</time>
      </trkpt>
      <trkpt lat="43.63856" lon="3.82715">
        <ele>84.95500032</ele>
        <time>2020-10-17T07:33:20.000Z</time>
      </trkpt>
      <trkpt lat="43.63859" lon="3.82714">
        <ele>85.05500032</ele>
        <time>2020-10-17T07:33:21.000Z</time>
      </trkpt>
      <trkpt lat="43.63861" lon="3.82713">
        <ele>85.15500032</ele>
        <time>2020-10-17T07:33:22.000Z</time>
      </trkpt>
      <trkpt lat="43.63864" lon="3.82713">
        <ele>85.25500032</ele>
        <time>2020-10-17T07:33:23.000Z</time>
      </trkpt>
      <trkpt lat="43.63867" lon="3.82713">
        <ele>85.35500032</ele>
        <time>2020-10-17T07:33:24.000Z</time>
      </trkpt>
      <trkpt lat="43.63869" lon="3.82715">
        <ele>85.45500032</ele>
        <time>2020-10-17T07:33:25.000Z</time>
      </trkpt>
      <trkpt lat="43.63872" lon="3.82717">
        <ele>85.55500032</ele>
        <time>2020-10-17T07:33:26.000Z</time>
      </trkpt>
      <trkpt lat="43.63874" lon="3.8272">
        <ele>85.65500032</ele>
        <time>2020-10-17T07:33:27.000Z</time>
      </trkpt>
      <trkpt lat="43.63875" lon="3.82724">
        <ele>85.75500032</ele>
        <time>2020-10-17T07:33:28.000Z</time>
      </trkpt>
      <trkpt lat="43.63876" lon="3.82728">
        <ele>85.85500032</ele>
        <time>2020-10-17T07:33:29.000Z</time>
      </trkpt>
      <trkpt lat="43.63878" lon="3.82732">
        <ele>85.95500032</ele>
        <time>2020-10-17T07:33:30.000Z</time>
      </trkpt>
      <trkpt lat="43.63879" lon="3.82736">
        <ele>85.94499968</ele>
        <time>2020-10-17T07:33:31.000Z</time>
      </trkpt>
      <trkpt lat="43.6388" lon="3.8274">
        <ele>85.84499968</ele>
        <time>2020-10-17T07:33:32.000Z</time>
      </trkpt>
      <trkpt lat="43.63882" lon="3.82743">
        <ele>85.74499968</ele>
        <time>2020-10-17T07:33:33.000Z</time>
      </trkpt>
      <trkpt lat="43.63884" lon="3.82745">
        <ele>85.64499968</ele>
        <time>2020-10-17T07:33:34.000Z</time>
      </trkpt>
      <trkpt lat="43.63887" lon="3.82746">
        <ele>85.54499968</ele>
        <time>2020-10-17T07:33:35.000Z</time>
      </trkpt>
      <trkpt lat="43.63891" lon="3.82747">
        <ele>85.44499968</ele>
        <time>2020-10-17T07:33:36.000Z</time>
      </trkpt>
      <trkpt lat="43.63895" lon="3.82751">
        <ele>85.34499968</ele>
        <time>2020-10-17T07:33:37.000Z</time>
      </trkpt>
      <trkpt lat="43.63899" lon="3.82756">
        <ele>85.24499968</ele>
        <time>2020-10-17T07:33:38.000Z</time>
      </trkpt>
      <trkpt lat="43.63902" lon="3.82763">
        <ele>85.14499968</ele>
        <time>2020-10-17T07:33:39.000Z</time>
      </trkpt>
      <trkpt lat="43.63904" lon="3.8277">
        <ele>85.04499968</ele>
        <time>2020-10-17T07:33:40.000Z</time>
      </trkpt>
      <trkpt lat="43.63907" lon="3.82778">
        <ele>84.94499968</ele>
        <time>2020-10-17T07:33:41.000Z</time>
      </trkpt>
      <trkpt lat="43.63909" lon="3.82785">
        <ele>84.84499968</ele>
        <time>2020-10-17T07:33:42.000Z</time>
      </trkpt>
      <trkpt lat="43.63912" lon="3.82793">
        <ele>84.74499968</ele>
        <time>2020-10-17T07:33:43.000Z</time>
      </trkpt>
      <trkpt lat="43.63916" lon="3.828">
        <ele>84.64499968</ele>
        <time>2020-10-17T07:33:44.000Z</time>
      </trkpt>
      <trkpt lat="43.6392" lon="3.82806">
        <ele>84.54499968</ele>
        <time>2020-10-17T07:33:45.000Z</time>
      </trkpt>
      <trkpt lat="43.63923" lon="3.82813">
        <ele>84.44499968</ele>
        <time>2020-10-17T07:33:46.000Z</time>
      </trkpt>
      <trkpt lat="43.63927" lon="3.8282">
        <ele>84.34499968</ele>
        <time>2020-10-17T07:33:47.000Z</time>
      </trkpt>
      <trkpt lat="43.6393" lon="3.82824">
        <ele>84.24499968</ele>
        <time>2020-10-17T07:33:48.000Z</time>
      </trkpt>
      <trkpt lat="43.63933" lon="3.82825">
        <ele>84.14499968</ele>
        <time>2020-10-17T07:33:49.000Z</time>
      </trkpt>
      <trkpt lat="43.63937" lon="3.82825">
        <ele>84.04499968</ele>
        <time>2020-10-17T07:33:50.000Z</time>
      </trkpt>
      <trkpt lat="43.63941" lon="3.82824">
        <ele>83.94499968</ele>
        <time>2020-10-17T07:33:51.000Z</time>
      </trkpt>
      <trkpt lat="43.63945" lon="3.82822">
        <ele>83.84499968</ele>
        <time>2020-10-17T07:33:52.000Z</time>
      </trkpt>
      <trkpt lat="43.63949" lon="3.82819">
        <ele>83.74499968</ele>
        <time>2020-10-17T07:33:53.000Z</time>
      </trkpt>
      <trkpt lat="43.63952" lon="3.82817">
        <ele>83.64499968</ele>
        <time>2020-10-17T07:33:54.000Z</time>
      </trkpt>
      <trkpt lat="43.63955" lon="3.82815">
        <ele>83.54499968</ele>
        <time>2020-10-17T07:33:55.000Z</time>
      </trkpt>
      <trkpt lat="43.63958" lon="3.82813">
        <ele>83.44499968</ele>
        <time>2020-10-17T07:33:56.000Z</time>
      </trkpt>
      <trkpt lat="43.6396" lon="3.82812">
        <ele>83.34499968</ele>
        <time>2020-10-17T07:33:57.000Z</time>
      </trkpt>
      <trkpt lat="43.63961" lon="3.82809">
        <ele>83.24499968</ele>
        <time>2020-10-17T07:33:58.000Z</time>
      </trkpt>
      <trkpt lat="43.63963" lon="3.82807">
        <ele>83.14499968</ele>
        <time>2020-10-17T07:33:59.000Z</time>
      </trkpt>
      <trkpt lat="43.63964" lon="3.82806">
        <ele>83.04499968</ele>
        <time>2020-10-17T07:34:00.000Z</time>
      </trkpt>
      <trkpt lat="43.63967" lon="3.82804">
        <ele>83</ele>
        <time>2020-10-17T07:34:02.000Z</time>
      </trkpt>
      <trkpt lat="43.63969" lon="3.82802">
        <ele>83</ele>
        <time>2020-10-17T07:34:03.000Z</time>
      </trkpt>
      <trkpt lat="43.63972" lon="3.82799">
        <ele>83</ele>
        <time>2020-10-17T07:34:05.000Z</time>
      </trkpt>
      <trkpt lat="43.63974" lon="3.82795">
        <ele>83</ele>
        <time>2020-10-17T07:34:07.000Z</time>
      </trkpt>
      <trkpt lat="43.63975" lon="3.82792">
        <ele>83</ele>
        <time>2020-10-17T07:34:09.000Z</time>
      </trkpt>
      <trkpt lat="43.63978" lon="3.82794">
        <ele>83</ele>
        <time>2020-10-17T07:34:11.000Z</time>
      </trkpt>
      <trkpt lat="43.63978" lon="3.82798">
        <ele>83</ele>
        <time>2020-10-17T07:34:13.000Z</time>
      </trkpt>
      <trkpt lat="43.63975" lon="3.82799">
        <ele>83</ele>
        <time>2020-10-17T07:34:15.000Z</time>
      </trkpt>
      <trkpt lat="43.63975" lon="3.82795">
        <ele>83</ele>
        <time>2020-10-17T07:34:17.000Z</time>
      </trkpt>
      <trkpt lat="43.63976" lon="3.82793">
        <ele>83</ele>
        <time>2020-10-17T07:34:18.000Z</time>
      </trkpt>
      <trkpt lat="43.63979" lon="3.82793">
        <ele>83</ele>
        <time>2020-10-17T07:34:19.000Z</time>
      </trkpt>
      <trkpt lat="43.63981" lon="3.82794">
        <ele>83</ele>
        <time>2020-10-17T07:34:20.000Z</time>
      </trkpt>
      <trkpt lat="43.63984" lon="3.82795">
        <ele>83.05500032</ele>
        <time>2020-10-17T07:34:21.000Z</time>
      </trkpt>
      <trkpt lat="43.63987" lon="3.82795">
        <ele>83.15500032</ele>
        <time>2020-10-17T07:34:22.000Z</time>
      </trkpt>
      <trkpt lat="43.63991" lon="3.82795">
        <ele>83.25500032</ele>
        <time>2020-10-17T07:34:23.000Z</time>
      </trkpt>
      <trkpt lat="43.63994" lon="3.82794">
        <ele>83.35500032</ele>
        <time>2020-10-17T07:34:24.000Z</time>
      </trkpt>
      <trkpt lat="43.63998" lon="3.82794">
        <ele>83.45500032</ele>
        <time>2020-10-17T07:34:25.000Z</time>
      </trkpt>
      <trkpt lat="43.64001" lon="3.82794">
        <ele>83.55500032</ele>
        <time>2020-10-17T07:34:26.000Z</time>
      </trkpt>
      <trkpt lat="43.64004" lon="3.82793">
        <ele>83.65500032</ele>
        <time>2020-10-17T07:34:27.000Z</time>
      </trkpt>
      <trkpt lat="43.64008" lon="3.82793">
        <ele>83.75500032</ele>
        <time>2020-10-17T07:34:28.000Z</time>
      </trkpt>
      <trkpt lat="43.64011" lon="3.82792">
        <ele>83.85500032</ele>
        <time>2020-10-17T07:34:29.000Z</time>
      </trkpt>
      <trkpt lat="43.64014" lon="3.8279">
        <ele>83.95500032</ele>
        <time>2020-10-17T07:34:30.000Z</time>
      </trkpt>
      <trkpt lat="43.64016" lon="3.82787">
        <ele>84.05500032</ele>
        <time>2020-10-17T07:34:31.000Z</time>
      </trkpt>
      <trkpt lat="43.64017" lon="3.82783">
        <ele>84.15500032</ele>
        <time>2020-10-17T07:34:32.000Z</time>
      </trkpt>
      <trkpt lat="43.64018" lon="3.82779">
        <ele>84.25500032</ele>
        <time>2020-10-17T07:34:33.000Z</time>
      </trkpt>
      <trkpt lat="43.64019" lon="3.82775">
        <ele>84.35500032</ele>
        <time>2020-10-17T07:34:34.000Z</time>
      </trkpt>
      <trkpt lat="43.64021" lon="3.82772">
        <ele>84.45500032</ele>
        <time>2020-10-17T07:34:35.000Z</time>
      </trkpt>
      <trkpt lat="43.64023" lon="3.82769">
        <ele>84.55500032</ele>
        <time>2020-10-17T07:34:36.000Z</time>
      </trkpt>
      <trkpt lat="43.64025" lon="3.82765">
        <ele>84.65500032</ele>
        <time>2020-10-17T07:34:37.000Z</time>
      </trkpt>
      <trkpt lat="43.64027" lon="3.82762">
        <ele>84.75500032</ele>
        <time>2020-10-17T07:34:38.000Z</time>
      </trkpt>
      <trkpt lat="43.64028" lon="3.82759">
        <ele>84.85500032</ele>
        <time>2020-10-17T07:34:39.000Z</time>
      </trkpt>
      <trkpt lat="43.6403" lon="3.82756">
        <ele>84.95500032</ele>
        <time>2020-10-17T07:34:40.000Z</time>
      </trkpt>
      <trkpt lat="43.64031" lon="3.82753">
        <ele>85.05500032</ele>
        <time>2020-10-17T07:34:41.000Z</time>
      </trkpt>
      <trkpt lat="43.64032" lon="3.8275">
        <ele>85.15500032</ele>
        <time>2020-10-17T07:34:42.000Z</time>
      </trkpt>
      <trkpt lat="43.64033" lon="3.82747">
        <ele>85.25500032</ele>
        <time>2020-10-17T07:34:43.000Z</time>
      </trkpt>
      <trkpt lat="43.64034" lon="3.82745">
        <ele>85.35500032</ele>
        <time>2020-10-17T07:34:44.000Z</time>
      </trkpt>
      <trkpt lat="43.64035" lon="3.82742">
        <ele>85.45500032</ele>
        <time>2020-10-17T07:34:45.000Z</time>
      </trkpt>
      <trkpt lat="43.64036" lon="3.8274">
        <ele>85.55500032</ele>
        <time>2020-10-17T07:34:46.000Z</time>
      </trkpt>
      <trkpt lat="43.64037" lon="3.82737">
        <ele>85.65500032</ele>
        <time>2020-10-17T07:34:47.000Z</time>
      </trkpt>
      <trkpt lat="43.64038" lon="3.82735">
        <ele>85.75500032</ele>
        <time>2020-10-17T07:34:48.000Z</time>
      </trkpt>
      <trkpt lat="43.64039" lon="3.82733">
        <ele>85.85500032</ele>
        <time>2020-10-17T07:34:49.000Z</time>
      </trkpt>
      <trkpt lat="43.64041" lon="3.8273">
        <ele>85.95500032</ele>
        <time>2020-10-17T07:34:50.000Z</time>
      </trkpt>
      <trkpt lat="43.64042" lon="3.82728">
        <ele>86.103872149916</ele>
        <time>2020-10-17T07:34:51.000Z</time>
      </trkpt>
      <trkpt lat="43.64043" lon="3.82726">
        <ele>86.292729505502</ele>
        <time>2020-10-17T07:34:52.000Z</time>
      </trkpt>
      <trkpt lat="43.64044" lon="3.82724">
        <ele>86.481586861088</ele>
        <time>2020-10-17T07:34:53.000Z</time>
      </trkpt>
      <trkpt lat="43.64045" lon="3.82722">
        <ele>86.670444216674</ele>
        <time>2020-10-17T07:34:54.000Z</time>
      </trkpt>
      <trkpt lat="43.64046" lon="3.82719">
        <ele>86.85930157226</ele>
        <time>2020-10-17T07:34:55.000Z</time>
      </trkpt>
      <trkpt lat="43.64048" lon="3.82717">
        <ele>87.048158927846</ele>
        <time>2020-10-17T07:34:56.000Z</time>
      </trkpt>
      <trkpt lat="43.64049" lon="3.82715">
        <ele>87.237016283432</ele>
        <time>2020-10-17T07:34:57.000Z</time>
      </trkpt>
      <trkpt lat="43.6405" lon="3.82713">
        <ele>87.425873639018</ele>
        <time>2020-10-17T07:34:58.000Z</time>
      </trkpt>
      <trkpt lat="43.64051" lon="3.8271">
        <ele>87.614730994604</ele>
        <time>2020-10-17T07:34:59.000Z</time>
      </trkpt>
      <trkpt lat="43.64053" lon="3.82708">
        <ele>87.80358835019</ele>
        <time>2020-10-17T07:35:00.000Z</time>
      </trkpt>
      <trkpt lat="43.64054" lon="3.82705">
        <ele>87.992445705777</ele>
        <time>2020-10-17T07:35:01.000Z</time>
      </trkpt>
      <trkpt lat="43.64055" lon="3.82703">
        <ele>88.100628998326</ele>
        <time>2020-10-17T07:35:02.000Z</time>
      </trkpt>
      <trkpt lat="43.64057" lon="3.82701">
        <ele>88.205450871581</ele>
        <time>2020-10-17T07:35:03.000Z</time>
      </trkpt>
      <trkpt lat="43.64058" lon="3.82698">
        <ele>88.310272744837</ele>
        <time>2020-10-17T07:35:04.000Z</time>
      </trkpt>
      <trkpt lat="43.64058" lon="3.82696">
        <ele>88.415094618093</ele>
        <time>2020-10-17T07:35:05.000Z</time>
      </trkpt>
      <trkpt lat="43.64059" lon="3.82693">
        <ele>88.519916491349</ele>
        <time>2020-10-17T07:35:06.000Z</time>
      </trkpt>
      <trkpt lat="43.64059" lon="3.8269">
        <ele>88.624738364604</ele>
        <time>2020-10-17T07:35:07.000Z</time>
      </trkpt>
      <trkpt lat="43.64059" lon="3.82688">
        <ele>88.72956023786</ele>
        <time>2020-10-17T07:35:08.000Z</time>
      </trkpt>
      <trkpt lat="43.6406" lon="3.82685">
        <ele>88.834382111116</ele>
        <time>2020-10-17T07:35:09.000Z</time>
      </trkpt>
      <trkpt lat="43.64061" lon="3.82682">
        <ele>88.939203984372</ele>
        <time>2020-10-17T07:35:10.000Z</time>
      </trkpt>
      <trkpt lat="43.64061" lon="3.82679">
        <ele>89.085107652245</ele>
        <time>2020-10-17T07:35:11.000Z</time>
      </trkpt>
      <trkpt lat="43.64062" lon="3.82677">
        <ele>89.287741831735</ele>
        <time>2020-10-17T07:35:12.000Z</time>
      </trkpt>
      <trkpt lat="43.64064" lon="3.82674">
        <ele>89.490376011226</ele>
        <time>2020-10-17T07:35:13.000Z</time>
      </trkpt>
      <trkpt lat="43.64065" lon="3.82672">
        <ele>89.693010190716</ele>
        <time>2020-10-17T07:35:14.000Z</time>
      </trkpt>
      <trkpt lat="43.64066" lon="3.8267">
        <ele>89.895644370206</ele>
        <time>2020-10-17T07:35:15.000Z</time>
      </trkpt>
      <trkpt lat="43.64067" lon="3.82667">
        <ele>90.098278549697</ele>
        <time>2020-10-17T07:35:16.000Z</time>
      </trkpt>
      <trkpt lat="43.64069" lon="3.82664">
        <ele>90.300912729187</ele>
        <time>2020-10-17T07:35:17.000Z</time>
      </trkpt>
      <trkpt lat="43.6407" lon="3.82662">
        <ele>90.503546908678</ele>
        <time>2020-10-17T07:35:18.000Z</time>
      </trkpt>
      <trkpt lat="43.64071" lon="3.82659">
        <ele>90.706181088168</ele>
        <time>2020-10-17T07:35:19.000Z</time>
      </trkpt>
      <trkpt lat="43.64072" lon="3.82657">
        <ele>90.908815267659</ele>
        <time>2020-10-17T07:35:20.000Z</time>
      </trkpt>
      <trkpt lat="43.64073" lon="3.82655">
        <ele>91.05500032</ele>
        <time>2020-10-17T07:35:21.000Z</time>
      </trkpt>
      <trkpt lat="43.64075" lon="3.82653">
        <ele>91.15500032</ele>
        <time>2020-10-17T07:35:22.000Z</time>
      </trkpt>
      <trkpt lat="43.64076" lon="3.8265">
        <ele>91.25500032</ele>
        <time>2020-10-17T07:35:23.000Z</time>
      </trkpt>
      <trkpt lat="43.64077" lon="3.82648">
        <ele>91.35500032</ele>
        <time>2020-10-17T07:35:24.000Z</time>
      </trkpt>
      <trkpt lat="43.64078" lon="3.82645">
        <ele>91.45500032</ele>
        <time>2020-10-17T07:35:25.000Z</time>
      </trkpt>
      <trkpt lat="43.64078" lon="3.82643">
        <ele>91.55500032</ele>
        <time>2020-10-17T07:35:26.000Z</time>
      </trkpt>
      <trkpt lat="43.64079" lon="3.8264">
        <ele>91.65500032</ele>
        <time>2020-10-17T07:35:27.000Z</time>
      </trkpt>
      <trkpt lat="43.6408" lon="3.82638">
        <ele>91.75500032</ele>
        <time>2020-10-17T07:35:28.000Z</time>
      </trkpt>
      <trkpt lat="43.64081" lon="3.82633">
        <ele>91.95500032</ele>
        <time>2020-10-17T07:35:30.000Z</time>
      </trkpt>
      <trkpt lat="43.64081" lon="3.82631">
        <ele>92.11000064</ele>
        <time>2020-10-17T07:35:31.000Z</time>
      </trkpt>
      <trkpt lat="43.64081" lon="3.82628">
        <ele>92.31000064</ele>
        <time>2020-10-17T07:35:32.000Z</time>
      </trkpt>
      <trkpt lat="43.64081" lon="3.82626">
        <ele>92.51000064</ele>
        <time>2020-10-17T07:35:33.000Z</time>
      </trkpt>
      <trkpt lat="43.64082" lon="3.82623">
        <ele>92.71000064</ele>
        <time>2020-10-17T07:35:34.000Z</time>
      </trkpt>
      <trkpt lat="43.64082" lon="3.8262">
        <ele>92.91000064</ele>
        <time>2020-10-17T07:35:35.000Z</time>
      </trkpt>
      <trkpt lat="43.64083" lon="3.82617">
        <ele>93.11000064</ele>
        <time>2020-10-17T07:35:36.000Z</time>
      </trkpt>
      <trkpt lat="43.64083" lon="3.82613">
        <ele>93.31000064</ele>
        <time>2020-10-17T07:35:37.000Z</time>
      </trkpt>
      <trkpt lat="43.64084" lon="3.8261">
        <ele>93.51000064</ele>
        <time>2020-10-17T07:35:38.000Z</time>
      </trkpt>
      <trkpt lat="43.64085" lon="3.82607">
        <ele>93.71000064</ele>
        <time>2020-10-17T07:35:39.000Z</time>
      </trkpt>
      <trkpt lat="43.64086" lon="3.82604">
        <ele>93.91000064</ele>
        <time>2020-10-17T07:35:40.000Z</time>
      </trkpt>
      <trkpt lat="43.64087" lon="3.82602">
        <ele>94.05500032</ele>
        <time>2020-10-17T07:35:41.000Z</time>
      </trkpt>
      <trkpt lat="43.64088" lon="3.82599">
        <ele>94.15500032</ele>
        <time>2020-10-17T07:35:42.000Z</time>
      </trkpt>
      <trkpt lat="43.6409" lon="3.82596">
        <ele>94.25500032</ele>
        <time>2020-10-17T07:35:43.000Z</time>
      </trkpt>
      <trkpt lat="43.64091" lon="3.82593">
        <ele>94.35500032</ele>
        <time>2020-10-17T07:35:44.000Z</time>
      </trkpt>
      <trkpt lat="43.64091" lon="3.8259">
        <ele>94.45500032</ele>
        <time>2020-10-17T07:35:45.000Z</time>
      </trkpt>
      <trkpt lat="43.64092" lon="3.82588">
        <ele>94.55500032</ele>
        <time>2020-10-17T07:35:46.000Z</time>
      </trkpt>
      <trkpt lat="43.64093" lon="3.82585">
        <ele>94.65500032</ele>
        <time>2020-10-17T07:35:47.000Z</time>
      </trkpt>
      <trkpt lat="43.64094" lon="3.82582">
        <ele>94.75500032</ele>
        <time>2020-10-17T07:35:48.000Z</time>
      </trkpt>
      <trkpt lat="43.64095" lon="3.8258">
        <ele>94.85500032</ele>
        <time>2020-10-17T07:35:49.000Z</time>
      </trkpt>
      <trkpt lat="43.64097" lon="3.82578">
        <ele>94.95500032</ele>
        <time>2020-10-17T07:35:50.000Z</time>
      </trkpt>
      <trkpt lat="43.64098" lon="3.82576">
        <ele>95.11000064</ele>
        <time>2020-10-17T07:35:51.000Z</time>
      </trkpt>
      <trkpt lat="43.64099" lon="3.82573">
        <ele>95.31000064</ele>
        <time>2020-10-17T07:35:52.000Z</time>
      </trkpt>
      <trkpt lat="43.64099" lon="3.8257">
        <ele>95.51000064</ele>
        <time>2020-10-17T07:35:53.000Z</time>
      </trkpt>
      <trkpt lat="43.641" lon="3.82568">
        <ele>95.71000064</ele>
        <time>2020-10-17T07:35:54.000Z</time>
      </trkpt>
      <trkpt lat="43.64101" lon="3.82565">
        <ele>95.91000064</ele>
        <time>2020-10-17T07:35:55.000Z</time>
      </trkpt>
      <trkpt lat="43.64102" lon="3.82563">
        <ele>96.11000064</ele>
        <time>2020-10-17T07:35:56.000Z</time>
      </trkpt>
      <trkpt lat="43.64103" lon="3.8256">
        <ele>96.31000064</ele>
        <time>2020-10-17T07:35:57.000Z</time>
      </trkpt>
      <trkpt lat="43.64105" lon="3.82558">
        <ele>96.51000064</ele>
        <time>2020-10-17T07:35:58.000Z</time>
      </trkpt>
      <trkpt lat="43.64106" lon="3.82556">
        <ele>96.71000064</ele>
        <time>2020-10-17T07:35:59.000Z</time>
      </trkpt>
      <trkpt lat="43.64106" lon="3.82553">
        <ele>96.91000064</ele>
        <time>2020-10-17T07:36:00.000Z</time>
      </trkpt>
      <trkpt lat="43.64107" lon="3.8255">
        <ele>97.05500032</ele>
        <time>2020-10-17T07:36:01.000Z</time>
      </trkpt>
      <trkpt lat="43.64107" lon="3.82548">
        <ele>97.15500032</ele>
        <time>2020-10-17T07:36:02.000Z</time>
      </trkpt>
      <trkpt lat="43.64107" lon="3.82545">
        <ele>97.25500032</ele>
        <time>2020-10-17T07:36:03.000Z</time>
      </trkpt>
      <trkpt lat="43.64108" lon="3.82543">
        <ele>97.35500032</ele>
        <time>2020-10-17T07:36:04.000Z</time>
      </trkpt>
      <trkpt lat="43.64109" lon="3.8254">
        <ele>97.45500032</ele>
        <time>2020-10-17T07:36:05.000Z</time>
      </trkpt>
      <trkpt lat="43.6411" lon="3.82535">
        <ele>97.65500032</ele>
        <time>2020-10-17T07:36:07.000Z</time>
      </trkpt>
      <trkpt lat="43.64111" lon="3.82533">
        <ele>97.75500032</ele>
        <time>2020-10-17T07:36:08.000Z</time>
      </trkpt>
      <trkpt lat="43.64112" lon="3.82531">
        <ele>97.85500032</ele>
        <time>2020-10-17T07:36:09.000Z</time>
      </trkpt>
      <trkpt lat="43.64114" lon="3.82527">
        <ele>98.05500032</ele>
        <time>2020-10-17T07:36:11.000Z</time>
      </trkpt>
      <trkpt lat="43.64116" lon="3.82523">
        <ele>98.25500032</ele>
        <time>2020-10-17T07:36:13.000Z</time>
      </trkpt>
      <trkpt lat="43.64117" lon="3.8252">
        <ele>98.35500032</ele>
        <time>2020-10-17T07:36:14.000Z</time>
      </trkpt>
      <trkpt lat="43.64118" lon="3.82518">
        <ele>98.45500032</ele>
        <time>2020-10-17T07:36:15.000Z</time>
      </trkpt>
      <trkpt lat="43.64119" lon="3.82515">
        <ele>98.55500032</ele>
        <time>2020-10-17T07:36:16.000Z</time>
      </trkpt>
      <trkpt lat="43.6412" lon="3.82513">
        <ele>98.65500032</ele>
        <time>2020-10-17T07:36:17.000Z</time>
      </trkpt>
      <trkpt lat="43.64121" lon="3.82512">
        <ele>98.75500032</ele>
        <time>2020-10-17T07:36:18.000Z</time>
      </trkpt>
      <trkpt lat="43.64123" lon="3.82508">
        <ele>98.95500032</ele>
        <time>2020-10-17T07:36:20.000Z</time>
      </trkpt>
      <trkpt lat="43.64125" lon="3.82504">
        <ele>99</ele>
        <time>2020-10-17T07:36:22.000Z</time>
      </trkpt>
      <trkpt lat="43.64127" lon="3.82502">
        <ele>99</ele>
        <time>2020-10-17T07:36:23.000Z</time>
      </trkpt>
      <trkpt lat="43.64129" lon="3.82499">
        <ele>99</ele>
        <time>2020-10-17T07:36:24.000Z</time>
      </trkpt>
      <trkpt lat="43.64131" lon="3.82497">
        <ele>99</ele>
        <time>2020-10-17T07:36:25.000Z</time>
      </trkpt>
      <trkpt lat="43.64132" lon="3.82494">
        <ele>99</ele>
        <time>2020-10-17T07:36:26.000Z</time>
      </trkpt>
      <trkpt lat="43.64133" lon="3.82492">
        <ele>99</ele>
        <time>2020-10-17T07:36:27.000Z</time>
      </trkpt>
      <trkpt lat="43.64134" lon="3.8249">
        <ele>99</ele>
        <time>2020-10-17T07:36:28.000Z</time>
      </trkpt>
      <trkpt lat="43.64135" lon="3.82487">
        <ele>99</ele>
        <time>2020-10-17T07:36:29.000Z</time>
      </trkpt>
      <trkpt lat="43.64135" lon="3.82485">
        <ele>99</ele>
        <time>2020-10-17T07:36:30.000Z</time>
      </trkpt>
      <trkpt lat="43.64136" lon="3.8248">
        <ele>99.15500032</ele>
        <time>2020-10-17T07:36:32.000Z</time>
      </trkpt>
      <trkpt lat="43.64137" lon="3.82475">
        <ele>99.35500032</ele>
        <time>2020-10-17T07:36:34.000Z</time>
      </trkpt>
      <trkpt lat="43.64138" lon="3.82473">
        <ele>99.45500032</ele>
        <time>2020-10-17T07:36:35.000Z</time>
      </trkpt>
      <trkpt lat="43.64139" lon="3.8247">
        <ele>99.55500032</ele>
        <time>2020-10-17T07:36:36.000Z</time>
      </trkpt>
      <trkpt lat="43.6414" lon="3.82468">
        <ele>99.65500032</ele>
        <time>2020-10-17T07:36:37.000Z</time>
      </trkpt>
      <trkpt lat="43.64142" lon="3.82466">
        <ele>99.75500032</ele>
        <time>2020-10-17T07:36:38.000Z</time>
      </trkpt>
      <trkpt lat="43.64143" lon="3.82463">
        <ele>99.85500032</ele>
        <time>2020-10-17T07:36:39.000Z</time>
      </trkpt>
      <trkpt lat="43.64144" lon="3.8246">
        <ele>99.95500032</ele>
        <time>2020-10-17T07:36:40.000Z</time>
      </trkpt>
      <trkpt lat="43.64145" lon="3.82457">
        <ele>100.11000064</ele>
        <time>2020-10-17T07:36:41.000Z</time>
      </trkpt>
      <trkpt lat="43.64145" lon="3.82455">
        <ele>100.31000064</ele>
        <time>2020-10-17T07:36:42.000Z</time>
      </trkpt>
      <trkpt lat="43.64146" lon="3.82452">
        <ele>100.51000064</ele>
        <time>2020-10-17T07:36:43.000Z</time>
      </trkpt>
      <trkpt lat="43.64146" lon="3.82449">
        <ele>100.71000064</ele>
        <time>2020-10-17T07:36:44.000Z</time>
      </trkpt>
      <trkpt lat="43.64145" lon="3.82446">
        <ele>100.91000064</ele>
        <time>2020-10-17T07:36:45.000Z</time>
      </trkpt>
      <trkpt lat="43.64145" lon="3.82444">
        <ele>101.11000064</ele>
        <time>2020-10-17T07:36:46.000Z</time>
      </trkpt>
      <trkpt lat="43.64146" lon="3.82441">
        <ele>101.31000064</ele>
        <time>2020-10-17T07:36:47.000Z</time>
      </trkpt>
      <trkpt lat="43.64146" lon="3.82438">
        <ele>101.51000064</ele>
        <time>2020-10-17T07:36:48.000Z</time>
      </trkpt>
      <trkpt lat="43.64147" lon="3.82436">
        <ele>101.71000064</ele>
        <time>2020-10-17T07:36:49.000Z</time>
      </trkpt>
      <trkpt lat="43.64149" lon="3.82434">
        <ele>101.91000064</ele>
        <time>2020-10-17T07:36:50.000Z</time>
      </trkpt>
      <trkpt lat="43.6415" lon="3.82432">
        <ele>102.05500032</ele>
        <time>2020-10-17T07:36:51.000Z</time>
      </trkpt>
      <trkpt lat="43.6415" lon="3.82427">
        <ele>102.25500032</ele>
        <time>2020-10-17T07:36:53.000Z</time>
      </trkpt>
      <trkpt lat="43.64149" lon="3.82424">
        <ele>102.35500032</ele>
        <time>2020-10-17T07:36:54.000Z</time>
      </trkpt>
      <trkpt lat="43.64149" lon="3.82422">
        <ele>102.45500032</ele>
        <time>2020-10-17T07:36:55.000Z</time>
      </trkpt>
      <trkpt lat="43.64149" lon="3.82419">
        <ele>102.55500032</ele>
        <time>2020-10-17T07:36:56.000Z</time>
      </trkpt>
      <trkpt lat="43.64149" lon="3.82416">
        <ele>102.65500032</ele>
        <time>2020-10-17T07:36:57.000Z</time>
      </trkpt>
      <trkpt lat="43.64151" lon="3.82414">
        <ele>102.75500032</ele>
        <time>2020-10-17T07:36:58.000Z</time>
      </trkpt>
      <trkpt lat="43.64152" lon="3.82411">
        <ele>102.85500032</ele>
        <time>2020-10-17T07:36:59.000Z</time>
      </trkpt>
      <trkpt lat="43.64153" lon="3.82409">
        <ele>102.95500032</ele>
        <time>2020-10-17T07:37:00.000Z</time>
      </trkpt>
      <trkpt lat="43.64154" lon="3.82406">
        <ele>103.05243114363</ele>
        <time>2020-10-17T07:37:01.000Z</time>
      </trkpt>
      <trkpt lat="43.64155" lon="3.82403">
        <ele>103.14775994104</ele>
        <time>2020-10-17T07:37:02.000Z</time>
      </trkpt>
      <trkpt lat="43.64157" lon="3.82401">
        <ele>103.24308873845</ele>
        <time>2020-10-17T07:37:03.000Z</time>
      </trkpt>
      <trkpt lat="43.64158" lon="3.82398">
        <ele>103.33841753586</ele>
        <time>2020-10-17T07:37:04.000Z</time>
      </trkpt>
      <trkpt lat="43.64159" lon="3.82396">
        <ele>103.43374633327</ele>
        <time>2020-10-17T07:37:05.000Z</time>
      </trkpt>
      <trkpt lat="43.6416" lon="3.82393">
        <ele>103.52907513068</ele>
        <time>2020-10-17T07:37:06.000Z</time>
      </trkpt>
      <trkpt lat="43.64161" lon="3.82389">
        <ele>103.71973272551</ele>
        <time>2020-10-17T07:37:08.000Z</time>
      </trkpt>
      <trkpt lat="43.64161" lon="3.82386">
        <ele>103.81506152292</ele>
        <time>2020-10-17T07:37:09.000Z</time>
      </trkpt>
      <trkpt lat="43.64162" lon="3.82383">
        <ele>103.91039032033</ele>
        <time>2020-10-17T07:37:10.000Z</time>
      </trkpt>
      <trkpt lat="43.64163" lon="3.82381">
        <ele>104.00630848166</ele>
        <time>2020-10-17T07:37:11.000Z</time>
      </trkpt>
      <trkpt lat="43.64164" lon="3.82379">
        <ele>104.11146105889</ele>
        <time>2020-10-17T07:37:12.000Z</time>
      </trkpt>
      <trkpt lat="43.64166" lon="3.82376">
        <ele>104.21661363612</ele>
        <time>2020-10-17T07:37:13.000Z</time>
      </trkpt>
      <trkpt lat="43.64167" lon="3.82375">
        <ele>104.32176621335</ele>
        <time>2020-10-17T07:37:14.000Z</time>
      </trkpt>
      <trkpt lat="43.64169" lon="3.82373">
        <ele>104.53207136781</ele>
        <time>2020-10-17T07:37:16.000Z</time>
      </trkpt>
      <trkpt lat="43.64172" lon="3.82373">
        <ele>104.74237652227</ele>
        <time>2020-10-17T07:37:18.000Z</time>
      </trkpt>
      <trkpt lat="43.64174" lon="3.82372">
        <ele>104.95268167673</ele>
        <time>2020-10-17T07:37:20.000Z</time>
      </trkpt>
      <trkpt lat="43.64175" lon="3.82368">
        <ele>105.15063203907</ele>
        <time>2020-10-17T07:37:22.000Z</time>
      </trkpt>
      <trkpt lat="43.64176" lon="3.82365">
        <ele>105.24781379913</ele>
        <time>2020-10-17T07:37:23.000Z</time>
      </trkpt>
      <trkpt lat="43.64177" lon="3.82363">
        <ele>105.34499555918</ele>
        <time>2020-10-17T07:37:24.000Z</time>
      </trkpt>
      <trkpt lat="43.64178" lon="3.82361">
        <ele>105.44217731924</ele>
        <time>2020-10-17T07:37:25.000Z</time>
      </trkpt>
      <trkpt lat="43.64179" lon="3.82358">
        <ele>105.53935907929</ele>
        <time>2020-10-17T07:37:26.000Z</time>
      </trkpt>
      <trkpt lat="43.64179" lon="3.82356">
        <ele>105.63654083935</ele>
        <time>2020-10-17T07:37:27.000Z</time>
      </trkpt>
      <trkpt lat="43.6418" lon="3.82353">
        <ele>105.73372259941</ele>
        <time>2020-10-17T07:37:28.000Z</time>
      </trkpt>
      <trkpt lat="43.6418" lon="3.82351">
        <ele>105.83090435946</ele>
        <time>2020-10-17T07:37:29.000Z</time>
      </trkpt>
      <trkpt lat="43.6418" lon="3.82348">
        <ele>105.92808611952</ele>
        <time>2020-10-17T07:37:30.000Z</time>
      </trkpt>
      <trkpt lat="43.64181" lon="3.82345">
        <ele>106</ele>
        <time>2020-10-17T07:37:31.000Z</time>
      </trkpt>
      <trkpt lat="43.64181" lon="3.82343">
        <ele>106</ele>
        <time>2020-10-17T07:37:32.000Z</time>
      </trkpt>
      <trkpt lat="43.64182" lon="3.8234">
        <ele>106</ele>
        <time>2020-10-17T07:37:33.000Z</time>
      </trkpt>
      <trkpt lat="43.64182" lon="3.82337">
        <ele>106</ele>
        <time>2020-10-17T07:37:34.000Z</time>
      </trkpt>
      <trkpt lat="43.64182" lon="3.82334">
        <ele>106</ele>
        <time>2020-10-17T07:37:35.000Z</time>
      </trkpt>
      <trkpt lat="43.64183" lon="3.82331">
        <ele>106</ele>
        <time>2020-10-17T07:37:36.000Z</time>
      </trkpt>
      <trkpt lat="43.64185" lon="3.82328">
        <ele>106</ele>
        <time>2020-10-17T07:37:37.000Z</time>
      </trkpt>
      <trkpt lat="43.64186" lon="3.82325">
        <ele>106</ele>
        <time>2020-10-17T07:37:38.000Z</time>
      </trkpt>
      <trkpt lat="43.64188" lon="3.82323">
        <ele>106</ele>
        <time>2020-10-17T07:37:39.000Z</time>
      </trkpt>
      <trkpt lat="43.64191" lon="3.82321">
        <ele>106</ele>
        <time>2020-10-17T07:37:40.000Z</time>
      </trkpt>
      <trkpt lat="43.64193" lon="3.82318">
        <ele>106</ele>
        <time>2020-10-17T07:37:41.000Z</time>
      </trkpt>
      <trkpt lat="43.64195" lon="3.82316">
        <ele>106</ele>
        <time>2020-10-17T07:37:42.000Z</time>
      </trkpt>
      <trkpt lat="43.64197" lon="3.82314">
        <ele>106</ele>
        <time>2020-10-17T07:37:43.000Z</time>
      </trkpt>
      <trkpt lat="43.642" lon="3.82312">
        <ele>106</ele>
        <time>2020-10-17T07:37:44.000Z</time>
      </trkpt>
      <trkpt lat="43.64202" lon="3.8231">
        <ele>106</ele>
        <time>2020-10-17T07:37:45.000Z</time>
      </trkpt>
      <trkpt lat="43.64205" lon="3.82309">
        <ele>106</ele>
        <time>2020-10-17T07:37:46.000Z</time>
      </trkpt>
      <trkpt lat="43.64208" lon="3.82308">
        <ele>106</ele>
        <time>2020-10-17T07:37:47.000Z</time>
      </trkpt>
      <trkpt lat="43.6421" lon="3.82307">
        <ele>106</ele>
        <time>2020-10-17T07:37:48.000Z</time>
      </trkpt>
      <trkpt lat="43.64213" lon="3.82305">
        <ele>106</ele>
        <time>2020-10-17T07:37:49.000Z</time>
      </trkpt>
      <trkpt lat="43.64215" lon="3.82304">
        <ele>106</ele>
        <time>2020-10-17T07:37:50.000Z</time>
      </trkpt>
      <trkpt lat="43.64217" lon="3.82304">
        <ele>106</ele>
        <time>2020-10-17T07:37:51.000Z</time>
      </trkpt>
      <trkpt lat="43.64219" lon="3.82303">
        <ele>106</ele>
        <time>2020-10-17T07:37:52.000Z</time>
      </trkpt>
      <trkpt lat="43.64221" lon="3.82303">
        <ele>106</ele>
        <time>2020-10-17T07:37:53.000Z</time>
      </trkpt>
      <trkpt lat="43.64224" lon="3.82303">
        <ele>106</ele>
        <time>2020-10-17T07:37:54.000Z</time>
      </trkpt>
      <trkpt lat="43.64227" lon="3.82303">
        <ele>106</ele>
        <time>2020-10-17T07:37:55.000Z</time>
      </trkpt>
      <trkpt lat="43.6423" lon="3.82303">
        <ele>106</ele>
        <time>2020-10-17T07:37:56.000Z</time>
      </trkpt>
      <trkpt lat="43.64232" lon="3.82303">
        <ele>106</ele>
        <time>2020-10-17T07:37:57.000Z</time>
      </trkpt>
      <trkpt lat="43.64234" lon="3.82303">
        <ele>106</ele>
        <time>2020-10-17T07:37:58.000Z</time>
      </trkpt>
      <trkpt lat="43.64236" lon="3.82304">
        <ele>106</ele>
        <time>2020-10-17T07:37:59.000Z</time>
      </trkpt>
      <trkpt lat="43.64238" lon="3.82303">
        <ele>106</ele>
        <time>2020-10-17T07:38:00.000Z</time>
      </trkpt>
      <trkpt lat="43.6424" lon="3.82303">
        <ele>106</ele>
        <time>2020-10-17T07:38:01.000Z</time>
      </trkpt>
      <trkpt lat="43.64242" lon="3.82303">
        <ele>106</ele>
        <time>2020-10-17T07:38:02.000Z</time>
      </trkpt>
      <trkpt lat="43.64244" lon="3.82303">
        <ele>106</ele>
        <time>2020-10-17T07:38:03.000Z</time>
      </trkpt>
      <trkpt lat="43.64247" lon="3.82302">
        <ele>106</ele>
        <time>2020-10-17T07:38:04.000Z</time>
      </trkpt>
      <trkpt lat="43.64249" lon="3.82302">
        <ele>106</ele>
        <time>2020-10-17T07:38:05.000Z</time>
      </trkpt>
      <trkpt lat="43.64252" lon="3.82302">
        <ele>106</ele>
        <time>2020-10-17T07:38:06.000Z</time>
      </trkpt>
      <trkpt lat="43.64255" lon="3.82302">
        <ele>106</ele>
        <time>2020-10-17T07:38:07.000Z</time>
      </trkpt>
      <trkpt lat="43.64259" lon="3.82303">
        <ele>106</ele>
        <time>2020-10-17T07:38:08.000Z</time>
      </trkpt>
      <trkpt lat="43.64262" lon="3.82304">
        <ele>106</ele>
        <time>2020-10-17T07:38:09.000Z</time>
      </trkpt>
      <trkpt lat="43.64265" lon="3.82306">
        <ele>106</ele>
        <time>2020-10-17T07:38:10.000Z</time>
      </trkpt>
      <trkpt lat="43.64268" lon="3.82309">
        <ele>105.97523218996</ele>
        <time>2020-10-17T07:38:11.000Z</time>
      </trkpt>
      <trkpt lat="43.6427" lon="3.82311">
        <ele>105.87203298148</ele>
        <time>2020-10-17T07:38:12.000Z</time>
      </trkpt>
      <trkpt lat="43.64273" lon="3.82312">
        <ele>105.76883377299</ele>
        <time>2020-10-17T07:38:13.000Z</time>
      </trkpt>
      <trkpt lat="43.64276" lon="3.82313">
        <ele>105.6656345645</ele>
        <time>2020-10-17T07:38:14.000Z</time>
      </trkpt>
      <trkpt lat="43.64279" lon="3.82312">
        <ele>105.56243535602</ele>
        <time>2020-10-17T07:38:15.000Z</time>
      </trkpt>
      <trkpt lat="43.64282" lon="3.82311">
        <ele>105.45923614753</ele>
        <time>2020-10-17T07:38:16.000Z</time>
      </trkpt>
      <trkpt lat="43.64285" lon="3.82309">
        <ele>105.35603693904</ele>
        <time>2020-10-17T07:38:17.000Z</time>
      </trkpt>
      <trkpt lat="43.64288" lon="3.82307">
        <ele>105.25283773056</ele>
        <time>2020-10-17T07:38:18.000Z</time>
      </trkpt>
      <trkpt lat="43.64291" lon="3.82304">
        <ele>105.14963852207</ele>
        <time>2020-10-17T07:38:19.000Z</time>
      </trkpt>
      <trkpt lat="43.64293" lon="3.823">
        <ele>105.04643931358</ele>
        <time>2020-10-17T07:38:20.000Z</time>
      </trkpt>
      <trkpt lat="43.64295" lon="3.82297">
        <ele>104.94499968</ele>
        <time>2020-10-17T07:38:21.000Z</time>
      </trkpt>
      <trkpt lat="43.64297" lon="3.82296">
        <ele>104.84499968</ele>
        <time>2020-10-17T07:38:22.000Z</time>
      </trkpt>
      <trkpt lat="43.643" lon="3.82296">
        <ele>104.74499968</ele>
        <time>2020-10-17T07:38:23.000Z</time>
      </trkpt>
      <trkpt lat="43.64303" lon="3.82297">
        <ele>104.64499968</ele>
        <time>2020-10-17T07:38:24.000Z</time>
      </trkpt>
      <trkpt lat="43.64307" lon="3.82298">
        <ele>104.54499968</ele>
        <time>2020-10-17T07:38:25.000Z</time>
      </trkpt>
      <trkpt lat="43.6431" lon="3.82298">
        <ele>104.44499968</ele>
        <time>2020-10-17T07:38:26.000Z</time>
      </trkpt>
      <trkpt lat="43.64314" lon="3.82297">
        <ele>104.34499968</ele>
        <time>2020-10-17T07:38:27.000Z</time>
      </trkpt>
      <trkpt lat="43.64317" lon="3.82296">
        <ele>104.24499968</ele>
        <time>2020-10-17T07:38:28.000Z</time>
      </trkpt>
      <trkpt lat="43.6432" lon="3.82295">
        <ele>104.14499968</ele>
        <time>2020-10-17T07:38:29.000Z</time>
      </trkpt>
      <trkpt lat="43.64323" lon="3.82294">
        <ele>104.04499968</ele>
        <time>2020-10-17T07:38:30.000Z</time>
      </trkpt>
      <trkpt lat="43.64326" lon="3.82294">
        <ele>103.94499968</ele>
        <time>2020-10-17T07:38:31.000Z</time>
      </trkpt>
      <trkpt lat="43.64329" lon="3.82293">
        <ele>103.84499968</ele>
        <time>2020-10-17T07:38:32.000Z</time>
      </trkpt>
      <trkpt lat="43.64332" lon="3.82293">
        <ele>103.74499968</ele>
        <time>2020-10-17T07:38:33.000Z</time>
      </trkpt>
      <trkpt lat="43.64334" lon="3.82292">
        <ele>103.64499968</ele>
        <time>2020-10-17T07:38:34.000Z</time>
      </trkpt>
      <trkpt lat="43.64337" lon="3.82291">
        <ele>103.54499968</ele>
        <time>2020-10-17T07:38:35.000Z</time>
      </trkpt>
      <trkpt lat="43.6434" lon="3.82289">
        <ele>103.44499968</ele>
        <time>2020-10-17T07:38:36.000Z</time>
      </trkpt>
      <trkpt lat="43.64343" lon="3.82288">
        <ele>103.34499968</ele>
        <time>2020-10-17T07:38:37.000Z</time>
      </trkpt>
      <trkpt lat="43.64345" lon="3.82286">
        <ele>103.24499968</ele>
        <time>2020-10-17T07:38:38.000Z</time>
      </trkpt>
      <trkpt lat="43.64348" lon="3.82283">
        <ele>103.14499968</ele>
        <time>2020-10-17T07:38:39.000Z</time>
      </trkpt>
      <trkpt lat="43.6435" lon="3.8228">
        <ele>103.04499968</ele>
        <time>2020-10-17T07:38:40.000Z</time>
      </trkpt>
      <trkpt lat="43.64352" lon="3.82277">
        <ele>103</ele>
        <time>2020-10-17T07:38:41.000Z</time>
      </trkpt>
      <trkpt lat="43.64353" lon="3.82275">
        <ele>103</ele>
        <time>2020-10-17T07:38:42.000Z</time>
      </trkpt>
      <trkpt lat="43.64355" lon="3.82272">
        <ele>103</ele>
        <time>2020-10-17T07:38:44.000Z</time>
      </trkpt>
      <trkpt lat="43.64354" lon="3.82272">
        <ele>103</ele>
        <time>2020-10-17T07:38:50.000Z</time>
      </trkpt>
      <trkpt lat="43.64361" lon="3.82265">
        <ele>101.01555308713</ele>
        <time>2020-10-17T07:39:03.000Z</time>
      </trkpt>
      <trkpt lat="43.64363" lon="3.82264">
        <ele>100.90471119809</ele>
        <time>2020-10-17T07:39:04.000Z</time>
      </trkpt>
      <trkpt lat="43.64365" lon="3.82264">
        <ele>100.79764474357</ele>
        <time>2020-10-17T07:39:05.000Z</time>
      </trkpt>
      <trkpt lat="43.64367" lon="3.82264">
        <ele>100.69057828905</ele>
        <time>2020-10-17T07:39:06.000Z</time>
      </trkpt>
      <trkpt lat="43.64369" lon="3.82265">
        <ele>100.58351183453</ele>
        <time>2020-10-17T07:39:07.000Z</time>
      </trkpt>
      <trkpt lat="43.64371" lon="3.82263">
        <ele>100.47644538001</ele>
        <time>2020-10-17T07:39:08.000Z</time>
      </trkpt>
      <trkpt lat="43.64372" lon="3.8226">
        <ele>100.36937892548</ele>
        <time>2020-10-17T07:39:09.000Z</time>
      </trkpt>
      <trkpt lat="43.64374" lon="3.82257">
        <ele>100.26231247096</ele>
        <time>2020-10-17T07:39:10.000Z</time>
      </trkpt>
      <trkpt lat="43.64376" lon="3.82256">
        <ele>100.15524601644</ele>
        <time>2020-10-17T07:39:11.000Z</time>
      </trkpt>
      <trkpt lat="43.64379" lon="3.82256">
        <ele>100.04817956192</ele>
        <time>2020-10-17T07:39:12.000Z</time>
      </trkpt>
      <trkpt lat="43.64381" lon="3.82257">
        <ele>100</ele>
        <time>2020-10-17T07:39:13.000Z</time>
      </trkpt>
      <trkpt lat="43.64383" lon="3.82257">
        <ele>100</ele>
        <time>2020-10-17T07:39:14.000Z</time>
      </trkpt>
      <trkpt lat="43.64385" lon="3.82258">
        <ele>100</ele>
        <time>2020-10-17T07:39:15.000Z</time>
      </trkpt>
      <trkpt lat="43.64386" lon="3.82258">
        <ele>100</ele>
        <time>2020-10-17T07:39:21.000Z</time>
      </trkpt>
      <trkpt lat="43.6439" lon="3.82256">
        <ele>100.98581402791</ele>
        <time>2020-10-17T07:40:04.000Z</time>
      </trkpt>
      <trkpt lat="43.64393" lon="3.82254">
        <ele>101</ele>
        <time>2020-10-17T07:40:05.000Z</time>
      </trkpt>
      <trkpt lat="43.64395" lon="3.82253">
        <ele>101</ele>
        <time>2020-10-17T07:40:06.000Z</time>
      </trkpt>
      <trkpt lat="43.64398" lon="3.82252">
        <ele>101</ele>
        <time>2020-10-17T07:40:07.000Z</time>
      </trkpt>
      <trkpt lat="43.644" lon="3.82251">
        <ele>101</ele>
        <time>2020-10-17T07:40:08.000Z</time>
      </trkpt>
      <trkpt lat="43.64402" lon="3.82249">
        <ele>101</ele>
        <time>2020-10-17T07:40:09.000Z</time>
      </trkpt>
      <trkpt lat="43.64404" lon="3.82249">
        <ele>101</ele>
        <time>2020-10-17T07:40:10.000Z</time>
      </trkpt>
      <trkpt lat="43.64406" lon="3.82248">
        <ele>101</ele>
        <time>2020-10-17T07:40:11.000Z</time>
      </trkpt>
      <trkpt lat="43.64408" lon="3.82246">
        <ele>101</ele>
        <time>2020-10-17T07:40:12.000Z</time>
      </trkpt>
      <trkpt lat="43.6441" lon="3.82244">
        <ele>101</ele>
        <time>2020-10-17T07:40:13.000Z</time>
      </trkpt>
      <trkpt lat="43.64411" lon="3.82242">
        <ele>101</ele>
        <time>2020-10-17T07:40:14.000Z</time>
      </trkpt>
      <trkpt lat="43.64414" lon="3.82239">
        <ele>101</ele>
        <time>2020-10-17T07:40:15.000Z</time>
      </trkpt>
      <trkpt lat="43.64416" lon="3.82236">
        <ele>101</ele>
        <time>2020-10-17T07:40:16.000Z</time>
      </trkpt>
      <trkpt lat="43.64419" lon="3.82235">
        <ele>101</ele>
        <time>2020-10-17T07:40:17.000Z</time>
      </trkpt>
      <trkpt lat="43.64422" lon="3.82236">
        <ele>101</ele>
        <time>2020-10-17T07:40:18.000Z</time>
      </trkpt>
      <trkpt lat="43.64424" lon="3.82237">
        <ele>101</ele>
        <time>2020-10-17T07:40:19.000Z</time>
      </trkpt>
      <trkpt lat="43.64425" lon="3.8224">
        <ele>101</ele>
        <time>2020-10-17T07:40:20.000Z</time>
      </trkpt>
      <trkpt lat="43.64426" lon="3.82242">
        <ele>101</ele>
        <time>2020-10-17T07:40:21.000Z</time>
      </trkpt>
      <trkpt lat="43.64426" lon="3.82246">
        <ele>101</ele>
        <time>2020-10-17T07:40:23.000Z</time>
      </trkpt>
      <trkpt lat="43.64426" lon="3.82246">
        <ele>101</ele>
        <time>2020-10-17T07:40:30.000Z</time>
      </trkpt>
      <trkpt lat="43.64429" lon="3.82249">
        <ele>101</ele>
        <time>2020-10-17T07:42:04.000Z</time>
      </trkpt>
      <trkpt lat="43.6443" lon="3.8225">
        <ele>101</ele>
        <time>2020-10-17T07:42:05.000Z</time>
      </trkpt>
      <trkpt lat="43.64433" lon="3.82253">
        <ele>101</ele>
        <time>2020-10-17T07:42:07.000Z</time>
      </trkpt>
      <trkpt lat="43.64435" lon="3.82255">
        <ele>101</ele>
        <time>2020-10-17T07:42:08.000Z</time>
      </trkpt>
      <trkpt lat="43.64439" lon="3.82258">
        <ele>101</ele>
        <time>2020-10-17T07:42:09.000Z</time>
      </trkpt>
      <trkpt lat="43.64443" lon="3.8226">
        <ele>101</ele>
        <time>2020-10-17T07:42:10.000Z</time>
      </trkpt>
      <trkpt lat="43.64446" lon="3.82264">
        <ele>101</ele>
        <time>2020-10-17T07:42:11.000Z</time>
      </trkpt>
      <trkpt lat="43.6445" lon="3.82268">
        <ele>101</ele>
        <time>2020-10-17T07:42:12.000Z</time>
      </trkpt>
      <trkpt lat="43.64454" lon="3.82271">
        <ele>101</ele>
        <time>2020-10-17T07:42:13.000Z</time>
      </trkpt>
      <trkpt lat="43.64458" lon="3.82273">
        <ele>101</ele>
        <time>2020-10-17T07:42:14.000Z</time>
      </trkpt>
      <trkpt lat="43.64462" lon="3.82274">
        <ele>101</ele>
        <time>2020-10-17T07:42:15.000Z</time>
      </trkpt>
      <trkpt lat="43.64466" lon="3.82276">
        <ele>101</ele>
        <time>2020-10-17T07:42:16.000Z</time>
      </trkpt>
      <trkpt lat="43.64467" lon="3.82279">
        <ele>101</ele>
        <time>2020-10-17T07:42:17.000Z</time>
      </trkpt>
      <trkpt lat="43.64468" lon="3.82284">
        <ele>101</ele>
        <time>2020-10-17T07:42:19.000Z</time>
      </trkpt>
      <trkpt lat="43.64469" lon="3.82286">
        <ele>101</ele>
        <time>2020-10-17T07:42:20.000Z</time>
      </trkpt>
      <trkpt lat="43.64471" lon="3.82289">
        <ele>101</ele>
        <time>2020-10-17T07:42:21.000Z</time>
      </trkpt>
      <trkpt lat="43.64473" lon="3.8229">
        <ele>101</ele>
        <time>2020-10-17T07:42:22.000Z</time>
      </trkpt>
      <trkpt lat="43.64476" lon="3.82289">
        <ele>101</ele>
        <time>2020-10-17T07:42:23.000Z</time>
      </trkpt>
      <trkpt lat="43.64479" lon="3.82286">
        <ele>101</ele>
        <time>2020-10-17T07:42:24.000Z</time>
      </trkpt>
      <trkpt lat="43.64482" lon="3.82284">
        <ele>101.027778107</ele>
        <time>2020-10-17T07:42:25.000Z</time>
      </trkpt>
      <trkpt lat="43.64486" lon="3.82285">
        <ele>101.13065876543</ele>
        <time>2020-10-17T07:42:26.000Z</time>
      </trkpt>
      <trkpt lat="43.6449" lon="3.82287">
        <ele>101.23353942387</ele>
        <time>2020-10-17T07:42:27.000Z</time>
      </trkpt>
      <trkpt lat="43.64494" lon="3.82289">
        <ele>101.3364200823</ele>
        <time>2020-10-17T07:42:28.000Z</time>
      </trkpt>
      <trkpt lat="43.64498" lon="3.82292">
        <ele>101.43930074074</ele>
        <time>2020-10-17T07:42:29.000Z</time>
      </trkpt>
      <trkpt lat="43.645" lon="3.82295">
        <ele>101.54218139918</ele>
        <time>2020-10-17T07:42:30.000Z</time>
      </trkpt>
      <trkpt lat="43.64503" lon="3.82298">
        <ele>101.64506205761</ele>
        <time>2020-10-17T07:42:31.000Z</time>
      </trkpt>
      <trkpt lat="43.64506" lon="3.823">
        <ele>101.74794271605</ele>
        <time>2020-10-17T07:42:32.000Z</time>
      </trkpt>
      <trkpt lat="43.64508" lon="3.82301">
        <ele>101.85082337449</ele>
        <time>2020-10-17T07:42:33.000Z</time>
      </trkpt>
      <trkpt lat="43.6451" lon="3.82302">
        <ele>101.95370403292</ele>
        <time>2020-10-17T07:42:34.000Z</time>
      </trkpt>
      <trkpt lat="43.64513" lon="3.82303">
        <ele>102.05500032</ele>
        <time>2020-10-17T07:42:35.000Z</time>
      </trkpt>
      <trkpt lat="43.64516" lon="3.82304">
        <ele>102.15500032</ele>
        <time>2020-10-17T07:42:36.000Z</time>
      </trkpt>
      <trkpt lat="43.6452" lon="3.82305">
        <ele>102.25500032</ele>
        <time>2020-10-17T07:42:37.000Z</time>
      </trkpt>
      <trkpt lat="43.64524" lon="3.82306">
        <ele>102.35500032</ele>
        <time>2020-10-17T07:42:38.000Z</time>
      </trkpt>
      <trkpt lat="43.64528" lon="3.82307">
        <ele>102.45500032</ele>
        <time>2020-10-17T07:42:39.000Z</time>
      </trkpt>
      <trkpt lat="43.64532" lon="3.82308">
        <ele>102.55500032</ele>
        <time>2020-10-17T07:42:40.000Z</time>
      </trkpt>
      <trkpt lat="43.64536" lon="3.82309">
        <ele>102.65500032</ele>
        <time>2020-10-17T07:42:41.000Z</time>
      </trkpt>
      <trkpt lat="43.64541" lon="3.8231">
        <ele>102.75500032</ele>
        <time>2020-10-17T07:42:42.000Z</time>
      </trkpt>
      <trkpt lat="43.64545" lon="3.82311">
        <ele>102.85500032</ele>
        <time>2020-10-17T07:42:43.000Z</time>
      </trkpt>
      <trkpt lat="43.6455" lon="3.82312">
        <ele>102.95500032</ele>
        <time>2020-10-17T07:42:44.000Z</time>
      </trkpt>
      <trkpt lat="43.64555" lon="3.82313">
        <ele>103</ele>
        <time>2020-10-17T07:42:45.000Z</time>
      </trkpt>
      <trkpt lat="43.6456" lon="3.82314">
        <ele>103</ele>
        <time>2020-10-17T07:42:46.000Z</time>
      </trkpt>
      <trkpt lat="43.64564" lon="3.82316">
        <ele>103</ele>
        <time>2020-10-17T07:42:47.000Z</time>
      </trkpt>
      <trkpt lat="43.6457" lon="3.82318">
        <ele>103</ele>
        <time>2020-10-17T07:42:48.000Z</time>
      </trkpt>
      <trkpt lat="43.64574" lon="3.82321">
        <ele>103</ele>
        <time>2020-10-17T07:42:49.000Z</time>
      </trkpt>
      <trkpt lat="43.64579" lon="3.82325">
        <ele>103</ele>
        <time>2020-10-17T07:42:50.000Z</time>
      </trkpt>
      <trkpt lat="43.64584" lon="3.8233">
        <ele>103</ele>
        <time>2020-10-17T07:42:51.000Z</time>
      </trkpt>
      <trkpt lat="43.64589" lon="3.82334">
        <ele>103</ele>
        <time>2020-10-17T07:42:52.000Z</time>
      </trkpt>
      <trkpt lat="43.64594" lon="3.82338">
        <ele>103</ele>
        <time>2020-10-17T07:42:53.000Z</time>
      </trkpt>
      <trkpt lat="43.64599" lon="3.82343">
        <ele>103</ele>
        <time>2020-10-17T07:42:54.000Z</time>
      </trkpt>
      <trkpt lat="43.64604" lon="3.82347">
        <ele>103</ele>
        <time>2020-10-17T07:42:55.000Z</time>
      </trkpt>
      <trkpt lat="43.64609" lon="3.82351">
        <ele>103</ele>
        <time>2020-10-17T07:42:56.000Z</time>
      </trkpt>
      <trkpt lat="43.64614" lon="3.82355">
        <ele>103</ele>
        <time>2020-10-17T07:42:57.000Z</time>
      </trkpt>
      <trkpt lat="43.6462" lon="3.82358">
        <ele>103</ele>
        <time>2020-10-17T07:42:58.000Z</time>
      </trkpt>
      <trkpt lat="43.64625" lon="3.82362">
        <ele>103</ele>
        <time>2020-10-17T07:42:59.000Z</time>
      </trkpt>
      <trkpt lat="43.64631" lon="3.82366">
        <ele>103</ele>
        <time>2020-10-17T07:43:00.000Z</time>
      </trkpt>
      <trkpt lat="43.64636" lon="3.8237">
        <ele>103</ele>
        <time>2020-10-17T07:43:01.000Z</time>
      </trkpt>
      <trkpt lat="43.64642" lon="3.82373">
        <ele>103</ele>
        <time>2020-10-17T07:43:02.000Z</time>
      </trkpt>
      <trkpt lat="43.64647" lon="3.82377">
        <ele>103</ele>
        <time>2020-10-17T07:43:03.000Z</time>
      </trkpt>
      <trkpt lat="43.64652" lon="3.82381">
        <ele>103</ele>
        <time>2020-10-17T07:43:04.000Z</time>
      </trkpt>
      <trkpt lat="43.64657" lon="3.82385">
        <ele>103</ele>
        <time>2020-10-17T07:43:05.000Z</time>
      </trkpt>
      <trkpt lat="43.64663" lon="3.82389">
        <ele>103</ele>
        <time>2020-10-17T07:43:06.000Z</time>
      </trkpt>
      <trkpt lat="43.64668" lon="3.82393">
        <ele>103</ele>
        <time>2020-10-17T07:43:07.000Z</time>
      </trkpt>
      <trkpt lat="43.64673" lon="3.82397">
        <ele>103</ele>
        <time>2020-10-17T07:43:08.000Z</time>
      </trkpt>
      <trkpt lat="43.64678" lon="3.82401">
        <ele>103</ele>
        <time>2020-10-17T07:43:09.000Z</time>
      </trkpt>
      <trkpt lat="43.64683" lon="3.82404">
        <ele>103</ele>
        <time>2020-10-17T07:43:10.000Z</time>
      </trkpt>
      <trkpt lat="43.64688" lon="3.82407">
        <ele>103</ele>
        <time>2020-10-17T07:43:11.000Z</time>
      </trkpt>
      <trkpt lat="43.64693" lon="3.82411">
        <ele>103</ele>
        <time>2020-10-17T07:43:12.000Z</time>
      </trkpt>
      <trkpt lat="43.64698" lon="3.82414">
        <ele>103</ele>
        <time>2020-10-17T07:43:13.000Z</time>
      </trkpt>
      <trkpt lat="43.64703" lon="3.82416">
        <ele>103</ele>
        <time>2020-10-17T07:43:14.000Z</time>
      </trkpt>
      <trkpt lat="43.64708" lon="3.82419">
        <ele>103.05500032</ele>
        <time>2020-10-17T07:43:15.000Z</time>
      </trkpt>
      <trkpt lat="43.64713" lon="3.82422">
        <ele>103.15500032</ele>
        <time>2020-10-17T07:43:16.000Z</time>
      </trkpt>
      <trkpt lat="43.64718" lon="3.82426">
        <ele>103.25500032</ele>
        <time>2020-10-17T07:43:17.000Z</time>
      </trkpt>
      <trkpt lat="43.64722" lon="3.82428">
        <ele>103.35500032</ele>
        <time>2020-10-17T07:43:18.000Z</time>
      </trkpt>
      <trkpt lat="43.64727" lon="3.8243">
        <ele>103.45500032</ele>
        <time>2020-10-17T07:43:19.000Z</time>
      </trkpt>
      <trkpt lat="43.64733" lon="3.82431">
        <ele>103.55500032</ele>
        <time>2020-10-17T07:43:20.000Z</time>
      </trkpt>
      <trkpt lat="43.64738" lon="3.82432">
        <ele>103.65500032</ele>
        <time>2020-10-17T07:43:21.000Z</time>
      </trkpt>
      <trkpt lat="43.64743" lon="3.82433">
        <ele>103.75500032</ele>
        <time>2020-10-17T07:43:22.000Z</time>
      </trkpt>
      <trkpt lat="43.64749" lon="3.82433">
        <ele>103.85500032</ele>
        <time>2020-10-17T07:43:23.000Z</time>
      </trkpt>
      <trkpt lat="43.64754" lon="3.82433">
        <ele>103.95500032</ele>
        <time>2020-10-17T07:43:24.000Z</time>
      </trkpt>
      <trkpt lat="43.64759" lon="3.82433">
        <ele>104.05500032</ele>
        <time>2020-10-17T07:43:25.000Z</time>
      </trkpt>
      <trkpt lat="43.64763" lon="3.82432">
        <ele>104.15500032</ele>
        <time>2020-10-17T07:43:26.000Z</time>
      </trkpt>
      <trkpt lat="43.64768" lon="3.8243">
        <ele>104.25500032</ele>
        <time>2020-10-17T07:43:27.000Z</time>
      </trkpt>
      <trkpt lat="43.64772" lon="3.8243">
        <ele>104.35500032</ele>
        <time>2020-10-17T07:43:28.000Z</time>
      </trkpt>
      <trkpt lat="43.64777" lon="3.82429">
        <ele>104.45500032</ele>
        <time>2020-10-17T07:43:29.000Z</time>
      </trkpt>
      <trkpt lat="43.64781" lon="3.82427">
        <ele>104.55500032</ele>
        <time>2020-10-17T07:43:30.000Z</time>
      </trkpt>
      <trkpt lat="43.64785" lon="3.82426">
        <ele>104.65500032</ele>
        <time>2020-10-17T07:43:31.000Z</time>
      </trkpt>
      <trkpt lat="43.64789" lon="3.82425">
        <ele>104.75500032</ele>
        <time>2020-10-17T07:43:32.000Z</time>
      </trkpt>
      <trkpt lat="43.64792" lon="3.82425">
        <ele>104.85500032</ele>
        <time>2020-10-17T07:43:33.000Z</time>
      </trkpt>
      <trkpt lat="43.64795" lon="3.82424">
        <ele>104.95500032</ele>
        <time>2020-10-17T07:43:34.000Z</time>
      </trkpt>
      <trkpt lat="43.64798" lon="3.82423">
        <ele>105.11000064</ele>
        <time>2020-10-17T07:43:35.000Z</time>
      </trkpt>
      <trkpt lat="43.64801" lon="3.82423">
        <ele>105.31000064</ele>
        <time>2020-10-17T07:43:36.000Z</time>
      </trkpt>
      <trkpt lat="43.64804" lon="3.82422">
        <ele>105.51000064</ele>
        <time>2020-10-17T07:43:37.000Z</time>
      </trkpt>
      <trkpt lat="43.64807" lon="3.82422">
        <ele>105.71000064</ele>
        <time>2020-10-17T07:43:38.000Z</time>
      </trkpt>
      <trkpt lat="43.64811" lon="3.82421">
        <ele>105.91000064</ele>
        <time>2020-10-17T07:43:39.000Z</time>
      </trkpt>
      <trkpt lat="43.64814" lon="3.82421">
        <ele>106.11000064</ele>
        <time>2020-10-17T07:43:40.000Z</time>
      </trkpt>
      <trkpt lat="43.64817" lon="3.8242">
        <ele>106.31000064</ele>
        <time>2020-10-17T07:43:41.000Z</time>
      </trkpt>
      <trkpt lat="43.6482" lon="3.8242">
        <ele>106.51000064</ele>
        <time>2020-10-17T07:43:42.000Z</time>
      </trkpt>
      <trkpt lat="43.64824" lon="3.82419">
        <ele>106.71000064</ele>
        <time>2020-10-17T07:43:43.000Z</time>
      </trkpt>
      <trkpt lat="43.64827" lon="3.82419">
        <ele>106.91000064</ele>
        <time>2020-10-17T07:43:44.000Z</time>
      </trkpt>
      <trkpt lat="43.64831" lon="3.82418">
        <ele>107</ele>
        <time>2020-10-17T07:43:45.000Z</time>
      </trkpt>
      <trkpt lat="43.64834" lon="3.82418">
        <ele>107</ele>
        <time>2020-10-17T07:43:46.000Z</time>
      </trkpt>
      <trkpt lat="43.64838" lon="3.82417">
        <ele>107</ele>
        <time>2020-10-17T07:43:47.000Z</time>
      </trkpt>
      <trkpt lat="43.64841" lon="3.82417">
        <ele>107</ele>
        <time>2020-10-17T07:43:48.000Z</time>
      </trkpt>
      <trkpt lat="43.64844" lon="3.82416">
        <ele>107</ele>
        <time>2020-10-17T07:43:49.000Z</time>
      </trkpt>
      <trkpt lat="43.64848" lon="3.82416">
        <ele>107</ele>
        <time>2020-10-17T07:43:50.000Z</time>
      </trkpt>
      <trkpt lat="43.64851" lon="3.82415">
        <ele>107</ele>
        <time>2020-10-17T07:43:51.000Z</time>
      </trkpt>
      <trkpt lat="43.64854" lon="3.82415">
        <ele>107</ele>
        <time>2020-10-17T07:43:52.000Z</time>
      </trkpt>
      <trkpt lat="43.64857" lon="3.82414">
        <ele>107</ele>
        <time>2020-10-17T07:43:53.000Z</time>
      </trkpt>
      <trkpt lat="43.64861" lon="3.82414">
        <ele>107</ele>
        <time>2020-10-17T07:43:54.000Z</time>
      </trkpt>
      <trkpt lat="43.64864" lon="3.82414">
        <ele>107.08897879522</ele>
        <time>2020-10-17T07:43:55.000Z</time>
      </trkpt>
      <trkpt lat="43.64868" lon="3.82415">
        <ele>107.29120332981</ele>
        <time>2020-10-17T07:43:56.000Z</time>
      </trkpt>
      <trkpt lat="43.64871" lon="3.82416">
        <ele>107.49342786441</ele>
        <time>2020-10-17T07:43:57.000Z</time>
      </trkpt>
      <trkpt lat="43.64875" lon="3.82418">
        <ele>107.695652399</ele>
        <time>2020-10-17T07:43:58.000Z</time>
      </trkpt>
      <trkpt lat="43.64878" lon="3.82421">
        <ele>107.89787693359</ele>
        <time>2020-10-17T07:43:59.000Z</time>
      </trkpt>
      <trkpt lat="43.64881" lon="3.82424">
        <ele>108.10010146818</ele>
        <time>2020-10-17T07:44:00.000Z</time>
      </trkpt>
      <trkpt lat="43.64884" lon="3.82428">
        <ele>108.30232600278</ele>
        <time>2020-10-17T07:44:01.000Z</time>
      </trkpt>
      <trkpt lat="43.64886" lon="3.82431">
        <ele>108.50455053737</ele>
        <time>2020-10-17T07:44:02.000Z</time>
      </trkpt>
      <trkpt lat="43.64888" lon="3.82435">
        <ele>108.70677507196</ele>
        <time>2020-10-17T07:44:03.000Z</time>
      </trkpt>
      <trkpt lat="43.64889" lon="3.82439">
        <ele>108.90899960655</ele>
        <time>2020-10-17T07:44:04.000Z</time>
      </trkpt>
      <trkpt lat="43.64891" lon="3.82442">
        <ele>109.05500032</ele>
        <time>2020-10-17T07:44:05.000Z</time>
      </trkpt>
      <trkpt lat="43.64894" lon="3.82444">
        <ele>109.15500032</ele>
        <time>2020-10-17T07:44:06.000Z</time>
      </trkpt>
      <trkpt lat="43.64896" lon="3.82447">
        <ele>109.25500032</ele>
        <time>2020-10-17T07:44:07.000Z</time>
      </trkpt>
      <trkpt lat="43.64897" lon="3.82449">
        <ele>109.35500032</ele>
        <time>2020-10-17T07:44:08.000Z</time>
      </trkpt>
      <trkpt lat="43.64899" lon="3.82452">
        <ele>109.45500032</ele>
        <time>2020-10-17T07:44:09.000Z</time>
      </trkpt>
      <trkpt lat="43.64901" lon="3.82454">
        <ele>109.55500032</ele>
        <time>2020-10-17T07:44:10.000Z</time>
      </trkpt>
      <trkpt lat="43.64902" lon="3.82456">
        <ele>109.65500032</ele>
        <time>2020-10-17T07:44:11.000Z</time>
      </trkpt>
      <trkpt lat="43.64905" lon="3.82458">
        <ele>109.85500032</ele>
        <time>2020-10-17T07:44:13.000Z</time>
      </trkpt>
      <trkpt lat="43.64906" lon="3.8246">
        <ele>110.05500032</ele>
        <time>2020-10-17T07:44:15.000Z</time>
      </trkpt>
      <trkpt lat="43.64908" lon="3.82464">
        <ele>110.25500032</ele>
        <time>2020-10-17T07:44:17.000Z</time>
      </trkpt>
      <trkpt lat="43.64909" lon="3.82467">
        <ele>110.35500032</ele>
        <time>2020-10-17T07:44:18.000Z</time>
      </trkpt>
      <trkpt lat="43.6491" lon="3.82471">
        <ele>110.45500032</ele>
        <time>2020-10-17T07:44:19.000Z</time>
      </trkpt>
      <trkpt lat="43.64912" lon="3.82475">
        <ele>110.55500032</ele>
        <time>2020-10-17T07:44:20.000Z</time>
      </trkpt>
      <trkpt lat="43.64914" lon="3.82479">
        <ele>110.65500032</ele>
        <time>2020-10-17T07:44:21.000Z</time>
      </trkpt>
      <trkpt lat="43.64915" lon="3.82484">
        <ele>110.75500032</ele>
        <time>2020-10-17T07:44:22.000Z</time>
      </trkpt>
      <trkpt lat="43.64917" lon="3.82489">
        <ele>110.85500032</ele>
        <time>2020-10-17T07:44:23.000Z</time>
      </trkpt>
      <trkpt lat="43.64918" lon="3.82494">
        <ele>110.95500032</ele>
        <time>2020-10-17T07:44:24.000Z</time>
      </trkpt>
      <trkpt lat="43.6492" lon="3.82498">
        <ele>111.11000064</ele>
        <time>2020-10-17T07:44:25.000Z</time>
      </trkpt>
      <trkpt lat="43.64922" lon="3.82502">
        <ele>111.31000064</ele>
        <time>2020-10-17T07:44:26.000Z</time>
      </trkpt>
      <trkpt lat="43.64924" lon="3.82506">
        <ele>111.51000064</ele>
        <time>2020-10-17T07:44:27.000Z</time>
      </trkpt>
      <trkpt lat="43.64926" lon="3.8251">
        <ele>111.71000064</ele>
        <time>2020-10-17T07:44:28.000Z</time>
      </trkpt>
      <trkpt lat="43.64927" lon="3.82515">
        <ele>111.91000064</ele>
        <time>2020-10-17T07:44:29.000Z</time>
      </trkpt>
      <trkpt lat="43.64927" lon="3.8252">
        <ele>112.11000064</ele>
        <time>2020-10-17T07:44:30.000Z</time>
      </trkpt>
      <trkpt lat="43.64928" lon="3.82525">
        <ele>112.31000064</ele>
        <time>2020-10-17T07:44:31.000Z</time>
      </trkpt>
      <trkpt lat="43.64929" lon="3.8253">
        <ele>112.51000064</ele>
        <time>2020-10-17T07:44:32.000Z</time>
      </trkpt>
      <trkpt lat="43.6493" lon="3.82535">
        <ele>112.71000064</ele>
        <time>2020-10-17T07:44:33.000Z</time>
      </trkpt>
      <trkpt lat="43.6493" lon="3.8254">
        <ele>112.91000064</ele>
        <time>2020-10-17T07:44:34.000Z</time>
      </trkpt>
      <trkpt lat="43.64931" lon="3.82545">
        <ele>113.05500032</ele>
        <time>2020-10-17T07:44:35.000Z</time>
      </trkpt>
      <trkpt lat="43.64932" lon="3.8255">
        <ele>113.15500032</ele>
        <time>2020-10-17T07:44:36.000Z</time>
      </trkpt>
      <trkpt lat="43.64933" lon="3.82555">
        <ele>113.25500032</ele>
        <time>2020-10-17T07:44:37.000Z</time>
      </trkpt>
      <trkpt lat="43.64935" lon="3.8256">
        <ele>113.35500032</ele>
        <time>2020-10-17T07:44:38.000Z</time>
      </trkpt>
      <trkpt lat="43.64936" lon="3.82564">
        <ele>113.45500032</ele>
        <time>2020-10-17T07:44:39.000Z</time>
      </trkpt>
      <trkpt lat="43.64936" lon="3.82568">
        <ele>113.55500032</ele>
        <time>2020-10-17T07:44:40.000Z</time>
      </trkpt>
      <trkpt lat="43.64937" lon="3.82572">
        <ele>113.65500032</ele>
        <time>2020-10-17T07:44:41.000Z</time>
      </trkpt>
      <trkpt lat="43.64938" lon="3.82575">
        <ele>113.75500032</ele>
        <time>2020-10-17T07:44:42.000Z</time>
      </trkpt>
      <trkpt lat="43.64939" lon="3.82579">
        <ele>113.85500032</ele>
        <time>2020-10-17T07:44:43.000Z</time>
      </trkpt>
      <trkpt lat="43.6494" lon="3.82582">
        <ele>113.95500032</ele>
        <time>2020-10-17T07:44:44.000Z</time>
      </trkpt>
      <trkpt lat="43.64941" lon="3.82585">
        <ele>114.05500032</ele>
        <time>2020-10-17T07:44:45.000Z</time>
      </trkpt>
      <trkpt lat="43.64943" lon="3.82587">
        <ele>114.15500032</ele>
        <time>2020-10-17T07:44:46.000Z</time>
      </trkpt>
      <trkpt lat="43.64944" lon="3.8259">
        <ele>114.25500032</ele>
        <time>2020-10-17T07:44:47.000Z</time>
      </trkpt>
      <trkpt lat="43.64945" lon="3.82593">
        <ele>114.35500032</ele>
        <time>2020-10-17T07:44:48.000Z</time>
      </trkpt>
      <trkpt lat="43.64947" lon="3.82595">
        <ele>114.45500032</ele>
        <time>2020-10-17T07:44:49.000Z</time>
      </trkpt>
      <trkpt lat="43.64949" lon="3.82598">
        <ele>114.55500032</ele>
        <time>2020-10-17T07:44:50.000Z</time>
      </trkpt>
      <trkpt lat="43.64951" lon="3.82599">
        <ele>114.65500032</ele>
        <time>2020-10-17T07:44:51.000Z</time>
      </trkpt>
      <trkpt lat="43.64952" lon="3.82601">
        <ele>114.75500032</ele>
        <time>2020-10-17T07:44:52.000Z</time>
      </trkpt>
      <trkpt lat="43.64955" lon="3.82603">
        <ele>114.95500032</ele>
        <time>2020-10-17T07:44:54.000Z</time>
      </trkpt>
      <trkpt lat="43.64959" lon="3.82603">
        <ele>115.15500032</ele>
        <time>2020-10-17T07:44:56.000Z</time>
      </trkpt>
      <trkpt lat="43.64962" lon="3.82602">
        <ele>115.35500032</ele>
        <time>2020-10-17T07:44:58.000Z</time>
      </trkpt>
      <trkpt lat="43.64964" lon="3.82602">
        <ele>115.45500032</ele>
        <time>2020-10-17T07:44:59.000Z</time>
      </trkpt>
      <trkpt lat="43.64966" lon="3.82602">
        <ele>115.55500032</ele>
        <time>2020-10-17T07:45:00.000Z</time>
      </trkpt>
      <trkpt lat="43.64968" lon="3.82601">
        <ele>115.65500032</ele>
        <time>2020-10-17T07:45:01.000Z</time>
      </trkpt>
      <trkpt lat="43.6497" lon="3.826">
        <ele>115.75500032</ele>
        <time>2020-10-17T07:45:02.000Z</time>
      </trkpt>
      <trkpt lat="43.64972" lon="3.82599">
        <ele>115.85500032</ele>
        <time>2020-10-17T07:45:03.000Z</time>
      </trkpt>
      <trkpt lat="43.64974" lon="3.82598">
        <ele>115.95500032</ele>
        <time>2020-10-17T07:45:04.000Z</time>
      </trkpt>
      <trkpt lat="43.64976" lon="3.82598">
        <ele>116.05500032</ele>
        <time>2020-10-17T07:45:05.000Z</time>
      </trkpt>
      <trkpt lat="43.64979" lon="3.82597">
        <ele>116.15500032</ele>
        <time>2020-10-17T07:45:06.000Z</time>
      </trkpt>
      <trkpt lat="43.64981" lon="3.82596">
        <ele>116.25500032</ele>
        <time>2020-10-17T07:45:07.000Z</time>
      </trkpt>
      <trkpt lat="43.64983" lon="3.82595">
        <ele>116.35500032</ele>
        <time>2020-10-17T07:45:08.000Z</time>
      </trkpt>
      <trkpt lat="43.64985" lon="3.82594">
        <ele>116.45500032</ele>
        <time>2020-10-17T07:45:09.000Z</time>
      </trkpt>
      <trkpt lat="43.64988" lon="3.82593">
        <ele>116.55500032</ele>
        <time>2020-10-17T07:45:10.000Z</time>
      </trkpt>
      <trkpt lat="43.6499" lon="3.82593">
        <ele>116.65500032</ele>
        <time>2020-10-17T07:45:11.000Z</time>
      </trkpt>
      <trkpt lat="43.64993" lon="3.82593">
        <ele>116.75500032</ele>
        <time>2020-10-17T07:45:12.000Z</time>
      </trkpt>
      <trkpt lat="43.64995" lon="3.82592">
        <ele>116.85500032</ele>
        <time>2020-10-17T07:45:13.000Z</time>
      </trkpt>
      <trkpt lat="43.64997" lon="3.82592">
        <ele>116.95500032</ele>
        <time>2020-10-17T07:45:14.000Z</time>
      </trkpt>
      <trkpt lat="43.65" lon="3.82592">
        <ele>117.05500032</ele>
        <time>2020-10-17T07:45:15.000Z</time>
      </trkpt>
      <trkpt lat="43.65002" lon="3.82592">
        <ele>117.15500032</ele>
        <time>2020-10-17T07:45:16.000Z</time>
      </trkpt>
      <trkpt lat="43.65004" lon="3.82592">
        <ele>117.25500032</ele>
        <time>2020-10-17T07:45:17.000Z</time>
      </trkpt>
      <trkpt lat="43.65007" lon="3.82592">
        <ele>117.35500032</ele>
        <time>2020-10-17T07:45:18.000Z</time>
      </trkpt>
      <trkpt lat="43.65009" lon="3.82591">
        <ele>117.45500032</ele>
        <time>2020-10-17T07:45:19.000Z</time>
      </trkpt>
      <trkpt lat="43.65012" lon="3.82591">
        <ele>117.55500032</ele>
        <time>2020-10-17T07:45:20.000Z</time>
      </trkpt>
      <trkpt lat="43.65014" lon="3.8259">
        <ele>117.65500032</ele>
        <time>2020-10-17T07:45:21.000Z</time>
      </trkpt>
      <trkpt lat="43.65016" lon="3.8259">
        <ele>117.75500032</ele>
        <time>2020-10-17T07:45:22.000Z</time>
      </trkpt>
      <trkpt lat="43.65019" lon="3.8259">
        <ele>117.85500032</ele>
        <time>2020-10-17T07:45:23.000Z</time>
      </trkpt>
      <trkpt lat="43.65021" lon="3.82589">
        <ele>117.95500032</ele>
        <time>2020-10-17T07:45:24.000Z</time>
      </trkpt>
      <trkpt lat="43.65023" lon="3.82589">
        <ele>118.05345027901</ele>
        <time>2020-10-17T07:45:25.000Z</time>
      </trkpt>
      <trkpt lat="43.65025" lon="3.82589">
        <ele>118.15063203907</ele>
        <time>2020-10-17T07:45:26.000Z</time>
      </trkpt>
      <trkpt lat="43.65028" lon="3.82588">
        <ele>118.24781379913</ele>
        <time>2020-10-17T07:45:27.000Z</time>
      </trkpt>
      <trkpt lat="43.6503" lon="3.82588">
        <ele>118.34499555918</ele>
        <time>2020-10-17T07:45:28.000Z</time>
      </trkpt>
      <trkpt lat="43.65032" lon="3.82587">
        <ele>118.44217731924</ele>
        <time>2020-10-17T07:45:29.000Z</time>
      </trkpt>
      <trkpt lat="43.65034" lon="3.82587">
        <ele>118.53935907929</ele>
        <time>2020-10-17T07:45:30.000Z</time>
      </trkpt>
      <trkpt lat="43.65036" lon="3.82587">
        <ele>118.63654083935</ele>
        <time>2020-10-17T07:45:31.000Z</time>
      </trkpt>
      <trkpt lat="43.65039" lon="3.82586">
        <ele>118.73372259941</ele>
        <time>2020-10-17T07:45:32.000Z</time>
      </trkpt>
      <trkpt lat="43.65041" lon="3.82586">
        <ele>118.83090435946</ele>
        <time>2020-10-17T07:45:33.000Z</time>
      </trkpt>
      <trkpt lat="43.65043" lon="3.82585">
        <ele>118.92808611952</ele>
        <time>2020-10-17T07:45:34.000Z</time>
      </trkpt>
      <trkpt lat="43.65045" lon="3.82584">
        <ele>119.02677716934</ele>
        <time>2020-10-17T07:45:35.000Z</time>
      </trkpt>
      <trkpt lat="43.65048" lon="3.82584">
        <ele>119.12976374714</ele>
        <time>2020-10-17T07:45:36.000Z</time>
      </trkpt>
      <trkpt lat="43.6505" lon="3.82583">
        <ele>119.23275032494</ele>
        <time>2020-10-17T07:45:37.000Z</time>
      </trkpt>
      <trkpt lat="43.65052" lon="3.82583">
        <ele>119.33573690274</ele>
        <time>2020-10-17T07:45:38.000Z</time>
      </trkpt>
      <trkpt lat="43.65055" lon="3.82582">
        <ele>119.43872348054</ele>
        <time>2020-10-17T07:45:39.000Z</time>
      </trkpt>
      <trkpt lat="43.65057" lon="3.82582">
        <ele>119.54171005835</ele>
        <time>2020-10-17T07:45:40.000Z</time>
      </trkpt>
      <trkpt lat="43.65059" lon="3.82582">
        <ele>119.64469663614</ele>
        <time>2020-10-17T07:45:41.000Z</time>
      </trkpt>
      <trkpt lat="43.65062" lon="3.82582">
        <ele>119.74768321395</ele>
        <time>2020-10-17T07:45:42.000Z</time>
      </trkpt>
      <trkpt lat="43.65064" lon="3.82581">
        <ele>119.85066979175</ele>
        <time>2020-10-17T07:45:43.000Z</time>
      </trkpt>
      <trkpt lat="43.65066" lon="3.82581">
        <ele>119.95365636955</ele>
        <time>2020-10-17T07:45:44.000Z</time>
      </trkpt>
      <trkpt lat="43.65069" lon="3.82581">
        <ele>120.05500032</ele>
        <time>2020-10-17T07:45:45.000Z</time>
      </trkpt>
      <trkpt lat="43.65071" lon="3.82581">
        <ele>120.15500032</ele>
        <time>2020-10-17T07:45:46.000Z</time>
      </trkpt>
      <trkpt lat="43.65073" lon="3.8258">
        <ele>120.25500032</ele>
        <time>2020-10-17T07:45:47.000Z</time>
      </trkpt>
      <trkpt lat="43.65076" lon="3.8258">
        <ele>120.35500032</ele>
        <time>2020-10-17T07:45:48.000Z</time>
      </trkpt>
      <trkpt lat="43.65078" lon="3.8258">
        <ele>120.45500032</ele>
        <time>2020-10-17T07:45:49.000Z</time>
      </trkpt>
      <trkpt lat="43.65081" lon="3.8258">
        <ele>120.55500032</ele>
        <time>2020-10-17T07:45:50.000Z</time>
      </trkpt>
      <trkpt lat="43.65083" lon="3.82579">
        <ele>120.65500032</ele>
        <time>2020-10-17T07:45:51.000Z</time>
      </trkpt>
      <trkpt lat="43.65085" lon="3.82578">
        <ele>120.75500032</ele>
        <time>2020-10-17T07:45:52.000Z</time>
      </trkpt>
      <trkpt lat="43.65088" lon="3.82578">
        <ele>120.85500032</ele>
        <time>2020-10-17T07:45:53.000Z</time>
      </trkpt>
      <trkpt lat="43.6509" lon="3.82577">
        <ele>120.95500032</ele>
        <time>2020-10-17T07:45:54.000Z</time>
      </trkpt>
      <trkpt lat="43.65092" lon="3.82577">
        <ele>121.05500032</ele>
        <time>2020-10-17T07:45:55.000Z</time>
      </trkpt>
      <trkpt lat="43.65095" lon="3.82575">
        <ele>121.15500032</ele>
        <time>2020-10-17T07:45:56.000Z</time>
      </trkpt>
      <trkpt lat="43.65097" lon="3.82574">
        <ele>121.25500032</ele>
        <time>2020-10-17T07:45:57.000Z</time>
      </trkpt>
      <trkpt lat="43.651" lon="3.82572">
        <ele>121.35500032</ele>
        <time>2020-10-17T07:45:58.000Z</time>
      </trkpt>
      <trkpt lat="43.65102" lon="3.82572">
        <ele>121.45500032</ele>
        <time>2020-10-17T07:45:59.000Z</time>
      </trkpt>
      <trkpt lat="43.65104" lon="3.82571">
        <ele>121.55500032</ele>
        <time>2020-10-17T07:46:00.000Z</time>
      </trkpt>
      <trkpt lat="43.65107" lon="3.82572">
        <ele>121.65500032</ele>
        <time>2020-10-17T07:46:01.000Z</time>
      </trkpt>
      <trkpt lat="43.65109" lon="3.82573">
        <ele>121.75500032</ele>
        <time>2020-10-17T07:46:02.000Z</time>
      </trkpt>
      <trkpt lat="43.65111" lon="3.82575">
        <ele>121.85500032</ele>
        <time>2020-10-17T07:46:03.000Z</time>
      </trkpt>
      <trkpt lat="43.65113" lon="3.82576">
        <ele>121.95500032</ele>
        <time>2020-10-17T07:46:04.000Z</time>
      </trkpt>
      <trkpt lat="43.65115" lon="3.82578">
        <ele>122</ele>
        <time>2020-10-17T07:46:05.000Z</time>
      </trkpt>
      <trkpt lat="43.65117" lon="3.8258">
        <ele>122</ele>
        <time>2020-10-17T07:46:06.000Z</time>
      </trkpt>
      <trkpt lat="43.65119" lon="3.82582">
        <ele>122</ele>
        <time>2020-10-17T07:46:07.000Z</time>
      </trkpt>
      <trkpt lat="43.65121" lon="3.82583">
        <ele>122</ele>
        <time>2020-10-17T07:46:08.000Z</time>
      </trkpt>
      <trkpt lat="43.65123" lon="3.82585">
        <ele>122</ele>
        <time>2020-10-17T07:46:09.000Z</time>
      </trkpt>
      <trkpt lat="43.65124" lon="3.82587">
        <ele>122</ele>
        <time>2020-10-17T07:46:10.000Z</time>
      </trkpt>
      <trkpt lat="43.65127" lon="3.82589">
        <ele>122</ele>
        <time>2020-10-17T07:46:11.000Z</time>
      </trkpt>
      <trkpt lat="43.65129" lon="3.82591">
        <ele>122</ele>
        <time>2020-10-17T07:46:12.000Z</time>
      </trkpt>
      <trkpt lat="43.65131" lon="3.82593">
        <ele>122</ele>
        <time>2020-10-17T07:46:13.000Z</time>
      </trkpt>
      <trkpt lat="43.65133" lon="3.82595">
        <ele>122</ele>
        <time>2020-10-17T07:46:14.000Z</time>
      </trkpt>
      <trkpt lat="43.65135" lon="3.82596">
        <ele>122.05405346536</ele>
        <time>2020-10-17T07:46:15.000Z</time>
      </trkpt>
      <trkpt lat="43.65137" lon="3.82598">
        <ele>122.15415366165</ele>
        <time>2020-10-17T07:46:16.000Z</time>
      </trkpt>
      <trkpt lat="43.6514" lon="3.826">
        <ele>122.25425385794</ele>
        <time>2020-10-17T07:46:17.000Z</time>
      </trkpt>
      <trkpt lat="43.65142" lon="3.82602">
        <ele>122.35435405423</ele>
        <time>2020-10-17T07:46:18.000Z</time>
      </trkpt>
      <trkpt lat="43.65144" lon="3.82603">
        <ele>122.45445425053</ele>
        <time>2020-10-17T07:46:19.000Z</time>
      </trkpt>
      <trkpt lat="43.65146" lon="3.82605">
        <ele>122.55455444682</ele>
        <time>2020-10-17T07:46:20.000Z</time>
      </trkpt>
      <trkpt lat="43.65148" lon="3.82607">
        <ele>122.65465464311</ele>
        <time>2020-10-17T07:46:21.000Z</time>
      </trkpt>
      <trkpt lat="43.6515" lon="3.82609">
        <ele>122.7547548394</ele>
        <time>2020-10-17T07:46:22.000Z</time>
      </trkpt>
      <trkpt lat="43.65153" lon="3.8261">
        <ele>122.8548550357</ele>
        <time>2020-10-17T07:46:23.000Z</time>
      </trkpt>
      <trkpt lat="43.65155" lon="3.82612">
        <ele>122.95495523199</ele>
        <time>2020-10-17T07:46:24.000Z</time>
      </trkpt>
      <trkpt lat="43.65157" lon="3.82613">
        <ele>123.05500032</ele>
        <time>2020-10-17T07:46:25.000Z</time>
      </trkpt>
      <trkpt lat="43.65159" lon="3.82615">
        <ele>123.15500032</ele>
        <time>2020-10-17T07:46:26.000Z</time>
      </trkpt>
      <trkpt lat="43.65161" lon="3.82616">
        <ele>123.25500032</ele>
        <time>2020-10-17T07:46:27.000Z</time>
      </trkpt>
      <trkpt lat="43.65164" lon="3.82617">
        <ele>123.35500032</ele>
        <time>2020-10-17T07:46:28.000Z</time>
      </trkpt>
      <trkpt lat="43.65166" lon="3.82618">
        <ele>123.45500032</ele>
        <time>2020-10-17T07:46:29.000Z</time>
      </trkpt>
      <trkpt lat="43.65168" lon="3.82619">
        <ele>123.55500032</ele>
        <time>2020-10-17T07:46:30.000Z</time>
      </trkpt>
      <trkpt lat="43.6517" lon="3.8262">
        <ele>123.65500032</ele>
        <time>2020-10-17T07:46:31.000Z</time>
      </trkpt>
      <trkpt lat="43.65172" lon="3.82622">
        <ele>123.75500032</ele>
        <time>2020-10-17T07:46:32.000Z</time>
      </trkpt>
      <trkpt lat="43.65175" lon="3.82623">
        <ele>123.85500032</ele>
        <time>2020-10-17T07:46:33.000Z</time>
      </trkpt>
      <trkpt lat="43.65176" lon="3.82625">
        <ele>123.95500032</ele>
        <time>2020-10-17T07:46:34.000Z</time>
      </trkpt>
      <trkpt lat="43.65179" lon="3.82627">
        <ele>124</ele>
        <time>2020-10-17T07:46:36.000Z</time>
      </trkpt>
      <trkpt lat="43.65181" lon="3.82629">
        <ele>124</ele>
        <time>2020-10-17T07:46:37.000Z</time>
      </trkpt>
      <trkpt lat="43.65183" lon="3.82631">
        <ele>124</ele>
        <time>2020-10-17T07:46:38.000Z</time>
      </trkpt>
      <trkpt lat="43.65185" lon="3.82632">
        <ele>124</ele>
        <time>2020-10-17T07:46:39.000Z</time>
      </trkpt>
      <trkpt lat="43.65187" lon="3.82634">
        <ele>124</ele>
        <time>2020-10-17T07:46:40.000Z</time>
      </trkpt>
      <trkpt lat="43.65189" lon="3.82636">
        <ele>124</ele>
        <time>2020-10-17T07:46:41.000Z</time>
      </trkpt>
      <trkpt lat="43.65191" lon="3.82638">
        <ele>124</ele>
        <time>2020-10-17T07:46:42.000Z</time>
      </trkpt>
      <trkpt lat="43.65193" lon="3.8264">
        <ele>124</ele>
        <time>2020-10-17T07:46:43.000Z</time>
      </trkpt>
      <trkpt lat="43.65195" lon="3.82642">
        <ele>124</ele>
        <time>2020-10-17T07:46:44.000Z</time>
      </trkpt>
      <trkpt lat="43.65197" lon="3.82644">
        <ele>124</ele>
        <time>2020-10-17T07:46:45.000Z</time>
      </trkpt>
      <trkpt lat="43.65199" lon="3.82646">
        <ele>124</ele>
        <time>2020-10-17T07:46:46.000Z</time>
      </trkpt>
      <trkpt lat="43.65201" lon="3.82648">
        <ele>124</ele>
        <time>2020-10-17T07:46:47.000Z</time>
      </trkpt>
      <trkpt lat="43.65203" lon="3.82649">
        <ele>124</ele>
        <time>2020-10-17T07:46:48.000Z</time>
      </trkpt>
      <trkpt lat="43.65204" lon="3.82651">
        <ele>124</ele>
        <time>2020-10-17T07:46:49.000Z</time>
      </trkpt>
      <trkpt lat="43.65206" lon="3.82652">
        <ele>124</ele>
        <time>2020-10-17T07:46:50.000Z</time>
      </trkpt>
      <trkpt lat="43.65208" lon="3.82654">
        <ele>124</ele>
        <time>2020-10-17T07:46:51.000Z</time>
      </trkpt>
      <trkpt lat="43.6521" lon="3.82655">
        <ele>124</ele>
        <time>2020-10-17T07:46:52.000Z</time>
      </trkpt>
      <trkpt lat="43.65212" lon="3.82657">
        <ele>124</ele>
        <time>2020-10-17T07:46:53.000Z</time>
      </trkpt>
      <trkpt lat="43.65214" lon="3.82659">
        <ele>124</ele>
        <time>2020-10-17T07:46:54.000Z</time>
      </trkpt>
      <trkpt lat="43.65216" lon="3.8266">
        <ele>124.05500032</ele>
        <time>2020-10-17T07:46:55.000Z</time>
      </trkpt>
      <trkpt lat="43.65219" lon="3.82662">
        <ele>124.15500032</ele>
        <time>2020-10-17T07:46:56.000Z</time>
      </trkpt>
      <trkpt lat="43.65221" lon="3.82663">
        <ele>124.25500032</ele>
        <time>2020-10-17T07:46:57.000Z</time>
      </trkpt>
      <trkpt lat="43.65223" lon="3.82664">
        <ele>124.35500032</ele>
        <time>2020-10-17T07:46:58.000Z</time>
      </trkpt>
      <trkpt lat="43.65226" lon="3.82664">
        <ele>124.45500032</ele>
        <time>2020-10-17T07:46:59.000Z</time>
      </trkpt>
      <trkpt lat="43.65228" lon="3.82663">
        <ele>124.55500032</ele>
        <time>2020-10-17T07:47:00.000Z</time>
      </trkpt>
      <trkpt lat="43.65229" lon="3.82662">
        <ele>124.65500032</ele>
        <time>2020-10-17T07:47:01.000Z</time>
      </trkpt>
      <trkpt lat="43.65231" lon="3.8266">
        <ele>124.75500032</ele>
        <time>2020-10-17T07:47:02.000Z</time>
      </trkpt>
      <trkpt lat="43.65231" lon="3.82657">
        <ele>124.85500032</ele>
        <time>2020-10-17T07:47:03.000Z</time>
      </trkpt>
      <trkpt lat="43.65232" lon="3.82654">
        <ele>124.95500032</ele>
        <time>2020-10-17T07:47:04.000Z</time>
      </trkpt>
      <trkpt lat="43.65233" lon="3.82651">
        <ele>125</ele>
        <time>2020-10-17T07:47:05.000Z</time>
      </trkpt>
      <trkpt lat="43.65233" lon="3.82648">
        <ele>125</ele>
        <time>2020-10-17T07:47:06.000Z</time>
      </trkpt>
      <trkpt lat="43.65235" lon="3.82645">
        <ele>125</ele>
        <time>2020-10-17T07:47:07.000Z</time>
      </trkpt>
      <trkpt lat="43.65237" lon="3.82642">
        <ele>125</ele>
        <time>2020-10-17T07:47:08.000Z</time>
      </trkpt>
      <trkpt lat="43.65238" lon="3.8264">
        <ele>125</ele>
        <time>2020-10-17T07:47:09.000Z</time>
      </trkpt>
      <trkpt lat="43.65241" lon="3.82639">
        <ele>125</ele>
        <time>2020-10-17T07:47:10.000Z</time>
      </trkpt>
      <trkpt lat="43.65243" lon="3.82639">
        <ele>125</ele>
        <time>2020-10-17T07:47:11.000Z</time>
      </trkpt>
      <trkpt lat="43.65245" lon="3.82639">
        <ele>125</ele>
        <time>2020-10-17T07:47:12.000Z</time>
      </trkpt>
      <trkpt lat="43.65248" lon="3.82639">
        <ele>125</ele>
        <time>2020-10-17T07:47:13.000Z</time>
      </trkpt>
      <trkpt lat="43.6525" lon="3.8264">
        <ele>125</ele>
        <time>2020-10-17T07:47:14.000Z</time>
      </trkpt>
      <trkpt lat="43.65252" lon="3.82641">
        <ele>125</ele>
        <time>2020-10-17T07:47:15.000Z</time>
      </trkpt>
      <trkpt lat="43.65255" lon="3.82642">
        <ele>125</ele>
        <time>2020-10-17T07:47:16.000Z</time>
      </trkpt>
      <trkpt lat="43.65257" lon="3.82643">
        <ele>125</ele>
        <time>2020-10-17T07:47:17.000Z</time>
      </trkpt>
      <trkpt lat="43.65259" lon="3.82644">
        <ele>125</ele>
        <time>2020-10-17T07:47:18.000Z</time>
      </trkpt>
      <trkpt lat="43.65261" lon="3.82645">
        <ele>125</ele>
        <time>2020-10-17T07:47:19.000Z</time>
      </trkpt>
      <trkpt lat="43.65264" lon="3.82647">
        <ele>125</ele>
        <time>2020-10-17T07:47:20.000Z</time>
      </trkpt>
      <trkpt lat="43.65267" lon="3.82649">
        <ele>125</ele>
        <time>2020-10-17T07:47:21.000Z</time>
      </trkpt>
      <trkpt lat="43.65269" lon="3.82651">
        <ele>125</ele>
        <time>2020-10-17T07:47:22.000Z</time>
      </trkpt>
      <trkpt lat="43.65271" lon="3.82653">
        <ele>125</ele>
        <time>2020-10-17T07:47:23.000Z</time>
      </trkpt>
      <trkpt lat="43.65274" lon="3.82654">
        <ele>125</ele>
        <time>2020-10-17T07:47:24.000Z</time>
      </trkpt>
      <trkpt lat="43.65277" lon="3.82657">
        <ele>125</ele>
        <time>2020-10-17T07:47:25.000Z</time>
      </trkpt>
      <trkpt lat="43.65279" lon="3.82659">
        <ele>125</ele>
        <time>2020-10-17T07:47:26.000Z</time>
      </trkpt>
      <trkpt lat="43.65282" lon="3.82661">
        <ele>125</ele>
        <time>2020-10-17T07:47:27.000Z</time>
      </trkpt>
      <trkpt lat="43.65284" lon="3.82663">
        <ele>125</ele>
        <time>2020-10-17T07:47:28.000Z</time>
      </trkpt>
      <trkpt lat="43.65287" lon="3.82664">
        <ele>125</ele>
        <time>2020-10-17T07:47:29.000Z</time>
      </trkpt>
      <trkpt lat="43.6529" lon="3.82666">
        <ele>125</ele>
        <time>2020-10-17T07:47:30.000Z</time>
      </trkpt>
      <trkpt lat="43.65292" lon="3.82668">
        <ele>125</ele>
        <time>2020-10-17T07:47:31.000Z</time>
      </trkpt>
      <trkpt lat="43.65294" lon="3.8267">
        <ele>125</ele>
        <time>2020-10-17T07:47:32.000Z</time>
      </trkpt>
      <trkpt lat="43.65296" lon="3.82671">
        <ele>125</ele>
        <time>2020-10-17T07:47:33.000Z</time>
      </trkpt>
      <trkpt lat="43.65298" lon="3.82672">
        <ele>125</ele>
        <time>2020-10-17T07:47:34.000Z</time>
      </trkpt>
      <trkpt lat="43.653" lon="3.82674">
        <ele>125.05489050386</ele>
        <time>2020-10-17T07:47:35.000Z</time>
      </trkpt>
      <trkpt lat="43.65302" lon="3.82675">
        <ele>125.15469083932</ele>
        <time>2020-10-17T07:47:36.000Z</time>
      </trkpt>
      <trkpt lat="43.65304" lon="3.82677">
        <ele>125.25449117478</ele>
        <time>2020-10-17T07:47:37.000Z</time>
      </trkpt>
      <trkpt lat="43.65306" lon="3.82678">
        <ele>125.35429151023</ele>
        <time>2020-10-17T07:47:38.000Z</time>
      </trkpt>
      <trkpt lat="43.65308" lon="3.8268">
        <ele>125.45409184569</ele>
        <time>2020-10-17T07:47:39.000Z</time>
      </trkpt>
      <trkpt lat="43.6531" lon="3.82682">
        <ele>125.55389218115</ele>
        <time>2020-10-17T07:47:40.000Z</time>
      </trkpt>
      <trkpt lat="43.65312" lon="3.82684">
        <ele>125.6536925166</ele>
        <time>2020-10-17T07:47:41.000Z</time>
      </trkpt>
      <trkpt lat="43.65314" lon="3.82685">
        <ele>125.75349285206</ele>
        <time>2020-10-17T07:47:42.000Z</time>
      </trkpt>
      <trkpt lat="43.65316" lon="3.82687">
        <ele>125.85329318752</ele>
        <time>2020-10-17T07:47:43.000Z</time>
      </trkpt>
      <trkpt lat="43.65317" lon="3.82689">
        <ele>125.95309352297</ele>
        <time>2020-10-17T07:47:44.000Z</time>
      </trkpt>
      <trkpt lat="43.65319" lon="3.82691">
        <ele>126</ele>
        <time>2020-10-17T07:47:45.000Z</time>
      </trkpt>
      <trkpt lat="43.65321" lon="3.82692">
        <ele>126</ele>
        <time>2020-10-17T07:47:46.000Z</time>
      </trkpt>
      <trkpt lat="43.65323" lon="3.82694">
        <ele>126</ele>
        <time>2020-10-17T07:47:47.000Z</time>
      </trkpt>
      <trkpt lat="43.65325" lon="3.82695">
        <ele>126</ele>
        <time>2020-10-17T07:47:48.000Z</time>
      </trkpt>
      <trkpt lat="43.65327" lon="3.82696">
        <ele>126</ele>
        <time>2020-10-17T07:47:49.000Z</time>
      </trkpt>
      <trkpt lat="43.65329" lon="3.82697">
        <ele>126</ele>
        <time>2020-10-17T07:47:50.000Z</time>
      </trkpt>
      <trkpt lat="43.65331" lon="3.82699">
        <ele>126</ele>
        <time>2020-10-17T07:47:51.000Z</time>
      </trkpt>
      <trkpt lat="43.65333" lon="3.827">
        <ele>126</ele>
        <time>2020-10-17T07:47:52.000Z</time>
      </trkpt>
      <trkpt lat="43.65335" lon="3.82702">
        <ele>126</ele>
        <time>2020-10-17T07:47:53.000Z</time>
      </trkpt>
      <trkpt lat="43.65337" lon="3.82703">
        <ele>126</ele>
        <time>2020-10-17T07:47:54.000Z</time>
      </trkpt>
      <trkpt lat="43.65339" lon="3.82704">
        <ele>126</ele>
        <time>2020-10-17T07:47:55.000Z</time>
      </trkpt>
      <trkpt lat="43.65341" lon="3.82705">
        <ele>126</ele>
        <time>2020-10-17T07:47:56.000Z</time>
      </trkpt>
      <trkpt lat="43.65343" lon="3.82705">
        <ele>126</ele>
        <time>2020-10-17T07:47:57.000Z</time>
      </trkpt>
      <trkpt lat="43.65345" lon="3.82706">
        <ele>126</ele>
        <time>2020-10-17T07:47:58.000Z</time>
      </trkpt>
      <trkpt lat="43.65347" lon="3.82707">
        <ele>126</ele>
        <time>2020-10-17T07:47:59.000Z</time>
      </trkpt>
      <trkpt lat="43.65349" lon="3.82708">
        <ele>126</ele>
        <time>2020-10-17T07:48:00.000Z</time>
      </trkpt>
      <trkpt lat="43.65351" lon="3.82708">
        <ele>126</ele>
        <time>2020-10-17T07:48:01.000Z</time>
      </trkpt>
      <trkpt lat="43.65353" lon="3.82709">
        <ele>126</ele>
        <time>2020-10-17T07:48:02.000Z</time>
      </trkpt>
      <trkpt lat="43.65355" lon="3.82711">
        <ele>126</ele>
        <time>2020-10-17T07:48:03.000Z</time>
      </trkpt>
      <trkpt lat="43.65357" lon="3.82713">
        <ele>126</ele>
        <time>2020-10-17T07:48:04.000Z</time>
      </trkpt>
      <trkpt lat="43.65359" lon="3.82715">
        <ele>126</ele>
        <time>2020-10-17T07:48:05.000Z</time>
      </trkpt>
      <trkpt lat="43.65361" lon="3.82717">
        <ele>126</ele>
        <time>2020-10-17T07:48:06.000Z</time>
      </trkpt>
      <trkpt lat="43.65363" lon="3.82719">
        <ele>126</ele>
        <time>2020-10-17T07:48:07.000Z</time>
      </trkpt>
      <trkpt lat="43.65365" lon="3.82719">
        <ele>126</ele>
        <time>2020-10-17T07:48:08.000Z</time>
      </trkpt>
      <trkpt lat="43.65368" lon="3.8272">
        <ele>126</ele>
        <time>2020-10-17T07:48:09.000Z</time>
      </trkpt>
      <trkpt lat="43.6537" lon="3.8272">
        <ele>126</ele>
        <time>2020-10-17T07:48:10.000Z</time>
      </trkpt>
      <trkpt lat="43.65372" lon="3.8272">
        <ele>126</ele>
        <time>2020-10-17T07:48:11.000Z</time>
      </trkpt>
      <trkpt lat="43.65374" lon="3.82721">
        <ele>126</ele>
        <time>2020-10-17T07:48:12.000Z</time>
      </trkpt>
      <trkpt lat="43.65376" lon="3.82722">
        <ele>126</ele>
        <time>2020-10-17T07:48:13.000Z</time>
      </trkpt>
      <trkpt lat="43.65379" lon="3.82723">
        <ele>126</ele>
        <time>2020-10-17T07:48:14.000Z</time>
      </trkpt>
      <trkpt lat="43.65381" lon="3.82723">
        <ele>126.05500032</ele>
        <time>2020-10-17T07:48:15.000Z</time>
      </trkpt>
      <trkpt lat="43.65384" lon="3.82725">
        <ele>126.15500032</ele>
        <time>2020-10-17T07:48:16.000Z</time>
      </trkpt>
      <trkpt lat="43.65387" lon="3.82726">
        <ele>126.25500032</ele>
        <time>2020-10-17T07:48:17.000Z</time>
      </trkpt>
      <trkpt lat="43.65389" lon="3.82727">
        <ele>126.35500032</ele>
        <time>2020-10-17T07:48:18.000Z</time>
      </trkpt>
      <trkpt lat="43.65392" lon="3.82729">
        <ele>126.45500032</ele>
        <time>2020-10-17T07:48:19.000Z</time>
      </trkpt>
      <trkpt lat="43.65394" lon="3.8273">
        <ele>126.55500032</ele>
        <time>2020-10-17T07:48:20.000Z</time>
      </trkpt>
      <trkpt lat="43.65396" lon="3.82731">
        <ele>126.65500032</ele>
        <time>2020-10-17T07:48:21.000Z</time>
      </trkpt>
      <trkpt lat="43.65398" lon="3.82733">
        <ele>126.75500032</ele>
        <time>2020-10-17T07:48:22.000Z</time>
      </trkpt>
      <trkpt lat="43.654" lon="3.82735">
        <ele>126.85500032</ele>
        <time>2020-10-17T07:48:23.000Z</time>
      </trkpt>
      <trkpt lat="43.65402" lon="3.82737">
        <ele>126.95500032</ele>
        <time>2020-10-17T07:48:24.000Z</time>
      </trkpt>
      <trkpt lat="43.65404" lon="3.82739">
        <ele>127.05500032</ele>
        <time>2020-10-17T07:48:25.000Z</time>
      </trkpt>
      <trkpt lat="43.65406" lon="3.8274">
        <ele>127.15500032</ele>
        <time>2020-10-17T07:48:26.000Z</time>
      </trkpt>
      <trkpt lat="43.65409" lon="3.82742">
        <ele>127.25500032</ele>
        <time>2020-10-17T07:48:27.000Z</time>
      </trkpt>
      <trkpt lat="43.65411" lon="3.82744">
        <ele>127.35500032</ele>
        <time>2020-10-17T07:48:28.000Z</time>
      </trkpt>
      <trkpt lat="43.65414" lon="3.82745">
        <ele>127.45500032</ele>
        <time>2020-10-17T07:48:29.000Z</time>
      </trkpt>
      <trkpt lat="43.65416" lon="3.82747">
        <ele>127.55500032</ele>
        <time>2020-10-17T07:48:30.000Z</time>
      </trkpt>
      <trkpt lat="43.65418" lon="3.82749">
        <ele>127.65500032</ele>
        <time>2020-10-17T07:48:31.000Z</time>
      </trkpt>
      <trkpt lat="43.65419" lon="3.82751">
        <ele>127.75500032</ele>
        <time>2020-10-17T07:48:32.000Z</time>
      </trkpt>
      <trkpt lat="43.65421" lon="3.82753">
        <ele>127.85500032</ele>
        <time>2020-10-17T07:48:33.000Z</time>
      </trkpt>
      <trkpt lat="43.65423" lon="3.82755">
        <ele>127.95500032</ele>
        <time>2020-10-17T07:48:34.000Z</time>
      </trkpt>
      <trkpt lat="43.65425" lon="3.82757">
        <ele>128</ele>
        <time>2020-10-17T07:48:35.000Z</time>
      </trkpt>
      <trkpt lat="43.65427" lon="3.8276">
        <ele>128</ele>
        <time>2020-10-17T07:48:36.000Z</time>
      </trkpt>
      <trkpt lat="43.65429" lon="3.82761">
        <ele>128</ele>
        <time>2020-10-17T07:48:37.000Z</time>
      </trkpt>
      <trkpt lat="43.65431" lon="3.82764">
        <ele>128</ele>
        <time>2020-10-17T07:48:38.000Z</time>
      </trkpt>
      <trkpt lat="43.65433" lon="3.82766">
        <ele>128</ele>
        <time>2020-10-17T07:48:39.000Z</time>
      </trkpt>
      <trkpt lat="43.65435" lon="3.82768">
        <ele>128</ele>
        <time>2020-10-17T07:48:40.000Z</time>
      </trkpt>
      <trkpt lat="43.65438" lon="3.82769">
        <ele>128</ele>
        <time>2020-10-17T07:48:41.000Z</time>
      </trkpt>
      <trkpt lat="43.6544" lon="3.82769">
        <ele>128</ele>
        <time>2020-10-17T07:48:42.000Z</time>
      </trkpt>
      <trkpt lat="43.65442" lon="3.82769">
        <ele>128</ele>
        <time>2020-10-17T07:48:43.000Z</time>
      </trkpt>
      <trkpt lat="43.65444" lon="3.82769">
        <ele>128</ele>
        <time>2020-10-17T07:48:44.000Z</time>
      </trkpt>
      <trkpt lat="43.65447" lon="3.8277">
        <ele>128</ele>
        <time>2020-10-17T07:48:45.000Z</time>
      </trkpt>
      <trkpt lat="43.65449" lon="3.8277">
        <ele>128</ele>
        <time>2020-10-17T07:48:46.000Z</time>
      </trkpt>
      <trkpt lat="43.65452" lon="3.8277">
        <ele>128</ele>
        <time>2020-10-17T07:48:47.000Z</time>
      </trkpt>
      <trkpt lat="43.65454" lon="3.8277">
        <ele>128</ele>
        <time>2020-10-17T07:48:48.000Z</time>
      </trkpt>
      <trkpt lat="43.65456" lon="3.82771">
        <ele>128</ele>
        <time>2020-10-17T07:48:49.000Z</time>
      </trkpt>
      <trkpt lat="43.65458" lon="3.82772">
        <ele>128</ele>
        <time>2020-10-17T07:48:50.000Z</time>
      </trkpt>
      <trkpt lat="43.6546" lon="3.82772">
        <ele>128</ele>
        <time>2020-10-17T07:48:51.000Z</time>
      </trkpt>
      <trkpt lat="43.65463" lon="3.82773">
        <ele>128</ele>
        <time>2020-10-17T07:48:52.000Z</time>
      </trkpt>
      <trkpt lat="43.65465" lon="3.82774">
        <ele>128</ele>
        <time>2020-10-17T07:48:53.000Z</time>
      </trkpt>
      <trkpt lat="43.65466" lon="3.82777">
        <ele>128</ele>
        <time>2020-10-17T07:48:54.000Z</time>
      </trkpt>
      <trkpt lat="43.65469" lon="3.8278">
        <ele>128</ele>
        <time>2020-10-17T07:48:56.000Z</time>
      </trkpt>
      <trkpt lat="43.65471" lon="3.82784">
        <ele>128</ele>
        <time>2020-10-17T07:48:58.000Z</time>
      </trkpt>
      <trkpt lat="43.65472" lon="3.82786">
        <ele>128</ele>
        <time>2020-10-17T07:48:59.000Z</time>
      </trkpt>
      <trkpt lat="43.65474" lon="3.8279">
        <ele>128</ele>
        <time>2020-10-17T07:49:01.000Z</time>
      </trkpt>
      <trkpt lat="43.65475" lon="3.82791">
        <ele>128</ele>
        <time>2020-10-17T07:49:02.000Z</time>
      </trkpt>
      <trkpt lat="43.65477" lon="3.82792">
        <ele>128</ele>
        <time>2020-10-17T07:49:03.000Z</time>
      </trkpt>
      <trkpt lat="43.65479" lon="3.82794">
        <ele>128</ele>
        <time>2020-10-17T07:49:04.000Z</time>
      </trkpt>
      <trkpt lat="43.65481" lon="3.82797">
        <ele>128</ele>
        <time>2020-10-17T07:49:05.000Z</time>
      </trkpt>
      <trkpt lat="43.65482" lon="3.82799">
        <ele>128</ele>
        <time>2020-10-17T07:49:06.000Z</time>
      </trkpt>
      <trkpt lat="43.65484" lon="3.82802">
        <ele>128</ele>
        <time>2020-10-17T07:49:07.000Z</time>
      </trkpt>
      <trkpt lat="43.65485" lon="3.82804">
        <ele>128</ele>
        <time>2020-10-17T07:49:08.000Z</time>
      </trkpt>
      <trkpt lat="43.65488" lon="3.82806">
        <ele>128</ele>
        <time>2020-10-17T07:49:10.000Z</time>
      </trkpt>
      <trkpt lat="43.6549" lon="3.82807">
        <ele>128</ele>
        <time>2020-10-17T07:49:11.000Z</time>
      </trkpt>
      <trkpt lat="43.65492" lon="3.82808">
        <ele>128</ele>
        <time>2020-10-17T07:49:12.000Z</time>
      </trkpt>
      <trkpt lat="43.65495" lon="3.82809">
        <ele>128</ele>
        <time>2020-10-17T07:49:14.000Z</time>
      </trkpt>
      <trkpt lat="43.65496" lon="3.82811">
        <ele>128</ele>
        <time>2020-10-17T07:49:16.000Z</time>
      </trkpt>
      <trkpt lat="43.65497" lon="3.82813">
        <ele>128</ele>
        <time>2020-10-17T07:49:17.000Z</time>
      </trkpt>
      <trkpt lat="43.65498" lon="3.82817">
        <ele>128</ele>
        <time>2020-10-17T07:49:18.000Z</time>
      </trkpt>
      <trkpt lat="43.65498" lon="3.8282">
        <ele>128</ele>
        <time>2020-10-17T07:49:19.000Z</time>
      </trkpt>
      <trkpt lat="43.65498" lon="3.82823">
        <ele>128</ele>
        <time>2020-10-17T07:49:20.000Z</time>
      </trkpt>
      <trkpt lat="43.65499" lon="3.82826">
        <ele>128</ele>
        <time>2020-10-17T07:49:21.000Z</time>
      </trkpt>
      <trkpt lat="43.65499" lon="3.82829">
        <ele>128</ele>
        <time>2020-10-17T07:49:22.000Z</time>
      </trkpt>
      <trkpt lat="43.655" lon="3.82832">
        <ele>128</ele>
        <time>2020-10-17T07:49:23.000Z</time>
      </trkpt>
      <trkpt lat="43.65501" lon="3.82835">
        <ele>128</ele>
        <time>2020-10-17T07:49:24.000Z</time>
      </trkpt>
      <trkpt lat="43.65502" lon="3.82837">
        <ele>128.13563575413</ele>
        <time>2020-10-17T07:49:25.000Z</time>
      </trkpt>
      <trkpt lat="43.65503" lon="3.8284">
        <ele>128.62885380859</ele>
        <time>2020-10-17T07:49:27.000Z</time>
      </trkpt>
      <trkpt lat="43.65502" lon="3.82841">
        <ele>129.86189894475</ele>
        <time>2020-10-17T07:49:32.000Z</time>
      </trkpt>
      <trkpt lat="43.65506" lon="3.82853">
        <ele>131.99264672269</ele>
        <time>2020-10-17T07:50:42.000Z</time>
      </trkpt>
      <trkpt lat="43.65505" lon="3.82855">
        <ele>131.88760470588</ele>
        <time>2020-10-17T07:50:43.000Z</time>
      </trkpt>
      <trkpt lat="43.65504" lon="3.82857">
        <ele>131.78256268908</ele>
        <time>2020-10-17T07:50:44.000Z</time>
      </trkpt>
      <trkpt lat="43.65502" lon="3.8286">
        <ele>131.57247865546</ele>
        <time>2020-10-17T07:50:46.000Z</time>
      </trkpt>
      <trkpt lat="43.655" lon="3.82862">
        <ele>131.36239462185</ele>
        <time>2020-10-17T07:50:48.000Z</time>
      </trkpt>
      <trkpt lat="43.65498" lon="3.82864">
        <ele>131.25735260504</ele>
        <time>2020-10-17T07:50:49.000Z</time>
      </trkpt>
      <trkpt lat="43.65496" lon="3.82866">
        <ele>131.15231058823</ele>
        <time>2020-10-17T07:50:50.000Z</time>
      </trkpt>
      <trkpt lat="43.65494" lon="3.82867">
        <ele>131.04726857143</ele>
        <time>2020-10-17T07:50:51.000Z</time>
      </trkpt>
      <trkpt lat="43.65492" lon="3.82869">
        <ele>131</ele>
        <time>2020-10-17T07:50:52.000Z</time>
      </trkpt>
      <trkpt lat="43.6549" lon="3.8287">
        <ele>131</ele>
        <time>2020-10-17T07:50:53.000Z</time>
      </trkpt>
      <trkpt lat="43.65487" lon="3.82873">
        <ele>131</ele>
        <time>2020-10-17T07:50:54.000Z</time>
      </trkpt>
      <trkpt lat="43.65485" lon="3.82876">
        <ele>131</ele>
        <time>2020-10-17T07:50:55.000Z</time>
      </trkpt>
      <trkpt lat="43.65483" lon="3.82879">
        <ele>131</ele>
        <time>2020-10-17T07:50:56.000Z</time>
      </trkpt>
      <trkpt lat="43.65482" lon="3.82882">
        <ele>131</ele>
        <time>2020-10-17T07:50:57.000Z</time>
      </trkpt>
      <trkpt lat="43.6548" lon="3.82885">
        <ele>131</ele>
        <time>2020-10-17T07:50:58.000Z</time>
      </trkpt>
      <trkpt lat="43.65478" lon="3.82888">
        <ele>131</ele>
        <time>2020-10-17T07:50:59.000Z</time>
      </trkpt>
      <trkpt lat="43.65476" lon="3.82891">
        <ele>131</ele>
        <time>2020-10-17T07:51:00.000Z</time>
      </trkpt>
      <trkpt lat="43.65474" lon="3.82893">
        <ele>131</ele>
        <time>2020-10-17T07:51:01.000Z</time>
      </trkpt>
      <trkpt lat="43.65472" lon="3.82896">
        <ele>130.972221893</ele>
        <time>2020-10-17T07:51:02.000Z</time>
      </trkpt>
      <trkpt lat="43.65468" lon="3.82898">
        <ele>130.86934123457</ele>
        <time>2020-10-17T07:51:03.000Z</time>
      </trkpt>
      <trkpt lat="43.65465" lon="3.82898">
        <ele>130.76646057613</ele>
        <time>2020-10-17T07:51:04.000Z</time>
      </trkpt>
      <trkpt lat="43.6546" lon="3.82898">
        <ele>130.66357991769</ele>
        <time>2020-10-17T07:51:05.000Z</time>
      </trkpt>
      <trkpt lat="43.65456" lon="3.82899">
        <ele>130.56069925926</ele>
        <time>2020-10-17T07:51:06.000Z</time>
      </trkpt>
      <trkpt lat="43.65451" lon="3.829">
        <ele>130.45781860082</ele>
        <time>2020-10-17T07:51:07.000Z</time>
      </trkpt>
      <trkpt lat="43.65446" lon="3.82902">
        <ele>130.35493794239</ele>
        <time>2020-10-17T07:51:08.000Z</time>
      </trkpt>
      <trkpt lat="43.65441" lon="3.82903">
        <ele>130.25205728395</ele>
        <time>2020-10-17T07:51:09.000Z</time>
      </trkpt>
      <trkpt lat="43.65437" lon="3.82905">
        <ele>130.14917662551</ele>
        <time>2020-10-17T07:51:10.000Z</time>
      </trkpt>
      <trkpt lat="43.65431" lon="3.82906">
        <ele>130.04629596708</ele>
        <time>2020-10-17T07:51:11.000Z</time>
      </trkpt>
      <trkpt lat="43.65427" lon="3.82908">
        <ele>130</ele>
        <time>2020-10-17T07:51:12.000Z</time>
      </trkpt>
      <trkpt lat="43.65423" lon="3.82913">
        <ele>130</ele>
        <time>2020-10-17T07:51:13.000Z</time>
      </trkpt>
      <trkpt lat="43.65421" lon="3.82917">
        <ele>130</ele>
        <time>2020-10-17T07:51:14.000Z</time>
      </trkpt>
      <trkpt lat="43.65418" lon="3.82922">
        <ele>130</ele>
        <time>2020-10-17T07:51:15.000Z</time>
      </trkpt>
      <trkpt lat="43.65417" lon="3.82926">
        <ele>130</ele>
        <time>2020-10-17T07:51:16.000Z</time>
      </trkpt>
      <trkpt lat="43.65416" lon="3.8293">
        <ele>130</ele>
        <time>2020-10-17T07:51:17.000Z</time>
      </trkpt>
      <trkpt lat="43.65415" lon="3.82933">
        <ele>130</ele>
        <time>2020-10-17T07:51:18.000Z</time>
      </trkpt>
      <trkpt lat="43.65414" lon="3.82936">
        <ele>130</ele>
        <time>2020-10-17T07:51:19.000Z</time>
      </trkpt>
      <trkpt lat="43.65414" lon="3.82939">
        <ele>130</ele>
        <time>2020-10-17T07:51:20.000Z</time>
      </trkpt>
      <trkpt lat="43.65415" lon="3.82942">
        <ele>130</ele>
        <time>2020-10-17T07:51:21.000Z</time>
      </trkpt>
      <trkpt lat="43.65415" lon="3.82946">
        <ele>130</ele>
        <time>2020-10-17T07:51:22.000Z</time>
      </trkpt>
      <trkpt lat="43.65415" lon="3.82949">
        <ele>130</ele>
        <time>2020-10-17T07:51:23.000Z</time>
      </trkpt>
      <trkpt lat="43.65413" lon="3.82951">
        <ele>130</ele>
        <time>2020-10-17T07:51:24.000Z</time>
      </trkpt>
      <trkpt lat="43.65411" lon="3.82952">
        <ele>130</ele>
        <time>2020-10-17T07:51:25.000Z</time>
      </trkpt>
      <trkpt lat="43.65408" lon="3.82954">
        <ele>130</ele>
        <time>2020-10-17T07:51:26.000Z</time>
      </trkpt>
      <trkpt lat="43.65406" lon="3.82957">
        <ele>130</ele>
        <time>2020-10-17T07:51:27.000Z</time>
      </trkpt>
      <trkpt lat="43.65404" lon="3.82959">
        <ele>130</ele>
        <time>2020-10-17T07:51:28.000Z</time>
      </trkpt>
      <trkpt lat="43.65402" lon="3.8296">
        <ele>130</ele>
        <time>2020-10-17T07:51:29.000Z</time>
      </trkpt>
      <trkpt lat="43.654" lon="3.82963">
        <ele>130</ele>
        <time>2020-10-17T07:51:30.000Z</time>
      </trkpt>
      <trkpt lat="43.654" lon="3.82966">
        <ele>130</ele>
        <time>2020-10-17T07:51:31.000Z</time>
      </trkpt>
      <trkpt lat="43.654" lon="3.8297">
        <ele>130</ele>
        <time>2020-10-17T07:51:32.000Z</time>
      </trkpt>
      <trkpt lat="43.65401" lon="3.82974">
        <ele>130</ele>
        <time>2020-10-17T07:51:33.000Z</time>
      </trkpt>
      <trkpt lat="43.65402" lon="3.82977">
        <ele>130</ele>
        <time>2020-10-17T07:51:34.000Z</time>
      </trkpt>
      <trkpt lat="43.65404" lon="3.8298">
        <ele>130</ele>
        <time>2020-10-17T07:51:35.000Z</time>
      </trkpt>
      <trkpt lat="43.65406" lon="3.82983">
        <ele>130</ele>
        <time>2020-10-17T07:51:36.000Z</time>
      </trkpt>
      <trkpt lat="43.65408" lon="3.82985">
        <ele>130</ele>
        <time>2020-10-17T07:51:37.000Z</time>
      </trkpt>
      <trkpt lat="43.6541" lon="3.82988">
        <ele>130</ele>
        <time>2020-10-17T07:51:38.000Z</time>
      </trkpt>
      <trkpt lat="43.65411" lon="3.82991">
        <ele>130</ele>
        <time>2020-10-17T07:51:39.000Z</time>
      </trkpt>
      <trkpt lat="43.65413" lon="3.82993">
        <ele>130</ele>
        <time>2020-10-17T07:51:40.000Z</time>
      </trkpt>
      <trkpt lat="43.65414" lon="3.82996">
        <ele>130</ele>
        <time>2020-10-17T07:51:41.000Z</time>
      </trkpt>
      <trkpt lat="43.65416" lon="3.82999">
        <ele>130.05500032</ele>
        <time>2020-10-17T07:51:42.000Z</time>
      </trkpt>
      <trkpt lat="43.65418" lon="3.83001">
        <ele>130.15500032</ele>
        <time>2020-10-17T07:51:43.000Z</time>
      </trkpt>
      <trkpt lat="43.6542" lon="3.83002">
        <ele>130.25500032</ele>
        <time>2020-10-17T07:51:44.000Z</time>
      </trkpt>
      <trkpt lat="43.65422" lon="3.83003">
        <ele>130.35500032</ele>
        <time>2020-10-17T07:51:45.000Z</time>
      </trkpt>
      <trkpt lat="43.65424" lon="3.83005">
        <ele>130.55500032</ele>
        <time>2020-10-17T07:51:47.000Z</time>
      </trkpt>
      <trkpt lat="43.65426" lon="3.83007">
        <ele>130.85500032</ele>
        <time>2020-10-17T07:51:50.000Z</time>
      </trkpt>
      <trkpt lat="43.65428" lon="3.83008">
        <ele>131</ele>
        <time>2020-10-17T07:51:52.000Z</time>
      </trkpt>
      <trkpt lat="43.65431" lon="3.83008">
        <ele>131</ele>
        <time>2020-10-17T07:51:54.000Z</time>
      </trkpt>
      <trkpt lat="43.65432" lon="3.8301">
        <ele>131</ele>
        <time>2020-10-17T07:51:55.000Z</time>
      </trkpt>
      <trkpt lat="43.65435" lon="3.83013">
        <ele>131</ele>
        <time>2020-10-17T07:51:57.000Z</time>
      </trkpt>
      <trkpt lat="43.65438" lon="3.83011">
        <ele>131</ele>
        <time>2020-10-17T07:51:59.000Z</time>
      </trkpt>
      <trkpt lat="43.65439" lon="3.83008">
        <ele>131</ele>
        <time>2020-10-17T07:52:00.000Z</time>
      </trkpt>
      <trkpt lat="43.65442" lon="3.83007">
        <ele>131</ele>
        <time>2020-10-17T07:52:01.000Z</time>
      </trkpt>
      <trkpt lat="43.65446" lon="3.83006">
        <ele>130.94499968</ele>
        <time>2020-10-17T07:52:02.000Z</time>
      </trkpt>
      <trkpt lat="43.65449" lon="3.83005">
        <ele>130.84499968</ele>
        <time>2020-10-17T07:52:03.000Z</time>
      </trkpt>
      <trkpt lat="43.65454" lon="3.83005">
        <ele>130.74499968</ele>
        <time>2020-10-17T07:52:04.000Z</time>
      </trkpt>
      <trkpt lat="43.65458" lon="3.83006">
        <ele>130.64499968</ele>
        <time>2020-10-17T07:52:05.000Z</time>
      </trkpt>
      <trkpt lat="43.65463" lon="3.83005">
        <ele>130.54499968</ele>
        <time>2020-10-17T07:52:06.000Z</time>
      </trkpt>
      <trkpt lat="43.65467" lon="3.83003">
        <ele>130.44499968</ele>
        <time>2020-10-17T07:52:07.000Z</time>
      </trkpt>
      <trkpt lat="43.65471" lon="3.83001">
        <ele>130.34499968</ele>
        <time>2020-10-17T07:52:08.000Z</time>
      </trkpt>
      <trkpt lat="43.65475" lon="3.83001">
        <ele>130.24499968</ele>
        <time>2020-10-17T07:52:09.000Z</time>
      </trkpt>
      <trkpt lat="43.65477" lon="3.83002">
        <ele>130.14499968</ele>
        <time>2020-10-17T07:52:10.000Z</time>
      </trkpt>
      <trkpt lat="43.65478" lon="3.83004">
        <ele>130</ele>
        <time>2020-10-17T07:52:12.000Z</time>
      </trkpt>
      <trkpt lat="43.65481" lon="3.83008">
        <ele>129.93708516644</ele>
        <time>2020-10-17T07:52:17.000Z</time>
      </trkpt>
      <trkpt lat="43.65492" lon="3.83018">
        <ele>129</ele>
        <time>2020-10-17T07:52:20.000Z</time>
      </trkpt>
      <trkpt lat="43.65496" lon="3.83019">
        <ele>129</ele>
        <time>2020-10-17T07:52:21.000Z</time>
      </trkpt>
      <trkpt lat="43.655" lon="3.83022">
        <ele>129</ele>
        <time>2020-10-17T07:52:22.000Z</time>
      </trkpt>
      <trkpt lat="43.65504" lon="3.83026">
        <ele>129</ele>
        <time>2020-10-17T07:52:23.000Z</time>
      </trkpt>
      <trkpt lat="43.65506" lon="3.8303">
        <ele>129</ele>
        <time>2020-10-17T07:52:24.000Z</time>
      </trkpt>
      <trkpt lat="43.65509" lon="3.83035">
        <ele>129</ele>
        <time>2020-10-17T07:52:25.000Z</time>
      </trkpt>
      <trkpt lat="43.65511" lon="3.8304">
        <ele>129</ele>
        <time>2020-10-17T07:52:26.000Z</time>
      </trkpt>
      <trkpt lat="43.65514" lon="3.83044">
        <ele>129</ele>
        <time>2020-10-17T07:52:27.000Z</time>
      </trkpt>
      <trkpt lat="43.65517" lon="3.83048">
        <ele>129</ele>
        <time>2020-10-17T07:52:28.000Z</time>
      </trkpt>
      <trkpt lat="43.6552" lon="3.83051">
        <ele>129</ele>
        <time>2020-10-17T07:52:29.000Z</time>
      </trkpt>
      <trkpt lat="43.65523" lon="3.83055">
        <ele>128.89299548638</ele>
        <time>2020-10-17T07:52:30.000Z</time>
      </trkpt>
      <trkpt lat="43.65526" lon="3.83059">
        <ele>128.6984429572</ele>
        <time>2020-10-17T07:52:31.000Z</time>
      </trkpt>
      <trkpt lat="43.6553" lon="3.83064">
        <ele>128.50389042802</ele>
        <time>2020-10-17T07:52:32.000Z</time>
      </trkpt>
      <trkpt lat="43.65534" lon="3.83067">
        <ele>128.30933789883</ele>
        <time>2020-10-17T07:52:33.000Z</time>
      </trkpt>
      <trkpt lat="43.65537" lon="3.8307">
        <ele>128.11478536965</ele>
        <time>2020-10-17T07:52:34.000Z</time>
      </trkpt>
      <trkpt lat="43.65539" lon="3.83072">
        <ele>127.92023284047</ele>
        <time>2020-10-17T07:52:35.000Z</time>
      </trkpt>
      <trkpt lat="43.6554" lon="3.83074">
        <ele>127.72568031128</ele>
        <time>2020-10-17T07:52:36.000Z</time>
      </trkpt>
      <trkpt lat="43.65544" lon="3.83075">
        <ele>127.33657525292</ele>
        <time>2020-10-17T07:52:38.000Z</time>
      </trkpt>
      <trkpt lat="43.65543" lon="3.83074">
        <ele>127</ele>
        <time>2020-10-17T07:52:44.000Z</time>
      </trkpt>
      <trkpt lat="43.6555" lon="3.83063">
        <ele>123.98183715698</ele>
        <time>2020-10-17T07:52:52.000Z</time>
      </trkpt>
      <trkpt lat="43.65554" lon="3.83059">
        <ele>123.88092888566</ele>
        <time>2020-10-17T07:52:53.000Z</time>
      </trkpt>
      <trkpt lat="43.65558" lon="3.83055">
        <ele>123.78002061435</ele>
        <time>2020-10-17T07:52:54.000Z</time>
      </trkpt>
      <trkpt lat="43.65562" lon="3.83051">
        <ele>123.67911234304</ele>
        <time>2020-10-17T07:52:55.000Z</time>
      </trkpt>
      <trkpt lat="43.65565" lon="3.83048">
        <ele>123.57820407172</ele>
        <time>2020-10-17T07:52:56.000Z</time>
      </trkpt>
      <trkpt lat="43.65568" lon="3.83044">
        <ele>123.47729580041</ele>
        <time>2020-10-17T07:52:57.000Z</time>
      </trkpt>
      <trkpt lat="43.65571" lon="3.83041">
        <ele>123.37638752909</ele>
        <time>2020-10-17T07:52:58.000Z</time>
      </trkpt>
      <trkpt lat="43.65573" lon="3.83037">
        <ele>123.27547925778</ele>
        <time>2020-10-17T07:52:59.000Z</time>
      </trkpt>
      <trkpt lat="43.65575" lon="3.83034">
        <ele>123.17457098647</ele>
        <time>2020-10-17T07:53:00.000Z</time>
      </trkpt>
      <trkpt lat="43.65576" lon="3.83031">
        <ele>123.07366271515</ele>
        <time>2020-10-17T07:53:01.000Z</time>
      </trkpt>
      <trkpt lat="43.65578" lon="3.83027">
        <ele>123</ele>
        <time>2020-10-17T07:53:02.000Z</time>
      </trkpt>
      <trkpt lat="43.6558" lon="3.83023">
        <ele>123</ele>
        <time>2020-10-17T07:53:03.000Z</time>
      </trkpt>
      <trkpt lat="43.65583" lon="3.8302">
        <ele>123</ele>
        <time>2020-10-17T07:53:04.000Z</time>
      </trkpt>
      <trkpt lat="43.65585" lon="3.83016">
        <ele>123</ele>
        <time>2020-10-17T07:53:05.000Z</time>
      </trkpt>
      <trkpt lat="43.65587" lon="3.83012">
        <ele>123</ele>
        <time>2020-10-17T07:53:06.000Z</time>
      </trkpt>
      <trkpt lat="43.65589" lon="3.83009">
        <ele>123</ele>
        <time>2020-10-17T07:53:07.000Z</time>
      </trkpt>
      <trkpt lat="43.65591" lon="3.83005">
        <ele>123</ele>
        <time>2020-10-17T07:53:08.000Z</time>
      </trkpt>
      <trkpt lat="43.65591" lon="3.83001">
        <ele>123</ele>
        <time>2020-10-17T07:53:09.000Z</time>
      </trkpt>
      <trkpt lat="43.65591" lon="3.82997">
        <ele>123</ele>
        <time>2020-10-17T07:53:10.000Z</time>
      </trkpt>
      <trkpt lat="43.65591" lon="3.82993">
        <ele>123</ele>
        <time>2020-10-17T07:53:11.000Z</time>
      </trkpt>
      <trkpt lat="43.65592" lon="3.8299">
        <ele>122.97325165202</ele>
        <time>2020-10-17T07:53:12.000Z</time>
      </trkpt>
      <trkpt lat="43.65592" lon="3.82986">
        <ele>122.8703708581</ele>
        <time>2020-10-17T07:53:13.000Z</time>
      </trkpt>
      <trkpt lat="43.65593" lon="3.82981">
        <ele>122.76749006418</ele>
        <time>2020-10-17T07:53:14.000Z</time>
      </trkpt>
      <trkpt lat="43.65593" lon="3.82977">
        <ele>122.66460927027</ele>
        <time>2020-10-17T07:53:15.000Z</time>
      </trkpt>
      <trkpt lat="43.65593" lon="3.82973">
        <ele>122.56172847635</ele>
        <time>2020-10-17T07:53:16.000Z</time>
      </trkpt>
      <trkpt lat="43.65593" lon="3.82968">
        <ele>122.45884768243</ele>
        <time>2020-10-17T07:53:17.000Z</time>
      </trkpt>
      <trkpt lat="43.65593" lon="3.82963">
        <ele>122.35596688852</ele>
        <time>2020-10-17T07:53:18.000Z</time>
      </trkpt>
      <trkpt lat="43.65592" lon="3.82958">
        <ele>122.2530860946</ele>
        <time>2020-10-17T07:53:19.000Z</time>
      </trkpt>
      <trkpt lat="43.65592" lon="3.82953">
        <ele>122.15020530068</ele>
        <time>2020-10-17T07:53:20.000Z</time>
      </trkpt>
      <trkpt lat="43.65592" lon="3.8295">
        <ele>122.04732450676</ele>
        <time>2020-10-17T07:53:21.000Z</time>
      </trkpt>
      <trkpt lat="43.65593" lon="3.82948">
        <ele>122</ele>
        <time>2020-10-17T07:53:22.000Z</time>
      </trkpt>
      <trkpt lat="43.65595" lon="3.82946">
        <ele>122</ele>
        <time>2020-10-17T07:53:23.000Z</time>
      </trkpt>
      <trkpt lat="43.65596" lon="3.82944">
        <ele>122</ele>
        <time>2020-10-17T07:53:24.000Z</time>
      </trkpt>
      <trkpt lat="43.65598" lon="3.8294">
        <ele>122</ele>
        <time>2020-10-17T07:53:25.000Z</time>
      </trkpt>
      <trkpt lat="43.656" lon="3.82936">
        <ele>122</ele>
        <time>2020-10-17T07:53:26.000Z</time>
      </trkpt>
      <trkpt lat="43.65602" lon="3.82931">
        <ele>122</ele>
        <time>2020-10-17T07:53:27.000Z</time>
      </trkpt>
      <trkpt lat="43.65604" lon="3.82927">
        <ele>122</ele>
        <time>2020-10-17T07:53:28.000Z</time>
      </trkpt>
      <trkpt lat="43.65605" lon="3.82923">
        <ele>122</ele>
        <time>2020-10-17T07:53:29.000Z</time>
      </trkpt>
      <trkpt lat="43.65605" lon="3.82919">
        <ele>122</ele>
        <time>2020-10-17T07:53:30.000Z</time>
      </trkpt>
      <trkpt lat="43.65605" lon="3.82916">
        <ele>122</ele>
        <time>2020-10-17T07:53:31.000Z</time>
      </trkpt>
      <trkpt lat="43.65605" lon="3.82912">
        <ele>121.89299548638</ele>
        <time>2020-10-17T07:53:32.000Z</time>
      </trkpt>
      <trkpt lat="43.65605" lon="3.82908">
        <ele>121.6984429572</ele>
        <time>2020-10-17T07:53:33.000Z</time>
      </trkpt>
      <trkpt lat="43.65606" lon="3.82904">
        <ele>121.50389042802</ele>
        <time>2020-10-17T07:53:34.000Z</time>
      </trkpt>
      <trkpt lat="43.65608" lon="3.82899">
        <ele>121.30933789883</ele>
        <time>2020-10-17T07:53:35.000Z</time>
      </trkpt>
      <trkpt lat="43.6561" lon="3.82894">
        <ele>121.11478536965</ele>
        <time>2020-10-17T07:53:36.000Z</time>
      </trkpt>
      <trkpt lat="43.65612" lon="3.82889">
        <ele>120.92023284047</ele>
        <time>2020-10-17T07:53:37.000Z</time>
      </trkpt>
      <trkpt lat="43.65613" lon="3.82885">
        <ele>120.72568031128</ele>
        <time>2020-10-17T07:53:38.000Z</time>
      </trkpt>
      <trkpt lat="43.65616" lon="3.82883">
        <ele>120.5311277821</ele>
        <time>2020-10-17T07:53:39.000Z</time>
      </trkpt>
      <trkpt lat="43.65618" lon="3.82882">
        <ele>120.33657525292</ele>
        <time>2020-10-17T07:53:40.000Z</time>
      </trkpt>
      <trkpt lat="43.65621" lon="3.82882">
        <ele>120.14202272373</ele>
        <time>2020-10-17T07:53:41.000Z</time>
      </trkpt>
      <trkpt lat="43.65625" lon="3.82882">
        <ele>119.88543009429</ele>
        <time>2020-10-17T07:53:42.000Z</time>
      </trkpt>
      <trkpt lat="43.65628" lon="3.82884">
        <ele>119.46110213925</ele>
        <time>2020-10-17T07:53:43.000Z</time>
      </trkpt>
      <trkpt lat="43.65631" lon="3.82886">
        <ele>119.0367741842</ele>
        <time>2020-10-17T07:53:44.000Z</time>
      </trkpt>
      <trkpt lat="43.65634" lon="3.82888">
        <ele>118.61244622916</ele>
        <time>2020-10-17T07:53:45.000Z</time>
      </trkpt>
      <trkpt lat="43.65637" lon="3.82891">
        <ele>118.18811827412</ele>
        <time>2020-10-17T07:53:46.000Z</time>
      </trkpt>
      <trkpt lat="43.6564" lon="3.82893">
        <ele>117.76379031908</ele>
        <time>2020-10-17T07:53:47.000Z</time>
      </trkpt>
      <trkpt lat="43.65642" lon="3.82894">
        <ele>117.33946236403</ele>
        <time>2020-10-17T07:53:48.000Z</time>
      </trkpt>
      <trkpt lat="43.65644" lon="3.82895">
        <ele>117</ele>
        <time>2020-10-17T07:53:49.000Z</time>
      </trkpt>
      <trkpt lat="43.65647" lon="3.82897">
        <ele>117</ele>
        <time>2020-10-17T07:53:50.000Z</time>
      </trkpt>
      <trkpt lat="43.6565" lon="3.82898">
        <ele>117</ele>
        <time>2020-10-17T07:53:51.000Z</time>
      </trkpt>
      <trkpt lat="43.65653" lon="3.829">
        <ele>116.83499904</ele>
        <time>2020-10-17T07:53:52.000Z</time>
      </trkpt>
      <trkpt lat="43.65657" lon="3.82901">
        <ele>116.53499904</ele>
        <time>2020-10-17T07:53:53.000Z</time>
      </trkpt>
      <trkpt lat="43.65662" lon="3.82902">
        <ele>116.23499904</ele>
        <time>2020-10-17T07:53:54.000Z</time>
      </trkpt>
      <trkpt lat="43.65667" lon="3.82905">
        <ele>115.93499904</ele>
        <time>2020-10-17T07:53:55.000Z</time>
      </trkpt>
      <trkpt lat="43.65671" lon="3.82909">
        <ele>115.63499904</ele>
        <time>2020-10-17T07:53:56.000Z</time>
      </trkpt>
      <trkpt lat="43.65675" lon="3.82911">
        <ele>115.33499904</ele>
        <time>2020-10-17T07:53:57.000Z</time>
      </trkpt>
      <trkpt lat="43.65678" lon="3.82911">
        <ele>115.03499904</ele>
        <time>2020-10-17T07:53:58.000Z</time>
      </trkpt>
      <trkpt lat="43.65681" lon="3.82911">
        <ele>114.73499904</ele>
        <time>2020-10-17T07:53:59.000Z</time>
      </trkpt>
      <trkpt lat="43.65684" lon="3.82911">
        <ele>114.43499904</ele>
        <time>2020-10-17T07:54:00.000Z</time>
      </trkpt>
      <trkpt lat="43.65687" lon="3.82911">
        <ele>114.13499904</ele>
        <time>2020-10-17T07:54:01.000Z</time>
      </trkpt>
      <trkpt lat="43.65689" lon="3.82913">
        <ele>113.77999872</ele>
        <time>2020-10-17T07:54:02.000Z</time>
      </trkpt>
      <trkpt lat="43.65692" lon="3.82914">
        <ele>113.37999872</ele>
        <time>2020-10-17T07:54:03.000Z</time>
      </trkpt>
      <trkpt lat="43.65695" lon="3.82916">
        <ele>112.97999872</ele>
        <time>2020-10-17T07:54:04.000Z</time>
      </trkpt>
      <trkpt lat="43.65698" lon="3.82918">
        <ele>112.57999872</ele>
        <time>2020-10-17T07:54:05.000Z</time>
      </trkpt>
      <trkpt lat="43.65701" lon="3.8292">
        <ele>112.17999872</ele>
        <time>2020-10-17T07:54:06.000Z</time>
      </trkpt>
      <trkpt lat="43.65703" lon="3.82922">
        <ele>111.77999872</ele>
        <time>2020-10-17T07:54:07.000Z</time>
      </trkpt>
      <trkpt lat="43.65706" lon="3.82923">
        <ele>111.37999872</ele>
        <time>2020-10-17T07:54:08.000Z</time>
      </trkpt>
      <trkpt lat="43.6571" lon="3.82923">
        <ele>110.97999872</ele>
        <time>2020-10-17T07:54:09.000Z</time>
      </trkpt>
      <trkpt lat="43.65713" lon="3.82924">
        <ele>110.57999872</ele>
        <time>2020-10-17T07:54:10.000Z</time>
      </trkpt>
      <trkpt lat="43.65716" lon="3.82924">
        <ele>110.17999872</ele>
        <time>2020-10-17T07:54:11.000Z</time>
      </trkpt>
      <trkpt lat="43.65719" lon="3.82926">
        <ele>109.83532848841</ele>
        <time>2020-10-17T07:54:12.000Z</time>
      </trkpt>
      <trkpt lat="43.65721" lon="3.82928">
        <ele>109.53592748204</ele>
        <time>2020-10-17T07:54:13.000Z</time>
      </trkpt>
      <trkpt lat="43.65723" lon="3.8293">
        <ele>109.23652647567</ele>
        <time>2020-10-17T07:54:14.000Z</time>
      </trkpt>
      <trkpt lat="43.65725" lon="3.82932">
        <ele>108.63772446293</ele>
        <time>2020-10-17T07:54:16.000Z</time>
      </trkpt>
      <trkpt lat="43.65727" lon="3.82931">
        <ele>108.03892245019</ele>
        <time>2020-10-17T07:54:18.000Z</time>
      </trkpt>
      <trkpt lat="43.65728" lon="3.82929">
        <ele>107.44012043745</ele>
        <time>2020-10-17T07:54:20.000Z</time>
      </trkpt>
      <trkpt lat="43.6573" lon="3.82927">
        <ele>107.14071943108</ele>
        <time>2020-10-17T07:54:21.000Z</time>
      </trkpt>
      <trkpt lat="43.65733" lon="3.82924">
        <ele>106.78757629664</ele>
        <time>2020-10-17T07:54:22.000Z</time>
      </trkpt>
      <trkpt lat="43.65735" lon="3.82923">
        <ele>106.38677443641</ele>
        <time>2020-10-17T07:54:23.000Z</time>
      </trkpt>
      <trkpt lat="43.65738" lon="3.82924">
        <ele>105.98597257618</ele>
        <time>2020-10-17T07:54:24.000Z</time>
      </trkpt>
      <trkpt lat="43.65742" lon="3.82927">
        <ele>105.58517071594</ele>
        <time>2020-10-17T07:54:25.000Z</time>
      </trkpt>
      <trkpt lat="43.65746" lon="3.82932">
        <ele>105.18436885571</ele>
        <time>2020-10-17T07:54:26.000Z</time>
      </trkpt>
      <trkpt lat="43.65749" lon="3.82937">
        <ele>104.78356699547</ele>
        <time>2020-10-17T07:54:27.000Z</time>
      </trkpt>
      <trkpt lat="43.65752" lon="3.82942">
        <ele>104.38276513524</ele>
        <time>2020-10-17T07:54:28.000Z</time>
      </trkpt>
      <trkpt lat="43.65755" lon="3.82948">
        <ele>103.98196327501</ele>
        <time>2020-10-17T07:54:29.000Z</time>
      </trkpt>
      <trkpt lat="43.65757" lon="3.82953">
        <ele>103.58116141477</ele>
        <time>2020-10-17T07:54:30.000Z</time>
      </trkpt>
      <trkpt lat="43.65759" lon="3.82959">
        <ele>103.18035955454</ele>
        <time>2020-10-17T07:54:31.000Z</time>
      </trkpt>
      <trkpt lat="43.65761" lon="3.82965">
        <ele>102.83499904</ele>
        <time>2020-10-17T07:54:32.000Z</time>
      </trkpt>
      <trkpt lat="43.65763" lon="3.82971">
        <ele>102.53499904</ele>
        <time>2020-10-17T07:54:33.000Z</time>
      </trkpt>
      <trkpt lat="43.65764" lon="3.82976">
        <ele>102.23499904</ele>
        <time>2020-10-17T07:54:34.000Z</time>
      </trkpt>
      <trkpt lat="43.65766" lon="3.82981">
        <ele>101.93499904</ele>
        <time>2020-10-17T07:54:35.000Z</time>
      </trkpt>
      <trkpt lat="43.65767" lon="3.82987">
        <ele>101.63499904</ele>
        <time>2020-10-17T07:54:36.000Z</time>
      </trkpt>
      <trkpt lat="43.65769" lon="3.82992">
        <ele>101.33499904</ele>
        <time>2020-10-17T07:54:37.000Z</time>
      </trkpt>
      <trkpt lat="43.6577" lon="3.82997">
        <ele>101.03499904</ele>
        <time>2020-10-17T07:54:38.000Z</time>
      </trkpt>
      <trkpt lat="43.65771" lon="3.83001">
        <ele>100.73499904</ele>
        <time>2020-10-17T07:54:39.000Z</time>
      </trkpt>
      <trkpt lat="43.65772" lon="3.83004">
        <ele>100.43499904</ele>
        <time>2020-10-17T07:54:40.000Z</time>
      </trkpt>
      <trkpt lat="43.65774" lon="3.83008">
        <ele>100.13499904</ele>
        <time>2020-10-17T07:54:41.000Z</time>
      </trkpt>
      <trkpt lat="43.65775" lon="3.83012">
        <ele>99.88999936</ele>
        <time>2020-10-17T07:54:42.000Z</time>
      </trkpt>
      <trkpt lat="43.65776" lon="3.83016">
        <ele>99.68999936</ele>
        <time>2020-10-17T07:54:43.000Z</time>
      </trkpt>
      <trkpt lat="43.65778" lon="3.8302">
        <ele>99.48999936</ele>
        <time>2020-10-17T07:54:44.000Z</time>
      </trkpt>
      <trkpt lat="43.65779" lon="3.83024">
        <ele>99.28999936</ele>
        <time>2020-10-17T07:54:45.000Z</time>
      </trkpt>
      <trkpt lat="43.6578" lon="3.83028">
        <ele>99.08999936</ele>
        <time>2020-10-17T07:54:46.000Z</time>
      </trkpt>
      <trkpt lat="43.65782" lon="3.83033">
        <ele>98.88999936</ele>
        <time>2020-10-17T07:54:47.000Z</time>
      </trkpt>
      <trkpt lat="43.65783" lon="3.83037">
        <ele>98.68999936</ele>
        <time>2020-10-17T07:54:48.000Z</time>
      </trkpt>
      <trkpt lat="43.65785" lon="3.8304">
        <ele>98.48999936</ele>
        <time>2020-10-17T07:54:49.000Z</time>
      </trkpt>
      <trkpt lat="43.65787" lon="3.83041">
        <ele>98.28999936</ele>
        <time>2020-10-17T07:54:50.000Z</time>
      </trkpt>
      <trkpt lat="43.6579" lon="3.83043">
        <ele>97.94499968</ele>
        <time>2020-10-17T07:54:52.000Z</time>
      </trkpt>
      <trkpt lat="43.65792" lon="3.83043">
        <ele>97.84499968</ele>
        <time>2020-10-17T07:54:53.000Z</time>
      </trkpt>
      <trkpt lat="43.65795" lon="3.83042">
        <ele>97.74499968</ele>
        <time>2020-10-17T07:54:54.000Z</time>
      </trkpt>
      <trkpt lat="43.65799" lon="3.83041">
        <ele>97.64499968</ele>
        <time>2020-10-17T07:54:55.000Z</time>
      </trkpt>
      <trkpt lat="43.65803" lon="3.83038">
        <ele>97.54499968</ele>
        <time>2020-10-17T07:54:56.000Z</time>
      </trkpt>
      <trkpt lat="43.65806" lon="3.83035">
        <ele>97.44499968</ele>
        <time>2020-10-17T07:54:57.000Z</time>
      </trkpt>
      <trkpt lat="43.6581" lon="3.83032">
        <ele>97.34499968</ele>
        <time>2020-10-17T07:54:58.000Z</time>
      </trkpt>
      <trkpt lat="43.65814" lon="3.8303">
        <ele>97.24499968</ele>
        <time>2020-10-17T07:54:59.000Z</time>
      </trkpt>
      <trkpt lat="43.65818" lon="3.83029">
        <ele>97.14499968</ele>
        <time>2020-10-17T07:55:00.000Z</time>
      </trkpt>
      <trkpt lat="43.65821" lon="3.83028">
        <ele>97.04499968</ele>
        <time>2020-10-17T07:55:01.000Z</time>
      </trkpt>
      <trkpt lat="43.65825" lon="3.83027">
        <ele>96.94499968</ele>
        <time>2020-10-17T07:55:02.000Z</time>
      </trkpt>
      <trkpt lat="43.65828" lon="3.83025">
        <ele>96.84499968</ele>
        <time>2020-10-17T07:55:03.000Z</time>
      </trkpt>
      <trkpt lat="43.65831" lon="3.83023">
        <ele>96.74499968</ele>
        <time>2020-10-17T07:55:04.000Z</time>
      </trkpt>
      <trkpt lat="43.65834" lon="3.83022">
        <ele>96.64499968</ele>
        <time>2020-10-17T07:55:05.000Z</time>
      </trkpt>
      <trkpt lat="43.65837" lon="3.8302">
        <ele>96.54499968</ele>
        <time>2020-10-17T07:55:06.000Z</time>
      </trkpt>
      <trkpt lat="43.6584" lon="3.83019">
        <ele>96.44499968</ele>
        <time>2020-10-17T07:55:07.000Z</time>
      </trkpt>
      <trkpt lat="43.65843" lon="3.83018">
        <ele>96.34499968</ele>
        <time>2020-10-17T07:55:08.000Z</time>
      </trkpt>
      <trkpt lat="43.65846" lon="3.83016">
        <ele>96.24499968</ele>
        <time>2020-10-17T07:55:09.000Z</time>
      </trkpt>
      <trkpt lat="43.6585" lon="3.83015">
        <ele>96.14499968</ele>
        <time>2020-10-17T07:55:10.000Z</time>
      </trkpt>
      <trkpt lat="43.65853" lon="3.83014">
        <ele>96.04499968</ele>
        <time>2020-10-17T07:55:11.000Z</time>
      </trkpt>
      <trkpt lat="43.65856" lon="3.83013">
        <ele>96</ele>
        <time>2020-10-17T07:55:12.000Z</time>
      </trkpt>
      <trkpt lat="43.65859" lon="3.83012">
        <ele>96</ele>
        <time>2020-10-17T07:55:13.000Z</time>
      </trkpt>
      <trkpt lat="43.65862" lon="3.83012">
        <ele>96</ele>
        <time>2020-10-17T07:55:14.000Z</time>
      </trkpt>
      <trkpt lat="43.65865" lon="3.83011">
        <ele>96</ele>
        <time>2020-10-17T07:55:15.000Z</time>
      </trkpt>
      <trkpt lat="43.65868" lon="3.8301">
        <ele>96</ele>
        <time>2020-10-17T07:55:16.000Z</time>
      </trkpt>
      <trkpt lat="43.65871" lon="3.8301">
        <ele>96</ele>
        <time>2020-10-17T07:55:17.000Z</time>
      </trkpt>
      <trkpt lat="43.65874" lon="3.83009">
        <ele>96</ele>
        <time>2020-10-17T07:55:18.000Z</time>
      </trkpt>
      <trkpt lat="43.65877" lon="3.83007">
        <ele>96</ele>
        <time>2020-10-17T07:55:19.000Z</time>
      </trkpt>
      <trkpt lat="43.6588" lon="3.83006">
        <ele>96</ele>
        <time>2020-10-17T07:55:20.000Z</time>
      </trkpt>
      <trkpt lat="43.65883" lon="3.83006">
        <ele>96</ele>
        <time>2020-10-17T07:55:21.000Z</time>
      </trkpt>
      <trkpt lat="43.65887" lon="3.83006">
        <ele>96.11000064</ele>
        <time>2020-10-17T07:55:22.000Z</time>
      </trkpt>
      <trkpt lat="43.6589" lon="3.83006">
        <ele>96.31000064</ele>
        <time>2020-10-17T07:55:23.000Z</time>
      </trkpt>
      <trkpt lat="43.65893" lon="3.83006">
        <ele>96.51000064</ele>
        <time>2020-10-17T07:55:24.000Z</time>
      </trkpt>
      <trkpt lat="43.65896" lon="3.83005">
        <ele>96.71000064</ele>
        <time>2020-10-17T07:55:25.000Z</time>
      </trkpt>
      <trkpt lat="43.65899" lon="3.83004">
        <ele>96.91000064</ele>
        <time>2020-10-17T07:55:26.000Z</time>
      </trkpt>
      <trkpt lat="43.65903" lon="3.83004">
        <ele>97.11000064</ele>
        <time>2020-10-17T07:55:27.000Z</time>
      </trkpt>
      <trkpt lat="43.65906" lon="3.83003">
        <ele>97.31000064</ele>
        <time>2020-10-17T07:55:28.000Z</time>
      </trkpt>
      <trkpt lat="43.65909" lon="3.83003">
        <ele>97.51000064</ele>
        <time>2020-10-17T07:55:29.000Z</time>
      </trkpt>
      <trkpt lat="43.65913" lon="3.83002">
        <ele>97.71000064</ele>
        <time>2020-10-17T07:55:30.000Z</time>
      </trkpt>
      <trkpt lat="43.65916" lon="3.83002">
        <ele>97.91000064</ele>
        <time>2020-10-17T07:55:31.000Z</time>
      </trkpt>
      <trkpt lat="43.65919" lon="3.83001">
        <ele>98.05500032</ele>
        <time>2020-10-17T07:55:32.000Z</time>
      </trkpt>
      <trkpt lat="43.65923" lon="3.83">
        <ele>98.15500032</ele>
        <time>2020-10-17T07:55:33.000Z</time>
      </trkpt>
      <trkpt lat="43.65926" lon="3.82999">
        <ele>98.25500032</ele>
        <time>2020-10-17T07:55:34.000Z</time>
      </trkpt>
      <trkpt lat="43.65929" lon="3.82999">
        <ele>98.35500032</ele>
        <time>2020-10-17T07:55:35.000Z</time>
      </trkpt>
      <trkpt lat="43.65932" lon="3.82998">
        <ele>98.45500032</ele>
        <time>2020-10-17T07:55:36.000Z</time>
      </trkpt>
      <trkpt lat="43.65936" lon="3.82998">
        <ele>98.55500032</ele>
        <time>2020-10-17T07:55:37.000Z</time>
      </trkpt>
      <trkpt lat="43.65939" lon="3.82997">
        <ele>98.65500032</ele>
        <time>2020-10-17T07:55:38.000Z</time>
      </trkpt>
      <trkpt lat="43.65942" lon="3.82997">
        <ele>98.75500032</ele>
        <time>2020-10-17T07:55:39.000Z</time>
      </trkpt>
      <trkpt lat="43.65945" lon="3.82996">
        <ele>98.85500032</ele>
        <time>2020-10-17T07:55:40.000Z</time>
      </trkpt>
      <trkpt lat="43.65949" lon="3.82995">
        <ele>98.95500032</ele>
        <time>2020-10-17T07:55:41.000Z</time>
      </trkpt>
      <trkpt lat="43.65952" lon="3.82994">
        <ele>99.05500032</ele>
        <time>2020-10-17T07:55:42.000Z</time>
      </trkpt>
      <trkpt lat="43.65955" lon="3.82993">
        <ele>99.15500032</ele>
        <time>2020-10-17T07:55:43.000Z</time>
      </trkpt>
      <trkpt lat="43.65958" lon="3.82992">
        <ele>99.25500032</ele>
        <time>2020-10-17T07:55:44.000Z</time>
      </trkpt>
      <trkpt lat="43.65962" lon="3.82991">
        <ele>99.35500032</ele>
        <time>2020-10-17T07:55:45.000Z</time>
      </trkpt>
      <trkpt lat="43.65965" lon="3.8299">
        <ele>99.45500032</ele>
        <time>2020-10-17T07:55:46.000Z</time>
      </trkpt>
      <trkpt lat="43.65968" lon="3.82989">
        <ele>99.55500032</ele>
        <time>2020-10-17T07:55:47.000Z</time>
      </trkpt>
      <trkpt lat="43.65971" lon="3.82987">
        <ele>99.65500032</ele>
        <time>2020-10-17T07:55:48.000Z</time>
      </trkpt>
      <trkpt lat="43.65974" lon="3.82985">
        <ele>99.75500032</ele>
        <time>2020-10-17T07:55:49.000Z</time>
      </trkpt>
      <trkpt lat="43.65977" lon="3.82982">
        <ele>99.85500032</ele>
        <time>2020-10-17T07:55:50.000Z</time>
      </trkpt>
      <trkpt lat="43.6598" lon="3.82979">
        <ele>99.95500032</ele>
        <time>2020-10-17T07:55:51.000Z</time>
      </trkpt>
      <trkpt lat="43.65982" lon="3.82977">
        <ele>100.05500032</ele>
        <time>2020-10-17T07:55:52.000Z</time>
      </trkpt>
      <trkpt lat="43.65984" lon="3.82974">
        <ele>100.15500032</ele>
        <time>2020-10-17T07:55:53.000Z</time>
      </trkpt>
      <trkpt lat="43.65986" lon="3.82972">
        <ele>100.25500032</ele>
        <time>2020-10-17T07:55:54.000Z</time>
      </trkpt>
      <trkpt lat="43.65989" lon="3.8297">
        <ele>100.35500032</ele>
        <time>2020-10-17T07:55:55.000Z</time>
      </trkpt>
      <trkpt lat="43.65991" lon="3.82968">
        <ele>100.45500032</ele>
        <time>2020-10-17T07:55:56.000Z</time>
      </trkpt>
      <trkpt lat="43.65994" lon="3.82966">
        <ele>100.55500032</ele>
        <time>2020-10-17T07:55:57.000Z</time>
      </trkpt>
      <trkpt lat="43.65996" lon="3.82965">
        <ele>100.65500032</ele>
        <time>2020-10-17T07:55:58.000Z</time>
      </trkpt>
      <trkpt lat="43.65999" lon="3.82964">
        <ele>100.75500032</ele>
        <time>2020-10-17T07:55:59.000Z</time>
      </trkpt>
      <trkpt lat="43.66002" lon="3.82965">
        <ele>100.85500032</ele>
        <time>2020-10-17T07:56:00.000Z</time>
      </trkpt>
      <trkpt lat="43.66004" lon="3.82965">
        <ele>100.95500032</ele>
        <time>2020-10-17T07:56:01.000Z</time>
      </trkpt>
      <trkpt lat="43.66006" lon="3.82965">
        <ele>101.11000064</ele>
        <time>2020-10-17T07:56:02.000Z</time>
      </trkpt>
      <trkpt lat="43.66009" lon="3.82964">
        <ele>101.31000064</ele>
        <time>2020-10-17T07:56:03.000Z</time>
      </trkpt>
      <trkpt lat="43.6601" lon="3.82962">
        <ele>101.51000064</ele>
        <time>2020-10-17T07:56:04.000Z</time>
      </trkpt>
      <trkpt lat="43.66012" lon="3.82959">
        <ele>101.71000064</ele>
        <time>2020-10-17T07:56:05.000Z</time>
      </trkpt>
      <trkpt lat="43.66013" lon="3.82956">
        <ele>101.91000064</ele>
        <time>2020-10-17T07:56:06.000Z</time>
      </trkpt>
      <trkpt lat="43.66014" lon="3.82953">
        <ele>102.11000064</ele>
        <time>2020-10-17T07:56:07.000Z</time>
      </trkpt>
      <trkpt lat="43.66014" lon="3.8295">
        <ele>102.31000064</ele>
        <time>2020-10-17T07:56:08.000Z</time>
      </trkpt>
      <trkpt lat="43.66013" lon="3.82947">
        <ele>102.51000064</ele>
        <time>2020-10-17T07:56:09.000Z</time>
      </trkpt>
      <trkpt lat="43.66013" lon="3.82943">
        <ele>102.71000064</ele>
        <time>2020-10-17T07:56:10.000Z</time>
      </trkpt>
      <trkpt lat="43.66012" lon="3.8294">
        <ele>102.91000064</ele>
        <time>2020-10-17T07:56:11.000Z</time>
      </trkpt>
      <trkpt lat="43.66012" lon="3.82937">
        <ele>103.05350225681</ele>
        <time>2020-10-17T07:56:12.000Z</time>
      </trkpt>
      <trkpt lat="43.66011" lon="3.82934">
        <ele>103.1507785214</ele>
        <time>2020-10-17T07:56:13.000Z</time>
      </trkpt>
      <trkpt lat="43.6601" lon="3.82931">
        <ele>103.24805478599</ele>
        <time>2020-10-17T07:56:14.000Z</time>
      </trkpt>
      <trkpt lat="43.66009" lon="3.82927">
        <ele>103.34533105058</ele>
        <time>2020-10-17T07:56:15.000Z</time>
      </trkpt>
      <trkpt lat="43.66007" lon="3.82924">
        <ele>103.44260731517</ele>
        <time>2020-10-17T07:56:16.000Z</time>
      </trkpt>
      <trkpt lat="43.66006" lon="3.8292">
        <ele>103.53988357977</ele>
        <time>2020-10-17T07:56:17.000Z</time>
      </trkpt>
      <trkpt lat="43.66005" lon="3.82917">
        <ele>103.63715984436</ele>
        <time>2020-10-17T07:56:18.000Z</time>
      </trkpt>
      <trkpt lat="43.66004" lon="3.82914">
        <ele>103.73443610895</ele>
        <time>2020-10-17T07:56:19.000Z</time>
      </trkpt>
      <trkpt lat="43.66003" lon="3.82912">
        <ele>103.83171237354</ele>
        <time>2020-10-17T07:56:20.000Z</time>
      </trkpt>
      <trkpt lat="43.66002" lon="3.8291">
        <ele>103.92898863813</ele>
        <time>2020-10-17T07:56:21.000Z</time>
      </trkpt>
      <trkpt lat="43.66" lon="3.82907">
        <ele>104.027778107</ele>
        <time>2020-10-17T07:56:22.000Z</time>
      </trkpt>
      <trkpt lat="43.65999" lon="3.82904">
        <ele>104.13065876543</ele>
        <time>2020-10-17T07:56:23.000Z</time>
      </trkpt>
      <trkpt lat="43.65997" lon="3.82902">
        <ele>104.23353942387</ele>
        <time>2020-10-17T07:56:24.000Z</time>
      </trkpt>
      <trkpt lat="43.65995" lon="3.82899">
        <ele>104.3364200823</ele>
        <time>2020-10-17T07:56:25.000Z</time>
      </trkpt>
      <trkpt lat="43.65994" lon="3.82896">
        <ele>104.43930074074</ele>
        <time>2020-10-17T07:56:26.000Z</time>
      </trkpt>
      <trkpt lat="43.65992" lon="3.82892">
        <ele>104.54218139918</ele>
        <time>2020-10-17T07:56:27.000Z</time>
      </trkpt>
      <trkpt lat="43.6599" lon="3.82889">
        <ele>104.64506205761</ele>
        <time>2020-10-17T07:56:28.000Z</time>
      </trkpt>
      <trkpt lat="43.65989" lon="3.82885">
        <ele>104.74794271605</ele>
        <time>2020-10-17T07:56:29.000Z</time>
      </trkpt>
      <trkpt lat="43.65987" lon="3.82882">
        <ele>104.85082337449</ele>
        <time>2020-10-17T07:56:30.000Z</time>
      </trkpt>
      <trkpt lat="43.65986" lon="3.82878">
        <ele>104.95370403292</ele>
        <time>2020-10-17T07:56:31.000Z</time>
      </trkpt>
      <trkpt lat="43.65984" lon="3.82875">
        <ele>105</ele>
        <time>2020-10-17T07:56:32.000Z</time>
      </trkpt>
      <trkpt lat="43.65983" lon="3.82872">
        <ele>105</ele>
        <time>2020-10-17T07:56:33.000Z</time>
      </trkpt>
      <trkpt lat="43.65981" lon="3.82869">
        <ele>105</ele>
        <time>2020-10-17T07:56:34.000Z</time>
      </trkpt>
      <trkpt lat="43.6598" lon="3.82866">
        <ele>105</ele>
        <time>2020-10-17T07:56:35.000Z</time>
      </trkpt>
      <trkpt lat="43.65979" lon="3.82862">
        <ele>105</ele>
        <time>2020-10-17T07:56:36.000Z</time>
      </trkpt>
      <trkpt lat="43.65979" lon="3.82858">
        <ele>105</ele>
        <time>2020-10-17T07:56:37.000Z</time>
      </trkpt>
      <trkpt lat="43.65979" lon="3.82854">
        <ele>105</ele>
        <time>2020-10-17T07:56:38.000Z</time>
      </trkpt>
      <trkpt lat="43.6598" lon="3.8285">
        <ele>105</ele>
        <time>2020-10-17T07:56:39.000Z</time>
      </trkpt>
      <trkpt lat="43.65982" lon="3.82845">
        <ele>105</ele>
        <time>2020-10-17T07:56:40.000Z</time>
      </trkpt>
      <trkpt lat="43.65983" lon="3.82841">
        <ele>105</ele>
        <time>2020-10-17T07:56:41.000Z</time>
      </trkpt>
      <trkpt lat="43.65985" lon="3.82838">
        <ele>105</ele>
        <time>2020-10-17T07:56:42.000Z</time>
      </trkpt>
      <trkpt lat="43.65987" lon="3.82834">
        <ele>105</ele>
        <time>2020-10-17T07:56:43.000Z</time>
      </trkpt>
      <trkpt lat="43.65989" lon="3.82831">
        <ele>105</ele>
        <time>2020-10-17T07:56:44.000Z</time>
      </trkpt>
      <trkpt lat="43.65991" lon="3.82827">
        <ele>105</ele>
        <time>2020-10-17T07:56:45.000Z</time>
      </trkpt>
      <trkpt lat="43.65993" lon="3.82824">
        <ele>105</ele>
        <time>2020-10-17T07:56:46.000Z</time>
      </trkpt>
      <trkpt lat="43.65994" lon="3.82821">
        <ele>105</ele>
        <time>2020-10-17T07:56:47.000Z</time>
      </trkpt>
      <trkpt lat="43.65996" lon="3.82818">
        <ele>105</ele>
        <time>2020-10-17T07:56:48.000Z</time>
      </trkpt>
      <trkpt lat="43.65998" lon="3.82816">
        <ele>105</ele>
        <time>2020-10-17T07:56:49.000Z</time>
      </trkpt>
      <trkpt lat="43.66" lon="3.82814">
        <ele>105</ele>
        <time>2020-10-17T07:56:50.000Z</time>
      </trkpt>
      <trkpt lat="43.66002" lon="3.82812">
        <ele>105</ele>
        <time>2020-10-17T07:56:51.000Z</time>
      </trkpt>
      <trkpt lat="43.66005" lon="3.8281">
        <ele>105.05500032</ele>
        <time>2020-10-17T07:56:52.000Z</time>
      </trkpt>
      <trkpt lat="43.66007" lon="3.82809">
        <ele>105.15500032</ele>
        <time>2020-10-17T07:56:53.000Z</time>
      </trkpt>
      <trkpt lat="43.66009" lon="3.82807">
        <ele>105.25500032</ele>
        <time>2020-10-17T07:56:54.000Z</time>
      </trkpt>
      <trkpt lat="43.66012" lon="3.82805">
        <ele>105.35500032</ele>
        <time>2020-10-17T07:56:55.000Z</time>
      </trkpt>
      <trkpt lat="43.66014" lon="3.82803">
        <ele>105.45500032</ele>
        <time>2020-10-17T07:56:56.000Z</time>
      </trkpt>
      <trkpt lat="43.66016" lon="3.82801">
        <ele>105.55500032</ele>
        <time>2020-10-17T07:56:57.000Z</time>
      </trkpt>
      <trkpt lat="43.66019" lon="3.82799">
        <ele>105.65500032</ele>
        <time>2020-10-17T07:56:58.000Z</time>
      </trkpt>
      <trkpt lat="43.66021" lon="3.82796">
        <ele>105.75500032</ele>
        <time>2020-10-17T07:56:59.000Z</time>
      </trkpt>
      <trkpt lat="43.66024" lon="3.82794">
        <ele>105.85500032</ele>
        <time>2020-10-17T07:57:00.000Z</time>
      </trkpt>
      <trkpt lat="43.66027" lon="3.82792">
        <ele>105.95500032</ele>
        <time>2020-10-17T07:57:01.000Z</time>
      </trkpt>
      <trkpt lat="43.66029" lon="3.82789">
        <ele>106</ele>
        <time>2020-10-17T07:57:02.000Z</time>
      </trkpt>
      <trkpt lat="43.66032" lon="3.82786">
        <ele>106</ele>
        <time>2020-10-17T07:57:03.000Z</time>
      </trkpt>
      <trkpt lat="43.66035" lon="3.82784">
        <ele>106</ele>
        <time>2020-10-17T07:57:04.000Z</time>
      </trkpt>
      <trkpt lat="43.66037" lon="3.82781">
        <ele>106</ele>
        <time>2020-10-17T07:57:05.000Z</time>
      </trkpt>
      <trkpt lat="43.66039" lon="3.82778">
        <ele>106</ele>
        <time>2020-10-17T07:57:06.000Z</time>
      </trkpt>
      <trkpt lat="43.66042" lon="3.82776">
        <ele>106</ele>
        <time>2020-10-17T07:57:07.000Z</time>
      </trkpt>
      <trkpt lat="43.66044" lon="3.82773">
        <ele>106</ele>
        <time>2020-10-17T07:57:08.000Z</time>
      </trkpt>
      <trkpt lat="43.66046" lon="3.8277">
        <ele>106</ele>
        <time>2020-10-17T07:57:09.000Z</time>
      </trkpt>
      <trkpt lat="43.66048" lon="3.82767">
        <ele>106</ele>
        <time>2020-10-17T07:57:10.000Z</time>
      </trkpt>
      <trkpt lat="43.66051" lon="3.82764">
        <ele>106</ele>
        <time>2020-10-17T07:57:11.000Z</time>
      </trkpt>
      <trkpt lat="43.66053" lon="3.8276">
        <ele>105.94499968</ele>
        <time>2020-10-17T07:57:12.000Z</time>
      </trkpt>
      <trkpt lat="43.66056" lon="3.82756">
        <ele>105.84499968</ele>
        <time>2020-10-17T07:57:13.000Z</time>
      </trkpt>
      <trkpt lat="43.66058" lon="3.82753">
        <ele>105.74499968</ele>
        <time>2020-10-17T07:57:14.000Z</time>
      </trkpt>
      <trkpt lat="43.66061" lon="3.82749">
        <ele>105.64499968</ele>
        <time>2020-10-17T07:57:15.000Z</time>
      </trkpt>
      <trkpt lat="43.66063" lon="3.82745">
        <ele>105.54499968</ele>
        <time>2020-10-17T07:57:16.000Z</time>
      </trkpt>
      <trkpt lat="43.66066" lon="3.8274">
        <ele>105.44499968</ele>
        <time>2020-10-17T07:57:17.000Z</time>
      </trkpt>
      <trkpt lat="43.6607" lon="3.82735">
        <ele>105.34499968</ele>
        <time>2020-10-17T07:57:18.000Z</time>
      </trkpt>
      <trkpt lat="43.66073" lon="3.8273">
        <ele>105.24499968</ele>
        <time>2020-10-17T07:57:19.000Z</time>
      </trkpt>
      <trkpt lat="43.66076" lon="3.82725">
        <ele>105.14499968</ele>
        <time>2020-10-17T07:57:20.000Z</time>
      </trkpt>
      <trkpt lat="43.66079" lon="3.82718">
        <ele>105.04499968</ele>
        <time>2020-10-17T07:57:21.000Z</time>
      </trkpt>
      <trkpt lat="43.66084" lon="3.82712">
        <ele>104.94499968</ele>
        <time>2020-10-17T07:57:22.000Z</time>
      </trkpt>
      <trkpt lat="43.6609" lon="3.82706">
        <ele>104.84499968</ele>
        <time>2020-10-17T07:57:23.000Z</time>
      </trkpt>
      <trkpt lat="43.66096" lon="3.827">
        <ele>104.74499968</ele>
        <time>2020-10-17T07:57:24.000Z</time>
      </trkpt>
      <trkpt lat="43.66101" lon="3.82695">
        <ele>104.64499968</ele>
        <time>2020-10-17T07:57:25.000Z</time>
      </trkpt>
      <trkpt lat="43.66106" lon="3.82691">
        <ele>104.54499968</ele>
        <time>2020-10-17T07:57:26.000Z</time>
      </trkpt>
      <trkpt lat="43.66111" lon="3.82688">
        <ele>104.44499968</ele>
        <time>2020-10-17T07:57:27.000Z</time>
      </trkpt>
      <trkpt lat="43.66115" lon="3.82686">
        <ele>104.34499968</ele>
        <time>2020-10-17T07:57:28.000Z</time>
      </trkpt>
      <trkpt lat="43.66118" lon="3.82685">
        <ele>104.24499968</ele>
        <time>2020-10-17T07:57:29.000Z</time>
      </trkpt>
      <trkpt lat="43.6612" lon="3.82684">
        <ele>104.14499968</ele>
        <time>2020-10-17T07:57:30.000Z</time>
      </trkpt>
      <trkpt lat="43.66122" lon="3.82683">
        <ele>104.04499968</ele>
        <time>2020-10-17T07:57:31.000Z</time>
      </trkpt>
      <trkpt lat="43.66124" lon="3.82683">
        <ele>104</ele>
        <time>2020-10-17T07:57:32.000Z</time>
      </trkpt>
      <trkpt lat="43.66127" lon="3.82683">
        <ele>104</ele>
        <time>2020-10-17T07:57:34.000Z</time>
      </trkpt>
      <trkpt lat="43.6613" lon="3.82685">
        <ele>104</ele>
        <time>2020-10-17T07:57:36.000Z</time>
      </trkpt>
      <trkpt lat="43.66133" lon="3.82686">
        <ele>104</ele>
        <time>2020-10-17T07:57:38.000Z</time>
      </trkpt>
      <trkpt lat="43.66137" lon="3.82687">
        <ele>104</ele>
        <time>2020-10-17T07:57:40.000Z</time>
      </trkpt>
      <trkpt lat="43.6614" lon="3.82688">
        <ele>104</ele>
        <time>2020-10-17T07:57:42.000Z</time>
      </trkpt>
      <trkpt lat="43.66143" lon="3.82688">
        <ele>104</ele>
        <time>2020-10-17T07:57:44.000Z</time>
      </trkpt>
      <trkpt lat="43.66147" lon="3.82689">
        <ele>104</ele>
        <time>2020-10-17T07:57:46.000Z</time>
      </trkpt>
      <trkpt lat="43.66149" lon="3.82689">
        <ele>104</ele>
        <time>2020-10-17T07:57:47.000Z</time>
      </trkpt>
      <trkpt lat="43.66152" lon="3.82691">
        <ele>104</ele>
        <time>2020-10-17T07:57:49.000Z</time>
      </trkpt>
      <trkpt lat="43.66154" lon="3.82694">
        <ele>104</ele>
        <time>2020-10-17T07:57:51.000Z</time>
      </trkpt>
      <trkpt lat="43.66158" lon="3.82695">
        <ele>104.15415474542</ele>
        <time>2020-10-17T07:57:53.000Z</time>
      </trkpt>
      <trkpt lat="43.66161" lon="3.82697">
        <ele>104.35435488149</ele>
        <time>2020-10-17T07:57:55.000Z</time>
      </trkpt>
      <trkpt lat="43.66163" lon="3.827">
        <ele>104.55455501756</ele>
        <time>2020-10-17T07:57:57.000Z</time>
      </trkpt>
      <trkpt lat="43.66166" lon="3.82703">
        <ele>104.75475515363</ele>
        <time>2020-10-17T07:57:59.000Z</time>
      </trkpt>
      <trkpt lat="43.66169" lon="3.82705">
        <ele>104.9549552897</ele>
        <time>2020-10-17T07:58:01.000Z</time>
      </trkpt>
      <trkpt lat="43.66171" lon="3.82707">
        <ele>105.05500032</ele>
        <time>2020-10-17T07:58:02.000Z</time>
      </trkpt>
      <trkpt lat="43.66172" lon="3.82708">
        <ele>105.15500032</ele>
        <time>2020-10-17T07:58:03.000Z</time>
      </trkpt>
      <trkpt lat="43.66175" lon="3.82711">
        <ele>105.35500032</ele>
        <time>2020-10-17T07:58:05.000Z</time>
      </trkpt>
      <trkpt lat="43.66177" lon="3.82713">
        <ele>105.55500032</ele>
        <time>2020-10-17T07:58:07.000Z</time>
      </trkpt>
      <trkpt lat="43.6618" lon="3.82714">
        <ele>105.75500032</ele>
        <time>2020-10-17T07:58:09.000Z</time>
      </trkpt>
      <trkpt lat="43.66182" lon="3.82714">
        <ele>105.95500032</ele>
        <time>2020-10-17T07:58:11.000Z</time>
      </trkpt>
      <trkpt lat="43.66185" lon="3.82715">
        <ele>106.15500032</ele>
        <time>2020-10-17T07:58:13.000Z</time>
      </trkpt>
      <trkpt lat="43.66188" lon="3.82714">
        <ele>106.35500032</ele>
        <time>2020-10-17T07:58:15.000Z</time>
      </trkpt>
      <trkpt lat="43.66191" lon="3.82712">
        <ele>106.55500032</ele>
        <time>2020-10-17T07:58:17.000Z</time>
      </trkpt>
      <trkpt lat="43.66194" lon="3.82711">
        <ele>106.75500032</ele>
        <time>2020-10-17T07:58:19.000Z</time>
      </trkpt>
      <trkpt lat="43.66196" lon="3.8271">
        <ele>106.85500032</ele>
        <time>2020-10-17T07:58:20.000Z</time>
      </trkpt>
      <trkpt lat="43.66198" lon="3.82709">
        <ele>106.95500032</ele>
        <time>2020-10-17T07:58:21.000Z</time>
      </trkpt>
      <trkpt lat="43.662" lon="3.82708">
        <ele>107</ele>
        <time>2020-10-17T07:58:22.000Z</time>
      </trkpt>
      <trkpt lat="43.66202" lon="3.82707">
        <ele>107</ele>
        <time>2020-10-17T07:58:23.000Z</time>
      </trkpt>
      <trkpt lat="43.66205" lon="3.82707">
        <ele>107</ele>
        <time>2020-10-17T07:58:24.000Z</time>
      </trkpt>
      <trkpt lat="43.66207" lon="3.82706">
        <ele>107</ele>
        <time>2020-10-17T07:58:25.000Z</time>
      </trkpt>
      <trkpt lat="43.66209" lon="3.82707">
        <ele>107</ele>
        <time>2020-10-17T07:58:26.000Z</time>
      </trkpt>
      <trkpt lat="43.66212" lon="3.82707">
        <ele>107</ele>
        <time>2020-10-17T07:58:27.000Z</time>
      </trkpt>
      <trkpt lat="43.66214" lon="3.82708">
        <ele>107</ele>
        <time>2020-10-17T07:58:28.000Z</time>
      </trkpt>
      <trkpt lat="43.66216" lon="3.8271">
        <ele>107</ele>
        <time>2020-10-17T07:58:29.000Z</time>
      </trkpt>
      <trkpt lat="43.66218" lon="3.82711">
        <ele>107</ele>
        <time>2020-10-17T07:58:30.000Z</time>
      </trkpt>
      <trkpt lat="43.66221" lon="3.82713">
        <ele>107</ele>
        <time>2020-10-17T07:58:31.000Z</time>
      </trkpt>
      <trkpt lat="43.66222" lon="3.82715">
        <ele>107.1609765966</ele>
        <time>2020-10-17T07:58:32.000Z</time>
      </trkpt>
      <trkpt lat="43.66224" lon="3.82717">
        <ele>107.4536596148</ele>
        <time>2020-10-17T07:58:33.000Z</time>
      </trkpt>
      <trkpt lat="43.66227" lon="3.8272">
        <ele>108.03902565121</ele>
        <time>2020-10-17T07:58:35.000Z</time>
      </trkpt>
      <trkpt lat="43.66229" lon="3.82723">
        <ele>108.62439168762</ele>
        <time>2020-10-17T07:58:37.000Z</time>
      </trkpt>
      <trkpt lat="43.66232" lon="3.82724">
        <ele>109.20975772402</ele>
        <time>2020-10-17T07:58:39.000Z</time>
      </trkpt>
      <trkpt lat="43.66236" lon="3.82724">
        <ele>109.79512376043</ele>
        <time>2020-10-17T07:58:41.000Z</time>
      </trkpt>
      <trkpt lat="43.66238" lon="3.82724">
        <ele>110</ele>
        <time>2020-10-17T07:58:43.000Z</time>
      </trkpt>
      <trkpt lat="43.6624" lon="3.82724">
        <ele>110</ele>
        <time>2020-10-17T07:58:46.000Z</time>
      </trkpt>
      <trkpt lat="43.66243" lon="3.82723">
        <ele>110</ele>
        <time>2020-10-17T07:58:49.000Z</time>
      </trkpt>
      <trkpt lat="43.66246" lon="3.82722">
        <ele>110</ele>
        <time>2020-10-17T07:58:51.000Z</time>
      </trkpt>
      <trkpt lat="43.66248" lon="3.8272">
        <ele>110.05489050386</ele>
        <time>2020-10-17T07:58:52.000Z</time>
      </trkpt>
      <trkpt lat="43.66251" lon="3.82719">
        <ele>110.15469083932</ele>
        <time>2020-10-17T07:58:53.000Z</time>
      </trkpt>
      <trkpt lat="43.66252" lon="3.82715">
        <ele>110.25449117478</ele>
        <time>2020-10-17T07:58:54.000Z</time>
      </trkpt>
      <trkpt lat="43.66252" lon="3.82712">
        <ele>110.35429151023</ele>
        <time>2020-10-17T07:58:55.000Z</time>
      </trkpt>
      <trkpt lat="43.66253" lon="3.82709">
        <ele>110.45409184569</ele>
        <time>2020-10-17T07:58:56.000Z</time>
      </trkpt>
      <trkpt lat="43.66254" lon="3.82707">
        <ele>110.55389218115</ele>
        <time>2020-10-17T07:58:57.000Z</time>
      </trkpt>
      <trkpt lat="43.66255" lon="3.82704">
        <ele>110.6536925166</ele>
        <time>2020-10-17T07:58:58.000Z</time>
      </trkpt>
      <trkpt lat="43.66256" lon="3.827">
        <ele>110.85329318752</ele>
        <time>2020-10-17T07:59:00.000Z</time>
      </trkpt>
      <trkpt lat="43.66258" lon="3.82698">
        <ele>111</ele>
        <time>2020-10-17T07:59:02.000Z</time>
      </trkpt>
      <trkpt lat="43.66258" lon="3.82698">
        <ele>111</ele>
        <time>2020-10-17T07:59:07.000Z</time>
      </trkpt>
      <trkpt lat="43.66259" lon="3.82696">
        <ele>111</ele>
        <time>2020-10-17T07:59:16.000Z</time>
      </trkpt>
      <trkpt lat="43.6626" lon="3.82694">
        <ele>110.73989113694</ele>
        <time>2020-10-17T07:59:19.000Z</time>
      </trkpt>
      <trkpt lat="43.6626" lon="3.82691">
        <ele>110.19344247618</ele>
        <time>2020-10-17T07:59:24.000Z</time>
      </trkpt>
      <trkpt lat="43.66259" lon="3.82689">
        <ele>110</ele>
        <time>2020-10-17T07:59:26.000Z</time>
      </trkpt>
      <trkpt lat="43.66256" lon="3.82681">
        <ele>110</ele>
        <time>2020-10-17T07:59:31.000Z</time>
      </trkpt>
      <trkpt lat="43.66256" lon="3.82679">
        <ele>109.87020661219</ele>
        <time>2020-10-17T07:59:32.000Z</time>
      </trkpt>
      <trkpt lat="43.66256" lon="3.82679">
        <ele>109</ele>
        <time>2020-10-17T07:59:38.000Z</time>
      </trkpt>
      <trkpt lat="43.66259" lon="3.82673">
        <ele>109</ele>
        <time>2020-10-17T07:59:50.000Z</time>
      </trkpt>
      <trkpt lat="43.66259" lon="3.82672">
        <ele>109</ele>
        <time>2020-10-17T07:59:52.000Z</time>
      </trkpt>
      <trkpt lat="43.66259" lon="3.82668">
        <ele>109</ele>
        <time>2020-10-17T07:59:55.000Z</time>
      </trkpt>
      <trkpt lat="43.66259" lon="3.82666">
        <ele>109</ele>
        <time>2020-10-17T07:59:56.000Z</time>
      </trkpt>
      <trkpt lat="43.66259" lon="3.82663">
        <ele>109</ele>
        <time>2020-10-17T07:59:57.000Z</time>
      </trkpt>
      <trkpt lat="43.66259" lon="3.8266">
        <ele>109</ele>
        <time>2020-10-17T07:59:58.000Z</time>
      </trkpt>
      <trkpt lat="43.6626" lon="3.82657">
        <ele>109</ele>
        <time>2020-10-17T07:59:59.000Z</time>
      </trkpt>
      <trkpt lat="43.6626" lon="3.82655">
        <ele>109</ele>
        <time>2020-10-17T08:00:00.000Z</time>
      </trkpt>
      <trkpt lat="43.6626" lon="3.8265">
        <ele>108.84951434593</ele>
        <time>2020-10-17T08:00:02.000Z</time>
      </trkpt>
      <trkpt lat="43.66259" lon="3.82647">
        <ele>108.75242702762</ele>
        <time>2020-10-17T08:00:03.000Z</time>
      </trkpt>
      <trkpt lat="43.66258" lon="3.82644">
        <ele>108.55825239099</ele>
        <time>2020-10-17T08:00:05.000Z</time>
      </trkpt>
      <trkpt lat="43.66258" lon="3.82641">
        <ele>108</ele>
        <time>2020-10-17T08:00:12.000Z</time>
      </trkpt>
      <trkpt lat="43.66258" lon="3.82638">
        <ele>108</ele>
        <time>2020-10-17T08:00:14.000Z</time>
      </trkpt>
      <trkpt lat="43.66259" lon="3.82633">
        <ele>108</ele>
        <time>2020-10-17T08:00:16.000Z</time>
      </trkpt>
      <trkpt lat="43.6626" lon="3.8263">
        <ele>108</ele>
        <time>2020-10-17T08:00:18.000Z</time>
      </trkpt>
      <trkpt lat="43.66263" lon="3.82629">
        <ele>108</ele>
        <time>2020-10-17T08:00:22.000Z</time>
      </trkpt>
      <trkpt lat="43.66265" lon="3.82629">
        <ele>108</ele>
        <time>2020-10-17T08:00:24.000Z</time>
      </trkpt>
      <trkpt lat="43.66268" lon="3.82628">
        <ele>108</ele>
        <time>2020-10-17T08:00:26.000Z</time>
      </trkpt>
      <trkpt lat="43.66271" lon="3.82628">
        <ele>108</ele>
        <time>2020-10-17T08:00:28.000Z</time>
      </trkpt>
      <trkpt lat="43.66273" lon="3.82626">
        <ele>108</ele>
        <time>2020-10-17T08:00:30.000Z</time>
      </trkpt>
      <trkpt lat="43.66275" lon="3.82626">
        <ele>108</ele>
        <time>2020-10-17T08:00:34.000Z</time>
      </trkpt>
      <trkpt lat="43.66275" lon="3.82626">
        <ele>108</ele>
        <time>2020-10-17T08:00:39.000Z</time>
      </trkpt>
      <trkpt lat="43.66282" lon="3.82626">
        <ele>109.00511215059</ele>
        <time>2020-10-17T08:00:57.000Z</time>
      </trkpt>
      <trkpt lat="43.66283" lon="3.82626">
        <ele>109.10736170625</ele>
        <time>2020-10-17T08:00:58.000Z</time>
      </trkpt>
      <trkpt lat="43.66286" lon="3.82625">
        <ele>109.31186081758</ele>
        <time>2020-10-17T08:01:00.000Z</time>
      </trkpt>
      <trkpt lat="43.66288" lon="3.82623">
        <ele>109.41411037324</ele>
        <time>2020-10-17T08:01:01.000Z</time>
      </trkpt>
      <trkpt lat="43.66289" lon="3.82621">
        <ele>109.51635992891</ele>
        <time>2020-10-17T08:01:02.000Z</time>
      </trkpt>
      <trkpt lat="43.6629" lon="3.82619">
        <ele>109.61860948457</ele>
        <time>2020-10-17T08:01:03.000Z</time>
      </trkpt>
      <trkpt lat="43.66292" lon="3.82616">
        <ele>109.72085904023</ele>
        <time>2020-10-17T08:01:04.000Z</time>
      </trkpt>
      <trkpt lat="43.66293" lon="3.82613">
        <ele>109.8231085959</ele>
        <time>2020-10-17T08:01:05.000Z</time>
      </trkpt>
      <trkpt lat="43.66294" lon="3.8261">
        <ele>109.92535815156</ele>
        <time>2020-10-17T08:01:06.000Z</time>
      </trkpt>
      <trkpt lat="43.66296" lon="3.82606">
        <ele>109.97299968</ele>
        <time>2020-10-17T08:01:07.000Z</time>
      </trkpt>
      <trkpt lat="43.66297" lon="3.82604">
        <ele>109.87299968</ele>
        <time>2020-10-17T08:01:08.000Z</time>
      </trkpt>
      <trkpt lat="43.66298" lon="3.826">
        <ele>109.67299968</ele>
        <time>2020-10-17T08:01:10.000Z</time>
      </trkpt>
      <trkpt lat="43.66297" lon="3.82597">
        <ele>109.47299968</ele>
        <time>2020-10-17T08:01:12.000Z</time>
      </trkpt>
      <trkpt lat="43.66297" lon="3.82592">
        <ele>109.27299968</ele>
        <time>2020-10-17T08:01:14.000Z</time>
      </trkpt>
      <trkpt lat="43.66297" lon="3.8259">
        <ele>109.00434557152</ele>
        <time>2020-10-17T08:01:20.000Z</time>
      </trkpt>
      <trkpt lat="43.66297" lon="3.82577">
        <ele>109.9700624672</ele>
        <time>2020-10-17T08:01:40.000Z</time>
      </trkpt>
      <trkpt lat="43.66298" lon="3.82574">
        <ele>110.03767790643</ele>
        <time>2020-10-17T08:01:41.000Z</time>
      </trkpt>
      <trkpt lat="43.66299" lon="3.82571">
        <ele>110.13951096669</ele>
        <time>2020-10-17T08:01:42.000Z</time>
      </trkpt>
      <trkpt lat="43.663" lon="3.82569">
        <ele>110.24134402695</ele>
        <time>2020-10-17T08:01:43.000Z</time>
      </trkpt>
      <trkpt lat="43.66302" lon="3.82566">
        <ele>110.3431770872</ele>
        <time>2020-10-17T08:01:44.000Z</time>
      </trkpt>
      <trkpt lat="43.66303" lon="3.82562">
        <ele>110.54684320772</ele>
        <time>2020-10-17T08:01:46.000Z</time>
      </trkpt>
      <trkpt lat="43.66303" lon="3.82558">
        <ele>110.75050932823</ele>
        <time>2020-10-17T08:01:48.000Z</time>
      </trkpt>
      <trkpt lat="43.66302" lon="3.82556">
        <ele>110.85234238849</ele>
        <time>2020-10-17T08:01:49.000Z</time>
      </trkpt>
      <trkpt lat="43.66302" lon="3.82553">
        <ele>110.95417544875</ele>
        <time>2020-10-17T08:01:50.000Z</time>
      </trkpt>
      <trkpt lat="43.66302" lon="3.8255">
        <ele>110.94649774319</ele>
        <time>2020-10-17T08:01:51.000Z</time>
      </trkpt>
      <trkpt lat="43.66301" lon="3.82547">
        <ele>110.8492214786</ele>
        <time>2020-10-17T08:01:52.000Z</time>
      </trkpt>
      <trkpt lat="43.66301" lon="3.82543">
        <ele>110.65466894942</ele>
        <time>2020-10-17T08:01:54.000Z</time>
      </trkpt>
      <trkpt lat="43.66301" lon="3.82537">
        <ele>110.46011642023</ele>
        <time>2020-10-17T08:01:56.000Z</time>
      </trkpt>
      <trkpt lat="43.663" lon="3.82534">
        <ele>110.36284015564</ele>
        <time>2020-10-17T08:01:57.000Z</time>
      </trkpt>
      <trkpt lat="43.663" lon="3.8253">
        <ele>110.26556389105</ele>
        <time>2020-10-17T08:01:58.000Z</time>
      </trkpt>
      <trkpt lat="43.663" lon="3.82526">
        <ele>110.16828762646</ele>
        <time>2020-10-17T08:01:59.000Z</time>
      </trkpt>
      <trkpt lat="43.663" lon="3.82523">
        <ele>110.07101136187</ele>
        <time>2020-10-17T08:02:00.000Z</time>
      </trkpt>
      <trkpt lat="43.66301" lon="3.82522">
        <ele>110</ele>
        <time>2020-10-17T08:02:06.000Z</time>
      </trkpt>
      <trkpt lat="43.66301" lon="3.82511">
        <ele>110</ele>
        <time>2020-10-17T08:02:14.000Z</time>
      </trkpt>
      <trkpt lat="43.66301" lon="3.82508">
        <ele>110</ele>
        <time>2020-10-17T08:02:15.000Z</time>
      </trkpt>
      <trkpt lat="43.66302" lon="3.82505">
        <ele>110</ele>
        <time>2020-10-17T08:02:16.000Z</time>
      </trkpt>
      <trkpt lat="43.66302" lon="3.82501">
        <ele>110</ele>
        <time>2020-10-17T08:02:17.000Z</time>
      </trkpt>
      <trkpt lat="43.66303" lon="3.82498">
        <ele>110</ele>
        <time>2020-10-17T08:02:18.000Z</time>
      </trkpt>
      <trkpt lat="43.66303" lon="3.82494">
        <ele>110</ele>
        <time>2020-10-17T08:02:19.000Z</time>
      </trkpt>
      <trkpt lat="43.66304" lon="3.8249">
        <ele>110</ele>
        <time>2020-10-17T08:02:20.000Z</time>
      </trkpt>
      <trkpt lat="43.66304" lon="3.82486">
        <ele>110</ele>
        <time>2020-10-17T08:02:21.000Z</time>
      </trkpt>
      <trkpt lat="43.66305" lon="3.82483">
        <ele>110</ele>
        <time>2020-10-17T08:02:22.000Z</time>
      </trkpt>
      <trkpt lat="43.66305" lon="3.82479">
        <ele>110</ele>
        <time>2020-10-17T08:02:23.000Z</time>
      </trkpt>
      <trkpt lat="43.66306" lon="3.82475">
        <ele>110</ele>
        <time>2020-10-17T08:02:24.000Z</time>
      </trkpt>
      <trkpt lat="43.66306" lon="3.82471">
        <ele>110.05350225681</ele>
        <time>2020-10-17T08:02:25.000Z</time>
      </trkpt>
      <trkpt lat="43.66306" lon="3.82467">
        <ele>110.1507785214</ele>
        <time>2020-10-17T08:02:26.000Z</time>
      </trkpt>
      <trkpt lat="43.66306" lon="3.82463">
        <ele>110.24805478599</ele>
        <time>2020-10-17T08:02:27.000Z</time>
      </trkpt>
      <trkpt lat="43.66307" lon="3.82458">
        <ele>110.34533105058</ele>
        <time>2020-10-17T08:02:28.000Z</time>
      </trkpt>
      <trkpt lat="43.66309" lon="3.82455">
        <ele>110.44260731517</ele>
        <time>2020-10-17T08:02:29.000Z</time>
      </trkpt>
      <trkpt lat="43.6631" lon="3.82452">
        <ele>110.53988357977</ele>
        <time>2020-10-17T08:02:30.000Z</time>
      </trkpt>
      <trkpt lat="43.66312" lon="3.8245">
        <ele>110.63715984436</ele>
        <time>2020-10-17T08:02:31.000Z</time>
      </trkpt>
      <trkpt lat="43.66314" lon="3.82449">
        <ele>110.73443610895</ele>
        <time>2020-10-17T08:02:32.000Z</time>
      </trkpt>
      <trkpt lat="43.66315" lon="3.82447">
        <ele>110.83171237354</ele>
        <time>2020-10-17T08:02:33.000Z</time>
      </trkpt>
      <trkpt lat="43.66317" lon="3.82446">
        <ele>110.92898863813</ele>
        <time>2020-10-17T08:02:34.000Z</time>
      </trkpt>
      <trkpt lat="43.66319" lon="3.82444">
        <ele>111.027778107</ele>
        <time>2020-10-17T08:02:35.000Z</time>
      </trkpt>
      <trkpt lat="43.6632" lon="3.82442">
        <ele>111.13065876543</ele>
        <time>2020-10-17T08:02:36.000Z</time>
      </trkpt>
      <trkpt lat="43.66322" lon="3.82441">
        <ele>111.23353942387</ele>
        <time>2020-10-17T08:02:37.000Z</time>
      </trkpt>
      <trkpt lat="43.66324" lon="3.82439">
        <ele>111.3364200823</ele>
        <time>2020-10-17T08:02:38.000Z</time>
      </trkpt>
      <trkpt lat="43.66325" lon="3.82437">
        <ele>111.43930074074</ele>
        <time>2020-10-17T08:02:39.000Z</time>
      </trkpt>
      <trkpt lat="43.66327" lon="3.82436">
        <ele>111.54218139918</ele>
        <time>2020-10-17T08:02:40.000Z</time>
      </trkpt>
      <trkpt lat="43.66328" lon="3.82434">
        <ele>111.64506205761</ele>
        <time>2020-10-17T08:02:41.000Z</time>
      </trkpt>
      <trkpt lat="43.6633" lon="3.82433">
        <ele>111.74794271605</ele>
        <time>2020-10-17T08:02:42.000Z</time>
      </trkpt>
      <trkpt lat="43.66331" lon="3.82433">
        <ele>112</ele>
        <time>2020-10-17T08:02:49.000Z</time>
      </trkpt>
      <trkpt lat="43.66336" lon="3.82429">
        <ele>112.00630848166</ele>
        <time>2020-10-17T08:03:09.000Z</time>
      </trkpt>
      <trkpt lat="43.66338" lon="3.82429">
        <ele>112.11146105889</ele>
        <time>2020-10-17T08:03:10.000Z</time>
      </trkpt>
      <trkpt lat="43.66341" lon="3.82427">
        <ele>112.32176621335</ele>
        <time>2020-10-17T08:03:12.000Z</time>
      </trkpt>
      <trkpt lat="43.66343" lon="3.82425">
        <ele>112.42691879058</ele>
        <time>2020-10-17T08:03:13.000Z</time>
      </trkpt>
      <trkpt lat="43.66345" lon="3.82424">
        <ele>112.53207136781</ele>
        <time>2020-10-17T08:03:14.000Z</time>
      </trkpt>
      <trkpt lat="43.66347" lon="3.82422">
        <ele>112.63722394504</ele>
        <time>2020-10-17T08:03:15.000Z</time>
      </trkpt>
      <trkpt lat="43.66348" lon="3.82421">
        <ele>112.74237652227</ele>
        <time>2020-10-17T08:03:16.000Z</time>
      </trkpt>
      <trkpt lat="43.6635" lon="3.82419">
        <ele>112.8475290995</ele>
        <time>2020-10-17T08:03:17.000Z</time>
      </trkpt>
      <trkpt lat="43.66352" lon="3.82418">
        <ele>112.95268167673</ele>
        <time>2020-10-17T08:03:18.000Z</time>
      </trkpt>
      <trkpt lat="43.66354" lon="3.82416">
        <ele>113.4523355642</ele>
        <time>2020-10-17T08:03:20.000Z</time>
      </trkpt>
      <trkpt lat="43.66357" lon="3.82414">
        <ele>114.03599315175</ele>
        <time>2020-10-17T08:03:22.000Z</time>
      </trkpt>
      <trkpt lat="43.66359" lon="3.82412">
        <ele>114.6196507393</ele>
        <time>2020-10-17T08:03:24.000Z</time>
      </trkpt>
      <trkpt lat="43.66362" lon="3.8241">
        <ele>115.20330832685</ele>
        <time>2020-10-17T08:03:26.000Z</time>
      </trkpt>
      <trkpt lat="43.66364" lon="3.82408">
        <ele>115.7869659144</ele>
        <time>2020-10-17T08:03:28.000Z</time>
      </trkpt>
      <trkpt lat="43.66364" lon="3.82408">
        <ele>115.12320320447</ele>
        <time>2020-10-17T08:03:33.000Z</time>
      </trkpt>
      <trkpt lat="43.66364" lon="3.82407">
        <ele>118.98228509554</ele>
        <time>2020-10-17T08:06:54.000Z</time>
      </trkpt>
      <trkpt lat="43.66365" lon="3.82403">
        <ele>118</ele>
        <time>2020-10-17T08:07:00.000Z</time>
      </trkpt>
      <trkpt lat="43.66366" lon="3.824">
        <ele>118</ele>
        <time>2020-10-17T08:07:02.000Z</time>
      </trkpt>
      <trkpt lat="43.66367" lon="3.82397">
        <ele>118</ele>
        <time>2020-10-17T08:07:03.000Z</time>
      </trkpt>
      <trkpt lat="43.66367" lon="3.82397">
        <ele>117.96435768039</ele>
        <time>2020-10-17T08:07:10.000Z</time>
      </trkpt>
      <trkpt lat="43.66361" lon="3.82384">
        <ele>117.17227797055</ele>
        <time>2020-10-17T08:07:14.000Z</time>
      </trkpt>
      <trkpt lat="43.66359" lon="3.82379">
        <ele>117</ele>
        <time>2020-10-17T08:07:15.000Z</time>
      </trkpt>
      <trkpt lat="43.66358" lon="3.82373">
        <ele>117</ele>
        <time>2020-10-17T08:07:16.000Z</time>
      </trkpt>
      <trkpt lat="43.66356" lon="3.82367">
        <ele>117</ele>
        <time>2020-10-17T08:07:17.000Z</time>
      </trkpt>
      <trkpt lat="43.66354" lon="3.82363">
        <ele>117</ele>
        <time>2020-10-17T08:07:18.000Z</time>
      </trkpt>
      <trkpt lat="43.66352" lon="3.8236">
        <ele>117</ele>
        <time>2020-10-17T08:07:19.000Z</time>
      </trkpt>
      <trkpt lat="43.66349" lon="3.82357">
        <ele>117</ele>
        <time>2020-10-17T08:07:20.000Z</time>
      </trkpt>
      <trkpt lat="43.66347" lon="3.82353">
        <ele>117</ele>
        <time>2020-10-17T08:07:21.000Z</time>
      </trkpt>
      <trkpt lat="43.66345" lon="3.82349">
        <ele>117</ele>
        <time>2020-10-17T08:07:22.000Z</time>
      </trkpt>
      <trkpt lat="43.66343" lon="3.82345">
        <ele>117</ele>
        <time>2020-10-17T08:07:23.000Z</time>
      </trkpt>
      <trkpt lat="43.66341" lon="3.82343">
        <ele>117</ele>
        <time>2020-10-17T08:07:24.000Z</time>
      </trkpt>
      <trkpt lat="43.66337" lon="3.82341">
        <ele>116.94594653464</ele>
        <time>2020-10-17T08:07:25.000Z</time>
      </trkpt>
      <trkpt lat="43.66334" lon="3.82337">
        <ele>116.84584633835</ele>
        <time>2020-10-17T08:07:26.000Z</time>
      </trkpt>
      <trkpt lat="43.66332" lon="3.82333">
        <ele>116.74574614206</ele>
        <time>2020-10-17T08:07:27.000Z</time>
      </trkpt>
      <trkpt lat="43.66329" lon="3.82327">
        <ele>116.64564594577</ele>
        <time>2020-10-17T08:07:28.000Z</time>
      </trkpt>
      <trkpt lat="43.66327" lon="3.82321">
        <ele>116.54554574947</ele>
        <time>2020-10-17T08:07:29.000Z</time>
      </trkpt>
      <trkpt lat="43.66325" lon="3.82315">
        <ele>116.44544555318</ele>
        <time>2020-10-17T08:07:30.000Z</time>
      </trkpt>
      <trkpt lat="43.66323" lon="3.82311">
        <ele>116.34534535689</ele>
        <time>2020-10-17T08:07:31.000Z</time>
      </trkpt>
      <trkpt lat="43.66322" lon="3.82309">
        <ele>116.2452451606</ele>
        <time>2020-10-17T08:07:32.000Z</time>
      </trkpt>
      <trkpt lat="43.66321" lon="3.82306">
        <ele>116.1451449643</ele>
        <time>2020-10-17T08:07:33.000Z</time>
      </trkpt>
      <trkpt lat="43.66319" lon="3.82302">
        <ele>116</ele>
        <time>2020-10-17T08:07:35.000Z</time>
      </trkpt>
      <trkpt lat="43.66319" lon="3.823">
        <ele>116</ele>
        <time>2020-10-17T08:07:36.000Z</time>
      </trkpt>
      <trkpt lat="43.66318" lon="3.82297">
        <ele>116</ele>
        <time>2020-10-17T08:07:37.000Z</time>
      </trkpt>
      <trkpt lat="43.66317" lon="3.82293">
        <ele>116</ele>
        <time>2020-10-17T08:07:39.000Z</time>
      </trkpt>
      <trkpt lat="43.66315" lon="3.82289">
        <ele>116</ele>
        <time>2020-10-17T08:07:41.000Z</time>
      </trkpt>
      <trkpt lat="43.66314" lon="3.82285">
        <ele>116</ele>
        <time>2020-10-17T08:07:43.000Z</time>
      </trkpt>
      <trkpt lat="43.66314" lon="3.82281">
        <ele>116</ele>
        <time>2020-10-17T08:07:45.000Z</time>
      </trkpt>
      <trkpt lat="43.66314" lon="3.82278">
        <ele>116</ele>
        <time>2020-10-17T08:07:46.000Z</time>
      </trkpt>
      <trkpt lat="43.66313" lon="3.82275">
        <ele>116</ele>
        <time>2020-10-17T08:07:47.000Z</time>
      </trkpt>
      <trkpt lat="43.66313" lon="3.82273">
        <ele>116</ele>
        <time>2020-10-17T08:07:48.000Z</time>
      </trkpt>
      <trkpt lat="43.66313" lon="3.82269">
        <ele>116</ele>
        <time>2020-10-17T08:07:49.000Z</time>
      </trkpt>
      <trkpt lat="43.66313" lon="3.82266">
        <ele>116</ele>
        <time>2020-10-17T08:07:50.000Z</time>
      </trkpt>
      <trkpt lat="43.66313" lon="3.82262">
        <ele>116</ele>
        <time>2020-10-17T08:07:51.000Z</time>
      </trkpt>
      <trkpt lat="43.66313" lon="3.82259">
        <ele>116</ele>
        <time>2020-10-17T08:07:52.000Z</time>
      </trkpt>
      <trkpt lat="43.66313" lon="3.82256">
        <ele>116</ele>
        <time>2020-10-17T08:07:53.000Z</time>
      </trkpt>
      <trkpt lat="43.66313" lon="3.82253">
        <ele>116</ele>
        <time>2020-10-17T08:07:54.000Z</time>
      </trkpt>
      <trkpt lat="43.66312" lon="3.82249">
        <ele>116</ele>
        <time>2020-10-17T08:07:55.000Z</time>
      </trkpt>
      <trkpt lat="43.66312" lon="3.82245">
        <ele>116</ele>
        <time>2020-10-17T08:07:56.000Z</time>
      </trkpt>
      <trkpt lat="43.66312" lon="3.82241">
        <ele>116</ele>
        <time>2020-10-17T08:07:57.000Z</time>
      </trkpt>
      <trkpt lat="43.66311" lon="3.82237">
        <ele>116</ele>
        <time>2020-10-17T08:07:58.000Z</time>
      </trkpt>
      <trkpt lat="43.66311" lon="3.82233">
        <ele>116</ele>
        <time>2020-10-17T08:07:59.000Z</time>
      </trkpt>
      <trkpt lat="43.6631" lon="3.82228">
        <ele>116</ele>
        <time>2020-10-17T08:08:00.000Z</time>
      </trkpt>
      <trkpt lat="43.6631" lon="3.82224">
        <ele>116</ele>
        <time>2020-10-17T08:08:01.000Z</time>
      </trkpt>
      <trkpt lat="43.6631" lon="3.8222">
        <ele>116</ele>
        <time>2020-10-17T08:08:02.000Z</time>
      </trkpt>
      <trkpt lat="43.6631" lon="3.82216">
        <ele>116</ele>
        <time>2020-10-17T08:08:03.000Z</time>
      </trkpt>
      <trkpt lat="43.6631" lon="3.82213">
        <ele>116</ele>
        <time>2020-10-17T08:08:04.000Z</time>
      </trkpt>
      <trkpt lat="43.6631" lon="3.82209">
        <ele>116</ele>
        <time>2020-10-17T08:08:05.000Z</time>
      </trkpt>
      <trkpt lat="43.66309" lon="3.82205">
        <ele>116</ele>
        <time>2020-10-17T08:08:06.000Z</time>
      </trkpt>
      <trkpt lat="43.66309" lon="3.82201">
        <ele>116</ele>
        <time>2020-10-17T08:08:07.000Z</time>
      </trkpt>
      <trkpt lat="43.66307" lon="3.82197">
        <ele>116</ele>
        <time>2020-10-17T08:08:08.000Z</time>
      </trkpt>
      <trkpt lat="43.66307" lon="3.82192">
        <ele>116</ele>
        <time>2020-10-17T08:08:09.000Z</time>
      </trkpt>
      <trkpt lat="43.66306" lon="3.82187">
        <ele>116</ele>
        <time>2020-10-17T08:08:10.000Z</time>
      </trkpt>
      <trkpt lat="43.66305" lon="3.82183">
        <ele>116</ele>
        <time>2020-10-17T08:08:11.000Z</time>
      </trkpt>
      <trkpt lat="43.66303" lon="3.82179">
        <ele>116</ele>
        <time>2020-10-17T08:08:12.000Z</time>
      </trkpt>
      <trkpt lat="43.66302" lon="3.82176">
        <ele>116</ele>
        <time>2020-10-17T08:08:13.000Z</time>
      </trkpt>
      <trkpt lat="43.663" lon="3.82172">
        <ele>116</ele>
        <time>2020-10-17T08:08:14.000Z</time>
      </trkpt>
      <trkpt lat="43.66299" lon="3.82169">
        <ele>115.94499968</ele>
        <time>2020-10-17T08:08:15.000Z</time>
      </trkpt>
      <trkpt lat="43.66297" lon="3.82165">
        <ele>115.84499968</ele>
        <time>2020-10-17T08:08:16.000Z</time>
      </trkpt>
      <trkpt lat="43.66296" lon="3.82162">
        <ele>115.74499968</ele>
        <time>2020-10-17T08:08:17.000Z</time>
      </trkpt>
      <trkpt lat="43.66293" lon="3.8216">
        <ele>115.64499968</ele>
        <time>2020-10-17T08:08:18.000Z</time>
      </trkpt>
      <trkpt lat="43.66291" lon="3.82157">
        <ele>115.54499968</ele>
        <time>2020-10-17T08:08:19.000Z</time>
      </trkpt>
      <trkpt lat="43.66288" lon="3.82153">
        <ele>115.44499968</ele>
        <time>2020-10-17T08:08:20.000Z</time>
      </trkpt>
      <trkpt lat="43.66286" lon="3.82148">
        <ele>115.34499968</ele>
        <time>2020-10-17T08:08:21.000Z</time>
      </trkpt>
      <trkpt lat="43.66284" lon="3.82145">
        <ele>115.24499968</ele>
        <time>2020-10-17T08:08:22.000Z</time>
      </trkpt>
      <trkpt lat="43.66282" lon="3.82142">
        <ele>115.14499968</ele>
        <time>2020-10-17T08:08:23.000Z</time>
      </trkpt>
      <trkpt lat="43.66281" lon="3.82138">
        <ele>115.04499968</ele>
        <time>2020-10-17T08:08:24.000Z</time>
      </trkpt>
      <trkpt lat="43.66279" lon="3.82134">
        <ele>115</ele>
        <time>2020-10-17T08:08:25.000Z</time>
      </trkpt>
      <trkpt lat="43.66277" lon="3.82129">
        <ele>115</ele>
        <time>2020-10-17T08:08:26.000Z</time>
      </trkpt>
      <trkpt lat="43.66275" lon="3.82125">
        <ele>115</ele>
        <time>2020-10-17T08:08:27.000Z</time>
      </trkpt>
      <trkpt lat="43.66274" lon="3.8212">
        <ele>115</ele>
        <time>2020-10-17T08:08:28.000Z</time>
      </trkpt>
      <trkpt lat="43.66273" lon="3.82116">
        <ele>115</ele>
        <time>2020-10-17T08:08:29.000Z</time>
      </trkpt>
      <trkpt lat="43.66272" lon="3.82112">
        <ele>115</ele>
        <time>2020-10-17T08:08:30.000Z</time>
      </trkpt>
      <trkpt lat="43.66271" lon="3.82108">
        <ele>115</ele>
        <time>2020-10-17T08:08:31.000Z</time>
      </trkpt>
      <trkpt lat="43.6627" lon="3.82105">
        <ele>115</ele>
        <time>2020-10-17T08:08:32.000Z</time>
      </trkpt>
      <trkpt lat="43.66269" lon="3.82101">
        <ele>115</ele>
        <time>2020-10-17T08:08:33.000Z</time>
      </trkpt>
      <trkpt lat="43.66267" lon="3.82097">
        <ele>115</ele>
        <time>2020-10-17T08:08:34.000Z</time>
      </trkpt>
      <trkpt lat="43.66265" lon="3.82092">
        <ele>114.88999936</ele>
        <time>2020-10-17T08:08:35.000Z</time>
      </trkpt>
      <trkpt lat="43.66263" lon="3.82088">
        <ele>114.68999936</ele>
        <time>2020-10-17T08:08:36.000Z</time>
      </trkpt>
      <trkpt lat="43.6626" lon="3.82082">
        <ele>114.48999936</ele>
        <time>2020-10-17T08:08:37.000Z</time>
      </trkpt>
      <trkpt lat="43.66257" lon="3.82076">
        <ele>114.28999936</ele>
        <time>2020-10-17T08:08:38.000Z</time>
      </trkpt>
      <trkpt lat="43.66255" lon="3.8207">
        <ele>114.08999936</ele>
        <time>2020-10-17T08:08:39.000Z</time>
      </trkpt>
      <trkpt lat="43.66253" lon="3.82065">
        <ele>113.88999936</ele>
        <time>2020-10-17T08:08:40.000Z</time>
      </trkpt>
      <trkpt lat="43.66251" lon="3.82062">
        <ele>113.68999936</ele>
        <time>2020-10-17T08:08:41.000Z</time>
      </trkpt>
      <trkpt lat="43.66249" lon="3.82058">
        <ele>113.48999936</ele>
        <time>2020-10-17T08:08:42.000Z</time>
      </trkpt>
      <trkpt lat="43.66248" lon="3.82053">
        <ele>113.28999936</ele>
        <time>2020-10-17T08:08:43.000Z</time>
      </trkpt>
      <trkpt lat="43.66247" lon="3.82049">
        <ele>113.08999936</ele>
        <time>2020-10-17T08:08:44.000Z</time>
      </trkpt>
      <trkpt lat="43.66247" lon="3.82045">
        <ele>112.94499968</ele>
        <time>2020-10-17T08:08:45.000Z</time>
      </trkpt>
      <trkpt lat="43.66246" lon="3.82041">
        <ele>112.84499968</ele>
        <time>2020-10-17T08:08:46.000Z</time>
      </trkpt>
      <trkpt lat="43.66245" lon="3.82037">
        <ele>112.74499968</ele>
        <time>2020-10-17T08:08:47.000Z</time>
      </trkpt>
      <trkpt lat="43.66244" lon="3.82033">
        <ele>112.64499968</ele>
        <time>2020-10-17T08:08:48.000Z</time>
      </trkpt>
      <trkpt lat="43.66243" lon="3.8203">
        <ele>112.54499968</ele>
        <time>2020-10-17T08:08:49.000Z</time>
      </trkpt>
      <trkpt lat="43.66242" lon="3.82027">
        <ele>112.44499968</ele>
        <time>2020-10-17T08:08:50.000Z</time>
      </trkpt>
      <trkpt lat="43.66241" lon="3.82024">
        <ele>112.34499968</ele>
        <time>2020-10-17T08:08:51.000Z</time>
      </trkpt>
      <trkpt lat="43.66239" lon="3.82022">
        <ele>112.24499968</ele>
        <time>2020-10-17T08:08:52.000Z</time>
      </trkpt>
      <trkpt lat="43.66237" lon="3.82021">
        <ele>112.14499968</ele>
        <time>2020-10-17T08:08:53.000Z</time>
      </trkpt>
      <trkpt lat="43.66235" lon="3.82021">
        <ele>112.04499968</ele>
        <time>2020-10-17T08:08:54.000Z</time>
      </trkpt>
      <trkpt lat="43.66233" lon="3.82019">
        <ele>111.88999936</ele>
        <time>2020-10-17T08:08:55.000Z</time>
      </trkpt>
      <trkpt lat="43.6623" lon="3.82017">
        <ele>111.68999936</ele>
        <time>2020-10-17T08:08:56.000Z</time>
      </trkpt>
      <trkpt lat="43.66227" lon="3.82015">
        <ele>111.48999936</ele>
        <time>2020-10-17T08:08:57.000Z</time>
      </trkpt>
      <trkpt lat="43.66225" lon="3.82013">
        <ele>111.28999936</ele>
        <time>2020-10-17T08:08:58.000Z</time>
      </trkpt>
      <trkpt lat="43.66222" lon="3.82011">
        <ele>111.08999936</ele>
        <time>2020-10-17T08:08:59.000Z</time>
      </trkpt>
      <trkpt lat="43.6622" lon="3.8201">
        <ele>110.88999936</ele>
        <time>2020-10-17T08:09:00.000Z</time>
      </trkpt>
      <trkpt lat="43.66217" lon="3.82008">
        <ele>110.68999936</ele>
        <time>2020-10-17T08:09:01.000Z</time>
      </trkpt>
      <trkpt lat="43.66214" lon="3.82006">
        <ele>110.48999936</ele>
        <time>2020-10-17T08:09:02.000Z</time>
      </trkpt>
      <trkpt lat="43.66212" lon="3.82005">
        <ele>110.28999936</ele>
        <time>2020-10-17T08:09:03.000Z</time>
      </trkpt>
      <trkpt lat="43.66209" lon="3.82004">
        <ele>110.08999936</ele>
        <time>2020-10-17T08:09:04.000Z</time>
      </trkpt>
      <trkpt lat="43.66206" lon="3.82002">
        <ele>109.94499968</ele>
        <time>2020-10-17T08:09:05.000Z</time>
      </trkpt>
      <trkpt lat="43.66204" lon="3.81999">
        <ele>109.84499968</ele>
        <time>2020-10-17T08:09:06.000Z</time>
      </trkpt>
      <trkpt lat="43.66202" lon="3.81996">
        <ele>109.74499968</ele>
        <time>2020-10-17T08:09:07.000Z</time>
      </trkpt>
      <trkpt lat="43.662" lon="3.81993">
        <ele>109.64499968</ele>
        <time>2020-10-17T08:09:08.000Z</time>
      </trkpt>
      <trkpt lat="43.662" lon="3.8199">
        <ele>109.54499968</ele>
        <time>2020-10-17T08:09:09.000Z</time>
      </trkpt>
      <trkpt lat="43.662" lon="3.81987">
        <ele>109.44499968</ele>
        <time>2020-10-17T08:09:10.000Z</time>
      </trkpt>
      <trkpt lat="43.66201" lon="3.81984">
        <ele>109.34499968</ele>
        <time>2020-10-17T08:09:11.000Z</time>
      </trkpt>
      <trkpt lat="43.66202" lon="3.81981">
        <ele>109.24499968</ele>
        <time>2020-10-17T08:09:12.000Z</time>
      </trkpt>
      <trkpt lat="43.66203" lon="3.81978">
        <ele>109.14499968</ele>
        <time>2020-10-17T08:09:13.000Z</time>
      </trkpt>
      <trkpt lat="43.66204" lon="3.81976">
        <ele>109.04499968</ele>
        <time>2020-10-17T08:09:14.000Z</time>
      </trkpt>
      <trkpt lat="43.66206" lon="3.81971">
        <ele>109.15500032</ele>
        <time>2020-10-17T08:09:16.000Z</time>
      </trkpt>
      <trkpt lat="43.66207" lon="3.81969">
        <ele>109.25500032</ele>
        <time>2020-10-17T08:09:17.000Z</time>
      </trkpt>
      <trkpt lat="43.66207" lon="3.81967">
        <ele>109.35500032</ele>
        <time>2020-10-17T08:09:18.000Z</time>
      </trkpt>
      <trkpt lat="43.66208" lon="3.81964">
        <ele>109.45500032</ele>
        <time>2020-10-17T08:09:19.000Z</time>
      </trkpt>
      <trkpt lat="43.66209" lon="3.81962">
        <ele>109.55500032</ele>
        <time>2020-10-17T08:09:20.000Z</time>
      </trkpt>
      <trkpt lat="43.66209" lon="3.81959">
        <ele>109.65500032</ele>
        <time>2020-10-17T08:09:21.000Z</time>
      </trkpt>
      <trkpt lat="43.66209" lon="3.81956">
        <ele>109.75500032</ele>
        <time>2020-10-17T08:09:22.000Z</time>
      </trkpt>
      <trkpt lat="43.66209" lon="3.81952">
        <ele>109.85500032</ele>
        <time>2020-10-17T08:09:23.000Z</time>
      </trkpt>
      <trkpt lat="43.66209" lon="3.81949">
        <ele>109.95500032</ele>
        <time>2020-10-17T08:09:24.000Z</time>
      </trkpt>
      <trkpt lat="43.66209" lon="3.81945">
        <ele>110.05500032</ele>
        <time>2020-10-17T08:09:25.000Z</time>
      </trkpt>
      <trkpt lat="43.6621" lon="3.81941">
        <ele>110.15500032</ele>
        <time>2020-10-17T08:09:26.000Z</time>
      </trkpt>
      <trkpt lat="43.6621" lon="3.81938">
        <ele>110.25500032</ele>
        <time>2020-10-17T08:09:27.000Z</time>
      </trkpt>
      <trkpt lat="43.66211" lon="3.81934">
        <ele>110.35500032</ele>
        <time>2020-10-17T08:09:28.000Z</time>
      </trkpt>
      <trkpt lat="43.66211" lon="3.81931">
        <ele>110.45500032</ele>
        <time>2020-10-17T08:09:29.000Z</time>
      </trkpt>
      <trkpt lat="43.66212" lon="3.81927">
        <ele>110.55500032</ele>
        <time>2020-10-17T08:09:30.000Z</time>
      </trkpt>
      <trkpt lat="43.66213" lon="3.81924">
        <ele>110.65500032</ele>
        <time>2020-10-17T08:09:31.000Z</time>
      </trkpt>
      <trkpt lat="43.66214" lon="3.8192">
        <ele>110.75500032</ele>
        <time>2020-10-17T08:09:32.000Z</time>
      </trkpt>
      <trkpt lat="43.66215" lon="3.81917">
        <ele>110.85500032</ele>
        <time>2020-10-17T08:09:33.000Z</time>
      </trkpt>
      <trkpt lat="43.66215" lon="3.81914">
        <ele>110.95500032</ele>
        <time>2020-10-17T08:09:34.000Z</time>
      </trkpt>
      <trkpt lat="43.66216" lon="3.81911">
        <ele>111.05500032</ele>
        <time>2020-10-17T08:09:35.000Z</time>
      </trkpt>
      <trkpt lat="43.66216" lon="3.81908">
        <ele>111.15500032</ele>
        <time>2020-10-17T08:09:36.000Z</time>
      </trkpt>
      <trkpt lat="43.66217" lon="3.81904">
        <ele>111.25500032</ele>
        <time>2020-10-17T08:09:37.000Z</time>
      </trkpt>
      <trkpt lat="43.66218" lon="3.81901">
        <ele>111.35500032</ele>
        <time>2020-10-17T08:09:38.000Z</time>
      </trkpt>
      <trkpt lat="43.66218" lon="3.81898">
        <ele>111.45500032</ele>
        <time>2020-10-17T08:09:39.000Z</time>
      </trkpt>
      <trkpt lat="43.66218" lon="3.81896">
        <ele>111.55500032</ele>
        <time>2020-10-17T08:09:40.000Z</time>
      </trkpt>
      <trkpt lat="43.66218" lon="3.81892">
        <ele>111.75500032</ele>
        <time>2020-10-17T08:09:42.000Z</time>
      </trkpt>
      <trkpt lat="43.66218" lon="3.81888">
        <ele>111.95500032</ele>
        <time>2020-10-17T08:09:44.000Z</time>
      </trkpt>
      <trkpt lat="43.66218" lon="3.81885">
        <ele>112.16471878078</ele>
        <time>2020-10-17T08:09:46.000Z</time>
      </trkpt>
      <trkpt lat="43.66218" lon="3.81883">
        <ele>112.37725870427</ele>
        <time>2020-10-17T08:09:48.000Z</time>
      </trkpt>
      <trkpt lat="43.66218" lon="3.81882">
        <ele>113</ele>
        <time>2020-10-17T08:09:54.000Z</time>
      </trkpt>
      <trkpt lat="43.66217" lon="3.81879">
        <ele>112.01772216483</ele>
        <time>2020-10-17T08:10:28.000Z</time>
      </trkpt>
      <trkpt lat="43.66218" lon="3.81879">
        <ele>112</ele>
        <time>2020-10-17T08:10:33.000Z</time>
      </trkpt>
      <trkpt lat="43.66219" lon="3.8187">
        <ele>112</ele>
        <time>2020-10-17T08:11:06.000Z</time>
      </trkpt>
      <trkpt lat="43.6622" lon="3.81867">
        <ele>112.01253918915</ele>
        <time>2020-10-17T08:11:07.000Z</time>
      </trkpt>
      <trkpt lat="43.66221" lon="3.81864">
        <ele>112.11703243203</ele>
        <time>2020-10-17T08:11:08.000Z</time>
      </trkpt>
      <trkpt lat="43.66222" lon="3.8186">
        <ele>112.22152567491</ele>
        <time>2020-10-17T08:11:09.000Z</time>
      </trkpt>
      <trkpt lat="43.66222" lon="3.81856">
        <ele>112.32601891779</ele>
        <time>2020-10-17T08:11:10.000Z</time>
      </trkpt>
      <trkpt lat="43.66222" lon="3.81853">
        <ele>112.53500540356</ele>
        <time>2020-10-17T08:11:12.000Z</time>
      </trkpt>
      <trkpt lat="43.66222" lon="3.81851">
        <ele>113</ele>
        <time>2020-10-17T08:11:17.000Z</time>
      </trkpt>
      <trkpt lat="43.66223" lon="3.81847">
        <ele>113</ele>
        <time>2020-10-17T08:11:20.000Z</time>
      </trkpt>
      <trkpt lat="43.66225" lon="3.81844">
        <ele>113</ele>
        <time>2020-10-17T08:11:22.000Z</time>
      </trkpt>
      <trkpt lat="43.66226" lon="3.81842">
        <ele>113</ele>
        <time>2020-10-17T08:11:23.000Z</time>
      </trkpt>
      <trkpt lat="43.66227" lon="3.81839">
        <ele>113</ele>
        <time>2020-10-17T08:11:24.000Z</time>
      </trkpt>
      <trkpt lat="43.66227" lon="3.81837">
        <ele>113</ele>
        <time>2020-10-17T08:11:25.000Z</time>
      </trkpt>
      <trkpt lat="43.66227" lon="3.81834">
        <ele>113</ele>
        <time>2020-10-17T08:11:26.000Z</time>
      </trkpt>
      <trkpt lat="43.66227" lon="3.81831">
        <ele>113</ele>
        <time>2020-10-17T08:11:27.000Z</time>
      </trkpt>
      <trkpt lat="43.66226" lon="3.81828">
        <ele>113</ele>
        <time>2020-10-17T08:11:28.000Z</time>
      </trkpt>
      <trkpt lat="43.66226" lon="3.81825">
        <ele>113</ele>
        <time>2020-10-17T08:11:29.000Z</time>
      </trkpt>
      <trkpt lat="43.66225" lon="3.81822">
        <ele>113</ele>
        <time>2020-10-17T08:11:30.000Z</time>
      </trkpt>
      <trkpt lat="43.66225" lon="3.81819">
        <ele>113</ele>
        <time>2020-10-17T08:11:31.000Z</time>
      </trkpt>
      <trkpt lat="43.66224" lon="3.81816">
        <ele>113</ele>
        <time>2020-10-17T08:11:32.000Z</time>
      </trkpt>
      <trkpt lat="43.66224" lon="3.81812">
        <ele>113</ele>
        <time>2020-10-17T08:11:33.000Z</time>
      </trkpt>
      <trkpt lat="43.66224" lon="3.81809">
        <ele>113</ele>
        <time>2020-10-17T08:11:34.000Z</time>
      </trkpt>
      <trkpt lat="43.66225" lon="3.81804">
        <ele>113</ele>
        <time>2020-10-17T08:11:35.000Z</time>
      </trkpt>
      <trkpt lat="43.66226" lon="3.818">
        <ele>113</ele>
        <time>2020-10-17T08:11:36.000Z</time>
      </trkpt>
      <trkpt lat="43.66226" lon="3.81797">
        <ele>113.05500032</ele>
        <time>2020-10-17T08:11:37.000Z</time>
      </trkpt>
      <trkpt lat="43.66225" lon="3.81793">
        <ele>113.15500032</ele>
        <time>2020-10-17T08:11:38.000Z</time>
      </trkpt>
      <trkpt lat="43.66225" lon="3.8179">
        <ele>113.25500032</ele>
        <time>2020-10-17T08:11:39.000Z</time>
      </trkpt>
      <trkpt lat="43.66226" lon="3.81785">
        <ele>113.45500032</ele>
        <time>2020-10-17T08:11:41.000Z</time>
      </trkpt>
      <trkpt lat="43.66227" lon="3.81783">
        <ele>113.55500032</ele>
        <time>2020-10-17T08:11:42.000Z</time>
      </trkpt>
      <trkpt lat="43.66228" lon="3.81781">
        <ele>113.65500032</ele>
        <time>2020-10-17T08:11:43.000Z</time>
      </trkpt>
      <trkpt lat="43.66228" lon="3.81778">
        <ele>114</ele>
        <time>2020-10-17T08:11:48.000Z</time>
      </trkpt>
      <trkpt lat="43.66229" lon="3.81777">
        <ele>114.01333287822</ele>
        <time>2020-10-17T08:11:50.000Z</time>
      </trkpt>
      <trkpt lat="43.66229" lon="3.81763">
        <ele>115</ele>
        <time>2020-10-17T08:11:57.000Z</time>
      </trkpt>
      <trkpt lat="43.66229" lon="3.81759">
        <ele>115</ele>
        <time>2020-10-17T08:11:58.000Z</time>
      </trkpt>
      <trkpt lat="43.66229" lon="3.81755">
        <ele>115</ele>
        <time>2020-10-17T08:11:59.000Z</time>
      </trkpt>
      <trkpt lat="43.66229" lon="3.81752">
        <ele>115</ele>
        <time>2020-10-17T08:12:00.000Z</time>
      </trkpt>
      <trkpt lat="43.66228" lon="3.81749">
        <ele>115</ele>
        <time>2020-10-17T08:12:01.000Z</time>
      </trkpt>
      <trkpt lat="43.66227" lon="3.81746">
        <ele>115</ele>
        <time>2020-10-17T08:12:02.000Z</time>
      </trkpt>
      <trkpt lat="43.66227" lon="3.81743">
        <ele>115</ele>
        <time>2020-10-17T08:12:03.000Z</time>
      </trkpt>
      <trkpt lat="43.66227" lon="3.81739">
        <ele>115</ele>
        <time>2020-10-17T08:12:04.000Z</time>
      </trkpt>
      <trkpt lat="43.66226" lon="3.81736">
        <ele>115</ele>
        <time>2020-10-17T08:12:05.000Z</time>
      </trkpt>
      <trkpt lat="43.66226" lon="3.81732">
        <ele>115</ele>
        <time>2020-10-17T08:12:06.000Z</time>
      </trkpt>
      <trkpt lat="43.66226" lon="3.81728">
        <ele>115.05345027901</ele>
        <time>2020-10-17T08:12:07.000Z</time>
      </trkpt>
      <trkpt lat="43.66226" lon="3.81726">
        <ele>115.15063203907</ele>
        <time>2020-10-17T08:12:08.000Z</time>
      </trkpt>
      <trkpt lat="43.66225" lon="3.81723">
        <ele>115.24781379913</ele>
        <time>2020-10-17T08:12:09.000Z</time>
      </trkpt>
      <trkpt lat="43.66224" lon="3.81719">
        <ele>115.34499555918</ele>
        <time>2020-10-17T08:12:10.000Z</time>
      </trkpt>
      <trkpt lat="43.66223" lon="3.81715">
        <ele>115.44217731924</ele>
        <time>2020-10-17T08:12:11.000Z</time>
      </trkpt>
      <trkpt lat="43.66223" lon="3.81712">
        <ele>115.53935907929</ele>
        <time>2020-10-17T08:12:12.000Z</time>
      </trkpt>
      <trkpt lat="43.66223" lon="3.81708">
        <ele>115.63654083935</ele>
        <time>2020-10-17T08:12:13.000Z</time>
      </trkpt>
      <trkpt lat="43.66222" lon="3.81705">
        <ele>115.73372259941</ele>
        <time>2020-10-17T08:12:14.000Z</time>
      </trkpt>
      <trkpt lat="43.66222" lon="3.81702">
        <ele>115.83090435946</ele>
        <time>2020-10-17T08:12:15.000Z</time>
      </trkpt>
      <trkpt lat="43.66222" lon="3.81698">
        <ele>115.92808611952</ele>
        <time>2020-10-17T08:12:16.000Z</time>
      </trkpt>
      <trkpt lat="43.66222" lon="3.81695">
        <ele>116.02677716934</ele>
        <time>2020-10-17T08:12:17.000Z</time>
      </trkpt>
      <trkpt lat="43.66221" lon="3.81693">
        <ele>116.12976374714</ele>
        <time>2020-10-17T08:12:18.000Z</time>
      </trkpt>
      <trkpt lat="43.6622" lon="3.8169">
        <ele>116.23275032494</ele>
        <time>2020-10-17T08:12:19.000Z</time>
      </trkpt>
      <trkpt lat="43.6622" lon="3.81688">
        <ele>116.33573690274</ele>
        <time>2020-10-17T08:12:20.000Z</time>
      </trkpt>
      <trkpt lat="43.66221" lon="3.81685">
        <ele>116.43872348054</ele>
        <time>2020-10-17T08:12:21.000Z</time>
      </trkpt>
      <trkpt lat="43.66221" lon="3.81682">
        <ele>116.54171005835</ele>
        <time>2020-10-17T08:12:22.000Z</time>
      </trkpt>
      <trkpt lat="43.6622" lon="3.81679">
        <ele>116.64469663614</ele>
        <time>2020-10-17T08:12:23.000Z</time>
      </trkpt>
      <trkpt lat="43.66221" lon="3.81676">
        <ele>116.74768321395</ele>
        <time>2020-10-17T08:12:24.000Z</time>
      </trkpt>
      <trkpt lat="43.66221" lon="3.81673">
        <ele>116.95365636955</ele>
        <time>2020-10-17T08:12:26.000Z</time>
      </trkpt>
      <trkpt lat="43.66221" lon="3.81673">
        <ele>117</ele>
        <time>2020-10-17T08:12:31.000Z</time>
      </trkpt>
      <trkpt lat="43.66219" lon="3.81663">
        <ele>117</ele>
        <time>2020-10-17T08:12:44.000Z</time>
      </trkpt>
      <trkpt lat="43.66219" lon="3.8166">
        <ele>117</ele>
        <time>2020-10-17T08:12:45.000Z</time>
      </trkpt>
      <trkpt lat="43.66218" lon="3.81657">
        <ele>117</ele>
        <time>2020-10-17T08:12:46.000Z</time>
      </trkpt>
      <trkpt lat="43.66218" lon="3.81654">
        <ele>117</ele>
        <time>2020-10-17T08:12:47.000Z</time>
      </trkpt>
      <trkpt lat="43.66217" lon="3.8165">
        <ele>117</ele>
        <time>2020-10-17T08:12:48.000Z</time>
      </trkpt>
      <trkpt lat="43.66216" lon="3.81646">
        <ele>117</ele>
        <time>2020-10-17T08:12:49.000Z</time>
      </trkpt>
      <trkpt lat="43.66215" lon="3.81641">
        <ele>117</ele>
        <time>2020-10-17T08:12:50.000Z</time>
      </trkpt>
      <trkpt lat="43.66216" lon="3.81637">
        <ele>117</ele>
        <time>2020-10-17T08:12:51.000Z</time>
      </trkpt>
      <trkpt lat="43.66216" lon="3.81633">
        <ele>117</ele>
        <time>2020-10-17T08:12:52.000Z</time>
      </trkpt>
      <trkpt lat="43.66217" lon="3.81629">
        <ele>117</ele>
        <time>2020-10-17T08:12:53.000Z</time>
      </trkpt>
      <trkpt lat="43.66218" lon="3.81626">
        <ele>117</ele>
        <time>2020-10-17T08:12:54.000Z</time>
      </trkpt>
      <trkpt lat="43.66219" lon="3.81623">
        <ele>116.94654972099</ele>
        <time>2020-10-17T08:12:55.000Z</time>
      </trkpt>
      <trkpt lat="43.66219" lon="3.8162">
        <ele>116.84936796093</ele>
        <time>2020-10-17T08:12:56.000Z</time>
      </trkpt>
      <trkpt lat="43.66219" lon="3.81617">
        <ele>116.75218620087</ele>
        <time>2020-10-17T08:12:57.000Z</time>
      </trkpt>
      <trkpt lat="43.66217" lon="3.81615">
        <ele>116.65500444082</ele>
        <time>2020-10-17T08:12:58.000Z</time>
      </trkpt>
      <trkpt lat="43.66215" lon="3.81612">
        <ele>116.55782268076</ele>
        <time>2020-10-17T08:12:59.000Z</time>
      </trkpt>
      <trkpt lat="43.66214" lon="3.81609">
        <ele>116.46064092071</ele>
        <time>2020-10-17T08:13:00.000Z</time>
      </trkpt>
      <trkpt lat="43.66214" lon="3.81606">
        <ele>116.36345916065</ele>
        <time>2020-10-17T08:13:01.000Z</time>
      </trkpt>
      <trkpt lat="43.66214" lon="3.81603">
        <ele>116.26627740059</ele>
        <time>2020-10-17T08:13:02.000Z</time>
      </trkpt>
      <trkpt lat="43.66215" lon="3.81601">
        <ele>116.16909564054</ele>
        <time>2020-10-17T08:13:03.000Z</time>
      </trkpt>
      <trkpt lat="43.66215" lon="3.81598">
        <ele>116.07191388048</ele>
        <time>2020-10-17T08:13:04.000Z</time>
      </trkpt>
      <trkpt lat="43.66215" lon="3.81594">
        <ele>116.02677716934</ele>
        <time>2020-10-17T08:13:05.000Z</time>
      </trkpt>
      <trkpt lat="43.66215" lon="3.8159">
        <ele>116.12976374714</ele>
        <time>2020-10-17T08:13:06.000Z</time>
      </trkpt>
      <trkpt lat="43.66214" lon="3.81587">
        <ele>116.23275032494</ele>
        <time>2020-10-17T08:13:07.000Z</time>
      </trkpt>
      <trkpt lat="43.66214" lon="3.81583">
        <ele>116.43872348054</ele>
        <time>2020-10-17T08:13:09.000Z</time>
      </trkpt>
      <trkpt lat="43.66213" lon="3.81581">
        <ele>116.64469663614</ele>
        <time>2020-10-17T08:13:11.000Z</time>
      </trkpt>
      <trkpt lat="43.66212" lon="3.8158">
        <ele>116.96593243947</ele>
        <time>2020-10-17T08:13:16.000Z</time>
      </trkpt>
      <trkpt lat="43.66205" lon="3.81574">
        <ele>115.96465760643</ele>
        <time>2020-10-17T08:13:21.000Z</time>
      </trkpt>
      <trkpt lat="43.66204" lon="3.81574">
        <ele>115.75675726021</ele>
        <time>2020-10-17T08:13:22.000Z</time>
      </trkpt>
      <trkpt lat="43.66204" lon="3.8157">
        <ele>114.71725552915</ele>
        <time>2020-10-17T08:13:27.000Z</time>
      </trkpt>
      <trkpt lat="43.66204" lon="3.81567">
        <ele>114.50935518294</ele>
        <time>2020-10-17T08:13:28.000Z</time>
      </trkpt>
      <trkpt lat="43.66206" lon="3.81563">
        <ele>114.30145483673</ele>
        <time>2020-10-17T08:13:29.000Z</time>
      </trkpt>
      <trkpt lat="43.66207" lon="3.81558">
        <ele>114.09355449051</ele>
        <time>2020-10-17T08:13:30.000Z</time>
      </trkpt>
      <trkpt lat="43.66208" lon="3.81554">
        <ele>113.94649774319</ele>
        <time>2020-10-17T08:13:31.000Z</time>
      </trkpt>
      <trkpt lat="43.66208" lon="3.8155">
        <ele>113.8492214786</ele>
        <time>2020-10-17T08:13:32.000Z</time>
      </trkpt>
      <trkpt lat="43.66207" lon="3.81546">
        <ele>113.75194521401</ele>
        <time>2020-10-17T08:13:33.000Z</time>
      </trkpt>
      <trkpt lat="43.66207" lon="3.81543">
        <ele>113.65466894942</ele>
        <time>2020-10-17T08:13:34.000Z</time>
      </trkpt>
      <trkpt lat="43.66206" lon="3.81541">
        <ele>113.55739268483</ele>
        <time>2020-10-17T08:13:35.000Z</time>
      </trkpt>
      <trkpt lat="43.66205" lon="3.81538">
        <ele>113.46011642023</ele>
        <time>2020-10-17T08:13:36.000Z</time>
      </trkpt>
      <trkpt lat="43.66204" lon="3.81535">
        <ele>113.26556389105</ele>
        <time>2020-10-17T08:13:38.000Z</time>
      </trkpt>
      <trkpt lat="43.66202" lon="3.81533">
        <ele>113.07101136187</ele>
        <time>2020-10-17T08:13:40.000Z</time>
      </trkpt>
      <trkpt lat="43.66201" lon="3.8153">
        <ele>112.53292115226</ele>
        <time>2020-10-17T08:13:43.000Z</time>
      </trkpt>
      <trkpt lat="43.662" lon="3.81526">
        <ele>112.12139851852</ele>
        <time>2020-10-17T08:13:45.000Z</time>
      </trkpt>
      <trkpt lat="43.66199" lon="3.81522">
        <ele>111.70987588477</ele>
        <time>2020-10-17T08:13:47.000Z</time>
      </trkpt>
      <trkpt lat="43.66199" lon="3.81521">
        <ele>111</ele>
        <time>2020-10-17T08:13:54.000Z</time>
      </trkpt>
      <trkpt lat="43.66192" lon="3.81509">
        <ele>109.99432499226</ele>
        <time>2020-10-17T08:14:03.000Z</time>
      </trkpt>
      <trkpt lat="43.66191" lon="3.81506">
        <ele>109.88081757305</ele>
        <time>2020-10-17T08:14:04.000Z</time>
      </trkpt>
      <trkpt lat="43.66191" lon="3.81502">
        <ele>109.65380273464</ele>
        <time>2020-10-17T08:14:06.000Z</time>
      </trkpt>
      <trkpt lat="43.6619" lon="3.81499">
        <ele>109.0862656386</ele>
        <time>2020-10-17T08:14:11.000Z</time>
      </trkpt>
      <trkpt lat="43.6619" lon="3.81496">
        <ele>108.93051269558</ele>
        <time>2020-10-17T08:14:12.000Z</time>
      </trkpt>
      <trkpt lat="43.6619" lon="3.81491">
        <ele>108.02416916092</ele>
        <time>2020-10-17T08:14:15.000Z</time>
      </trkpt>
      <trkpt lat="43.66188" lon="3.81488">
        <ele>107.68943434167</ele>
        <time>2020-10-17T08:14:18.000Z</time>
      </trkpt>
      <trkpt lat="43.66187" lon="3.81485">
        <ele>107.26254043539</ele>
        <time>2020-10-17T08:14:22.000Z</time>
      </trkpt>
      <trkpt lat="43.66185" lon="3.81483">
        <ele>106.25947685426</ele>
        <time>2020-10-17T08:14:27.000Z</time>
      </trkpt>
      <trkpt lat="43.66183" lon="3.81481">
        <ele>105.96793157409</ele>
        <time>2020-10-17T08:14:28.000Z</time>
      </trkpt>
      <trkpt lat="43.66181" lon="3.8148">
        <ele>105.67638629392</ele>
        <time>2020-10-17T08:14:29.000Z</time>
      </trkpt>
      <trkpt lat="43.66179" lon="3.81477">
        <ele>105.38484101375</ele>
        <time>2020-10-17T08:14:30.000Z</time>
      </trkpt>
      <trkpt lat="43.66177" lon="3.81475">
        <ele>105.09329573358</ele>
        <time>2020-10-17T08:14:31.000Z</time>
      </trkpt>
      <trkpt lat="43.66176" lon="3.81472">
        <ele>104.80175045341</ele>
        <time>2020-10-17T08:14:32.000Z</time>
      </trkpt>
      <trkpt lat="43.66175" lon="3.8147">
        <ele>104.51020517324</ele>
        <time>2020-10-17T08:14:33.000Z</time>
      </trkpt>
      <trkpt lat="43.66174" lon="3.81467">
        <ele>104.21865989307</ele>
        <time>2020-10-17T08:14:34.000Z</time>
      </trkpt>
      <trkpt lat="43.66172" lon="3.81465">
        <ele>104</ele>
        <time>2020-10-17T08:14:35.000Z</time>
      </trkpt>
      <trkpt lat="43.66171" lon="3.81464">
        <ele>103.97767604634</ele>
        <time>2020-10-17T08:14:42.000Z</time>
      </trkpt>
      <trkpt lat="43.66166" lon="3.81458">
        <ele>103.05843712154</ele>
        <time>2020-10-17T08:14:56.000Z</time>
      </trkpt>
      <trkpt lat="43.66165" lon="3.81454">
        <ele>102.97905625833</ele>
        <time>2020-10-17T08:14:57.000Z</time>
      </trkpt>
      <trkpt lat="43.66164" lon="3.8145">
        <ele>102.76963224473</ele>
        <time>2020-10-17T08:14:58.000Z</time>
      </trkpt>
      <trkpt lat="43.66164" lon="3.81447">
        <ele>102.56020823113</ele>
        <time>2020-10-17T08:14:59.000Z</time>
      </trkpt>
      <trkpt lat="43.66165" lon="3.81443">
        <ele>102.14136020394</ele>
        <time>2020-10-17T08:15:01.000Z</time>
      </trkpt>
      <trkpt lat="43.66165" lon="3.8144">
        <ele>101.51308816315</ele>
        <time>2020-10-17T08:15:04.000Z</time>
      </trkpt>
      <trkpt lat="43.66166" lon="3.81436">
        <ele>100.6984429572</ele>
        <time>2020-10-17T08:15:08.000Z</time>
      </trkpt>
      <trkpt lat="43.66168" lon="3.81432">
        <ele>100.30933789883</ele>
        <time>2020-10-17T08:15:10.000Z</time>
      </trkpt>
      <trkpt lat="43.66169" lon="3.81428">
        <ele>99.920232840467</ele>
        <time>2020-10-17T08:15:12.000Z</time>
      </trkpt>
      <trkpt lat="43.66167" lon="3.81424">
        <ele>99.531127782101</ele>
        <time>2020-10-17T08:15:14.000Z</time>
      </trkpt>
      <trkpt lat="43.66166" lon="3.81421">
        <ele>99.336575252918</ele>
        <time>2020-10-17T08:15:15.000Z</time>
      </trkpt>
      <trkpt lat="43.66166" lon="3.81419">
        <ele>99.142022723735</ele>
        <time>2020-10-17T08:15:16.000Z</time>
      </trkpt>
      <trkpt lat="43.66165" lon="3.81416">
        <ele>98.944443786008</ele>
        <time>2020-10-17T08:15:17.000Z</time>
      </trkpt>
      <trkpt lat="43.66164" lon="3.81413">
        <ele>98.738682469136</ele>
        <time>2020-10-17T08:15:18.000Z</time>
      </trkpt>
      <trkpt lat="43.66163" lon="3.8141">
        <ele>98.532921152263</ele>
        <time>2020-10-17T08:15:19.000Z</time>
      </trkpt>
      <trkpt lat="43.66163" lon="3.81406">
        <ele>98.327159835391</ele>
        <time>2020-10-17T08:15:20.000Z</time>
      </trkpt>
      <trkpt lat="43.66161" lon="3.81402">
        <ele>98.121398518519</ele>
        <time>2020-10-17T08:15:21.000Z</time>
      </trkpt>
      <trkpt lat="43.6616" lon="3.81399">
        <ele>97.915637201646</ele>
        <time>2020-10-17T08:15:22.000Z</time>
      </trkpt>
      <trkpt lat="43.66159" lon="3.81396">
        <ele>97.709875884774</ele>
        <time>2020-10-17T08:15:23.000Z</time>
      </trkpt>
      <trkpt lat="43.66157" lon="3.81392">
        <ele>97.504114567901</ele>
        <time>2020-10-17T08:15:24.000Z</time>
      </trkpt>
      <trkpt lat="43.66155" lon="3.81388">
        <ele>97.298353251029</ele>
        <time>2020-10-17T08:15:25.000Z</time>
      </trkpt>
      <trkpt lat="43.66154" lon="3.81383">
        <ele>97.092591934156</ele>
        <time>2020-10-17T08:15:26.000Z</time>
      </trkpt>
      <trkpt lat="43.66153" lon="3.81378">
        <ele>96.836632816391</ele>
        <time>2020-10-17T08:15:27.000Z</time>
      </trkpt>
      <trkpt lat="43.66151" lon="3.81373">
        <ele>96.539603301637</ele>
        <time>2020-10-17T08:15:28.000Z</time>
      </trkpt>
      <trkpt lat="43.6615" lon="3.81369">
        <ele>96.242573786884</ele>
        <time>2020-10-17T08:15:29.000Z</time>
      </trkpt>
      <trkpt lat="43.66149" lon="3.81364">
        <ele>95.94554427213</ele>
        <time>2020-10-17T08:15:30.000Z</time>
      </trkpt>
      <trkpt lat="43.66148" lon="3.8136">
        <ele>95.648514757377</ele>
        <time>2020-10-17T08:15:31.000Z</time>
      </trkpt>
      <trkpt lat="43.66147" lon="3.81356">
        <ele>95.351485242623</ele>
        <time>2020-10-17T08:15:32.000Z</time>
      </trkpt>
      <trkpt lat="43.66146" lon="3.81352">
        <ele>95.05445572787</ele>
        <time>2020-10-17T08:15:33.000Z</time>
      </trkpt>
      <trkpt lat="43.66145" lon="3.81349">
        <ele>94.757426213116</ele>
        <time>2020-10-17T08:15:34.000Z</time>
      </trkpt>
      <trkpt lat="43.66144" lon="3.81346">
        <ele>94.460396698363</ele>
        <time>2020-10-17T08:15:35.000Z</time>
      </trkpt>
      <trkpt lat="43.66144" lon="3.81343">
        <ele>94.163367183609</ele>
        <time>2020-10-17T08:15:36.000Z</time>
      </trkpt>
      <trkpt lat="43.66143" lon="3.8134">
        <ele>93.86363724518</ele>
        <time>2020-10-17T08:15:37.000Z</time>
      </trkpt>
      <trkpt lat="43.66142" lon="3.81336">
        <ele>93.560606746251</ele>
        <time>2020-10-17T08:15:38.000Z</time>
      </trkpt>
      <trkpt lat="43.66142" lon="3.81333">
        <ele>93.257576247322</ele>
        <time>2020-10-17T08:15:39.000Z</time>
      </trkpt>
      <trkpt lat="43.6614" lon="3.8133">
        <ele>92.651515249464</ele>
        <time>2020-10-17T08:15:41.000Z</time>
      </trkpt>
      <trkpt lat="43.6614" lon="3.81328">
        <ele>91.439393253749</ele>
        <time>2020-10-17T08:15:45.000Z</time>
      </trkpt>
      <trkpt lat="43.6614" lon="3.81328">
        <ele>91</ele>
        <time>2020-10-17T08:15:47.000Z</time>
      </trkpt>
      <trkpt lat="43.66143" lon="3.81323">
        <ele>90.014513972603</ele>
        <time>2020-10-17T08:16:48.000Z</time>
      </trkpt>
      <trkpt lat="43.66146" lon="3.81321">
        <ele>89.886947038572</ele>
        <time>2020-10-17T08:16:50.000Z</time>
      </trkpt>
      <trkpt lat="43.66148" lon="3.81319">
        <ele>89.784172217055</ele>
        <time>2020-10-17T08:16:51.000Z</time>
      </trkpt>
      <trkpt lat="43.6615" lon="3.81318">
        <ele>89.681397395538</ele>
        <time>2020-10-17T08:16:52.000Z</time>
      </trkpt>
      <trkpt lat="43.66152" lon="3.81317">
        <ele>89.578622574021</ele>
        <time>2020-10-17T08:16:53.000Z</time>
      </trkpt>
      <trkpt lat="43.66154" lon="3.81316">
        <ele>89.475847752504</ele>
        <time>2020-10-17T08:16:54.000Z</time>
      </trkpt>
      <trkpt lat="43.66156" lon="3.81315">
        <ele>89.373072930987</ele>
        <time>2020-10-17T08:16:55.000Z</time>
      </trkpt>
      <trkpt lat="43.66157" lon="3.81315">
        <ele>89.270298109469</ele>
        <time>2020-10-17T08:16:56.000Z</time>
      </trkpt>
      <trkpt lat="43.66159" lon="3.81314">
        <ele>89.167523287952</ele>
        <time>2020-10-17T08:16:57.000Z</time>
      </trkpt>
      <trkpt lat="43.66161" lon="3.81313">
        <ele>89.064748466435</ele>
        <time>2020-10-17T08:16:58.000Z</time>
      </trkpt>
      <trkpt lat="43.66163" lon="3.81313">
        <ele>89.036633369748</ele>
        <time>2020-10-17T08:16:59.000Z</time>
      </trkpt>
      <trkpt lat="43.66165" lon="3.81312">
        <ele>89.135643333477</ele>
        <time>2020-10-17T08:17:00.000Z</time>
      </trkpt>
      <trkpt lat="43.66167" lon="3.81311">
        <ele>89.234653297206</ele>
        <time>2020-10-17T08:17:01.000Z</time>
      </trkpt>
      <trkpt lat="43.66169" lon="3.8131">
        <ele>89.333663260935</ele>
        <time>2020-10-17T08:17:02.000Z</time>
      </trkpt>
      <trkpt lat="43.6617" lon="3.81309">
        <ele>89.432673224664</ele>
        <time>2020-10-17T08:17:03.000Z</time>
      </trkpt>
      <trkpt lat="43.66172" lon="3.81307">
        <ele>89.531683188393</ele>
        <time>2020-10-17T08:17:04.000Z</time>
      </trkpt>
      <trkpt lat="43.66174" lon="3.81306">
        <ele>89.630693152122</ele>
        <time>2020-10-17T08:17:05.000Z</time>
      </trkpt>
      <trkpt lat="43.66176" lon="3.81305">
        <ele>89.729703115852</ele>
        <time>2020-10-17T08:17:06.000Z</time>
      </trkpt>
      <trkpt lat="43.66178" lon="3.81304">
        <ele>89.828713079581</ele>
        <time>2020-10-17T08:17:07.000Z</time>
      </trkpt>
      <trkpt lat="43.6618" lon="3.81302">
        <ele>89.92772304331</ele>
        <time>2020-10-17T08:17:08.000Z</time>
      </trkpt>
      <trkpt lat="43.66182" lon="3.81301">
        <ele>90.027778106996</ele>
        <time>2020-10-17T08:17:09.000Z</time>
      </trkpt>
      <trkpt lat="43.66184" lon="3.813">
        <ele>90.130658765432</ele>
        <time>2020-10-17T08:17:10.000Z</time>
      </trkpt>
      <trkpt lat="43.66186" lon="3.81298">
        <ele>90.233539423868</ele>
        <time>2020-10-17T08:17:11.000Z</time>
      </trkpt>
      <trkpt lat="43.66188" lon="3.81297">
        <ele>90.336420082304</ele>
        <time>2020-10-17T08:17:12.000Z</time>
      </trkpt>
      <trkpt lat="43.6619" lon="3.81296">
        <ele>90.439300740741</ele>
        <time>2020-10-17T08:17:13.000Z</time>
      </trkpt>
      <trkpt lat="43.66192" lon="3.81295">
        <ele>90.542181399177</ele>
        <time>2020-10-17T08:17:14.000Z</time>
      </trkpt>
      <trkpt lat="43.66194" lon="3.81294">
        <ele>90.645062057613</ele>
        <time>2020-10-17T08:17:15.000Z</time>
      </trkpt>
      <trkpt lat="43.66196" lon="3.81293">
        <ele>90.747942716049</ele>
        <time>2020-10-17T08:17:16.000Z</time>
      </trkpt>
      <trkpt lat="43.66198" lon="3.81292">
        <ele>90.850823374486</ele>
        <time>2020-10-17T08:17:17.000Z</time>
      </trkpt>
      <trkpt lat="43.662" lon="3.81291">
        <ele>90.953704032922</ele>
        <time>2020-10-17T08:17:18.000Z</time>
      </trkpt>
      <trkpt lat="43.66201" lon="3.8129">
        <ele>91.05500032</ele>
        <time>2020-10-17T08:17:19.000Z</time>
      </trkpt>
      <trkpt lat="43.66203" lon="3.81289">
        <ele>91.15500032</ele>
        <time>2020-10-17T08:17:20.000Z</time>
      </trkpt>
      <trkpt lat="43.66207" lon="3.81287">
        <ele>91.35500032</ele>
        <time>2020-10-17T08:17:22.000Z</time>
      </trkpt>
      <trkpt lat="43.66209" lon="3.81286">
        <ele>91.45500032</ele>
        <time>2020-10-17T08:17:23.000Z</time>
      </trkpt>
      <trkpt lat="43.6621" lon="3.81285">
        <ele>91.55500032</ele>
        <time>2020-10-17T08:17:24.000Z</time>
      </trkpt>
      <trkpt lat="43.66212" lon="3.81285">
        <ele>91.65500032</ele>
        <time>2020-10-17T08:17:25.000Z</time>
      </trkpt>
      <trkpt lat="43.66214" lon="3.81284">
        <ele>91.75500032</ele>
        <time>2020-10-17T08:17:26.000Z</time>
      </trkpt>
      <trkpt lat="43.66215" lon="3.81283">
        <ele>91.85500032</ele>
        <time>2020-10-17T08:17:27.000Z</time>
      </trkpt>
      <trkpt lat="43.66217" lon="3.81282">
        <ele>91.95500032</ele>
        <time>2020-10-17T08:17:28.000Z</time>
      </trkpt>
      <trkpt lat="43.66219" lon="3.81281">
        <ele>92.05500032</ele>
        <time>2020-10-17T08:17:29.000Z</time>
      </trkpt>
      <trkpt lat="43.66221" lon="3.8128">
        <ele>92.15500032</ele>
        <time>2020-10-17T08:17:30.000Z</time>
      </trkpt>
      <trkpt lat="43.66222" lon="3.81279">
        <ele>92.25500032</ele>
        <time>2020-10-17T08:17:31.000Z</time>
      </trkpt>
      <trkpt lat="43.66224" lon="3.81278">
        <ele>92.35500032</ele>
        <time>2020-10-17T08:17:32.000Z</time>
      </trkpt>
      <trkpt lat="43.66226" lon="3.81278">
        <ele>92.45500032</ele>
        <time>2020-10-17T08:17:33.000Z</time>
      </trkpt>
      <trkpt lat="43.66228" lon="3.81277">
        <ele>92.55500032</ele>
        <time>2020-10-17T08:17:34.000Z</time>
      </trkpt>
      <trkpt lat="43.6623" lon="3.81277">
        <ele>92.65500032</ele>
        <time>2020-10-17T08:17:35.000Z</time>
      </trkpt>
      <trkpt lat="43.66232" lon="3.81277">
        <ele>92.75500032</ele>
        <time>2020-10-17T08:17:36.000Z</time>
      </trkpt>
      <trkpt lat="43.66234" lon="3.81276">
        <ele>92.85500032</ele>
        <time>2020-10-17T08:17:37.000Z</time>
      </trkpt>
      <trkpt lat="43.66236" lon="3.81275">
        <ele>92.95500032</ele>
        <time>2020-10-17T08:17:38.000Z</time>
      </trkpt>
      <trkpt lat="43.66238" lon="3.81275">
        <ele>93.11000064</ele>
        <time>2020-10-17T08:17:39.000Z</time>
      </trkpt>
      <trkpt lat="43.6624" lon="3.81274">
        <ele>93.31000064</ele>
        <time>2020-10-17T08:17:40.000Z</time>
      </trkpt>
      <trkpt lat="43.66242" lon="3.81273">
        <ele>93.51000064</ele>
        <time>2020-10-17T08:17:41.000Z</time>
      </trkpt>
      <trkpt lat="43.66244" lon="3.81273">
        <ele>93.71000064</ele>
        <time>2020-10-17T08:17:42.000Z</time>
      </trkpt>
      <trkpt lat="43.66245" lon="3.81272">
        <ele>93.91000064</ele>
        <time>2020-10-17T08:17:43.000Z</time>
      </trkpt>
      <trkpt lat="43.66247" lon="3.81272">
        <ele>94.11000064</ele>
        <time>2020-10-17T08:17:44.000Z</time>
      </trkpt>
      <trkpt lat="43.66249" lon="3.81272">
        <ele>94.31000064</ele>
        <time>2020-10-17T08:17:45.000Z</time>
      </trkpt>
      <trkpt lat="43.66251" lon="3.81271">
        <ele>94.51000064</ele>
        <time>2020-10-17T08:17:46.000Z</time>
      </trkpt>
      <trkpt lat="43.66253" lon="3.81271">
        <ele>94.71000064</ele>
        <time>2020-10-17T08:17:47.000Z</time>
      </trkpt>
      <trkpt lat="43.66255" lon="3.8127">
        <ele>94.91000064</ele>
        <time>2020-10-17T08:17:48.000Z</time>
      </trkpt>
      <trkpt lat="43.66257" lon="3.8127">
        <ele>95.05500032</ele>
        <time>2020-10-17T08:17:49.000Z</time>
      </trkpt>
      <trkpt lat="43.66259" lon="3.8127">
        <ele>95.15500032</ele>
        <time>2020-10-17T08:17:50.000Z</time>
      </trkpt>
      <trkpt lat="43.66261" lon="3.81269">
        <ele>95.25500032</ele>
        <time>2020-10-17T08:17:51.000Z</time>
      </trkpt>
      <trkpt lat="43.66262" lon="3.81268">
        <ele>95.35500032</ele>
        <time>2020-10-17T08:17:52.000Z</time>
      </trkpt>
      <trkpt lat="43.66264" lon="3.81267">
        <ele>95.45500032</ele>
        <time>2020-10-17T08:17:53.000Z</time>
      </trkpt>
      <trkpt lat="43.66266" lon="3.81267">
        <ele>95.55500032</ele>
        <time>2020-10-17T08:17:54.000Z</time>
      </trkpt>
      <trkpt lat="43.6627" lon="3.81265">
        <ele>95.75500032</ele>
        <time>2020-10-17T08:17:56.000Z</time>
      </trkpt>
      <trkpt lat="43.66272" lon="3.81264">
        <ele>95.85500032</ele>
        <time>2020-10-17T08:17:57.000Z</time>
      </trkpt>
      <trkpt lat="43.66274" lon="3.81263">
        <ele>95.95500032</ele>
        <time>2020-10-17T08:17:58.000Z</time>
      </trkpt>
      <trkpt lat="43.66275" lon="3.81262">
        <ele>96.11000064</ele>
        <time>2020-10-17T08:17:59.000Z</time>
      </trkpt>
      <trkpt lat="43.66277" lon="3.81261">
        <ele>96.31000064</ele>
        <time>2020-10-17T08:18:00.000Z</time>
      </trkpt>
      <trkpt lat="43.66279" lon="3.8126">
        <ele>96.51000064</ele>
        <time>2020-10-17T08:18:01.000Z</time>
      </trkpt>
      <trkpt lat="43.66281" lon="3.81259">
        <ele>96.71000064</ele>
        <time>2020-10-17T08:18:02.000Z</time>
      </trkpt>
      <trkpt lat="43.66283" lon="3.81257">
        <ele>96.91000064</ele>
        <time>2020-10-17T08:18:03.000Z</time>
      </trkpt>
      <trkpt lat="43.66285" lon="3.81256">
        <ele>97.11000064</ele>
        <time>2020-10-17T08:18:04.000Z</time>
      </trkpt>
      <trkpt lat="43.66287" lon="3.81254">
        <ele>97.31000064</ele>
        <time>2020-10-17T08:18:05.000Z</time>
      </trkpt>
      <trkpt lat="43.66289" lon="3.81253">
        <ele>97.51000064</ele>
        <time>2020-10-17T08:18:06.000Z</time>
      </trkpt>
      <trkpt lat="43.66291" lon="3.81251">
        <ele>97.71000064</ele>
        <time>2020-10-17T08:18:07.000Z</time>
      </trkpt>
      <trkpt lat="43.66293" lon="3.8125">
        <ele>97.91000064</ele>
        <time>2020-10-17T08:18:08.000Z</time>
      </trkpt>
      <trkpt lat="43.66295" lon="3.81249">
        <ele>98.11000064</ele>
        <time>2020-10-17T08:18:09.000Z</time>
      </trkpt>
      <trkpt lat="43.66297" lon="3.81248">
        <ele>98.31000064</ele>
        <time>2020-10-17T08:18:10.000Z</time>
      </trkpt>
      <trkpt lat="43.66299" lon="3.81247">
        <ele>98.51000064</ele>
        <time>2020-10-17T08:18:11.000Z</time>
      </trkpt>
      <trkpt lat="43.66301" lon="3.81246">
        <ele>98.71000064</ele>
        <time>2020-10-17T08:18:12.000Z</time>
      </trkpt>
      <trkpt lat="43.66303" lon="3.81246">
        <ele>98.91000064</ele>
        <time>2020-10-17T08:18:13.000Z</time>
      </trkpt>
      <trkpt lat="43.66305" lon="3.81245">
        <ele>99.11000064</ele>
        <time>2020-10-17T08:18:14.000Z</time>
      </trkpt>
      <trkpt lat="43.66307" lon="3.81244">
        <ele>99.31000064</ele>
        <time>2020-10-17T08:18:15.000Z</time>
      </trkpt>
      <trkpt lat="43.66309" lon="3.81243">
        <ele>99.51000064</ele>
        <time>2020-10-17T08:18:16.000Z</time>
      </trkpt>
      <trkpt lat="43.66311" lon="3.81243">
        <ele>99.71000064</ele>
        <time>2020-10-17T08:18:17.000Z</time>
      </trkpt>
      <trkpt lat="43.66313" lon="3.81243">
        <ele>99.91000064</ele>
        <time>2020-10-17T08:18:18.000Z</time>
      </trkpt>
      <trkpt lat="43.66315" lon="3.81243">
        <ele>100.11000064</ele>
        <time>2020-10-17T08:18:19.000Z</time>
      </trkpt>
      <trkpt lat="43.66316" lon="3.81242">
        <ele>100.31000064</ele>
        <time>2020-10-17T08:18:20.000Z</time>
      </trkpt>
      <trkpt lat="43.6632" lon="3.81242">
        <ele>100.71000064</ele>
        <time>2020-10-17T08:18:22.000Z</time>
      </trkpt>
      <trkpt lat="43.66323" lon="3.81242">
        <ele>101.11000064</ele>
        <time>2020-10-17T08:18:24.000Z</time>
      </trkpt>
      <trkpt lat="43.66326" lon="3.81242">
        <ele>101.51000064</ele>
        <time>2020-10-17T08:18:26.000Z</time>
      </trkpt>
      <trkpt lat="43.66329" lon="3.81242">
        <ele>101.91000064</ele>
        <time>2020-10-17T08:18:28.000Z</time>
      </trkpt>
      <trkpt lat="43.66331" lon="3.81242">
        <ele>102.16500096</ele>
        <time>2020-10-17T08:18:29.000Z</time>
      </trkpt>
      <trkpt lat="43.66333" lon="3.81242">
        <ele>102.46500096</ele>
        <time>2020-10-17T08:18:30.000Z</time>
      </trkpt>
      <trkpt lat="43.66336" lon="3.81241">
        <ele>103.06500096</ele>
        <time>2020-10-17T08:18:32.000Z</time>
      </trkpt>
      <trkpt lat="43.66339" lon="3.81241">
        <ele>103.66500096</ele>
        <time>2020-10-17T08:18:34.000Z</time>
      </trkpt>
      <trkpt lat="43.66342" lon="3.81241">
        <ele>104.26500096</ele>
        <time>2020-10-17T08:18:36.000Z</time>
      </trkpt>
      <trkpt lat="43.66345" lon="3.8124">
        <ele>104.86500096</ele>
        <time>2020-10-17T08:18:38.000Z</time>
      </trkpt>
      <trkpt lat="43.66348" lon="3.8124">
        <ele>105.31000064</ele>
        <time>2020-10-17T08:18:40.000Z</time>
      </trkpt>
      <trkpt lat="43.66351" lon="3.8124">
        <ele>105.71000064</ele>
        <time>2020-10-17T08:18:42.000Z</time>
      </trkpt>
      <trkpt lat="43.66354" lon="3.81241">
        <ele>106.11000064</ele>
        <time>2020-10-17T08:18:44.000Z</time>
      </trkpt>
      <trkpt lat="43.66357" lon="3.81241">
        <ele>106.51000064</ele>
        <time>2020-10-17T08:18:46.000Z</time>
      </trkpt>
      <trkpt lat="43.6636" lon="3.81241">
        <ele>106.91000064</ele>
        <time>2020-10-17T08:18:48.000Z</time>
      </trkpt>
      <trkpt lat="43.66362" lon="3.81241">
        <ele>107.31000064</ele>
        <time>2020-10-17T08:18:50.000Z</time>
      </trkpt>
      <trkpt lat="43.66364" lon="3.81241">
        <ele>107.71000064</ele>
        <time>2020-10-17T08:18:52.000Z</time>
      </trkpt>
      <trkpt lat="43.66367" lon="3.81242">
        <ele>108.11000064</ele>
        <time>2020-10-17T08:18:54.000Z</time>
      </trkpt>
      <trkpt lat="43.6637" lon="3.81242">
        <ele>108.51000064</ele>
        <time>2020-10-17T08:18:56.000Z</time>
      </trkpt>
      <trkpt lat="43.66373" lon="3.81242">
        <ele>108.91000064</ele>
        <time>2020-10-17T08:18:58.000Z</time>
      </trkpt>
      <trkpt lat="43.66376" lon="3.81243">
        <ele>109.14691969003</ele>
        <time>2020-10-17T08:19:00.000Z</time>
      </trkpt>
      <trkpt lat="43.66379" lon="3.81243">
        <ele>109.33649309225</ele>
        <time>2020-10-17T08:19:02.000Z</time>
      </trkpt>
      <trkpt lat="43.66382" lon="3.81243">
        <ele>109.52606649446</ele>
        <time>2020-10-17T08:19:04.000Z</time>
      </trkpt>
      <trkpt lat="43.66385" lon="3.81242">
        <ele>109.71563989668</ele>
        <time>2020-10-17T08:19:06.000Z</time>
      </trkpt>
      <trkpt lat="43.66389" lon="3.81242">
        <ele>109.90521329889</ele>
        <time>2020-10-17T08:19:08.000Z</time>
      </trkpt>
      <trkpt lat="43.66391" lon="3.81242">
        <ele>110</ele>
        <time>2020-10-17T08:19:09.000Z</time>
      </trkpt>
      <trkpt lat="43.66394" lon="3.81242">
        <ele>110.42328056661</ele>
        <time>2020-10-17T08:19:11.000Z</time>
      </trkpt>
      <trkpt lat="43.66397" lon="3.81242">
        <ele>110.84656113323</ele>
        <time>2020-10-17T08:19:13.000Z</time>
      </trkpt>
      <trkpt lat="43.664" lon="3.81242">
        <ele>111.26984169984</ele>
        <time>2020-10-17T08:19:15.000Z</time>
      </trkpt>
      <trkpt lat="43.66403" lon="3.81242">
        <ele>111.69312226645</ele>
        <time>2020-10-17T08:19:17.000Z</time>
      </trkpt>
      <trkpt lat="43.66407" lon="3.81243">
        <ele>112.11000064</ele>
        <time>2020-10-17T08:19:19.000Z</time>
      </trkpt>
      <trkpt lat="43.6641" lon="3.81243">
        <ele>112.51000064</ele>
        <time>2020-10-17T08:19:21.000Z</time>
      </trkpt>
      <trkpt lat="43.66413" lon="3.81243">
        <ele>112.91000064</ele>
        <time>2020-10-17T08:19:23.000Z</time>
      </trkpt>
      <trkpt lat="43.66417" lon="3.81243">
        <ele>113.31000064</ele>
        <time>2020-10-17T08:19:25.000Z</time>
      </trkpt>
      <trkpt lat="43.6642" lon="3.81243">
        <ele>113.71000064</ele>
        <time>2020-10-17T08:19:27.000Z</time>
      </trkpt>
      <trkpt lat="43.66423" lon="3.81242">
        <ele>114.05500032</ele>
        <time>2020-10-17T08:19:29.000Z</time>
      </trkpt>
      <trkpt lat="43.66426" lon="3.81242">
        <ele>114.25500032</ele>
        <time>2020-10-17T08:19:31.000Z</time>
      </trkpt>
      <trkpt lat="43.6643" lon="3.81242">
        <ele>114.45500032</ele>
        <time>2020-10-17T08:19:33.000Z</time>
      </trkpt>
      <trkpt lat="43.66433" lon="3.81242">
        <ele>114.65500032</ele>
        <time>2020-10-17T08:19:35.000Z</time>
      </trkpt>
      <trkpt lat="43.66436" lon="3.81242">
        <ele>114.85500032</ele>
        <time>2020-10-17T08:19:37.000Z</time>
      </trkpt>
      <trkpt lat="43.66438" lon="3.81242">
        <ele>115.11000064</ele>
        <time>2020-10-17T08:19:39.000Z</time>
      </trkpt>
      <trkpt lat="43.66441" lon="3.81242">
        <ele>115.51000064</ele>
        <time>2020-10-17T08:19:41.000Z</time>
      </trkpt>
      <trkpt lat="43.66444" lon="3.81241">
        <ele>115.91000064</ele>
        <time>2020-10-17T08:19:43.000Z</time>
      </trkpt>
      <trkpt lat="43.66447" lon="3.81241">
        <ele>116.31000064</ele>
        <time>2020-10-17T08:19:45.000Z</time>
      </trkpt>
      <trkpt lat="43.6645" lon="3.81242">
        <ele>116.71000064</ele>
        <time>2020-10-17T08:19:47.000Z</time>
      </trkpt>
      <trkpt lat="43.66453" lon="3.81243">
        <ele>117.11000064</ele>
        <time>2020-10-17T08:19:49.000Z</time>
      </trkpt>
      <trkpt lat="43.66456" lon="3.81243">
        <ele>117.51000064</ele>
        <time>2020-10-17T08:19:51.000Z</time>
      </trkpt>
      <trkpt lat="43.66458" lon="3.81243">
        <ele>117.91000064</ele>
        <time>2020-10-17T08:19:53.000Z</time>
      </trkpt>
      <trkpt lat="43.66462" lon="3.81243">
        <ele>118.31000064</ele>
        <time>2020-10-17T08:19:55.000Z</time>
      </trkpt>
      <trkpt lat="43.66465" lon="3.81244">
        <ele>118.71000064</ele>
        <time>2020-10-17T08:19:57.000Z</time>
      </trkpt>
      <trkpt lat="43.66468" lon="3.81244">
        <ele>119.11000064</ele>
        <time>2020-10-17T08:19:59.000Z</time>
      </trkpt>
      <trkpt lat="43.66471" lon="3.81244">
        <ele>119.51000064</ele>
        <time>2020-10-17T08:20:01.000Z</time>
      </trkpt>
      <trkpt lat="43.66473" lon="3.81245">
        <ele>119.91000064</ele>
        <time>2020-10-17T08:20:03.000Z</time>
      </trkpt>
      <trkpt lat="43.66476" lon="3.81245">
        <ele>120.31000064</ele>
        <time>2020-10-17T08:20:05.000Z</time>
      </trkpt>
      <trkpt lat="43.66479" lon="3.81245">
        <ele>120.71000064</ele>
        <time>2020-10-17T08:20:07.000Z</time>
      </trkpt>
      <trkpt lat="43.66481" lon="3.81245">
        <ele>121.05350225681</ele>
        <time>2020-10-17T08:20:09.000Z</time>
      </trkpt>
      <trkpt lat="43.66485" lon="3.81245">
        <ele>121.24805478599</ele>
        <time>2020-10-17T08:20:11.000Z</time>
      </trkpt>
      <trkpt lat="43.66487" lon="3.81245">
        <ele>121.34533105058</ele>
        <time>2020-10-17T08:20:12.000Z</time>
      </trkpt>
      <trkpt lat="43.66489" lon="3.81245">
        <ele>121.44260731517</ele>
        <time>2020-10-17T08:20:13.000Z</time>
      </trkpt>
      <trkpt lat="43.66492" lon="3.81245">
        <ele>121.63715984436</ele>
        <time>2020-10-17T08:20:15.000Z</time>
      </trkpt>
      <trkpt lat="43.66495" lon="3.81245">
        <ele>121.83171237354</ele>
        <time>2020-10-17T08:20:17.000Z</time>
      </trkpt>
      <trkpt lat="43.66499" lon="3.81245">
        <ele>122.027778107</ele>
        <time>2020-10-17T08:20:19.000Z</time>
      </trkpt>
      <trkpt lat="43.66501" lon="3.81245">
        <ele>122.23353942387</ele>
        <time>2020-10-17T08:20:21.000Z</time>
      </trkpt>
      <trkpt lat="43.66505" lon="3.81246">
        <ele>122.43930074074</ele>
        <time>2020-10-17T08:20:23.000Z</time>
      </trkpt>
      <trkpt lat="43.66508" lon="3.81245">
        <ele>122.64506205761</ele>
        <time>2020-10-17T08:20:25.000Z</time>
      </trkpt>
      <trkpt lat="43.66511" lon="3.81245">
        <ele>122.85082337449</ele>
        <time>2020-10-17T08:20:27.000Z</time>
      </trkpt>
      <trkpt lat="43.66514" lon="3.81245">
        <ele>123.11000064</ele>
        <time>2020-10-17T08:20:29.000Z</time>
      </trkpt>
      <trkpt lat="43.66517" lon="3.81245">
        <ele>123.51000064</ele>
        <time>2020-10-17T08:20:31.000Z</time>
      </trkpt>
      <trkpt lat="43.6652" lon="3.81244">
        <ele>123.91000064</ele>
        <time>2020-10-17T08:20:33.000Z</time>
      </trkpt>
      <trkpt lat="43.66522" lon="3.81244">
        <ele>124.31000064</ele>
        <time>2020-10-17T08:20:35.000Z</time>
      </trkpt>
      <trkpt lat="43.66525" lon="3.81243">
        <ele>124.71000064</ele>
        <time>2020-10-17T08:20:37.000Z</time>
      </trkpt>
      <trkpt lat="43.66527" lon="3.81242">
        <ele>125.11000064</ele>
        <time>2020-10-17T08:20:39.000Z</time>
      </trkpt>
      <trkpt lat="43.6653" lon="3.81242">
        <ele>125.51000064</ele>
        <time>2020-10-17T08:20:41.000Z</time>
      </trkpt>
      <trkpt lat="43.66532" lon="3.81242">
        <ele>125.91000064</ele>
        <time>2020-10-17T08:20:43.000Z</time>
      </trkpt>
      <trkpt lat="43.66534" lon="3.81243">
        <ele>126.31000064</ele>
        <time>2020-10-17T08:20:45.000Z</time>
      </trkpt>
      <trkpt lat="43.66537" lon="3.81243">
        <ele>126.71000064</ele>
        <time>2020-10-17T08:20:47.000Z</time>
      </trkpt>
      <trkpt lat="43.66539" lon="3.81242">
        <ele>127.11000064</ele>
        <time>2020-10-17T08:20:49.000Z</time>
      </trkpt>
      <trkpt lat="43.66542" lon="3.81242">
        <ele>127.51000064</ele>
        <time>2020-10-17T08:20:51.000Z</time>
      </trkpt>
      <trkpt lat="43.66544" lon="3.81242">
        <ele>127.91000064</ele>
        <time>2020-10-17T08:20:53.000Z</time>
      </trkpt>
      <trkpt lat="43.66547" lon="3.81242">
        <ele>128.31000064</ele>
        <time>2020-10-17T08:20:55.000Z</time>
      </trkpt>
      <trkpt lat="43.6655" lon="3.81242">
        <ele>128.71000064</ele>
        <time>2020-10-17T08:20:57.000Z</time>
      </trkpt>
      <trkpt lat="43.66552" lon="3.81242">
        <ele>129.11000064</ele>
        <time>2020-10-17T08:20:59.000Z</time>
      </trkpt>
      <trkpt lat="43.66554" lon="3.81242">
        <ele>129.51000064</ele>
        <time>2020-10-17T08:21:01.000Z</time>
      </trkpt>
      <trkpt lat="43.66557" lon="3.81241">
        <ele>129.91000064</ele>
        <time>2020-10-17T08:21:03.000Z</time>
      </trkpt>
      <trkpt lat="43.6656" lon="3.81241">
        <ele>130.31000064</ele>
        <time>2020-10-17T08:21:05.000Z</time>
      </trkpt>
      <trkpt lat="43.66562" lon="3.8124">
        <ele>130.71000064</ele>
        <time>2020-10-17T08:21:07.000Z</time>
      </trkpt>
      <trkpt lat="43.66565" lon="3.8124">
        <ele>131.11000064</ele>
        <time>2020-10-17T08:21:09.000Z</time>
      </trkpt>
      <trkpt lat="43.66567" lon="3.8124">
        <ele>131.51000064</ele>
        <time>2020-10-17T08:21:11.000Z</time>
      </trkpt>
      <trkpt lat="43.6657" lon="3.81239">
        <ele>131.91000064</ele>
        <time>2020-10-17T08:21:13.000Z</time>
      </trkpt>
      <trkpt lat="43.66573" lon="3.8124">
        <ele>132.31000064</ele>
        <time>2020-10-17T08:21:15.000Z</time>
      </trkpt>
      <trkpt lat="43.66575" lon="3.8124">
        <ele>132.71000064</ele>
        <time>2020-10-17T08:21:17.000Z</time>
      </trkpt>
      <trkpt lat="43.66578" lon="3.8124">
        <ele>133.05500032</ele>
        <time>2020-10-17T08:21:19.000Z</time>
      </trkpt>
      <trkpt lat="43.6658" lon="3.81241">
        <ele>133.25500032</ele>
        <time>2020-10-17T08:21:21.000Z</time>
      </trkpt>
      <trkpt lat="43.66583" lon="3.81241">
        <ele>133.45500032</ele>
        <time>2020-10-17T08:21:23.000Z</time>
      </trkpt>
      <trkpt lat="43.66586" lon="3.81241">
        <ele>133.65500032</ele>
        <time>2020-10-17T08:21:25.000Z</time>
      </trkpt>
      <trkpt lat="43.66589" lon="3.81241">
        <ele>133.85500032</ele>
        <time>2020-10-17T08:21:27.000Z</time>
      </trkpt>
      <trkpt lat="43.66592" lon="3.81241">
        <ele>134.11000064</ele>
        <time>2020-10-17T08:21:29.000Z</time>
      </trkpt>
      <trkpt lat="43.66595" lon="3.81242">
        <ele>134.51000064</ele>
        <time>2020-10-17T08:21:31.000Z</time>
      </trkpt>
      <trkpt lat="43.66598" lon="3.81243">
        <ele>134.91000064</ele>
        <time>2020-10-17T08:21:33.000Z</time>
      </trkpt>
      <trkpt lat="43.66601" lon="3.81242">
        <ele>135.31000064</ele>
        <time>2020-10-17T08:21:35.000Z</time>
      </trkpt>
      <trkpt lat="43.66603" lon="3.81242">
        <ele>135.71000064</ele>
        <time>2020-10-17T08:21:37.000Z</time>
      </trkpt>
      <trkpt lat="43.66606" lon="3.81241">
        <ele>136.0546722515</ele>
        <time>2020-10-17T08:21:39.000Z</time>
      </trkpt>
      <trkpt lat="43.66608" lon="3.81239">
        <ele>136.25347928208</ele>
        <time>2020-10-17T08:21:41.000Z</time>
      </trkpt>
      <trkpt lat="43.6661" lon="3.81238">
        <ele>136.45228631266</ele>
        <time>2020-10-17T08:21:43.000Z</time>
      </trkpt>
      <trkpt lat="43.66612" lon="3.81237">
        <ele>136.65109334324</ele>
        <time>2020-10-17T08:21:45.000Z</time>
      </trkpt>
      <trkpt lat="43.66615" lon="3.81236">
        <ele>136.84990037382</ele>
        <time>2020-10-17T08:21:47.000Z</time>
      </trkpt>
      <trkpt lat="43.66617" lon="3.81234">
        <ele>137.04929548446</ele>
        <time>2020-10-17T08:21:49.000Z</time>
      </trkpt>
      <trkpt lat="43.6662" lon="3.81233">
        <ele>137.25050285747</ele>
        <time>2020-10-17T08:21:51.000Z</time>
      </trkpt>
      <trkpt lat="43.66623" lon="3.81232">
        <ele>137.45171023048</ele>
        <time>2020-10-17T08:21:53.000Z</time>
      </trkpt>
      <trkpt lat="43.66625" lon="3.81231">
        <ele>137.65291760349</ele>
        <time>2020-10-17T08:21:55.000Z</time>
      </trkpt>
      <trkpt lat="43.66628" lon="3.81231">
        <ele>137.8541249765</ele>
        <time>2020-10-17T08:21:57.000Z</time>
      </trkpt>
      <trkpt lat="43.66631" lon="3.81229">
        <ele>138.05500032</ele>
        <time>2020-10-17T08:21:59.000Z</time>
      </trkpt>
      <trkpt lat="43.66634" lon="3.81229">
        <ele>138.25500032</ele>
        <time>2020-10-17T08:22:01.000Z</time>
      </trkpt>
      <trkpt lat="43.66636" lon="3.81228">
        <ele>138.45500032</ele>
        <time>2020-10-17T08:22:03.000Z</time>
      </trkpt>
      <trkpt lat="43.66639" lon="3.81228">
        <ele>138.65500032</ele>
        <time>2020-10-17T08:22:05.000Z</time>
      </trkpt>
      <trkpt lat="43.66642" lon="3.81228">
        <ele>138.85500032</ele>
        <time>2020-10-17T08:22:07.000Z</time>
      </trkpt>
      <trkpt lat="43.66644" lon="3.81228">
        <ele>139</ele>
        <time>2020-10-17T08:22:09.000Z</time>
      </trkpt>
      <trkpt lat="43.66647" lon="3.81227">
        <ele>139</ele>
        <time>2020-10-17T08:22:11.000Z</time>
      </trkpt>
      <trkpt lat="43.66649" lon="3.81227">
        <ele>139</ele>
        <time>2020-10-17T08:22:13.000Z</time>
      </trkpt>
      <trkpt lat="43.66652" lon="3.81227">
        <ele>139</ele>
        <time>2020-10-17T08:22:15.000Z</time>
      </trkpt>
      <trkpt lat="43.66655" lon="3.81227">
        <ele>139</ele>
        <time>2020-10-17T08:22:17.000Z</time>
      </trkpt>
      <trkpt lat="43.66658" lon="3.81226">
        <ele>139</ele>
        <time>2020-10-17T08:22:19.000Z</time>
      </trkpt>
      <trkpt lat="43.6666" lon="3.81225">
        <ele>139</ele>
        <time>2020-10-17T08:22:21.000Z</time>
      </trkpt>
      <trkpt lat="43.66661" lon="3.81225">
        <ele>139</ele>
        <time>2020-10-17T08:22:29.000Z</time>
      </trkpt>
      <trkpt lat="43.66657" lon="3.81223">
        <ele>139.99541459187</ele>
        <time>2020-10-17T08:24:42.000Z</time>
      </trkpt>
      <trkpt lat="43.66659" lon="3.81223">
        <ele>140</ele>
        <time>2020-10-17T08:24:48.000Z</time>
      </trkpt>
      <trkpt lat="43.66665" lon="3.81221">
        <ele>140</ele>
        <time>2020-10-17T08:27:16.000Z</time>
      </trkpt>
      <trkpt lat="43.66667" lon="3.8122">
        <ele>140</ele>
        <time>2020-10-17T08:27:18.000Z</time>
      </trkpt>
      <trkpt lat="43.66669" lon="3.81219">
        <ele>140</ele>
        <time>2020-10-17T08:27:19.000Z</time>
      </trkpt>
      <trkpt lat="43.66671" lon="3.81219">
        <ele>140</ele>
        <time>2020-10-17T08:27:20.000Z</time>
      </trkpt>
      <trkpt lat="43.66675" lon="3.81218">
        <ele>140</ele>
        <time>2020-10-17T08:27:22.000Z</time>
      </trkpt>
      <trkpt lat="43.66677" lon="3.81218">
        <ele>140</ele>
        <time>2020-10-17T08:27:23.000Z</time>
      </trkpt>
      <trkpt lat="43.66679" lon="3.81218">
        <ele>140</ele>
        <time>2020-10-17T08:27:24.000Z</time>
      </trkpt>
      <trkpt lat="43.66681" lon="3.81218">
        <ele>140</ele>
        <time>2020-10-17T08:27:25.000Z</time>
      </trkpt>
      <trkpt lat="43.66684" lon="3.81218">
        <ele>140</ele>
        <time>2020-10-17T08:27:26.000Z</time>
      </trkpt>
      <trkpt lat="43.66686" lon="3.81218">
        <ele>139.94649774319</ele>
        <time>2020-10-17T08:27:27.000Z</time>
      </trkpt>
      <trkpt lat="43.66689" lon="3.81219">
        <ele>139.8492214786</ele>
        <time>2020-10-17T08:27:28.000Z</time>
      </trkpt>
      <trkpt lat="43.66691" lon="3.81219">
        <ele>139.75194521401</ele>
        <time>2020-10-17T08:27:29.000Z</time>
      </trkpt>
      <trkpt lat="43.66694" lon="3.81219">
        <ele>139.65466894942</ele>
        <time>2020-10-17T08:27:30.000Z</time>
      </trkpt>
      <trkpt lat="43.66696" lon="3.81219">
        <ele>139.55739268483</ele>
        <time>2020-10-17T08:27:31.000Z</time>
      </trkpt>
      <trkpt lat="43.66698" lon="3.81218">
        <ele>139.46011642023</ele>
        <time>2020-10-17T08:27:32.000Z</time>
      </trkpt>
      <trkpt lat="43.667" lon="3.81219">
        <ele>139.36284015564</ele>
        <time>2020-10-17T08:27:33.000Z</time>
      </trkpt>
      <trkpt lat="43.66702" lon="3.81219">
        <ele>139.26556389105</ele>
        <time>2020-10-17T08:27:34.000Z</time>
      </trkpt>
      <trkpt lat="43.66705" lon="3.81222">
        <ele>139.07101136187</ele>
        <time>2020-10-17T08:27:36.000Z</time>
      </trkpt>
      <trkpt lat="43.66707" lon="3.81225">
        <ele>139</ele>
        <time>2020-10-17T08:27:37.000Z</time>
      </trkpt>
      <trkpt lat="43.66707" lon="3.8123">
        <ele>139</ele>
        <time>2020-10-17T08:27:38.000Z</time>
      </trkpt>
      <trkpt lat="43.66706" lon="3.81235">
        <ele>139</ele>
        <time>2020-10-17T08:27:39.000Z</time>
      </trkpt>
      <trkpt lat="43.66704" lon="3.81238">
        <ele>139</ele>
        <time>2020-10-17T08:27:40.000Z</time>
      </trkpt>
      <trkpt lat="43.66702" lon="3.81241">
        <ele>139</ele>
        <time>2020-10-17T08:27:41.000Z</time>
      </trkpt>
      <trkpt lat="43.667" lon="3.81245">
        <ele>139</ele>
        <time>2020-10-17T08:27:42.000Z</time>
      </trkpt>
      <trkpt lat="43.66698" lon="3.81248">
        <ele>139</ele>
        <time>2020-10-17T08:27:43.000Z</time>
      </trkpt>
      <trkpt lat="43.66697" lon="3.81252">
        <ele>139</ele>
        <time>2020-10-17T08:27:44.000Z</time>
      </trkpt>
      <trkpt lat="43.66695" lon="3.81256">
        <ele>139</ele>
        <time>2020-10-17T08:27:45.000Z</time>
      </trkpt>
      <trkpt lat="43.66694" lon="3.81259">
        <ele>139</ele>
        <time>2020-10-17T08:27:46.000Z</time>
      </trkpt>
      <trkpt lat="43.66693" lon="3.81263">
        <ele>138.972221893</ele>
        <time>2020-10-17T08:27:47.000Z</time>
      </trkpt>
      <trkpt lat="43.66692" lon="3.81267">
        <ele>138.86934123457</ele>
        <time>2020-10-17T08:27:48.000Z</time>
      </trkpt>
      <trkpt lat="43.6669" lon="3.8127">
        <ele>138.76646057613</ele>
        <time>2020-10-17T08:27:49.000Z</time>
      </trkpt>
      <trkpt lat="43.66689" lon="3.81272">
        <ele>138.66357991769</ele>
        <time>2020-10-17T08:27:50.000Z</time>
      </trkpt>
      <trkpt lat="43.66688" lon="3.81275">
        <ele>138.56069925926</ele>
        <time>2020-10-17T08:27:51.000Z</time>
      </trkpt>
      <trkpt lat="43.66686" lon="3.81279">
        <ele>138.45781860082</ele>
        <time>2020-10-17T08:27:52.000Z</time>
      </trkpt>
      <trkpt lat="43.66683" lon="3.81282">
        <ele>138.35493794239</ele>
        <time>2020-10-17T08:27:53.000Z</time>
      </trkpt>
      <trkpt lat="43.66681" lon="3.81286">
        <ele>138.25205728395</ele>
        <time>2020-10-17T08:27:54.000Z</time>
      </trkpt>
      <trkpt lat="43.66678" lon="3.81289">
        <ele>138.14917662551</ele>
        <time>2020-10-17T08:27:55.000Z</time>
      </trkpt>
      <trkpt lat="43.66676" lon="3.81292">
        <ele>138.04629596708</ele>
        <time>2020-10-17T08:27:56.000Z</time>
      </trkpt>
      <trkpt lat="43.66673" lon="3.81295">
        <ele>137.94505467807</ele>
        <time>2020-10-17T08:27:57.000Z</time>
      </trkpt>
      <trkpt lat="43.6667" lon="3.81298">
        <ele>137.84515467398</ele>
        <time>2020-10-17T08:27:58.000Z</time>
      </trkpt>
      <trkpt lat="43.66667" lon="3.81302">
        <ele>137.74525466989</ele>
        <time>2020-10-17T08:27:59.000Z</time>
      </trkpt>
      <trkpt lat="43.66664" lon="3.81305">
        <ele>137.64535466579</ele>
        <time>2020-10-17T08:28:00.000Z</time>
      </trkpt>
      <trkpt lat="43.66661" lon="3.81309">
        <ele>137.5454546617</ele>
        <time>2020-10-17T08:28:01.000Z</time>
      </trkpt>
      <trkpt lat="43.66657" lon="3.81312">
        <ele>137.44555465761</ele>
        <time>2020-10-17T08:28:02.000Z</time>
      </trkpt>
      <trkpt lat="43.66653" lon="3.81315">
        <ele>137.34565465352</ele>
        <time>2020-10-17T08:28:03.000Z</time>
      </trkpt>
      <trkpt lat="43.6665" lon="3.81319">
        <ele>137.24575464943</ele>
        <time>2020-10-17T08:28:04.000Z</time>
      </trkpt>
      <trkpt lat="43.66646" lon="3.81323">
        <ele>137.14585464533</ele>
        <time>2020-10-17T08:28:05.000Z</time>
      </trkpt>
      <trkpt lat="43.66643" lon="3.81326">
        <ele>137.04595464124</ele>
        <time>2020-10-17T08:28:06.000Z</time>
      </trkpt>
      <trkpt lat="43.6664" lon="3.8133">
        <ele>137</ele>
        <time>2020-10-17T08:28:07.000Z</time>
      </trkpt>
      <trkpt lat="43.66637" lon="3.81335">
        <ele>137</ele>
        <time>2020-10-17T08:28:08.000Z</time>
      </trkpt>
      <trkpt lat="43.66634" lon="3.8134">
        <ele>137</ele>
        <time>2020-10-17T08:28:09.000Z</time>
      </trkpt>
      <trkpt lat="43.66632" lon="3.81345">
        <ele>137</ele>
        <time>2020-10-17T08:28:10.000Z</time>
      </trkpt>
      <trkpt lat="43.66629" lon="3.81349">
        <ele>137</ele>
        <time>2020-10-17T08:28:11.000Z</time>
      </trkpt>
      <trkpt lat="43.66626" lon="3.81352">
        <ele>137</ele>
        <time>2020-10-17T08:28:12.000Z</time>
      </trkpt>
      <trkpt lat="43.66622" lon="3.81354">
        <ele>137</ele>
        <time>2020-10-17T08:28:13.000Z</time>
      </trkpt>
      <trkpt lat="43.66619" lon="3.81355">
        <ele>137</ele>
        <time>2020-10-17T08:28:14.000Z</time>
      </trkpt>
      <trkpt lat="43.66617" lon="3.81354">
        <ele>137</ele>
        <time>2020-10-17T08:28:15.000Z</time>
      </trkpt>
      <trkpt lat="43.66615" lon="3.81354">
        <ele>137</ele>
        <time>2020-10-17T08:28:16.000Z</time>
      </trkpt>
      <trkpt lat="43.66612" lon="3.81353">
        <ele>137</ele>
        <time>2020-10-17T08:28:17.000Z</time>
      </trkpt>
      <trkpt lat="43.6661" lon="3.81352">
        <ele>137</ele>
        <time>2020-10-17T08:28:18.000Z</time>
      </trkpt>
      <trkpt lat="43.66607" lon="3.81351">
        <ele>137</ele>
        <time>2020-10-17T08:28:20.000Z</time>
      </trkpt>
      <trkpt lat="43.66605" lon="3.8135">
        <ele>137</ele>
        <time>2020-10-17T08:28:21.000Z</time>
      </trkpt>
      <trkpt lat="43.66603" lon="3.81349">
        <ele>137</ele>
        <time>2020-10-17T08:28:22.000Z</time>
      </trkpt>
      <trkpt lat="43.66601" lon="3.81348">
        <ele>137</ele>
        <time>2020-10-17T08:28:23.000Z</time>
      </trkpt>
      <trkpt lat="43.66598" lon="3.81347">
        <ele>137</ele>
        <time>2020-10-17T08:28:24.000Z</time>
      </trkpt>
      <trkpt lat="43.66596" lon="3.81346">
        <ele>137</ele>
        <time>2020-10-17T08:28:25.000Z</time>
      </trkpt>
      <trkpt lat="43.66594" lon="3.81345">
        <ele>137</ele>
        <time>2020-10-17T08:28:26.000Z</time>
      </trkpt>
      <trkpt lat="43.66591" lon="3.81344">
        <ele>137.05350225681</ele>
        <time>2020-10-17T08:28:27.000Z</time>
      </trkpt>
      <trkpt lat="43.66589" lon="3.81343">
        <ele>137.1507785214</ele>
        <time>2020-10-17T08:28:28.000Z</time>
      </trkpt>
      <trkpt lat="43.66587" lon="3.81343">
        <ele>137.24805478599</ele>
        <time>2020-10-17T08:28:29.000Z</time>
      </trkpt>
      <trkpt lat="43.66585" lon="3.81342">
        <ele>137.34533105058</ele>
        <time>2020-10-17T08:28:30.000Z</time>
      </trkpt>
      <trkpt lat="43.66583" lon="3.81342">
        <ele>137.44260731517</ele>
        <time>2020-10-17T08:28:31.000Z</time>
      </trkpt>
      <trkpt lat="43.66581" lon="3.81342">
        <ele>137.53988357977</ele>
        <time>2020-10-17T08:28:32.000Z</time>
      </trkpt>
      <trkpt lat="43.66579" lon="3.81341">
        <ele>137.63715984436</ele>
        <time>2020-10-17T08:28:33.000Z</time>
      </trkpt>
      <trkpt lat="43.66576" lon="3.81341">
        <ele>137.83171237354</ele>
        <time>2020-10-17T08:28:35.000Z</time>
      </trkpt>
      <trkpt lat="43.66574" lon="3.81341">
        <ele>137.92898863813</ele>
        <time>2020-10-17T08:28:36.000Z</time>
      </trkpt>
      <trkpt lat="43.66572" lon="3.8134">
        <ele>138.027778107</ele>
        <time>2020-10-17T08:28:37.000Z</time>
      </trkpt>
      <trkpt lat="43.6657" lon="3.8134">
        <ele>138.13065876543</ele>
        <time>2020-10-17T08:28:38.000Z</time>
      </trkpt>
      <trkpt lat="43.66568" lon="3.8134">
        <ele>138.23353942387</ele>
        <time>2020-10-17T08:28:39.000Z</time>
      </trkpt>
      <trkpt lat="43.66566" lon="3.81339">
        <ele>138.33642008231</ele>
        <time>2020-10-17T08:28:40.000Z</time>
      </trkpt>
      <trkpt lat="43.66564" lon="3.81339">
        <ele>138.43930074074</ele>
        <time>2020-10-17T08:28:41.000Z</time>
      </trkpt>
      <trkpt lat="43.66562" lon="3.81339">
        <ele>138.54218139918</ele>
        <time>2020-10-17T08:28:42.000Z</time>
      </trkpt>
      <trkpt lat="43.6656" lon="3.81338">
        <ele>138.64506205761</ele>
        <time>2020-10-17T08:28:43.000Z</time>
      </trkpt>
      <trkpt lat="43.66558" lon="3.81337">
        <ele>138.74794271605</ele>
        <time>2020-10-17T08:28:44.000Z</time>
      </trkpt>
      <trkpt lat="43.66556" lon="3.81336">
        <ele>138.85082337449</ele>
        <time>2020-10-17T08:28:45.000Z</time>
      </trkpt>
      <trkpt lat="43.66553" lon="3.81336">
        <ele>138.95370403292</ele>
        <time>2020-10-17T08:28:46.000Z</time>
      </trkpt>
      <trkpt lat="43.66551" lon="3.81335">
        <ele>139.05500032</ele>
        <time>2020-10-17T08:28:47.000Z</time>
      </trkpt>
      <trkpt lat="43.66549" lon="3.81335">
        <ele>139.15500032</ele>
        <time>2020-10-17T08:28:48.000Z</time>
      </trkpt>
      <trkpt lat="43.66546" lon="3.81335">
        <ele>139.25500032</ele>
        <time>2020-10-17T08:28:49.000Z</time>
      </trkpt>
      <trkpt lat="43.66544" lon="3.81334">
        <ele>139.35500032</ele>
        <time>2020-10-17T08:28:50.000Z</time>
      </trkpt>
      <trkpt lat="43.66542" lon="3.81333">
        <ele>139.45500032</ele>
        <time>2020-10-17T08:28:51.000Z</time>
      </trkpt>
      <trkpt lat="43.66539" lon="3.81332">
        <ele>139.55500032</ele>
        <time>2020-10-17T08:28:52.000Z</time>
      </trkpt>
      <trkpt lat="43.66537" lon="3.81332">
        <ele>139.65500032</ele>
        <time>2020-10-17T08:28:53.000Z</time>
      </trkpt>
      <trkpt lat="43.66534" lon="3.81331">
        <ele>139.75500032</ele>
        <time>2020-10-17T08:28:54.000Z</time>
      </trkpt>
      <trkpt lat="43.66532" lon="3.8133">
        <ele>139.85500032</ele>
        <time>2020-10-17T08:28:55.000Z</time>
      </trkpt>
      <trkpt lat="43.66529" lon="3.8133">
        <ele>139.95500032</ele>
        <time>2020-10-17T08:28:56.000Z</time>
      </trkpt>
      <trkpt lat="43.66526" lon="3.8133">
        <ele>140.0603735463</ele>
        <time>2020-10-17T08:28:57.000Z</time>
      </trkpt>
      <trkpt lat="43.66524" lon="3.81329">
        <ele>140.17014299183</ele>
        <time>2020-10-17T08:28:58.000Z</time>
      </trkpt>
      <trkpt lat="43.66523" lon="3.81327">
        <ele>140.27991243735</ele>
        <time>2020-10-17T08:28:59.000Z</time>
      </trkpt>
      <trkpt lat="43.66521" lon="3.81327">
        <ele>140.4994513284</ele>
        <time>2020-10-17T08:29:01.000Z</time>
      </trkpt>
      <trkpt lat="43.66521" lon="3.81328">
        <ele>140.93852911051</ele>
        <time>2020-10-17T08:29:05.000Z</time>
      </trkpt>
      <trkpt lat="43.66515" lon="3.81332">
        <ele>140.26769250159</ele>
        <time>2020-10-17T08:29:08.000Z</time>
      </trkpt>
      <trkpt lat="43.66512" lon="3.81333">
        <ele>140</ele>
        <time>2020-10-17T08:29:09.000Z</time>
      </trkpt>
      <trkpt lat="43.66509" lon="3.81334">
        <ele>140</ele>
        <time>2020-10-17T08:29:10.000Z</time>
      </trkpt>
      <trkpt lat="43.66506" lon="3.81335">
        <ele>140</ele>
        <time>2020-10-17T08:29:11.000Z</time>
      </trkpt>
      <trkpt lat="43.66503" lon="3.81336">
        <ele>140</ele>
        <time>2020-10-17T08:29:12.000Z</time>
      </trkpt>
      <trkpt lat="43.66501" lon="3.81337">
        <ele>140</ele>
        <time>2020-10-17T08:29:13.000Z</time>
      </trkpt>
      <trkpt lat="43.66498" lon="3.81338">
        <ele>140</ele>
        <time>2020-10-17T08:29:14.000Z</time>
      </trkpt>
      <trkpt lat="43.66496" lon="3.81339">
        <ele>140</ele>
        <time>2020-10-17T08:29:15.000Z</time>
      </trkpt>
      <trkpt lat="43.66494" lon="3.8134">
        <ele>140</ele>
        <time>2020-10-17T08:29:16.000Z</time>
      </trkpt>
      <trkpt lat="43.66491" lon="3.81342">
        <ele>140</ele>
        <time>2020-10-17T08:29:17.000Z</time>
      </trkpt>
      <trkpt lat="43.66489" lon="3.81343">
        <ele>140</ele>
        <time>2020-10-17T08:29:18.000Z</time>
      </trkpt>
      <trkpt lat="43.66486" lon="3.81344">
        <ele>140.05500032</ele>
        <time>2020-10-17T08:29:19.000Z</time>
      </trkpt>
      <trkpt lat="43.66484" lon="3.81344">
        <ele>140.15500032</ele>
        <time>2020-10-17T08:29:20.000Z</time>
      </trkpt>
      <trkpt lat="43.66481" lon="3.81344">
        <ele>140.25500032</ele>
        <time>2020-10-17T08:29:21.000Z</time>
      </trkpt>
      <trkpt lat="43.66479" lon="3.81344">
        <ele>140.35500032</ele>
        <time>2020-10-17T08:29:22.000Z</time>
      </trkpt>
      <trkpt lat="43.66476" lon="3.81344">
        <ele>140.45500032</ele>
        <time>2020-10-17T08:29:23.000Z</time>
      </trkpt>
      <trkpt lat="43.66473" lon="3.81344">
        <ele>140.55500032</ele>
        <time>2020-10-17T08:29:24.000Z</time>
      </trkpt>
      <trkpt lat="43.6647" lon="3.81345">
        <ele>140.65500032</ele>
        <time>2020-10-17T08:29:25.000Z</time>
      </trkpt>
      <trkpt lat="43.66467" lon="3.81346">
        <ele>140.75500032</ele>
        <time>2020-10-17T08:29:26.000Z</time>
      </trkpt>
      <trkpt lat="43.66464" lon="3.81347">
        <ele>140.85500032</ele>
        <time>2020-10-17T08:29:27.000Z</time>
      </trkpt>
      <trkpt lat="43.66461" lon="3.81348">
        <ele>140.95500032</ele>
        <time>2020-10-17T08:29:28.000Z</time>
      </trkpt>
      <trkpt lat="43.66459" lon="3.8135">
        <ele>141.05500032</ele>
        <time>2020-10-17T08:29:29.000Z</time>
      </trkpt>
      <trkpt lat="43.66457" lon="3.81351">
        <ele>141.15500032</ele>
        <time>2020-10-17T08:29:30.000Z</time>
      </trkpt>
      <trkpt lat="43.66454" lon="3.81352">
        <ele>141.25500032</ele>
        <time>2020-10-17T08:29:31.000Z</time>
      </trkpt>
      <trkpt lat="43.66452" lon="3.81353">
        <ele>141.35500032</ele>
        <time>2020-10-17T08:29:32.000Z</time>
      </trkpt>
      <trkpt lat="43.6645" lon="3.81354">
        <ele>141.45500032</ele>
        <time>2020-10-17T08:29:33.000Z</time>
      </trkpt>
      <trkpt lat="43.66448" lon="3.81356">
        <ele>141.55500032</ele>
        <time>2020-10-17T08:29:34.000Z</time>
      </trkpt>
      <trkpt lat="43.66446" lon="3.81357">
        <ele>141.65500032</ele>
        <time>2020-10-17T08:29:35.000Z</time>
      </trkpt>
      <trkpt lat="43.66445" lon="3.81358">
        <ele>141.75500032</ele>
        <time>2020-10-17T08:29:36.000Z</time>
      </trkpt>
      <trkpt lat="43.66443" lon="3.81359">
        <ele>141.85500032</ele>
        <time>2020-10-17T08:29:37.000Z</time>
      </trkpt>
      <trkpt lat="43.6644" lon="3.81361">
        <ele>142.05500032</ele>
        <time>2020-10-17T08:29:39.000Z</time>
      </trkpt>
      <trkpt lat="43.66437" lon="3.81363">
        <ele>142.25500032</ele>
        <time>2020-10-17T08:29:41.000Z</time>
      </trkpt>
      <trkpt lat="43.66434" lon="3.81365">
        <ele>142.45500032</ele>
        <time>2020-10-17T08:29:43.000Z</time>
      </trkpt>
      <trkpt lat="43.66432" lon="3.81366">
        <ele>142.55500032</ele>
        <time>2020-10-17T08:29:44.000Z</time>
      </trkpt>
      <trkpt lat="43.66431" lon="3.81368">
        <ele>142.65500032</ele>
        <time>2020-10-17T08:29:45.000Z</time>
      </trkpt>
      <trkpt lat="43.66429" lon="3.81369">
        <ele>142.75500032</ele>
        <time>2020-10-17T08:29:46.000Z</time>
      </trkpt>
      <trkpt lat="43.66427" lon="3.8137">
        <ele>142.85500032</ele>
        <time>2020-10-17T08:29:47.000Z</time>
      </trkpt>
      <trkpt lat="43.66424" lon="3.81372">
        <ele>143.05500032</ele>
        <time>2020-10-17T08:29:49.000Z</time>
      </trkpt>
      <trkpt lat="43.66422" lon="3.81374">
        <ele>143.25500032</ele>
        <time>2020-10-17T08:29:51.000Z</time>
      </trkpt>
      <trkpt lat="43.66419" lon="3.81377">
        <ele>143.45500032</ele>
        <time>2020-10-17T08:29:53.000Z</time>
      </trkpt>
      <trkpt lat="43.66416" lon="3.81379">
        <ele>143.65500032</ele>
        <time>2020-10-17T08:29:55.000Z</time>
      </trkpt>
      <trkpt lat="43.66413" lon="3.81381">
        <ele>143.85500032</ele>
        <time>2020-10-17T08:29:57.000Z</time>
      </trkpt>
      <trkpt lat="43.6641" lon="3.81384">
        <ele>144.10978100772</ele>
        <time>2020-10-17T08:29:59.000Z</time>
      </trkpt>
      <trkpt lat="43.66408" lon="3.81384">
        <ele>144.30938167864</ele>
        <time>2020-10-17T08:30:00.000Z</time>
      </trkpt>
      <trkpt lat="43.66406" lon="3.81385">
        <ele>144.50898234955</ele>
        <time>2020-10-17T08:30:01.000Z</time>
      </trkpt>
      <trkpt lat="43.66405" lon="3.81387">
        <ele>144.70858302047</ele>
        <time>2020-10-17T08:30:02.000Z</time>
      </trkpt>
      <trkpt lat="43.66403" lon="3.81388">
        <ele>144.90818369138</ele>
        <time>2020-10-17T08:30:03.000Z</time>
      </trkpt>
      <trkpt lat="43.66401" lon="3.81389">
        <ele>145.10778436229</ele>
        <time>2020-10-17T08:30:04.000Z</time>
      </trkpt>
      <trkpt lat="43.66399" lon="3.8139">
        <ele>145.30738503321</ele>
        <time>2020-10-17T08:30:05.000Z</time>
      </trkpt>
      <trkpt lat="43.66398" lon="3.81392">
        <ele>145.50698570412</ele>
        <time>2020-10-17T08:30:06.000Z</time>
      </trkpt>
      <trkpt lat="43.66395" lon="3.81394">
        <ele>145.90618704595</ele>
        <time>2020-10-17T08:30:08.000Z</time>
      </trkpt>
      <trkpt lat="43.66393" lon="3.81396">
        <ele>146.10621185168</ele>
        <time>2020-10-17T08:30:09.000Z</time>
      </trkpt>
      <trkpt lat="43.6639" lon="3.81398">
        <ele>146.50701371191</ele>
        <time>2020-10-17T08:30:11.000Z</time>
      </trkpt>
      <trkpt lat="43.66387" lon="3.814">
        <ele>146.90781557215</ele>
        <time>2020-10-17T08:30:13.000Z</time>
      </trkpt>
      <trkpt lat="43.66384" lon="3.81402">
        <ele>147.30861743238</ele>
        <time>2020-10-17T08:30:15.000Z</time>
      </trkpt>
      <trkpt lat="43.66381" lon="3.81405">
        <ele>147.70941929261</ele>
        <time>2020-10-17T08:30:17.000Z</time>
      </trkpt>
      <trkpt lat="43.66378" lon="3.81408">
        <ele>148.11000064</ele>
        <time>2020-10-17T08:30:19.000Z</time>
      </trkpt>
      <trkpt lat="43.66376" lon="3.81411">
        <ele>148.51000064</ele>
        <time>2020-10-17T08:30:21.000Z</time>
      </trkpt>
      <trkpt lat="43.66374" lon="3.81415">
        <ele>148.91000064</ele>
        <time>2020-10-17T08:30:23.000Z</time>
      </trkpt>
      <trkpt lat="43.66371" lon="3.81418">
        <ele>149.31000064</ele>
        <time>2020-10-17T08:30:25.000Z</time>
      </trkpt>
      <trkpt lat="43.66369" lon="3.81421">
        <ele>149.71000064</ele>
        <time>2020-10-17T08:30:27.000Z</time>
      </trkpt>
      <trkpt lat="43.66367" lon="3.81424">
        <ele>150.11000064</ele>
        <time>2020-10-17T08:30:29.000Z</time>
      </trkpt>
      <trkpt lat="43.66365" lon="3.81427">
        <ele>150.51000064</ele>
        <time>2020-10-17T08:30:31.000Z</time>
      </trkpt>
      <trkpt lat="43.66362" lon="3.81429">
        <ele>150.91000064</ele>
        <time>2020-10-17T08:30:33.000Z</time>
      </trkpt>
      <trkpt lat="43.6636" lon="3.81431">
        <ele>151.31000064</ele>
        <time>2020-10-17T08:30:35.000Z</time>
      </trkpt>
      <trkpt lat="43.66357" lon="3.81434">
        <ele>151.71000064</ele>
        <time>2020-10-17T08:30:37.000Z</time>
      </trkpt>
      <trkpt lat="43.66354" lon="3.81437">
        <ele>152.05500032</ele>
        <time>2020-10-17T08:30:39.000Z</time>
      </trkpt>
      <trkpt lat="43.66353" lon="3.81438">
        <ele>152.15500032</ele>
        <time>2020-10-17T08:30:40.000Z</time>
      </trkpt>
      <trkpt lat="43.66351" lon="3.81441">
        <ele>152.35500032</ele>
        <time>2020-10-17T08:30:42.000Z</time>
      </trkpt>
      <trkpt lat="43.66349" lon="3.81445">
        <ele>152.55500032</ele>
        <time>2020-10-17T08:30:44.000Z</time>
      </trkpt>
      <trkpt lat="43.66347" lon="3.81448">
        <ele>152.75500032</ele>
        <time>2020-10-17T08:30:46.000Z</time>
      </trkpt>
      <trkpt lat="43.66347" lon="3.81452">
        <ele>152.95500032</ele>
        <time>2020-10-17T08:30:48.000Z</time>
      </trkpt>
      <trkpt lat="43.66347" lon="3.81456">
        <ele>153</ele>
        <time>2020-10-17T08:30:49.000Z</time>
      </trkpt>
      <trkpt lat="43.66347" lon="3.8146">
        <ele>153</ele>
        <time>2020-10-17T08:30:50.000Z</time>
      </trkpt>
      <trkpt lat="43.66348" lon="3.81463">
        <ele>153</ele>
        <time>2020-10-17T08:30:51.000Z</time>
      </trkpt>
      <trkpt lat="43.66348" lon="3.81468">
        <ele>153</ele>
        <time>2020-10-17T08:30:52.000Z</time>
      </trkpt>
      <trkpt lat="43.6635" lon="3.81472">
        <ele>153</ele>
        <time>2020-10-17T08:30:53.000Z</time>
      </trkpt>
      <trkpt lat="43.66351" lon="3.81476">
        <ele>153</ele>
        <time>2020-10-17T08:30:54.000Z</time>
      </trkpt>
      <trkpt lat="43.66352" lon="3.81479">
        <ele>153</ele>
        <time>2020-10-17T08:30:55.000Z</time>
      </trkpt>
      <trkpt lat="43.66353" lon="3.81483">
        <ele>153</ele>
        <time>2020-10-17T08:30:56.000Z</time>
      </trkpt>
      <trkpt lat="43.66353" lon="3.81487">
        <ele>153</ele>
        <time>2020-10-17T08:30:57.000Z</time>
      </trkpt>
      <trkpt lat="43.66353" lon="3.8149">
        <ele>153</ele>
        <time>2020-10-17T08:30:58.000Z</time>
      </trkpt>
      <trkpt lat="43.66354" lon="3.81494">
        <ele>153</ele>
        <time>2020-10-17T08:30:59.000Z</time>
      </trkpt>
      <trkpt lat="43.66354" lon="3.81497">
        <ele>153</ele>
        <time>2020-10-17T08:31:00.000Z</time>
      </trkpt>
      <trkpt lat="43.66354" lon="3.81501">
        <ele>153</ele>
        <time>2020-10-17T08:31:01.000Z</time>
      </trkpt>
      <trkpt lat="43.66354" lon="3.81504">
        <ele>153</ele>
        <time>2020-10-17T08:31:02.000Z</time>
      </trkpt>
      <trkpt lat="43.66354" lon="3.81507">
        <ele>153</ele>
        <time>2020-10-17T08:31:03.000Z</time>
      </trkpt>
      <trkpt lat="43.66354" lon="3.81512">
        <ele>153</ele>
        <time>2020-10-17T08:31:05.000Z</time>
      </trkpt>
      <trkpt lat="43.66354" lon="3.81515">
        <ele>153</ele>
        <time>2020-10-17T08:31:06.000Z</time>
      </trkpt>
      <trkpt lat="43.66355" lon="3.81519">
        <ele>153</ele>
        <time>2020-10-17T08:31:07.000Z</time>
      </trkpt>
      <trkpt lat="43.66355" lon="3.81523">
        <ele>153</ele>
        <time>2020-10-17T08:31:08.000Z</time>
      </trkpt>
      <trkpt lat="43.66356" lon="3.81526">
        <ele>153</ele>
        <time>2020-10-17T08:31:09.000Z</time>
      </trkpt>
      <trkpt lat="43.66357" lon="3.8153">
        <ele>153</ele>
        <time>2020-10-17T08:31:10.000Z</time>
      </trkpt>
      <trkpt lat="43.66358" lon="3.81533">
        <ele>153</ele>
        <time>2020-10-17T08:31:11.000Z</time>
      </trkpt>
      <trkpt lat="43.66358" lon="3.81537">
        <ele>153</ele>
        <time>2020-10-17T08:31:12.000Z</time>
      </trkpt>
      <trkpt lat="43.66358" lon="3.81541">
        <ele>153</ele>
        <time>2020-10-17T08:31:13.000Z</time>
      </trkpt>
      <trkpt lat="43.66357" lon="3.81544">
        <ele>153</ele>
        <time>2020-10-17T08:31:14.000Z</time>
      </trkpt>
      <trkpt lat="43.66356" lon="3.81546">
        <ele>153</ele>
        <time>2020-10-17T08:31:15.000Z</time>
      </trkpt>
      <trkpt lat="43.66354" lon="3.81548">
        <ele>153</ele>
        <time>2020-10-17T08:31:16.000Z</time>
      </trkpt>
      <trkpt lat="43.66352" lon="3.81549">
        <ele>153</ele>
        <time>2020-10-17T08:31:18.000Z</time>
      </trkpt>
      <trkpt lat="43.6635" lon="3.81549">
        <ele>153.15484532602</ele>
        <time>2020-10-17T08:31:20.000Z</time>
      </trkpt>
      <trkpt lat="43.66348" lon="3.8155">
        <ele>153.35464533421</ele>
        <time>2020-10-17T08:31:22.000Z</time>
      </trkpt>
      <trkpt lat="43.66345" lon="3.81552">
        <ele>153.55444534239</ele>
        <time>2020-10-17T08:31:24.000Z</time>
      </trkpt>
      <trkpt lat="43.66342" lon="3.81554">
        <ele>153.75424535057</ele>
        <time>2020-10-17T08:31:26.000Z</time>
      </trkpt>
      <trkpt lat="43.6634" lon="3.81557">
        <ele>153.95404535876</ele>
        <time>2020-10-17T08:31:28.000Z</time>
      </trkpt>
      <trkpt lat="43.66337" lon="3.81559">
        <ele>154</ele>
        <time>2020-10-17T08:31:30.000Z</time>
      </trkpt>
      <trkpt lat="43.66334" lon="3.81562">
        <ele>154</ele>
        <time>2020-10-17T08:31:32.000Z</time>
      </trkpt>
      <trkpt lat="43.66331" lon="3.81565">
        <ele>154</ele>
        <time>2020-10-17T08:31:34.000Z</time>
      </trkpt>
      <trkpt lat="43.6633" lon="3.81567">
        <ele>154</ele>
        <time>2020-10-17T08:31:35.000Z</time>
      </trkpt>
      <trkpt lat="43.66328" lon="3.81569">
        <ele>154</ele>
        <time>2020-10-17T08:31:36.000Z</time>
      </trkpt>
      <trkpt lat="43.66326" lon="3.81571">
        <ele>154</ele>
        <time>2020-10-17T08:31:37.000Z</time>
      </trkpt>
      <trkpt lat="43.66325" lon="3.81574">
        <ele>154</ele>
        <time>2020-10-17T08:31:38.000Z</time>
      </trkpt>
      <trkpt lat="43.66324" lon="3.81578">
        <ele>154</ele>
        <time>2020-10-17T08:31:39.000Z</time>
      </trkpt>
      <trkpt lat="43.66324" lon="3.81583">
        <ele>154</ele>
        <time>2020-10-17T08:31:40.000Z</time>
      </trkpt>
      <trkpt lat="43.66325" lon="3.81589">
        <ele>154</ele>
        <time>2020-10-17T08:31:41.000Z</time>
      </trkpt>
      <trkpt lat="43.66327" lon="3.81593">
        <ele>154</ele>
        <time>2020-10-17T08:31:42.000Z</time>
      </trkpt>
      <trkpt lat="43.66329" lon="3.81598">
        <ele>154</ele>
        <time>2020-10-17T08:31:43.000Z</time>
      </trkpt>
      <trkpt lat="43.6633" lon="3.81602">
        <ele>154</ele>
        <time>2020-10-17T08:31:44.000Z</time>
      </trkpt>
      <trkpt lat="43.6633" lon="3.81606">
        <ele>154</ele>
        <time>2020-10-17T08:31:45.000Z</time>
      </trkpt>
      <trkpt lat="43.66331" lon="3.8161">
        <ele>154</ele>
        <time>2020-10-17T08:31:46.000Z</time>
      </trkpt>
      <trkpt lat="43.66331" lon="3.81614">
        <ele>154</ele>
        <time>2020-10-17T08:31:47.000Z</time>
      </trkpt>
      <trkpt lat="43.66331" lon="3.81618">
        <ele>154</ele>
        <time>2020-10-17T08:31:48.000Z</time>
      </trkpt>
      <trkpt lat="43.6633" lon="3.81622">
        <ele>154</ele>
        <time>2020-10-17T08:31:49.000Z</time>
      </trkpt>
      <trkpt lat="43.6633" lon="3.81626">
        <ele>154</ele>
        <time>2020-10-17T08:31:50.000Z</time>
      </trkpt>
      <trkpt lat="43.6633" lon="3.8163">
        <ele>154</ele>
        <time>2020-10-17T08:31:51.000Z</time>
      </trkpt>
      <trkpt lat="43.66329" lon="3.81634">
        <ele>154</ele>
        <time>2020-10-17T08:31:52.000Z</time>
      </trkpt>
      <trkpt lat="43.66328" lon="3.81636">
        <ele>154</ele>
        <time>2020-10-17T08:31:53.000Z</time>
      </trkpt>
      <trkpt lat="43.66327" lon="3.81641">
        <ele>154</ele>
        <time>2020-10-17T08:31:55.000Z</time>
      </trkpt>
      <trkpt lat="43.66327" lon="3.81643">
        <ele>154</ele>
        <time>2020-10-17T08:31:56.000Z</time>
      </trkpt>
      <trkpt lat="43.66326" lon="3.81646">
        <ele>154</ele>
        <time>2020-10-17T08:31:57.000Z</time>
      </trkpt>
      <trkpt lat="43.66325" lon="3.81649">
        <ele>154</ele>
        <time>2020-10-17T08:31:58.000Z</time>
      </trkpt>
      <trkpt lat="43.66324" lon="3.81653">
        <ele>154</ele>
        <time>2020-10-17T08:31:59.000Z</time>
      </trkpt>
      <trkpt lat="43.66324" lon="3.81656">
        <ele>154</ele>
        <time>2020-10-17T08:32:00.000Z</time>
      </trkpt>
      <trkpt lat="43.66323" lon="3.81659">
        <ele>154</ele>
        <time>2020-10-17T08:32:01.000Z</time>
      </trkpt>
      <trkpt lat="43.66323" lon="3.81662">
        <ele>154</ele>
        <time>2020-10-17T08:32:02.000Z</time>
      </trkpt>
      <trkpt lat="43.66322" lon="3.81666">
        <ele>154</ele>
        <time>2020-10-17T08:32:03.000Z</time>
      </trkpt>
      <trkpt lat="43.66322" lon="3.81669">
        <ele>154</ele>
        <time>2020-10-17T08:32:04.000Z</time>
      </trkpt>
      <trkpt lat="43.66321" lon="3.81673">
        <ele>154</ele>
        <time>2020-10-17T08:32:05.000Z</time>
      </trkpt>
      <trkpt lat="43.66321" lon="3.81676">
        <ele>154</ele>
        <time>2020-10-17T08:32:06.000Z</time>
      </trkpt>
      <trkpt lat="43.66321" lon="3.81679">
        <ele>154</ele>
        <time>2020-10-17T08:32:07.000Z</time>
      </trkpt>
      <trkpt lat="43.66321" lon="3.81682">
        <ele>154</ele>
        <time>2020-10-17T08:32:08.000Z</time>
      </trkpt>
      <trkpt lat="43.66321" lon="3.81685">
        <ele>153.972221893</ele>
        <time>2020-10-17T08:32:09.000Z</time>
      </trkpt>
      <trkpt lat="43.6632" lon="3.81688">
        <ele>153.86934123457</ele>
        <time>2020-10-17T08:32:10.000Z</time>
      </trkpt>
      <trkpt lat="43.6632" lon="3.81691">
        <ele>153.76646057613</ele>
        <time>2020-10-17T08:32:11.000Z</time>
      </trkpt>
      <trkpt lat="43.6632" lon="3.81695">
        <ele>153.56069925926</ele>
        <time>2020-10-17T08:32:13.000Z</time>
      </trkpt>
      <trkpt lat="43.66321" lon="3.81699">
        <ele>153.14917662551</ele>
        <time>2020-10-17T08:32:17.000Z</time>
      </trkpt>
      <trkpt lat="43.66323" lon="3.817">
        <ele>153</ele>
        <time>2020-10-17T08:32:19.000Z</time>
      </trkpt>
      <trkpt lat="43.66325" lon="3.817">
        <ele>153</ele>
        <time>2020-10-17T08:32:20.000Z</time>
      </trkpt>
      <trkpt lat="43.66327" lon="3.817">
        <ele>153</ele>
        <time>2020-10-17T08:32:21.000Z</time>
      </trkpt>
      <trkpt lat="43.66329" lon="3.81699">
        <ele>153</ele>
        <time>2020-10-17T08:32:22.000Z</time>
      </trkpt>
      <trkpt lat="43.66331" lon="3.81698">
        <ele>153</ele>
        <time>2020-10-17T08:32:23.000Z</time>
      </trkpt>
      <trkpt lat="43.66333" lon="3.81697">
        <ele>153</ele>
        <time>2020-10-17T08:32:24.000Z</time>
      </trkpt>
      <trkpt lat="43.66335" lon="3.81696">
        <ele>153</ele>
        <time>2020-10-17T08:32:25.000Z</time>
      </trkpt>
      <trkpt lat="43.66337" lon="3.81695">
        <ele>153</ele>
        <time>2020-10-17T08:32:26.000Z</time>
      </trkpt>
      <trkpt lat="43.6634" lon="3.81694">
        <ele>153</ele>
        <time>2020-10-17T08:32:28.000Z</time>
      </trkpt>
      <trkpt lat="43.66342" lon="3.81694">
        <ele>152.94499968</ele>
        <time>2020-10-17T08:32:29.000Z</time>
      </trkpt>
      <trkpt lat="43.66344" lon="3.81694">
        <ele>152.84499968</ele>
        <time>2020-10-17T08:32:30.000Z</time>
      </trkpt>
      <trkpt lat="43.66346" lon="3.81694">
        <ele>152.74499968</ele>
        <time>2020-10-17T08:32:31.000Z</time>
      </trkpt>
      <trkpt lat="43.66348" lon="3.81694">
        <ele>152.64499968</ele>
        <time>2020-10-17T08:32:32.000Z</time>
      </trkpt>
      <trkpt lat="43.66351" lon="3.81694">
        <ele>152.54499968</ele>
        <time>2020-10-17T08:32:33.000Z</time>
      </trkpt>
      <trkpt lat="43.66353" lon="3.81694">
        <ele>152.44499968</ele>
        <time>2020-10-17T08:32:34.000Z</time>
      </trkpt>
      <trkpt lat="43.66356" lon="3.81693">
        <ele>152.34499968</ele>
        <time>2020-10-17T08:32:35.000Z</time>
      </trkpt>
      <trkpt lat="43.66358" lon="3.81693">
        <ele>152.24499968</ele>
        <time>2020-10-17T08:32:36.000Z</time>
      </trkpt>
      <trkpt lat="43.66361" lon="3.81694">
        <ele>152.14499968</ele>
        <time>2020-10-17T08:32:37.000Z</time>
      </trkpt>
      <trkpt lat="43.66362" lon="3.81696">
        <ele>152.04499968</ele>
        <time>2020-10-17T08:32:38.000Z</time>
      </trkpt>
      <trkpt lat="43.66364" lon="3.81698">
        <ele>151.88999936</ele>
        <time>2020-10-17T08:32:39.000Z</time>
      </trkpt>
      <trkpt lat="43.66366" lon="3.817">
        <ele>151.68999936</ele>
        <time>2020-10-17T08:32:40.000Z</time>
      </trkpt>
      <trkpt lat="43.66368" lon="3.81701">
        <ele>151.48999936</ele>
        <time>2020-10-17T08:32:41.000Z</time>
      </trkpt>
      <trkpt lat="43.6637" lon="3.81702">
        <ele>151.28999936</ele>
        <time>2020-10-17T08:32:42.000Z</time>
      </trkpt>
      <trkpt lat="43.66373" lon="3.81703">
        <ele>151.08999936</ele>
        <time>2020-10-17T08:32:43.000Z</time>
      </trkpt>
      <trkpt lat="43.66375" lon="3.81704">
        <ele>150.88999936</ele>
        <time>2020-10-17T08:32:44.000Z</time>
      </trkpt>
      <trkpt lat="43.66377" lon="3.81705">
        <ele>150.68999936</ele>
        <time>2020-10-17T08:32:45.000Z</time>
      </trkpt>
      <trkpt lat="43.6638" lon="3.81706">
        <ele>150.48999936</ele>
        <time>2020-10-17T08:32:46.000Z</time>
      </trkpt>
      <trkpt lat="43.66382" lon="3.81708">
        <ele>150.28999936</ele>
        <time>2020-10-17T08:32:47.000Z</time>
      </trkpt>
      <trkpt lat="43.66385" lon="3.81708">
        <ele>150.08999936</ele>
        <time>2020-10-17T08:32:48.000Z</time>
      </trkpt>
      <trkpt lat="43.66388" lon="3.81708">
        <ele>149.94499968</ele>
        <time>2020-10-17T08:32:49.000Z</time>
      </trkpt>
      <trkpt lat="43.66391" lon="3.81708">
        <ele>149.84499968</ele>
        <time>2020-10-17T08:32:50.000Z</time>
      </trkpt>
      <trkpt lat="43.66393" lon="3.81707">
        <ele>149.74499968</ele>
        <time>2020-10-17T08:32:51.000Z</time>
      </trkpt>
      <trkpt lat="43.66396" lon="3.81706">
        <ele>149.64499968</ele>
        <time>2020-10-17T08:32:52.000Z</time>
      </trkpt>
      <trkpt lat="43.66398" lon="3.81706">
        <ele>149.54499968</ele>
        <time>2020-10-17T08:32:53.000Z</time>
      </trkpt>
      <trkpt lat="43.66401" lon="3.81706">
        <ele>149.44499968</ele>
        <time>2020-10-17T08:32:54.000Z</time>
      </trkpt>
      <trkpt lat="43.66404" lon="3.81707">
        <ele>149.34499968</ele>
        <time>2020-10-17T08:32:55.000Z</time>
      </trkpt>
      <trkpt lat="43.66407" lon="3.81708">
        <ele>149.24499968</ele>
        <time>2020-10-17T08:32:56.000Z</time>
      </trkpt>
      <trkpt lat="43.6641" lon="3.8171">
        <ele>149.14499968</ele>
        <time>2020-10-17T08:32:57.000Z</time>
      </trkpt>
      <trkpt lat="43.66413" lon="3.81711">
        <ele>149.04499968</ele>
        <time>2020-10-17T08:32:58.000Z</time>
      </trkpt>
      <trkpt lat="43.66418" lon="3.81713">
        <ele>148.94499968</ele>
        <time>2020-10-17T08:32:59.000Z</time>
      </trkpt>
      <trkpt lat="43.66422" lon="3.81716">
        <ele>148.84499968</ele>
        <time>2020-10-17T08:33:00.000Z</time>
      </trkpt>
      <trkpt lat="43.66427" lon="3.81721">
        <ele>148.74499968</ele>
        <time>2020-10-17T08:33:01.000Z</time>
      </trkpt>
      <trkpt lat="43.66431" lon="3.81725">
        <ele>148.64499968</ele>
        <time>2020-10-17T08:33:02.000Z</time>
      </trkpt>
      <trkpt lat="43.66435" lon="3.81729">
        <ele>148.54499968</ele>
        <time>2020-10-17T08:33:03.000Z</time>
      </trkpt>
      <trkpt lat="43.6644" lon="3.81733">
        <ele>148.44499968</ele>
        <time>2020-10-17T08:33:04.000Z</time>
      </trkpt>
      <trkpt lat="43.66444" lon="3.81736">
        <ele>148.34499968</ele>
        <time>2020-10-17T08:33:05.000Z</time>
      </trkpt>
      <trkpt lat="43.66448" lon="3.81738">
        <ele>148.24499968</ele>
        <time>2020-10-17T08:33:06.000Z</time>
      </trkpt>
      <trkpt lat="43.66453" lon="3.81741">
        <ele>148.14499968</ele>
        <time>2020-10-17T08:33:07.000Z</time>
      </trkpt>
      <trkpt lat="43.66457" lon="3.81745">
        <ele>148.04499968</ele>
        <time>2020-10-17T08:33:08.000Z</time>
      </trkpt>
      <trkpt lat="43.6646" lon="3.81748">
        <ele>147.88999936</ele>
        <time>2020-10-17T08:33:09.000Z</time>
      </trkpt>
      <trkpt lat="43.66463" lon="3.8175">
        <ele>147.68999936</ele>
        <time>2020-10-17T08:33:10.000Z</time>
      </trkpt>
      <trkpt lat="43.66466" lon="3.8175">
        <ele>147.48999936</ele>
        <time>2020-10-17T08:33:11.000Z</time>
      </trkpt>
      <trkpt lat="43.66469" lon="3.81751">
        <ele>147.28999936</ele>
        <time>2020-10-17T08:33:12.000Z</time>
      </trkpt>
      <trkpt lat="43.66471" lon="3.81752">
        <ele>147.08999936</ele>
        <time>2020-10-17T08:33:13.000Z</time>
      </trkpt>
      <trkpt lat="43.66474" lon="3.81753">
        <ele>146.88999936</ele>
        <time>2020-10-17T08:33:14.000Z</time>
      </trkpt>
      <trkpt lat="43.66476" lon="3.81755">
        <ele>146.68999936</ele>
        <time>2020-10-17T08:33:15.000Z</time>
      </trkpt>
      <trkpt lat="43.66478" lon="3.81757">
        <ele>146.48999936</ele>
        <time>2020-10-17T08:33:16.000Z</time>
      </trkpt>
      <trkpt lat="43.66479" lon="3.8176">
        <ele>146.28999936</ele>
        <time>2020-10-17T08:33:17.000Z</time>
      </trkpt>
      <trkpt lat="43.6648" lon="3.81764">
        <ele>146.08999936</ele>
        <time>2020-10-17T08:33:18.000Z</time>
      </trkpt>
      <trkpt lat="43.66481" lon="3.81766">
        <ele>146</ele>
        <time>2020-10-17T08:33:19.000Z</time>
      </trkpt>
      <trkpt lat="43.66481" lon="3.81771">
        <ele>146</ele>
        <time>2020-10-17T08:33:21.000Z</time>
      </trkpt>
      <trkpt lat="43.66481" lon="3.81773">
        <ele>146</ele>
        <time>2020-10-17T08:33:27.000Z</time>
      </trkpt>
      <trkpt lat="43.66489" lon="3.81783">
        <ele>146</ele>
        <time>2020-10-17T08:33:33.000Z</time>
      </trkpt>
      <trkpt lat="43.66491" lon="3.81787">
        <ele>146</ele>
        <time>2020-10-17T08:33:34.000Z</time>
      </trkpt>
      <trkpt lat="43.66494" lon="3.81791">
        <ele>146</ele>
        <time>2020-10-17T08:33:35.000Z</time>
      </trkpt>
      <trkpt lat="43.66497" lon="3.81794">
        <ele>146</ele>
        <time>2020-10-17T08:33:36.000Z</time>
      </trkpt>
      <trkpt lat="43.665" lon="3.81796">
        <ele>146</ele>
        <time>2020-10-17T08:33:37.000Z</time>
      </trkpt>
      <trkpt lat="43.66503" lon="3.81797">
        <ele>146</ele>
        <time>2020-10-17T08:33:38.000Z</time>
      </trkpt>
      <trkpt lat="43.66505" lon="3.81799">
        <ele>146</ele>
        <time>2020-10-17T08:33:39.000Z</time>
      </trkpt>
      <trkpt lat="43.66508" lon="3.818">
        <ele>146</ele>
        <time>2020-10-17T08:33:40.000Z</time>
      </trkpt>
      <trkpt lat="43.6651" lon="3.81801">
        <ele>146</ele>
        <time>2020-10-17T08:33:41.000Z</time>
      </trkpt>
      <trkpt lat="43.66512" lon="3.81803">
        <ele>146</ele>
        <time>2020-10-17T08:33:42.000Z</time>
      </trkpt>
      <trkpt lat="43.66514" lon="3.81804">
        <ele>145.94649774319</ele>
        <time>2020-10-17T08:33:43.000Z</time>
      </trkpt>
      <trkpt lat="43.66517" lon="3.81805">
        <ele>145.8492214786</ele>
        <time>2020-10-17T08:33:44.000Z</time>
      </trkpt>
      <trkpt lat="43.6652" lon="3.81807">
        <ele>145.75194521401</ele>
        <time>2020-10-17T08:33:45.000Z</time>
      </trkpt>
      <trkpt lat="43.66522" lon="3.81808">
        <ele>145.65466894942</ele>
        <time>2020-10-17T08:33:46.000Z</time>
      </trkpt>
      <trkpt lat="43.66525" lon="3.8181">
        <ele>145.55739268483</ele>
        <time>2020-10-17T08:33:47.000Z</time>
      </trkpt>
      <trkpt lat="43.66528" lon="3.81812">
        <ele>145.46011642023</ele>
        <time>2020-10-17T08:33:48.000Z</time>
      </trkpt>
      <trkpt lat="43.6653" lon="3.81814">
        <ele>145.36284015564</ele>
        <time>2020-10-17T08:33:49.000Z</time>
      </trkpt>
      <trkpt lat="43.66533" lon="3.81816">
        <ele>145.26556389105</ele>
        <time>2020-10-17T08:33:50.000Z</time>
      </trkpt>
      <trkpt lat="43.66535" lon="3.81819">
        <ele>145.16828762646</ele>
        <time>2020-10-17T08:33:51.000Z</time>
      </trkpt>
      <trkpt lat="43.66537" lon="3.81821">
        <ele>145.07101136187</ele>
        <time>2020-10-17T08:33:52.000Z</time>
      </trkpt>
      <trkpt lat="43.6654" lon="3.81824">
        <ele>144.972221893</ele>
        <time>2020-10-17T08:33:53.000Z</time>
      </trkpt>
      <trkpt lat="43.66542" lon="3.81826">
        <ele>144.86934123457</ele>
        <time>2020-10-17T08:33:54.000Z</time>
      </trkpt>
      <trkpt lat="43.66544" lon="3.81829">
        <ele>144.76646057613</ele>
        <time>2020-10-17T08:33:55.000Z</time>
      </trkpt>
      <trkpt lat="43.66546" lon="3.81831">
        <ele>144.66357991769</ele>
        <time>2020-10-17T08:33:56.000Z</time>
      </trkpt>
      <trkpt lat="43.66548" lon="3.81834">
        <ele>144.56069925926</ele>
        <time>2020-10-17T08:33:57.000Z</time>
      </trkpt>
      <trkpt lat="43.6655" lon="3.81836">
        <ele>144.45781860082</ele>
        <time>2020-10-17T08:33:58.000Z</time>
      </trkpt>
      <trkpt lat="43.66551" lon="3.81839">
        <ele>144.35493794239</ele>
        <time>2020-10-17T08:33:59.000Z</time>
      </trkpt>
      <trkpt lat="43.66553" lon="3.81841">
        <ele>144.25205728395</ele>
        <time>2020-10-17T08:34:00.000Z</time>
      </trkpt>
      <trkpt lat="43.66555" lon="3.81843">
        <ele>144.14917662551</ele>
        <time>2020-10-17T08:34:01.000Z</time>
      </trkpt>
      <trkpt lat="43.66557" lon="3.81845">
        <ele>144.04629596708</ele>
        <time>2020-10-17T08:34:02.000Z</time>
      </trkpt>
      <trkpt lat="43.66559" lon="3.81846">
        <ele>143.94499968</ele>
        <time>2020-10-17T08:34:03.000Z</time>
      </trkpt>
      <trkpt lat="43.66562" lon="3.81848">
        <ele>143.84499968</ele>
        <time>2020-10-17T08:34:04.000Z</time>
      </trkpt>
      <trkpt lat="43.66564" lon="3.81849">
        <ele>143.74499968</ele>
        <time>2020-10-17T08:34:05.000Z</time>
      </trkpt>
      <trkpt lat="43.66566" lon="3.8185">
        <ele>143.64499968</ele>
        <time>2020-10-17T08:34:06.000Z</time>
      </trkpt>
      <trkpt lat="43.66568" lon="3.81851">
        <ele>143.54499968</ele>
        <time>2020-10-17T08:34:07.000Z</time>
      </trkpt>
      <trkpt lat="43.6657" lon="3.81853">
        <ele>143.34499968</ele>
        <time>2020-10-17T08:34:09.000Z</time>
      </trkpt>
      <trkpt lat="43.66572" lon="3.81854">
        <ele>143.24499968</ele>
        <time>2020-10-17T08:34:10.000Z</time>
      </trkpt>
      <trkpt lat="43.66574" lon="3.81855">
        <ele>143.14499968</ele>
        <time>2020-10-17T08:34:11.000Z</time>
      </trkpt>
      <trkpt lat="43.66577" lon="3.81858">
        <ele>143.04499968</ele>
        <time>2020-10-17T08:34:12.000Z</time>
      </trkpt>
      <trkpt lat="43.66579" lon="3.8186">
        <ele>143</ele>
        <time>2020-10-17T08:34:13.000Z</time>
      </trkpt>
      <trkpt lat="43.66582" lon="3.81862">
        <ele>143</ele>
        <time>2020-10-17T08:34:14.000Z</time>
      </trkpt>
      <trkpt lat="43.66585" lon="3.81865">
        <ele>143</ele>
        <time>2020-10-17T08:34:15.000Z</time>
      </trkpt>
      <trkpt lat="43.66588" lon="3.81868">
        <ele>143</ele>
        <time>2020-10-17T08:34:16.000Z</time>
      </trkpt>
      <trkpt lat="43.66592" lon="3.81871">
        <ele>143</ele>
        <time>2020-10-17T08:34:17.000Z</time>
      </trkpt>
      <trkpt lat="43.66595" lon="3.81873">
        <ele>143</ele>
        <time>2020-10-17T08:34:18.000Z</time>
      </trkpt>
      <trkpt lat="43.66598" lon="3.81876">
        <ele>143</ele>
        <time>2020-10-17T08:34:19.000Z</time>
      </trkpt>
      <trkpt lat="43.66601" lon="3.81879">
        <ele>143</ele>
        <time>2020-10-17T08:34:20.000Z</time>
      </trkpt>
      <trkpt lat="43.66604" lon="3.81882">
        <ele>143</ele>
        <time>2020-10-17T08:34:21.000Z</time>
      </trkpt>
      <trkpt lat="43.66607" lon="3.81885">
        <ele>143</ele>
        <time>2020-10-17T08:34:22.000Z</time>
      </trkpt>
      <trkpt lat="43.66611" lon="3.81888">
        <ele>143</ele>
        <time>2020-10-17T08:34:23.000Z</time>
      </trkpt>
      <trkpt lat="43.66614" lon="3.81891">
        <ele>143</ele>
        <time>2020-10-17T08:34:24.000Z</time>
      </trkpt>
      <trkpt lat="43.66618" lon="3.81895">
        <ele>143</ele>
        <time>2020-10-17T08:34:25.000Z</time>
      </trkpt>
      <trkpt lat="43.66621" lon="3.81897">
        <ele>143</ele>
        <time>2020-10-17T08:34:26.000Z</time>
      </trkpt>
      <trkpt lat="43.66625" lon="3.819">
        <ele>143</ele>
        <time>2020-10-17T08:34:27.000Z</time>
      </trkpt>
      <trkpt lat="43.66628" lon="3.81902">
        <ele>143</ele>
        <time>2020-10-17T08:34:28.000Z</time>
      </trkpt>
      <trkpt lat="43.66632" lon="3.81904">
        <ele>143</ele>
        <time>2020-10-17T08:34:29.000Z</time>
      </trkpt>
      <trkpt lat="43.66635" lon="3.81906">
        <ele>143</ele>
        <time>2020-10-17T08:34:30.000Z</time>
      </trkpt>
      <trkpt lat="43.66639" lon="3.81908">
        <ele>143</ele>
        <time>2020-10-17T08:34:31.000Z</time>
      </trkpt>
      <trkpt lat="43.66642" lon="3.8191">
        <ele>143</ele>
        <time>2020-10-17T08:34:32.000Z</time>
      </trkpt>
      <trkpt lat="43.66645" lon="3.81912">
        <ele>142.94628875</ele>
        <time>2020-10-17T08:34:33.000Z</time>
      </trkpt>
      <trkpt lat="43.66649" lon="3.81914">
        <ele>142.8486325</ele>
        <time>2020-10-17T08:34:34.000Z</time>
      </trkpt>
      <trkpt lat="43.66652" lon="3.81916">
        <ele>142.75097625</ele>
        <time>2020-10-17T08:34:35.000Z</time>
      </trkpt>
      <trkpt lat="43.66655" lon="3.81919">
        <ele>142.65332</ele>
        <time>2020-10-17T08:34:36.000Z</time>
      </trkpt>
      <trkpt lat="43.66658" lon="3.81922">
        <ele>142.55566375</ele>
        <time>2020-10-17T08:34:37.000Z</time>
      </trkpt>
      <trkpt lat="43.66662" lon="3.81925">
        <ele>142.4580075</ele>
        <time>2020-10-17T08:34:38.000Z</time>
      </trkpt>
      <trkpt lat="43.66665" lon="3.81928">
        <ele>142.36035125</ele>
        <time>2020-10-17T08:34:39.000Z</time>
      </trkpt>
      <trkpt lat="43.66669" lon="3.81931">
        <ele>142.262695</ele>
        <time>2020-10-17T08:34:40.000Z</time>
      </trkpt>
      <trkpt lat="43.66672" lon="3.81934">
        <ele>142.16503875</ele>
        <time>2020-10-17T08:34:41.000Z</time>
      </trkpt>
      <trkpt lat="43.66676" lon="3.81937">
        <ele>142.0673825</ele>
        <time>2020-10-17T08:34:42.000Z</time>
      </trkpt>
      <trkpt lat="43.66679" lon="3.8194">
        <ele>141.96823737705</ele>
        <time>2020-10-17T08:34:43.000Z</time>
      </trkpt>
      <trkpt lat="43.66682" lon="3.81943">
        <ele>141.86577836066</ele>
        <time>2020-10-17T08:34:44.000Z</time>
      </trkpt>
      <trkpt lat="43.66685" lon="3.81947">
        <ele>141.76331934426</ele>
        <time>2020-10-17T08:34:45.000Z</time>
      </trkpt>
      <trkpt lat="43.66689" lon="3.8195">
        <ele>141.66086032787</ele>
        <time>2020-10-17T08:34:46.000Z</time>
      </trkpt>
      <trkpt lat="43.66693" lon="3.81952">
        <ele>141.55840131147</ele>
        <time>2020-10-17T08:34:47.000Z</time>
      </trkpt>
      <trkpt lat="43.66696" lon="3.81954">
        <ele>141.45594229508</ele>
        <time>2020-10-17T08:34:48.000Z</time>
      </trkpt>
      <trkpt lat="43.667" lon="3.81956">
        <ele>141.35348327869</ele>
        <time>2020-10-17T08:34:49.000Z</time>
      </trkpt>
      <trkpt lat="43.66704" lon="3.81957">
        <ele>141.2510242623</ele>
        <time>2020-10-17T08:34:50.000Z</time>
      </trkpt>
      <trkpt lat="43.66708" lon="3.81958">
        <ele>141.1485652459</ele>
        <time>2020-10-17T08:34:51.000Z</time>
      </trkpt>
      <trkpt lat="43.66712" lon="3.81959">
        <ele>141.04610622951</ele>
        <time>2020-10-17T08:34:52.000Z</time>
      </trkpt>
      <trkpt lat="43.66716" lon="3.8196">
        <ele>140.94499968</ele>
        <time>2020-10-17T08:34:53.000Z</time>
      </trkpt>
      <trkpt lat="43.6672" lon="3.81962">
        <ele>140.84499968</ele>
        <time>2020-10-17T08:34:54.000Z</time>
      </trkpt>
      <trkpt lat="43.66724" lon="3.81963">
        <ele>140.74499968</ele>
        <time>2020-10-17T08:34:55.000Z</time>
      </trkpt>
      <trkpt lat="43.66729" lon="3.81964">
        <ele>140.64499968</ele>
        <time>2020-10-17T08:34:56.000Z</time>
      </trkpt>
      <trkpt lat="43.66733" lon="3.81966">
        <ele>140.54499968</ele>
        <time>2020-10-17T08:34:57.000Z</time>
      </trkpt>
      <trkpt lat="43.66737" lon="3.81968">
        <ele>140.44499968</ele>
        <time>2020-10-17T08:34:58.000Z</time>
      </trkpt>
      <trkpt lat="43.66741" lon="3.8197">
        <ele>140.34499968</ele>
        <time>2020-10-17T08:34:59.000Z</time>
      </trkpt>
      <trkpt lat="43.66743" lon="3.81972">
        <ele>140.24499968</ele>
        <time>2020-10-17T08:35:00.000Z</time>
      </trkpt>
      <trkpt lat="43.66746" lon="3.81975">
        <ele>140.14499968</ele>
        <time>2020-10-17T08:35:01.000Z</time>
      </trkpt>
      <trkpt lat="43.66748" lon="3.81977">
        <ele>140.04499968</ele>
        <time>2020-10-17T08:35:02.000Z</time>
      </trkpt>
      <trkpt lat="43.6675" lon="3.8198">
        <ele>140</ele>
        <time>2020-10-17T08:35:03.000Z</time>
      </trkpt>
      <trkpt lat="43.66752" lon="3.81982">
        <ele>140</ele>
        <time>2020-10-17T08:35:04.000Z</time>
      </trkpt>
      <trkpt lat="43.66754" lon="3.81984">
        <ele>140</ele>
        <time>2020-10-17T08:35:05.000Z</time>
      </trkpt>
      <trkpt lat="43.66756" lon="3.81987">
        <ele>140</ele>
        <time>2020-10-17T08:35:06.000Z</time>
      </trkpt>
      <trkpt lat="43.66759" lon="3.81989">
        <ele>140</ele>
        <time>2020-10-17T08:35:07.000Z</time>
      </trkpt>
      <trkpt lat="43.66761" lon="3.81991">
        <ele>140</ele>
        <time>2020-10-17T08:35:08.000Z</time>
      </trkpt>
      <trkpt lat="43.66763" lon="3.81994">
        <ele>140</ele>
        <time>2020-10-17T08:35:09.000Z</time>
      </trkpt>
      <trkpt lat="43.66765" lon="3.81996">
        <ele>140</ele>
        <time>2020-10-17T08:35:10.000Z</time>
      </trkpt>
      <trkpt lat="43.66767" lon="3.81999">
        <ele>140</ele>
        <time>2020-10-17T08:35:11.000Z</time>
      </trkpt>
      <trkpt lat="43.66769" lon="3.82002">
        <ele>140</ele>
        <time>2020-10-17T08:35:12.000Z</time>
      </trkpt>
      <trkpt lat="43.66771" lon="3.82006">
        <ele>139.88999936</ele>
        <time>2020-10-17T08:35:13.000Z</time>
      </trkpt>
      <trkpt lat="43.66772" lon="3.82011">
        <ele>139.68999936</ele>
        <time>2020-10-17T08:35:14.000Z</time>
      </trkpt>
      <trkpt lat="43.66773" lon="3.82017">
        <ele>139.48999936</ele>
        <time>2020-10-17T08:35:15.000Z</time>
      </trkpt>
      <trkpt lat="43.66775" lon="3.82023">
        <ele>139.28999936</ele>
        <time>2020-10-17T08:35:16.000Z</time>
      </trkpt>
      <trkpt lat="43.66777" lon="3.82029">
        <ele>139.08999936</ele>
        <time>2020-10-17T08:35:17.000Z</time>
      </trkpt>
      <trkpt lat="43.66779" lon="3.82037">
        <ele>138.88999936</ele>
        <time>2020-10-17T08:35:18.000Z</time>
      </trkpt>
      <trkpt lat="43.66782" lon="3.82045">
        <ele>138.68999936</ele>
        <time>2020-10-17T08:35:19.000Z</time>
      </trkpt>
      <trkpt lat="43.66785" lon="3.82053">
        <ele>138.48999936</ele>
        <time>2020-10-17T08:35:20.000Z</time>
      </trkpt>
      <trkpt lat="43.66787" lon="3.82062">
        <ele>138.28999936</ele>
        <time>2020-10-17T08:35:21.000Z</time>
      </trkpt>
      <trkpt lat="43.66788" lon="3.82072">
        <ele>138.08999936</ele>
        <time>2020-10-17T08:35:22.000Z</time>
      </trkpt>
      <trkpt lat="43.6679" lon="3.82081">
        <ele>137.77999872</ele>
        <time>2020-10-17T08:35:23.000Z</time>
      </trkpt>
      <trkpt lat="43.66793" lon="3.82091">
        <ele>137.37999872</ele>
        <time>2020-10-17T08:35:24.000Z</time>
      </trkpt>
      <trkpt lat="43.66797" lon="3.82099">
        <ele>136.97999872</ele>
        <time>2020-10-17T08:35:25.000Z</time>
      </trkpt>
      <trkpt lat="43.66802" lon="3.82107">
        <ele>136.57999872</ele>
        <time>2020-10-17T08:35:26.000Z</time>
      </trkpt>
      <trkpt lat="43.66807" lon="3.82114">
        <ele>136.17999872</ele>
        <time>2020-10-17T08:35:27.000Z</time>
      </trkpt>
      <trkpt lat="43.66812" lon="3.82121">
        <ele>135.77999872</ele>
        <time>2020-10-17T08:35:28.000Z</time>
      </trkpt>
      <trkpt lat="43.66818" lon="3.82128">
        <ele>135.37999872</ele>
        <time>2020-10-17T08:35:29.000Z</time>
      </trkpt>
      <trkpt lat="43.66823" lon="3.82135">
        <ele>134.97999872</ele>
        <time>2020-10-17T08:35:30.000Z</time>
      </trkpt>
      <trkpt lat="43.66828" lon="3.82143">
        <ele>134.57999872</ele>
        <time>2020-10-17T08:35:31.000Z</time>
      </trkpt>
      <trkpt lat="43.66832" lon="3.82152">
        <ele>134.17999872</ele>
        <time>2020-10-17T08:35:32.000Z</time>
      </trkpt>
      <trkpt lat="43.66835" lon="3.8216">
        <ele>133.88999936</ele>
        <time>2020-10-17T08:35:33.000Z</time>
      </trkpt>
      <trkpt lat="43.66838" lon="3.82169">
        <ele>133.68999936</ele>
        <time>2020-10-17T08:35:34.000Z</time>
      </trkpt>
      <trkpt lat="43.66839" lon="3.82177">
        <ele>133.48999936</ele>
        <time>2020-10-17T08:35:35.000Z</time>
      </trkpt>
      <trkpt lat="43.66839" lon="3.82184">
        <ele>133.28999936</ele>
        <time>2020-10-17T08:35:36.000Z</time>
      </trkpt>
      <trkpt lat="43.66838" lon="3.82191">
        <ele>133.08999936</ele>
        <time>2020-10-17T08:35:37.000Z</time>
      </trkpt>
      <trkpt lat="43.66835" lon="3.82198">
        <ele>132.88999936</ele>
        <time>2020-10-17T08:35:38.000Z</time>
      </trkpt>
      <trkpt lat="43.66832" lon="3.82203">
        <ele>132.68999936</ele>
        <time>2020-10-17T08:35:39.000Z</time>
      </trkpt>
      <trkpt lat="43.66828" lon="3.82208">
        <ele>132.48999936</ele>
        <time>2020-10-17T08:35:40.000Z</time>
      </trkpt>
      <trkpt lat="43.66825" lon="3.82211">
        <ele>132.28999936</ele>
        <time>2020-10-17T08:35:41.000Z</time>
      </trkpt>
      <trkpt lat="43.66821" lon="3.82214">
        <ele>132.08999936</ele>
        <time>2020-10-17T08:35:42.000Z</time>
      </trkpt>
      <trkpt lat="43.66818" lon="3.82216">
        <ele>132</ele>
        <time>2020-10-17T08:35:43.000Z</time>
      </trkpt>
      <trkpt lat="43.66815" lon="3.82218">
        <ele>132</ele>
        <time>2020-10-17T08:35:44.000Z</time>
      </trkpt>
      <trkpt lat="43.66812" lon="3.82221">
        <ele>132</ele>
        <time>2020-10-17T08:35:45.000Z</time>
      </trkpt>
      <trkpt lat="43.66809" lon="3.82224">
        <ele>132</ele>
        <time>2020-10-17T08:35:46.000Z</time>
      </trkpt>
      <trkpt lat="43.66807" lon="3.82226">
        <ele>132</ele>
        <time>2020-10-17T08:35:47.000Z</time>
      </trkpt>
      <trkpt lat="43.66804" lon="3.82228">
        <ele>132</ele>
        <time>2020-10-17T08:35:48.000Z</time>
      </trkpt>
      <trkpt lat="43.66802" lon="3.82229">
        <ele>132</ele>
        <time>2020-10-17T08:35:49.000Z</time>
      </trkpt>
      <trkpt lat="43.66801" lon="3.82231">
        <ele>132</ele>
        <time>2020-10-17T08:35:50.000Z</time>
      </trkpt>
      <trkpt lat="43.66799" lon="3.82233">
        <ele>132</ele>
        <time>2020-10-17T08:35:51.000Z</time>
      </trkpt>
      <trkpt lat="43.66796" lon="3.82235">
        <ele>132.11000064</ele>
        <time>2020-10-17T08:35:53.000Z</time>
      </trkpt>
      <trkpt lat="43.66794" lon="3.82238">
        <ele>132.51000064</ele>
        <time>2020-10-17T08:35:55.000Z</time>
      </trkpt>
      <trkpt lat="43.66791" lon="3.82241">
        <ele>132.91000064</ele>
        <time>2020-10-17T08:35:57.000Z</time>
      </trkpt>
      <trkpt lat="43.66789" lon="3.82243">
        <ele>133.11000064</ele>
        <time>2020-10-17T08:35:58.000Z</time>
      </trkpt>
      <trkpt lat="43.66788" lon="3.82245">
        <ele>133.31000064</ele>
        <time>2020-10-17T08:35:59.000Z</time>
      </trkpt>
      <trkpt lat="43.66787" lon="3.82246">
        <ele>133.51000064</ele>
        <time>2020-10-17T08:36:00.000Z</time>
      </trkpt>
      <trkpt lat="43.66784" lon="3.82249">
        <ele>133.91000064</ele>
        <time>2020-10-17T08:36:02.000Z</time>
      </trkpt>
      <trkpt lat="43.66782" lon="3.82253">
        <ele>134.30097130813</ele>
        <time>2020-10-17T08:36:04.000Z</time>
      </trkpt>
      <trkpt lat="43.66779" lon="3.82256">
        <ele>134.68932058139</ele>
        <time>2020-10-17T08:36:06.000Z</time>
      </trkpt>
      <trkpt lat="43.66777" lon="3.82259">
        <ele>135.07766985465</ele>
        <time>2020-10-17T08:36:08.000Z</time>
      </trkpt>
      <trkpt lat="43.66775" lon="3.82261">
        <ele>135.27184449128</ele>
        <time>2020-10-17T08:36:09.000Z</time>
      </trkpt>
      <trkpt lat="43.66774" lon="3.82263">
        <ele>135.46601912791</ele>
        <time>2020-10-17T08:36:10.000Z</time>
      </trkpt>
      <trkpt lat="43.66773" lon="3.82265">
        <ele>135.66019376454</ele>
        <time>2020-10-17T08:36:11.000Z</time>
      </trkpt>
      <trkpt lat="43.66771" lon="3.82266">
        <ele>135.85436840117</ele>
        <time>2020-10-17T08:36:12.000Z</time>
      </trkpt>
      <trkpt lat="43.6677" lon="3.82268">
        <ele>136.02577288298</ele>
        <time>2020-10-17T08:36:13.000Z</time>
      </trkpt>
      <trkpt lat="43.66768" lon="3.82269">
        <ele>136.12886573451</ele>
        <time>2020-10-17T08:36:14.000Z</time>
      </trkpt>
      <trkpt lat="43.66767" lon="3.82271">
        <ele>136.23195858604</ele>
        <time>2020-10-17T08:36:15.000Z</time>
      </trkpt>
      <trkpt lat="43.66765" lon="3.82272">
        <ele>136.33505143756</ele>
        <time>2020-10-17T08:36:16.000Z</time>
      </trkpt>
      <trkpt lat="43.66763" lon="3.82273">
        <ele>136.43814428908</ele>
        <time>2020-10-17T08:36:17.000Z</time>
      </trkpt>
      <trkpt lat="43.66762" lon="3.82274">
        <ele>136.54123714061</ele>
        <time>2020-10-17T08:36:18.000Z</time>
      </trkpt>
      <trkpt lat="43.6676" lon="3.82276">
        <ele>136.64432999213</ele>
        <time>2020-10-17T08:36:19.000Z</time>
      </trkpt>
      <trkpt lat="43.66758" lon="3.82277">
        <ele>136.74742284366</ele>
        <time>2020-10-17T08:36:20.000Z</time>
      </trkpt>
      <trkpt lat="43.66756" lon="3.82278">
        <ele>136.85051569519</ele>
        <time>2020-10-17T08:36:21.000Z</time>
      </trkpt>
      <trkpt lat="43.66754" lon="3.82279">
        <ele>136.95360854671</ele>
        <time>2020-10-17T08:36:22.000Z</time>
      </trkpt>
      <trkpt lat="43.66751" lon="3.8228">
        <ele>137.15500032</ele>
        <time>2020-10-17T08:36:24.000Z</time>
      </trkpt>
      <trkpt lat="43.66748" lon="3.82283">
        <ele>137.35500032</ele>
        <time>2020-10-17T08:36:26.000Z</time>
      </trkpt>
      <trkpt lat="43.66746" lon="3.82284">
        <ele>137.45500032</ele>
        <time>2020-10-17T08:36:27.000Z</time>
      </trkpt>
      <trkpt lat="43.66745" lon="3.82285">
        <ele>137.55500032</ele>
        <time>2020-10-17T08:36:28.000Z</time>
      </trkpt>
      <trkpt lat="43.66743" lon="3.82287">
        <ele>137.65500032</ele>
        <time>2020-10-17T08:36:29.000Z</time>
      </trkpt>
      <trkpt lat="43.66741" lon="3.82288">
        <ele>137.75500032</ele>
        <time>2020-10-17T08:36:30.000Z</time>
      </trkpt>
      <trkpt lat="43.66738" lon="3.8229">
        <ele>137.95500032</ele>
        <time>2020-10-17T08:36:32.000Z</time>
      </trkpt>
      <trkpt lat="43.66735" lon="3.82292">
        <ele>138.15500032</ele>
        <time>2020-10-17T08:36:34.000Z</time>
      </trkpt>
      <trkpt lat="43.66732" lon="3.82295">
        <ele>138.35500032</ele>
        <time>2020-10-17T08:36:36.000Z</time>
      </trkpt>
      <trkpt lat="43.66731" lon="3.82297">
        <ele>138.45500032</ele>
        <time>2020-10-17T08:36:37.000Z</time>
      </trkpt>
      <trkpt lat="43.66729" lon="3.82298">
        <ele>138.55500032</ele>
        <time>2020-10-17T08:36:38.000Z</time>
      </trkpt>
      <trkpt lat="43.66728" lon="3.823">
        <ele>138.65500032</ele>
        <time>2020-10-17T08:36:39.000Z</time>
      </trkpt>
      <trkpt lat="43.66726" lon="3.82305">
        <ele>138.85500032</ele>
        <time>2020-10-17T08:36:41.000Z</time>
      </trkpt>
      <trkpt lat="43.66726" lon="3.82307">
        <ele>138.95500032</ele>
        <time>2020-10-17T08:36:42.000Z</time>
      </trkpt>
      <trkpt lat="43.66725" lon="3.82309">
        <ele>139.11000064</ele>
        <time>2020-10-17T08:36:43.000Z</time>
      </trkpt>
      <trkpt lat="43.66724" lon="3.82312">
        <ele>139.31000064</ele>
        <time>2020-10-17T08:36:44.000Z</time>
      </trkpt>
      <trkpt lat="43.66723" lon="3.82314">
        <ele>139.51000064</ele>
        <time>2020-10-17T08:36:45.000Z</time>
      </trkpt>
      <trkpt lat="43.66722" lon="3.82317">
        <ele>139.71000064</ele>
        <time>2020-10-17T08:36:46.000Z</time>
      </trkpt>
      <trkpt lat="43.66722" lon="3.82319">
        <ele>139.91000064</ele>
        <time>2020-10-17T08:36:47.000Z</time>
      </trkpt>
      <trkpt lat="43.6672" lon="3.82321">
        <ele>140.11000064</ele>
        <time>2020-10-17T08:36:48.000Z</time>
      </trkpt>
      <trkpt lat="43.66719" lon="3.82324">
        <ele>140.31000064</ele>
        <time>2020-10-17T08:36:49.000Z</time>
      </trkpt>
      <trkpt lat="43.66718" lon="3.82326">
        <ele>140.51000064</ele>
        <time>2020-10-17T08:36:50.000Z</time>
      </trkpt>
      <trkpt lat="43.66716" lon="3.82327">
        <ele>140.71000064</ele>
        <time>2020-10-17T08:36:51.000Z</time>
      </trkpt>
      <trkpt lat="43.66714" lon="3.82329">
        <ele>140.91000064</ele>
        <time>2020-10-17T08:36:52.000Z</time>
      </trkpt>
      <trkpt lat="43.66712" lon="3.8233">
        <ele>141.05350225681</ele>
        <time>2020-10-17T08:36:53.000Z</time>
      </trkpt>
      <trkpt lat="43.6671" lon="3.82332">
        <ele>141.1507785214</ele>
        <time>2020-10-17T08:36:54.000Z</time>
      </trkpt>
      <trkpt lat="43.66708" lon="3.82332">
        <ele>141.24805478599</ele>
        <time>2020-10-17T08:36:55.000Z</time>
      </trkpt>
      <trkpt lat="43.66706" lon="3.82331">
        <ele>141.34533105058</ele>
        <time>2020-10-17T08:36:56.000Z</time>
      </trkpt>
      <trkpt lat="43.66704" lon="3.82331">
        <ele>141.44260731517</ele>
        <time>2020-10-17T08:36:57.000Z</time>
      </trkpt>
      <trkpt lat="43.66702" lon="3.82329">
        <ele>141.53988357977</ele>
        <time>2020-10-17T08:36:58.000Z</time>
      </trkpt>
      <trkpt lat="43.667" lon="3.82328">
        <ele>141.63715984436</ele>
        <time>2020-10-17T08:36:59.000Z</time>
      </trkpt>
      <trkpt lat="43.66698" lon="3.82327">
        <ele>141.73443610895</ele>
        <time>2020-10-17T08:37:00.000Z</time>
      </trkpt>
      <trkpt lat="43.66696" lon="3.82325">
        <ele>141.83171237354</ele>
        <time>2020-10-17T08:37:01.000Z</time>
      </trkpt>
      <trkpt lat="43.66694" lon="3.82325">
        <ele>141.92898863813</ele>
        <time>2020-10-17T08:37:02.000Z</time>
      </trkpt>
      <trkpt lat="43.66692" lon="3.82324">
        <ele>142.0273006004</ele>
        <time>2020-10-17T08:37:03.000Z</time>
      </trkpt>
      <trkpt lat="43.6669" lon="3.82324">
        <ele>142.12841273683</ele>
        <time>2020-10-17T08:37:04.000Z</time>
      </trkpt>
      <trkpt lat="43.66688" lon="3.82324">
        <ele>142.22952487326</ele>
        <time>2020-10-17T08:37:05.000Z</time>
      </trkpt>
      <trkpt lat="43.66686" lon="3.82324">
        <ele>142.3306370097</ele>
        <time>2020-10-17T08:37:06.000Z</time>
      </trkpt>
      <trkpt lat="43.66684" lon="3.82324">
        <ele>142.43174914613</ele>
        <time>2020-10-17T08:37:07.000Z</time>
      </trkpt>
      <trkpt lat="43.66682" lon="3.82324">
        <ele>142.53286128256</ele>
        <time>2020-10-17T08:37:08.000Z</time>
      </trkpt>
      <trkpt lat="43.6668" lon="3.82324">
        <ele>142.63397341899</ele>
        <time>2020-10-17T08:37:09.000Z</time>
      </trkpt>
      <trkpt lat="43.66678" lon="3.82324">
        <ele>142.73508555543</ele>
        <time>2020-10-17T08:37:10.000Z</time>
      </trkpt>
      <trkpt lat="43.66676" lon="3.82324">
        <ele>142.83619769186</ele>
        <time>2020-10-17T08:37:11.000Z</time>
      </trkpt>
      <trkpt lat="43.66674" lon="3.82325">
        <ele>142.93730982829</ele>
        <time>2020-10-17T08:37:12.000Z</time>
      </trkpt>
      <trkpt lat="43.66672" lon="3.82325">
        <ele>143.03865655861</ele>
        <time>2020-10-17T08:37:13.000Z</time>
      </trkpt>
      <trkpt lat="43.66669" lon="3.82325">
        <ele>143.14038605775</ele>
        <time>2020-10-17T08:37:14.000Z</time>
      </trkpt>
      <trkpt lat="43.66667" lon="3.82325">
        <ele>143.2421155569</ele>
        <time>2020-10-17T08:37:15.000Z</time>
      </trkpt>
      <trkpt lat="43.66665" lon="3.82326">
        <ele>143.34384505604</ele>
        <time>2020-10-17T08:37:16.000Z</time>
      </trkpt>
      <trkpt lat="43.66663" lon="3.82326">
        <ele>143.44557455519</ele>
        <time>2020-10-17T08:37:17.000Z</time>
      </trkpt>
      <trkpt lat="43.66661" lon="3.82327">
        <ele>143.54730405434</ele>
        <time>2020-10-17T08:37:18.000Z</time>
      </trkpt>
      <trkpt lat="43.66659" lon="3.82327">
        <ele>143.64903355348</ele>
        <time>2020-10-17T08:37:19.000Z</time>
      </trkpt>
      <trkpt lat="43.66657" lon="3.82328">
        <ele>143.75076305263</ele>
        <time>2020-10-17T08:37:20.000Z</time>
      </trkpt>
      <trkpt lat="43.66655" lon="3.82329">
        <ele>143.85249255177</ele>
        <time>2020-10-17T08:37:21.000Z</time>
      </trkpt>
      <trkpt lat="43.66653" lon="3.82331">
        <ele>143.95422205092</ele>
        <time>2020-10-17T08:37:22.000Z</time>
      </trkpt>
      <trkpt lat="43.66651" lon="3.82332">
        <ele>144.05500032</ele>
        <time>2020-10-17T08:37:23.000Z</time>
      </trkpt>
      <trkpt lat="43.66649" lon="3.82333">
        <ele>144.15500032</ele>
        <time>2020-10-17T08:37:24.000Z</time>
      </trkpt>
      <trkpt lat="43.66647" lon="3.82335">
        <ele>144.25500032</ele>
        <time>2020-10-17T08:37:25.000Z</time>
      </trkpt>
      <trkpt lat="43.66644" lon="3.82336">
        <ele>144.35500032</ele>
        <time>2020-10-17T08:37:26.000Z</time>
      </trkpt>
      <trkpt lat="43.66642" lon="3.82337">
        <ele>144.45500032</ele>
        <time>2020-10-17T08:37:27.000Z</time>
      </trkpt>
      <trkpt lat="43.6664" lon="3.82337">
        <ele>144.55500032</ele>
        <time>2020-10-17T08:37:28.000Z</time>
      </trkpt>
      <trkpt lat="43.66637" lon="3.82337">
        <ele>144.65500032</ele>
        <time>2020-10-17T08:37:29.000Z</time>
      </trkpt>
      <trkpt lat="43.66635" lon="3.82337">
        <ele>144.75500032</ele>
        <time>2020-10-17T08:37:30.000Z</time>
      </trkpt>
      <trkpt lat="43.66632" lon="3.82337">
        <ele>144.85500032</ele>
        <time>2020-10-17T08:37:31.000Z</time>
      </trkpt>
      <trkpt lat="43.6663" lon="3.82337">
        <ele>144.95500032</ele>
        <time>2020-10-17T08:37:32.000Z</time>
      </trkpt>
      <trkpt lat="43.66628" lon="3.82336">
        <ele>145</ele>
        <time>2020-10-17T08:37:33.000Z</time>
      </trkpt>
      <trkpt lat="43.66626" lon="3.82336">
        <ele>145</ele>
        <time>2020-10-17T08:37:34.000Z</time>
      </trkpt>
      <trkpt lat="43.66624" lon="3.82336">
        <ele>145</ele>
        <time>2020-10-17T08:37:35.000Z</time>
      </trkpt>
      <trkpt lat="43.66622" lon="3.82336">
        <ele>145</ele>
        <time>2020-10-17T08:37:36.000Z</time>
      </trkpt>
      <trkpt lat="43.66619" lon="3.82336">
        <ele>145</ele>
        <time>2020-10-17T08:37:38.000Z</time>
      </trkpt>
      <trkpt lat="43.66616" lon="3.82337">
        <ele>145</ele>
        <time>2020-10-17T08:37:40.000Z</time>
      </trkpt>
      <trkpt lat="43.66613" lon="3.82339">
        <ele>145</ele>
        <time>2020-10-17T08:37:42.000Z</time>
      </trkpt>
      <trkpt lat="43.66611" lon="3.8234">
        <ele>145.15500032</ele>
        <time>2020-10-17T08:37:44.000Z</time>
      </trkpt>
      <trkpt lat="43.66608" lon="3.8234">
        <ele>145.35500032</ele>
        <time>2020-10-17T08:37:46.000Z</time>
      </trkpt>
      <trkpt lat="43.66607" lon="3.82337">
        <ele>145.55500032</ele>
        <time>2020-10-17T08:37:48.000Z</time>
      </trkpt>
      <trkpt lat="43.66606" lon="3.82333">
        <ele>145.75500032</ele>
        <time>2020-10-17T08:37:50.000Z</time>
      </trkpt>
      <trkpt lat="43.66607" lon="3.8233">
        <ele>145.95500032</ele>
        <time>2020-10-17T08:37:52.000Z</time>
      </trkpt>
      <trkpt lat="43.6661" lon="3.8233">
        <ele>146</ele>
        <time>2020-10-17T08:37:54.000Z</time>
      </trkpt>
      <trkpt lat="43.66612" lon="3.82332">
        <ele>146</ele>
        <time>2020-10-17T08:37:56.000Z</time>
      </trkpt>
      <trkpt lat="43.66613" lon="3.82335">
        <ele>146</ele>
        <time>2020-10-17T08:37:58.000Z</time>
      </trkpt>
      <trkpt lat="43.66613" lon="3.82339">
        <ele>146</ele>
        <time>2020-10-17T08:38:00.000Z</time>
      </trkpt>
      <trkpt lat="43.66611" lon="3.82342">
        <ele>146</ele>
        <time>2020-10-17T08:38:02.000Z</time>
      </trkpt>
      <trkpt lat="43.66609" lon="3.82342">
        <ele>146</ele>
        <time>2020-10-17T08:38:04.000Z</time>
      </trkpt>
      <trkpt lat="43.66607" lon="3.82344">
        <ele>146</ele>
        <time>2020-10-17T08:38:06.000Z</time>
      </trkpt>
      <trkpt lat="43.66609" lon="3.82347">
        <ele>146</ele>
        <time>2020-10-17T08:38:09.000Z</time>
      </trkpt>
      <trkpt lat="43.66609" lon="3.82352">
        <ele>146</ele>
        <time>2020-10-17T08:38:11.000Z</time>
      </trkpt>
      <trkpt lat="43.66609" lon="3.82355">
        <ele>146.15500032</ele>
        <time>2020-10-17T08:38:14.000Z</time>
      </trkpt>
      <trkpt lat="43.66608" lon="3.82357">
        <ele>146.35500032</ele>
        <time>2020-10-17T08:38:16.000Z</time>
      </trkpt>
      <trkpt lat="43.66607" lon="3.8236">
        <ele>146.55500032</ele>
        <time>2020-10-17T08:38:18.000Z</time>
      </trkpt>
      <trkpt lat="43.66607" lon="3.82363">
        <ele>146.75500032</ele>
        <time>2020-10-17T08:38:20.000Z</time>
      </trkpt>
      <trkpt lat="43.66606" lon="3.82364">
        <ele>146.00098477158</ele>
        <time>2020-10-17T08:38:27.000Z</time>
      </trkpt>
      <trkpt lat="43.66607" lon="3.82371">
        <ele>146.9966628547</ele>
        <time>2020-10-17T08:41:29.000Z</time>
      </trkpt>
      <trkpt lat="43.66607" lon="3.82373">
        <ele>146.99160545364</ele>
        <time>2020-10-17T08:41:30.000Z</time>
      </trkpt>
      <trkpt lat="43.66607" lon="3.82377">
        <ele>146.7817417945</ele>
        <time>2020-10-17T08:41:32.000Z</time>
      </trkpt>
      <trkpt lat="43.66607" lon="3.82382">
        <ele>146.57187813536</ele>
        <time>2020-10-17T08:41:34.000Z</time>
      </trkpt>
      <trkpt lat="43.66607" lon="3.82386">
        <ele>146.36201447623</ele>
        <time>2020-10-17T08:41:36.000Z</time>
      </trkpt>
      <trkpt lat="43.66608" lon="3.82391">
        <ele>146.15215081709</ele>
        <time>2020-10-17T08:41:38.000Z</time>
      </trkpt>
      <trkpt lat="43.66609" lon="3.82395">
        <ele>146</ele>
        <time>2020-10-17T08:41:40.000Z</time>
      </trkpt>
      <trkpt lat="43.66609" lon="3.824">
        <ele>146</ele>
        <time>2020-10-17T08:41:42.000Z</time>
      </trkpt>
      <trkpt lat="43.6661" lon="3.82404">
        <ele>146</ele>
        <time>2020-10-17T08:41:44.000Z</time>
      </trkpt>
      <trkpt lat="43.66611" lon="3.82408">
        <ele>146</ele>
        <time>2020-10-17T08:41:46.000Z</time>
      </trkpt>
      <trkpt lat="43.66612" lon="3.82411">
        <ele>146</ele>
        <time>2020-10-17T08:41:47.000Z</time>
      </trkpt>
      <trkpt lat="43.66612" lon="3.82414">
        <ele>146</ele>
        <time>2020-10-17T08:41:48.000Z</time>
      </trkpt>
      <trkpt lat="43.66613" lon="3.82417">
        <ele>146</ele>
        <time>2020-10-17T08:41:49.000Z</time>
      </trkpt>
      <trkpt lat="43.66614" lon="3.8242">
        <ele>146</ele>
        <time>2020-10-17T08:41:50.000Z</time>
      </trkpt>
      <trkpt lat="43.66615" lon="3.82423">
        <ele>146</ele>
        <time>2020-10-17T08:41:51.000Z</time>
      </trkpt>
      <trkpt lat="43.66616" lon="3.82426">
        <ele>146</ele>
        <time>2020-10-17T08:41:52.000Z</time>
      </trkpt>
      <trkpt lat="43.66617" lon="3.8243">
        <ele>146</ele>
        <time>2020-10-17T08:41:53.000Z</time>
      </trkpt>
      <trkpt lat="43.66618" lon="3.82433">
        <ele>146</ele>
        <time>2020-10-17T08:41:54.000Z</time>
      </trkpt>
      <trkpt lat="43.66619" lon="3.82437">
        <ele>146</ele>
        <time>2020-10-17T08:41:55.000Z</time>
      </trkpt>
      <trkpt lat="43.6662" lon="3.8244">
        <ele>146</ele>
        <time>2020-10-17T08:41:56.000Z</time>
      </trkpt>
      <trkpt lat="43.6662" lon="3.82444">
        <ele>146</ele>
        <time>2020-10-17T08:41:57.000Z</time>
      </trkpt>
      <trkpt lat="43.66621" lon="3.82448">
        <ele>146</ele>
        <time>2020-10-17T08:41:58.000Z</time>
      </trkpt>
      <trkpt lat="43.66622" lon="3.82452">
        <ele>146</ele>
        <time>2020-10-17T08:41:59.000Z</time>
      </trkpt>
      <trkpt lat="43.66623" lon="3.82455">
        <ele>145.94499968</ele>
        <time>2020-10-17T08:42:00.000Z</time>
      </trkpt>
      <trkpt lat="43.66624" lon="3.82458">
        <ele>145.84499968</ele>
        <time>2020-10-17T08:42:01.000Z</time>
      </trkpt>
      <trkpt lat="43.66626" lon="3.82461">
        <ele>145.74499968</ele>
        <time>2020-10-17T08:42:02.000Z</time>
      </trkpt>
      <trkpt lat="43.66627" lon="3.82465">
        <ele>145.64499968</ele>
        <time>2020-10-17T08:42:03.000Z</time>
      </trkpt>
      <trkpt lat="43.66628" lon="3.82468">
        <ele>145.54499968</ele>
        <time>2020-10-17T08:42:04.000Z</time>
      </trkpt>
      <trkpt lat="43.6663" lon="3.82472">
        <ele>145.44499968</ele>
        <time>2020-10-17T08:42:05.000Z</time>
      </trkpt>
      <trkpt lat="43.66631" lon="3.82477">
        <ele>145.34499968</ele>
        <time>2020-10-17T08:42:06.000Z</time>
      </trkpt>
      <trkpt lat="43.66633" lon="3.82482">
        <ele>145.24499968</ele>
        <time>2020-10-17T08:42:07.000Z</time>
      </trkpt>
      <trkpt lat="43.66634" lon="3.82488">
        <ele>145.14499968</ele>
        <time>2020-10-17T08:42:08.000Z</time>
      </trkpt>
      <trkpt lat="43.66635" lon="3.82494">
        <ele>145.04499968</ele>
        <time>2020-10-17T08:42:09.000Z</time>
      </trkpt>
      <trkpt lat="43.66637" lon="3.82501">
        <ele>144.88999936</ele>
        <time>2020-10-17T08:42:10.000Z</time>
      </trkpt>
      <trkpt lat="43.66638" lon="3.82509">
        <ele>144.68999936</ele>
        <time>2020-10-17T08:42:11.000Z</time>
      </trkpt>
      <trkpt lat="43.66639" lon="3.82518">
        <ele>144.48999936</ele>
        <time>2020-10-17T08:42:12.000Z</time>
      </trkpt>
      <trkpt lat="43.66639" lon="3.82526">
        <ele>144.28999936</ele>
        <time>2020-10-17T08:42:13.000Z</time>
      </trkpt>
      <trkpt lat="43.66639" lon="3.82535">
        <ele>144.08999936</ele>
        <time>2020-10-17T08:42:14.000Z</time>
      </trkpt>
      <trkpt lat="43.6664" lon="3.82543">
        <ele>143.88999936</ele>
        <time>2020-10-17T08:42:15.000Z</time>
      </trkpt>
      <trkpt lat="43.66642" lon="3.82552">
        <ele>143.68999936</ele>
        <time>2020-10-17T08:42:16.000Z</time>
      </trkpt>
      <trkpt lat="43.66644" lon="3.82561">
        <ele>143.48999936</ele>
        <time>2020-10-17T08:42:17.000Z</time>
      </trkpt>
      <trkpt lat="43.66646" lon="3.82571">
        <ele>143.28999936</ele>
        <time>2020-10-17T08:42:18.000Z</time>
      </trkpt>
      <trkpt lat="43.66647" lon="3.8258">
        <ele>143.08999936</ele>
        <time>2020-10-17T08:42:19.000Z</time>
      </trkpt>
      <trkpt lat="43.66649" lon="3.82586">
        <ele>142.94499968</ele>
        <time>2020-10-17T08:42:20.000Z</time>
      </trkpt>
      <trkpt lat="43.66651" lon="3.82592">
        <ele>142.84499968</ele>
        <time>2020-10-17T08:42:21.000Z</time>
      </trkpt>
      <trkpt lat="43.6665" lon="3.82598">
        <ele>142.74499968</ele>
        <time>2020-10-17T08:42:22.000Z</time>
      </trkpt>
      <trkpt lat="43.6665" lon="3.82602">
        <ele>142.64499968</ele>
        <time>2020-10-17T08:42:23.000Z</time>
      </trkpt>
      <trkpt lat="43.66651" lon="3.82606">
        <ele>142.54499968</ele>
        <time>2020-10-17T08:42:24.000Z</time>
      </trkpt>
      <trkpt lat="43.66651" lon="3.82609">
        <ele>142.44499968</ele>
        <time>2020-10-17T08:42:25.000Z</time>
      </trkpt>
      <trkpt lat="43.66651" lon="3.8261">
        <ele>142</ele>
        <time>2020-10-17T08:42:32.000Z</time>
      </trkpt>
      <trkpt lat="43.66657" lon="3.82619">
        <ele>139.14529053406</ele>
        <time>2020-10-17T08:42:50.000Z</time>
      </trkpt>
      <trkpt lat="43.66657" lon="3.82622">
        <ele>138.9748163609</ele>
        <time>2020-10-17T08:42:51.000Z</time>
      </trkpt>
      <trkpt lat="43.66658" lon="3.82625">
        <ele>138.6600208722</ele>
        <time>2020-10-17T08:42:52.000Z</time>
      </trkpt>
      <trkpt lat="43.66659" lon="3.82628">
        <ele>138.3452253835</ele>
        <time>2020-10-17T08:42:53.000Z</time>
      </trkpt>
      <trkpt lat="43.6666" lon="3.82631">
        <ele>137.71563440609</ele>
        <time>2020-10-17T08:42:55.000Z</time>
      </trkpt>
      <trkpt lat="43.66662" lon="3.82635">
        <ele>137.08604342868</ele>
        <time>2020-10-17T08:42:57.000Z</time>
      </trkpt>
      <trkpt lat="43.66663" lon="3.82639">
        <ele>136.77124793998</ele>
        <time>2020-10-17T08:42:58.000Z</time>
      </trkpt>
      <trkpt lat="43.66665" lon="3.82643">
        <ele>136.45645245127</ele>
        <time>2020-10-17T08:42:59.000Z</time>
      </trkpt>
      <trkpt lat="43.66665" lon="3.82647">
        <ele>136.14165696257</ele>
        <time>2020-10-17T08:43:00.000Z</time>
      </trkpt>
      <trkpt lat="43.66666" lon="3.82651">
        <ele>135.83949322957</ele>
        <time>2020-10-17T08:43:01.000Z</time>
      </trkpt>
      <trkpt lat="43.66666" lon="3.82653">
        <ele>135.5476644358</ele>
        <time>2020-10-17T08:43:02.000Z</time>
      </trkpt>
      <trkpt lat="43.66668" lon="3.82657">
        <ele>135.25583564202</ele>
        <time>2020-10-17T08:43:03.000Z</time>
      </trkpt>
      <trkpt lat="43.66669" lon="3.82662">
        <ele>134.96400684825</ele>
        <time>2020-10-17T08:43:04.000Z</time>
      </trkpt>
      <trkpt lat="43.66671" lon="3.82669">
        <ele>134.67217805448</ele>
        <time>2020-10-17T08:43:05.000Z</time>
      </trkpt>
      <trkpt lat="43.66672" lon="3.82676">
        <ele>134.3803492607</ele>
        <time>2020-10-17T08:43:06.000Z</time>
      </trkpt>
      <trkpt lat="43.66673" lon="3.82681">
        <ele>134.08852046693</ele>
        <time>2020-10-17T08:43:07.000Z</time>
      </trkpt>
      <trkpt lat="43.66674" lon="3.82683">
        <ele>133.79669167315</ele>
        <time>2020-10-17T08:43:08.000Z</time>
      </trkpt>
      <trkpt lat="43.66676" lon="3.82684">
        <ele>133.2130340856</ele>
        <time>2020-10-17T08:43:10.000Z</time>
      </trkpt>
      <trkpt lat="43.66678" lon="3.82685">
        <ele>132.47736493827</ele>
        <time>2020-10-17T08:43:12.000Z</time>
      </trkpt>
      <trkpt lat="43.6668" lon="3.82684">
        <ele>132.06584230453</ele>
        <time>2020-10-17T08:43:13.000Z</time>
      </trkpt>
      <trkpt lat="43.66682" lon="3.82684">
        <ele>131.65431967078</ele>
        <time>2020-10-17T08:43:14.000Z</time>
      </trkpt>
      <trkpt lat="43.66683" lon="3.82683">
        <ele>130.83127440329</ele>
        <time>2020-10-17T08:43:16.000Z</time>
      </trkpt>
      <trkpt lat="43.66684" lon="3.82681">
        <ele>128.97405251836</ele>
        <time>2020-10-17T08:43:22.000Z</time>
      </trkpt>
      <trkpt lat="43.6668" lon="3.82686">
        <ele>128.17564881479</ele>
        <time>2020-10-17T08:43:26.000Z</time>
      </trkpt>
      <trkpt lat="43.66678" lon="3.82686">
        <ele>127.98849338912</ele>
        <time>2020-10-17T08:43:27.000Z</time>
      </trkpt>
      <trkpt lat="43.66676" lon="3.82683">
        <ele>127.7792883682</ele>
        <time>2020-10-17T08:43:29.000Z</time>
      </trkpt>
      <trkpt lat="43.66676" lon="3.8268">
        <ele>127.57008334728</ele>
        <time>2020-10-17T08:43:31.000Z</time>
      </trkpt>
      <trkpt lat="43.6668" lon="3.82679">
        <ele>127.36087832636</ele>
        <time>2020-10-17T08:43:33.000Z</time>
      </trkpt>
      <trkpt lat="43.66682" lon="3.82679">
        <ele>127.2562758159</ele>
        <time>2020-10-17T08:43:34.000Z</time>
      </trkpt>
      <trkpt lat="43.66683" lon="3.82678">
        <ele>127.15167330544</ele>
        <time>2020-10-17T08:43:35.000Z</time>
      </trkpt>
      <trkpt lat="43.66685" lon="3.82677">
        <ele>127.04707079498</ele>
        <time>2020-10-17T08:43:36.000Z</time>
      </trkpt>
      <trkpt lat="43.66687" lon="3.82677">
        <ele>126.89309944197</ele>
        <time>2020-10-17T08:43:37.000Z</time>
      </trkpt>
      <trkpt lat="43.66689" lon="3.82676">
        <ele>126.69873592186</ele>
        <time>2020-10-17T08:43:38.000Z</time>
      </trkpt>
      <trkpt lat="43.66692" lon="3.82675">
        <ele>126.50437240175</ele>
        <time>2020-10-17T08:43:39.000Z</time>
      </trkpt>
      <trkpt lat="43.66694" lon="3.82674">
        <ele>126.31000888163</ele>
        <time>2020-10-17T08:43:40.000Z</time>
      </trkpt>
      <trkpt lat="43.66697" lon="3.82674">
        <ele>126.11564536152</ele>
        <time>2020-10-17T08:43:41.000Z</time>
      </trkpt>
      <trkpt lat="43.667" lon="3.82673">
        <ele>125.92128184141</ele>
        <time>2020-10-17T08:43:42.000Z</time>
      </trkpt>
      <trkpt lat="43.66703" lon="3.82672">
        <ele>125.7269183213</ele>
        <time>2020-10-17T08:43:43.000Z</time>
      </trkpt>
      <trkpt lat="43.66707" lon="3.82672">
        <ele>125.53255480118</ele>
        <time>2020-10-17T08:43:44.000Z</time>
      </trkpt>
      <trkpt lat="43.6671" lon="3.82671">
        <ele>125.33819128107</ele>
        <time>2020-10-17T08:43:45.000Z</time>
      </trkpt>
      <trkpt lat="43.66714" lon="3.8267">
        <ele>125.14382776096</ele>
        <time>2020-10-17T08:43:46.000Z</time>
      </trkpt>
      <trkpt lat="43.66716" lon="3.82669">
        <ele>124.97322283066</ele>
        <time>2020-10-17T08:43:47.000Z</time>
      </trkpt>
      <trkpt lat="43.66719" lon="3.82668">
        <ele>124.87023625286</ele>
        <time>2020-10-17T08:43:48.000Z</time>
      </trkpt>
      <trkpt lat="43.66722" lon="3.82667">
        <ele>124.76724967506</ele>
        <time>2020-10-17T08:43:49.000Z</time>
      </trkpt>
      <trkpt lat="43.66725" lon="3.82665">
        <ele>124.66426309726</ele>
        <time>2020-10-17T08:43:50.000Z</time>
      </trkpt>
      <trkpt lat="43.66728" lon="3.82663">
        <ele>124.56127651946</ele>
        <time>2020-10-17T08:43:51.000Z</time>
      </trkpt>
      <trkpt lat="43.66731" lon="3.82661">
        <ele>124.45828994165</ele>
        <time>2020-10-17T08:43:52.000Z</time>
      </trkpt>
      <trkpt lat="43.66734" lon="3.82659">
        <ele>124.35530336386</ele>
        <time>2020-10-17T08:43:53.000Z</time>
      </trkpt>
      <trkpt lat="43.66737" lon="3.82657">
        <ele>124.25231678605</ele>
        <time>2020-10-17T08:43:54.000Z</time>
      </trkpt>
      <trkpt lat="43.66739" lon="3.82655">
        <ele>124.14933020825</ele>
        <time>2020-10-17T08:43:55.000Z</time>
      </trkpt>
      <trkpt lat="43.66742" lon="3.82654">
        <ele>124.04634363045</ele>
        <time>2020-10-17T08:43:56.000Z</time>
      </trkpt>
      <trkpt lat="43.66745" lon="3.82651">
        <ele>123.88999936</ele>
        <time>2020-10-17T08:43:57.000Z</time>
      </trkpt>
      <trkpt lat="43.66748" lon="3.82649">
        <ele>123.68999936</ele>
        <time>2020-10-17T08:43:58.000Z</time>
      </trkpt>
      <trkpt lat="43.66751" lon="3.82646">
        <ele>123.48999936</ele>
        <time>2020-10-17T08:43:59.000Z</time>
      </trkpt>
      <trkpt lat="43.66753" lon="3.82644">
        <ele>123.28999936</ele>
        <time>2020-10-17T08:44:00.000Z</time>
      </trkpt>
      <trkpt lat="43.66756" lon="3.82642">
        <ele>123.08999936</ele>
        <time>2020-10-17T08:44:01.000Z</time>
      </trkpt>
      <trkpt lat="43.66759" lon="3.8264">
        <ele>122.88999936</ele>
        <time>2020-10-17T08:44:02.000Z</time>
      </trkpt>
      <trkpt lat="43.66762" lon="3.82638">
        <ele>122.68999936</ele>
        <time>2020-10-17T08:44:03.000Z</time>
      </trkpt>
      <trkpt lat="43.66765" lon="3.82635">
        <ele>122.48999936</ele>
        <time>2020-10-17T08:44:04.000Z</time>
      </trkpt>
      <trkpt lat="43.66768" lon="3.82632">
        <ele>122.28999936</ele>
        <time>2020-10-17T08:44:05.000Z</time>
      </trkpt>
      <trkpt lat="43.66771" lon="3.8263">
        <ele>122.08999936</ele>
        <time>2020-10-17T08:44:06.000Z</time>
      </trkpt>
      <trkpt lat="43.66774" lon="3.82629">
        <ele>121.88999936</ele>
        <time>2020-10-17T08:44:07.000Z</time>
      </trkpt>
      <trkpt lat="43.66778" lon="3.82626">
        <ele>121.68999936</ele>
        <time>2020-10-17T08:44:08.000Z</time>
      </trkpt>
      <trkpt lat="43.66781" lon="3.82624">
        <ele>121.48999936</ele>
        <time>2020-10-17T08:44:09.000Z</time>
      </trkpt>
      <trkpt lat="43.66785" lon="3.82622">
        <ele>121.28999936</ele>
        <time>2020-10-17T08:44:10.000Z</time>
      </trkpt>
      <trkpt lat="43.66789" lon="3.8262">
        <ele>121.08999936</ele>
        <time>2020-10-17T08:44:11.000Z</time>
      </trkpt>
      <trkpt lat="43.66793" lon="3.82618">
        <ele>120.88999936</ele>
        <time>2020-10-17T08:44:12.000Z</time>
      </trkpt>
      <trkpt lat="43.66796" lon="3.82615">
        <ele>120.68999936</ele>
        <time>2020-10-17T08:44:13.000Z</time>
      </trkpt>
      <trkpt lat="43.668" lon="3.82613">
        <ele>120.48999936</ele>
        <time>2020-10-17T08:44:14.000Z</time>
      </trkpt>
      <trkpt lat="43.66804" lon="3.8261">
        <ele>120.28999936</ele>
        <time>2020-10-17T08:44:15.000Z</time>
      </trkpt>
      <trkpt lat="43.66807" lon="3.82606">
        <ele>120.08999936</ele>
        <time>2020-10-17T08:44:16.000Z</time>
      </trkpt>
      <trkpt lat="43.6681" lon="3.82603">
        <ele>119.94499968</ele>
        <time>2020-10-17T08:44:17.000Z</time>
      </trkpt>
      <trkpt lat="43.66813" lon="3.82599">
        <ele>119.84499968</ele>
        <time>2020-10-17T08:44:18.000Z</time>
      </trkpt>
      <trkpt lat="43.66816" lon="3.82595">
        <ele>119.74499968</ele>
        <time>2020-10-17T08:44:19.000Z</time>
      </trkpt>
      <trkpt lat="43.66818" lon="3.82592">
        <ele>119.64499968</ele>
        <time>2020-10-17T08:44:20.000Z</time>
      </trkpt>
      <trkpt lat="43.66821" lon="3.82587">
        <ele>119.54499968</ele>
        <time>2020-10-17T08:44:21.000Z</time>
      </trkpt>
      <trkpt lat="43.66824" lon="3.82584">
        <ele>119.44499968</ele>
        <time>2020-10-17T08:44:22.000Z</time>
      </trkpt>
      <trkpt lat="43.66827" lon="3.82581">
        <ele>119.34499968</ele>
        <time>2020-10-17T08:44:23.000Z</time>
      </trkpt>
      <trkpt lat="43.6683" lon="3.82579">
        <ele>119.24499968</ele>
        <time>2020-10-17T08:44:24.000Z</time>
      </trkpt>
      <trkpt lat="43.66833" lon="3.82577">
        <ele>119.14499968</ele>
        <time>2020-10-17T08:44:25.000Z</time>
      </trkpt>
      <trkpt lat="43.66836" lon="3.82574">
        <ele>119.04499968</ele>
        <time>2020-10-17T08:44:26.000Z</time>
      </trkpt>
      <trkpt lat="43.66838" lon="3.82572">
        <ele>119</ele>
        <time>2020-10-17T08:44:27.000Z</time>
      </trkpt>
      <trkpt lat="43.66841" lon="3.8257">
        <ele>119</ele>
        <time>2020-10-17T08:44:28.000Z</time>
      </trkpt>
      <trkpt lat="43.66843" lon="3.82568">
        <ele>119</ele>
        <time>2020-10-17T08:44:29.000Z</time>
      </trkpt>
      <trkpt lat="43.66846" lon="3.82566">
        <ele>119</ele>
        <time>2020-10-17T08:44:30.000Z</time>
      </trkpt>
      <trkpt lat="43.6685" lon="3.82564">
        <ele>119</ele>
        <time>2020-10-17T08:44:31.000Z</time>
      </trkpt>
      <trkpt lat="43.66853" lon="3.82561">
        <ele>119</ele>
        <time>2020-10-17T08:44:32.000Z</time>
      </trkpt>
      <trkpt lat="43.66857" lon="3.82558">
        <ele>119</ele>
        <time>2020-10-17T08:44:33.000Z</time>
      </trkpt>
      <trkpt lat="43.6686" lon="3.82553">
        <ele>119</ele>
        <time>2020-10-17T08:44:34.000Z</time>
      </trkpt>
      <trkpt lat="43.66862" lon="3.82549">
        <ele>119</ele>
        <time>2020-10-17T08:44:35.000Z</time>
      </trkpt>
      <trkpt lat="43.66865" lon="3.82546">
        <ele>119</ele>
        <time>2020-10-17T08:44:36.000Z</time>
      </trkpt>
      <trkpt lat="43.66867" lon="3.82543">
        <ele>118.94499968</ele>
        <time>2020-10-17T08:44:37.000Z</time>
      </trkpt>
      <trkpt lat="43.6687" lon="3.82541">
        <ele>118.84499968</ele>
        <time>2020-10-17T08:44:38.000Z</time>
      </trkpt>
      <trkpt lat="43.66873" lon="3.82538">
        <ele>118.74499968</ele>
        <time>2020-10-17T08:44:39.000Z</time>
      </trkpt>
      <trkpt lat="43.66875" lon="3.82536">
        <ele>118.64499968</ele>
        <time>2020-10-17T08:44:40.000Z</time>
      </trkpt>
      <trkpt lat="43.66878" lon="3.82533">
        <ele>118.54499968</ele>
        <time>2020-10-17T08:44:41.000Z</time>
      </trkpt>
      <trkpt lat="43.66881" lon="3.82531">
        <ele>118.44499968</ele>
        <time>2020-10-17T08:44:42.000Z</time>
      </trkpt>
      <trkpt lat="43.66884" lon="3.82529">
        <ele>118.34499968</ele>
        <time>2020-10-17T08:44:43.000Z</time>
      </trkpt>
      <trkpt lat="43.66888" lon="3.82526">
        <ele>118.24499968</ele>
        <time>2020-10-17T08:44:44.000Z</time>
      </trkpt>
      <trkpt lat="43.66892" lon="3.82523">
        <ele>118.14499968</ele>
        <time>2020-10-17T08:44:45.000Z</time>
      </trkpt>
      <trkpt lat="43.66895" lon="3.82519">
        <ele>118.04499968</ele>
        <time>2020-10-17T08:44:46.000Z</time>
      </trkpt>
      <trkpt lat="43.66898" lon="3.82515">
        <ele>118</ele>
        <time>2020-10-17T08:44:47.000Z</time>
      </trkpt>
      <trkpt lat="43.66902" lon="3.82512">
        <ele>118</ele>
        <time>2020-10-17T08:44:48.000Z</time>
      </trkpt>
      <trkpt lat="43.66905" lon="3.82509">
        <ele>118</ele>
        <time>2020-10-17T08:44:49.000Z</time>
      </trkpt>
      <trkpt lat="43.66908" lon="3.82506">
        <ele>118</ele>
        <time>2020-10-17T08:44:50.000Z</time>
      </trkpt>
      <trkpt lat="43.66911" lon="3.82503">
        <ele>118</ele>
        <time>2020-10-17T08:44:51.000Z</time>
      </trkpt>
      <trkpt lat="43.66913" lon="3.825">
        <ele>118</ele>
        <time>2020-10-17T08:44:52.000Z</time>
      </trkpt>
      <trkpt lat="43.66916" lon="3.82498">
        <ele>118</ele>
        <time>2020-10-17T08:44:53.000Z</time>
      </trkpt>
      <trkpt lat="43.66919" lon="3.82496">
        <ele>118</ele>
        <time>2020-10-17T08:44:54.000Z</time>
      </trkpt>
      <trkpt lat="43.66921" lon="3.82493">
        <ele>118</ele>
        <time>2020-10-17T08:44:55.000Z</time>
      </trkpt>
      <trkpt lat="43.66924" lon="3.82491">
        <ele>118</ele>
        <time>2020-10-17T08:44:56.000Z</time>
      </trkpt>
      <trkpt lat="43.66925" lon="3.82488">
        <ele>118</ele>
        <time>2020-10-17T08:44:57.000Z</time>
      </trkpt>
      <trkpt lat="43.66927" lon="3.82485">
        <ele>118</ele>
        <time>2020-10-17T08:44:58.000Z</time>
      </trkpt>
      <trkpt lat="43.66929" lon="3.82483">
        <ele>118</ele>
        <time>2020-10-17T08:44:59.000Z</time>
      </trkpt>
      <trkpt lat="43.66931" lon="3.82481">
        <ele>118</ele>
        <time>2020-10-17T08:45:00.000Z</time>
      </trkpt>
      <trkpt lat="43.66933" lon="3.8248">
        <ele>118</ele>
        <time>2020-10-17T08:45:01.000Z</time>
      </trkpt>
      <trkpt lat="43.66935" lon="3.82478">
        <ele>118</ele>
        <time>2020-10-17T08:45:02.000Z</time>
      </trkpt>
      <trkpt lat="43.66937" lon="3.82476">
        <ele>118</ele>
        <time>2020-10-17T08:45:03.000Z</time>
      </trkpt>
      <trkpt lat="43.66939" lon="3.82474">
        <ele>118</ele>
        <time>2020-10-17T08:45:04.000Z</time>
      </trkpt>
      <trkpt lat="43.66941" lon="3.82472">
        <ele>118</ele>
        <time>2020-10-17T08:45:05.000Z</time>
      </trkpt>
      <trkpt lat="43.66944" lon="3.82469">
        <ele>118</ele>
        <time>2020-10-17T08:45:06.000Z</time>
      </trkpt>
      <trkpt lat="43.66946" lon="3.82466">
        <ele>118</ele>
        <time>2020-10-17T08:45:07.000Z</time>
      </trkpt>
      <trkpt lat="43.66948" lon="3.82464">
        <ele>118</ele>
        <time>2020-10-17T08:45:08.000Z</time>
      </trkpt>
      <trkpt lat="43.66951" lon="3.82462">
        <ele>118</ele>
        <time>2020-10-17T08:45:09.000Z</time>
      </trkpt>
      <trkpt lat="43.66954" lon="3.82459">
        <ele>118</ele>
        <time>2020-10-17T08:45:10.000Z</time>
      </trkpt>
      <trkpt lat="43.66957" lon="3.82456">
        <ele>118</ele>
        <time>2020-10-17T08:45:11.000Z</time>
      </trkpt>
      <trkpt lat="43.66959" lon="3.82453">
        <ele>118</ele>
        <time>2020-10-17T08:45:12.000Z</time>
      </trkpt>
      <trkpt lat="43.6696" lon="3.82451">
        <ele>118</ele>
        <time>2020-10-17T08:45:13.000Z</time>
      </trkpt>
      <trkpt lat="43.66962" lon="3.82449">
        <ele>118</ele>
        <time>2020-10-17T08:45:15.000Z</time>
      </trkpt>
      <trkpt lat="43.66964" lon="3.82448">
        <ele>117.94499968</ele>
        <time>2020-10-17T08:45:17.000Z</time>
      </trkpt>
      <trkpt lat="43.66967" lon="3.82445">
        <ele>117.74499968</ele>
        <time>2020-10-17T08:45:19.000Z</time>
      </trkpt>
      <trkpt lat="43.66969" lon="3.82442">
        <ele>117.64499968</ele>
        <time>2020-10-17T08:45:20.000Z</time>
      </trkpt>
      <trkpt lat="43.66972" lon="3.82441">
        <ele>117.54499968</ele>
        <time>2020-10-17T08:45:21.000Z</time>
      </trkpt>
      <trkpt lat="43.66975" lon="3.82439">
        <ele>117.44499968</ele>
        <time>2020-10-17T08:45:22.000Z</time>
      </trkpt>
      <trkpt lat="43.66978" lon="3.82436">
        <ele>117.34499968</ele>
        <time>2020-10-17T08:45:23.000Z</time>
      </trkpt>
      <trkpt lat="43.66981" lon="3.82432">
        <ele>117.24499968</ele>
        <time>2020-10-17T08:45:24.000Z</time>
      </trkpt>
      <trkpt lat="43.66983" lon="3.82427">
        <ele>117.14499968</ele>
        <time>2020-10-17T08:45:25.000Z</time>
      </trkpt>
      <trkpt lat="43.66984" lon="3.82421">
        <ele>117.04499968</ele>
        <time>2020-10-17T08:45:26.000Z</time>
      </trkpt>
      <trkpt lat="43.66985" lon="3.82416">
        <ele>117.05500032</ele>
        <time>2020-10-17T08:45:27.000Z</time>
      </trkpt>
      <trkpt lat="43.66987" lon="3.82413">
        <ele>117.15500032</ele>
        <time>2020-10-17T08:45:28.000Z</time>
      </trkpt>
      <trkpt lat="43.66989" lon="3.82411">
        <ele>117.25500032</ele>
        <time>2020-10-17T08:45:29.000Z</time>
      </trkpt>
      <trkpt lat="43.66991" lon="3.8241">
        <ele>117.35500032</ele>
        <time>2020-10-17T08:45:30.000Z</time>
      </trkpt>
      <trkpt lat="43.66993" lon="3.82409">
        <ele>117.45500032</ele>
        <time>2020-10-17T08:45:31.000Z</time>
      </trkpt>
      <trkpt lat="43.66995" lon="3.82407">
        <ele>117.55500032</ele>
        <time>2020-10-17T08:45:32.000Z</time>
      </trkpt>
      <trkpt lat="43.66997" lon="3.82405">
        <ele>117.65500032</ele>
        <time>2020-10-17T08:45:33.000Z</time>
      </trkpt>
      <trkpt lat="43.66999" lon="3.82404">
        <ele>117.75500032</ele>
        <time>2020-10-17T08:45:34.000Z</time>
      </trkpt>
      <trkpt lat="43.67001" lon="3.82402">
        <ele>117.85500032</ele>
        <time>2020-10-17T08:45:35.000Z</time>
      </trkpt>
      <trkpt lat="43.67003" lon="3.82401">
        <ele>117.95500032</ele>
        <time>2020-10-17T08:45:36.000Z</time>
      </trkpt>
      <trkpt lat="43.67004" lon="3.82399">
        <ele>118.05500032</ele>
        <time>2020-10-17T08:45:37.000Z</time>
      </trkpt>
      <trkpt lat="43.67006" lon="3.82397">
        <ele>118.15500032</ele>
        <time>2020-10-17T08:45:38.000Z</time>
      </trkpt>
      <trkpt lat="43.67008" lon="3.82396">
        <ele>118.25500032</ele>
        <time>2020-10-17T08:45:39.000Z</time>
      </trkpt>
      <trkpt lat="43.67011" lon="3.82394">
        <ele>118.45500032</ele>
        <time>2020-10-17T08:45:41.000Z</time>
      </trkpt>
      <trkpt lat="43.67012" lon="3.82392">
        <ele>118.55500032</ele>
        <time>2020-10-17T08:45:42.000Z</time>
      </trkpt>
      <trkpt lat="43.67014" lon="3.82389">
        <ele>118.75500032</ele>
        <time>2020-10-17T08:45:44.000Z</time>
      </trkpt>
      <trkpt lat="43.67016" lon="3.82385">
        <ele>118.95500032</ele>
        <time>2020-10-17T08:45:46.000Z</time>
      </trkpt>
      <trkpt lat="43.67017" lon="3.82382">
        <ele>119.11000064</ele>
        <time>2020-10-17T08:45:47.000Z</time>
      </trkpt>
      <trkpt lat="43.67019" lon="3.82379">
        <ele>119.31000064</ele>
        <time>2020-10-17T08:45:48.000Z</time>
      </trkpt>
      <trkpt lat="43.67021" lon="3.82376">
        <ele>119.51000064</ele>
        <time>2020-10-17T08:45:49.000Z</time>
      </trkpt>
      <trkpt lat="43.67022" lon="3.82373">
        <ele>119.71000064</ele>
        <time>2020-10-17T08:45:50.000Z</time>
      </trkpt>
      <trkpt lat="43.67024" lon="3.82369">
        <ele>119.91000064</ele>
        <time>2020-10-17T08:45:51.000Z</time>
      </trkpt>
      <trkpt lat="43.67025" lon="3.82365">
        <ele>120.11000064</ele>
        <time>2020-10-17T08:45:52.000Z</time>
      </trkpt>
      <trkpt lat="43.67027" lon="3.82361">
        <ele>120.31000064</ele>
        <time>2020-10-17T08:45:53.000Z</time>
      </trkpt>
      <trkpt lat="43.67028" lon="3.82357">
        <ele>120.51000064</ele>
        <time>2020-10-17T08:45:54.000Z</time>
      </trkpt>
      <trkpt lat="43.67029" lon="3.82354">
        <ele>120.71000064</ele>
        <time>2020-10-17T08:45:55.000Z</time>
      </trkpt>
      <trkpt lat="43.67029" lon="3.8235">
        <ele>120.91000064</ele>
        <time>2020-10-17T08:45:56.000Z</time>
      </trkpt>
      <trkpt lat="43.6703" lon="3.82347">
        <ele>121.16500096</ele>
        <time>2020-10-17T08:45:57.000Z</time>
      </trkpt>
      <trkpt lat="43.6703" lon="3.82344">
        <ele>121.46500096</ele>
        <time>2020-10-17T08:45:58.000Z</time>
      </trkpt>
      <trkpt lat="43.67031" lon="3.82341">
        <ele>121.76500096</ele>
        <time>2020-10-17T08:45:59.000Z</time>
      </trkpt>
      <trkpt lat="43.67031" lon="3.82338">
        <ele>122.06500096</ele>
        <time>2020-10-17T08:46:00.000Z</time>
      </trkpt>
      <trkpt lat="43.67032" lon="3.82335">
        <ele>122.36500096</ele>
        <time>2020-10-17T08:46:01.000Z</time>
      </trkpt>
      <trkpt lat="43.67032" lon="3.82332">
        <ele>122.66500096</ele>
        <time>2020-10-17T08:46:02.000Z</time>
      </trkpt>
      <trkpt lat="43.67033" lon="3.82329">
        <ele>122.96500096</ele>
        <time>2020-10-17T08:46:03.000Z</time>
      </trkpt>
      <trkpt lat="43.67033" lon="3.82326">
        <ele>123.26500096</ele>
        <time>2020-10-17T08:46:04.000Z</time>
      </trkpt>
      <trkpt lat="43.67034" lon="3.82323">
        <ele>123.56500096</ele>
        <time>2020-10-17T08:46:05.000Z</time>
      </trkpt>
      <trkpt lat="43.67035" lon="3.82321">
        <ele>123.86500096</ele>
        <time>2020-10-17T08:46:06.000Z</time>
      </trkpt>
      <trkpt lat="43.67036" lon="3.82318">
        <ele>124.11000064</ele>
        <time>2020-10-17T08:46:07.000Z</time>
      </trkpt>
      <trkpt lat="43.67037" lon="3.82316">
        <ele>124.31000064</ele>
        <time>2020-10-17T08:46:08.000Z</time>
      </trkpt>
      <trkpt lat="43.67037" lon="3.82313">
        <ele>124.51000064</ele>
        <time>2020-10-17T08:46:09.000Z</time>
      </trkpt>
      <trkpt lat="43.67038" lon="3.82311">
        <ele>124.71000064</ele>
        <time>2020-10-17T08:46:10.000Z</time>
      </trkpt>
      <trkpt lat="43.6704" lon="3.82308">
        <ele>124.91000064</ele>
        <time>2020-10-17T08:46:11.000Z</time>
      </trkpt>
      <trkpt lat="43.6704" lon="3.82305">
        <ele>125.11000064</ele>
        <time>2020-10-17T08:46:12.000Z</time>
      </trkpt>
      <trkpt lat="43.67041" lon="3.82303">
        <ele>125.31000064</ele>
        <time>2020-10-17T08:46:13.000Z</time>
      </trkpt>
      <trkpt lat="43.67042" lon="3.823">
        <ele>125.51000064</ele>
        <time>2020-10-17T08:46:14.000Z</time>
      </trkpt>
      <trkpt lat="43.67043" lon="3.82297">
        <ele>125.71000064</ele>
        <time>2020-10-17T08:46:15.000Z</time>
      </trkpt>
      <trkpt lat="43.67044" lon="3.82293">
        <ele>126.10989064386</ele>
        <time>2020-10-17T08:46:17.000Z</time>
      </trkpt>
      <trkpt lat="43.67044" lon="3.8229">
        <ele>126.30969065205</ele>
        <time>2020-10-17T08:46:18.000Z</time>
      </trkpt>
      <trkpt lat="43.67045" lon="3.82287">
        <ele>126.50949066023</ele>
        <time>2020-10-17T08:46:19.000Z</time>
      </trkpt>
      <trkpt lat="43.67045" lon="3.82284">
        <ele>126.70929066841</ele>
        <time>2020-10-17T08:46:20.000Z</time>
      </trkpt>
      <trkpt lat="43.67046" lon="3.82282">
        <ele>126.9090906766</ele>
        <time>2020-10-17T08:46:21.000Z</time>
      </trkpt>
      <trkpt lat="43.67046" lon="3.82279">
        <ele>127.10889068478</ele>
        <time>2020-10-17T08:46:22.000Z</time>
      </trkpt>
      <trkpt lat="43.67046" lon="3.82276">
        <ele>127.30869069296</ele>
        <time>2020-10-17T08:46:23.000Z</time>
      </trkpt>
      <trkpt lat="43.67047" lon="3.82273">
        <ele>127.50849070115</ele>
        <time>2020-10-17T08:46:24.000Z</time>
      </trkpt>
      <trkpt lat="43.67048" lon="3.82269">
        <ele>127.70829070933</ele>
        <time>2020-10-17T08:46:25.000Z</time>
      </trkpt>
      <trkpt lat="43.67048" lon="3.82265">
        <ele>127.90809071751</ele>
        <time>2020-10-17T08:46:26.000Z</time>
      </trkpt>
      <trkpt lat="43.67049" lon="3.82262">
        <ele>128</ele>
        <time>2020-10-17T08:46:27.000Z</time>
      </trkpt>
      <trkpt lat="43.67049" lon="3.82259">
        <ele>128</ele>
        <time>2020-10-17T08:46:28.000Z</time>
      </trkpt>
      <trkpt lat="43.6705" lon="3.82256">
        <ele>128</ele>
        <time>2020-10-17T08:46:29.000Z</time>
      </trkpt>
      <trkpt lat="43.67051" lon="3.82252">
        <ele>128</ele>
        <time>2020-10-17T08:46:30.000Z</time>
      </trkpt>
      <trkpt lat="43.67052" lon="3.82249">
        <ele>128</ele>
        <time>2020-10-17T08:46:31.000Z</time>
      </trkpt>
      <trkpt lat="43.67053" lon="3.82246">
        <ele>128</ele>
        <time>2020-10-17T08:46:32.000Z</time>
      </trkpt>
      <trkpt lat="43.67055" lon="3.82243">
        <ele>128</ele>
        <time>2020-10-17T08:46:33.000Z</time>
      </trkpt>
      <trkpt lat="43.67056" lon="3.82241">
        <ele>128</ele>
        <time>2020-10-17T08:46:34.000Z</time>
      </trkpt>
      <trkpt lat="43.67056" lon="3.82238">
        <ele>128</ele>
        <time>2020-10-17T08:46:35.000Z</time>
      </trkpt>
      <trkpt lat="43.67056" lon="3.82234">
        <ele>128</ele>
        <time>2020-10-17T08:46:36.000Z</time>
      </trkpt>
      <trkpt lat="43.67057" lon="3.82231">
        <ele>128.11000064</ele>
        <time>2020-10-17T08:46:37.000Z</time>
      </trkpt>
      <trkpt lat="43.67057" lon="3.82228">
        <ele>128.31000064</ele>
        <time>2020-10-17T08:46:38.000Z</time>
      </trkpt>
      <trkpt lat="43.67058" lon="3.82225">
        <ele>128.51000064</ele>
        <time>2020-10-17T08:46:39.000Z</time>
      </trkpt>
      <trkpt lat="43.67059" lon="3.8222">
        <ele>128.91000064</ele>
        <time>2020-10-17T08:46:41.000Z</time>
      </trkpt>
      <trkpt lat="43.67059" lon="3.82216">
        <ele>129.31000064</ele>
        <time>2020-10-17T08:46:43.000Z</time>
      </trkpt>
      <trkpt lat="43.67059" lon="3.82211">
        <ele>129.71000064</ele>
        <time>2020-10-17T08:46:45.000Z</time>
      </trkpt>
      <trkpt lat="43.6706" lon="3.82208">
        <ele>129.91000064</ele>
        <time>2020-10-17T08:46:46.000Z</time>
      </trkpt>
      <trkpt lat="43.6706" lon="3.82204">
        <ele>130.15500032</ele>
        <time>2020-10-17T08:46:48.000Z</time>
      </trkpt>
      <trkpt lat="43.67061" lon="3.82199">
        <ele>130.35500032</ele>
        <time>2020-10-17T08:46:50.000Z</time>
      </trkpt>
      <trkpt lat="43.67061" lon="3.82196">
        <ele>130.45500032</ele>
        <time>2020-10-17T08:46:51.000Z</time>
      </trkpt>
      <trkpt lat="43.67062" lon="3.82192">
        <ele>130.65500032</ele>
        <time>2020-10-17T08:46:53.000Z</time>
      </trkpt>
      <trkpt lat="43.67062" lon="3.82187">
        <ele>130.85500032</ele>
        <time>2020-10-17T08:46:55.000Z</time>
      </trkpt>
      <trkpt lat="43.67063" lon="3.82182">
        <ele>131</ele>
        <time>2020-10-17T08:46:57.000Z</time>
      </trkpt>
      <trkpt lat="43.67065" lon="3.82178">
        <ele>131</ele>
        <time>2020-10-17T08:46:59.000Z</time>
      </trkpt>
      <trkpt lat="43.67066" lon="3.82176">
        <ele>131</ele>
        <time>2020-10-17T08:47:00.000Z</time>
      </trkpt>
      <trkpt lat="43.67067" lon="3.82173">
        <ele>131</ele>
        <time>2020-10-17T08:47:01.000Z</time>
      </trkpt>
      <trkpt lat="43.67068" lon="3.8217">
        <ele>131</ele>
        <time>2020-10-17T08:47:02.000Z</time>
      </trkpt>
      <trkpt lat="43.67069" lon="3.82167">
        <ele>131</ele>
        <time>2020-10-17T08:47:03.000Z</time>
      </trkpt>
      <trkpt lat="43.6707" lon="3.82164">
        <ele>131</ele>
        <time>2020-10-17T08:47:04.000Z</time>
      </trkpt>
      <trkpt lat="43.67071" lon="3.82161">
        <ele>131</ele>
        <time>2020-10-17T08:47:05.000Z</time>
      </trkpt>
      <trkpt lat="43.67072" lon="3.82158">
        <ele>131</ele>
        <time>2020-10-17T08:47:06.000Z</time>
      </trkpt>
      <trkpt lat="43.67074" lon="3.82157">
        <ele>130.97322283066</ele>
        <time>2020-10-17T08:47:07.000Z</time>
      </trkpt>
      <trkpt lat="43.67076" lon="3.82153">
        <ele>130.76724967506</ele>
        <time>2020-10-17T08:47:09.000Z</time>
      </trkpt>
      <trkpt lat="43.67076" lon="3.82151">
        <ele>130.66426309726</ele>
        <time>2020-10-17T08:47:10.000Z</time>
      </trkpt>
      <trkpt lat="43.67076" lon="3.82148">
        <ele>130.56127651946</ele>
        <time>2020-10-17T08:47:11.000Z</time>
      </trkpt>
      <trkpt lat="43.67078" lon="3.82144">
        <ele>130.35530336386</ele>
        <time>2020-10-17T08:47:13.000Z</time>
      </trkpt>
      <trkpt lat="43.67077" lon="3.82141">
        <ele>130.14933020825</ele>
        <time>2020-10-17T08:47:15.000Z</time>
      </trkpt>
      <trkpt lat="43.67076" lon="3.82141">
        <ele>130.00142897442</ele>
        <time>2020-10-17T08:47:22.000Z</time>
      </trkpt>
      <trkpt lat="43.67073" lon="3.82143">
        <ele>130.98586857907</ele>
        <time>2020-10-17T08:48:24.000Z</time>
      </trkpt>
      <trkpt lat="43.6707" lon="3.82143">
        <ele>130.88481612237</ele>
        <time>2020-10-17T08:48:26.000Z</time>
      </trkpt>
      <trkpt lat="43.67068" lon="3.82143">
        <ele>130.78010411557</ele>
        <time>2020-10-17T08:48:27.000Z</time>
      </trkpt>
      <trkpt lat="43.67065" lon="3.82141">
        <ele>130.57068010197</ele>
        <time>2020-10-17T08:48:29.000Z</time>
      </trkpt>
      <trkpt lat="43.67063" lon="3.8214">
        <ele>130.46596809517</ele>
        <time>2020-10-17T08:48:30.000Z</time>
      </trkpt>
      <trkpt lat="43.6706" lon="3.8214">
        <ele>130.36125608838</ele>
        <time>2020-10-17T08:48:31.000Z</time>
      </trkpt>
      <trkpt lat="43.67058" lon="3.82141">
        <ele>130.25654408158</ele>
        <time>2020-10-17T08:48:32.000Z</time>
      </trkpt>
      <trkpt lat="43.67055" lon="3.82141">
        <ele>130.15183207478</ele>
        <time>2020-10-17T08:48:33.000Z</time>
      </trkpt>
      <trkpt lat="43.67054" lon="3.8214">
        <ele>130.04712006798</ele>
        <time>2020-10-17T08:48:34.000Z</time>
      </trkpt>
      <trkpt lat="43.67052" lon="3.82138">
        <ele>130</ele>
        <time>2020-10-17T08:48:35.000Z</time>
      </trkpt>
      <trkpt lat="43.67051" lon="3.82133">
        <ele>130</ele>
        <time>2020-10-17T08:48:37.000Z</time>
      </trkpt>
      <trkpt lat="43.67051" lon="3.82131">
        <ele>130</ele>
        <time>2020-10-17T08:48:38.000Z</time>
      </trkpt>
      <trkpt lat="43.67054" lon="3.82128">
        <ele>130</ele>
        <time>2020-10-17T08:48:40.000Z</time>
      </trkpt>
      <trkpt lat="43.67056" lon="3.82124">
        <ele>130</ele>
        <time>2020-10-17T08:48:42.000Z</time>
      </trkpt>
      <trkpt lat="43.67058" lon="3.8212">
        <ele>130</ele>
        <time>2020-10-17T08:48:44.000Z</time>
      </trkpt>
      <trkpt lat="43.6706" lon="3.82118">
        <ele>130</ele>
        <time>2020-10-17T08:48:46.000Z</time>
      </trkpt>
      <trkpt lat="43.67062" lon="3.82114">
        <ele>130</ele>
        <time>2020-10-17T08:48:48.000Z</time>
      </trkpt>
      <trkpt lat="43.67063" lon="3.82112">
        <ele>130</ele>
        <time>2020-10-17T08:48:49.000Z</time>
      </trkpt>
      <trkpt lat="43.67065" lon="3.8211">
        <ele>130</ele>
        <time>2020-10-17T08:48:50.000Z</time>
      </trkpt>
      <trkpt lat="43.67066" lon="3.82107">
        <ele>130</ele>
        <time>2020-10-17T08:48:51.000Z</time>
      </trkpt>
      <trkpt lat="43.67068" lon="3.82105">
        <ele>130</ele>
        <time>2020-10-17T08:48:52.000Z</time>
      </trkpt>
      <trkpt lat="43.6707" lon="3.82102">
        <ele>130</ele>
        <time>2020-10-17T08:48:53.000Z</time>
      </trkpt>
      <trkpt lat="43.67072" lon="3.82099">
        <ele>130</ele>
        <time>2020-10-17T08:48:54.000Z</time>
      </trkpt>
      <trkpt lat="43.67074" lon="3.82096">
        <ele>130</ele>
        <time>2020-10-17T08:48:55.000Z</time>
      </trkpt>
      <trkpt lat="43.67076" lon="3.82094">
        <ele>130</ele>
        <time>2020-10-17T08:48:56.000Z</time>
      </trkpt>
      <trkpt lat="43.67077" lon="3.82091">
        <ele>130</ele>
        <time>2020-10-17T08:48:57.000Z</time>
      </trkpt>
      <trkpt lat="43.67078" lon="3.8209">
        <ele>130</ele>
        <time>2020-10-17T08:48:58.000Z</time>
      </trkpt>
      <trkpt lat="43.6708" lon="3.82088">
        <ele>130</ele>
        <time>2020-10-17T08:48:59.000Z</time>
      </trkpt>
      <trkpt lat="43.67081" lon="3.82086">
        <ele>130</ele>
        <time>2020-10-17T08:49:00.000Z</time>
      </trkpt>
      <trkpt lat="43.67082" lon="3.82084">
        <ele>130</ele>
        <time>2020-10-17T08:49:01.000Z</time>
      </trkpt>
      <trkpt lat="43.67084" lon="3.82081">
        <ele>130</ele>
        <time>2020-10-17T08:49:02.000Z</time>
      </trkpt>
      <trkpt lat="43.67085" lon="3.82079">
        <ele>130</ele>
        <time>2020-10-17T08:49:03.000Z</time>
      </trkpt>
      <trkpt lat="43.67086" lon="3.82077">
        <ele>130</ele>
        <time>2020-10-17T08:49:04.000Z</time>
      </trkpt>
      <trkpt lat="43.67088" lon="3.82074">
        <ele>130</ele>
        <time>2020-10-17T08:49:05.000Z</time>
      </trkpt>
      <trkpt lat="43.67089" lon="3.82072">
        <ele>130</ele>
        <time>2020-10-17T08:49:06.000Z</time>
      </trkpt>
      <trkpt lat="43.67091" lon="3.82071">
        <ele>130</ele>
        <time>2020-10-17T08:49:07.000Z</time>
      </trkpt>
      <trkpt lat="43.67092" lon="3.82069">
        <ele>130</ele>
        <time>2020-10-17T08:49:08.000Z</time>
      </trkpt>
      <trkpt lat="43.67094" lon="3.82067">
        <ele>130</ele>
        <time>2020-10-17T08:49:09.000Z</time>
      </trkpt>
      <trkpt lat="43.67096" lon="3.82065">
        <ele>130</ele>
        <time>2020-10-17T08:49:10.000Z</time>
      </trkpt>
      <trkpt lat="43.67097" lon="3.82063">
        <ele>130</ele>
        <time>2020-10-17T08:49:11.000Z</time>
      </trkpt>
      <trkpt lat="43.67099" lon="3.82061">
        <ele>130</ele>
        <time>2020-10-17T08:49:12.000Z</time>
      </trkpt>
      <trkpt lat="43.67101" lon="3.82059">
        <ele>130</ele>
        <time>2020-10-17T08:49:13.000Z</time>
      </trkpt>
      <trkpt lat="43.67102" lon="3.82057">
        <ele>130</ele>
        <time>2020-10-17T08:49:14.000Z</time>
      </trkpt>
      <trkpt lat="43.67104" lon="3.82056">
        <ele>130.05310592584</ele>
        <time>2020-10-17T08:49:15.000Z</time>
      </trkpt>
      <trkpt lat="43.67106" lon="3.82054">
        <ele>130.1533063909</ele>
        <time>2020-10-17T08:49:16.000Z</time>
      </trkpt>
      <trkpt lat="43.67107" lon="3.82052">
        <ele>130.25350685596</ele>
        <time>2020-10-17T08:49:17.000Z</time>
      </trkpt>
      <trkpt lat="43.67109" lon="3.8205">
        <ele>130.35370732102</ele>
        <time>2020-10-17T08:49:18.000Z</time>
      </trkpt>
      <trkpt lat="43.6711" lon="3.82048">
        <ele>130.45390778607</ele>
        <time>2020-10-17T08:49:19.000Z</time>
      </trkpt>
      <trkpt lat="43.67111" lon="3.82046">
        <ele>130.55410825113</ele>
        <time>2020-10-17T08:49:20.000Z</time>
      </trkpt>
      <trkpt lat="43.67112" lon="3.82043">
        <ele>130.65430871619</ele>
        <time>2020-10-17T08:49:21.000Z</time>
      </trkpt>
      <trkpt lat="43.67113" lon="3.82041">
        <ele>130.75450918125</ele>
        <time>2020-10-17T08:49:22.000Z</time>
      </trkpt>
      <trkpt lat="43.67114" lon="3.82038">
        <ele>130.85470964631</ele>
        <time>2020-10-17T08:49:23.000Z</time>
      </trkpt>
      <trkpt lat="43.67115" lon="3.82035">
        <ele>130.95491011136</ele>
        <time>2020-10-17T08:49:24.000Z</time>
      </trkpt>
      <trkpt lat="43.67115" lon="3.82032">
        <ele>131.05500032</ele>
        <time>2020-10-17T08:49:25.000Z</time>
      </trkpt>
      <trkpt lat="43.67116" lon="3.82029">
        <ele>131.15500032</ele>
        <time>2020-10-17T08:49:26.000Z</time>
      </trkpt>
      <trkpt lat="43.67116" lon="3.82026">
        <ele>131.25500032</ele>
        <time>2020-10-17T08:49:27.000Z</time>
      </trkpt>
      <trkpt lat="43.67116" lon="3.82023">
        <ele>131.35500032</ele>
        <time>2020-10-17T08:49:28.000Z</time>
      </trkpt>
      <trkpt lat="43.67116" lon="3.8202">
        <ele>131.45500032</ele>
        <time>2020-10-17T08:49:29.000Z</time>
      </trkpt>
      <trkpt lat="43.67116" lon="3.82017">
        <ele>131.55500032</ele>
        <time>2020-10-17T08:49:30.000Z</time>
      </trkpt>
      <trkpt lat="43.67116" lon="3.82014">
        <ele>131.65500032</ele>
        <time>2020-10-17T08:49:31.000Z</time>
      </trkpt>
      <trkpt lat="43.67115" lon="3.82011">
        <ele>131.75500032</ele>
        <time>2020-10-17T08:49:32.000Z</time>
      </trkpt>
      <trkpt lat="43.67115" lon="3.82008">
        <ele>131.85500032</ele>
        <time>2020-10-17T08:49:33.000Z</time>
      </trkpt>
      <trkpt lat="43.67115" lon="3.82004">
        <ele>131.95500032</ele>
        <time>2020-10-17T08:49:34.000Z</time>
      </trkpt>
      <trkpt lat="43.67115" lon="3.82001">
        <ele>132.11000064</ele>
        <time>2020-10-17T08:49:35.000Z</time>
      </trkpt>
      <trkpt lat="43.67115" lon="3.81998">
        <ele>132.31000064</ele>
        <time>2020-10-17T08:49:36.000Z</time>
      </trkpt>
      <trkpt lat="43.67115" lon="3.81995">
        <ele>132.51000064</ele>
        <time>2020-10-17T08:49:37.000Z</time>
      </trkpt>
      <trkpt lat="43.67115" lon="3.81991">
        <ele>132.71000064</ele>
        <time>2020-10-17T08:49:38.000Z</time>
      </trkpt>
      <trkpt lat="43.67116" lon="3.81988">
        <ele>132.91000064</ele>
        <time>2020-10-17T08:49:39.000Z</time>
      </trkpt>
      <trkpt lat="43.67116" lon="3.81985">
        <ele>133.11000064</ele>
        <time>2020-10-17T08:49:40.000Z</time>
      </trkpt>
      <trkpt lat="43.67117" lon="3.81981">
        <ele>133.31000064</ele>
        <time>2020-10-17T08:49:41.000Z</time>
      </trkpt>
      <trkpt lat="43.67117" lon="3.81978">
        <ele>133.51000064</ele>
        <time>2020-10-17T08:49:42.000Z</time>
      </trkpt>
      <trkpt lat="43.67118" lon="3.81974">
        <ele>133.71000064</ele>
        <time>2020-10-17T08:49:43.000Z</time>
      </trkpt>
      <trkpt lat="43.67118" lon="3.81971">
        <ele>133.91000064</ele>
        <time>2020-10-17T08:49:44.000Z</time>
      </trkpt>
      <trkpt lat="43.67119" lon="3.81967">
        <ele>134.05500032</ele>
        <time>2020-10-17T08:49:45.000Z</time>
      </trkpt>
      <trkpt lat="43.67119" lon="3.81964">
        <ele>134.15500032</ele>
        <time>2020-10-17T08:49:46.000Z</time>
      </trkpt>
      <trkpt lat="43.6712" lon="3.8196">
        <ele>134.25500032</ele>
        <time>2020-10-17T08:49:47.000Z</time>
      </trkpt>
      <trkpt lat="43.6712" lon="3.81957">
        <ele>134.35500032</ele>
        <time>2020-10-17T08:49:48.000Z</time>
      </trkpt>
      <trkpt lat="43.67121" lon="3.81954">
        <ele>134.45500032</ele>
        <time>2020-10-17T08:49:49.000Z</time>
      </trkpt>
      <trkpt lat="43.67121" lon="3.81951">
        <ele>134.55500032</ele>
        <time>2020-10-17T08:49:50.000Z</time>
      </trkpt>
      <trkpt lat="43.67122" lon="3.81947">
        <ele>134.65500032</ele>
        <time>2020-10-17T08:49:51.000Z</time>
      </trkpt>
      <trkpt lat="43.67123" lon="3.81943">
        <ele>134.75500032</ele>
        <time>2020-10-17T08:49:52.000Z</time>
      </trkpt>
      <trkpt lat="43.67123" lon="3.81939">
        <ele>134.85500032</ele>
        <time>2020-10-17T08:49:53.000Z</time>
      </trkpt>
      <trkpt lat="43.67124" lon="3.81936">
        <ele>134.95500032</ele>
        <time>2020-10-17T08:49:54.000Z</time>
      </trkpt>
      <trkpt lat="43.67124" lon="3.81933">
        <ele>135.05500032</ele>
        <time>2020-10-17T08:49:55.000Z</time>
      </trkpt>
      <trkpt lat="43.67124" lon="3.8193">
        <ele>135.15500032</ele>
        <time>2020-10-17T08:49:56.000Z</time>
      </trkpt>
      <trkpt lat="43.67124" lon="3.81927">
        <ele>135.25500032</ele>
        <time>2020-10-17T08:49:57.000Z</time>
      </trkpt>
      <trkpt lat="43.67125" lon="3.81923">
        <ele>135.35500032</ele>
        <time>2020-10-17T08:49:58.000Z</time>
      </trkpt>
      <trkpt lat="43.67125" lon="3.8192">
        <ele>135.45500032</ele>
        <time>2020-10-17T08:49:59.000Z</time>
      </trkpt>
      <trkpt lat="43.67125" lon="3.81917">
        <ele>135.55500032</ele>
        <time>2020-10-17T08:50:00.000Z</time>
      </trkpt>
      <trkpt lat="43.67125" lon="3.81914">
        <ele>135.65500032</ele>
        <time>2020-10-17T08:50:01.000Z</time>
      </trkpt>
      <trkpt lat="43.67125" lon="3.81911">
        <ele>135.75500032</ele>
        <time>2020-10-17T08:50:02.000Z</time>
      </trkpt>
      <trkpt lat="43.67125" lon="3.81908">
        <ele>135.85500032</ele>
        <time>2020-10-17T08:50:03.000Z</time>
      </trkpt>
      <trkpt lat="43.67125" lon="3.81905">
        <ele>135.95500032</ele>
        <time>2020-10-17T08:50:04.000Z</time>
      </trkpt>
      <trkpt lat="43.67125" lon="3.81901">
        <ele>136</ele>
        <time>2020-10-17T08:50:06.000Z</time>
      </trkpt>
      <trkpt lat="43.67123" lon="3.81897">
        <ele>136</ele>
        <time>2020-10-17T08:50:08.000Z</time>
      </trkpt>
      <trkpt lat="43.67121" lon="3.81895">
        <ele>136</ele>
        <time>2020-10-17T08:50:10.000Z</time>
      </trkpt>
      <trkpt lat="43.67121" lon="3.81898">
        <ele>136</ele>
        <time>2020-10-17T08:50:12.000Z</time>
      </trkpt>
      <trkpt lat="43.67122" lon="3.819">
        <ele>136</ele>
        <time>2020-10-17T08:50:13.000Z</time>
      </trkpt>
      <trkpt lat="43.67123" lon="3.81903">
        <ele>136</ele>
        <time>2020-10-17T08:50:14.000Z</time>
      </trkpt>
      <trkpt lat="43.67125" lon="3.81904">
        <ele>135.97022618167</ele>
        <time>2020-10-17T08:50:15.000Z</time>
      </trkpt>
      <trkpt lat="43.67127" lon="3.81902">
        <ele>135.76488723771</ele>
        <time>2020-10-17T08:50:17.000Z</time>
      </trkpt>
      <trkpt lat="43.67126" lon="3.81899">
        <ele>135.55954829375</ele>
        <time>2020-10-17T08:50:19.000Z</time>
      </trkpt>
      <trkpt lat="43.67123" lon="3.81901">
        <ele>135.35420934979</ele>
        <time>2020-10-17T08:50:21.000Z</time>
      </trkpt>
      <trkpt lat="43.67123" lon="3.81904">
        <ele>135.14887040583</ele>
        <time>2020-10-17T08:50:23.000Z</time>
      </trkpt>
      <trkpt lat="43.67126" lon="3.81904">
        <ele>135</ele>
        <time>2020-10-17T08:50:26.000Z</time>
      </trkpt>
      <trkpt lat="43.67126" lon="3.81901">
        <ele>135</ele>
        <time>2020-10-17T08:50:27.000Z</time>
      </trkpt>
      <trkpt lat="43.67126" lon="3.81898">
        <ele>135</ele>
        <time>2020-10-17T08:50:28.000Z</time>
      </trkpt>
      <trkpt lat="43.67125" lon="3.81894">
        <ele>135</ele>
        <time>2020-10-17T08:50:29.000Z</time>
      </trkpt>
      <trkpt lat="43.67125" lon="3.81891">
        <ele>135</ele>
        <time>2020-10-17T08:50:30.000Z</time>
      </trkpt>
      <trkpt lat="43.67125" lon="3.81888">
        <ele>135</ele>
        <time>2020-10-17T08:50:31.000Z</time>
      </trkpt>
      <trkpt lat="43.67125" lon="3.81885">
        <ele>135</ele>
        <time>2020-10-17T08:50:32.000Z</time>
      </trkpt>
      <trkpt lat="43.67125" lon="3.81882">
        <ele>135</ele>
        <time>2020-10-17T08:50:33.000Z</time>
      </trkpt>
      <trkpt lat="43.67125" lon="3.81877">
        <ele>135.05350225681</ele>
        <time>2020-10-17T08:50:35.000Z</time>
      </trkpt>
      <trkpt lat="43.67124" lon="3.81873">
        <ele>135.24805478599</ele>
        <time>2020-10-17T08:50:37.000Z</time>
      </trkpt>
      <trkpt lat="43.67124" lon="3.81868">
        <ele>135.44260731517</ele>
        <time>2020-10-17T08:50:39.000Z</time>
      </trkpt>
      <trkpt lat="43.67123" lon="3.81865">
        <ele>135.53988357977</ele>
        <time>2020-10-17T08:50:40.000Z</time>
      </trkpt>
      <trkpt lat="43.67123" lon="3.81863">
        <ele>135.63715984436</ele>
        <time>2020-10-17T08:50:41.000Z</time>
      </trkpt>
      <trkpt lat="43.67122" lon="3.8186">
        <ele>135.73443610895</ele>
        <time>2020-10-17T08:50:42.000Z</time>
      </trkpt>
      <trkpt lat="43.67122" lon="3.81857">
        <ele>135.83171237354</ele>
        <time>2020-10-17T08:50:43.000Z</time>
      </trkpt>
      <trkpt lat="43.67122" lon="3.81853">
        <ele>135.92898863813</ele>
        <time>2020-10-17T08:50:44.000Z</time>
      </trkpt>
      <trkpt lat="43.67122" lon="3.8185">
        <ele>136</ele>
        <time>2020-10-17T08:50:45.000Z</time>
      </trkpt>
      <trkpt lat="43.67121" lon="3.81846">
        <ele>136</ele>
        <time>2020-10-17T08:50:46.000Z</time>
      </trkpt>
      <trkpt lat="43.6712" lon="3.81842">
        <ele>136</ele>
        <time>2020-10-17T08:50:47.000Z</time>
      </trkpt>
      <trkpt lat="43.6712" lon="3.81838">
        <ele>136</ele>
        <time>2020-10-17T08:50:48.000Z</time>
      </trkpt>
      <trkpt lat="43.67119" lon="3.81834">
        <ele>136</ele>
        <time>2020-10-17T08:50:49.000Z</time>
      </trkpt>
      <trkpt lat="43.67118" lon="3.81829">
        <ele>136</ele>
        <time>2020-10-17T08:50:50.000Z</time>
      </trkpt>
      <trkpt lat="43.67117" lon="3.81824">
        <ele>136</ele>
        <time>2020-10-17T08:50:51.000Z</time>
      </trkpt>
      <trkpt lat="43.67116" lon="3.81818">
        <ele>136</ele>
        <time>2020-10-17T08:50:52.000Z</time>
      </trkpt>
      <trkpt lat="43.67114" lon="3.81812">
        <ele>136</ele>
        <time>2020-10-17T08:50:53.000Z</time>
      </trkpt>
      <trkpt lat="43.67112" lon="3.81806">
        <ele>136</ele>
        <time>2020-10-17T08:50:54.000Z</time>
      </trkpt>
      <trkpt lat="43.6711" lon="3.818">
        <ele>135.94499968</ele>
        <time>2020-10-17T08:50:55.000Z</time>
      </trkpt>
      <trkpt lat="43.67107" lon="3.81793">
        <ele>135.84499968</ele>
        <time>2020-10-17T08:50:56.000Z</time>
      </trkpt>
      <trkpt lat="43.67104" lon="3.81788">
        <ele>135.74499968</ele>
        <time>2020-10-17T08:50:57.000Z</time>
      </trkpt>
      <trkpt lat="43.671" lon="3.81782">
        <ele>135.64499968</ele>
        <time>2020-10-17T08:50:58.000Z</time>
      </trkpt>
      <trkpt lat="43.67097" lon="3.81777">
        <ele>135.54499968</ele>
        <time>2020-10-17T08:50:59.000Z</time>
      </trkpt>
      <trkpt lat="43.67094" lon="3.81773">
        <ele>135.44499968</ele>
        <time>2020-10-17T08:51:00.000Z</time>
      </trkpt>
      <trkpt lat="43.67091" lon="3.81769">
        <ele>135.34499968</ele>
        <time>2020-10-17T08:51:01.000Z</time>
      </trkpt>
      <trkpt lat="43.67088" lon="3.81765">
        <ele>135.24499968</ele>
        <time>2020-10-17T08:51:02.000Z</time>
      </trkpt>
      <trkpt lat="43.67085" lon="3.81762">
        <ele>135.14499968</ele>
        <time>2020-10-17T08:51:03.000Z</time>
      </trkpt>
      <trkpt lat="43.67083" lon="3.81759">
        <ele>135.04499968</ele>
        <time>2020-10-17T08:51:04.000Z</time>
      </trkpt>
      <trkpt lat="43.6708" lon="3.81755">
        <ele>135</ele>
        <time>2020-10-17T08:51:05.000Z</time>
      </trkpt>
      <trkpt lat="43.67078" lon="3.81752">
        <ele>135</ele>
        <time>2020-10-17T08:51:06.000Z</time>
      </trkpt>
      <trkpt lat="43.67075" lon="3.8175">
        <ele>135</ele>
        <time>2020-10-17T08:51:07.000Z</time>
      </trkpt>
      <trkpt lat="43.67073" lon="3.81747">
        <ele>135</ele>
        <time>2020-10-17T08:51:08.000Z</time>
      </trkpt>
      <trkpt lat="43.6707" lon="3.81745">
        <ele>135</ele>
        <time>2020-10-17T08:51:09.000Z</time>
      </trkpt>
      <trkpt lat="43.67068" lon="3.81742">
        <ele>135</ele>
        <time>2020-10-17T08:51:10.000Z</time>
      </trkpt>
      <trkpt lat="43.67065" lon="3.81739">
        <ele>135</ele>
        <time>2020-10-17T08:51:11.000Z</time>
      </trkpt>
      <trkpt lat="43.67063" lon="3.81737">
        <ele>135</ele>
        <time>2020-10-17T08:51:12.000Z</time>
      </trkpt>
      <trkpt lat="43.6706" lon="3.81735">
        <ele>135</ele>
        <time>2020-10-17T08:51:13.000Z</time>
      </trkpt>
      <trkpt lat="43.67057" lon="3.81733">
        <ele>135</ele>
        <time>2020-10-17T08:51:14.000Z</time>
      </trkpt>
      <trkpt lat="43.67054" lon="3.81731">
        <ele>134.88999936</ele>
        <time>2020-10-17T08:51:15.000Z</time>
      </trkpt>
      <trkpt lat="43.67051" lon="3.81729">
        <ele>134.68999936</ele>
        <time>2020-10-17T08:51:16.000Z</time>
      </trkpt>
      <trkpt lat="43.67048" lon="3.81727">
        <ele>134.48999936</ele>
        <time>2020-10-17T08:51:17.000Z</time>
      </trkpt>
      <trkpt lat="43.67046" lon="3.81725">
        <ele>134.28999936</ele>
        <time>2020-10-17T08:51:18.000Z</time>
      </trkpt>
      <trkpt lat="43.67043" lon="3.81721">
        <ele>134.08999936</ele>
        <time>2020-10-17T08:51:19.000Z</time>
      </trkpt>
      <trkpt lat="43.6704" lon="3.81717">
        <ele>133.88999936</ele>
        <time>2020-10-17T08:51:20.000Z</time>
      </trkpt>
      <trkpt lat="43.67038" lon="3.81712">
        <ele>133.68999936</ele>
        <time>2020-10-17T08:51:21.000Z</time>
      </trkpt>
      <trkpt lat="43.67035" lon="3.81706">
        <ele>133.48999936</ele>
        <time>2020-10-17T08:51:22.000Z</time>
      </trkpt>
      <trkpt lat="43.67031" lon="3.81701">
        <ele>133.28999936</ele>
        <time>2020-10-17T08:51:23.000Z</time>
      </trkpt>
      <trkpt lat="43.67028" lon="3.81695">
        <ele>133.08999936</ele>
        <time>2020-10-17T08:51:24.000Z</time>
      </trkpt>
      <trkpt lat="43.67024" lon="3.81689">
        <ele>132.88999936</ele>
        <time>2020-10-17T08:51:25.000Z</time>
      </trkpt>
      <trkpt lat="43.6702" lon="3.81684">
        <ele>132.68999936</ele>
        <time>2020-10-17T08:51:26.000Z</time>
      </trkpt>
      <trkpt lat="43.67016" lon="3.8168">
        <ele>132.48999936</ele>
        <time>2020-10-17T08:51:27.000Z</time>
      </trkpt>
      <trkpt lat="43.67012" lon="3.81675">
        <ele>132.28999936</ele>
        <time>2020-10-17T08:51:28.000Z</time>
      </trkpt>
      <trkpt lat="43.67007" lon="3.8167">
        <ele>132.08999936</ele>
        <time>2020-10-17T08:51:29.000Z</time>
      </trkpt>
      <trkpt lat="43.67003" lon="3.81666">
        <ele>131.88999936</ele>
        <time>2020-10-17T08:51:30.000Z</time>
      </trkpt>
      <trkpt lat="43.67" lon="3.81662">
        <ele>131.68999936</ele>
        <time>2020-10-17T08:51:31.000Z</time>
      </trkpt>
      <trkpt lat="43.66997" lon="3.8166">
        <ele>131.48999936</ele>
        <time>2020-10-17T08:51:32.000Z</time>
      </trkpt>
      <trkpt lat="43.66996" lon="3.81658">
        <ele>131.28999936</ele>
        <time>2020-10-17T08:51:33.000Z</time>
      </trkpt>
      <trkpt lat="43.66993" lon="3.81655">
        <ele>130.88999936</ele>
        <time>2020-10-17T08:51:35.000Z</time>
      </trkpt>
      <trkpt lat="43.66991" lon="3.81651">
        <ele>130.48999936</ele>
        <time>2020-10-17T08:51:37.000Z</time>
      </trkpt>
      <trkpt lat="43.66989" lon="3.81649">
        <ele>130.28999936</ele>
        <time>2020-10-17T08:51:38.000Z</time>
      </trkpt>
      <trkpt lat="43.66988" lon="3.81647">
        <ele>130.08999936</ele>
        <time>2020-10-17T08:51:39.000Z</time>
      </trkpt>
      <trkpt lat="43.66986" lon="3.81643">
        <ele>129.88999936</ele>
        <time>2020-10-17T08:51:40.000Z</time>
      </trkpt>
      <trkpt lat="43.66984" lon="3.81639">
        <ele>129.68999936</ele>
        <time>2020-10-17T08:51:41.000Z</time>
      </trkpt>
      <trkpt lat="43.66982" lon="3.81635">
        <ele>129.48999936</ele>
        <time>2020-10-17T08:51:42.000Z</time>
      </trkpt>
      <trkpt lat="43.6698" lon="3.81631">
        <ele>129.28999936</ele>
        <time>2020-10-17T08:51:43.000Z</time>
      </trkpt>
      <trkpt lat="43.66979" lon="3.81629">
        <ele>129.08999936</ele>
        <time>2020-10-17T08:51:44.000Z</time>
      </trkpt>
      <trkpt lat="43.66978" lon="3.81625">
        <ele>128.7072704945</ele>
        <time>2020-10-17T08:51:46.000Z</time>
      </trkpt>
      <trkpt lat="43.66976" lon="3.81621">
        <ele>128.32955578333</ele>
        <time>2020-10-17T08:51:48.000Z</time>
      </trkpt>
      <trkpt lat="43.66975" lon="3.81619">
        <ele>128.14069842774</ele>
        <time>2020-10-17T08:51:49.000Z</time>
      </trkpt>
      <trkpt lat="43.66973" lon="3.81616">
        <ele>127.95184107215</ele>
        <time>2020-10-17T08:51:50.000Z</time>
      </trkpt>
      <trkpt lat="43.66971" lon="3.81612">
        <ele>127.76298371657</ele>
        <time>2020-10-17T08:51:51.000Z</time>
      </trkpt>
      <trkpt lat="43.66967" lon="3.81609">
        <ele>127.57412636098</ele>
        <time>2020-10-17T08:51:52.000Z</time>
      </trkpt>
      <trkpt lat="43.66963" lon="3.81604">
        <ele>127.3852690054</ele>
        <time>2020-10-17T08:51:53.000Z</time>
      </trkpt>
      <trkpt lat="43.66959" lon="3.81597">
        <ele>127.19641164981</ele>
        <time>2020-10-17T08:51:54.000Z</time>
      </trkpt>
      <trkpt lat="43.66953" lon="3.81589">
        <ele>127.00755429422</ele>
        <time>2020-10-17T08:51:55.000Z</time>
      </trkpt>
      <trkpt lat="43.66945" lon="3.81583">
        <ele>126.69394251016</ele>
        <time>2020-10-17T08:51:56.000Z</time>
      </trkpt>
      <trkpt lat="43.66938" lon="3.81578">
        <ele>126.37513262491</ele>
        <time>2020-10-17T08:51:57.000Z</time>
      </trkpt>
      <trkpt lat="43.6693" lon="3.81575">
        <ele>126.05632273966</ele>
        <time>2020-10-17T08:51:58.000Z</time>
      </trkpt>
      <trkpt lat="43.66923" lon="3.81574">
        <ele>125.73751285442</ele>
        <time>2020-10-17T08:51:59.000Z</time>
      </trkpt>
      <trkpt lat="43.66917" lon="3.81573">
        <ele>125.41870296917</ele>
        <time>2020-10-17T08:52:00.000Z</time>
      </trkpt>
      <trkpt lat="43.66912" lon="3.81572">
        <ele>125.09989308392</ele>
        <time>2020-10-17T08:52:01.000Z</time>
      </trkpt>
      <trkpt lat="43.66907" lon="3.81572">
        <ele>124.78108319867</ele>
        <time>2020-10-17T08:52:02.000Z</time>
      </trkpt>
      <trkpt lat="43.66903" lon="3.81571">
        <ele>124.46227331342</ele>
        <time>2020-10-17T08:52:03.000Z</time>
      </trkpt>
      <trkpt lat="43.66899" lon="3.8157">
        <ele>124.14346342817</ele>
        <time>2020-10-17T08:52:04.000Z</time>
      </trkpt>
      <trkpt lat="43.66896" lon="3.81568">
        <ele>124.05500032</ele>
        <time>2020-10-17T08:52:05.000Z</time>
      </trkpt>
      <trkpt lat="43.66892" lon="3.81566">
        <ele>124.15500032</ele>
        <time>2020-10-17T08:52:06.000Z</time>
      </trkpt>
      <trkpt lat="43.66889" lon="3.81563">
        <ele>124.25500032</ele>
        <time>2020-10-17T08:52:07.000Z</time>
      </trkpt>
      <trkpt lat="43.66886" lon="3.81559">
        <ele>124.35500032</ele>
        <time>2020-10-17T08:52:08.000Z</time>
      </trkpt>
      <trkpt lat="43.66883" lon="3.81555">
        <ele>124.45500032</ele>
        <time>2020-10-17T08:52:09.000Z</time>
      </trkpt>
      <trkpt lat="43.6688" lon="3.81551">
        <ele>124.55500032</ele>
        <time>2020-10-17T08:52:10.000Z</time>
      </trkpt>
      <trkpt lat="43.66878" lon="3.81548">
        <ele>124.65500032</ele>
        <time>2020-10-17T08:52:11.000Z</time>
      </trkpt>
      <trkpt lat="43.66875" lon="3.81544">
        <ele>124.75500032</ele>
        <time>2020-10-17T08:52:12.000Z</time>
      </trkpt>
      <trkpt lat="43.66873" lon="3.81541">
        <ele>124.85500032</ele>
        <time>2020-10-17T08:52:13.000Z</time>
      </trkpt>
      <trkpt lat="43.6687" lon="3.81539">
        <ele>124.95500032</ele>
        <time>2020-10-17T08:52:14.000Z</time>
      </trkpt>
      <trkpt lat="43.66867" lon="3.81537">
        <ele>125</ele>
        <time>2020-10-17T08:52:15.000Z</time>
      </trkpt>
      <trkpt lat="43.66865" lon="3.81535">
        <ele>125</ele>
        <time>2020-10-17T08:52:16.000Z</time>
      </trkpt>
      <trkpt lat="43.66863" lon="3.81533">
        <ele>125</ele>
        <time>2020-10-17T08:52:17.000Z</time>
      </trkpt>
      <trkpt lat="43.6686" lon="3.81531">
        <ele>125</ele>
        <time>2020-10-17T08:52:18.000Z</time>
      </trkpt>
      <trkpt lat="43.66858" lon="3.81528">
        <ele>125</ele>
        <time>2020-10-17T08:52:19.000Z</time>
      </trkpt>
      <trkpt lat="43.66856" lon="3.81527">
        <ele>125</ele>
        <time>2020-10-17T08:52:20.000Z</time>
      </trkpt>
      <trkpt lat="43.66853" lon="3.81526">
        <ele>125</ele>
        <time>2020-10-17T08:52:21.000Z</time>
      </trkpt>
      <trkpt lat="43.66851" lon="3.81525">
        <ele>125</ele>
        <time>2020-10-17T08:52:22.000Z</time>
      </trkpt>
      <trkpt lat="43.66849" lon="3.81524">
        <ele>125</ele>
        <time>2020-10-17T08:52:23.000Z</time>
      </trkpt>
      <trkpt lat="43.66848" lon="3.81522">
        <ele>125</ele>
        <time>2020-10-17T08:52:24.000Z</time>
      </trkpt>
      <trkpt lat="43.66845" lon="3.81519">
        <ele>125.30599936</ele>
        <time>2020-10-17T08:52:26.000Z</time>
      </trkpt>
      <trkpt lat="43.66842" lon="3.81517">
        <ele>125.70599936</ele>
        <time>2020-10-17T08:52:28.000Z</time>
      </trkpt>
      <trkpt lat="43.6684" lon="3.81515">
        <ele>126.10599936</ele>
        <time>2020-10-17T08:52:30.000Z</time>
      </trkpt>
      <trkpt lat="43.66838" lon="3.81513">
        <ele>126.50599936</ele>
        <time>2020-10-17T08:52:32.000Z</time>
      </trkpt>
      <trkpt lat="43.66836" lon="3.81512">
        <ele>126.90599936</ele>
        <time>2020-10-17T08:52:34.000Z</time>
      </trkpt>
      <trkpt lat="43.66834" lon="3.8151">
        <ele>127.1533063909</ele>
        <time>2020-10-17T08:52:36.000Z</time>
      </trkpt>
      <trkpt lat="43.66832" lon="3.81508">
        <ele>127.35370732101</ele>
        <time>2020-10-17T08:52:38.000Z</time>
      </trkpt>
      <trkpt lat="43.6683" lon="3.81506">
        <ele>127.55410825113</ele>
        <time>2020-10-17T08:52:40.000Z</time>
      </trkpt>
      <trkpt lat="43.66827" lon="3.81504">
        <ele>127.75450918125</ele>
        <time>2020-10-17T08:52:42.000Z</time>
      </trkpt>
      <trkpt lat="43.66824" lon="3.81502">
        <ele>127.95491011136</ele>
        <time>2020-10-17T08:52:44.000Z</time>
      </trkpt>
      <trkpt lat="43.66821" lon="3.815">
        <ele>128.15500032</ele>
        <time>2020-10-17T08:52:46.000Z</time>
      </trkpt>
      <trkpt lat="43.66818" lon="3.81498">
        <ele>128.35500032</ele>
        <time>2020-10-17T08:52:48.000Z</time>
      </trkpt>
      <trkpt lat="43.66816" lon="3.81497">
        <ele>128.45500032</ele>
        <time>2020-10-17T08:52:49.000Z</time>
      </trkpt>
      <trkpt lat="43.66813" lon="3.81495">
        <ele>128.65500032</ele>
        <time>2020-10-17T08:52:51.000Z</time>
      </trkpt>
      <trkpt lat="43.6681" lon="3.81493">
        <ele>128.85500032</ele>
        <time>2020-10-17T08:52:53.000Z</time>
      </trkpt>
      <trkpt lat="43.66809" lon="3.81493">
        <ele>128.95500032</ele>
        <time>2020-10-17T08:52:54.000Z</time>
      </trkpt>
      <trkpt lat="43.66805" lon="3.81491">
        <ele>129.15500032</ele>
        <time>2020-10-17T08:52:56.000Z</time>
      </trkpt>
      <trkpt lat="43.66804" lon="3.8149">
        <ele>129.25500032</ele>
        <time>2020-10-17T08:52:57.000Z</time>
      </trkpt>
      <trkpt lat="43.66802" lon="3.81489">
        <ele>129.35500032</ele>
        <time>2020-10-17T08:52:58.000Z</time>
      </trkpt>
      <trkpt lat="43.668" lon="3.81487">
        <ele>129.45500032</ele>
        <time>2020-10-17T08:52:59.000Z</time>
      </trkpt>
      <trkpt lat="43.66798" lon="3.81486">
        <ele>129.55500032</ele>
        <time>2020-10-17T08:53:00.000Z</time>
      </trkpt>
      <trkpt lat="43.66796" lon="3.81485">
        <ele>129.65500032</ele>
        <time>2020-10-17T08:53:01.000Z</time>
      </trkpt>
      <trkpt lat="43.66795" lon="3.81483">
        <ele>129.75500032</ele>
        <time>2020-10-17T08:53:02.000Z</time>
      </trkpt>
      <trkpt lat="43.66793" lon="3.81481">
        <ele>129.85500032</ele>
        <time>2020-10-17T08:53:03.000Z</time>
      </trkpt>
      <trkpt lat="43.66792" lon="3.8148">
        <ele>129.95500032</ele>
        <time>2020-10-17T08:53:04.000Z</time>
      </trkpt>
      <trkpt lat="43.6679" lon="3.81479">
        <ele>130.05500032</ele>
        <time>2020-10-17T08:53:05.000Z</time>
      </trkpt>
      <trkpt lat="43.66788" lon="3.81477">
        <ele>130.15500032</ele>
        <time>2020-10-17T08:53:06.000Z</time>
      </trkpt>
      <trkpt lat="43.66787" lon="3.81476">
        <ele>130.25500032</ele>
        <time>2020-10-17T08:53:07.000Z</time>
      </trkpt>
      <trkpt lat="43.66785" lon="3.81474">
        <ele>130.35500032</ele>
        <time>2020-10-17T08:53:08.000Z</time>
      </trkpt>
      <trkpt lat="43.66784" lon="3.81473">
        <ele>130.45500032</ele>
        <time>2020-10-17T08:53:09.000Z</time>
      </trkpt>
      <trkpt lat="43.66782" lon="3.81471">
        <ele>130.55500032</ele>
        <time>2020-10-17T08:53:10.000Z</time>
      </trkpt>
      <trkpt lat="43.6678" lon="3.81469">
        <ele>130.65500032</ele>
        <time>2020-10-17T08:53:11.000Z</time>
      </trkpt>
      <trkpt lat="43.66779" lon="3.81468">
        <ele>130.75500032</ele>
        <time>2020-10-17T08:53:12.000Z</time>
      </trkpt>
      <trkpt lat="43.66777" lon="3.81466">
        <ele>130.85500032</ele>
        <time>2020-10-17T08:53:13.000Z</time>
      </trkpt>
      <trkpt lat="43.66775" lon="3.81465">
        <ele>130.95500032</ele>
        <time>2020-10-17T08:53:14.000Z</time>
      </trkpt>
      <trkpt lat="43.66773" lon="3.81464">
        <ele>131</ele>
        <time>2020-10-17T08:53:15.000Z</time>
      </trkpt>
      <trkpt lat="43.6677" lon="3.81462">
        <ele>131</ele>
        <time>2020-10-17T08:53:17.000Z</time>
      </trkpt>
      <trkpt lat="43.66768" lon="3.81461">
        <ele>131</ele>
        <time>2020-10-17T08:53:18.000Z</time>
      </trkpt>
      <trkpt lat="43.66765" lon="3.81459">
        <ele>131</ele>
        <time>2020-10-17T08:53:20.000Z</time>
      </trkpt>
      <trkpt lat="43.66762" lon="3.81458">
        <ele>131</ele>
        <time>2020-10-17T08:53:22.000Z</time>
      </trkpt>
      <trkpt lat="43.6676" lon="3.81457">
        <ele>131</ele>
        <time>2020-10-17T08:53:23.000Z</time>
      </trkpt>
      <trkpt lat="43.66757" lon="3.81455">
        <ele>131.05500032</ele>
        <time>2020-10-17T08:53:25.000Z</time>
      </trkpt>
      <trkpt lat="43.66753" lon="3.81454">
        <ele>131.25500032</ele>
        <time>2020-10-17T08:53:27.000Z</time>
      </trkpt>
      <trkpt lat="43.6675" lon="3.81453">
        <ele>131.45500032</ele>
        <time>2020-10-17T08:53:29.000Z</time>
      </trkpt>
      <trkpt lat="43.66748" lon="3.81452">
        <ele>131.55500032</ele>
        <time>2020-10-17T08:53:30.000Z</time>
      </trkpt>
      <trkpt lat="43.66746" lon="3.81451">
        <ele>131.65500032</ele>
        <time>2020-10-17T08:53:31.000Z</time>
      </trkpt>
      <trkpt lat="43.66743" lon="3.8145">
        <ele>131.85500032</ele>
        <time>2020-10-17T08:53:33.000Z</time>
      </trkpt>
      <trkpt lat="43.6674" lon="3.81448">
        <ele>132</ele>
        <time>2020-10-17T08:53:35.000Z</time>
      </trkpt>
      <trkpt lat="43.66738" lon="3.81448">
        <ele>132</ele>
        <time>2020-10-17T08:53:36.000Z</time>
      </trkpt>
      <trkpt lat="43.66736" lon="3.81447">
        <ele>132</ele>
        <time>2020-10-17T08:53:37.000Z</time>
      </trkpt>
      <trkpt lat="43.66735" lon="3.81447">
        <ele>132</ele>
        <time>2020-10-17T08:53:38.000Z</time>
      </trkpt>
      <trkpt lat="43.66733" lon="3.81446">
        <ele>132</ele>
        <time>2020-10-17T08:53:39.000Z</time>
      </trkpt>
      <trkpt lat="43.66731" lon="3.81445">
        <ele>132</ele>
        <time>2020-10-17T08:53:40.000Z</time>
      </trkpt>
      <trkpt lat="43.66729" lon="3.81445">
        <ele>132</ele>
        <time>2020-10-17T08:53:41.000Z</time>
      </trkpt>
      <trkpt lat="43.66725" lon="3.81443">
        <ele>132</ele>
        <time>2020-10-17T08:53:43.000Z</time>
      </trkpt>
      <trkpt lat="43.66722" lon="3.81442">
        <ele>132.05500032</ele>
        <time>2020-10-17T08:53:45.000Z</time>
      </trkpt>
      <trkpt lat="43.6672" lon="3.81441">
        <ele>132.15500032</ele>
        <time>2020-10-17T08:53:46.000Z</time>
      </trkpt>
      <trkpt lat="43.66719" lon="3.81441">
        <ele>132.25500032</ele>
        <time>2020-10-17T08:53:47.000Z</time>
      </trkpt>
      <trkpt lat="43.66717" lon="3.8144">
        <ele>132.35500032</ele>
        <time>2020-10-17T08:53:48.000Z</time>
      </trkpt>
      <trkpt lat="43.66715" lon="3.8144">
        <ele>132.45500032</ele>
        <time>2020-10-17T08:53:49.000Z</time>
      </trkpt>
      <trkpt lat="43.66711" lon="3.81439">
        <ele>132.65500032</ele>
        <time>2020-10-17T08:53:51.000Z</time>
      </trkpt>
      <trkpt lat="43.6671" lon="3.81438">
        <ele>132.75500032</ele>
        <time>2020-10-17T08:53:52.000Z</time>
      </trkpt>
      <trkpt lat="43.66706" lon="3.81438">
        <ele>132.95500032</ele>
        <time>2020-10-17T08:53:54.000Z</time>
      </trkpt>
      <trkpt lat="43.66703" lon="3.81437">
        <ele>133</ele>
        <time>2020-10-17T08:53:56.000Z</time>
      </trkpt>
      <trkpt lat="43.66701" lon="3.81435">
        <ele>133</ele>
        <time>2020-10-17T08:53:57.000Z</time>
      </trkpt>
      <trkpt lat="43.66699" lon="3.81434">
        <ele>133</ele>
        <time>2020-10-17T08:53:58.000Z</time>
      </trkpt>
      <trkpt lat="43.66697" lon="3.81433">
        <ele>133</ele>
        <time>2020-10-17T08:53:59.000Z</time>
      </trkpt>
      <trkpt lat="43.66695" lon="3.81431">
        <ele>133</ele>
        <time>2020-10-17T08:54:00.000Z</time>
      </trkpt>
      <trkpt lat="43.66693" lon="3.8143">
        <ele>133</ele>
        <time>2020-10-17T08:54:01.000Z</time>
      </trkpt>
      <trkpt lat="43.66692" lon="3.81428">
        <ele>133</ele>
        <time>2020-10-17T08:54:02.000Z</time>
      </trkpt>
      <trkpt lat="43.6669" lon="3.81426">
        <ele>133</ele>
        <time>2020-10-17T08:54:03.000Z</time>
      </trkpt>
      <trkpt lat="43.66688" lon="3.81423">
        <ele>133</ele>
        <time>2020-10-17T08:54:04.000Z</time>
      </trkpt>
      <trkpt lat="43.66687" lon="3.81421">
        <ele>133.05500032</ele>
        <time>2020-10-17T08:54:05.000Z</time>
      </trkpt>
      <trkpt lat="43.66686" lon="3.81419">
        <ele>133.15500032</ele>
        <time>2020-10-17T08:54:06.000Z</time>
      </trkpt>
      <trkpt lat="43.66685" lon="3.81416">
        <ele>133.25500032</ele>
        <time>2020-10-17T08:54:07.000Z</time>
      </trkpt>
      <trkpt lat="43.66684" lon="3.81414">
        <ele>133.35500032</ele>
        <time>2020-10-17T08:54:08.000Z</time>
      </trkpt>
      <trkpt lat="43.66683" lon="3.81412">
        <ele>133.45500032</ele>
        <time>2020-10-17T08:54:09.000Z</time>
      </trkpt>
      <trkpt lat="43.66681" lon="3.81409">
        <ele>133.65500032</ele>
        <time>2020-10-17T08:54:11.000Z</time>
      </trkpt>
      <trkpt lat="43.66679" lon="3.81407">
        <ele>133.85500032</ele>
        <time>2020-10-17T08:54:13.000Z</time>
      </trkpt>
      <trkpt lat="43.66676" lon="3.81404">
        <ele>134</ele>
        <time>2020-10-17T08:54:15.000Z</time>
      </trkpt>
      <trkpt lat="43.66676" lon="3.81401">
        <ele>134</ele>
        <time>2020-10-17T08:54:17.000Z</time>
      </trkpt>
      <trkpt lat="43.66676" lon="3.81398">
        <ele>134</ele>
        <time>2020-10-17T08:54:19.000Z</time>
      </trkpt>
      <trkpt lat="43.66676" lon="3.81394">
        <ele>134</ele>
        <time>2020-10-17T08:54:21.000Z</time>
      </trkpt>
      <trkpt lat="43.66676" lon="3.81391">
        <ele>134</ele>
        <time>2020-10-17T08:54:23.000Z</time>
      </trkpt>
      <trkpt lat="43.66677" lon="3.81386">
        <ele>134</ele>
        <time>2020-10-17T08:54:25.000Z</time>
      </trkpt>
      <trkpt lat="43.66678" lon="3.81384">
        <ele>134</ele>
        <time>2020-10-17T08:54:26.000Z</time>
      </trkpt>
      <trkpt lat="43.66679" lon="3.81379">
        <ele>134</ele>
        <time>2020-10-17T08:54:28.000Z</time>
      </trkpt>
      <trkpt lat="43.66679" lon="3.81374">
        <ele>134</ele>
        <time>2020-10-17T08:54:30.000Z</time>
      </trkpt>
      <trkpt lat="43.66681" lon="3.8137">
        <ele>134</ele>
        <time>2020-10-17T08:54:32.000Z</time>
      </trkpt>
      <trkpt lat="43.66682" lon="3.81366">
        <ele>134</ele>
        <time>2020-10-17T08:54:34.000Z</time>
      </trkpt>
      <trkpt lat="43.66683" lon="3.81362">
        <ele>134.15500032</ele>
        <time>2020-10-17T08:54:36.000Z</time>
      </trkpt>
      <trkpt lat="43.66685" lon="3.81357">
        <ele>134.35500032</ele>
        <time>2020-10-17T08:54:38.000Z</time>
      </trkpt>
      <trkpt lat="43.66687" lon="3.81354">
        <ele>134.55500032</ele>
        <time>2020-10-17T08:54:40.000Z</time>
      </trkpt>
      <trkpt lat="43.66688" lon="3.81349">
        <ele>134.75500032</ele>
        <time>2020-10-17T08:54:42.000Z</time>
      </trkpt>
      <trkpt lat="43.66688" lon="3.81345">
        <ele>134.95500032</ele>
        <time>2020-10-17T08:54:44.000Z</time>
      </trkpt>
      <trkpt lat="43.66689" lon="3.8134">
        <ele>135.30938167864</ele>
        <time>2020-10-17T08:54:46.000Z</time>
      </trkpt>
      <trkpt lat="43.6669" lon="3.81336">
        <ele>135.70858302047</ele>
        <time>2020-10-17T08:54:48.000Z</time>
      </trkpt>
      <trkpt lat="43.66691" lon="3.81333">
        <ele>135.90818369138</ele>
        <time>2020-10-17T08:54:49.000Z</time>
      </trkpt>
      <trkpt lat="43.66692" lon="3.81331">
        <ele>136.10778436229</ele>
        <time>2020-10-17T08:54:50.000Z</time>
      </trkpt>
      <trkpt lat="43.66693" lon="3.81327">
        <ele>136.50698570412</ele>
        <time>2020-10-17T08:54:52.000Z</time>
      </trkpt>
      <trkpt lat="43.66695" lon="3.81323">
        <ele>136.90618704595</ele>
        <time>2020-10-17T08:54:54.000Z</time>
      </trkpt>
      <trkpt lat="43.66696" lon="3.8132">
        <ele>137.14912258815</ele>
        <time>2020-10-17T08:54:56.000Z</time>
      </trkpt>
      <trkpt lat="43.66697" lon="3.81317">
        <ele>137.34405448362</ele>
        <time>2020-10-17T08:54:58.000Z</time>
      </trkpt>
      <trkpt lat="43.66698" lon="3.81313">
        <ele>137.5389863791</ele>
        <time>2020-10-17T08:55:00.000Z</time>
      </trkpt>
      <trkpt lat="43.667" lon="3.81309">
        <ele>137.73391827457</ele>
        <time>2020-10-17T08:55:02.000Z</time>
      </trkpt>
      <trkpt lat="43.66701" lon="3.81305">
        <ele>137.92885017004</ele>
        <time>2020-10-17T08:55:04.000Z</time>
      </trkpt>
      <trkpt lat="43.66703" lon="3.81302">
        <ele>138.13065876543</ele>
        <time>2020-10-17T08:55:06.000Z</time>
      </trkpt>
      <trkpt lat="43.66704" lon="3.81298">
        <ele>138.33642008231</ele>
        <time>2020-10-17T08:55:08.000Z</time>
      </trkpt>
      <trkpt lat="43.66706" lon="3.81295">
        <ele>138.54218139918</ele>
        <time>2020-10-17T08:55:10.000Z</time>
      </trkpt>
      <trkpt lat="43.66708" lon="3.81293">
        <ele>138.74794271605</ele>
        <time>2020-10-17T08:55:12.000Z</time>
      </trkpt>
      <trkpt lat="43.6671" lon="3.81289">
        <ele>138.95370403292</ele>
        <time>2020-10-17T08:55:14.000Z</time>
      </trkpt>
      <trkpt lat="43.66711" lon="3.81286">
        <ele>139</ele>
        <time>2020-10-17T08:55:16.000Z</time>
      </trkpt>
      <trkpt lat="43.66713" lon="3.81283">
        <ele>139</ele>
        <time>2020-10-17T08:55:18.000Z</time>
      </trkpt>
      <trkpt lat="43.66715" lon="3.81281">
        <ele>139</ele>
        <time>2020-10-17T08:55:20.000Z</time>
      </trkpt>
      <trkpt lat="43.66718" lon="3.81277">
        <ele>139</ele>
        <time>2020-10-17T08:55:22.000Z</time>
      </trkpt>
      <trkpt lat="43.66719" lon="3.81275">
        <ele>139</ele>
        <time>2020-10-17T08:55:23.000Z</time>
      </trkpt>
      <trkpt lat="43.66721" lon="3.81273">
        <ele>139</ele>
        <time>2020-10-17T08:55:24.000Z</time>
      </trkpt>
      <trkpt lat="43.66722" lon="3.81271">
        <ele>139</ele>
        <time>2020-10-17T08:55:25.000Z</time>
      </trkpt>
      <trkpt lat="43.66724" lon="3.81268">
        <ele>139</ele>
        <time>2020-10-17T08:55:26.000Z</time>
      </trkpt>
      <trkpt lat="43.66727" lon="3.81265">
        <ele>139</ele>
        <time>2020-10-17T08:55:27.000Z</time>
      </trkpt>
      <trkpt lat="43.66729" lon="3.81262">
        <ele>139</ele>
        <time>2020-10-17T08:55:28.000Z</time>
      </trkpt>
      <trkpt lat="43.66732" lon="3.81258">
        <ele>139</ele>
        <time>2020-10-17T08:55:29.000Z</time>
      </trkpt>
      <trkpt lat="43.66735" lon="3.81255">
        <ele>139</ele>
        <time>2020-10-17T08:55:30.000Z</time>
      </trkpt>
      <trkpt lat="43.66738" lon="3.81252">
        <ele>139</ele>
        <time>2020-10-17T08:55:31.000Z</time>
      </trkpt>
      <trkpt lat="43.6674" lon="3.81249">
        <ele>139</ele>
        <time>2020-10-17T08:55:32.000Z</time>
      </trkpt>
      <trkpt lat="43.66743" lon="3.81246">
        <ele>139</ele>
        <time>2020-10-17T08:55:33.000Z</time>
      </trkpt>
      <trkpt lat="43.66745" lon="3.81244">
        <ele>139</ele>
        <time>2020-10-17T08:55:34.000Z</time>
      </trkpt>
      <trkpt lat="43.66747" lon="3.81241">
        <ele>139</ele>
        <time>2020-10-17T08:55:35.000Z</time>
      </trkpt>
      <trkpt lat="43.66749" lon="3.81238">
        <ele>139</ele>
        <time>2020-10-17T08:55:36.000Z</time>
      </trkpt>
      <trkpt lat="43.6675" lon="3.81236">
        <ele>139</ele>
        <time>2020-10-17T08:55:37.000Z</time>
      </trkpt>
      <trkpt lat="43.66752" lon="3.81233">
        <ele>139</ele>
        <time>2020-10-17T08:55:38.000Z</time>
      </trkpt>
      <trkpt lat="43.66753" lon="3.81231">
        <ele>139</ele>
        <time>2020-10-17T08:55:39.000Z</time>
      </trkpt>
      <trkpt lat="43.66753" lon="3.81229">
        <ele>139</ele>
        <time>2020-10-17T08:55:46.000Z</time>
      </trkpt>
      <trkpt lat="43.66756" lon="3.81222">
        <ele>139</ele>
        <time>2020-10-17T08:55:59.000Z</time>
      </trkpt>
      <trkpt lat="43.66758" lon="3.81219">
        <ele>139.03865781041</ele>
        <time>2020-10-17T08:56:00.000Z</time>
      </trkpt>
      <trkpt lat="43.66759" lon="3.81216">
        <ele>139.14038717709</ele>
        <time>2020-10-17T08:56:01.000Z</time>
      </trkpt>
      <trkpt lat="43.6676" lon="3.81212">
        <ele>139.24211654377</ele>
        <time>2020-10-17T08:56:02.000Z</time>
      </trkpt>
      <trkpt lat="43.6676" lon="3.81208">
        <ele>139.34384591045</ele>
        <time>2020-10-17T08:56:03.000Z</time>
      </trkpt>
      <trkpt lat="43.6676" lon="3.81204">
        <ele>139.44557527713</ele>
        <time>2020-10-17T08:56:04.000Z</time>
      </trkpt>
      <trkpt lat="43.6676" lon="3.81201">
        <ele>139.54730464381</ele>
        <time>2020-10-17T08:56:05.000Z</time>
      </trkpt>
      <trkpt lat="43.66761" lon="3.81198">
        <ele>139.64903401049</ele>
        <time>2020-10-17T08:56:06.000Z</time>
      </trkpt>
      <trkpt lat="43.66761" lon="3.81195">
        <ele>139.75076337717</ele>
        <time>2020-10-17T08:56:07.000Z</time>
      </trkpt>
      <trkpt lat="43.66761" lon="3.81192">
        <ele>139.85249274385</ele>
        <time>2020-10-17T08:56:08.000Z</time>
      </trkpt>
      <trkpt lat="43.66761" lon="3.81188">
        <ele>140</ele>
        <time>2020-10-17T08:56:10.000Z</time>
      </trkpt>
      <trkpt lat="43.66762" lon="3.81184">
        <ele>140</ele>
        <time>2020-10-17T08:56:12.000Z</time>
      </trkpt>
      <trkpt lat="43.66762" lon="3.81179">
        <ele>140</ele>
        <time>2020-10-17T08:56:14.000Z</time>
      </trkpt>
      <trkpt lat="43.66762" lon="3.81176">
        <ele>140</ele>
        <time>2020-10-17T08:56:15.000Z</time>
      </trkpt>
      <trkpt lat="43.66762" lon="3.81174">
        <ele>140</ele>
        <time>2020-10-17T08:56:16.000Z</time>
      </trkpt>
      <trkpt lat="43.66762" lon="3.81171">
        <ele>140</ele>
        <time>2020-10-17T08:56:17.000Z</time>
      </trkpt>
      <trkpt lat="43.66762" lon="3.81168">
        <ele>140</ele>
        <time>2020-10-17T08:56:18.000Z</time>
      </trkpt>
      <trkpt lat="43.66762" lon="3.81165">
        <ele>140</ele>
        <time>2020-10-17T08:56:19.000Z</time>
      </trkpt>
      <trkpt lat="43.66762" lon="3.81161">
        <ele>140</ele>
        <time>2020-10-17T08:56:20.000Z</time>
      </trkpt>
      <trkpt lat="43.66762" lon="3.81158">
        <ele>140</ele>
        <time>2020-10-17T08:56:21.000Z</time>
      </trkpt>
      <trkpt lat="43.66762" lon="3.81154">
        <ele>140</ele>
        <time>2020-10-17T08:56:22.000Z</time>
      </trkpt>
      <trkpt lat="43.66762" lon="3.81149">
        <ele>140</ele>
        <time>2020-10-17T08:56:23.000Z</time>
      </trkpt>
      <trkpt lat="43.66762" lon="3.81145">
        <ele>140</ele>
        <time>2020-10-17T08:56:24.000Z</time>
      </trkpt>
      <trkpt lat="43.66762" lon="3.81141">
        <ele>140</ele>
        <time>2020-10-17T08:56:25.000Z</time>
      </trkpt>
      <trkpt lat="43.66761" lon="3.81138">
        <ele>140</ele>
        <time>2020-10-17T08:56:26.000Z</time>
      </trkpt>
      <trkpt lat="43.66761" lon="3.81135">
        <ele>140</ele>
        <time>2020-10-17T08:56:27.000Z</time>
      </trkpt>
      <trkpt lat="43.66762" lon="3.81131">
        <ele>140</ele>
        <time>2020-10-17T08:56:29.000Z</time>
      </trkpt>
      <trkpt lat="43.66762" lon="3.81129">
        <ele>140</ele>
        <time>2020-10-17T08:56:31.000Z</time>
      </trkpt>
      <trkpt lat="43.66763" lon="3.81125">
        <ele>140</ele>
        <time>2020-10-17T08:56:32.000Z</time>
      </trkpt>
      <trkpt lat="43.66764" lon="3.81121">
        <ele>140</ele>
        <time>2020-10-17T08:56:33.000Z</time>
      </trkpt>
      <trkpt lat="43.66764" lon="3.81116">
        <ele>140</ele>
        <time>2020-10-17T08:56:34.000Z</time>
      </trkpt>
      <trkpt lat="43.66765" lon="3.8111">
        <ele>140</ele>
        <time>2020-10-17T08:56:35.000Z</time>
      </trkpt>
      <trkpt lat="43.66765" lon="3.81105">
        <ele>140</ele>
        <time>2020-10-17T08:56:36.000Z</time>
      </trkpt>
      <trkpt lat="43.66765" lon="3.81099">
        <ele>140</ele>
        <time>2020-10-17T08:56:37.000Z</time>
      </trkpt>
      <trkpt lat="43.66765" lon="3.81094">
        <ele>140</ele>
        <time>2020-10-17T08:56:38.000Z</time>
      </trkpt>
      <trkpt lat="43.66765" lon="3.81089">
        <ele>140</ele>
        <time>2020-10-17T08:56:39.000Z</time>
      </trkpt>
      <trkpt lat="43.66765" lon="3.81084">
        <ele>139.94499968</ele>
        <time>2020-10-17T08:56:40.000Z</time>
      </trkpt>
      <trkpt lat="43.66765" lon="3.81079">
        <ele>139.84499968</ele>
        <time>2020-10-17T08:56:41.000Z</time>
      </trkpt>
      <trkpt lat="43.66765" lon="3.81073">
        <ele>139.74499968</ele>
        <time>2020-10-17T08:56:42.000Z</time>
      </trkpt>
      <trkpt lat="43.66765" lon="3.81067">
        <ele>139.64499968</ele>
        <time>2020-10-17T08:56:43.000Z</time>
      </trkpt>
      <trkpt lat="43.66765" lon="3.81061">
        <ele>139.54499968</ele>
        <time>2020-10-17T08:56:44.000Z</time>
      </trkpt>
      <trkpt lat="43.66765" lon="3.81055">
        <ele>139.44499968</ele>
        <time>2020-10-17T08:56:45.000Z</time>
      </trkpt>
      <trkpt lat="43.66765" lon="3.81048">
        <ele>139.34499968</ele>
        <time>2020-10-17T08:56:46.000Z</time>
      </trkpt>
      <trkpt lat="43.66765" lon="3.81042">
        <ele>139.24499968</ele>
        <time>2020-10-17T08:56:47.000Z</time>
      </trkpt>
      <trkpt lat="43.66765" lon="3.81036">
        <ele>139.14499968</ele>
        <time>2020-10-17T08:56:48.000Z</time>
      </trkpt>
      <trkpt lat="43.66765" lon="3.81031">
        <ele>139.04499968</ele>
        <time>2020-10-17T08:56:49.000Z</time>
      </trkpt>
      <trkpt lat="43.66766" lon="3.81027">
        <ele>138.94499968</ele>
        <time>2020-10-17T08:56:50.000Z</time>
      </trkpt>
      <trkpt lat="43.66766" lon="3.81021">
        <ele>138.84499968</ele>
        <time>2020-10-17T08:56:51.000Z</time>
      </trkpt>
      <trkpt lat="43.66768" lon="3.81016">
        <ele>138.74499968</ele>
        <time>2020-10-17T08:56:52.000Z</time>
      </trkpt>
      <trkpt lat="43.6677" lon="3.81011">
        <ele>138.64499968</ele>
        <time>2020-10-17T08:56:53.000Z</time>
      </trkpt>
      <trkpt lat="43.66772" lon="3.81008">
        <ele>138.54499968</ele>
        <time>2020-10-17T08:56:54.000Z</time>
      </trkpt>
      <trkpt lat="43.66775" lon="3.81005">
        <ele>138.44499968</ele>
        <time>2020-10-17T08:56:55.000Z</time>
      </trkpt>
      <trkpt lat="43.66779" lon="3.81004">
        <ele>138.34499968</ele>
        <time>2020-10-17T08:56:56.000Z</time>
      </trkpt>
      <trkpt lat="43.66782" lon="3.81003">
        <ele>138.24499968</ele>
        <time>2020-10-17T08:56:57.000Z</time>
      </trkpt>
      <trkpt lat="43.66785" lon="3.81001">
        <ele>138.14499968</ele>
        <time>2020-10-17T08:56:58.000Z</time>
      </trkpt>
      <trkpt lat="43.66789" lon="3.81">
        <ele>138.04499968</ele>
        <time>2020-10-17T08:56:59.000Z</time>
      </trkpt>
      <trkpt lat="43.66792" lon="3.80998">
        <ele>138</ele>
        <time>2020-10-17T08:57:00.000Z</time>
      </trkpt>
      <trkpt lat="43.66795" lon="3.80997">
        <ele>138</ele>
        <time>2020-10-17T08:57:01.000Z</time>
      </trkpt>
      <trkpt lat="43.66799" lon="3.80995">
        <ele>138</ele>
        <time>2020-10-17T08:57:02.000Z</time>
      </trkpt>
      <trkpt lat="43.66802" lon="3.80993">
        <ele>138</ele>
        <time>2020-10-17T08:57:03.000Z</time>
      </trkpt>
      <trkpt lat="43.66806" lon="3.80991">
        <ele>138</ele>
        <time>2020-10-17T08:57:04.000Z</time>
      </trkpt>
      <trkpt lat="43.6681" lon="3.80989">
        <ele>138</ele>
        <time>2020-10-17T08:57:05.000Z</time>
      </trkpt>
      <trkpt lat="43.66814" lon="3.80987">
        <ele>138</ele>
        <time>2020-10-17T08:57:06.000Z</time>
      </trkpt>
      <trkpt lat="43.66818" lon="3.80985">
        <ele>138</ele>
        <time>2020-10-17T08:57:07.000Z</time>
      </trkpt>
      <trkpt lat="43.66821" lon="3.80983">
        <ele>138</ele>
        <time>2020-10-17T08:57:08.000Z</time>
      </trkpt>
      <trkpt lat="43.66824" lon="3.80981">
        <ele>138</ele>
        <time>2020-10-17T08:57:09.000Z</time>
      </trkpt>
      <trkpt lat="43.66827" lon="3.80979">
        <ele>137.94499968</ele>
        <time>2020-10-17T08:57:10.000Z</time>
      </trkpt>
      <trkpt lat="43.66829" lon="3.80978">
        <ele>137.84499968</ele>
        <time>2020-10-17T08:57:11.000Z</time>
      </trkpt>
      <trkpt lat="43.66832" lon="3.80976">
        <ele>137.74499968</ele>
        <time>2020-10-17T08:57:12.000Z</time>
      </trkpt>
      <trkpt lat="43.66834" lon="3.80975">
        <ele>137.64499968</ele>
        <time>2020-10-17T08:57:13.000Z</time>
      </trkpt>
      <trkpt lat="43.66837" lon="3.80973">
        <ele>137.54499968</ele>
        <time>2020-10-17T08:57:14.000Z</time>
      </trkpt>
      <trkpt lat="43.66839" lon="3.80972">
        <ele>137.44499968</ele>
        <time>2020-10-17T08:57:15.000Z</time>
      </trkpt>
      <trkpt lat="43.66842" lon="3.8097">
        <ele>137.34499968</ele>
        <time>2020-10-17T08:57:16.000Z</time>
      </trkpt>
      <trkpt lat="43.66845" lon="3.80968">
        <ele>137.24499968</ele>
        <time>2020-10-17T08:57:17.000Z</time>
      </trkpt>
      <trkpt lat="43.66848" lon="3.80966">
        <ele>137.14499968</ele>
        <time>2020-10-17T08:57:18.000Z</time>
      </trkpt>
      <trkpt lat="43.66851" lon="3.80964">
        <ele>137.04499968</ele>
        <time>2020-10-17T08:57:19.000Z</time>
      </trkpt>
      <trkpt lat="43.66854" lon="3.80961">
        <ele>136.94499968</ele>
        <time>2020-10-17T08:57:20.000Z</time>
      </trkpt>
      <trkpt lat="43.66857" lon="3.80958">
        <ele>136.84499968</ele>
        <time>2020-10-17T08:57:21.000Z</time>
      </trkpt>
      <trkpt lat="43.6686" lon="3.80955">
        <ele>136.74499968</ele>
        <time>2020-10-17T08:57:22.000Z</time>
      </trkpt>
      <trkpt lat="43.66864" lon="3.80952">
        <ele>136.64499968</ele>
        <time>2020-10-17T08:57:23.000Z</time>
      </trkpt>
      <trkpt lat="43.66867" lon="3.80949">
        <ele>136.54499968</ele>
        <time>2020-10-17T08:57:24.000Z</time>
      </trkpt>
      <trkpt lat="43.6687" lon="3.80946">
        <ele>136.44499968</ele>
        <time>2020-10-17T08:57:25.000Z</time>
      </trkpt>
      <trkpt lat="43.66873" lon="3.80943">
        <ele>136.34499968</ele>
        <time>2020-10-17T08:57:26.000Z</time>
      </trkpt>
      <trkpt lat="43.66875" lon="3.8094">
        <ele>136.24499968</ele>
        <time>2020-10-17T08:57:27.000Z</time>
      </trkpt>
      <trkpt lat="43.66878" lon="3.80937">
        <ele>136.14499968</ele>
        <time>2020-10-17T08:57:28.000Z</time>
      </trkpt>
      <trkpt lat="43.66881" lon="3.80934">
        <ele>136.04499968</ele>
        <time>2020-10-17T08:57:29.000Z</time>
      </trkpt>
      <trkpt lat="43.66883" lon="3.80931">
        <ele>135.94554427213</ele>
        <time>2020-10-17T08:57:30.000Z</time>
      </trkpt>
      <trkpt lat="43.66886" lon="3.80928">
        <ele>135.84653443388</ele>
        <time>2020-10-17T08:57:31.000Z</time>
      </trkpt>
      <trkpt lat="43.66889" lon="3.80925">
        <ele>135.74752459563</ele>
        <time>2020-10-17T08:57:32.000Z</time>
      </trkpt>
      <trkpt lat="43.66892" lon="3.80921">
        <ele>135.64851475738</ele>
        <time>2020-10-17T08:57:33.000Z</time>
      </trkpt>
      <trkpt lat="43.66894" lon="3.80917">
        <ele>135.54950491913</ele>
        <time>2020-10-17T08:57:34.000Z</time>
      </trkpt>
      <trkpt lat="43.66897" lon="3.80913">
        <ele>135.45049508087</ele>
        <time>2020-10-17T08:57:35.000Z</time>
      </trkpt>
      <trkpt lat="43.669" lon="3.80909">
        <ele>135.35148524262</ele>
        <time>2020-10-17T08:57:36.000Z</time>
      </trkpt>
      <trkpt lat="43.66902" lon="3.80905">
        <ele>135.25247540437</ele>
        <time>2020-10-17T08:57:37.000Z</time>
      </trkpt>
      <trkpt lat="43.66905" lon="3.80901">
        <ele>135.15346556612</ele>
        <time>2020-10-17T08:57:38.000Z</time>
      </trkpt>
      <trkpt lat="43.66907" lon="3.80897">
        <ele>135.05445572787</ele>
        <time>2020-10-17T08:57:39.000Z</time>
      </trkpt>
      <trkpt lat="43.66908" lon="3.80893">
        <ele>135.09072516129</ele>
        <time>2020-10-17T08:57:40.000Z</time>
      </trkpt>
      <trkpt lat="43.6691" lon="3.80889">
        <ele>135.29233806452</ele>
        <time>2020-10-17T08:57:41.000Z</time>
      </trkpt>
      <trkpt lat="43.66911" lon="3.80885">
        <ele>135.49395096774</ele>
        <time>2020-10-17T08:57:42.000Z</time>
      </trkpt>
      <trkpt lat="43.66913" lon="3.80881">
        <ele>135.69556387097</ele>
        <time>2020-10-17T08:57:43.000Z</time>
      </trkpt>
      <trkpt lat="43.66914" lon="3.80877">
        <ele>135.89717677419</ele>
        <time>2020-10-17T08:57:44.000Z</time>
      </trkpt>
      <trkpt lat="43.66915" lon="3.80873">
        <ele>136.09878967742</ele>
        <time>2020-10-17T08:57:45.000Z</time>
      </trkpt>
      <trkpt lat="43.66916" lon="3.80868">
        <ele>136.30040258064</ele>
        <time>2020-10-17T08:57:46.000Z</time>
      </trkpt>
      <trkpt lat="43.66916" lon="3.80864">
        <ele>136.50201548387</ele>
        <time>2020-10-17T08:57:47.000Z</time>
      </trkpt>
      <trkpt lat="43.66917" lon="3.8086">
        <ele>136.7036283871</ele>
        <time>2020-10-17T08:57:48.000Z</time>
      </trkpt>
      <trkpt lat="43.66917" lon="3.80856">
        <ele>136.90524129032</ele>
        <time>2020-10-17T08:57:49.000Z</time>
      </trkpt>
      <trkpt lat="43.66918" lon="3.80852">
        <ele>137.05160629356</ele>
        <time>2020-10-17T08:57:50.000Z</time>
      </trkpt>
      <trkpt lat="43.66918" lon="3.80849">
        <ele>137.14897724667</ele>
        <time>2020-10-17T08:57:51.000Z</time>
      </trkpt>
      <trkpt lat="43.66919" lon="3.80846">
        <ele>137.24634819978</ele>
        <time>2020-10-17T08:57:52.000Z</time>
      </trkpt>
      <trkpt lat="43.66919" lon="3.80843">
        <ele>137.34371915288</ele>
        <time>2020-10-17T08:57:53.000Z</time>
      </trkpt>
      <trkpt lat="43.66919" lon="3.80839">
        <ele>137.44109010599</ele>
        <time>2020-10-17T08:57:54.000Z</time>
      </trkpt>
      <trkpt lat="43.6692" lon="3.80836">
        <ele>137.5384610591</ele>
        <time>2020-10-17T08:57:55.000Z</time>
      </trkpt>
      <trkpt lat="43.6692" lon="3.80833">
        <ele>137.6358320122</ele>
        <time>2020-10-17T08:57:56.000Z</time>
      </trkpt>
      <trkpt lat="43.66921" lon="3.8083">
        <ele>137.73320296531</ele>
        <time>2020-10-17T08:57:57.000Z</time>
      </trkpt>
      <trkpt lat="43.66921" lon="3.80827">
        <ele>137.83057391842</ele>
        <time>2020-10-17T08:57:58.000Z</time>
      </trkpt>
      <trkpt lat="43.66922" lon="3.80823">
        <ele>137.92794487153</ele>
        <time>2020-10-17T08:57:59.000Z</time>
      </trkpt>
      <trkpt lat="43.66921" lon="3.80819">
        <ele>137.97322411359</ele>
        <time>2020-10-17T08:58:00.000Z</time>
      </trkpt>
      <trkpt lat="43.66921" lon="3.80816">
        <ele>137.87023740003</ele>
        <time>2020-10-17T08:58:01.000Z</time>
      </trkpt>
      <trkpt lat="43.6692" lon="3.80814">
        <ele>137.76725068647</ele>
        <time>2020-10-17T08:58:02.000Z</time>
      </trkpt>
      <trkpt lat="43.66918" lon="3.80812">
        <ele>137.66426397291</ele>
        <time>2020-10-17T08:58:03.000Z</time>
      </trkpt>
      <trkpt lat="43.66916" lon="3.80811">
        <ele>137.56127725935</ele>
        <time>2020-10-17T08:58:04.000Z</time>
      </trkpt>
      <trkpt lat="43.66914" lon="3.80809">
        <ele>137.45829054579</ele>
        <time>2020-10-17T08:58:05.000Z</time>
      </trkpt>
      <trkpt lat="43.66912" lon="3.80807">
        <ele>137.35530383223</ele>
        <time>2020-10-17T08:58:06.000Z</time>
      </trkpt>
      <trkpt lat="43.6691" lon="3.80805">
        <ele>137.25231711867</ele>
        <time>2020-10-17T08:58:07.000Z</time>
      </trkpt>
      <trkpt lat="43.66908" lon="3.80802">
        <ele>137.1493304051</ele>
        <time>2020-10-17T08:58:08.000Z</time>
      </trkpt>
      <trkpt lat="43.66907" lon="3.808">
        <ele>137.04634369154</ele>
        <time>2020-10-17T08:58:09.000Z</time>
      </trkpt>
      <trkpt lat="43.66905" lon="3.80797">
        <ele>137</ele>
        <time>2020-10-17T08:58:10.000Z</time>
      </trkpt>
      <trkpt lat="43.66903" lon="3.80795">
        <ele>137</ele>
        <time>2020-10-17T08:58:11.000Z</time>
      </trkpt>
      <trkpt lat="43.66901" lon="3.80792">
        <ele>137</ele>
        <time>2020-10-17T08:58:12.000Z</time>
      </trkpt>
      <trkpt lat="43.66899" lon="3.8079">
        <ele>137</ele>
        <time>2020-10-17T08:58:13.000Z</time>
      </trkpt>
      <trkpt lat="43.66897" lon="3.80788">
        <ele>137</ele>
        <time>2020-10-17T08:58:14.000Z</time>
      </trkpt>
      <trkpt lat="43.66895" lon="3.80786">
        <ele>137</ele>
        <time>2020-10-17T08:58:15.000Z</time>
      </trkpt>
      <trkpt lat="43.66893" lon="3.80783">
        <ele>137</ele>
        <time>2020-10-17T08:58:16.000Z</time>
      </trkpt>
      <trkpt lat="43.66891" lon="3.80781">
        <ele>137</ele>
        <time>2020-10-17T08:58:17.000Z</time>
      </trkpt>
      <trkpt lat="43.66889" lon="3.80778">
        <ele>137</ele>
        <time>2020-10-17T08:58:18.000Z</time>
      </trkpt>
      <trkpt lat="43.66887" lon="3.80776">
        <ele>137</ele>
        <time>2020-10-17T08:58:19.000Z</time>
      </trkpt>
      <trkpt lat="43.66885" lon="3.80774">
        <ele>136.97322411359</ele>
        <time>2020-10-17T08:58:20.000Z</time>
      </trkpt>
      <trkpt lat="43.66883" lon="3.80772">
        <ele>136.87023740003</ele>
        <time>2020-10-17T08:58:21.000Z</time>
      </trkpt>
      <trkpt lat="43.66881" lon="3.8077">
        <ele>136.76725068647</ele>
        <time>2020-10-17T08:58:22.000Z</time>
      </trkpt>
      <trkpt lat="43.66879" lon="3.80767">
        <ele>136.66426397291</ele>
        <time>2020-10-17T08:58:23.000Z</time>
      </trkpt>
      <trkpt lat="43.66877" lon="3.80765">
        <ele>136.56127725935</ele>
        <time>2020-10-17T08:58:24.000Z</time>
      </trkpt>
      <trkpt lat="43.66874" lon="3.80763">
        <ele>136.45829054579</ele>
        <time>2020-10-17T08:58:25.000Z</time>
      </trkpt>
      <trkpt lat="43.66872" lon="3.80761">
        <ele>136.35530383223</ele>
        <time>2020-10-17T08:58:26.000Z</time>
      </trkpt>
      <trkpt lat="43.6687" lon="3.80759">
        <ele>136.25231711867</ele>
        <time>2020-10-17T08:58:27.000Z</time>
      </trkpt>
      <trkpt lat="43.66868" lon="3.80757">
        <ele>136.1493304051</ele>
        <time>2020-10-17T08:58:28.000Z</time>
      </trkpt>
      <trkpt lat="43.66865" lon="3.80754">
        <ele>136.04634369154</ele>
        <time>2020-10-17T08:58:29.000Z</time>
      </trkpt>
      <trkpt lat="43.66863" lon="3.80751">
        <ele>136</ele>
        <time>2020-10-17T08:58:30.000Z</time>
      </trkpt>
      <trkpt lat="43.66861" lon="3.80747">
        <ele>136</ele>
        <time>2020-10-17T08:58:31.000Z</time>
      </trkpt>
      <trkpt lat="43.6686" lon="3.80742">
        <ele>136</ele>
        <time>2020-10-17T08:58:32.000Z</time>
      </trkpt>
      <trkpt lat="43.66858" lon="3.80738">
        <ele>136</ele>
        <time>2020-10-17T08:58:33.000Z</time>
      </trkpt>
      <trkpt lat="43.66858" lon="3.80733">
        <ele>136</ele>
        <time>2020-10-17T08:58:34.000Z</time>
      </trkpt>
      <trkpt lat="43.66858" lon="3.80729">
        <ele>136</ele>
        <time>2020-10-17T08:58:35.000Z</time>
      </trkpt>
      <trkpt lat="43.66858" lon="3.80726">
        <ele>136</ele>
        <time>2020-10-17T08:58:36.000Z</time>
      </trkpt>
      <trkpt lat="43.66858" lon="3.80722">
        <ele>136</ele>
        <time>2020-10-17T08:58:37.000Z</time>
      </trkpt>
      <trkpt lat="43.66859" lon="3.80719">
        <ele>136</ele>
        <time>2020-10-17T08:58:38.000Z</time>
      </trkpt>
      <trkpt lat="43.66859" lon="3.80715">
        <ele>136</ele>
        <time>2020-10-17T08:58:39.000Z</time>
      </trkpt>
      <trkpt lat="43.6686" lon="3.80712">
        <ele>136</ele>
        <time>2020-10-17T08:58:40.000Z</time>
      </trkpt>
      <trkpt lat="43.6686" lon="3.80708">
        <ele>136</ele>
        <time>2020-10-17T08:58:41.000Z</time>
      </trkpt>
      <trkpt lat="43.6686" lon="3.80705">
        <ele>136</ele>
        <time>2020-10-17T08:58:42.000Z</time>
      </trkpt>
      <trkpt lat="43.6686" lon="3.80701">
        <ele>136</ele>
        <time>2020-10-17T08:58:43.000Z</time>
      </trkpt>
      <trkpt lat="43.66861" lon="3.80697">
        <ele>136</ele>
        <time>2020-10-17T08:58:44.000Z</time>
      </trkpt>
      <trkpt lat="43.66861" lon="3.80694">
        <ele>136</ele>
        <time>2020-10-17T08:58:45.000Z</time>
      </trkpt>
      <trkpt lat="43.66861" lon="3.8069">
        <ele>136</ele>
        <time>2020-10-17T08:58:46.000Z</time>
      </trkpt>
      <trkpt lat="43.66861" lon="3.80687">
        <ele>136</ele>
        <time>2020-10-17T08:58:47.000Z</time>
      </trkpt>
      <trkpt lat="43.66861" lon="3.80684">
        <ele>136</ele>
        <time>2020-10-17T08:58:48.000Z</time>
      </trkpt>
      <trkpt lat="43.66861" lon="3.8068">
        <ele>136</ele>
        <time>2020-10-17T08:58:49.000Z</time>
      </trkpt>
      <trkpt lat="43.6686" lon="3.80677">
        <ele>136</ele>
        <time>2020-10-17T08:58:50.000Z</time>
      </trkpt>
      <trkpt lat="43.6686" lon="3.80673">
        <ele>136</ele>
        <time>2020-10-17T08:58:51.000Z</time>
      </trkpt>
      <trkpt lat="43.66859" lon="3.80669">
        <ele>136</ele>
        <time>2020-10-17T08:58:52.000Z</time>
      </trkpt>
      <trkpt lat="43.66859" lon="3.80666">
        <ele>136</ele>
        <time>2020-10-17T08:58:53.000Z</time>
      </trkpt>
      <trkpt lat="43.66858" lon="3.80663">
        <ele>136</ele>
        <time>2020-10-17T08:58:54.000Z</time>
      </trkpt>
      <trkpt lat="43.66857" lon="3.80659">
        <ele>136</ele>
        <time>2020-10-17T08:58:55.000Z</time>
      </trkpt>
      <trkpt lat="43.66856" lon="3.80657">
        <ele>136</ele>
        <time>2020-10-17T08:58:56.000Z</time>
      </trkpt>
      <trkpt lat="43.66855" lon="3.80653">
        <ele>136</ele>
        <time>2020-10-17T08:58:57.000Z</time>
      </trkpt>
      <trkpt lat="43.66854" lon="3.8065">
        <ele>136</ele>
        <time>2020-10-17T08:58:58.000Z</time>
      </trkpt>
      <trkpt lat="43.66853" lon="3.80647">
        <ele>136</ele>
        <time>2020-10-17T08:58:59.000Z</time>
      </trkpt>
      <trkpt lat="43.66852" lon="3.80644">
        <ele>136</ele>
        <time>2020-10-17T08:59:00.000Z</time>
      </trkpt>
      <trkpt lat="43.66851" lon="3.80641">
        <ele>136</ele>
        <time>2020-10-17T08:59:01.000Z</time>
      </trkpt>
      <trkpt lat="43.66849" lon="3.80639">
        <ele>136</ele>
        <time>2020-10-17T08:59:02.000Z</time>
      </trkpt>
      <trkpt lat="43.66847" lon="3.80637">
        <ele>136</ele>
        <time>2020-10-17T08:59:03.000Z</time>
      </trkpt>
      <trkpt lat="43.66846" lon="3.80635">
        <ele>136</ele>
        <time>2020-10-17T08:59:04.000Z</time>
      </trkpt>
      <trkpt lat="43.66844" lon="3.80633">
        <ele>136</ele>
        <time>2020-10-17T08:59:05.000Z</time>
      </trkpt>
      <trkpt lat="43.66842" lon="3.80631">
        <ele>136</ele>
        <time>2020-10-17T08:59:06.000Z</time>
      </trkpt>
      <trkpt lat="43.6684" lon="3.80629">
        <ele>136</ele>
        <time>2020-10-17T08:59:07.000Z</time>
      </trkpt>
      <trkpt lat="43.66837" lon="3.80627">
        <ele>136</ele>
        <time>2020-10-17T08:59:08.000Z</time>
      </trkpt>
      <trkpt lat="43.66834" lon="3.80627">
        <ele>136</ele>
        <time>2020-10-17T08:59:09.000Z</time>
      </trkpt>
      <trkpt lat="43.66832" lon="3.80626">
        <ele>136</ele>
        <time>2020-10-17T08:59:10.000Z</time>
      </trkpt>
      <trkpt lat="43.66829" lon="3.80626">
        <ele>136</ele>
        <time>2020-10-17T08:59:11.000Z</time>
      </trkpt>
      <trkpt lat="43.66827" lon="3.80626">
        <ele>136</ele>
        <time>2020-10-17T08:59:12.000Z</time>
      </trkpt>
      <trkpt lat="43.66824" lon="3.80625">
        <ele>136</ele>
        <time>2020-10-17T08:59:13.000Z</time>
      </trkpt>
      <trkpt lat="43.66821" lon="3.80625">
        <ele>136</ele>
        <time>2020-10-17T08:59:14.000Z</time>
      </trkpt>
      <trkpt lat="43.66819" lon="3.80625">
        <ele>136</ele>
        <time>2020-10-17T08:59:15.000Z</time>
      </trkpt>
      <trkpt lat="43.66816" lon="3.80625">
        <ele>136</ele>
        <time>2020-10-17T08:59:16.000Z</time>
      </trkpt>
      <trkpt lat="43.66814" lon="3.80625">
        <ele>136</ele>
        <time>2020-10-17T08:59:17.000Z</time>
      </trkpt>
      <trkpt lat="43.66811" lon="3.80625">
        <ele>136</ele>
        <time>2020-10-17T08:59:18.000Z</time>
      </trkpt>
      <trkpt lat="43.66809" lon="3.80624">
        <ele>136</ele>
        <time>2020-10-17T08:59:19.000Z</time>
      </trkpt>
      <trkpt lat="43.66807" lon="3.80623">
        <ele>136.05345021253</ele>
        <time>2020-10-17T08:59:20.000Z</time>
      </trkpt>
      <trkpt lat="43.66804" lon="3.80622">
        <ele>136.15063185169</ele>
        <time>2020-10-17T08:59:21.000Z</time>
      </trkpt>
      <trkpt lat="43.66802" lon="3.80621">
        <ele>136.24781349086</ele>
        <time>2020-10-17T08:59:22.000Z</time>
      </trkpt>
      <trkpt lat="43.66799" lon="3.8062">
        <ele>136.34499513003</ele>
        <time>2020-10-17T08:59:23.000Z</time>
      </trkpt>
      <trkpt lat="43.66797" lon="3.80619">
        <ele>136.4421767692</ele>
        <time>2020-10-17T08:59:24.000Z</time>
      </trkpt>
      <trkpt lat="43.66794" lon="3.80618">
        <ele>136.53935840837</ele>
        <time>2020-10-17T08:59:25.000Z</time>
      </trkpt>
      <trkpt lat="43.66792" lon="3.80616">
        <ele>136.63654004754</ele>
        <time>2020-10-17T08:59:26.000Z</time>
      </trkpt>
      <trkpt lat="43.6679" lon="3.80614">
        <ele>136.73372168671</ele>
        <time>2020-10-17T08:59:27.000Z</time>
      </trkpt>
      <trkpt lat="43.66788" lon="3.80613">
        <ele>136.83090332588</ele>
        <time>2020-10-17T08:59:28.000Z</time>
      </trkpt>
      <trkpt lat="43.66786" lon="3.80611">
        <ele>136.92808496505</ele>
        <time>2020-10-17T08:59:29.000Z</time>
      </trkpt>
      <trkpt lat="43.66784" lon="3.8061">
        <ele>137</ele>
        <time>2020-10-17T08:59:30.000Z</time>
      </trkpt>
      <trkpt lat="43.66782" lon="3.80608">
        <ele>137</ele>
        <time>2020-10-17T08:59:31.000Z</time>
      </trkpt>
      <trkpt lat="43.66781" lon="3.80607">
        <ele>137</ele>
        <time>2020-10-17T08:59:32.000Z</time>
      </trkpt>
      <trkpt lat="43.66778" lon="3.80604">
        <ele>137</ele>
        <time>2020-10-17T08:59:33.000Z</time>
      </trkpt>
      <trkpt lat="43.66777" lon="3.80602">
        <ele>137</ele>
        <time>2020-10-17T08:59:34.000Z</time>
      </trkpt>
      <trkpt lat="43.66774" lon="3.80601">
        <ele>137</ele>
        <time>2020-10-17T08:59:35.000Z</time>
      </trkpt>
      <trkpt lat="43.66773" lon="3.806">
        <ele>137</ele>
        <time>2020-10-17T08:59:36.000Z</time>
      </trkpt>
      <trkpt lat="43.66771" lon="3.80599">
        <ele>137</ele>
        <time>2020-10-17T08:59:37.000Z</time>
      </trkpt>
      <trkpt lat="43.66769" lon="3.80598">
        <ele>137</ele>
        <time>2020-10-17T08:59:38.000Z</time>
      </trkpt>
      <trkpt lat="43.66766" lon="3.80597">
        <ele>137</ele>
        <time>2020-10-17T08:59:39.000Z</time>
      </trkpt>
      <trkpt lat="43.66764" lon="3.80595">
        <ele>137.05500032</ele>
        <time>2020-10-17T08:59:40.000Z</time>
      </trkpt>
      <trkpt lat="43.66761" lon="3.80594">
        <ele>137.15500032</ele>
        <time>2020-10-17T08:59:41.000Z</time>
      </trkpt>
      <trkpt lat="43.66759" lon="3.80592">
        <ele>137.25500032</ele>
        <time>2020-10-17T08:59:42.000Z</time>
      </trkpt>
      <trkpt lat="43.66756" lon="3.80591">
        <ele>137.35500032</ele>
        <time>2020-10-17T08:59:43.000Z</time>
      </trkpt>
      <trkpt lat="43.66753" lon="3.8059">
        <ele>137.45500032</ele>
        <time>2020-10-17T08:59:44.000Z</time>
      </trkpt>
      <trkpt lat="43.6675" lon="3.80588">
        <ele>137.55500032</ele>
        <time>2020-10-17T08:59:45.000Z</time>
      </trkpt>
      <trkpt lat="43.66747" lon="3.80587">
        <ele>137.65500032</ele>
        <time>2020-10-17T08:59:46.000Z</time>
      </trkpt>
      <trkpt lat="43.66744" lon="3.80586">
        <ele>137.75500032</ele>
        <time>2020-10-17T08:59:47.000Z</time>
      </trkpt>
      <trkpt lat="43.66741" lon="3.80585">
        <ele>137.85500032</ele>
        <time>2020-10-17T08:59:48.000Z</time>
      </trkpt>
      <trkpt lat="43.66739" lon="3.80584">
        <ele>137.95500032</ele>
        <time>2020-10-17T08:59:49.000Z</time>
      </trkpt>
      <trkpt lat="43.66736" lon="3.80582">
        <ele>137.94499968</ele>
        <time>2020-10-17T08:59:50.000Z</time>
      </trkpt>
      <trkpt lat="43.66733" lon="3.80581">
        <ele>137.84499968</ele>
        <time>2020-10-17T08:59:51.000Z</time>
      </trkpt>
      <trkpt lat="43.6673" lon="3.8058">
        <ele>137.74499968</ele>
        <time>2020-10-17T08:59:52.000Z</time>
      </trkpt>
      <trkpt lat="43.66727" lon="3.80579">
        <ele>137.64499968</ele>
        <time>2020-10-17T08:59:53.000Z</time>
      </trkpt>
      <trkpt lat="43.66723" lon="3.80577">
        <ele>137.54499968</ele>
        <time>2020-10-17T08:59:54.000Z</time>
      </trkpt>
      <trkpt lat="43.6672" lon="3.80575">
        <ele>137.44499968</ele>
        <time>2020-10-17T08:59:55.000Z</time>
      </trkpt>
      <trkpt lat="43.66717" lon="3.80574">
        <ele>137.34499968</ele>
        <time>2020-10-17T08:59:56.000Z</time>
      </trkpt>
      <trkpt lat="43.66714" lon="3.80573">
        <ele>137.24499968</ele>
        <time>2020-10-17T08:59:57.000Z</time>
      </trkpt>
      <trkpt lat="43.66711" lon="3.80572">
        <ele>137.14499968</ele>
        <time>2020-10-17T08:59:58.000Z</time>
      </trkpt>
      <trkpt lat="43.66708" lon="3.80571">
        <ele>137.04499968</ele>
        <time>2020-10-17T08:59:59.000Z</time>
      </trkpt>
      <trkpt lat="43.66706" lon="3.80568">
        <ele>137</ele>
        <time>2020-10-17T09:00:00.000Z</time>
      </trkpt>
      <trkpt lat="43.66705" lon="3.80563">
        <ele>137</ele>
        <time>2020-10-17T09:00:01.000Z</time>
      </trkpt>
      <trkpt lat="43.66706" lon="3.80559">
        <ele>137</ele>
        <time>2020-10-17T09:00:02.000Z</time>
      </trkpt>
      <trkpt lat="43.66708" lon="3.80555">
        <ele>137</ele>
        <time>2020-10-17T09:00:03.000Z</time>
      </trkpt>
      <trkpt lat="43.66711" lon="3.80552">
        <ele>137</ele>
        <time>2020-10-17T09:00:04.000Z</time>
      </trkpt>
      <trkpt lat="43.66713" lon="3.8055">
        <ele>137</ele>
        <time>2020-10-17T09:00:05.000Z</time>
      </trkpt>
      <trkpt lat="43.66715" lon="3.80548">
        <ele>137</ele>
        <time>2020-10-17T09:00:06.000Z</time>
      </trkpt>
      <trkpt lat="43.66717" lon="3.80546">
        <ele>137</ele>
        <time>2020-10-17T09:00:07.000Z</time>
      </trkpt>
      <trkpt lat="43.66719" lon="3.80544">
        <ele>137</ele>
        <time>2020-10-17T09:00:08.000Z</time>
      </trkpt>
      <trkpt lat="43.66722" lon="3.80542">
        <ele>137</ele>
        <time>2020-10-17T09:00:09.000Z</time>
      </trkpt>
      <trkpt lat="43.66724" lon="3.8054">
        <ele>137</ele>
        <time>2020-10-17T09:00:10.000Z</time>
      </trkpt>
      <trkpt lat="43.66726" lon="3.80538">
        <ele>137</ele>
        <time>2020-10-17T09:00:11.000Z</time>
      </trkpt>
      <trkpt lat="43.66729" lon="3.80537">
        <ele>137</ele>
        <time>2020-10-17T09:00:12.000Z</time>
      </trkpt>
      <trkpt lat="43.66731" lon="3.80535">
        <ele>137</ele>
        <time>2020-10-17T09:00:13.000Z</time>
      </trkpt>
      <trkpt lat="43.66734" lon="3.80533">
        <ele>137</ele>
        <time>2020-10-17T09:00:14.000Z</time>
      </trkpt>
      <trkpt lat="43.66736" lon="3.80531">
        <ele>137</ele>
        <time>2020-10-17T09:00:15.000Z</time>
      </trkpt>
      <trkpt lat="43.66739" lon="3.80529">
        <ele>137</ele>
        <time>2020-10-17T09:00:16.000Z</time>
      </trkpt>
      <trkpt lat="43.66741" lon="3.80527">
        <ele>137</ele>
        <time>2020-10-17T09:00:17.000Z</time>
      </trkpt>
      <trkpt lat="43.66743" lon="3.80525">
        <ele>137</ele>
        <time>2020-10-17T09:00:18.000Z</time>
      </trkpt>
      <trkpt lat="43.66745" lon="3.80524">
        <ele>137</ele>
        <time>2020-10-17T09:00:19.000Z</time>
      </trkpt>
      <trkpt lat="43.66747" lon="3.80522">
        <ele>137.04448939761</ele>
        <time>2020-10-17T09:00:20.000Z</time>
      </trkpt>
      <trkpt lat="43.66749" lon="3.8052">
        <ele>137.14560166491</ele>
        <time>2020-10-17T09:00:21.000Z</time>
      </trkpt>
      <trkpt lat="43.66751" lon="3.80518">
        <ele>137.2467139322</ele>
        <time>2020-10-17T09:00:22.000Z</time>
      </trkpt>
      <trkpt lat="43.66753" lon="3.80516">
        <ele>137.3478261995</ele>
        <time>2020-10-17T09:00:23.000Z</time>
      </trkpt>
      <trkpt lat="43.66754" lon="3.80515">
        <ele>137.44893846679</ele>
        <time>2020-10-17T09:00:24.000Z</time>
      </trkpt>
      <trkpt lat="43.66756" lon="3.80513">
        <ele>137.55005073409</ele>
        <time>2020-10-17T09:00:25.000Z</time>
      </trkpt>
      <trkpt lat="43.66758" lon="3.8051">
        <ele>137.75227526868</ele>
        <time>2020-10-17T09:00:27.000Z</time>
      </trkpt>
      <trkpt lat="43.66761" lon="3.80506">
        <ele>137.95449980328</ele>
        <time>2020-10-17T09:00:29.000Z</time>
      </trkpt>
      <trkpt lat="43.66762" lon="3.80504">
        <ele>138</ele>
        <time>2020-10-17T09:00:30.000Z</time>
      </trkpt>
      <trkpt lat="43.66764" lon="3.80502">
        <ele>138</ele>
        <time>2020-10-17T09:00:31.000Z</time>
      </trkpt>
      <trkpt lat="43.66765" lon="3.805">
        <ele>138</ele>
        <time>2020-10-17T09:00:32.000Z</time>
      </trkpt>
      <trkpt lat="43.66766" lon="3.80498">
        <ele>138</ele>
        <time>2020-10-17T09:00:33.000Z</time>
      </trkpt>
      <trkpt lat="43.66767" lon="3.80496">
        <ele>138</ele>
        <time>2020-10-17T09:00:34.000Z</time>
      </trkpt>
      <trkpt lat="43.66769" lon="3.80493">
        <ele>138</ele>
        <time>2020-10-17T09:00:35.000Z</time>
      </trkpt>
      <trkpt lat="43.66771" lon="3.80491">
        <ele>138</ele>
        <time>2020-10-17T09:00:36.000Z</time>
      </trkpt>
      <trkpt lat="43.66772" lon="3.80489">
        <ele>138</ele>
        <time>2020-10-17T09:00:37.000Z</time>
      </trkpt>
      <trkpt lat="43.66774" lon="3.80485">
        <ele>138</ele>
        <time>2020-10-17T09:00:39.000Z</time>
      </trkpt>
      <trkpt lat="43.66777" lon="3.80481">
        <ele>138</ele>
        <time>2020-10-17T09:00:41.000Z</time>
      </trkpt>
      <trkpt lat="43.66778" lon="3.80478">
        <ele>138</ele>
        <time>2020-10-17T09:00:42.000Z</time>
      </trkpt>
      <trkpt lat="43.66779" lon="3.80476">
        <ele>138</ele>
        <time>2020-10-17T09:00:43.000Z</time>
      </trkpt>
      <trkpt lat="43.66781" lon="3.80474">
        <ele>138</ele>
        <time>2020-10-17T09:00:44.000Z</time>
      </trkpt>
      <trkpt lat="43.66782" lon="3.80472">
        <ele>138</ele>
        <time>2020-10-17T09:00:45.000Z</time>
      </trkpt>
      <trkpt lat="43.66784" lon="3.80468">
        <ele>138</ele>
        <time>2020-10-17T09:00:47.000Z</time>
      </trkpt>
      <trkpt lat="43.66786" lon="3.80467">
        <ele>138</ele>
        <time>2020-10-17T09:00:48.000Z</time>
      </trkpt>
      <trkpt lat="43.66787" lon="3.80465">
        <ele>138</ele>
        <time>2020-10-17T09:00:49.000Z</time>
      </trkpt>
      <trkpt lat="43.66789" lon="3.80463">
        <ele>137.94499968</ele>
        <time>2020-10-17T09:00:50.000Z</time>
      </trkpt>
      <trkpt lat="43.6679" lon="3.80461">
        <ele>137.84499968</ele>
        <time>2020-10-17T09:00:51.000Z</time>
      </trkpt>
      <trkpt lat="43.66792" lon="3.80459">
        <ele>137.74499968</ele>
        <time>2020-10-17T09:00:52.000Z</time>
      </trkpt>
      <trkpt lat="43.66794" lon="3.80457">
        <ele>137.64499968</ele>
        <time>2020-10-17T09:00:53.000Z</time>
      </trkpt>
      <trkpt lat="43.66795" lon="3.80456">
        <ele>137.54499968</ele>
        <time>2020-10-17T09:00:54.000Z</time>
      </trkpt>
      <trkpt lat="43.66797" lon="3.80454">
        <ele>137.44499968</ele>
        <time>2020-10-17T09:00:55.000Z</time>
      </trkpt>
      <trkpt lat="43.66799" lon="3.80452">
        <ele>137.34499968</ele>
        <time>2020-10-17T09:00:56.000Z</time>
      </trkpt>
      <trkpt lat="43.66801" lon="3.80451">
        <ele>137.24499968</ele>
        <time>2020-10-17T09:00:57.000Z</time>
      </trkpt>
      <trkpt lat="43.66803" lon="3.80449">
        <ele>137.14499968</ele>
        <time>2020-10-17T09:00:58.000Z</time>
      </trkpt>
      <trkpt lat="43.66804" lon="3.80447">
        <ele>137.04499968</ele>
        <time>2020-10-17T09:00:59.000Z</time>
      </trkpt>
      <trkpt lat="43.66806" lon="3.80445">
        <ele>137.05500032</ele>
        <time>2020-10-17T09:01:00.000Z</time>
      </trkpt>
      <trkpt lat="43.66808" lon="3.80443">
        <ele>137.15500032</ele>
        <time>2020-10-17T09:01:01.000Z</time>
      </trkpt>
      <trkpt lat="43.66809" lon="3.80441">
        <ele>137.25500032</ele>
        <time>2020-10-17T09:01:02.000Z</time>
      </trkpt>
      <trkpt lat="43.66811" lon="3.80439">
        <ele>137.35500032</ele>
        <time>2020-10-17T09:01:03.000Z</time>
      </trkpt>
      <trkpt lat="43.66812" lon="3.80436">
        <ele>137.45500032</ele>
        <time>2020-10-17T09:01:04.000Z</time>
      </trkpt>
      <trkpt lat="43.66813" lon="3.80434">
        <ele>137.55500032</ele>
        <time>2020-10-17T09:01:05.000Z</time>
      </trkpt>
      <trkpt lat="43.66814" lon="3.80431">
        <ele>137.65500032</ele>
        <time>2020-10-17T09:01:06.000Z</time>
      </trkpt>
      <trkpt lat="43.66815" lon="3.80429">
        <ele>137.75500032</ele>
        <time>2020-10-17T09:01:07.000Z</time>
      </trkpt>
      <trkpt lat="43.66816" lon="3.80426">
        <ele>137.85500032</ele>
        <time>2020-10-17T09:01:08.000Z</time>
      </trkpt>
      <trkpt lat="43.66817" lon="3.80424">
        <ele>137.95500032</ele>
        <time>2020-10-17T09:01:09.000Z</time>
      </trkpt>
      <trkpt lat="43.66817" lon="3.80421">
        <ele>138.10700451362</ele>
        <time>2020-10-17T09:01:10.000Z</time>
      </trkpt>
      <trkpt lat="43.66818" lon="3.80418">
        <ele>138.3015570428</ele>
        <time>2020-10-17T09:01:11.000Z</time>
      </trkpt>
      <trkpt lat="43.66819" lon="3.80415">
        <ele>138.49610957198</ele>
        <time>2020-10-17T09:01:12.000Z</time>
      </trkpt>
      <trkpt lat="43.6682" lon="3.80412">
        <ele>138.69066210117</ele>
        <time>2020-10-17T09:01:13.000Z</time>
      </trkpt>
      <trkpt lat="43.66821" lon="3.8041">
        <ele>138.88521463035</ele>
        <time>2020-10-17T09:01:14.000Z</time>
      </trkpt>
      <trkpt lat="43.66821" lon="3.80407">
        <ele>139.07976715953</ele>
        <time>2020-10-17T09:01:15.000Z</time>
      </trkpt>
      <trkpt lat="43.66822" lon="3.80404">
        <ele>139.27431968872</ele>
        <time>2020-10-17T09:01:16.000Z</time>
      </trkpt>
      <trkpt lat="43.66823" lon="3.80401">
        <ele>139.4688722179</ele>
        <time>2020-10-17T09:01:17.000Z</time>
      </trkpt>
      <trkpt lat="43.66824" lon="3.80398">
        <ele>139.66342474708</ele>
        <time>2020-10-17T09:01:18.000Z</time>
      </trkpt>
      <trkpt lat="43.66825" lon="3.80395">
        <ele>139.85797727626</ele>
        <time>2020-10-17T09:01:19.000Z</time>
      </trkpt>
      <trkpt lat="43.66825" lon="3.80393">
        <ele>140.05555621399</ele>
        <time>2020-10-17T09:01:20.000Z</time>
      </trkpt>
      <trkpt lat="43.66825" lon="3.8039">
        <ele>140.26131753086</ele>
        <time>2020-10-17T09:01:21.000Z</time>
      </trkpt>
      <trkpt lat="43.66826" lon="3.80387">
        <ele>140.46707884774</ele>
        <time>2020-10-17T09:01:22.000Z</time>
      </trkpt>
      <trkpt lat="43.66826" lon="3.80384">
        <ele>140.67284016461</ele>
        <time>2020-10-17T09:01:23.000Z</time>
      </trkpt>
      <trkpt lat="43.66826" lon="3.80379">
        <ele>141.08436279835</ele>
        <time>2020-10-17T09:01:25.000Z</time>
      </trkpt>
      <trkpt lat="43.66826" lon="3.80375">
        <ele>141.4958854321</ele>
        <time>2020-10-17T09:01:27.000Z</time>
      </trkpt>
      <trkpt lat="43.66825" lon="3.80371">
        <ele>141.90740806584</ele>
        <time>2020-10-17T09:01:29.000Z</time>
      </trkpt>
      <trkpt lat="43.66823" lon="3.80367">
        <ele>142</ele>
        <time>2020-10-17T09:01:31.000Z</time>
      </trkpt>
      <trkpt lat="43.66822" lon="3.80365">
        <ele>142</ele>
        <time>2020-10-17T09:01:32.000Z</time>
      </trkpt>
      <trkpt lat="43.6682" lon="3.80363">
        <ele>142</ele>
        <time>2020-10-17T09:01:33.000Z</time>
      </trkpt>
      <trkpt lat="43.66818" lon="3.8036">
        <ele>142</ele>
        <time>2020-10-17T09:01:35.000Z</time>
      </trkpt>
      <trkpt lat="43.66817" lon="3.80358">
        <ele>142</ele>
        <time>2020-10-17T09:01:36.000Z</time>
      </trkpt>
      <trkpt lat="43.66814" lon="3.80357">
        <ele>142</ele>
        <time>2020-10-17T09:01:37.000Z</time>
      </trkpt>
      <trkpt lat="43.66812" lon="3.80355">
        <ele>142</ele>
        <time>2020-10-17T09:01:38.000Z</time>
      </trkpt>
      <trkpt lat="43.66809" lon="3.80354">
        <ele>142</ele>
        <time>2020-10-17T09:01:39.000Z</time>
      </trkpt>
      <trkpt lat="43.66807" lon="3.80353">
        <ele>142.05500032</ele>
        <time>2020-10-17T09:01:40.000Z</time>
      </trkpt>
      <trkpt lat="43.66804" lon="3.80352">
        <ele>142.15500032</ele>
        <time>2020-10-17T09:01:41.000Z</time>
      </trkpt>
      <trkpt lat="43.66802" lon="3.8035">
        <ele>142.25500032</ele>
        <time>2020-10-17T09:01:42.000Z</time>
      </trkpt>
      <trkpt lat="43.668" lon="3.80348">
        <ele>142.35500032</ele>
        <time>2020-10-17T09:01:43.000Z</time>
      </trkpt>
      <trkpt lat="43.66798" lon="3.80347">
        <ele>142.45500032</ele>
        <time>2020-10-17T09:01:44.000Z</time>
      </trkpt>
      <trkpt lat="43.66796" lon="3.80346">
        <ele>142.55500032</ele>
        <time>2020-10-17T09:01:45.000Z</time>
      </trkpt>
      <trkpt lat="43.66794" lon="3.80345">
        <ele>142.65500032</ele>
        <time>2020-10-17T09:01:46.000Z</time>
      </trkpt>
      <trkpt lat="43.66792" lon="3.80344">
        <ele>142.75500032</ele>
        <time>2020-10-17T09:01:47.000Z</time>
      </trkpt>
      <trkpt lat="43.66789" lon="3.80341">
        <ele>142.95500032</ele>
        <time>2020-10-17T09:01:49.000Z</time>
      </trkpt>
      <trkpt lat="43.66787" lon="3.80341">
        <ele>143.05500032</ele>
        <time>2020-10-17T09:01:50.000Z</time>
      </trkpt>
      <trkpt lat="43.66784" lon="3.80339">
        <ele>143.25500032</ele>
        <time>2020-10-17T09:01:52.000Z</time>
      </trkpt>
      <trkpt lat="43.66777" lon="3.80333">
        <ele>143.65500032</ele>
        <time>2020-10-17T09:01:56.000Z</time>
      </trkpt>
      <trkpt lat="43.66774" lon="3.80331">
        <ele>143.75500032</ele>
        <time>2020-10-17T09:01:57.000Z</time>
      </trkpt>
      <trkpt lat="43.66772" lon="3.80329">
        <ele>143.85500032</ele>
        <time>2020-10-17T09:01:58.000Z</time>
      </trkpt>
      <trkpt lat="43.66765" lon="3.80325">
        <ele>143.94575908749</ele>
        <time>2020-10-17T09:02:00.000Z</time>
      </trkpt>
      <trkpt lat="43.66763" lon="3.80324">
        <ele>143.84713982035</ele>
        <time>2020-10-17T09:02:01.000Z</time>
      </trkpt>
      <trkpt lat="43.66758" lon="3.8032">
        <ele>143.64990128606</ele>
        <time>2020-10-17T09:02:03.000Z</time>
      </trkpt>
      <trkpt lat="43.66747" lon="3.80312">
        <ele>143.35404348463</ele>
        <time>2020-10-17T09:02:06.000Z</time>
      </trkpt>
      <trkpt lat="43.66744" lon="3.80309">
        <ele>143.25542421748</ele>
        <time>2020-10-17T09:02:07.000Z</time>
      </trkpt>
      <trkpt lat="43.66741" lon="3.80307">
        <ele>143.15680495034</ele>
        <time>2020-10-17T09:02:08.000Z</time>
      </trkpt>
      <trkpt lat="43.66738" lon="3.80304">
        <ele>143.0581856832</ele>
        <time>2020-10-17T09:02:09.000Z</time>
      </trkpt>
      <trkpt lat="43.66734" lon="3.80302">
        <ele>142.9168362949</ele>
        <time>2020-10-17T09:02:10.000Z</time>
      </trkpt>
      <trkpt lat="43.6673" lon="3.803">
        <ele>142.71399640665</ele>
        <time>2020-10-17T09:02:11.000Z</time>
      </trkpt>
      <trkpt lat="43.66726" lon="3.80298">
        <ele>142.5111565184</ele>
        <time>2020-10-17T09:02:12.000Z</time>
      </trkpt>
      <trkpt lat="43.66723" lon="3.80296">
        <ele>142.30831663014</ele>
        <time>2020-10-17T09:02:13.000Z</time>
      </trkpt>
      <trkpt lat="43.6672" lon="3.80294">
        <ele>142.10547674189</ele>
        <time>2020-10-17T09:02:14.000Z</time>
      </trkpt>
      <trkpt lat="43.66716" lon="3.80292">
        <ele>141.90263685364</ele>
        <time>2020-10-17T09:02:15.000Z</time>
      </trkpt>
      <trkpt lat="43.66713" lon="3.80291">
        <ele>141.69979696538</ele>
        <time>2020-10-17T09:02:16.000Z</time>
      </trkpt>
      <trkpt lat="43.6671" lon="3.80291">
        <ele>141.49695707713</ele>
        <time>2020-10-17T09:02:17.000Z</time>
      </trkpt>
      <trkpt lat="43.66707" lon="3.8029">
        <ele>141.29411718888</ele>
        <time>2020-10-17T09:02:18.000Z</time>
      </trkpt>
      <trkpt lat="43.66704" lon="3.80288">
        <ele>141.09127730063</ele>
        <time>2020-10-17T09:02:19.000Z</time>
      </trkpt>
      <trkpt lat="43.66701" lon="3.80286">
        <ele>140.94499968</ele>
        <time>2020-10-17T09:02:20.000Z</time>
      </trkpt>
      <trkpt lat="43.66697" lon="3.80284">
        <ele>140.84499968</ele>
        <time>2020-10-17T09:02:21.000Z</time>
      </trkpt>
      <trkpt lat="43.66694" lon="3.80283">
        <ele>140.74499968</ele>
        <time>2020-10-17T09:02:22.000Z</time>
      </trkpt>
      <trkpt lat="43.6669" lon="3.80281">
        <ele>140.64499968</ele>
        <time>2020-10-17T09:02:23.000Z</time>
      </trkpt>
      <trkpt lat="43.66686" lon="3.8028">
        <ele>140.54499968</ele>
        <time>2020-10-17T09:02:24.000Z</time>
      </trkpt>
      <trkpt lat="43.66683" lon="3.8028">
        <ele>140.44499968</ele>
        <time>2020-10-17T09:02:25.000Z</time>
      </trkpt>
      <trkpt lat="43.6668" lon="3.8028">
        <ele>140.34499968</ele>
        <time>2020-10-17T09:02:26.000Z</time>
      </trkpt>
      <trkpt lat="43.66677" lon="3.80279">
        <ele>140.24499968</ele>
        <time>2020-10-17T09:02:27.000Z</time>
      </trkpt>
      <trkpt lat="43.66675" lon="3.80279">
        <ele>140.14499968</ele>
        <time>2020-10-17T09:02:28.000Z</time>
      </trkpt>
      <trkpt lat="43.66672" lon="3.80279">
        <ele>140.04499968</ele>
        <time>2020-10-17T09:02:29.000Z</time>
      </trkpt>
      <trkpt lat="43.6667" lon="3.80279">
        <ele>140</ele>
        <time>2020-10-17T09:02:30.000Z</time>
      </trkpt>
      <trkpt lat="43.66667" lon="3.80279">
        <ele>140</ele>
        <time>2020-10-17T09:02:31.000Z</time>
      </trkpt>
      <trkpt lat="43.66665" lon="3.80278">
        <ele>140</ele>
        <time>2020-10-17T09:02:32.000Z</time>
      </trkpt>
      <trkpt lat="43.66661" lon="3.80278">
        <ele>140</ele>
        <time>2020-10-17T09:02:34.000Z</time>
      </trkpt>
      <trkpt lat="43.66658" lon="3.80277">
        <ele>140</ele>
        <time>2020-10-17T09:02:35.000Z</time>
      </trkpt>
      <trkpt lat="43.66655" lon="3.80276">
        <ele>140</ele>
        <time>2020-10-17T09:02:36.000Z</time>
      </trkpt>
      <trkpt lat="43.66652" lon="3.80275">
        <ele>140</ele>
        <time>2020-10-17T09:02:37.000Z</time>
      </trkpt>
      <trkpt lat="43.6665" lon="3.80274">
        <ele>140</ele>
        <time>2020-10-17T09:02:38.000Z</time>
      </trkpt>
      <trkpt lat="43.66647" lon="3.80273">
        <ele>140</ele>
        <time>2020-10-17T09:02:39.000Z</time>
      </trkpt>
      <trkpt lat="43.66644" lon="3.80273">
        <ele>139.972221893</ele>
        <time>2020-10-17T09:02:40.000Z</time>
      </trkpt>
      <trkpt lat="43.66642" lon="3.80273">
        <ele>139.86934123457</ele>
        <time>2020-10-17T09:02:41.000Z</time>
      </trkpt>
      <trkpt lat="43.66639" lon="3.80272">
        <ele>139.76646057613</ele>
        <time>2020-10-17T09:02:42.000Z</time>
      </trkpt>
      <trkpt lat="43.66636" lon="3.80272">
        <ele>139.66357991769</ele>
        <time>2020-10-17T09:02:43.000Z</time>
      </trkpt>
      <trkpt lat="43.66634" lon="3.80272">
        <ele>139.56069925926</ele>
        <time>2020-10-17T09:02:44.000Z</time>
      </trkpt>
      <trkpt lat="43.66631" lon="3.80273">
        <ele>139.45781860082</ele>
        <time>2020-10-17T09:02:45.000Z</time>
      </trkpt>
      <trkpt lat="43.66629" lon="3.80273">
        <ele>139.35493794239</ele>
        <time>2020-10-17T09:02:46.000Z</time>
      </trkpt>
      <trkpt lat="43.66627" lon="3.80274">
        <ele>139.25205728395</ele>
        <time>2020-10-17T09:02:47.000Z</time>
      </trkpt>
      <trkpt lat="43.66624" lon="3.80274">
        <ele>139.14917662551</ele>
        <time>2020-10-17T09:02:48.000Z</time>
      </trkpt>
      <trkpt lat="43.66622" lon="3.80275">
        <ele>139.04629596708</ele>
        <time>2020-10-17T09:02:49.000Z</time>
      </trkpt>
      <trkpt lat="43.6662" lon="3.80276">
        <ele>138.94499968</ele>
        <time>2020-10-17T09:02:50.000Z</time>
      </trkpt>
      <trkpt lat="43.66617" lon="3.80277">
        <ele>138.84499968</ele>
        <time>2020-10-17T09:02:51.000Z</time>
      </trkpt>
      <trkpt lat="43.66615" lon="3.80278">
        <ele>138.74499968</ele>
        <time>2020-10-17T09:02:52.000Z</time>
      </trkpt>
      <trkpt lat="43.66613" lon="3.80279">
        <ele>138.64499968</ele>
        <time>2020-10-17T09:02:53.000Z</time>
      </trkpt>
      <trkpt lat="43.66611" lon="3.8028">
        <ele>138.54499968</ele>
        <time>2020-10-17T09:02:54.000Z</time>
      </trkpt>
      <trkpt lat="43.66608" lon="3.80281">
        <ele>138.44499968</ele>
        <time>2020-10-17T09:02:55.000Z</time>
      </trkpt>
      <trkpt lat="43.66605" lon="3.80282">
        <ele>138.34499968</ele>
        <time>2020-10-17T09:02:56.000Z</time>
      </trkpt>
      <trkpt lat="43.66602" lon="3.80282">
        <ele>138.24499968</ele>
        <time>2020-10-17T09:02:57.000Z</time>
      </trkpt>
      <trkpt lat="43.666" lon="3.80283">
        <ele>138.14499968</ele>
        <time>2020-10-17T09:02:58.000Z</time>
      </trkpt>
      <trkpt lat="43.66597" lon="3.80283">
        <ele>138.04499968</ele>
        <time>2020-10-17T09:02:59.000Z</time>
      </trkpt>
      <trkpt lat="43.66595" lon="3.80283">
        <ele>137.94499968</ele>
        <time>2020-10-17T09:03:00.000Z</time>
      </trkpt>
      <trkpt lat="43.66593" lon="3.80283">
        <ele>137.84499968</ele>
        <time>2020-10-17T09:03:01.000Z</time>
      </trkpt>
      <trkpt lat="43.6659" lon="3.80283">
        <ele>137.74499968</ele>
        <time>2020-10-17T09:03:02.000Z</time>
      </trkpt>
      <trkpt lat="43.66588" lon="3.80283">
        <ele>137.64499968</ele>
        <time>2020-10-17T09:03:03.000Z</time>
      </trkpt>
      <trkpt lat="43.66586" lon="3.80282">
        <ele>137.54499968</ele>
        <time>2020-10-17T09:03:04.000Z</time>
      </trkpt>
      <trkpt lat="43.66584" lon="3.80282">
        <ele>137.44499968</ele>
        <time>2020-10-17T09:03:05.000Z</time>
      </trkpt>
      <trkpt lat="43.66581" lon="3.80281">
        <ele>137.34499968</ele>
        <time>2020-10-17T09:03:06.000Z</time>
      </trkpt>
      <trkpt lat="43.66579" lon="3.8028">
        <ele>137.24499968</ele>
        <time>2020-10-17T09:03:07.000Z</time>
      </trkpt>
      <trkpt lat="43.66576" lon="3.80278">
        <ele>137.14499968</ele>
        <time>2020-10-17T09:03:08.000Z</time>
      </trkpt>
      <trkpt lat="43.66574" lon="3.80277">
        <ele>137.04499968</ele>
        <time>2020-10-17T09:03:09.000Z</time>
      </trkpt>
      <trkpt lat="43.66571" lon="3.80275">
        <ele>137</ele>
        <time>2020-10-17T09:03:10.000Z</time>
      </trkpt>
      <trkpt lat="43.66569" lon="3.80273">
        <ele>137</ele>
        <time>2020-10-17T09:03:11.000Z</time>
      </trkpt>
      <trkpt lat="43.66567" lon="3.80271">
        <ele>137</ele>
        <time>2020-10-17T09:03:12.000Z</time>
      </trkpt>
      <trkpt lat="43.66565" lon="3.80269">
        <ele>137</ele>
        <time>2020-10-17T09:03:13.000Z</time>
      </trkpt>
      <trkpt lat="43.66563" lon="3.80266">
        <ele>137</ele>
        <time>2020-10-17T09:03:14.000Z</time>
      </trkpt>
      <trkpt lat="43.66561" lon="3.80263">
        <ele>137</ele>
        <time>2020-10-17T09:03:15.000Z</time>
      </trkpt>
      <trkpt lat="43.6656" lon="3.8026">
        <ele>137</ele>
        <time>2020-10-17T09:03:16.000Z</time>
      </trkpt>
      <trkpt lat="43.66559" lon="3.80256">
        <ele>137</ele>
        <time>2020-10-17T09:03:17.000Z</time>
      </trkpt>
      <trkpt lat="43.66557" lon="3.80253">
        <ele>137</ele>
        <time>2020-10-17T09:03:18.000Z</time>
      </trkpt>
      <trkpt lat="43.66556" lon="3.80249">
        <ele>137</ele>
        <time>2020-10-17T09:03:19.000Z</time>
      </trkpt>
      <trkpt lat="43.66555" lon="3.80247">
        <ele>136.94499968</ele>
        <time>2020-10-17T09:03:20.000Z</time>
      </trkpt>
      <trkpt lat="43.66553" lon="3.80244">
        <ele>136.84499968</ele>
        <time>2020-10-17T09:03:21.000Z</time>
      </trkpt>
      <trkpt lat="43.66552" lon="3.80241">
        <ele>136.74499968</ele>
        <time>2020-10-17T09:03:22.000Z</time>
      </trkpt>
      <trkpt lat="43.6655" lon="3.80238">
        <ele>136.64499968</ele>
        <time>2020-10-17T09:03:23.000Z</time>
      </trkpt>
      <trkpt lat="43.66548" lon="3.80235">
        <ele>136.54499968</ele>
        <time>2020-10-17T09:03:24.000Z</time>
      </trkpt>
      <trkpt lat="43.66546" lon="3.80232">
        <ele>136.44499968</ele>
        <time>2020-10-17T09:03:25.000Z</time>
      </trkpt>
      <trkpt lat="43.66544" lon="3.8023">
        <ele>136.34499968</ele>
        <time>2020-10-17T09:03:26.000Z</time>
      </trkpt>
      <trkpt lat="43.66542" lon="3.80227">
        <ele>136.24499968</ele>
        <time>2020-10-17T09:03:27.000Z</time>
      </trkpt>
      <trkpt lat="43.66539" lon="3.80225">
        <ele>136.14499968</ele>
        <time>2020-10-17T09:03:28.000Z</time>
      </trkpt>
      <trkpt lat="43.66537" lon="3.80223">
        <ele>136.04499968</ele>
        <time>2020-10-17T09:03:29.000Z</time>
      </trkpt>
      <trkpt lat="43.66535" lon="3.8022">
        <ele>136.05494539219</ele>
        <time>2020-10-17T09:03:30.000Z</time>
      </trkpt>
      <trkpt lat="43.66533" lon="3.80219">
        <ele>136.15484552403</ele>
        <time>2020-10-17T09:03:31.000Z</time>
      </trkpt>
      <trkpt lat="43.6653" lon="3.80217">
        <ele>136.25474565586</ele>
        <time>2020-10-17T09:03:32.000Z</time>
      </trkpt>
      <trkpt lat="43.66528" lon="3.80216">
        <ele>136.3546457877</ele>
        <time>2020-10-17T09:03:33.000Z</time>
      </trkpt>
      <trkpt lat="43.66526" lon="3.80214">
        <ele>136.45454591954</ele>
        <time>2020-10-17T09:03:34.000Z</time>
      </trkpt>
      <trkpt lat="43.66524" lon="3.80213">
        <ele>136.55444605137</ele>
        <time>2020-10-17T09:03:35.000Z</time>
      </trkpt>
      <trkpt lat="43.66522" lon="3.80212">
        <ele>136.65434618321</ele>
        <time>2020-10-17T09:03:36.000Z</time>
      </trkpt>
      <trkpt lat="43.6652" lon="3.8021">
        <ele>136.75424631504</ele>
        <time>2020-10-17T09:03:37.000Z</time>
      </trkpt>
      <trkpt lat="43.66518" lon="3.80209">
        <ele>136.85414644688</ele>
        <time>2020-10-17T09:03:38.000Z</time>
      </trkpt>
      <trkpt lat="43.66515" lon="3.80207">
        <ele>137</ele>
        <time>2020-10-17T09:03:40.000Z</time>
      </trkpt>
      <trkpt lat="43.66512" lon="3.80205">
        <ele>137</ele>
        <time>2020-10-17T09:03:41.000Z</time>
      </trkpt>
      <trkpt lat="43.6651" lon="3.80204">
        <ele>137</ele>
        <time>2020-10-17T09:03:42.000Z</time>
      </trkpt>
      <trkpt lat="43.66508" lon="3.80202">
        <ele>137</ele>
        <time>2020-10-17T09:03:43.000Z</time>
      </trkpt>
      <trkpt lat="43.66507" lon="3.80199">
        <ele>137</ele>
        <time>2020-10-17T09:03:44.000Z</time>
      </trkpt>
      <trkpt lat="43.66505" lon="3.80197">
        <ele>137</ele>
        <time>2020-10-17T09:03:45.000Z</time>
      </trkpt>
      <trkpt lat="43.66503" lon="3.80194">
        <ele>137</ele>
        <time>2020-10-17T09:03:46.000Z</time>
      </trkpt>
      <trkpt lat="43.66501" lon="3.80192">
        <ele>137</ele>
        <time>2020-10-17T09:03:47.000Z</time>
      </trkpt>
      <trkpt lat="43.66499" lon="3.8019">
        <ele>137</ele>
        <time>2020-10-17T09:03:48.000Z</time>
      </trkpt>
      <trkpt lat="43.66497" lon="3.80187">
        <ele>137</ele>
        <time>2020-10-17T09:03:49.000Z</time>
      </trkpt>
      <trkpt lat="43.66495" lon="3.80185">
        <ele>137</ele>
        <time>2020-10-17T09:03:50.000Z</time>
      </trkpt>
      <trkpt lat="43.66493" lon="3.80183">
        <ele>137</ele>
        <time>2020-10-17T09:03:51.000Z</time>
      </trkpt>
      <trkpt lat="43.66491" lon="3.80181">
        <ele>137</ele>
        <time>2020-10-17T09:03:52.000Z</time>
      </trkpt>
      <trkpt lat="43.66489" lon="3.80178">
        <ele>137</ele>
        <time>2020-10-17T09:03:53.000Z</time>
      </trkpt>
      <trkpt lat="43.66486" lon="3.80176">
        <ele>137</ele>
        <time>2020-10-17T09:03:54.000Z</time>
      </trkpt>
      <trkpt lat="43.66484" lon="3.80173">
        <ele>137</ele>
        <time>2020-10-17T09:03:55.000Z</time>
      </trkpt>
      <trkpt lat="43.66482" lon="3.8017">
        <ele>137</ele>
        <time>2020-10-17T09:03:56.000Z</time>
      </trkpt>
      <trkpt lat="43.66479" lon="3.80168">
        <ele>137</ele>
        <time>2020-10-17T09:03:57.000Z</time>
      </trkpt>
      <trkpt lat="43.66477" lon="3.80165">
        <ele>137</ele>
        <time>2020-10-17T09:03:58.000Z</time>
      </trkpt>
      <trkpt lat="43.66475" lon="3.80163">
        <ele>137</ele>
        <time>2020-10-17T09:03:59.000Z</time>
      </trkpt>
      <trkpt lat="43.66472" lon="3.8016">
        <ele>137</ele>
        <time>2020-10-17T09:04:00.000Z</time>
      </trkpt>
      <trkpt lat="43.6647" lon="3.80158">
        <ele>137</ele>
        <time>2020-10-17T09:04:01.000Z</time>
      </trkpt>
      <trkpt lat="43.66468" lon="3.80156">
        <ele>137</ele>
        <time>2020-10-17T09:04:02.000Z</time>
      </trkpt>
      <trkpt lat="43.66465" lon="3.80154">
        <ele>137</ele>
        <time>2020-10-17T09:04:03.000Z</time>
      </trkpt>
      <trkpt lat="43.66463" lon="3.80151">
        <ele>137</ele>
        <time>2020-10-17T09:04:04.000Z</time>
      </trkpt>
      <trkpt lat="43.66461" lon="3.80149">
        <ele>137</ele>
        <time>2020-10-17T09:04:05.000Z</time>
      </trkpt>
      <trkpt lat="43.66459" lon="3.80147">
        <ele>137</ele>
        <time>2020-10-17T09:04:06.000Z</time>
      </trkpt>
      <trkpt lat="43.66457" lon="3.80145">
        <ele>137</ele>
        <time>2020-10-17T09:04:07.000Z</time>
      </trkpt>
      <trkpt lat="43.66454" lon="3.80143">
        <ele>137</ele>
        <time>2020-10-17T09:04:08.000Z</time>
      </trkpt>
      <trkpt lat="43.66452" lon="3.80141">
        <ele>137</ele>
        <time>2020-10-17T09:04:09.000Z</time>
      </trkpt>
      <trkpt lat="43.66449" lon="3.80139">
        <ele>136.94499968</ele>
        <time>2020-10-17T09:04:10.000Z</time>
      </trkpt>
      <trkpt lat="43.66447" lon="3.80137">
        <ele>136.84499968</ele>
        <time>2020-10-17T09:04:11.000Z</time>
      </trkpt>
      <trkpt lat="43.66444" lon="3.80136">
        <ele>136.74499968</ele>
        <time>2020-10-17T09:04:12.000Z</time>
      </trkpt>
      <trkpt lat="43.66442" lon="3.80134">
        <ele>136.64499968</ele>
        <time>2020-10-17T09:04:13.000Z</time>
      </trkpt>
      <trkpt lat="43.66439" lon="3.80132">
        <ele>136.54499968</ele>
        <time>2020-10-17T09:04:14.000Z</time>
      </trkpt>
      <trkpt lat="43.66436" lon="3.8013">
        <ele>136.44499968</ele>
        <time>2020-10-17T09:04:15.000Z</time>
      </trkpt>
      <trkpt lat="43.66434" lon="3.80128">
        <ele>136.34499968</ele>
        <time>2020-10-17T09:04:16.000Z</time>
      </trkpt>
      <trkpt lat="43.66431" lon="3.80127">
        <ele>136.24499968</ele>
        <time>2020-10-17T09:04:17.000Z</time>
      </trkpt>
      <trkpt lat="43.66429" lon="3.80125">
        <ele>136.14499968</ele>
        <time>2020-10-17T09:04:18.000Z</time>
      </trkpt>
      <trkpt lat="43.66426" lon="3.80123">
        <ele>136.04499968</ele>
        <time>2020-10-17T09:04:19.000Z</time>
      </trkpt>
      <trkpt lat="43.66424" lon="3.80122">
        <ele>135.94665344042</ele>
        <time>2020-10-17T09:04:20.000Z</time>
      </trkpt>
      <trkpt lat="43.66421" lon="3.8012">
        <ele>135.84966026005</ele>
        <time>2020-10-17T09:04:21.000Z</time>
      </trkpt>
      <trkpt lat="43.66419" lon="3.80118">
        <ele>135.75266707968</ele>
        <time>2020-10-17T09:04:22.000Z</time>
      </trkpt>
      <trkpt lat="43.66417" lon="3.80116">
        <ele>135.65567389931</ele>
        <time>2020-10-17T09:04:23.000Z</time>
      </trkpt>
      <trkpt lat="43.66414" lon="3.80115">
        <ele>135.55868071893</ele>
        <time>2020-10-17T09:04:24.000Z</time>
      </trkpt>
      <trkpt lat="43.66412" lon="3.80113">
        <ele>135.46168753856</ele>
        <time>2020-10-17T09:04:25.000Z</time>
      </trkpt>
      <trkpt lat="43.6641" lon="3.80112">
        <ele>135.36469435819</ele>
        <time>2020-10-17T09:04:26.000Z</time>
      </trkpt>
      <trkpt lat="43.66407" lon="3.8011">
        <ele>135.26770117782</ele>
        <time>2020-10-17T09:04:27.000Z</time>
      </trkpt>
      <trkpt lat="43.66405" lon="3.80108">
        <ele>135.17070799745</ele>
        <time>2020-10-17T09:04:28.000Z</time>
      </trkpt>
      <trkpt lat="43.66402" lon="3.80107">
        <ele>135.07371481708</ele>
        <time>2020-10-17T09:04:29.000Z</time>
      </trkpt>
      <trkpt lat="43.66399" lon="3.80106">
        <ele>135.02476781004</ele>
        <time>2020-10-17T09:04:30.000Z</time>
      </trkpt>
      <trkpt lat="43.66397" lon="3.80104">
        <ele>135.12796701852</ele>
        <time>2020-10-17T09:04:31.000Z</time>
      </trkpt>
      <trkpt lat="43.66394" lon="3.80103">
        <ele>135.23116622701</ele>
        <time>2020-10-17T09:04:32.000Z</time>
      </trkpt>
      <trkpt lat="43.66392" lon="3.80102">
        <ele>135.3343654355</ele>
        <time>2020-10-17T09:04:33.000Z</time>
      </trkpt>
      <trkpt lat="43.6639" lon="3.80101">
        <ele>135.43756464398</ele>
        <time>2020-10-17T09:04:34.000Z</time>
      </trkpt>
      <trkpt lat="43.66387" lon="3.801">
        <ele>135.54076385247</ele>
        <time>2020-10-17T09:04:35.000Z</time>
      </trkpt>
      <trkpt lat="43.66385" lon="3.80099">
        <ele>135.64396306096</ele>
        <time>2020-10-17T09:04:36.000Z</time>
      </trkpt>
      <trkpt lat="43.66382" lon="3.80098">
        <ele>135.74716226944</ele>
        <time>2020-10-17T09:04:37.000Z</time>
      </trkpt>
      <trkpt lat="43.6638" lon="3.80097">
        <ele>135.85036147793</ele>
        <time>2020-10-17T09:04:38.000Z</time>
      </trkpt>
      <trkpt lat="43.66378" lon="3.80096">
        <ele>135.95356068642</ele>
        <time>2020-10-17T09:04:39.000Z</time>
      </trkpt>
      <trkpt lat="43.66375" lon="3.80095">
        <ele>136</ele>
        <time>2020-10-17T09:04:40.000Z</time>
      </trkpt>
      <trkpt lat="43.66373" lon="3.80094">
        <ele>136</ele>
        <time>2020-10-17T09:04:41.000Z</time>
      </trkpt>
      <trkpt lat="43.6637" lon="3.80093">
        <ele>136</ele>
        <time>2020-10-17T09:04:42.000Z</time>
      </trkpt>
      <trkpt lat="43.66368" lon="3.80092">
        <ele>136</ele>
        <time>2020-10-17T09:04:43.000Z</time>
      </trkpt>
      <trkpt lat="43.66366" lon="3.80092">
        <ele>136</ele>
        <time>2020-10-17T09:04:44.000Z</time>
      </trkpt>
      <trkpt lat="43.66364" lon="3.80091">
        <ele>136</ele>
        <time>2020-10-17T09:04:45.000Z</time>
      </trkpt>
      <trkpt lat="43.66361" lon="3.80091">
        <ele>136</ele>
        <time>2020-10-17T09:04:46.000Z</time>
      </trkpt>
      <trkpt lat="43.66359" lon="3.80091">
        <ele>136</ele>
        <time>2020-10-17T09:04:47.000Z</time>
      </trkpt>
      <trkpt lat="43.66358" lon="3.8009">
        <ele>136</ele>
        <time>2020-10-17T09:04:48.000Z</time>
      </trkpt>
      <trkpt lat="43.66356" lon="3.80089">
        <ele>136</ele>
        <time>2020-10-17T09:04:49.000Z</time>
      </trkpt>
      <trkpt lat="43.66354" lon="3.80089">
        <ele>136.1005013231</ele>
        <time>2020-10-17T09:04:50.000Z</time>
      </trkpt>
      <trkpt lat="43.66352" lon="3.80089">
        <ele>136.30150654216</ele>
        <time>2020-10-17T09:04:51.000Z</time>
      </trkpt>
      <trkpt lat="43.6635" lon="3.80088">
        <ele>136.50251176122</ele>
        <time>2020-10-17T09:04:52.000Z</time>
      </trkpt>
      <trkpt lat="43.66348" lon="3.80088">
        <ele>136.70351698028</ele>
        <time>2020-10-17T09:04:53.000Z</time>
      </trkpt>
      <trkpt lat="43.66346" lon="3.80088">
        <ele>136.90452219934</ele>
        <time>2020-10-17T09:04:54.000Z</time>
      </trkpt>
      <trkpt lat="43.66343" lon="3.80087">
        <ele>137.30653263746</ele>
        <time>2020-10-17T09:04:56.000Z</time>
      </trkpt>
      <trkpt lat="43.6634" lon="3.80086">
        <ele>137.50753785652</ele>
        <time>2020-10-17T09:04:57.000Z</time>
      </trkpt>
      <trkpt lat="43.66338" lon="3.80085">
        <ele>137.70854307558</ele>
        <time>2020-10-17T09:04:58.000Z</time>
      </trkpt>
      <trkpt lat="43.66335" lon="3.80084">
        <ele>137.90954829464</ele>
        <time>2020-10-17T09:04:59.000Z</time>
      </trkpt>
      <trkpt lat="43.66332" lon="3.80083">
        <ele>138</ele>
        <time>2020-10-17T09:05:00.000Z</time>
      </trkpt>
      <trkpt lat="43.6633" lon="3.80081">
        <ele>138</ele>
        <time>2020-10-17T09:05:01.000Z</time>
      </trkpt>
      <trkpt lat="43.66327" lon="3.8008">
        <ele>138</ele>
        <time>2020-10-17T09:05:02.000Z</time>
      </trkpt>
      <trkpt lat="43.66325" lon="3.80078">
        <ele>138</ele>
        <time>2020-10-17T09:05:03.000Z</time>
      </trkpt>
      <trkpt lat="43.66322" lon="3.80077">
        <ele>138</ele>
        <time>2020-10-17T09:05:04.000Z</time>
      </trkpt>
      <trkpt lat="43.6632" lon="3.80074">
        <ele>138</ele>
        <time>2020-10-17T09:05:05.000Z</time>
      </trkpt>
      <trkpt lat="43.66317" lon="3.80072">
        <ele>138</ele>
        <time>2020-10-17T09:05:06.000Z</time>
      </trkpt>
      <trkpt lat="43.66315" lon="3.80071">
        <ele>138</ele>
        <time>2020-10-17T09:05:07.000Z</time>
      </trkpt>
      <trkpt lat="43.66312" lon="3.80068">
        <ele>138</ele>
        <time>2020-10-17T09:05:08.000Z</time>
      </trkpt>
      <trkpt lat="43.6631" lon="3.80066">
        <ele>138</ele>
        <time>2020-10-17T09:05:09.000Z</time>
      </trkpt>
      <trkpt lat="43.66308" lon="3.80064">
        <ele>137.972221893</ele>
        <time>2020-10-17T09:05:10.000Z</time>
      </trkpt>
      <trkpt lat="43.66306" lon="3.80062">
        <ele>137.86934123457</ele>
        <time>2020-10-17T09:05:11.000Z</time>
      </trkpt>
      <trkpt lat="43.66304" lon="3.80059">
        <ele>137.76646057613</ele>
        <time>2020-10-17T09:05:12.000Z</time>
      </trkpt>
      <trkpt lat="43.66302" lon="3.80057">
        <ele>137.66357991769</ele>
        <time>2020-10-17T09:05:13.000Z</time>
      </trkpt>
      <trkpt lat="43.663" lon="3.80055">
        <ele>137.56069925926</ele>
        <time>2020-10-17T09:05:14.000Z</time>
      </trkpt>
      <trkpt lat="43.66298" lon="3.80052">
        <ele>137.45781860082</ele>
        <time>2020-10-17T09:05:15.000Z</time>
      </trkpt>
      <trkpt lat="43.66296" lon="3.8005">
        <ele>137.35493794239</ele>
        <time>2020-10-17T09:05:16.000Z</time>
      </trkpt>
      <trkpt lat="43.66294" lon="3.80048">
        <ele>137.25205728395</ele>
        <time>2020-10-17T09:05:17.000Z</time>
      </trkpt>
      <trkpt lat="43.66292" lon="3.80046">
        <ele>137.14917662551</ele>
        <time>2020-10-17T09:05:18.000Z</time>
      </trkpt>
      <trkpt lat="43.6629" lon="3.80044">
        <ele>137.04629596708</ele>
        <time>2020-10-17T09:05:19.000Z</time>
      </trkpt>
      <trkpt lat="43.66288" lon="3.80042">
        <ele>136.94649774319</ele>
        <time>2020-10-17T09:05:20.000Z</time>
      </trkpt>
      <trkpt lat="43.66286" lon="3.80039">
        <ele>136.8492214786</ele>
        <time>2020-10-17T09:05:21.000Z</time>
      </trkpt>
      <trkpt lat="43.66285" lon="3.80037">
        <ele>136.75194521401</ele>
        <time>2020-10-17T09:05:22.000Z</time>
      </trkpt>
      <trkpt lat="43.66283" lon="3.80035">
        <ele>136.65466894942</ele>
        <time>2020-10-17T09:05:23.000Z</time>
      </trkpt>
      <trkpt lat="43.6628" lon="3.80033">
        <ele>136.55739268483</ele>
        <time>2020-10-17T09:05:24.000Z</time>
      </trkpt>
      <trkpt lat="43.66278" lon="3.80031">
        <ele>136.46011642023</ele>
        <time>2020-10-17T09:05:25.000Z</time>
      </trkpt>
      <trkpt lat="43.66277" lon="3.8003">
        <ele>136.36284015564</ele>
        <time>2020-10-17T09:05:26.000Z</time>
      </trkpt>
      <trkpt lat="43.66275" lon="3.80028">
        <ele>136.26556389105</ele>
        <time>2020-10-17T09:05:27.000Z</time>
      </trkpt>
      <trkpt lat="43.66273" lon="3.80026">
        <ele>136.16828762646</ele>
        <time>2020-10-17T09:05:28.000Z</time>
      </trkpt>
      <trkpt lat="43.66271" lon="3.80024">
        <ele>136.07101136187</ele>
        <time>2020-10-17T09:05:29.000Z</time>
      </trkpt>
      <trkpt lat="43.66269" lon="3.80023">
        <ele>136</ele>
        <time>2020-10-17T09:05:30.000Z</time>
      </trkpt>
      <trkpt lat="43.66267" lon="3.80022">
        <ele>136</ele>
        <time>2020-10-17T09:05:31.000Z</time>
      </trkpt>
      <trkpt lat="43.66265" lon="3.8002">
        <ele>136</ele>
        <time>2020-10-17T09:05:32.000Z</time>
      </trkpt>
      <trkpt lat="43.66263" lon="3.80019">
        <ele>136</ele>
        <time>2020-10-17T09:05:33.000Z</time>
      </trkpt>
      <trkpt lat="43.66261" lon="3.80018">
        <ele>136</ele>
        <time>2020-10-17T09:05:34.000Z</time>
      </trkpt>
      <trkpt lat="43.66259" lon="3.80017">
        <ele>136</ele>
        <time>2020-10-17T09:05:35.000Z</time>
      </trkpt>
      <trkpt lat="43.66257" lon="3.80016">
        <ele>136</ele>
        <time>2020-10-17T09:05:36.000Z</time>
      </trkpt>
      <trkpt lat="43.66255" lon="3.80015">
        <ele>136</ele>
        <time>2020-10-17T09:05:37.000Z</time>
      </trkpt>
      <trkpt lat="43.66253" lon="3.80015">
        <ele>136</ele>
        <time>2020-10-17T09:05:38.000Z</time>
      </trkpt>
      <trkpt lat="43.66251" lon="3.80015">
        <ele>136</ele>
        <time>2020-10-17T09:05:39.000Z</time>
      </trkpt>
      <trkpt lat="43.66249" lon="3.80015">
        <ele>136</ele>
        <time>2020-10-17T09:05:40.000Z</time>
      </trkpt>
      <trkpt lat="43.66247" lon="3.80014">
        <ele>136</ele>
        <time>2020-10-17T09:05:41.000Z</time>
      </trkpt>
      <trkpt lat="43.66244" lon="3.80014">
        <ele>136</ele>
        <time>2020-10-17T09:05:42.000Z</time>
      </trkpt>
      <trkpt lat="43.66242" lon="3.80014">
        <ele>136</ele>
        <time>2020-10-17T09:05:43.000Z</time>
      </trkpt>
      <trkpt lat="43.6624" lon="3.80013">
        <ele>136</ele>
        <time>2020-10-17T09:05:44.000Z</time>
      </trkpt>
      <trkpt lat="43.66238" lon="3.80013">
        <ele>136</ele>
        <time>2020-10-17T09:05:45.000Z</time>
      </trkpt>
      <trkpt lat="43.66236" lon="3.80013">
        <ele>136</ele>
        <time>2020-10-17T09:05:46.000Z</time>
      </trkpt>
      <trkpt lat="43.66234" lon="3.80013">
        <ele>136</ele>
        <time>2020-10-17T09:05:47.000Z</time>
      </trkpt>
      <trkpt lat="43.66232" lon="3.80013">
        <ele>136</ele>
        <time>2020-10-17T09:05:48.000Z</time>
      </trkpt>
      <trkpt lat="43.6623" lon="3.80013">
        <ele>136</ele>
        <time>2020-10-17T09:05:49.000Z</time>
      </trkpt>
      <trkpt lat="43.66228" lon="3.80014">
        <ele>136.027778107</ele>
        <time>2020-10-17T09:05:50.000Z</time>
      </trkpt>
      <trkpt lat="43.66226" lon="3.80014">
        <ele>136.13065876543</ele>
        <time>2020-10-17T09:05:51.000Z</time>
      </trkpt>
      <trkpt lat="43.66224" lon="3.80014">
        <ele>136.23353942387</ele>
        <time>2020-10-17T09:05:52.000Z</time>
      </trkpt>
      <trkpt lat="43.66222" lon="3.80014">
        <ele>136.33642008231</ele>
        <time>2020-10-17T09:05:53.000Z</time>
      </trkpt>
      <trkpt lat="43.6622" lon="3.80015">
        <ele>136.43930074074</ele>
        <time>2020-10-17T09:05:54.000Z</time>
      </trkpt>
      <trkpt lat="43.66218" lon="3.80016">
        <ele>136.54218139918</ele>
        <time>2020-10-17T09:05:55.000Z</time>
      </trkpt>
      <trkpt lat="43.66216" lon="3.80016">
        <ele>136.64506205761</ele>
        <time>2020-10-17T09:05:56.000Z</time>
      </trkpt>
      <trkpt lat="43.66214" lon="3.80017">
        <ele>136.74794271605</ele>
        <time>2020-10-17T09:05:57.000Z</time>
      </trkpt>
      <trkpt lat="43.66212" lon="3.80018">
        <ele>136.85082337449</ele>
        <time>2020-10-17T09:05:58.000Z</time>
      </trkpt>
      <trkpt lat="43.6621" lon="3.80018">
        <ele>136.95370403292</ele>
        <time>2020-10-17T09:05:59.000Z</time>
      </trkpt>
      <trkpt lat="43.66208" lon="3.80019">
        <ele>136.94527336571</ele>
        <time>2020-10-17T09:06:00.000Z</time>
      </trkpt>
      <trkpt lat="43.66206" lon="3.8002">
        <ele>136.84577097319</ele>
        <time>2020-10-17T09:06:01.000Z</time>
      </trkpt>
      <trkpt lat="43.66204" lon="3.8002">
        <ele>136.74626858068</ele>
        <time>2020-10-17T09:06:02.000Z</time>
      </trkpt>
      <trkpt lat="43.66202" lon="3.80021">
        <ele>136.64676618816</ele>
        <time>2020-10-17T09:06:03.000Z</time>
      </trkpt>
      <trkpt lat="43.662" lon="3.80022">
        <ele>136.54726379565</ele>
        <time>2020-10-17T09:06:04.000Z</time>
      </trkpt>
      <trkpt lat="43.66198" lon="3.80023">
        <ele>136.44776140313</ele>
        <time>2020-10-17T09:06:05.000Z</time>
      </trkpt>
      <trkpt lat="43.66196" lon="3.80023">
        <ele>136.34825901062</ele>
        <time>2020-10-17T09:06:06.000Z</time>
      </trkpt>
      <trkpt lat="43.66194" lon="3.80024">
        <ele>136.2487566181</ele>
        <time>2020-10-17T09:06:07.000Z</time>
      </trkpt>
      <trkpt lat="43.66193" lon="3.80025">
        <ele>136.14925422559</ele>
        <time>2020-10-17T09:06:08.000Z</time>
      </trkpt>
      <trkpt lat="43.66191" lon="3.80026">
        <ele>136.04975183307</ele>
        <time>2020-10-17T09:06:09.000Z</time>
      </trkpt>
      <trkpt lat="43.66189" lon="3.80026">
        <ele>136</ele>
        <time>2020-10-17T09:06:10.000Z</time>
      </trkpt>
      <trkpt lat="43.66187" lon="3.80026">
        <ele>136</ele>
        <time>2020-10-17T09:06:11.000Z</time>
      </trkpt>
      <trkpt lat="43.66185" lon="3.80027">
        <ele>136</ele>
        <time>2020-10-17T09:06:12.000Z</time>
      </trkpt>
      <trkpt lat="43.66183" lon="3.80027">
        <ele>136</ele>
        <time>2020-10-17T09:06:13.000Z</time>
      </trkpt>
      <trkpt lat="43.66181" lon="3.80027">
        <ele>136</ele>
        <time>2020-10-17T09:06:14.000Z</time>
      </trkpt>
      <trkpt lat="43.66179" lon="3.80028">
        <ele>136</ele>
        <time>2020-10-17T09:06:15.000Z</time>
      </trkpt>
      <trkpt lat="43.66177" lon="3.80028">
        <ele>136</ele>
        <time>2020-10-17T09:06:16.000Z</time>
      </trkpt>
      <trkpt lat="43.66175" lon="3.80027">
        <ele>136</ele>
        <time>2020-10-17T09:06:17.000Z</time>
      </trkpt>
      <trkpt lat="43.66173" lon="3.80027">
        <ele>136</ele>
        <time>2020-10-17T09:06:18.000Z</time>
      </trkpt>
      <trkpt lat="43.66171" lon="3.80026">
        <ele>136</ele>
        <time>2020-10-17T09:06:19.000Z</time>
      </trkpt>
      <trkpt lat="43.66169" lon="3.80025">
        <ele>136</ele>
        <time>2020-10-17T09:06:20.000Z</time>
      </trkpt>
      <trkpt lat="43.66168" lon="3.80024">
        <ele>136</ele>
        <time>2020-10-17T09:06:21.000Z</time>
      </trkpt>
      <trkpt lat="43.66166" lon="3.80022">
        <ele>136</ele>
        <time>2020-10-17T09:06:22.000Z</time>
      </trkpt>
      <trkpt lat="43.66163" lon="3.80019">
        <ele>136</ele>
        <time>2020-10-17T09:06:24.000Z</time>
      </trkpt>
      <trkpt lat="43.66162" lon="3.80016">
        <ele>136</ele>
        <time>2020-10-17T09:06:25.000Z</time>
      </trkpt>
      <trkpt lat="43.66161" lon="3.80014">
        <ele>136</ele>
        <time>2020-10-17T09:06:26.000Z</time>
      </trkpt>
      <trkpt lat="43.66159" lon="3.80011">
        <ele>136</ele>
        <time>2020-10-17T09:06:27.000Z</time>
      </trkpt>
      <trkpt lat="43.66158" lon="3.80009">
        <ele>136</ele>
        <time>2020-10-17T09:06:28.000Z</time>
      </trkpt>
      <trkpt lat="43.66157" lon="3.80007">
        <ele>136</ele>
        <time>2020-10-17T09:06:29.000Z</time>
      </trkpt>
      <trkpt lat="43.66156" lon="3.80004">
        <ele>136</ele>
        <time>2020-10-17T09:06:30.000Z</time>
      </trkpt>
      <trkpt lat="43.66155" lon="3.80001">
        <ele>136</ele>
        <time>2020-10-17T09:06:31.000Z</time>
      </trkpt>
      <trkpt lat="43.66153" lon="3.79999">
        <ele>136</ele>
        <time>2020-10-17T09:06:32.000Z</time>
      </trkpt>
      <trkpt lat="43.66152" lon="3.79996">
        <ele>136</ele>
        <time>2020-10-17T09:06:33.000Z</time>
      </trkpt>
      <trkpt lat="43.66151" lon="3.79994">
        <ele>136</ele>
        <time>2020-10-17T09:06:34.000Z</time>
      </trkpt>
      <trkpt lat="43.6615" lon="3.79992">
        <ele>136</ele>
        <time>2020-10-17T09:06:35.000Z</time>
      </trkpt>
      <trkpt lat="43.66149" lon="3.7999">
        <ele>136</ele>
        <time>2020-10-17T09:06:36.000Z</time>
      </trkpt>
      <trkpt lat="43.66148" lon="3.79988">
        <ele>136</ele>
        <time>2020-10-17T09:06:37.000Z</time>
      </trkpt>
      <trkpt lat="43.66147" lon="3.79985">
        <ele>136</ele>
        <time>2020-10-17T09:06:38.000Z</time>
      </trkpt>
      <trkpt lat="43.66147" lon="3.79983">
        <ele>136</ele>
        <time>2020-10-17T09:06:39.000Z</time>
      </trkpt>
      <trkpt lat="43.66146" lon="3.79981">
        <ele>136</ele>
        <time>2020-10-17T09:06:40.000Z</time>
      </trkpt>
      <trkpt lat="43.66145" lon="3.79979">
        <ele>136</ele>
        <time>2020-10-17T09:06:41.000Z</time>
      </trkpt>
      <trkpt lat="43.66143" lon="3.79974">
        <ele>136</ele>
        <time>2020-10-17T09:06:43.000Z</time>
      </trkpt>
      <trkpt lat="43.66142" lon="3.79972">
        <ele>136</ele>
        <time>2020-10-17T09:06:44.000Z</time>
      </trkpt>
      <trkpt lat="43.66141" lon="3.7997">
        <ele>136</ele>
        <time>2020-10-17T09:06:45.000Z</time>
      </trkpt>
      <trkpt lat="43.6614" lon="3.79968">
        <ele>136</ele>
        <time>2020-10-17T09:06:46.000Z</time>
      </trkpt>
      <trkpt lat="43.66139" lon="3.79965">
        <ele>136</ele>
        <time>2020-10-17T09:06:47.000Z</time>
      </trkpt>
      <trkpt lat="43.66138" lon="3.79963">
        <ele>136</ele>
        <time>2020-10-17T09:06:48.000Z</time>
      </trkpt>
      <trkpt lat="43.66137" lon="3.79961">
        <ele>136</ele>
        <time>2020-10-17T09:06:49.000Z</time>
      </trkpt>
      <trkpt lat="43.66136" lon="3.79958">
        <ele>136</ele>
        <time>2020-10-17T09:06:50.000Z</time>
      </trkpt>
      <trkpt lat="43.66135" lon="3.79956">
        <ele>136</ele>
        <time>2020-10-17T09:06:51.000Z</time>
      </trkpt>
      <trkpt lat="43.66134" lon="3.79954">
        <ele>136</ele>
        <time>2020-10-17T09:06:52.000Z</time>
      </trkpt>
      <trkpt lat="43.66133" lon="3.79952">
        <ele>136</ele>
        <time>2020-10-17T09:06:53.000Z</time>
      </trkpt>
      <trkpt lat="43.66132" lon="3.7995">
        <ele>136</ele>
        <time>2020-10-17T09:06:54.000Z</time>
      </trkpt>
      <trkpt lat="43.6613" lon="3.79948">
        <ele>136</ele>
        <time>2020-10-17T09:06:55.000Z</time>
      </trkpt>
      <trkpt lat="43.66129" lon="3.79946">
        <ele>136</ele>
        <time>2020-10-17T09:06:56.000Z</time>
      </trkpt>
      <trkpt lat="43.66128" lon="3.79944">
        <ele>136</ele>
        <time>2020-10-17T09:06:57.000Z</time>
      </trkpt>
      <trkpt lat="43.66126" lon="3.79943">
        <ele>136</ele>
        <time>2020-10-17T09:06:58.000Z</time>
      </trkpt>
      <trkpt lat="43.66125" lon="3.79941">
        <ele>136</ele>
        <time>2020-10-17T09:06:59.000Z</time>
      </trkpt>
      <trkpt lat="43.66123" lon="3.79939">
        <ele>136</ele>
        <time>2020-10-17T09:07:00.000Z</time>
      </trkpt>
      <trkpt lat="43.66121" lon="3.79936">
        <ele>136</ele>
        <time>2020-10-17T09:07:02.000Z</time>
      </trkpt>
      <trkpt lat="43.66118" lon="3.79933">
        <ele>136</ele>
        <time>2020-10-17T09:07:04.000Z</time>
      </trkpt>
      <trkpt lat="43.66116" lon="3.79932">
        <ele>136</ele>
        <time>2020-10-17T09:07:05.000Z</time>
      </trkpt>
      <trkpt lat="43.66115" lon="3.7993">
        <ele>136</ele>
        <time>2020-10-17T09:07:06.000Z</time>
      </trkpt>
      <trkpt lat="43.66113" lon="3.79929">
        <ele>136</ele>
        <time>2020-10-17T09:07:07.000Z</time>
      </trkpt>
      <trkpt lat="43.66111" lon="3.79928">
        <ele>136</ele>
        <time>2020-10-17T09:07:08.000Z</time>
      </trkpt>
      <trkpt lat="43.66109" lon="3.79927">
        <ele>136</ele>
        <time>2020-10-17T09:07:09.000Z</time>
      </trkpt>
      <trkpt lat="43.66108" lon="3.79926">
        <ele>136.05500032</ele>
        <time>2020-10-17T09:07:10.000Z</time>
      </trkpt>
      <trkpt lat="43.66106" lon="3.79925">
        <ele>136.15500032</ele>
        <time>2020-10-17T09:07:11.000Z</time>
      </trkpt>
      <trkpt lat="43.66102" lon="3.79925">
        <ele>136.35500032</ele>
        <time>2020-10-17T09:07:13.000Z</time>
      </trkpt>
      <trkpt lat="43.661" lon="3.79925">
        <ele>136.45500032</ele>
        <time>2020-10-17T09:07:14.000Z</time>
      </trkpt>
      <trkpt lat="43.66099" lon="3.79926">
        <ele>136.55500032</ele>
        <time>2020-10-17T09:07:15.000Z</time>
      </trkpt>
      <trkpt lat="43.66097" lon="3.79927">
        <ele>136.65500032</ele>
        <time>2020-10-17T09:07:16.000Z</time>
      </trkpt>
      <trkpt lat="43.66095" lon="3.79927">
        <ele>136.75500032</ele>
        <time>2020-10-17T09:07:17.000Z</time>
      </trkpt>
      <trkpt lat="43.66093" lon="3.79928">
        <ele>136.85500032</ele>
        <time>2020-10-17T09:07:18.000Z</time>
      </trkpt>
      <trkpt lat="43.66091" lon="3.7993">
        <ele>136.95500032</ele>
        <time>2020-10-17T09:07:19.000Z</time>
      </trkpt>
      <trkpt lat="43.66089" lon="3.79931">
        <ele>137</ele>
        <time>2020-10-17T09:07:20.000Z</time>
      </trkpt>
      <trkpt lat="43.66088" lon="3.79932">
        <ele>137</ele>
        <time>2020-10-17T09:07:21.000Z</time>
      </trkpt>
      <trkpt lat="43.66086" lon="3.79934">
        <ele>137</ele>
        <time>2020-10-17T09:07:22.000Z</time>
      </trkpt>
      <trkpt lat="43.66085" lon="3.79936">
        <ele>137</ele>
        <time>2020-10-17T09:07:23.000Z</time>
      </trkpt>
      <trkpt lat="43.66083" lon="3.79937">
        <ele>137</ele>
        <time>2020-10-17T09:07:24.000Z</time>
      </trkpt>
      <trkpt lat="43.66081" lon="3.79939">
        <ele>137</ele>
        <time>2020-10-17T09:07:25.000Z</time>
      </trkpt>
      <trkpt lat="43.6608" lon="3.79941">
        <ele>137</ele>
        <time>2020-10-17T09:07:26.000Z</time>
      </trkpt>
      <trkpt lat="43.66079" lon="3.79944">
        <ele>137</ele>
        <time>2020-10-17T09:07:27.000Z</time>
      </trkpt>
      <trkpt lat="43.66077" lon="3.79946">
        <ele>137</ele>
        <time>2020-10-17T09:07:28.000Z</time>
      </trkpt>
      <trkpt lat="43.66076" lon="3.79948">
        <ele>137</ele>
        <time>2020-10-17T09:07:29.000Z</time>
      </trkpt>
      <trkpt lat="43.66074" lon="3.7995">
        <ele>137</ele>
        <time>2020-10-17T09:07:30.000Z</time>
      </trkpt>
      <trkpt lat="43.66073" lon="3.79952">
        <ele>137</ele>
        <time>2020-10-17T09:07:31.000Z</time>
      </trkpt>
      <trkpt lat="43.66071" lon="3.79954">
        <ele>137</ele>
        <time>2020-10-17T09:07:32.000Z</time>
      </trkpt>
      <trkpt lat="43.6607" lon="3.79957">
        <ele>137</ele>
        <time>2020-10-17T09:07:33.000Z</time>
      </trkpt>
      <trkpt lat="43.66068" lon="3.79959">
        <ele>137</ele>
        <time>2020-10-17T09:07:34.000Z</time>
      </trkpt>
      <trkpt lat="43.66067" lon="3.79961">
        <ele>137</ele>
        <time>2020-10-17T09:07:35.000Z</time>
      </trkpt>
      <trkpt lat="43.66065" lon="3.79963">
        <ele>137</ele>
        <time>2020-10-17T09:07:36.000Z</time>
      </trkpt>
      <trkpt lat="43.66063" lon="3.79965">
        <ele>137</ele>
        <time>2020-10-17T09:07:37.000Z</time>
      </trkpt>
      <trkpt lat="43.66061" lon="3.79967">
        <ele>137</ele>
        <time>2020-10-17T09:07:38.000Z</time>
      </trkpt>
      <trkpt lat="43.6606" lon="3.7997">
        <ele>137</ele>
        <time>2020-10-17T09:07:39.000Z</time>
      </trkpt>
      <trkpt lat="43.66058" lon="3.79972">
        <ele>137.05500032</ele>
        <time>2020-10-17T09:07:40.000Z</time>
      </trkpt>
      <trkpt lat="43.66056" lon="3.79975">
        <ele>137.15500032</ele>
        <time>2020-10-17T09:07:41.000Z</time>
      </trkpt>
      <trkpt lat="43.66055" lon="3.79977">
        <ele>137.25500032</ele>
        <time>2020-10-17T09:07:42.000Z</time>
      </trkpt>
      <trkpt lat="43.66053" lon="3.79979">
        <ele>137.35500032</ele>
        <time>2020-10-17T09:07:43.000Z</time>
      </trkpt>
      <trkpt lat="43.66051" lon="3.79982">
        <ele>137.45500032</ele>
        <time>2020-10-17T09:07:44.000Z</time>
      </trkpt>
      <trkpt lat="43.6605" lon="3.79984">
        <ele>137.55500032</ele>
        <time>2020-10-17T09:07:45.000Z</time>
      </trkpt>
      <trkpt lat="43.66048" lon="3.79986">
        <ele>137.65500032</ele>
        <time>2020-10-17T09:07:46.000Z</time>
      </trkpt>
      <trkpt lat="43.66046" lon="3.79988">
        <ele>137.75500032</ele>
        <time>2020-10-17T09:07:47.000Z</time>
      </trkpt>
      <trkpt lat="43.66044" lon="3.79991">
        <ele>137.85500032</ele>
        <time>2020-10-17T09:07:48.000Z</time>
      </trkpt>
      <trkpt lat="43.66043" lon="3.79993">
        <ele>137.95500032</ele>
        <time>2020-10-17T09:07:49.000Z</time>
      </trkpt>
      <trkpt lat="43.66041" lon="3.79995">
        <ele>138.05500032</ele>
        <time>2020-10-17T09:07:50.000Z</time>
      </trkpt>
      <trkpt lat="43.6604" lon="3.79998">
        <ele>138.15500032</ele>
        <time>2020-10-17T09:07:51.000Z</time>
      </trkpt>
      <trkpt lat="43.66039" lon="3.8">
        <ele>138.25500032</ele>
        <time>2020-10-17T09:07:52.000Z</time>
      </trkpt>
      <trkpt lat="43.66037" lon="3.80001">
        <ele>138.35500032</ele>
        <time>2020-10-17T09:07:53.000Z</time>
      </trkpt>
      <trkpt lat="43.66036" lon="3.80003">
        <ele>138.45500032</ele>
        <time>2020-10-17T09:07:54.000Z</time>
      </trkpt>
      <trkpt lat="43.66034" lon="3.80005">
        <ele>138.55500032</ele>
        <time>2020-10-17T09:07:55.000Z</time>
      </trkpt>
      <trkpt lat="43.66032" lon="3.80007">
        <ele>138.65500032</ele>
        <time>2020-10-17T09:07:56.000Z</time>
      </trkpt>
      <trkpt lat="43.66031" lon="3.80009">
        <ele>138.75500032</ele>
        <time>2020-10-17T09:07:57.000Z</time>
      </trkpt>
      <trkpt lat="43.66029" lon="3.80011">
        <ele>138.85500032</ele>
        <time>2020-10-17T09:07:58.000Z</time>
      </trkpt>
      <trkpt lat="43.66028" lon="3.80013">
        <ele>138.95500032</ele>
        <time>2020-10-17T09:07:59.000Z</time>
      </trkpt>
      <trkpt lat="43.66026" lon="3.80015">
        <ele>139.05500032</ele>
        <time>2020-10-17T09:08:00.000Z</time>
      </trkpt>
      <trkpt lat="43.66024" lon="3.80017">
        <ele>139.15500032</ele>
        <time>2020-10-17T09:08:01.000Z</time>
      </trkpt>
      <trkpt lat="43.66022" lon="3.80019">
        <ele>139.25500032</ele>
        <time>2020-10-17T09:08:02.000Z</time>
      </trkpt>
      <trkpt lat="43.6602" lon="3.80021">
        <ele>139.55500032</ele>
        <time>2020-10-17T09:08:05.000Z</time>
      </trkpt>
      <trkpt lat="43.66018" lon="3.80023">
        <ele>139.65500032</ele>
        <time>2020-10-17T09:08:06.000Z</time>
      </trkpt>
      <trkpt lat="43.66017" lon="3.80026">
        <ele>139.75500032</ele>
        <time>2020-10-17T09:08:07.000Z</time>
      </trkpt>
      <trkpt lat="43.66016" lon="3.80028">
        <ele>139.85500032</ele>
        <time>2020-10-17T09:08:08.000Z</time>
      </trkpt>
      <trkpt lat="43.66013" lon="3.80032">
        <ele>140</ele>
        <time>2020-10-17T09:08:10.000Z</time>
      </trkpt>
      <trkpt lat="43.66011" lon="3.80034">
        <ele>140</ele>
        <time>2020-10-17T09:08:11.000Z</time>
      </trkpt>
      <trkpt lat="43.6601" lon="3.80036">
        <ele>140</ele>
        <time>2020-10-17T09:08:12.000Z</time>
      </trkpt>
      <trkpt lat="43.66009" lon="3.80038">
        <ele>140</ele>
        <time>2020-10-17T09:08:13.000Z</time>
      </trkpt>
      <trkpt lat="43.66007" lon="3.8004">
        <ele>140</ele>
        <time>2020-10-17T09:08:14.000Z</time>
      </trkpt>
      <trkpt lat="43.66005" lon="3.80042">
        <ele>140</ele>
        <time>2020-10-17T09:08:15.000Z</time>
      </trkpt>
      <trkpt lat="43.66003" lon="3.80044">
        <ele>140</ele>
        <time>2020-10-17T09:08:16.000Z</time>
      </trkpt>
      <trkpt lat="43.66001" lon="3.80046">
        <ele>140</ele>
        <time>2020-10-17T09:08:17.000Z</time>
      </trkpt>
      <trkpt lat="43.66" lon="3.80048">
        <ele>140</ele>
        <time>2020-10-17T09:08:18.000Z</time>
      </trkpt>
      <trkpt lat="43.65999" lon="3.80051">
        <ele>140</ele>
        <time>2020-10-17T09:08:19.000Z</time>
      </trkpt>
      <trkpt lat="43.65997" lon="3.80053">
        <ele>140.05500032</ele>
        <time>2020-10-17T09:08:20.000Z</time>
      </trkpt>
      <trkpt lat="43.65996" lon="3.80056">
        <ele>140.15500032</ele>
        <time>2020-10-17T09:08:21.000Z</time>
      </trkpt>
      <trkpt lat="43.65994" lon="3.80059">
        <ele>140.25500032</ele>
        <time>2020-10-17T09:08:22.000Z</time>
      </trkpt>
      <trkpt lat="43.65993" lon="3.80062">
        <ele>140.35500032</ele>
        <time>2020-10-17T09:08:23.000Z</time>
      </trkpt>
      <trkpt lat="43.65992" lon="3.80065">
        <ele>140.45500032</ele>
        <time>2020-10-17T09:08:24.000Z</time>
      </trkpt>
      <trkpt lat="43.6599" lon="3.80068">
        <ele>140.55500032</ele>
        <time>2020-10-17T09:08:25.000Z</time>
      </trkpt>
      <trkpt lat="43.65989" lon="3.80071">
        <ele>140.65500032</ele>
        <time>2020-10-17T09:08:26.000Z</time>
      </trkpt>
      <trkpt lat="43.65988" lon="3.80073">
        <ele>140.75500032</ele>
        <time>2020-10-17T09:08:27.000Z</time>
      </trkpt>
      <trkpt lat="43.65986" lon="3.80075">
        <ele>140.85500032</ele>
        <time>2020-10-17T09:08:28.000Z</time>
      </trkpt>
      <trkpt lat="43.65986" lon="3.80079">
        <ele>140.95500032</ele>
        <time>2020-10-17T09:08:29.000Z</time>
      </trkpt>
      <trkpt lat="43.65985" lon="3.80081">
        <ele>141.05500032</ele>
        <time>2020-10-17T09:08:30.000Z</time>
      </trkpt>
      <trkpt lat="43.65984" lon="3.80086">
        <ele>141.25500032</ele>
        <time>2020-10-17T09:08:32.000Z</time>
      </trkpt>
      <trkpt lat="43.65983" lon="3.80089">
        <ele>141.35500032</ele>
        <time>2020-10-17T09:08:33.000Z</time>
      </trkpt>
      <trkpt lat="43.65983" lon="3.80092">
        <ele>141.45500032</ele>
        <time>2020-10-17T09:08:34.000Z</time>
      </trkpt>
      <trkpt lat="43.65983" lon="3.80096">
        <ele>141.55500032</ele>
        <time>2020-10-17T09:08:35.000Z</time>
      </trkpt>
      <trkpt lat="43.65982" lon="3.801">
        <ele>141.65500032</ele>
        <time>2020-10-17T09:08:36.000Z</time>
      </trkpt>
      <trkpt lat="43.65981" lon="3.80103">
        <ele>141.75500032</ele>
        <time>2020-10-17T09:08:37.000Z</time>
      </trkpt>
      <trkpt lat="43.6598" lon="3.80106">
        <ele>141.85500032</ele>
        <time>2020-10-17T09:08:38.000Z</time>
      </trkpt>
      <trkpt lat="43.6598" lon="3.80108">
        <ele>141.95500032</ele>
        <time>2020-10-17T09:08:39.000Z</time>
      </trkpt>
      <trkpt lat="43.6598" lon="3.80111">
        <ele>142.05500032</ele>
        <time>2020-10-17T09:08:40.000Z</time>
      </trkpt>
      <trkpt lat="43.65979" lon="3.80114">
        <ele>142.15500032</ele>
        <time>2020-10-17T09:08:41.000Z</time>
      </trkpt>
      <trkpt lat="43.65979" lon="3.80117">
        <ele>142.25500032</ele>
        <time>2020-10-17T09:08:42.000Z</time>
      </trkpt>
      <trkpt lat="43.65979" lon="3.8012">
        <ele>142.35500032</ele>
        <time>2020-10-17T09:08:43.000Z</time>
      </trkpt>
      <trkpt lat="43.65979" lon="3.80122">
        <ele>142.45500032</ele>
        <time>2020-10-17T09:08:44.000Z</time>
      </trkpt>
      <trkpt lat="43.65979" lon="3.80125">
        <ele>142.55500032</ele>
        <time>2020-10-17T09:08:45.000Z</time>
      </trkpt>
      <trkpt lat="43.6598" lon="3.80128">
        <ele>142.65500032</ele>
        <time>2020-10-17T09:08:46.000Z</time>
      </trkpt>
      <trkpt lat="43.65981" lon="3.80132">
        <ele>142.75500032</ele>
        <time>2020-10-17T09:08:47.000Z</time>
      </trkpt>
      <trkpt lat="43.65981" lon="3.80135">
        <ele>142.85500032</ele>
        <time>2020-10-17T09:08:48.000Z</time>
      </trkpt>
      <trkpt lat="43.65982" lon="3.80138">
        <ele>142.95500032</ele>
        <time>2020-10-17T09:08:49.000Z</time>
      </trkpt>
      <trkpt lat="43.65983" lon="3.80141">
        <ele>143.05350225681</ele>
        <time>2020-10-17T09:08:50.000Z</time>
      </trkpt>
      <trkpt lat="43.65984" lon="3.80143">
        <ele>143.1507785214</ele>
        <time>2020-10-17T09:08:51.000Z</time>
      </trkpt>
      <trkpt lat="43.65985" lon="3.80146">
        <ele>143.24805478599</ele>
        <time>2020-10-17T09:08:52.000Z</time>
      </trkpt>
      <trkpt lat="43.65985" lon="3.80149">
        <ele>143.34533105058</ele>
        <time>2020-10-17T09:08:53.000Z</time>
      </trkpt>
      <trkpt lat="43.65986" lon="3.80152">
        <ele>143.44260731517</ele>
        <time>2020-10-17T09:08:54.000Z</time>
      </trkpt>
      <trkpt lat="43.65987" lon="3.80155">
        <ele>143.53988357977</ele>
        <time>2020-10-17T09:08:55.000Z</time>
      </trkpt>
      <trkpt lat="43.65989" lon="3.80157">
        <ele>143.63715984436</ele>
        <time>2020-10-17T09:08:56.000Z</time>
      </trkpt>
      <trkpt lat="43.65991" lon="3.80159">
        <ele>143.73443610895</ele>
        <time>2020-10-17T09:08:57.000Z</time>
      </trkpt>
      <trkpt lat="43.65992" lon="3.80161">
        <ele>143.83171237354</ele>
        <time>2020-10-17T09:08:58.000Z</time>
      </trkpt>
      <trkpt lat="43.65993" lon="3.80164">
        <ele>143.92898863813</ele>
        <time>2020-10-17T09:08:59.000Z</time>
      </trkpt>
      <trkpt lat="43.65994" lon="3.80166">
        <ele>144.027778107</ele>
        <time>2020-10-17T09:09:00.000Z</time>
      </trkpt>
      <trkpt lat="43.65996" lon="3.80167">
        <ele>144.13065876543</ele>
        <time>2020-10-17T09:09:01.000Z</time>
      </trkpt>
      <trkpt lat="43.65998" lon="3.80171">
        <ele>144.33642008231</ele>
        <time>2020-10-17T09:09:03.000Z</time>
      </trkpt>
      <trkpt lat="43.66" lon="3.80172">
        <ele>144.43930074074</ele>
        <time>2020-10-17T09:09:04.000Z</time>
      </trkpt>
      <trkpt lat="43.66001" lon="3.80174">
        <ele>144.54218139918</ele>
        <time>2020-10-17T09:09:05.000Z</time>
      </trkpt>
      <trkpt lat="43.66002" lon="3.80176">
        <ele>144.64506205761</ele>
        <time>2020-10-17T09:09:06.000Z</time>
      </trkpt>
      <trkpt lat="43.66004" lon="3.80178">
        <ele>144.74794271605</ele>
        <time>2020-10-17T09:09:07.000Z</time>
      </trkpt>
      <trkpt lat="43.66005" lon="3.8018">
        <ele>144.85082337449</ele>
        <time>2020-10-17T09:09:08.000Z</time>
      </trkpt>
      <trkpt lat="43.66006" lon="3.80182">
        <ele>144.95370403292</ele>
        <time>2020-10-17T09:09:09.000Z</time>
      </trkpt>
      <trkpt lat="43.66008" lon="3.80184">
        <ele>145.05500032</ele>
        <time>2020-10-17T09:09:10.000Z</time>
      </trkpt>
      <trkpt lat="43.66009" lon="3.80186">
        <ele>145.15500032</ele>
        <time>2020-10-17T09:09:11.000Z</time>
      </trkpt>
      <trkpt lat="43.66011" lon="3.80188">
        <ele>145.25500032</ele>
        <time>2020-10-17T09:09:12.000Z</time>
      </trkpt>
      <trkpt lat="43.66013" lon="3.8019">
        <ele>145.35500032</ele>
        <time>2020-10-17T09:09:13.000Z</time>
      </trkpt>
      <trkpt lat="43.66014" lon="3.80192">
        <ele>145.45500032</ele>
        <time>2020-10-17T09:09:14.000Z</time>
      </trkpt>
      <trkpt lat="43.66016" lon="3.80194">
        <ele>145.55500032</ele>
        <time>2020-10-17T09:09:15.000Z</time>
      </trkpt>
      <trkpt lat="43.66018" lon="3.80196">
        <ele>145.65500032</ele>
        <time>2020-10-17T09:09:16.000Z</time>
      </trkpt>
      <trkpt lat="43.66019" lon="3.80197">
        <ele>145.75500032</ele>
        <time>2020-10-17T09:09:17.000Z</time>
      </trkpt>
      <trkpt lat="43.66021" lon="3.80199">
        <ele>145.85500032</ele>
        <time>2020-10-17T09:09:18.000Z</time>
      </trkpt>
      <trkpt lat="43.66023" lon="3.80202">
        <ele>145.95500032</ele>
        <time>2020-10-17T09:09:19.000Z</time>
      </trkpt>
      <trkpt lat="43.66025" lon="3.80204">
        <ele>146</ele>
        <time>2020-10-17T09:09:20.000Z</time>
      </trkpt>
      <trkpt lat="43.66027" lon="3.80206">
        <ele>146</ele>
        <time>2020-10-17T09:09:21.000Z</time>
      </trkpt>
      <trkpt lat="43.66029" lon="3.80208">
        <ele>146</ele>
        <time>2020-10-17T09:09:22.000Z</time>
      </trkpt>
      <trkpt lat="43.66031" lon="3.8021">
        <ele>146</ele>
        <time>2020-10-17T09:09:23.000Z</time>
      </trkpt>
      <trkpt lat="43.66033" lon="3.80213">
        <ele>146</ele>
        <time>2020-10-17T09:09:24.000Z</time>
      </trkpt>
      <trkpt lat="43.66035" lon="3.80215">
        <ele>146</ele>
        <time>2020-10-17T09:09:25.000Z</time>
      </trkpt>
      <trkpt lat="43.66037" lon="3.80217">
        <ele>146</ele>
        <time>2020-10-17T09:09:26.000Z</time>
      </trkpt>
      <trkpt lat="43.66039" lon="3.8022">
        <ele>146</ele>
        <time>2020-10-17T09:09:27.000Z</time>
      </trkpt>
      <trkpt lat="43.66042" lon="3.80223">
        <ele>146</ele>
        <time>2020-10-17T09:09:28.000Z</time>
      </trkpt>
      <trkpt lat="43.66044" lon="3.80226">
        <ele>146</ele>
        <time>2020-10-17T09:09:29.000Z</time>
      </trkpt>
      <trkpt lat="43.66046" lon="3.80229">
        <ele>146</ele>
        <time>2020-10-17T09:09:30.000Z</time>
      </trkpt>
      <trkpt lat="43.66048" lon="3.80232">
        <ele>146</ele>
        <time>2020-10-17T09:09:31.000Z</time>
      </trkpt>
      <trkpt lat="43.66048" lon="3.80236">
        <ele>146</ele>
        <time>2020-10-17T09:09:32.000Z</time>
      </trkpt>
      <trkpt lat="43.66047" lon="3.8024">
        <ele>146</ele>
        <time>2020-10-17T09:09:33.000Z</time>
      </trkpt>
      <trkpt lat="43.66044" lon="3.80242">
        <ele>146</ele>
        <time>2020-10-17T09:09:34.000Z</time>
      </trkpt>
      <trkpt lat="43.66041" lon="3.80242">
        <ele>146</ele>
        <time>2020-10-17T09:09:35.000Z</time>
      </trkpt>
      <trkpt lat="43.66038" lon="3.80243">
        <ele>146</ele>
        <time>2020-10-17T09:09:36.000Z</time>
      </trkpt>
      <trkpt lat="43.66036" lon="3.80244">
        <ele>146</ele>
        <time>2020-10-17T09:09:37.000Z</time>
      </trkpt>
      <trkpt lat="43.66033" lon="3.80245">
        <ele>146</ele>
        <time>2020-10-17T09:09:38.000Z</time>
      </trkpt>
      <trkpt lat="43.6603" lon="3.80245">
        <ele>146</ele>
        <time>2020-10-17T09:09:39.000Z</time>
      </trkpt>
      <trkpt lat="43.66027" lon="3.80246">
        <ele>145.94499968</ele>
        <time>2020-10-17T09:09:40.000Z</time>
      </trkpt>
      <trkpt lat="43.66024" lon="3.80246">
        <ele>145.84499968</ele>
        <time>2020-10-17T09:09:41.000Z</time>
      </trkpt>
      <trkpt lat="43.66021" lon="3.80246">
        <ele>145.74499968</ele>
        <time>2020-10-17T09:09:42.000Z</time>
      </trkpt>
      <trkpt lat="43.66017" lon="3.80246">
        <ele>145.64499968</ele>
        <time>2020-10-17T09:09:43.000Z</time>
      </trkpt>
      <trkpt lat="43.66014" lon="3.80246">
        <ele>145.54499968</ele>
        <time>2020-10-17T09:09:44.000Z</time>
      </trkpt>
      <trkpt lat="43.6601" lon="3.80246">
        <ele>145.44499968</ele>
        <time>2020-10-17T09:09:45.000Z</time>
      </trkpt>
      <trkpt lat="43.66007" lon="3.80246">
        <ele>145.34499968</ele>
        <time>2020-10-17T09:09:46.000Z</time>
      </trkpt>
      <trkpt lat="43.66004" lon="3.80246">
        <ele>145.24499968</ele>
        <time>2020-10-17T09:09:47.000Z</time>
      </trkpt>
      <trkpt lat="43.66" lon="3.80245">
        <ele>145.14499968</ele>
        <time>2020-10-17T09:09:48.000Z</time>
      </trkpt>
      <trkpt lat="43.65997" lon="3.80244">
        <ele>145.04499968</ele>
        <time>2020-10-17T09:09:49.000Z</time>
      </trkpt>
      <trkpt lat="43.65995" lon="3.80243">
        <ele>145</ele>
        <time>2020-10-17T09:09:50.000Z</time>
      </trkpt>
      <trkpt lat="43.65992" lon="3.80243">
        <ele>145</ele>
        <time>2020-10-17T09:09:51.000Z</time>
      </trkpt>
      <trkpt lat="43.65989" lon="3.80242">
        <ele>145</ele>
        <time>2020-10-17T09:09:52.000Z</time>
      </trkpt>
      <trkpt lat="43.65987" lon="3.80242">
        <ele>145</ele>
        <time>2020-10-17T09:09:53.000Z</time>
      </trkpt>
      <trkpt lat="43.65984" lon="3.80241">
        <ele>145</ele>
        <time>2020-10-17T09:09:54.000Z</time>
      </trkpt>
      <trkpt lat="43.65981" lon="3.8024">
        <ele>145</ele>
        <time>2020-10-17T09:09:55.000Z</time>
      </trkpt>
      <trkpt lat="43.65979" lon="3.80239">
        <ele>145</ele>
        <time>2020-10-17T09:09:56.000Z</time>
      </trkpt>
      <trkpt lat="43.65976" lon="3.80238">
        <ele>145</ele>
        <time>2020-10-17T09:09:57.000Z</time>
      </trkpt>
      <trkpt lat="43.65974" lon="3.80237">
        <ele>145</ele>
        <time>2020-10-17T09:09:58.000Z</time>
      </trkpt>
      <trkpt lat="43.65971" lon="3.80236">
        <ele>145</ele>
        <time>2020-10-17T09:09:59.000Z</time>
      </trkpt>
      <trkpt lat="43.65968" lon="3.80235">
        <ele>144.94499968</ele>
        <time>2020-10-17T09:10:00.000Z</time>
      </trkpt>
      <trkpt lat="43.65966" lon="3.80233">
        <ele>144.84499968</ele>
        <time>2020-10-17T09:10:01.000Z</time>
      </trkpt>
      <trkpt lat="43.65963" lon="3.80232">
        <ele>144.74499968</ele>
        <time>2020-10-17T09:10:02.000Z</time>
      </trkpt>
      <trkpt lat="43.6596" lon="3.80231">
        <ele>144.64499968</ele>
        <time>2020-10-17T09:10:03.000Z</time>
      </trkpt>
      <trkpt lat="43.65957" lon="3.80229">
        <ele>144.54499968</ele>
        <time>2020-10-17T09:10:04.000Z</time>
      </trkpt>
      <trkpt lat="43.65955" lon="3.80226">
        <ele>144.44499968</ele>
        <time>2020-10-17T09:10:05.000Z</time>
      </trkpt>
      <trkpt lat="43.65952" lon="3.80224">
        <ele>144.34499968</ele>
        <time>2020-10-17T09:10:06.000Z</time>
      </trkpt>
      <trkpt lat="43.65949" lon="3.80223">
        <ele>144.24499968</ele>
        <time>2020-10-17T09:10:07.000Z</time>
      </trkpt>
      <trkpt lat="43.65946" lon="3.80221">
        <ele>144.14499968</ele>
        <time>2020-10-17T09:10:08.000Z</time>
      </trkpt>
      <trkpt lat="43.65943" lon="3.80219">
        <ele>144.04499968</ele>
        <time>2020-10-17T09:10:09.000Z</time>
      </trkpt>
      <trkpt lat="43.6594" lon="3.80216">
        <ele>144</ele>
        <time>2020-10-17T09:10:10.000Z</time>
      </trkpt>
      <trkpt lat="43.65937" lon="3.80214">
        <ele>144</ele>
        <time>2020-10-17T09:10:11.000Z</time>
      </trkpt>
      <trkpt lat="43.65933" lon="3.80212">
        <ele>144</ele>
        <time>2020-10-17T09:10:12.000Z</time>
      </trkpt>
      <trkpt lat="43.6593" lon="3.8021">
        <ele>144</ele>
        <time>2020-10-17T09:10:13.000Z</time>
      </trkpt>
      <trkpt lat="43.65928" lon="3.80209">
        <ele>144</ele>
        <time>2020-10-17T09:10:14.000Z</time>
      </trkpt>
      <trkpt lat="43.65925" lon="3.80207">
        <ele>144</ele>
        <time>2020-10-17T09:10:15.000Z</time>
      </trkpt>
      <trkpt lat="43.65922" lon="3.80205">
        <ele>144</ele>
        <time>2020-10-17T09:10:16.000Z</time>
      </trkpt>
      <trkpt lat="43.65919" lon="3.80203">
        <ele>144</ele>
        <time>2020-10-17T09:10:17.000Z</time>
      </trkpt>
      <trkpt lat="43.65916" lon="3.80201">
        <ele>144</ele>
        <time>2020-10-17T09:10:18.000Z</time>
      </trkpt>
      <trkpt lat="43.65913" lon="3.80199">
        <ele>144</ele>
        <time>2020-10-17T09:10:19.000Z</time>
      </trkpt>
      <trkpt lat="43.6591" lon="3.80197">
        <ele>143.94499968</ele>
        <time>2020-10-17T09:10:20.000Z</time>
      </trkpt>
      <trkpt lat="43.65906" lon="3.80194">
        <ele>143.84499968</ele>
        <time>2020-10-17T09:10:21.000Z</time>
      </trkpt>
      <trkpt lat="43.65903" lon="3.80192">
        <ele>143.74499968</ele>
        <time>2020-10-17T09:10:22.000Z</time>
      </trkpt>
      <trkpt lat="43.659" lon="3.80189">
        <ele>143.64499968</ele>
        <time>2020-10-17T09:10:23.000Z</time>
      </trkpt>
      <trkpt lat="43.65897" lon="3.80185">
        <ele>143.54499968</ele>
        <time>2020-10-17T09:10:24.000Z</time>
      </trkpt>
      <trkpt lat="43.65894" lon="3.80182">
        <ele>143.44499968</ele>
        <time>2020-10-17T09:10:25.000Z</time>
      </trkpt>
      <trkpt lat="43.65891" lon="3.80178">
        <ele>143.34499968</ele>
        <time>2020-10-17T09:10:26.000Z</time>
      </trkpt>
      <trkpt lat="43.65889" lon="3.80175">
        <ele>143.24499968</ele>
        <time>2020-10-17T09:10:27.000Z</time>
      </trkpt>
      <trkpt lat="43.65886" lon="3.80172">
        <ele>143.14499968</ele>
        <time>2020-10-17T09:10:28.000Z</time>
      </trkpt>
      <trkpt lat="43.65884" lon="3.80169">
        <ele>143.04499968</ele>
        <time>2020-10-17T09:10:29.000Z</time>
      </trkpt>
      <trkpt lat="43.65881" lon="3.80165">
        <ele>143</ele>
        <time>2020-10-17T09:10:30.000Z</time>
      </trkpt>
      <trkpt lat="43.65879" lon="3.80162">
        <ele>143</ele>
        <time>2020-10-17T09:10:31.000Z</time>
      </trkpt>
      <trkpt lat="43.65877" lon="3.80158">
        <ele>143</ele>
        <time>2020-10-17T09:10:32.000Z</time>
      </trkpt>
      <trkpt lat="43.65874" lon="3.80155">
        <ele>143</ele>
        <time>2020-10-17T09:10:33.000Z</time>
      </trkpt>
      <trkpt lat="43.65872" lon="3.80151">
        <ele>143</ele>
        <time>2020-10-17T09:10:34.000Z</time>
      </trkpt>
      <trkpt lat="43.6587" lon="3.80148">
        <ele>143</ele>
        <time>2020-10-17T09:10:35.000Z</time>
      </trkpt>
      <trkpt lat="43.65868" lon="3.80144">
        <ele>143</ele>
        <time>2020-10-17T09:10:36.000Z</time>
      </trkpt>
      <trkpt lat="43.65866" lon="3.80141">
        <ele>143</ele>
        <time>2020-10-17T09:10:37.000Z</time>
      </trkpt>
      <trkpt lat="43.65864" lon="3.80138">
        <ele>143</ele>
        <time>2020-10-17T09:10:38.000Z</time>
      </trkpt>
      <trkpt lat="43.65862" lon="3.80134">
        <ele>143</ele>
        <time>2020-10-17T09:10:39.000Z</time>
      </trkpt>
      <trkpt lat="43.6586" lon="3.80131">
        <ele>142.88999936</ele>
        <time>2020-10-17T09:10:40.000Z</time>
      </trkpt>
      <trkpt lat="43.65858" lon="3.80128">
        <ele>142.68999936</ele>
        <time>2020-10-17T09:10:41.000Z</time>
      </trkpt>
      <trkpt lat="43.65856" lon="3.80125">
        <ele>142.48999936</ele>
        <time>2020-10-17T09:10:42.000Z</time>
      </trkpt>
      <trkpt lat="43.65853" lon="3.80121">
        <ele>142.28999936</ele>
        <time>2020-10-17T09:10:43.000Z</time>
      </trkpt>
      <trkpt lat="43.65851" lon="3.80117">
        <ele>142.08999936</ele>
        <time>2020-10-17T09:10:44.000Z</time>
      </trkpt>
      <trkpt lat="43.65849" lon="3.80113">
        <ele>141.88999936</ele>
        <time>2020-10-17T09:10:45.000Z</time>
      </trkpt>
      <trkpt lat="43.65846" lon="3.80109">
        <ele>141.68999936</ele>
        <time>2020-10-17T09:10:46.000Z</time>
      </trkpt>
      <trkpt lat="43.65843" lon="3.80105">
        <ele>141.48999936</ele>
        <time>2020-10-17T09:10:47.000Z</time>
      </trkpt>
      <trkpt lat="43.6584" lon="3.80101">
        <ele>141.28999936</ele>
        <time>2020-10-17T09:10:48.000Z</time>
      </trkpt>
      <trkpt lat="43.65839" lon="3.80097">
        <ele>141.08999936</ele>
        <time>2020-10-17T09:10:49.000Z</time>
      </trkpt>
      <trkpt lat="43.65836" lon="3.80093">
        <ele>140.88999936</ele>
        <time>2020-10-17T09:10:50.000Z</time>
      </trkpt>
      <trkpt lat="43.65834" lon="3.80089">
        <ele>140.68999936</ele>
        <time>2020-10-17T09:10:51.000Z</time>
      </trkpt>
      <trkpt lat="43.65832" lon="3.80086">
        <ele>140.48999936</ele>
        <time>2020-10-17T09:10:52.000Z</time>
      </trkpt>
      <trkpt lat="43.6583" lon="3.80082">
        <ele>140.28999936</ele>
        <time>2020-10-17T09:10:53.000Z</time>
      </trkpt>
      <trkpt lat="43.65827" lon="3.80079">
        <ele>140.08999936</ele>
        <time>2020-10-17T09:10:54.000Z</time>
      </trkpt>
      <trkpt lat="43.65824" lon="3.80075">
        <ele>139.88999936</ele>
        <time>2020-10-17T09:10:55.000Z</time>
      </trkpt>
      <trkpt lat="43.65822" lon="3.80072">
        <ele>139.68999936</ele>
        <time>2020-10-17T09:10:56.000Z</time>
      </trkpt>
      <trkpt lat="43.65819" lon="3.8007">
        <ele>139.48999936</ele>
        <time>2020-10-17T09:10:57.000Z</time>
      </trkpt>
      <trkpt lat="43.65817" lon="3.80067">
        <ele>139.28999936</ele>
        <time>2020-10-17T09:10:58.000Z</time>
      </trkpt>
      <trkpt lat="43.65815" lon="3.80066">
        <ele>139.08999936</ele>
        <time>2020-10-17T09:10:59.000Z</time>
      </trkpt>
      <trkpt lat="43.65813" lon="3.80064">
        <ele>138.88999936</ele>
        <time>2020-10-17T09:11:00.000Z</time>
      </trkpt>
      <trkpt lat="43.65811" lon="3.80062">
        <ele>138.68999936</ele>
        <time>2020-10-17T09:11:01.000Z</time>
      </trkpt>
      <trkpt lat="43.65809" lon="3.80059">
        <ele>138.48999936</ele>
        <time>2020-10-17T09:11:02.000Z</time>
      </trkpt>
      <trkpt lat="43.65808" lon="3.80055">
        <ele>138.28999936</ele>
        <time>2020-10-17T09:11:03.000Z</time>
      </trkpt>
      <trkpt lat="43.65806" lon="3.80052">
        <ele>138.08999936</ele>
        <time>2020-10-17T09:11:04.000Z</time>
      </trkpt>
      <trkpt lat="43.65805" lon="3.80049">
        <ele>137.88999936</ele>
        <time>2020-10-17T09:11:05.000Z</time>
      </trkpt>
      <trkpt lat="43.65802" lon="3.80046">
        <ele>137.48999936</ele>
        <time>2020-10-17T09:11:07.000Z</time>
      </trkpt>
      <trkpt lat="43.65801" lon="3.80044">
        <ele>137.28999936</ele>
        <time>2020-10-17T09:11:08.000Z</time>
      </trkpt>
      <trkpt lat="43.658" lon="3.80041">
        <ele>137.08999936</ele>
        <time>2020-10-17T09:11:09.000Z</time>
      </trkpt>
      <trkpt lat="43.65799" lon="3.80039">
        <ele>136.83499904</ele>
        <time>2020-10-17T09:11:10.000Z</time>
      </trkpt>
      <trkpt lat="43.65798" lon="3.80036">
        <ele>136.53499904</ele>
        <time>2020-10-17T09:11:11.000Z</time>
      </trkpt>
      <trkpt lat="43.65796" lon="3.80035">
        <ele>136.23499904</ele>
        <time>2020-10-17T09:11:12.000Z</time>
      </trkpt>
      <trkpt lat="43.65795" lon="3.80033">
        <ele>135.93499904</ele>
        <time>2020-10-17T09:11:13.000Z</time>
      </trkpt>
      <trkpt lat="43.65794" lon="3.80029">
        <ele>135.33499904</ele>
        <time>2020-10-17T09:11:15.000Z</time>
      </trkpt>
      <trkpt lat="43.65793" lon="3.80025">
        <ele>134.73499904</ele>
        <time>2020-10-17T09:11:17.000Z</time>
      </trkpt>
      <trkpt lat="43.65795" lon="3.80021">
        <ele>134.13499904</ele>
        <time>2020-10-17T09:11:19.000Z</time>
      </trkpt>
      <trkpt lat="43.65795" lon="3.8002">
        <ele>133.10958897247</ele>
        <time>2020-10-17T09:11:24.000Z</time>
      </trkpt>
      <trkpt lat="43.65802" lon="3.80022">
        <ele>133</ele>
        <time>2020-10-17T09:11:31.000Z</time>
      </trkpt>
      <trkpt lat="43.65804" lon="3.80022">
        <ele>132.83988425952</ele>
        <time>2020-10-17T09:11:33.000Z</time>
      </trkpt>
      <trkpt lat="43.65804" lon="3.80023">
        <ele>132.11208120465</ele>
        <time>2020-10-17T09:11:38.000Z</time>
      </trkpt>
      <trkpt lat="43.65813" lon="3.80021">
        <ele>132</ele>
        <time>2020-10-17T09:11:45.000Z</time>
      </trkpt>
      <trkpt lat="43.65817" lon="3.80021">
        <ele>131.92268437919</ele>
        <time>2020-10-17T09:11:46.000Z</time>
      </trkpt>
      <trkpt lat="43.65821" lon="3.80021">
        <ele>131.71922564583</ele>
        <time>2020-10-17T09:11:47.000Z</time>
      </trkpt>
      <trkpt lat="43.65825" lon="3.80021">
        <ele>131.51576691247</ele>
        <time>2020-10-17T09:11:48.000Z</time>
      </trkpt>
      <trkpt lat="43.65829" lon="3.8002">
        <ele>131.31230817911</ele>
        <time>2020-10-17T09:11:49.000Z</time>
      </trkpt>
      <trkpt lat="43.65833" lon="3.80019">
        <ele>131.10884944575</ele>
        <time>2020-10-17T09:11:50.000Z</time>
      </trkpt>
      <trkpt lat="43.65838" lon="3.80018">
        <ele>130.90539071239</ele>
        <time>2020-10-17T09:11:51.000Z</time>
      </trkpt>
      <trkpt lat="43.65843" lon="3.80018">
        <ele>130.70193197903</ele>
        <time>2020-10-17T09:11:52.000Z</time>
      </trkpt>
      <trkpt lat="43.65849" lon="3.80017">
        <ele>130.49847324566</ele>
        <time>2020-10-17T09:11:53.000Z</time>
      </trkpt>
      <trkpt lat="43.65855" lon="3.80016">
        <ele>130.2950145123</ele>
        <time>2020-10-17T09:11:54.000Z</time>
      </trkpt>
      <trkpt lat="43.65861" lon="3.80014">
        <ele>130.09155577894</ele>
        <time>2020-10-17T09:11:55.000Z</time>
      </trkpt>
      <trkpt lat="43.65866" lon="3.80013">
        <ele>129.78599097276</ele>
        <time>2020-10-17T09:11:56.000Z</time>
      </trkpt>
      <trkpt lat="43.65871" lon="3.80012">
        <ele>129.3968859144</ele>
        <time>2020-10-17T09:11:57.000Z</time>
      </trkpt>
      <trkpt lat="43.65875" lon="3.80011">
        <ele>129.00778085603</ele>
        <time>2020-10-17T09:11:58.000Z</time>
      </trkpt>
      <trkpt lat="43.65878" lon="3.80011">
        <ele>128.61867579766</ele>
        <time>2020-10-17T09:11:59.000Z</time>
      </trkpt>
      <trkpt lat="43.65881" lon="3.80009">
        <ele>128.2295707393</ele>
        <time>2020-10-17T09:12:00.000Z</time>
      </trkpt>
      <trkpt lat="43.65885" lon="3.80007">
        <ele>127.84046568093</ele>
        <time>2020-10-17T09:12:01.000Z</time>
      </trkpt>
      <trkpt lat="43.65889" lon="3.80005">
        <ele>127.45136062257</ele>
        <time>2020-10-17T09:12:02.000Z</time>
      </trkpt>
      <trkpt lat="43.65894" lon="3.80004">
        <ele>127.0622555642</ele>
        <time>2020-10-17T09:12:03.000Z</time>
      </trkpt>
      <trkpt lat="43.659" lon="3.80002">
        <ele>126.67315050584</ele>
        <time>2020-10-17T09:12:04.000Z</time>
      </trkpt>
      <trkpt lat="43.65906" lon="3.8">
        <ele>126.28404544747</ele>
        <time>2020-10-17T09:12:05.000Z</time>
      </trkpt>
      <trkpt lat="43.65911" lon="3.79996">
        <ele>125.81156313091</ele>
        <time>2020-10-17T09:12:06.000Z</time>
      </trkpt>
      <trkpt lat="43.65917" lon="3.79991">
        <ele>125.11365707241</ele>
        <time>2020-10-17T09:12:07.000Z</time>
      </trkpt>
      <trkpt lat="43.65922" lon="3.79984">
        <ele>124.41575101392</ele>
        <time>2020-10-17T09:12:08.000Z</time>
      </trkpt>
      <trkpt lat="43.65927" lon="3.79976">
        <ele>123.71784495542</ele>
        <time>2020-10-17T09:12:09.000Z</time>
      </trkpt>
      <trkpt lat="43.65931" lon="3.79967">
        <ele>123.01993889693</ele>
        <time>2020-10-17T09:12:10.000Z</time>
      </trkpt>
      <trkpt lat="43.65936" lon="3.79959">
        <ele>122.32203283843</ele>
        <time>2020-10-17T09:12:11.000Z</time>
      </trkpt>
      <trkpt lat="43.65941" lon="3.79951">
        <ele>121.62412677994</ele>
        <time>2020-10-17T09:12:12.000Z</time>
      </trkpt>
      <trkpt lat="43.65946" lon="3.79943">
        <ele>120.92622072145</ele>
        <time>2020-10-17T09:12:13.000Z</time>
      </trkpt>
      <trkpt lat="43.65952" lon="3.79936">
        <ele>120.22831466295</ele>
        <time>2020-10-17T09:12:14.000Z</time>
      </trkpt>
      <trkpt lat="43.65958" lon="3.79929">
        <ele>119.53040860446</ele>
        <time>2020-10-17T09:12:15.000Z</time>
      </trkpt>
      <trkpt lat="43.65964" lon="3.79922">
        <ele>118.80287487285</ele>
        <time>2020-10-17T09:12:16.000Z</time>
      </trkpt>
      <trkpt lat="43.6597" lon="3.79914">
        <ele>117.98152017641</ele>
        <time>2020-10-17T09:12:17.000Z</time>
      </trkpt>
      <trkpt lat="43.65977" lon="3.79906">
        <ele>117.16016547997</ele>
        <time>2020-10-17T09:12:18.000Z</time>
      </trkpt>
      <trkpt lat="43.65983" lon="3.79898">
        <ele>116.33881078353</ele>
        <time>2020-10-17T09:12:19.000Z</time>
      </trkpt>
      <trkpt lat="43.65989" lon="3.79889">
        <ele>115.51745608709</ele>
        <time>2020-10-17T09:12:20.000Z</time>
      </trkpt>
      <trkpt lat="43.65994" lon="3.79879">
        <ele>114.69610139065</ele>
        <time>2020-10-17T09:12:21.000Z</time>
      </trkpt>
      <trkpt lat="43.65997" lon="3.79869">
        <ele>113.87474669421</ele>
        <time>2020-10-17T09:12:22.000Z</time>
      </trkpt>
      <trkpt lat="43.66" lon="3.79857">
        <ele>113.05339199777</ele>
        <time>2020-10-17T09:12:23.000Z</time>
      </trkpt>
      <trkpt lat="43.66001" lon="3.79845">
        <ele>112.23203730133</ele>
        <time>2020-10-17T09:12:24.000Z</time>
      </trkpt>
      <trkpt lat="43.66001" lon="3.79832">
        <ele>111.41068260489</ele>
        <time>2020-10-17T09:12:25.000Z</time>
      </trkpt>
      <trkpt lat="43.66001" lon="3.79818">
        <ele>110.69849603071</ele>
        <time>2020-10-17T09:12:26.000Z</time>
      </trkpt>
      <trkpt lat="43.66" lon="3.79805">
        <ele>110.09548037353</ele>
        <time>2020-10-17T09:12:27.000Z</time>
      </trkpt>
      <trkpt lat="43.65999" lon="3.79793">
        <ele>109.49246471635</ele>
        <time>2020-10-17T09:12:28.000Z</time>
      </trkpt>
      <trkpt lat="43.66" lon="3.7978">
        <ele>108.88944905917</ele>
        <time>2020-10-17T09:12:29.000Z</time>
      </trkpt>
      <trkpt lat="43.66" lon="3.79768">
        <ele>108.28643340199</ele>
        <time>2020-10-17T09:12:30.000Z</time>
      </trkpt>
      <trkpt lat="43.66002" lon="3.79756">
        <ele>107.6834177448</ele>
        <time>2020-10-17T09:12:31.000Z</time>
      </trkpt>
      <trkpt lat="43.66003" lon="3.79744">
        <ele>107.08040208762</ele>
        <time>2020-10-17T09:12:32.000Z</time>
      </trkpt>
      <trkpt lat="43.66005" lon="3.79733">
        <ele>106.47738643044</ele>
        <time>2020-10-17T09:12:33.000Z</time>
      </trkpt>
      <trkpt lat="43.66008" lon="3.79722">
        <ele>105.87437077326</ele>
        <time>2020-10-17T09:12:34.000Z</time>
      </trkpt>
      <trkpt lat="43.66011" lon="3.7971">
        <ele>105.27135511608</ele>
        <time>2020-10-17T09:12:35.000Z</time>
      </trkpt>
      <trkpt lat="43.66014" lon="3.79699">
        <ele>104.7249984</ele>
        <time>2020-10-17T09:12:36.000Z</time>
      </trkpt>
      <trkpt lat="43.66016" lon="3.79689">
        <ele>104.2249984</ele>
        <time>2020-10-17T09:12:37.000Z</time>
      </trkpt>
      <trkpt lat="43.66016" lon="3.79678">
        <ele>103.7249984</ele>
        <time>2020-10-17T09:12:38.000Z</time>
      </trkpt>
      <trkpt lat="43.66017" lon="3.79666">
        <ele>103.2249984</ele>
        <time>2020-10-17T09:12:39.000Z</time>
      </trkpt>
      <trkpt lat="43.66019" lon="3.79655">
        <ele>102.7249984</ele>
        <time>2020-10-17T09:12:40.000Z</time>
      </trkpt>
      <trkpt lat="43.66021" lon="3.79643">
        <ele>102.2249984</ele>
        <time>2020-10-17T09:12:41.000Z</time>
      </trkpt>
      <trkpt lat="43.66024" lon="3.79632">
        <ele>101.7249984</ele>
        <time>2020-10-17T09:12:42.000Z</time>
      </trkpt>
      <trkpt lat="43.66027" lon="3.7962">
        <ele>101.2249984</ele>
        <time>2020-10-17T09:12:43.000Z</time>
      </trkpt>
      <trkpt lat="43.66029" lon="3.79608">
        <ele>100.7249984</ele>
        <time>2020-10-17T09:12:44.000Z</time>
      </trkpt>
      <trkpt lat="43.6603" lon="3.79596">
        <ele>100.2249984</ele>
        <time>2020-10-17T09:12:45.000Z</time>
      </trkpt>
      <trkpt lat="43.6603" lon="3.79583">
        <ele>99.617674163202</ele>
        <time>2020-10-17T09:12:46.000Z</time>
      </trkpt>
      <trkpt lat="43.66029" lon="3.7957">
        <ele>98.922540322529</ele>
        <time>2020-10-17T09:12:47.000Z</time>
      </trkpt>
      <trkpt lat="43.66029" lon="3.79557">
        <ele>98.227406481857</ele>
        <time>2020-10-17T09:12:48.000Z</time>
      </trkpt>
      <trkpt lat="43.66028" lon="3.79544">
        <ele>97.532272641185</ele>
        <time>2020-10-17T09:12:49.000Z</time>
      </trkpt>
      <trkpt lat="43.66027" lon="3.79532">
        <ele>96.837138800512</ele>
        <time>2020-10-17T09:12:50.000Z</time>
      </trkpt>
      <trkpt lat="43.66026" lon="3.7952">
        <ele>96.142004959839</ele>
        <time>2020-10-17T09:12:51.000Z</time>
      </trkpt>
      <trkpt lat="43.66025" lon="3.79509">
        <ele>95.446871119167</ele>
        <time>2020-10-17T09:12:52.000Z</time>
      </trkpt>
      <trkpt lat="43.66025" lon="3.79498">
        <ele>94.751737278495</ele>
        <time>2020-10-17T09:12:53.000Z</time>
      </trkpt>
      <trkpt lat="43.66025" lon="3.79487">
        <ele>94.056603437822</ele>
        <time>2020-10-17T09:12:54.000Z</time>
      </trkpt>
      <trkpt lat="43.66025" lon="3.79477">
        <ele>93.36146959715</ele>
        <time>2020-10-17T09:12:55.000Z</time>
      </trkpt>
      <trkpt lat="43.66025" lon="3.79467">
        <ele>92.807035237938</ele>
        <time>2020-10-17T09:12:56.000Z</time>
      </trkpt>
      <trkpt lat="43.66025" lon="3.79457">
        <ele>92.405025316977</ele>
        <time>2020-10-17T09:12:57.000Z</time>
      </trkpt>
      <trkpt lat="43.66026" lon="3.79447">
        <ele>92.003015396015</ele>
        <time>2020-10-17T09:12:58.000Z</time>
      </trkpt>
      <trkpt lat="43.66026" lon="3.79439">
        <ele>91.601005475053</ele>
        <time>2020-10-17T09:12:59.000Z</time>
      </trkpt>
      <trkpt lat="43.66025" lon="3.79432">
        <ele>91.198995554092</ele>
        <time>2020-10-17T09:13:00.000Z</time>
      </trkpt>
      <trkpt lat="43.66025" lon="3.79425">
        <ele>90.79698563313</ele>
        <time>2020-10-17T09:13:01.000Z</time>
      </trkpt>
      <trkpt lat="43.66025" lon="3.7942">
        <ele>90.394975712169</ele>
        <time>2020-10-17T09:13:02.000Z</time>
      </trkpt>
      <trkpt lat="43.66025" lon="3.79416">
        <ele>89.992965791207</ele>
        <time>2020-10-17T09:13:03.000Z</time>
      </trkpt>
      <trkpt lat="43.66025" lon="3.79412">
        <ele>89.188945949284</ele>
        <time>2020-10-17T09:13:05.000Z</time>
      </trkpt>
      <trkpt lat="43.66024" lon="3.79409">
        <ele>88.854795269958</ele>
        <time>2020-10-17T09:13:06.000Z</time>
      </trkpt>
      <trkpt lat="43.66024" lon="3.79406">
        <ele>88.306849584087</ele>
        <time>2020-10-17T09:13:08.000Z</time>
      </trkpt>
      <trkpt lat="43.66025" lon="3.79407">
        <ele>87</ele>
        <time>2020-10-17T09:13:13.000Z</time>
      </trkpt>
      <trkpt lat="43.66021" lon="3.79397">
        <ele>85.01799974576</ele>
        <time>2020-10-17T09:14:51.000Z</time>
      </trkpt>
      <trkpt lat="43.66021" lon="3.79392">
        <ele>84.978849380572</ele>
        <time>2020-10-17T09:14:52.000Z</time>
      </trkpt>
      <trkpt lat="43.6602" lon="3.79387">
        <ele>84.769447258809</ele>
        <time>2020-10-17T09:14:53.000Z</time>
      </trkpt>
      <trkpt lat="43.66019" lon="3.79381">
        <ele>84.560045137046</ele>
        <time>2020-10-17T09:14:54.000Z</time>
      </trkpt>
      <trkpt lat="43.66018" lon="3.79375">
        <ele>84.350643015283</ele>
        <time>2020-10-17T09:14:55.000Z</time>
      </trkpt>
      <trkpt lat="43.66016" lon="3.79369">
        <ele>84.141240893521</ele>
        <time>2020-10-17T09:14:56.000Z</time>
      </trkpt>
      <trkpt lat="43.66015" lon="3.79364">
        <ele>83.931838771758</ele>
        <time>2020-10-17T09:14:57.000Z</time>
      </trkpt>
      <trkpt lat="43.66014" lon="3.7936">
        <ele>83.722436649995</ele>
        <time>2020-10-17T09:14:58.000Z</time>
      </trkpt>
      <trkpt lat="43.66013" lon="3.79357">
        <ele>83.513034528232</ele>
        <time>2020-10-17T09:14:59.000Z</time>
      </trkpt>
      <trkpt lat="43.66012" lon="3.79355">
        <ele>83.303632406469</ele>
        <time>2020-10-17T09:15:00.000Z</time>
      </trkpt>
      <trkpt lat="43.6601" lon="3.79354">
        <ele>83.094230284706</ele>
        <time>2020-10-17T09:15:01.000Z</time>
      </trkpt>
      <trkpt lat="43.66007" lon="3.79354">
        <ele>83</ele>
        <time>2020-10-17T09:15:02.000Z</time>
      </trkpt>
      <trkpt lat="43.66004" lon="3.79354">
        <ele>83</ele>
        <time>2020-10-17T09:15:03.000Z</time>
      </trkpt>
      <trkpt lat="43.66001" lon="3.79354">
        <ele>83</ele>
        <time>2020-10-17T09:15:04.000Z</time>
      </trkpt>
      <trkpt lat="43.65999" lon="3.79354">
        <ele>83</ele>
        <time>2020-10-17T09:15:05.000Z</time>
      </trkpt>
      <trkpt lat="43.65996" lon="3.79354">
        <ele>83</ele>
        <time>2020-10-17T09:15:06.000Z</time>
      </trkpt>
      <trkpt lat="43.65994" lon="3.79354">
        <ele>83</ele>
        <time>2020-10-17T09:15:07.000Z</time>
      </trkpt>
      <trkpt lat="43.65992" lon="3.79354">
        <ele>83</ele>
        <time>2020-10-17T09:15:08.000Z</time>
      </trkpt>
      <trkpt lat="43.6599" lon="3.79352">
        <ele>83</ele>
        <time>2020-10-17T09:15:09.000Z</time>
      </trkpt>
      <trkpt lat="43.65988" lon="3.79351">
        <ele>83</ele>
        <time>2020-10-17T09:15:10.000Z</time>
      </trkpt>
      <trkpt lat="43.65985" lon="3.7935">
        <ele>83</ele>
        <time>2020-10-17T09:15:11.000Z</time>
      </trkpt>
      <trkpt lat="43.65983" lon="3.7935">
        <ele>83.027778106996</ele>
        <time>2020-10-17T09:15:12.000Z</time>
      </trkpt>
      <trkpt lat="43.6598" lon="3.79349">
        <ele>83.130658765432</ele>
        <time>2020-10-17T09:15:13.000Z</time>
      </trkpt>
      <trkpt lat="43.65977" lon="3.79348">
        <ele>83.233539423868</ele>
        <time>2020-10-17T09:15:14.000Z</time>
      </trkpt>
      <trkpt lat="43.65974" lon="3.79347">
        <ele>83.336420082304</ele>
        <time>2020-10-17T09:15:15.000Z</time>
      </trkpt>
      <trkpt lat="43.65971" lon="3.79345">
        <ele>83.439300740741</ele>
        <time>2020-10-17T09:15:16.000Z</time>
      </trkpt>
      <trkpt lat="43.65968" lon="3.79344">
        <ele>83.542181399177</ele>
        <time>2020-10-17T09:15:17.000Z</time>
      </trkpt>
      <trkpt lat="43.65966" lon="3.79342">
        <ele>83.645062057613</ele>
        <time>2020-10-17T09:15:18.000Z</time>
      </trkpt>
      <trkpt lat="43.65963" lon="3.79341">
        <ele>83.747942716049</ele>
        <time>2020-10-17T09:15:19.000Z</time>
      </trkpt>
      <trkpt lat="43.65961" lon="3.7934">
        <ele>83.850823374486</ele>
        <time>2020-10-17T09:15:20.000Z</time>
      </trkpt>
      <trkpt lat="43.65959" lon="3.79339">
        <ele>83.953704032922</ele>
        <time>2020-10-17T09:15:21.000Z</time>
      </trkpt>
      <trkpt lat="43.65956" lon="3.79339">
        <ele>83.94499968</ele>
        <time>2020-10-17T09:15:22.000Z</time>
      </trkpt>
      <trkpt lat="43.65954" lon="3.79338">
        <ele>83.84499968</ele>
        <time>2020-10-17T09:15:23.000Z</time>
      </trkpt>
      <trkpt lat="43.65952" lon="3.79338">
        <ele>83.74499968</ele>
        <time>2020-10-17T09:15:24.000Z</time>
      </trkpt>
      <trkpt lat="43.65949" lon="3.79337">
        <ele>83.64499968</ele>
        <time>2020-10-17T09:15:25.000Z</time>
      </trkpt>
      <trkpt lat="43.65946" lon="3.79337">
        <ele>83.54499968</ele>
        <time>2020-10-17T09:15:26.000Z</time>
      </trkpt>
      <trkpt lat="43.65943" lon="3.79338">
        <ele>83.44499968</ele>
        <time>2020-10-17T09:15:27.000Z</time>
      </trkpt>
      <trkpt lat="43.6594" lon="3.79338">
        <ele>83.34499968</ele>
        <time>2020-10-17T09:15:28.000Z</time>
      </trkpt>
      <trkpt lat="43.65937" lon="3.79338">
        <ele>83.24499968</ele>
        <time>2020-10-17T09:15:29.000Z</time>
      </trkpt>
      <trkpt lat="43.65936" lon="3.79338">
        <ele>83.14499968</ele>
        <time>2020-10-17T09:15:30.000Z</time>
      </trkpt>
      <trkpt lat="43.65934" lon="3.79338">
        <ele>83.04499968</ele>
        <time>2020-10-17T09:15:31.000Z</time>
      </trkpt>
      <trkpt lat="43.6593" lon="3.79338">
        <ele>83.31000064</ele>
        <time>2020-10-17T09:15:33.000Z</time>
      </trkpt>
      <trkpt lat="43.65928" lon="3.79337">
        <ele>83.51000064</ele>
        <time>2020-10-17T09:15:34.000Z</time>
      </trkpt>
      <trkpt lat="43.65926" lon="3.79337">
        <ele>83.71000064</ele>
        <time>2020-10-17T09:15:35.000Z</time>
      </trkpt>
      <trkpt lat="43.65924" lon="3.79338">
        <ele>83.91000064</ele>
        <time>2020-10-17T09:15:36.000Z</time>
      </trkpt>
      <trkpt lat="43.65921" lon="3.79338">
        <ele>84.11000064</ele>
        <time>2020-10-17T09:15:37.000Z</time>
      </trkpt>
      <trkpt lat="43.65919" lon="3.79339">
        <ele>84.31000064</ele>
        <time>2020-10-17T09:15:38.000Z</time>
      </trkpt>
      <trkpt lat="43.65916" lon="3.7934">
        <ele>84.51000064</ele>
        <time>2020-10-17T09:15:39.000Z</time>
      </trkpt>
      <trkpt lat="43.65914" lon="3.79341">
        <ele>84.71000064</ele>
        <time>2020-10-17T09:15:40.000Z</time>
      </trkpt>
      <trkpt lat="43.65911" lon="3.79343">
        <ele>84.91000064</ele>
        <time>2020-10-17T09:15:41.000Z</time>
      </trkpt>
      <trkpt lat="43.65909" lon="3.79345">
        <ele>85.082956702042</ele>
        <time>2020-10-17T09:15:42.000Z</time>
      </trkpt>
      <trkpt lat="43.65907" lon="3.79346">
        <ele>85.233786191838</ele>
        <time>2020-10-17T09:15:43.000Z</time>
      </trkpt>
      <trkpt lat="43.65904" lon="3.79346">
        <ele>85.384615681634</ele>
        <time>2020-10-17T09:15:44.000Z</time>
      </trkpt>
      <trkpt lat="43.65902" lon="3.79348">
        <ele>85.535445171429</ele>
        <time>2020-10-17T09:15:45.000Z</time>
      </trkpt>
      <trkpt lat="43.65899" lon="3.7935">
        <ele>85.686274661225</ele>
        <time>2020-10-17T09:15:46.000Z</time>
      </trkpt>
      <trkpt lat="43.65897" lon="3.79351">
        <ele>85.837104151021</ele>
        <time>2020-10-17T09:15:47.000Z</time>
      </trkpt>
      <trkpt lat="43.65896" lon="3.79353">
        <ele>85.987933640816</ele>
        <time>2020-10-17T09:15:48.000Z</time>
      </trkpt>
      <trkpt lat="43.65894" lon="3.79353">
        <ele>86.569733478679</ele>
        <time>2020-10-17T09:15:50.000Z</time>
      </trkpt>
      <trkpt lat="43.65893" lon="3.79353">
        <ele>87</ele>
        <time>2020-10-17T09:15:57.000Z</time>
      </trkpt>
      <trkpt lat="43.65887" lon="3.79362">
        <ele>87.899381200625</ele>
        <time>2020-10-17T09:16:03.000Z</time>
      </trkpt>
      <trkpt lat="43.65884" lon="3.79362">
        <ele>88</ele>
        <time>2020-10-17T09:16:04.000Z</time>
      </trkpt>
      <trkpt lat="43.6588" lon="3.79363">
        <ele>88</ele>
        <time>2020-10-17T09:16:05.000Z</time>
      </trkpt>
      <trkpt lat="43.65877" lon="3.79363">
        <ele>88</ele>
        <time>2020-10-17T09:16:06.000Z</time>
      </trkpt>
      <trkpt lat="43.65874" lon="3.79363">
        <ele>88</ele>
        <time>2020-10-17T09:16:07.000Z</time>
      </trkpt>
      <trkpt lat="43.65871" lon="3.79364">
        <ele>88</ele>
        <time>2020-10-17T09:16:08.000Z</time>
      </trkpt>
      <trkpt lat="43.65869" lon="3.79366">
        <ele>88</ele>
        <time>2020-10-17T09:16:09.000Z</time>
      </trkpt>
      <trkpt lat="43.65867" lon="3.79368">
        <ele>88</ele>
        <time>2020-10-17T09:16:10.000Z</time>
      </trkpt>
      <trkpt lat="43.65865" lon="3.7937">
        <ele>88</ele>
        <time>2020-10-17T09:16:11.000Z</time>
      </trkpt>
      <trkpt lat="43.65863" lon="3.79373">
        <ele>88</ele>
        <time>2020-10-17T09:16:12.000Z</time>
      </trkpt>
      <trkpt lat="43.65861" lon="3.79375">
        <ele>88</ele>
        <time>2020-10-17T09:16:13.000Z</time>
      </trkpt>
      <trkpt lat="43.6586" lon="3.79377">
        <ele>87.948210652679</ele>
        <time>2020-10-17T09:16:14.000Z</time>
      </trkpt>
      <trkpt lat="43.65858" lon="3.79379">
        <ele>87.854048750856</ele>
        <time>2020-10-17T09:16:15.000Z</time>
      </trkpt>
      <trkpt lat="43.65856" lon="3.79383">
        <ele>87.665724947209</ele>
        <time>2020-10-17T09:16:17.000Z</time>
      </trkpt>
      <trkpt lat="43.65855" lon="3.79385">
        <ele>87.571563045386</ele>
        <time>2020-10-17T09:16:18.000Z</time>
      </trkpt>
      <trkpt lat="43.65854" lon="3.79387">
        <ele>87.477401143562</ele>
        <time>2020-10-17T09:16:19.000Z</time>
      </trkpt>
      <trkpt lat="43.65851" lon="3.7939">
        <ele>87.289077339916</ele>
        <time>2020-10-17T09:16:21.000Z</time>
      </trkpt>
      <trkpt lat="43.65849" lon="3.79392">
        <ele>87.194915438092</ele>
        <time>2020-10-17T09:16:22.000Z</time>
      </trkpt>
      <trkpt lat="43.65846" lon="3.79394">
        <ele>87.100753536269</ele>
        <time>2020-10-17T09:16:23.000Z</time>
      </trkpt>
      <trkpt lat="43.65844" lon="3.79396">
        <ele>87.006591634446</ele>
        <time>2020-10-17T09:16:24.000Z</time>
      </trkpt>
      <trkpt lat="43.65843" lon="3.79399">
        <ele>87</ele>
        <time>2020-10-17T09:16:25.000Z</time>
      </trkpt>
      <trkpt lat="43.65842" lon="3.79403">
        <ele>87</ele>
        <time>2020-10-17T09:16:26.000Z</time>
      </trkpt>
      <trkpt lat="43.65841" lon="3.79407">
        <ele>87</ele>
        <time>2020-10-17T09:16:27.000Z</time>
      </trkpt>
      <trkpt lat="43.6584" lon="3.7941">
        <ele>87</ele>
        <time>2020-10-17T09:16:28.000Z</time>
      </trkpt>
      <trkpt lat="43.65839" lon="3.79414">
        <ele>87</ele>
        <time>2020-10-17T09:16:29.000Z</time>
      </trkpt>
      <trkpt lat="43.65838" lon="3.79417">
        <ele>87</ele>
        <time>2020-10-17T09:16:30.000Z</time>
      </trkpt>
      <trkpt lat="43.65837" lon="3.7942">
        <ele>87</ele>
        <time>2020-10-17T09:16:31.000Z</time>
      </trkpt>
      <trkpt lat="43.65835" lon="3.79423">
        <ele>87</ele>
        <time>2020-10-17T09:16:32.000Z</time>
      </trkpt>
      <trkpt lat="43.65834" lon="3.79425">
        <ele>87</ele>
        <time>2020-10-17T09:16:33.000Z</time>
      </trkpt>
      <trkpt lat="43.65831" lon="3.79426">
        <ele>87</ele>
        <time>2020-10-17T09:16:34.000Z</time>
      </trkpt>
      <trkpt lat="43.65829" lon="3.79428">
        <ele>87</ele>
        <time>2020-10-17T09:16:35.000Z</time>
      </trkpt>
      <trkpt lat="43.65828" lon="3.79429">
        <ele>87</ele>
        <time>2020-10-17T09:16:36.000Z</time>
      </trkpt>
      <trkpt lat="43.65826" lon="3.79431">
        <ele>87</ele>
        <time>2020-10-17T09:16:37.000Z</time>
      </trkpt>
      <trkpt lat="43.65824" lon="3.79432">
        <ele>87</ele>
        <time>2020-10-17T09:16:38.000Z</time>
      </trkpt>
      <trkpt lat="43.65823" lon="3.79433">
        <ele>87</ele>
        <time>2020-10-17T09:16:39.000Z</time>
      </trkpt>
      <trkpt lat="43.6582" lon="3.79435">
        <ele>87</ele>
        <time>2020-10-17T09:16:41.000Z</time>
      </trkpt>
      <trkpt lat="43.65817" lon="3.79436">
        <ele>87</ele>
        <time>2020-10-17T09:16:43.000Z</time>
      </trkpt>
      <trkpt lat="43.65814" lon="3.79437">
        <ele>86.84499968</ele>
        <time>2020-10-17T09:16:45.000Z</time>
      </trkpt>
      <trkpt lat="43.65811" lon="3.79435">
        <ele>86.64499968</ele>
        <time>2020-10-17T09:16:47.000Z</time>
      </trkpt>
      <trkpt lat="43.6581" lon="3.79433">
        <ele>86.54499968</ele>
        <time>2020-10-17T09:16:48.000Z</time>
      </trkpt>
      <trkpt lat="43.65809" lon="3.7943">
        <ele>86.44499968</ele>
        <time>2020-10-17T09:16:49.000Z</time>
      </trkpt>
      <trkpt lat="43.65807" lon="3.79427">
        <ele>86.34499968</ele>
        <time>2020-10-17T09:16:50.000Z</time>
      </trkpt>
      <trkpt lat="43.65805" lon="3.79423">
        <ele>86.24499968</ele>
        <time>2020-10-17T09:16:51.000Z</time>
      </trkpt>
      <trkpt lat="43.65803" lon="3.7942">
        <ele>86.14499968</ele>
        <time>2020-10-17T09:16:52.000Z</time>
      </trkpt>
      <trkpt lat="43.658" lon="3.79418">
        <ele>86.04499968</ele>
        <time>2020-10-17T09:16:53.000Z</time>
      </trkpt>
      <trkpt lat="43.65799" lon="3.79416">
        <ele>85.84499968</ele>
        <time>2020-10-17T09:16:55.000Z</time>
      </trkpt>
      <trkpt lat="43.65798" lon="3.79414">
        <ele>85.64499968</ele>
        <time>2020-10-17T09:16:57.000Z</time>
      </trkpt>
      <trkpt lat="43.65796" lon="3.7941">
        <ele>85.44499968</ele>
        <time>2020-10-17T09:16:59.000Z</time>
      </trkpt>
      <trkpt lat="43.65794" lon="3.79407">
        <ele>85.34499968</ele>
        <time>2020-10-17T09:17:00.000Z</time>
      </trkpt>
      <trkpt lat="43.65792" lon="3.79404">
        <ele>85.24499968</ele>
        <time>2020-10-17T09:17:01.000Z</time>
      </trkpt>
      <trkpt lat="43.6579" lon="3.79402">
        <ele>85.14499968</ele>
        <time>2020-10-17T09:17:02.000Z</time>
      </trkpt>
      <trkpt lat="43.65787" lon="3.794">
        <ele>85.04499968</ele>
        <time>2020-10-17T09:17:03.000Z</time>
      </trkpt>
      <trkpt lat="43.65784" lon="3.79397">
        <ele>85</ele>
        <time>2020-10-17T09:17:04.000Z</time>
      </trkpt>
      <trkpt lat="43.65781" lon="3.79395">
        <ele>85</ele>
        <time>2020-10-17T09:17:05.000Z</time>
      </trkpt>
      <trkpt lat="43.65779" lon="3.79393">
        <ele>85</ele>
        <time>2020-10-17T09:17:06.000Z</time>
      </trkpt>
      <trkpt lat="43.65776" lon="3.7939">
        <ele>85</ele>
        <time>2020-10-17T09:17:07.000Z</time>
      </trkpt>
      <trkpt lat="43.65774" lon="3.79388">
        <ele>85</ele>
        <time>2020-10-17T09:17:08.000Z</time>
      </trkpt>
      <trkpt lat="43.65773" lon="3.79385">
        <ele>85</ele>
        <time>2020-10-17T09:17:09.000Z</time>
      </trkpt>
      <trkpt lat="43.65772" lon="3.79383">
        <ele>85</ele>
        <time>2020-10-17T09:17:10.000Z</time>
      </trkpt>
      <trkpt lat="43.6577" lon="3.7938">
        <ele>85</ele>
        <time>2020-10-17T09:17:11.000Z</time>
      </trkpt>
      <trkpt lat="43.65769" lon="3.79377">
        <ele>85</ele>
        <time>2020-10-17T09:17:12.000Z</time>
      </trkpt>
      <trkpt lat="43.65768" lon="3.79375">
        <ele>85</ele>
        <time>2020-10-17T09:17:13.000Z</time>
      </trkpt>
      <trkpt lat="43.65766" lon="3.79372">
        <ele>84.94499968</ele>
        <time>2020-10-17T09:17:14.000Z</time>
      </trkpt>
      <trkpt lat="43.65764" lon="3.7937">
        <ele>84.84499968</ele>
        <time>2020-10-17T09:17:15.000Z</time>
      </trkpt>
      <trkpt lat="43.65762" lon="3.79367">
        <ele>84.74499968</ele>
        <time>2020-10-17T09:17:16.000Z</time>
      </trkpt>
      <trkpt lat="43.65761" lon="3.79364">
        <ele>84.64499968</ele>
        <time>2020-10-17T09:17:17.000Z</time>
      </trkpt>
      <trkpt lat="43.65759" lon="3.7936">
        <ele>84.54499968</ele>
        <time>2020-10-17T09:17:18.000Z</time>
      </trkpt>
      <trkpt lat="43.65757" lon="3.79357">
        <ele>84.44499968</ele>
        <time>2020-10-17T09:17:19.000Z</time>
      </trkpt>
      <trkpt lat="43.65754" lon="3.79354">
        <ele>84.34499968</ele>
        <time>2020-10-17T09:17:20.000Z</time>
      </trkpt>
      <trkpt lat="43.65752" lon="3.79351">
        <ele>84.24499968</ele>
        <time>2020-10-17T09:17:21.000Z</time>
      </trkpt>
      <trkpt lat="43.65749" lon="3.7935">
        <ele>84.14499968</ele>
        <time>2020-10-17T09:17:22.000Z</time>
      </trkpt>
      <trkpt lat="43.65747" lon="3.79348">
        <ele>84.04499968</ele>
        <time>2020-10-17T09:17:23.000Z</time>
      </trkpt>
      <trkpt lat="43.65744" lon="3.79346">
        <ele>84.05500032</ele>
        <time>2020-10-17T09:17:24.000Z</time>
      </trkpt>
      <trkpt lat="43.65743" lon="3.79344">
        <ele>84.15500032</ele>
        <time>2020-10-17T09:17:25.000Z</time>
      </trkpt>
      <trkpt lat="43.65741" lon="3.79342">
        <ele>84.25500032</ele>
        <time>2020-10-17T09:17:26.000Z</time>
      </trkpt>
      <trkpt lat="43.6574" lon="3.7934">
        <ele>84.35500032</ele>
        <time>2020-10-17T09:17:27.000Z</time>
      </trkpt>
      <trkpt lat="43.65738" lon="3.79338">
        <ele>84.45500032</ele>
        <time>2020-10-17T09:17:28.000Z</time>
      </trkpt>
      <trkpt lat="43.65736" lon="3.79336">
        <ele>84.55500032</ele>
        <time>2020-10-17T09:17:29.000Z</time>
      </trkpt>
      <trkpt lat="43.65735" lon="3.79333">
        <ele>84.65500032</ele>
        <time>2020-10-17T09:17:30.000Z</time>
      </trkpt>
      <trkpt lat="43.65733" lon="3.79329">
        <ele>84.75500032</ele>
        <time>2020-10-17T09:17:31.000Z</time>
      </trkpt>
      <trkpt lat="43.65731" lon="3.79327">
        <ele>84.85500032</ele>
        <time>2020-10-17T09:17:32.000Z</time>
      </trkpt>
      <trkpt lat="43.65729" lon="3.79324">
        <ele>84.95500032</ele>
        <time>2020-10-17T09:17:33.000Z</time>
      </trkpt>
      <trkpt lat="43.65728" lon="3.79322">
        <ele>85.05500032</ele>
        <time>2020-10-17T09:17:34.000Z</time>
      </trkpt>
      <trkpt lat="43.65726" lon="3.79322">
        <ele>85.15500032</ele>
        <time>2020-10-17T09:17:35.000Z</time>
      </trkpt>
      <trkpt lat="43.65724" lon="3.79321">
        <ele>85.25500032</ele>
        <time>2020-10-17T09:17:36.000Z</time>
      </trkpt>
      <trkpt lat="43.65722" lon="3.79321">
        <ele>85.35500032</ele>
        <time>2020-10-17T09:17:37.000Z</time>
      </trkpt>
      <trkpt lat="43.6572" lon="3.79321">
        <ele>85.45500032</ele>
        <time>2020-10-17T09:17:38.000Z</time>
      </trkpt>
      <trkpt lat="43.65718" lon="3.79321">
        <ele>85.55500032</ele>
        <time>2020-10-17T09:17:39.000Z</time>
      </trkpt>
      <trkpt lat="43.65716" lon="3.79321">
        <ele>85.65500032</ele>
        <time>2020-10-17T09:17:40.000Z</time>
      </trkpt>
      <trkpt lat="43.65713" lon="3.79322">
        <ele>85.85500032</ele>
        <time>2020-10-17T09:17:42.000Z</time>
      </trkpt>
      <trkpt lat="43.65709" lon="3.79322">
        <ele>86</ele>
        <time>2020-10-17T09:17:44.000Z</time>
      </trkpt>
      <trkpt lat="43.65706" lon="3.79319">
        <ele>86</ele>
        <time>2020-10-17T09:17:46.000Z</time>
      </trkpt>
      <trkpt lat="43.65705" lon="3.79317">
        <ele>86</ele>
        <time>2020-10-17T09:17:47.000Z</time>
      </trkpt>
      <trkpt lat="43.65703" lon="3.79315">
        <ele>86</ele>
        <time>2020-10-17T09:17:48.000Z</time>
      </trkpt>
      <trkpt lat="43.65701" lon="3.79313">
        <ele>86</ele>
        <time>2020-10-17T09:17:49.000Z</time>
      </trkpt>
      <trkpt lat="43.65699" lon="3.79312">
        <ele>86</ele>
        <time>2020-10-17T09:17:50.000Z</time>
      </trkpt>
      <trkpt lat="43.65697" lon="3.79311">
        <ele>86</ele>
        <time>2020-10-17T09:17:51.000Z</time>
      </trkpt>
      <trkpt lat="43.65695" lon="3.79311">
        <ele>86</ele>
        <time>2020-10-17T09:17:52.000Z</time>
      </trkpt>
      <trkpt lat="43.65692" lon="3.7931">
        <ele>86</ele>
        <time>2020-10-17T09:17:53.000Z</time>
      </trkpt>
      <trkpt lat="43.6569" lon="3.79309">
        <ele>86.05500032</ele>
        <time>2020-10-17T09:17:54.000Z</time>
      </trkpt>
      <trkpt lat="43.65688" lon="3.79307">
        <ele>86.15500032</ele>
        <time>2020-10-17T09:17:55.000Z</time>
      </trkpt>
      <trkpt lat="43.65685" lon="3.79305">
        <ele>86.25500032</ele>
        <time>2020-10-17T09:17:56.000Z</time>
      </trkpt>
      <trkpt lat="43.65682" lon="3.79303">
        <ele>86.35500032</ele>
        <time>2020-10-17T09:17:57.000Z</time>
      </trkpt>
      <trkpt lat="43.65679" lon="3.79301">
        <ele>86.45500032</ele>
        <time>2020-10-17T09:17:58.000Z</time>
      </trkpt>
      <trkpt lat="43.65677" lon="3.79301">
        <ele>86.55500032</ele>
        <time>2020-10-17T09:17:59.000Z</time>
      </trkpt>
      <trkpt lat="43.65675" lon="3.793">
        <ele>86.75500032</ele>
        <time>2020-10-17T09:18:01.000Z</time>
      </trkpt>
      <trkpt lat="43.65673" lon="3.79298">
        <ele>87</ele>
        <time>2020-10-17T09:18:06.000Z</time>
      </trkpt>
      <trkpt lat="43.65672" lon="3.79298">
        <ele>87</ele>
        <time>2020-10-17T09:18:10.000Z</time>
      </trkpt>
      <trkpt lat="43.65671" lon="3.79297">
        <ele>87</ele>
        <time>2020-10-17T09:18:15.000Z</time>
      </trkpt>
      <trkpt lat="43.65663" lon="3.79293">
        <ele>87</ele>
        <time>2020-10-17T09:18:23.000Z</time>
      </trkpt>
      <trkpt lat="43.65662" lon="3.79291">
        <ele>87</ele>
        <time>2020-10-17T09:18:24.000Z</time>
      </trkpt>
      <trkpt lat="43.6566" lon="3.79288">
        <ele>87</ele>
        <time>2020-10-17T09:18:25.000Z</time>
      </trkpt>
      <trkpt lat="43.65658" lon="3.79285">
        <ele>87</ele>
        <time>2020-10-17T09:18:26.000Z</time>
      </trkpt>
      <trkpt lat="43.65656" lon="3.79284">
        <ele>87</ele>
        <time>2020-10-17T09:18:27.000Z</time>
      </trkpt>
      <trkpt lat="43.65654" lon="3.79283">
        <ele>87</ele>
        <time>2020-10-17T09:18:28.000Z</time>
      </trkpt>
      <trkpt lat="43.65652" lon="3.79283">
        <ele>87</ele>
        <time>2020-10-17T09:18:29.000Z</time>
      </trkpt>
      <trkpt lat="43.6565" lon="3.79283">
        <ele>87</ele>
        <time>2020-10-17T09:18:30.000Z</time>
      </trkpt>
      <trkpt lat="43.65649" lon="3.79283">
        <ele>87</ele>
        <time>2020-10-17T09:18:37.000Z</time>
      </trkpt>
      <trkpt lat="43.65645" lon="3.79279">
        <ele>87</ele>
        <time>2020-10-17T09:18:43.000Z</time>
      </trkpt>
      <trkpt lat="43.65644" lon="3.79276">
        <ele>87</ele>
        <time>2020-10-17T09:18:44.000Z</time>
      </trkpt>
      <trkpt lat="43.65643" lon="3.79273">
        <ele>87</ele>
        <time>2020-10-17T09:18:45.000Z</time>
      </trkpt>
      <trkpt lat="43.65642" lon="3.79272">
        <ele>87</ele>
        <time>2020-10-17T09:18:50.000Z</time>
      </trkpt>
      <trkpt lat="43.65641" lon="3.79266">
        <ele>86.069396652779</ele>
        <time>2020-10-17T09:18:59.000Z</time>
      </trkpt>
      <trkpt lat="43.65642" lon="3.79265">
        <ele>85.859612822913</ele>
        <time>2020-10-17T09:19:01.000Z</time>
      </trkpt>
      <trkpt lat="43.65643" lon="3.79261">
        <ele>85.656154089553</ele>
        <time>2020-10-17T09:19:03.000Z</time>
      </trkpt>
      <trkpt lat="43.65642" lon="3.79257">
        <ele>85.452695356193</ele>
        <time>2020-10-17T09:19:05.000Z</time>
      </trkpt>
      <trkpt lat="43.6564" lon="3.79256">
        <ele>85.249236622832</ele>
        <time>2020-10-17T09:19:07.000Z</time>
      </trkpt>
      <trkpt lat="43.65639" lon="3.79256">
        <ele>85</ele>
        <time>2020-10-17T09:19:14.000Z</time>
      </trkpt>
      <trkpt lat="43.65631" lon="3.79249">
        <ele>84.0871424</ele>
        <time>2020-10-17T09:19:21.000Z</time>
      </trkpt>
      <trkpt lat="43.65629" lon="3.79247">
        <ele>83.961342189594</ele>
        <time>2020-10-17T09:19:22.000Z</time>
      </trkpt>
      <trkpt lat="43.65627" lon="3.79246">
        <ele>83.859612822913</ele>
        <time>2020-10-17T09:19:23.000Z</time>
      </trkpt>
      <trkpt lat="43.65625" lon="3.79245">
        <ele>83.757883456233</ele>
        <time>2020-10-17T09:19:24.000Z</time>
      </trkpt>
      <trkpt lat="43.65623" lon="3.79244">
        <ele>83.656154089553</ele>
        <time>2020-10-17T09:19:25.000Z</time>
      </trkpt>
      <trkpt lat="43.65621" lon="3.79243">
        <ele>83.554424722873</ele>
        <time>2020-10-17T09:19:26.000Z</time>
      </trkpt>
      <trkpt lat="43.65619" lon="3.79241">
        <ele>83.452695356193</ele>
        <time>2020-10-17T09:19:27.000Z</time>
      </trkpt>
      <trkpt lat="43.65617" lon="3.79239">
        <ele>83.350965989513</ele>
        <time>2020-10-17T09:19:28.000Z</time>
      </trkpt>
      <trkpt lat="43.65615" lon="3.79238">
        <ele>83.249236622832</ele>
        <time>2020-10-17T09:19:29.000Z</time>
      </trkpt>
      <trkpt lat="43.65613" lon="3.79236">
        <ele>83.147507256152</ele>
        <time>2020-10-17T09:19:30.000Z</time>
      </trkpt>
      <trkpt lat="43.65611" lon="3.79234">
        <ele>83.045777889472</ele>
        <time>2020-10-17T09:19:31.000Z</time>
      </trkpt>
      <trkpt lat="43.65609" lon="3.79233">
        <ele>82.945218804781</ele>
        <time>2020-10-17T09:19:32.000Z</time>
      </trkpt>
      <trkpt lat="43.65606" lon="3.79232">
        <ele>82.845617211155</ele>
        <time>2020-10-17T09:19:33.000Z</time>
      </trkpt>
      <trkpt lat="43.65604" lon="3.79231">
        <ele>82.74601561753</ele>
        <time>2020-10-17T09:19:34.000Z</time>
      </trkpt>
      <trkpt lat="43.65602" lon="3.79231">
        <ele>82.646414023904</ele>
        <time>2020-10-17T09:19:35.000Z</time>
      </trkpt>
      <trkpt lat="43.65601" lon="3.79229">
        <ele>82.546812430279</ele>
        <time>2020-10-17T09:19:36.000Z</time>
      </trkpt>
      <trkpt lat="43.65599" lon="3.79228">
        <ele>82.447210836653</ele>
        <time>2020-10-17T09:19:37.000Z</time>
      </trkpt>
      <trkpt lat="43.65596" lon="3.79227">
        <ele>82.347609243028</ele>
        <time>2020-10-17T09:19:38.000Z</time>
      </trkpt>
      <trkpt lat="43.65594" lon="3.79225">
        <ele>82.248007649402</ele>
        <time>2020-10-17T09:19:39.000Z</time>
      </trkpt>
      <trkpt lat="43.65592" lon="3.79224">
        <ele>82.048804462151</ele>
        <time>2020-10-17T09:19:41.000Z</time>
      </trkpt>
      <trkpt lat="43.65592" lon="3.79224">
        <ele>82</ele>
        <time>2020-10-17T09:19:46.000Z</time>
      </trkpt>
      <trkpt lat="43.65588" lon="3.79219">
        <ele>81.089837483434</ele>
        <time>2020-10-17T09:19:53.000Z</time>
      </trkpt>
      <trkpt lat="43.65586" lon="3.79217">
        <ele>80.961342189594</ele>
        <time>2020-10-17T09:19:54.000Z</time>
      </trkpt>
      <trkpt lat="43.65584" lon="3.79215">
        <ele>80.859612822913</ele>
        <time>2020-10-17T09:19:55.000Z</time>
      </trkpt>
      <trkpt lat="43.65583" lon="3.79214">
        <ele>80.757883456233</ele>
        <time>2020-10-17T09:19:56.000Z</time>
      </trkpt>
      <trkpt lat="43.65581" lon="3.79213">
        <ele>80.656154089553</ele>
        <time>2020-10-17T09:19:57.000Z</time>
      </trkpt>
      <trkpt lat="43.65578" lon="3.79211">
        <ele>80.452695356193</ele>
        <time>2020-10-17T09:19:59.000Z</time>
      </trkpt>
      <trkpt lat="43.65576" lon="3.79209">
        <ele>80.249236622832</ele>
        <time>2020-10-17T09:20:01.000Z</time>
      </trkpt>
      <trkpt lat="43.65573" lon="3.79206">
        <ele>80.045777889472</ele>
        <time>2020-10-17T09:20:03.000Z</time>
      </trkpt>
      <trkpt lat="43.65571" lon="3.79204">
        <ele>80</ele>
        <time>2020-10-17T09:20:05.000Z</time>
      </trkpt>
      <trkpt lat="43.6557" lon="3.79202">
        <ele>80</ele>
        <time>2020-10-17T09:20:07.000Z</time>
      </trkpt>
      <trkpt lat="43.65569" lon="3.79202">
        <ele>80</ele>
        <time>2020-10-17T09:20:12.000Z</time>
      </trkpt>
      <trkpt lat="43.65563" lon="3.79195">
        <ele>79.078900425532</ele>
        <time>2020-10-17T09:20:23.000Z</time>
      </trkpt>
      <trkpt lat="43.65563" lon="3.79192">
        <ele>78.989529455443</ele>
        <time>2020-10-17T09:20:24.000Z</time>
      </trkpt>
      <trkpt lat="43.65561" lon="3.79189">
        <ele>78.884817308298</ele>
        <time>2020-10-17T09:20:25.000Z</time>
      </trkpt>
      <trkpt lat="43.6556" lon="3.79186">
        <ele>78.780105161153</ele>
        <time>2020-10-17T09:20:26.000Z</time>
      </trkpt>
      <trkpt lat="43.65558" lon="3.79182">
        <ele>78.675393014008</ele>
        <time>2020-10-17T09:20:27.000Z</time>
      </trkpt>
      <trkpt lat="43.65557" lon="3.7918">
        <ele>78.570680866862</ele>
        <time>2020-10-17T09:20:28.000Z</time>
      </trkpt>
      <trkpt lat="43.65555" lon="3.79177">
        <ele>78.465968719717</ele>
        <time>2020-10-17T09:20:29.000Z</time>
      </trkpt>
      <trkpt lat="43.65553" lon="3.79176">
        <ele>78.361256572572</ele>
        <time>2020-10-17T09:20:30.000Z</time>
      </trkpt>
      <trkpt lat="43.65551" lon="3.79176">
        <ele>78.256544425427</ele>
        <time>2020-10-17T09:20:31.000Z</time>
      </trkpt>
      <trkpt lat="43.65549" lon="3.79175">
        <ele>78.151832278282</ele>
        <time>2020-10-17T09:20:32.000Z</time>
      </trkpt>
      <trkpt lat="43.65547" lon="3.79174">
        <ele>78.047120131136</ele>
        <time>2020-10-17T09:20:33.000Z</time>
      </trkpt>
      <trkpt lat="43.65545" lon="3.79173">
        <ele>77.946549787475</ele>
        <time>2020-10-17T09:20:34.000Z</time>
      </trkpt>
      <trkpt lat="43.65542" lon="3.79171">
        <ele>77.849368148306</ele>
        <time>2020-10-17T09:20:35.000Z</time>
      </trkpt>
      <trkpt lat="43.6554" lon="3.7917">
        <ele>77.752186509136</ele>
        <time>2020-10-17T09:20:36.000Z</time>
      </trkpt>
      <trkpt lat="43.65538" lon="3.79168">
        <ele>77.655004869966</ele>
        <time>2020-10-17T09:20:37.000Z</time>
      </trkpt>
      <trkpt lat="43.65536" lon="3.79166">
        <ele>77.557823230797</ele>
        <time>2020-10-17T09:20:38.000Z</time>
      </trkpt>
      <trkpt lat="43.65534" lon="3.79165">
        <ele>77.460641591627</ele>
        <time>2020-10-17T09:20:39.000Z</time>
      </trkpt>
      <trkpt lat="43.65532" lon="3.79164">
        <ele>77.363459952457</ele>
        <time>2020-10-17T09:20:40.000Z</time>
      </trkpt>
      <trkpt lat="43.65531" lon="3.79162">
        <ele>77.266278313288</ele>
        <time>2020-10-17T09:20:41.000Z</time>
      </trkpt>
      <trkpt lat="43.65528" lon="3.79161">
        <ele>77.071915034948</ele>
        <time>2020-10-17T09:20:43.000Z</time>
      </trkpt>
      <trkpt lat="43.65526" lon="3.79159">
        <ele>77</ele>
        <time>2020-10-17T09:20:45.000Z</time>
      </trkpt>
      <trkpt lat="43.65526" lon="3.79159">
        <ele>77</ele>
        <time>2020-10-17T09:20:50.000Z</time>
      </trkpt>
      <trkpt lat="43.65522" lon="3.79153">
        <ele>77</ele>
        <time>2020-10-17T09:20:57.000Z</time>
      </trkpt>
      <trkpt lat="43.65522" lon="3.7915">
        <ele>76.875847133795</ele>
        <time>2020-10-17T09:20:59.000Z</time>
      </trkpt>
      <trkpt lat="43.65521" lon="3.79147">
        <ele>76.650113336425</ele>
        <time>2020-10-17T09:21:01.000Z</time>
      </trkpt>
      <trkpt lat="43.65521" lon="3.79147">
        <ele>76.085778843</ele>
        <time>2020-10-17T09:21:06.000Z</time>
      </trkpt>
      <trkpt lat="43.65516" lon="3.79138">
        <ele>74.073849491525</ele>
        <time>2020-10-17T09:21:23.000Z</time>
      </trkpt>
      <trkpt lat="43.65516" lon="3.79137">
        <ele>73.922684379187</ele>
        <time>2020-10-17T09:21:24.000Z</time>
      </trkpt>
      <trkpt lat="43.65513" lon="3.79132">
        <ele>73.515766912467</ele>
        <time>2020-10-17T09:21:26.000Z</time>
      </trkpt>
      <trkpt lat="43.65511" lon="3.79129">
        <ele>73.312308179106</ele>
        <time>2020-10-17T09:21:27.000Z</time>
      </trkpt>
      <trkpt lat="43.65509" lon="3.79128">
        <ele>73.108849445746</ele>
        <time>2020-10-17T09:21:28.000Z</time>
      </trkpt>
      <trkpt lat="43.65506" lon="3.79128">
        <ele>72.905390712385</ele>
        <time>2020-10-17T09:21:29.000Z</time>
      </trkpt>
      <trkpt lat="43.65504" lon="3.79128">
        <ele>72.701931979025</ele>
        <time>2020-10-17T09:21:30.000Z</time>
      </trkpt>
      <trkpt lat="43.65502" lon="3.79129">
        <ele>72.498473245665</ele>
        <time>2020-10-17T09:21:31.000Z</time>
      </trkpt>
      <trkpt lat="43.65499" lon="3.79129">
        <ele>72.295014512305</ele>
        <time>2020-10-17T09:21:32.000Z</time>
      </trkpt>
      <trkpt lat="43.65497" lon="3.7913">
        <ele>72.091555778944</ele>
        <time>2020-10-17T09:21:33.000Z</time>
      </trkpt>
      <trkpt lat="43.65494" lon="3.79131">
        <ele>72</ele>
        <time>2020-10-17T09:21:34.000Z</time>
      </trkpt>
      <trkpt lat="43.65491" lon="3.79132">
        <ele>72</ele>
        <time>2020-10-17T09:21:35.000Z</time>
      </trkpt>
      <trkpt lat="43.65488" lon="3.79132">
        <ele>72</ele>
        <time>2020-10-17T09:21:36.000Z</time>
      </trkpt>
      <trkpt lat="43.65486" lon="3.79133">
        <ele>72</ele>
        <time>2020-10-17T09:21:37.000Z</time>
      </trkpt>
      <trkpt lat="43.65483" lon="3.79134">
        <ele>72</ele>
        <time>2020-10-17T09:21:38.000Z</time>
      </trkpt>
      <trkpt lat="43.6548" lon="3.79134">
        <ele>72</ele>
        <time>2020-10-17T09:21:39.000Z</time>
      </trkpt>
      <trkpt lat="43.65477" lon="3.79134">
        <ele>72</ele>
        <time>2020-10-17T09:21:40.000Z</time>
      </trkpt>
      <trkpt lat="43.65475" lon="3.79133">
        <ele>72</ele>
        <time>2020-10-17T09:21:41.000Z</time>
      </trkpt>
      <trkpt lat="43.65472" lon="3.79132">
        <ele>72</ele>
        <time>2020-10-17T09:21:42.000Z</time>
      </trkpt>
      <trkpt lat="43.6547" lon="3.79131">
        <ele>72</ele>
        <time>2020-10-17T09:21:43.000Z</time>
      </trkpt>
      <trkpt lat="43.65467" lon="3.7913">
        <ele>72.035714612245</ele>
        <time>2020-10-17T09:21:44.000Z</time>
      </trkpt>
      <trkpt lat="43.65465" lon="3.79129">
        <ele>72.137755428571</ele>
        <time>2020-10-17T09:21:45.000Z</time>
      </trkpt>
      <trkpt lat="43.65463" lon="3.79128">
        <ele>72.239796244898</ele>
        <time>2020-10-17T09:21:46.000Z</time>
      </trkpt>
      <trkpt lat="43.6546" lon="3.79128">
        <ele>72.341837061224</ele>
        <time>2020-10-17T09:21:47.000Z</time>
      </trkpt>
      <trkpt lat="43.65458" lon="3.79128">
        <ele>72.443877877551</ele>
        <time>2020-10-17T09:21:48.000Z</time>
      </trkpt>
      <trkpt lat="43.65455" lon="3.79128">
        <ele>72.647959510204</ele>
        <time>2020-10-17T09:21:50.000Z</time>
      </trkpt>
      <trkpt lat="43.65453" lon="3.79128">
        <ele>73.15500032</ele>
        <time>2020-10-17T09:21:55.000Z</time>
      </trkpt>
      <trkpt lat="43.65451" lon="3.79131">
        <ele>73.35500032</ele>
        <time>2020-10-17T09:21:57.000Z</time>
      </trkpt>
      <trkpt lat="43.65448" lon="3.79133">
        <ele>73.55500032</ele>
        <time>2020-10-17T09:21:59.000Z</time>
      </trkpt>
      <trkpt lat="43.65446" lon="3.79133">
        <ele>73.65500032</ele>
        <time>2020-10-17T09:22:00.000Z</time>
      </trkpt>
      <trkpt lat="43.65444" lon="3.79132">
        <ele>73.75500032</ele>
        <time>2020-10-17T09:22:01.000Z</time>
      </trkpt>
      <trkpt lat="43.65441" lon="3.79131">
        <ele>73.85500032</ele>
        <time>2020-10-17T09:22:02.000Z</time>
      </trkpt>
      <trkpt lat="43.65439" lon="3.79131">
        <ele>73.95500032</ele>
        <time>2020-10-17T09:22:03.000Z</time>
      </trkpt>
      <trkpt lat="43.65437" lon="3.79131">
        <ele>74</ele>
        <time>2020-10-17T09:22:04.000Z</time>
      </trkpt>
      <trkpt lat="43.65434" lon="3.7913">
        <ele>74</ele>
        <time>2020-10-17T09:22:05.000Z</time>
      </trkpt>
      <trkpt lat="43.65432" lon="3.7913">
        <ele>74</ele>
        <time>2020-10-17T09:22:06.000Z</time>
      </trkpt>
      <trkpt lat="43.6543" lon="3.7913">
        <ele>74</ele>
        <time>2020-10-17T09:22:07.000Z</time>
      </trkpt>
      <trkpt lat="43.65427" lon="3.79128">
        <ele>74</ele>
        <time>2020-10-17T09:22:08.000Z</time>
      </trkpt>
      <trkpt lat="43.65425" lon="3.79127">
        <ele>74</ele>
        <time>2020-10-17T09:22:09.000Z</time>
      </trkpt>
      <trkpt lat="43.65423" lon="3.79127">
        <ele>74</ele>
        <time>2020-10-17T09:22:10.000Z</time>
      </trkpt>
      <trkpt lat="43.65421" lon="3.79126">
        <ele>74</ele>
        <time>2020-10-17T09:22:11.000Z</time>
      </trkpt>
      <trkpt lat="43.65419" lon="3.79125">
        <ele>74</ele>
        <time>2020-10-17T09:22:12.000Z</time>
      </trkpt>
      <trkpt lat="43.65417" lon="3.79125">
        <ele>74</ele>
        <time>2020-10-17T09:22:13.000Z</time>
      </trkpt>
      <trkpt lat="43.65414" lon="3.79125">
        <ele>74</ele>
        <time>2020-10-17T09:22:14.000Z</time>
      </trkpt>
      <trkpt lat="43.65412" lon="3.79125">
        <ele>74</ele>
        <time>2020-10-17T09:22:15.000Z</time>
      </trkpt>
      <trkpt lat="43.6541" lon="3.79125">
        <ele>74</ele>
        <time>2020-10-17T09:22:16.000Z</time>
      </trkpt>
      <trkpt lat="43.65408" lon="3.79125">
        <ele>74</ele>
        <time>2020-10-17T09:22:17.000Z</time>
      </trkpt>
      <trkpt lat="43.65406" lon="3.79124">
        <ele>74</ele>
        <time>2020-10-17T09:22:18.000Z</time>
      </trkpt>
      <trkpt lat="43.65404" lon="3.79123">
        <ele>74</ele>
        <time>2020-10-17T09:22:19.000Z</time>
      </trkpt>
      <trkpt lat="43.65401" lon="3.79123">
        <ele>74</ele>
        <time>2020-10-17T09:22:20.000Z</time>
      </trkpt>
      <trkpt lat="43.65398" lon="3.79122">
        <ele>74</ele>
        <time>2020-10-17T09:22:21.000Z</time>
      </trkpt>
      <trkpt lat="43.65396" lon="3.79121">
        <ele>74</ele>
        <time>2020-10-17T09:22:22.000Z</time>
      </trkpt>
      <trkpt lat="43.65393" lon="3.79119">
        <ele>74</ele>
        <time>2020-10-17T09:22:23.000Z</time>
      </trkpt>
      <trkpt lat="43.6539" lon="3.79117">
        <ele>74</ele>
        <time>2020-10-17T09:22:24.000Z</time>
      </trkpt>
      <trkpt lat="43.65388" lon="3.79115">
        <ele>74</ele>
        <time>2020-10-17T09:22:25.000Z</time>
      </trkpt>
      <trkpt lat="43.65385" lon="3.79113">
        <ele>74</ele>
        <time>2020-10-17T09:22:26.000Z</time>
      </trkpt>
      <trkpt lat="43.65382" lon="3.79112">
        <ele>74</ele>
        <time>2020-10-17T09:22:27.000Z</time>
      </trkpt>
      <trkpt lat="43.65379" lon="3.79111">
        <ele>74</ele>
        <time>2020-10-17T09:22:28.000Z</time>
      </trkpt>
      <trkpt lat="43.65376" lon="3.79111">
        <ele>74</ele>
        <time>2020-10-17T09:22:29.000Z</time>
      </trkpt>
      <trkpt lat="43.65373" lon="3.79111">
        <ele>74</ele>
        <time>2020-10-17T09:22:30.000Z</time>
      </trkpt>
      <trkpt lat="43.6537" lon="3.7911">
        <ele>74</ele>
        <time>2020-10-17T09:22:31.000Z</time>
      </trkpt>
      <trkpt lat="43.65367" lon="3.79109">
        <ele>74</ele>
        <time>2020-10-17T09:22:32.000Z</time>
      </trkpt>
      <trkpt lat="43.65364" lon="3.79108">
        <ele>74</ele>
        <time>2020-10-17T09:22:33.000Z</time>
      </trkpt>
      <trkpt lat="43.6536" lon="3.79107">
        <ele>74</ele>
        <time>2020-10-17T09:22:34.000Z</time>
      </trkpt>
      <trkpt lat="43.65357" lon="3.79105">
        <ele>74</ele>
        <time>2020-10-17T09:22:35.000Z</time>
      </trkpt>
      <trkpt lat="43.65354" lon="3.79103">
        <ele>74</ele>
        <time>2020-10-17T09:22:36.000Z</time>
      </trkpt>
      <trkpt lat="43.65351" lon="3.79101">
        <ele>74</ele>
        <time>2020-10-17T09:22:37.000Z</time>
      </trkpt>
      <trkpt lat="43.65348" lon="3.791">
        <ele>74</ele>
        <time>2020-10-17T09:22:38.000Z</time>
      </trkpt>
      <trkpt lat="43.65345" lon="3.79099">
        <ele>74</ele>
        <time>2020-10-17T09:22:39.000Z</time>
      </trkpt>
      <trkpt lat="43.65342" lon="3.79098">
        <ele>74</ele>
        <time>2020-10-17T09:22:40.000Z</time>
      </trkpt>
      <trkpt lat="43.65338" lon="3.79097">
        <ele>74</ele>
        <time>2020-10-17T09:22:41.000Z</time>
      </trkpt>
      <trkpt lat="43.65335" lon="3.79097">
        <ele>74</ele>
        <time>2020-10-17T09:22:42.000Z</time>
      </trkpt>
      <trkpt lat="43.65332" lon="3.79096">
        <ele>74</ele>
        <time>2020-10-17T09:22:43.000Z</time>
      </trkpt>
      <trkpt lat="43.65329" lon="3.79095">
        <ele>74.05500032</ele>
        <time>2020-10-17T09:22:44.000Z</time>
      </trkpt>
      <trkpt lat="43.65326" lon="3.79094">
        <ele>74.15500032</ele>
        <time>2020-10-17T09:22:45.000Z</time>
      </trkpt>
      <trkpt lat="43.65323" lon="3.79093">
        <ele>74.25500032</ele>
        <time>2020-10-17T09:22:46.000Z</time>
      </trkpt>
      <trkpt lat="43.65321" lon="3.79094">
        <ele>74.35500032</ele>
        <time>2020-10-17T09:22:47.000Z</time>
      </trkpt>
      <trkpt lat="43.65317" lon="3.79095">
        <ele>74.45500032</ele>
        <time>2020-10-17T09:22:48.000Z</time>
      </trkpt>
      <trkpt lat="43.65314" lon="3.79096">
        <ele>74.55500032</ele>
        <time>2020-10-17T09:22:49.000Z</time>
      </trkpt>
      <trkpt lat="43.65311" lon="3.79098">
        <ele>74.65500032</ele>
        <time>2020-10-17T09:22:50.000Z</time>
      </trkpt>
      <trkpt lat="43.65309" lon="3.79101">
        <ele>74.75500032</ele>
        <time>2020-10-17T09:22:51.000Z</time>
      </trkpt>
      <trkpt lat="43.65306" lon="3.79102">
        <ele>74.85500032</ele>
        <time>2020-10-17T09:22:52.000Z</time>
      </trkpt>
      <trkpt lat="43.65303" lon="3.79104">
        <ele>74.95500032</ele>
        <time>2020-10-17T09:22:53.000Z</time>
      </trkpt>
      <trkpt lat="43.65299" lon="3.79105">
        <ele>75</ele>
        <time>2020-10-17T09:22:54.000Z</time>
      </trkpt>
      <trkpt lat="43.65295" lon="3.79107">
        <ele>75</ele>
        <time>2020-10-17T09:22:55.000Z</time>
      </trkpt>
      <trkpt lat="43.65291" lon="3.79109">
        <ele>75</ele>
        <time>2020-10-17T09:22:56.000Z</time>
      </trkpt>
      <trkpt lat="43.65286" lon="3.7911">
        <ele>75</ele>
        <time>2020-10-17T09:22:57.000Z</time>
      </trkpt>
      <trkpt lat="43.65281" lon="3.79111">
        <ele>75</ele>
        <time>2020-10-17T09:22:58.000Z</time>
      </trkpt>
      <trkpt lat="43.65276" lon="3.79112">
        <ele>75</ele>
        <time>2020-10-17T09:22:59.000Z</time>
      </trkpt>
      <trkpt lat="43.6527" lon="3.79113">
        <ele>75</ele>
        <time>2020-10-17T09:23:00.000Z</time>
      </trkpt>
      <trkpt lat="43.65265" lon="3.79112">
        <ele>75</ele>
        <time>2020-10-17T09:23:01.000Z</time>
      </trkpt>
      <trkpt lat="43.65261" lon="3.79109">
        <ele>75</ele>
        <time>2020-10-17T09:23:02.000Z</time>
      </trkpt>
      <trkpt lat="43.65257" lon="3.79103">
        <ele>75</ele>
        <time>2020-10-17T09:23:03.000Z</time>
      </trkpt>
      <trkpt lat="43.65254" lon="3.79098">
        <ele>74.88999936</ele>
        <time>2020-10-17T09:23:04.000Z</time>
      </trkpt>
      <trkpt lat="43.65249" lon="3.79093">
        <ele>74.68999936</ele>
        <time>2020-10-17T09:23:05.000Z</time>
      </trkpt>
      <trkpt lat="43.65243" lon="3.79089">
        <ele>74.48999936</ele>
        <time>2020-10-17T09:23:06.000Z</time>
      </trkpt>
      <trkpt lat="43.65238" lon="3.79084">
        <ele>74.28999936</ele>
        <time>2020-10-17T09:23:07.000Z</time>
      </trkpt>
      <trkpt lat="43.65232" lon="3.7908">
        <ele>74.08999936</ele>
        <time>2020-10-17T09:23:08.000Z</time>
      </trkpt>
      <trkpt lat="43.65226" lon="3.79077">
        <ele>73.88999936</ele>
        <time>2020-10-17T09:23:09.000Z</time>
      </trkpt>
      <trkpt lat="43.65221" lon="3.79076">
        <ele>73.68999936</ele>
        <time>2020-10-17T09:23:10.000Z</time>
      </trkpt>
      <trkpt lat="43.65216" lon="3.79075">
        <ele>73.48999936</ele>
        <time>2020-10-17T09:23:11.000Z</time>
      </trkpt>
      <trkpt lat="43.65211" lon="3.79073">
        <ele>73.28999936</ele>
        <time>2020-10-17T09:23:12.000Z</time>
      </trkpt>
      <trkpt lat="43.65208" lon="3.79072">
        <ele>73.08999936</ele>
        <time>2020-10-17T09:23:13.000Z</time>
      </trkpt>
      <trkpt lat="43.65205" lon="3.79072">
        <ele>72.835163823429</ele>
        <time>2020-10-17T09:23:14.000Z</time>
      </trkpt>
      <trkpt lat="43.65202" lon="3.79071">
        <ele>72.53546342792</ele>
        <time>2020-10-17T09:23:15.000Z</time>
      </trkpt>
      <trkpt lat="43.65199" lon="3.7907">
        <ele>72.235763032412</ele>
        <time>2020-10-17T09:23:16.000Z</time>
      </trkpt>
      <trkpt lat="43.65197" lon="3.79068">
        <ele>71.936062636903</ele>
        <time>2020-10-17T09:23:17.000Z</time>
      </trkpt>
      <trkpt lat="43.65198" lon="3.79065">
        <ele>71.336661845886</ele>
        <time>2020-10-17T09:23:19.000Z</time>
      </trkpt>
      <trkpt lat="43.652" lon="3.79063">
        <ele>70.737261054869</ele>
        <time>2020-10-17T09:23:21.000Z</time>
      </trkpt>
      <trkpt lat="43.65203" lon="3.79062">
        <ele>70.137860263851</ele>
        <time>2020-10-17T09:23:23.000Z</time>
      </trkpt>
      <trkpt lat="43.65204" lon="3.79061">
        <ele>69.990560756697</ele>
        <time>2020-10-17T09:23:29.000Z</time>
      </trkpt>
      <trkpt lat="43.652" lon="3.79056">
        <ele>69.046669986925</ele>
        <time>2020-10-17T09:23:47.000Z</time>
      </trkpt>
      <trkpt lat="43.65199" lon="3.79053">
        <ele>68.989540404406</ele>
        <time>2020-10-17T09:23:48.000Z</time>
      </trkpt>
      <trkpt lat="43.65196" lon="3.79052">
        <ele>68.884937753892</ele>
        <time>2020-10-17T09:23:49.000Z</time>
      </trkpt>
      <trkpt lat="43.65193" lon="3.79053">
        <ele>68.780335103377</ele>
        <time>2020-10-17T09:23:50.000Z</time>
      </trkpt>
      <trkpt lat="43.65191" lon="3.79053">
        <ele>68.675732452863</ele>
        <time>2020-10-17T09:23:51.000Z</time>
      </trkpt>
      <trkpt lat="43.65188" lon="3.79053">
        <ele>68.57112980235</ele>
        <time>2020-10-17T09:23:52.000Z</time>
      </trkpt>
      <trkpt lat="43.65185" lon="3.79053">
        <ele>68.466527151836</ele>
        <time>2020-10-17T09:23:53.000Z</time>
      </trkpt>
      <trkpt lat="43.65183" lon="3.79053">
        <ele>68.361924501321</ele>
        <time>2020-10-17T09:23:54.000Z</time>
      </trkpt>
      <trkpt lat="43.65181" lon="3.79054">
        <ele>68.257321850808</ele>
        <time>2020-10-17T09:23:55.000Z</time>
      </trkpt>
      <trkpt lat="43.65178" lon="3.79054">
        <ele>68.152719200294</ele>
        <time>2020-10-17T09:23:56.000Z</time>
      </trkpt>
      <trkpt lat="43.65176" lon="3.79053">
        <ele>68.048116549779</ele>
        <time>2020-10-17T09:23:57.000Z</time>
      </trkpt>
      <trkpt lat="43.65174" lon="3.79053">
        <ele>68</ele>
        <time>2020-10-17T09:23:58.000Z</time>
      </trkpt>
      <trkpt lat="43.65171" lon="3.79053">
        <ele>68</ele>
        <time>2020-10-17T09:23:59.000Z</time>
      </trkpt>
      <trkpt lat="43.65169" lon="3.79053">
        <ele>68</ele>
        <time>2020-10-17T09:24:00.000Z</time>
      </trkpt>
      <trkpt lat="43.65165" lon="3.79053">
        <ele>68</ele>
        <time>2020-10-17T09:24:01.000Z</time>
      </trkpt>
      <trkpt lat="43.65162" lon="3.79053">
        <ele>68</ele>
        <time>2020-10-17T09:24:02.000Z</time>
      </trkpt>
      <trkpt lat="43.65159" lon="3.79053">
        <ele>68</ele>
        <time>2020-10-17T09:24:03.000Z</time>
      </trkpt>
      <trkpt lat="43.65155" lon="3.79053">
        <ele>68</ele>
        <time>2020-10-17T09:24:04.000Z</time>
      </trkpt>
      <trkpt lat="43.65152" lon="3.79053">
        <ele>68</ele>
        <time>2020-10-17T09:24:05.000Z</time>
      </trkpt>
      <trkpt lat="43.65148" lon="3.79053">
        <ele>68</ele>
        <time>2020-10-17T09:24:06.000Z</time>
      </trkpt>
      <trkpt lat="43.65145" lon="3.79053">
        <ele>68</ele>
        <time>2020-10-17T09:24:07.000Z</time>
      </trkpt>
      <trkpt lat="43.65142" lon="3.79053">
        <ele>68</ele>
        <time>2020-10-17T09:24:08.000Z</time>
      </trkpt>
      <trkpt lat="43.65139" lon="3.79054">
        <ele>68</ele>
        <time>2020-10-17T09:24:09.000Z</time>
      </trkpt>
      <trkpt lat="43.65135" lon="3.79054">
        <ele>68</ele>
        <time>2020-10-17T09:24:10.000Z</time>
      </trkpt>
      <trkpt lat="43.65133" lon="3.79054">
        <ele>68</ele>
        <time>2020-10-17T09:24:11.000Z</time>
      </trkpt>
      <trkpt lat="43.6513" lon="3.79055">
        <ele>68</ele>
        <time>2020-10-17T09:24:12.000Z</time>
      </trkpt>
      <trkpt lat="43.65128" lon="3.79056">
        <ele>68</ele>
        <time>2020-10-17T09:24:13.000Z</time>
      </trkpt>
      <trkpt lat="43.65125" lon="3.79057">
        <ele>68</ele>
        <time>2020-10-17T09:24:14.000Z</time>
      </trkpt>
      <trkpt lat="43.65123" lon="3.79058">
        <ele>68</ele>
        <time>2020-10-17T09:24:15.000Z</time>
      </trkpt>
      <trkpt lat="43.6512" lon="3.79059">
        <ele>68</ele>
        <time>2020-10-17T09:24:16.000Z</time>
      </trkpt>
      <trkpt lat="43.65118" lon="3.79061">
        <ele>68</ele>
        <time>2020-10-17T09:24:17.000Z</time>
      </trkpt>
      <trkpt lat="43.65116" lon="3.79063">
        <ele>68</ele>
        <time>2020-10-17T09:24:18.000Z</time>
      </trkpt>
      <trkpt lat="43.65113" lon="3.79065">
        <ele>68</ele>
        <time>2020-10-17T09:24:19.000Z</time>
      </trkpt>
      <trkpt lat="43.6511" lon="3.79067">
        <ele>68</ele>
        <time>2020-10-17T09:24:20.000Z</time>
      </trkpt>
      <trkpt lat="43.65107" lon="3.79069">
        <ele>68</ele>
        <time>2020-10-17T09:24:21.000Z</time>
      </trkpt>
      <trkpt lat="43.65103" lon="3.79071">
        <ele>68</ele>
        <time>2020-10-17T09:24:22.000Z</time>
      </trkpt>
      <trkpt lat="43.651" lon="3.79073">
        <ele>68</ele>
        <time>2020-10-17T09:24:23.000Z</time>
      </trkpt>
      <trkpt lat="43.65097" lon="3.79075">
        <ele>68</ele>
        <time>2020-10-17T09:24:24.000Z</time>
      </trkpt>
      <trkpt lat="43.65093" lon="3.79077">
        <ele>68</ele>
        <time>2020-10-17T09:24:25.000Z</time>
      </trkpt>
      <trkpt lat="43.6509" lon="3.79079">
        <ele>68</ele>
        <time>2020-10-17T09:24:26.000Z</time>
      </trkpt>
      <trkpt lat="43.65088" lon="3.79082">
        <ele>68</ele>
        <time>2020-10-17T09:24:27.000Z</time>
      </trkpt>
      <trkpt lat="43.65085" lon="3.79084">
        <ele>67.94499968</ele>
        <time>2020-10-17T09:24:28.000Z</time>
      </trkpt>
      <trkpt lat="43.65082" lon="3.79085">
        <ele>67.84499968</ele>
        <time>2020-10-17T09:24:29.000Z</time>
      </trkpt>
      <trkpt lat="43.65079" lon="3.79086">
        <ele>67.74499968</ele>
        <time>2020-10-17T09:24:30.000Z</time>
      </trkpt>
      <trkpt lat="43.65076" lon="3.79086">
        <ele>67.64499968</ele>
        <time>2020-10-17T09:24:31.000Z</time>
      </trkpt>
      <trkpt lat="43.65073" lon="3.79086">
        <ele>67.54499968</ele>
        <time>2020-10-17T09:24:32.000Z</time>
      </trkpt>
      <trkpt lat="43.6507" lon="3.79086">
        <ele>67.44499968</ele>
        <time>2020-10-17T09:24:33.000Z</time>
      </trkpt>
      <trkpt lat="43.65068" lon="3.79085">
        <ele>67.34499968</ele>
        <time>2020-10-17T09:24:34.000Z</time>
      </trkpt>
      <trkpt lat="43.65066" lon="3.79084">
        <ele>67.24499968</ele>
        <time>2020-10-17T09:24:35.000Z</time>
      </trkpt>
      <trkpt lat="43.65066" lon="3.7908">
        <ele>67.14499968</ele>
        <time>2020-10-17T09:24:36.000Z</time>
      </trkpt>
      <trkpt lat="43.65067" lon="3.79076">
        <ele>67.04499968</ele>
        <time>2020-10-17T09:24:37.000Z</time>
      </trkpt>
      <trkpt lat="43.65068" lon="3.79072">
        <ele>66.839493229572</ele>
        <time>2020-10-17T09:24:38.000Z</time>
      </trkpt>
      <trkpt lat="43.6507" lon="3.79068">
        <ele>66.547664435798</ele>
        <time>2020-10-17T09:24:39.000Z</time>
      </trkpt>
      <trkpt lat="43.65072" lon="3.79064">
        <ele>66.255835642023</ele>
        <time>2020-10-17T09:24:40.000Z</time>
      </trkpt>
      <trkpt lat="43.65076" lon="3.7906">
        <ele>65.964006848249</ele>
        <time>2020-10-17T09:24:41.000Z</time>
      </trkpt>
      <trkpt lat="43.65079" lon="3.79056">
        <ele>65.672178054475</ele>
        <time>2020-10-17T09:24:42.000Z</time>
      </trkpt>
      <trkpt lat="43.65083" lon="3.79052">
        <ele>65.3803492607</ele>
        <time>2020-10-17T09:24:43.000Z</time>
      </trkpt>
      <trkpt lat="43.65086" lon="3.79047">
        <ele>65.088520466926</ele>
        <time>2020-10-17T09:24:44.000Z</time>
      </trkpt>
      <trkpt lat="43.65089" lon="3.79041">
        <ele>64.796691673152</ele>
        <time>2020-10-17T09:24:45.000Z</time>
      </trkpt>
      <trkpt lat="43.65091" lon="3.79035">
        <ele>64.504862879377</ele>
        <time>2020-10-17T09:24:46.000Z</time>
      </trkpt>
      <trkpt lat="43.65093" lon="3.79029">
        <ele>64.213034085603</ele>
        <time>2020-10-17T09:24:47.000Z</time>
      </trkpt>
      <trkpt lat="43.65095" lon="3.79022">
        <ele>64</ele>
        <time>2020-10-17T09:24:48.000Z</time>
      </trkpt>
      <trkpt lat="43.65096" lon="3.79016">
        <ele>64</ele>
        <time>2020-10-17T09:24:49.000Z</time>
      </trkpt>
      <trkpt lat="43.65096" lon="3.79009">
        <ele>64</ele>
        <time>2020-10-17T09:24:50.000Z</time>
      </trkpt>
      <trkpt lat="43.65096" lon="3.79003">
        <ele>64</ele>
        <time>2020-10-17T09:24:51.000Z</time>
      </trkpt>
      <trkpt lat="43.65095" lon="3.78996">
        <ele>64</ele>
        <time>2020-10-17T09:24:52.000Z</time>
      </trkpt>
      <trkpt lat="43.65095" lon="3.7899">
        <ele>64</ele>
        <time>2020-10-17T09:24:53.000Z</time>
      </trkpt>
      <trkpt lat="43.65094" lon="3.78984">
        <ele>64</ele>
        <time>2020-10-17T09:24:54.000Z</time>
      </trkpt>
      <trkpt lat="43.65093" lon="3.78979">
        <ele>64</ele>
        <time>2020-10-17T09:24:55.000Z</time>
      </trkpt>
      <trkpt lat="43.65092" lon="3.78974">
        <ele>64</ele>
        <time>2020-10-17T09:24:56.000Z</time>
      </trkpt>
      <trkpt lat="43.65091" lon="3.78969">
        <ele>64</ele>
        <time>2020-10-17T09:24:57.000Z</time>
      </trkpt>
      <trkpt lat="43.65089" lon="3.78965">
        <ele>64</ele>
        <time>2020-10-17T09:24:58.000Z</time>
      </trkpt>
      <trkpt lat="43.65088" lon="3.78961">
        <ele>64</ele>
        <time>2020-10-17T09:24:59.000Z</time>
      </trkpt>
      <trkpt lat="43.65087" lon="3.78957">
        <ele>64</ele>
        <time>2020-10-17T09:25:00.000Z</time>
      </trkpt>
      <trkpt lat="43.65085" lon="3.78953">
        <ele>64</ele>
        <time>2020-10-17T09:25:01.000Z</time>
      </trkpt>
      <trkpt lat="43.65084" lon="3.78949">
        <ele>64</ele>
        <time>2020-10-17T09:25:02.000Z</time>
      </trkpt>
      <trkpt lat="43.65083" lon="3.78945">
        <ele>64</ele>
        <time>2020-10-17T09:25:03.000Z</time>
      </trkpt>
      <trkpt lat="43.65082" lon="3.78941">
        <ele>64</ele>
        <time>2020-10-17T09:25:04.000Z</time>
      </trkpt>
      <trkpt lat="43.6508" lon="3.78937">
        <ele>64</ele>
        <time>2020-10-17T09:25:05.000Z</time>
      </trkpt>
      <trkpt lat="43.65079" lon="3.78933">
        <ele>64</ele>
        <time>2020-10-17T09:25:06.000Z</time>
      </trkpt>
      <trkpt lat="43.65078" lon="3.78929">
        <ele>64</ele>
        <time>2020-10-17T09:25:07.000Z</time>
      </trkpt>
      <trkpt lat="43.65076" lon="3.78924">
        <ele>64</ele>
        <time>2020-10-17T09:25:08.000Z</time>
      </trkpt>
      <trkpt lat="43.65074" lon="3.7892">
        <ele>64</ele>
        <time>2020-10-17T09:25:09.000Z</time>
      </trkpt>
      <trkpt lat="43.65073" lon="3.78916">
        <ele>64</ele>
        <time>2020-10-17T09:25:10.000Z</time>
      </trkpt>
      <trkpt lat="43.65072" lon="3.78912">
        <ele>64</ele>
        <time>2020-10-17T09:25:11.000Z</time>
      </trkpt>
      <trkpt lat="43.6507" lon="3.78909">
        <ele>64</ele>
        <time>2020-10-17T09:25:12.000Z</time>
      </trkpt>
      <trkpt lat="43.65069" lon="3.78905">
        <ele>64</ele>
        <time>2020-10-17T09:25:13.000Z</time>
      </trkpt>
      <trkpt lat="43.65068" lon="3.78902">
        <ele>64</ele>
        <time>2020-10-17T09:25:14.000Z</time>
      </trkpt>
      <trkpt lat="43.65068" lon="3.78898">
        <ele>64</ele>
        <time>2020-10-17T09:25:15.000Z</time>
      </trkpt>
      <trkpt lat="43.65067" lon="3.78895">
        <ele>64</ele>
        <time>2020-10-17T09:25:16.000Z</time>
      </trkpt>
      <trkpt lat="43.65065" lon="3.78894">
        <ele>64</ele>
        <time>2020-10-17T09:25:17.000Z</time>
      </trkpt>
      <trkpt lat="43.65063" lon="3.78897">
        <ele>63.88999936</ele>
        <time>2020-10-17T09:25:18.000Z</time>
      </trkpt>
      <trkpt lat="43.65063" lon="3.78902">
        <ele>63.68999936</ele>
        <time>2020-10-17T09:25:19.000Z</time>
      </trkpt>
      <trkpt lat="43.65064" lon="3.78908">
        <ele>63.48999936</ele>
        <time>2020-10-17T09:25:20.000Z</time>
      </trkpt>
      <trkpt lat="43.65067" lon="3.78913">
        <ele>63.28999936</ele>
        <time>2020-10-17T09:25:21.000Z</time>
      </trkpt>
      <trkpt lat="43.6507" lon="3.78918">
        <ele>63.08999936</ele>
        <time>2020-10-17T09:25:22.000Z</time>
      </trkpt>
      <trkpt lat="43.65071" lon="3.78922">
        <ele>62.88999936</ele>
        <time>2020-10-17T09:25:23.000Z</time>
      </trkpt>
      <trkpt lat="43.65071" lon="3.78925">
        <ele>62.68999936</ele>
        <time>2020-10-17T09:25:24.000Z</time>
      </trkpt>
      <trkpt lat="43.65071" lon="3.78929">
        <ele>62.48999936</ele>
        <time>2020-10-17T09:25:25.000Z</time>
      </trkpt>
      <trkpt lat="43.65071" lon="3.78933">
        <ele>62.28999936</ele>
        <time>2020-10-17T09:25:26.000Z</time>
      </trkpt>
      <trkpt lat="43.65072" lon="3.78937">
        <ele>62.08999936</ele>
        <time>2020-10-17T09:25:27.000Z</time>
      </trkpt>
      <trkpt lat="43.65073" lon="3.7894">
        <ele>62</ele>
        <time>2020-10-17T09:25:28.000Z</time>
      </trkpt>
      <trkpt lat="43.65073" lon="3.78944">
        <ele>62</ele>
        <time>2020-10-17T09:25:29.000Z</time>
      </trkpt>
      <trkpt lat="43.65073" lon="3.78948">
        <ele>62</ele>
        <time>2020-10-17T09:25:30.000Z</time>
      </trkpt>
      <trkpt lat="43.65072" lon="3.78952">
        <ele>62</ele>
        <time>2020-10-17T09:25:31.000Z</time>
      </trkpt>
      <trkpt lat="43.6507" lon="3.78955">
        <ele>62</ele>
        <time>2020-10-17T09:25:32.000Z</time>
      </trkpt>
      <trkpt lat="43.65069" lon="3.78958">
        <ele>62</ele>
        <time>2020-10-17T09:25:33.000Z</time>
      </trkpt>
      <trkpt lat="43.65067" lon="3.78961">
        <ele>62</ele>
        <time>2020-10-17T09:25:34.000Z</time>
      </trkpt>
      <trkpt lat="43.65065" lon="3.78964">
        <ele>62</ele>
        <time>2020-10-17T09:25:35.000Z</time>
      </trkpt>
      <trkpt lat="43.65063" lon="3.78966">
        <ele>62</ele>
        <time>2020-10-17T09:25:36.000Z</time>
      </trkpt>
      <trkpt lat="43.6506" lon="3.78969">
        <ele>62</ele>
        <time>2020-10-17T09:25:37.000Z</time>
      </trkpt>
      <trkpt lat="43.65058" lon="3.78972">
        <ele>62.05500032</ele>
        <time>2020-10-17T09:25:38.000Z</time>
      </trkpt>
      <trkpt lat="43.65055" lon="3.78975">
        <ele>62.15500032</ele>
        <time>2020-10-17T09:25:39.000Z</time>
      </trkpt>
      <trkpt lat="43.65052" lon="3.78977">
        <ele>62.25500032</ele>
        <time>2020-10-17T09:25:40.000Z</time>
      </trkpt>
      <trkpt lat="43.65049" lon="3.78979">
        <ele>62.35500032</ele>
        <time>2020-10-17T09:25:41.000Z</time>
      </trkpt>
      <trkpt lat="43.65046" lon="3.78981">
        <ele>62.45500032</ele>
        <time>2020-10-17T09:25:42.000Z</time>
      </trkpt>
      <trkpt lat="43.65042" lon="3.78982">
        <ele>62.55500032</ele>
        <time>2020-10-17T09:25:43.000Z</time>
      </trkpt>
      <trkpt lat="43.65039" lon="3.78984">
        <ele>62.65500032</ele>
        <time>2020-10-17T09:25:44.000Z</time>
      </trkpt>
      <trkpt lat="43.65036" lon="3.78986">
        <ele>62.75500032</ele>
        <time>2020-10-17T09:25:45.000Z</time>
      </trkpt>
      <trkpt lat="43.65033" lon="3.78988">
        <ele>62.85500032</ele>
        <time>2020-10-17T09:25:46.000Z</time>
      </trkpt>
      <trkpt lat="43.65029" lon="3.7899">
        <ele>62.95500032</ele>
        <time>2020-10-17T09:25:47.000Z</time>
      </trkpt>
      <trkpt lat="43.65025" lon="3.78991">
        <ele>63</ele>
        <time>2020-10-17T09:25:48.000Z</time>
      </trkpt>
      <trkpt lat="43.65022" lon="3.78992">
        <ele>63</ele>
        <time>2020-10-17T09:25:49.000Z</time>
      </trkpt>
      <trkpt lat="43.65018" lon="3.78994">
        <ele>63</ele>
        <time>2020-10-17T09:25:50.000Z</time>
      </trkpt>
      <trkpt lat="43.65015" lon="3.78996">
        <ele>63</ele>
        <time>2020-10-17T09:25:51.000Z</time>
      </trkpt>
      <trkpt lat="43.65012" lon="3.78999">
        <ele>63</ele>
        <time>2020-10-17T09:25:52.000Z</time>
      </trkpt>
      <trkpt lat="43.65009" lon="3.79001">
        <ele>63</ele>
        <time>2020-10-17T09:25:53.000Z</time>
      </trkpt>
      <trkpt lat="43.65006" lon="3.79003">
        <ele>63</ele>
        <time>2020-10-17T09:25:54.000Z</time>
      </trkpt>
      <trkpt lat="43.65003" lon="3.79005">
        <ele>63</ele>
        <time>2020-10-17T09:25:55.000Z</time>
      </trkpt>
      <trkpt lat="43.65001" lon="3.79006">
        <ele>63</ele>
        <time>2020-10-17T09:25:56.000Z</time>
      </trkpt>
      <trkpt lat="43.64998" lon="3.79008">
        <ele>63</ele>
        <time>2020-10-17T09:25:57.000Z</time>
      </trkpt>
      <trkpt lat="43.64995" lon="3.79011">
        <ele>63</ele>
        <time>2020-10-17T09:25:58.000Z</time>
      </trkpt>
      <trkpt lat="43.64992" lon="3.79012">
        <ele>63</ele>
        <time>2020-10-17T09:25:59.000Z</time>
      </trkpt>
      <trkpt lat="43.64988" lon="3.79012">
        <ele>63</ele>
        <time>2020-10-17T09:26:00.000Z</time>
      </trkpt>
      <trkpt lat="43.64984" lon="3.79012">
        <ele>63</ele>
        <time>2020-10-17T09:26:01.000Z</time>
      </trkpt>
      <trkpt lat="43.6498" lon="3.79012">
        <ele>63</ele>
        <time>2020-10-17T09:26:02.000Z</time>
      </trkpt>
      <trkpt lat="43.64978" lon="3.7901">
        <ele>63</ele>
        <time>2020-10-17T09:26:03.000Z</time>
      </trkpt>
      <trkpt lat="43.64976" lon="3.79008">
        <ele>63</ele>
        <time>2020-10-17T09:26:04.000Z</time>
      </trkpt>
      <trkpt lat="43.64975" lon="3.79004">
        <ele>63</ele>
        <time>2020-10-17T09:26:05.000Z</time>
      </trkpt>
      <trkpt lat="43.64975" lon="3.79001">
        <ele>63</ele>
        <time>2020-10-17T09:26:06.000Z</time>
      </trkpt>
      <trkpt lat="43.64974" lon="3.78998">
        <ele>63.05500032</ele>
        <time>2020-10-17T09:26:08.000Z</time>
      </trkpt>
      <trkpt lat="43.64971" lon="3.78999">
        <ele>63.25500032</ele>
        <time>2020-10-17T09:26:10.000Z</time>
      </trkpt>
      <trkpt lat="43.64969" lon="3.79">
        <ele>63.35500032</ele>
        <time>2020-10-17T09:26:11.000Z</time>
      </trkpt>
      <trkpt lat="43.64967" lon="3.79001">
        <ele>63.45500032</ele>
        <time>2020-10-17T09:26:12.000Z</time>
      </trkpt>
      <trkpt lat="43.64964" lon="3.79002">
        <ele>63.55500032</ele>
        <time>2020-10-17T09:26:13.000Z</time>
      </trkpt>
      <trkpt lat="43.64961" lon="3.79002">
        <ele>63.65500032</ele>
        <time>2020-10-17T09:26:14.000Z</time>
      </trkpt>
      <trkpt lat="43.64958" lon="3.79002">
        <ele>63.75500032</ele>
        <time>2020-10-17T09:26:15.000Z</time>
      </trkpt>
      <trkpt lat="43.64956" lon="3.79002">
        <ele>63.85500032</ele>
        <time>2020-10-17T09:26:16.000Z</time>
      </trkpt>
      <trkpt lat="43.64953" lon="3.79003">
        <ele>63.95500032</ele>
        <time>2020-10-17T09:26:17.000Z</time>
      </trkpt>
      <trkpt lat="43.64952" lon="3.79004">
        <ele>64</ele>
        <time>2020-10-17T09:26:18.000Z</time>
      </trkpt>
      <trkpt lat="43.64949" lon="3.79006">
        <ele>64</ele>
        <time>2020-10-17T09:26:19.000Z</time>
      </trkpt>
      <trkpt lat="43.64947" lon="3.79008">
        <ele>64</ele>
        <time>2020-10-17T09:26:20.000Z</time>
      </trkpt>
      <trkpt lat="43.64945" lon="3.79009">
        <ele>64</ele>
        <time>2020-10-17T09:26:21.000Z</time>
      </trkpt>
      <trkpt lat="43.64943" lon="3.79012">
        <ele>64</ele>
        <time>2020-10-17T09:26:22.000Z</time>
      </trkpt>
      <trkpt lat="43.6494" lon="3.79015">
        <ele>64</ele>
        <time>2020-10-17T09:26:23.000Z</time>
      </trkpt>
      <trkpt lat="43.64938" lon="3.79017">
        <ele>64</ele>
        <time>2020-10-17T09:26:24.000Z</time>
      </trkpt>
      <trkpt lat="43.64936" lon="3.7902">
        <ele>64</ele>
        <time>2020-10-17T09:26:25.000Z</time>
      </trkpt>
      <trkpt lat="43.64933" lon="3.79022">
        <ele>64</ele>
        <time>2020-10-17T09:26:26.000Z</time>
      </trkpt>
      <trkpt lat="43.64931" lon="3.79025">
        <ele>64</ele>
        <time>2020-10-17T09:26:27.000Z</time>
      </trkpt>
      <trkpt lat="43.64929" lon="3.79027">
        <ele>64</ele>
        <time>2020-10-17T09:26:28.000Z</time>
      </trkpt>
      <trkpt lat="43.64928" lon="3.79029">
        <ele>64</ele>
        <time>2020-10-17T09:26:29.000Z</time>
      </trkpt>
      <trkpt lat="43.64926" lon="3.79031">
        <ele>64</ele>
        <time>2020-10-17T09:26:30.000Z</time>
      </trkpt>
      <trkpt lat="43.64924" lon="3.79033">
        <ele>64</ele>
        <time>2020-10-17T09:26:31.000Z</time>
      </trkpt>
      <trkpt lat="43.64922" lon="3.79034">
        <ele>64</ele>
        <time>2020-10-17T09:26:32.000Z</time>
      </trkpt>
      <trkpt lat="43.6492" lon="3.79036">
        <ele>64</ele>
        <time>2020-10-17T09:26:33.000Z</time>
      </trkpt>
      <trkpt lat="43.64919" lon="3.79037">
        <ele>64</ele>
        <time>2020-10-17T09:26:34.000Z</time>
      </trkpt>
      <trkpt lat="43.64917" lon="3.79038">
        <ele>64</ele>
        <time>2020-10-17T09:26:35.000Z</time>
      </trkpt>
      <trkpt lat="43.64915" lon="3.79038">
        <ele>64</ele>
        <time>2020-10-17T09:26:36.000Z</time>
      </trkpt>
      <trkpt lat="43.64912" lon="3.79039">
        <ele>64.05500032</ele>
        <time>2020-10-17T09:26:38.000Z</time>
      </trkpt>
      <trkpt lat="43.6491" lon="3.7904">
        <ele>64.25500032</ele>
        <time>2020-10-17T09:26:40.000Z</time>
      </trkpt>
      <trkpt lat="43.64908" lon="3.79042">
        <ele>64.45500032</ele>
        <time>2020-10-17T09:26:42.000Z</time>
      </trkpt>
      <trkpt lat="43.64905" lon="3.79044">
        <ele>64.65500032</ele>
        <time>2020-10-17T09:26:44.000Z</time>
      </trkpt>
      <trkpt lat="43.64902" lon="3.79045">
        <ele>64.85500032</ele>
        <time>2020-10-17T09:26:46.000Z</time>
      </trkpt>
      <trkpt lat="43.649" lon="3.79047">
        <ele>65</ele>
        <time>2020-10-17T09:26:48.000Z</time>
      </trkpt>
      <trkpt lat="43.64898" lon="3.79048">
        <ele>65</ele>
        <time>2020-10-17T09:26:50.000Z</time>
      </trkpt>
      <trkpt lat="43.64896" lon="3.7905">
        <ele>65</ele>
        <time>2020-10-17T09:26:52.000Z</time>
      </trkpt>
      <trkpt lat="43.64896" lon="3.79051">
        <ele>65</ele>
        <time>2020-10-17T09:26:59.000Z</time>
      </trkpt>
      <trkpt lat="43.64891" lon="3.79055">
        <ele>65</ele>
        <time>2020-10-17T09:27:03.000Z</time>
      </trkpt>
      <trkpt lat="43.64889" lon="3.79057">
        <ele>64.96232209357</ele>
        <time>2020-10-17T09:27:04.000Z</time>
      </trkpt>
      <trkpt lat="43.64886" lon="3.79059">
        <ele>64.860489033313</ele>
        <time>2020-10-17T09:27:05.000Z</time>
      </trkpt>
      <trkpt lat="43.64883" lon="3.79061">
        <ele>64.758655973055</ele>
        <time>2020-10-17T09:27:06.000Z</time>
      </trkpt>
      <trkpt lat="43.64879" lon="3.79064">
        <ele>64.656822912797</ele>
        <time>2020-10-17T09:27:07.000Z</time>
      </trkpt>
      <trkpt lat="43.64875" lon="3.79068">
        <ele>64.554989852539</ele>
        <time>2020-10-17T09:27:08.000Z</time>
      </trkpt>
      <trkpt lat="43.64872" lon="3.79071">
        <ele>64.453156792281</ele>
        <time>2020-10-17T09:27:09.000Z</time>
      </trkpt>
      <trkpt lat="43.64869" lon="3.79073">
        <ele>64.351323732024</ele>
        <time>2020-10-17T09:27:10.000Z</time>
      </trkpt>
      <trkpt lat="43.64868" lon="3.79075">
        <ele>64.249490671766</ele>
        <time>2020-10-17T09:27:11.000Z</time>
      </trkpt>
      <trkpt lat="43.64865" lon="3.79076">
        <ele>64.147657611508</ele>
        <time>2020-10-17T09:27:12.000Z</time>
      </trkpt>
      <trkpt lat="43.64863" lon="3.79078">
        <ele>64.04582455125</ele>
        <time>2020-10-17T09:27:13.000Z</time>
      </trkpt>
      <trkpt lat="43.6486" lon="3.79079">
        <ele>64.107004513619</ele>
        <time>2020-10-17T09:27:14.000Z</time>
      </trkpt>
      <trkpt lat="43.64857" lon="3.7908">
        <ele>64.301557042802</ele>
        <time>2020-10-17T09:27:15.000Z</time>
      </trkpt>
      <trkpt lat="43.64855" lon="3.79081">
        <ele>64.496109571984</ele>
        <time>2020-10-17T09:27:16.000Z</time>
      </trkpt>
      <trkpt lat="43.64853" lon="3.79082">
        <ele>64.690662101167</ele>
        <time>2020-10-17T09:27:17.000Z</time>
      </trkpt>
      <trkpt lat="43.64851" lon="3.79083">
        <ele>64.88521463035</ele>
        <time>2020-10-17T09:27:18.000Z</time>
      </trkpt>
      <trkpt lat="43.64849" lon="3.79084">
        <ele>65.079767159533</ele>
        <time>2020-10-17T09:27:19.000Z</time>
      </trkpt>
      <trkpt lat="43.64846" lon="3.79086">
        <ele>65.274319688716</ele>
        <time>2020-10-17T09:27:20.000Z</time>
      </trkpt>
      <trkpt lat="43.64843" lon="3.79087">
        <ele>65.468872217899</ele>
        <time>2020-10-17T09:27:21.000Z</time>
      </trkpt>
      <trkpt lat="43.64841" lon="3.79089">
        <ele>65.663424747082</ele>
        <time>2020-10-17T09:27:22.000Z</time>
      </trkpt>
      <trkpt lat="43.6484" lon="3.79092">
        <ele>65.857977276265</ele>
        <time>2020-10-17T09:27:23.000Z</time>
      </trkpt>
      <trkpt lat="43.64839" lon="3.79095">
        <ele>66</ele>
        <time>2020-10-17T09:27:24.000Z</time>
      </trkpt>
      <trkpt lat="43.64837" lon="3.79098">
        <ele>66</ele>
        <time>2020-10-17T09:27:25.000Z</time>
      </trkpt>
      <trkpt lat="43.64835" lon="3.791">
        <ele>66</ele>
        <time>2020-10-17T09:27:26.000Z</time>
      </trkpt>
      <trkpt lat="43.64834" lon="3.79103">
        <ele>66</ele>
        <time>2020-10-17T09:27:27.000Z</time>
      </trkpt>
      <trkpt lat="43.64831" lon="3.79107">
        <ele>66</ele>
        <time>2020-10-17T09:27:28.000Z</time>
      </trkpt>
      <trkpt lat="43.64829" lon="3.79111">
        <ele>66</ele>
        <time>2020-10-17T09:27:29.000Z</time>
      </trkpt>
      <trkpt lat="43.64825" lon="3.79116">
        <ele>66</ele>
        <time>2020-10-17T09:27:30.000Z</time>
      </trkpt>
      <trkpt lat="43.64822" lon="3.7912">
        <ele>66</ele>
        <time>2020-10-17T09:27:31.000Z</time>
      </trkpt>
      <trkpt lat="43.64818" lon="3.79123">
        <ele>66</ele>
        <time>2020-10-17T09:27:32.000Z</time>
      </trkpt>
      <trkpt lat="43.64814" lon="3.79125">
        <ele>66</ele>
        <time>2020-10-17T09:27:33.000Z</time>
      </trkpt>
      <trkpt lat="43.64811" lon="3.79127">
        <ele>66.026775886411</ele>
        <time>2020-10-17T09:27:34.000Z</time>
      </trkpt>
      <trkpt lat="43.64807" lon="3.79129">
        <ele>66.129762599971</ele>
        <time>2020-10-17T09:27:35.000Z</time>
      </trkpt>
      <trkpt lat="43.64804" lon="3.79131">
        <ele>66.232749313532</ele>
        <time>2020-10-17T09:27:36.000Z</time>
      </trkpt>
      <trkpt lat="43.64801" lon="3.79133">
        <ele>66.335736027092</ele>
        <time>2020-10-17T09:27:37.000Z</time>
      </trkpt>
      <trkpt lat="43.64798" lon="3.79135">
        <ele>66.438722740653</ele>
        <time>2020-10-17T09:27:38.000Z</time>
      </trkpt>
      <trkpt lat="43.64794" lon="3.79138">
        <ele>66.541709454213</ele>
        <time>2020-10-17T09:27:39.000Z</time>
      </trkpt>
      <trkpt lat="43.64791" lon="3.79139">
        <ele>66.644696167774</ele>
        <time>2020-10-17T09:27:40.000Z</time>
      </trkpt>
      <trkpt lat="43.64789" lon="3.7914">
        <ele>66.747682881334</ele>
        <time>2020-10-17T09:27:41.000Z</time>
      </trkpt>
      <trkpt lat="43.64787" lon="3.79142">
        <ele>66.850669594895</ele>
        <time>2020-10-17T09:27:42.000Z</time>
      </trkpt>
      <trkpt lat="43.64785" lon="3.79144">
        <ele>66.953656308455</ele>
        <time>2020-10-17T09:27:43.000Z</time>
      </trkpt>
      <trkpt lat="43.64782" lon="3.79145">
        <ele>67.11000064</ele>
        <time>2020-10-17T09:27:44.000Z</time>
      </trkpt>
      <trkpt lat="43.64778" lon="3.79147">
        <ele>67.31000064</ele>
        <time>2020-10-17T09:27:45.000Z</time>
      </trkpt>
      <trkpt lat="43.64775" lon="3.79148">
        <ele>67.51000064</ele>
        <time>2020-10-17T09:27:46.000Z</time>
      </trkpt>
      <trkpt lat="43.64772" lon="3.79149">
        <ele>67.71000064</ele>
        <time>2020-10-17T09:27:47.000Z</time>
      </trkpt>
      <trkpt lat="43.6477" lon="3.79148">
        <ele>67.91000064</ele>
        <time>2020-10-17T09:27:48.000Z</time>
      </trkpt>
      <trkpt lat="43.64768" lon="3.79148">
        <ele>68.11000064</ele>
        <time>2020-10-17T09:27:49.000Z</time>
      </trkpt>
      <trkpt lat="43.64765" lon="3.79151">
        <ele>68.51000064</ele>
        <time>2020-10-17T09:27:51.000Z</time>
      </trkpt>
      <trkpt lat="43.64765" lon="3.79153">
        <ele>68</ele>
        <time>2020-10-17T09:27:59.000Z</time>
      </trkpt>
      <trkpt lat="43.64759" lon="3.7916">
        <ele>68</ele>
        <time>2020-10-17T09:28:03.000Z</time>
      </trkpt>
      <trkpt lat="43.64758" lon="3.79161">
        <ele>68</ele>
        <time>2020-10-17T09:28:04.000Z</time>
      </trkpt>
      <trkpt lat="43.64757" lon="3.79163">
        <ele>68</ele>
        <time>2020-10-17T09:28:05.000Z</time>
      </trkpt>
      <trkpt lat="43.64754" lon="3.79166">
        <ele>68</ele>
        <time>2020-10-17T09:28:06.000Z</time>
      </trkpt>
      <trkpt lat="43.6475" lon="3.79169">
        <ele>68</ele>
        <time>2020-10-17T09:28:07.000Z</time>
      </trkpt>
      <trkpt lat="43.64746" lon="3.79172">
        <ele>68</ele>
        <time>2020-10-17T09:28:08.000Z</time>
      </trkpt>
      <trkpt lat="43.64742" lon="3.79175">
        <ele>68</ele>
        <time>2020-10-17T09:28:09.000Z</time>
      </trkpt>
      <trkpt lat="43.64739" lon="3.79179">
        <ele>68</ele>
        <time>2020-10-17T09:28:10.000Z</time>
      </trkpt>
      <trkpt lat="43.64735" lon="3.79183">
        <ele>68</ele>
        <time>2020-10-17T09:28:11.000Z</time>
      </trkpt>
      <trkpt lat="43.64732" lon="3.79186">
        <ele>68</ele>
        <time>2020-10-17T09:28:12.000Z</time>
      </trkpt>
      <trkpt lat="43.64728" lon="3.79189">
        <ele>68</ele>
        <time>2020-10-17T09:28:13.000Z</time>
      </trkpt>
      <trkpt lat="43.64724" lon="3.79191">
        <ele>68.060373546301</ele>
        <time>2020-10-17T09:28:14.000Z</time>
      </trkpt>
      <trkpt lat="43.64722" lon="3.79192">
        <ele>68.170142991827</ele>
        <time>2020-10-17T09:28:15.000Z</time>
      </trkpt>
      <trkpt lat="43.64721" lon="3.79193">
        <ele>68.938529110506</ele>
        <time>2020-10-17T09:28:22.000Z</time>
      </trkpt>
      <trkpt lat="43.64718" lon="3.79199">
        <ele>70.957506323092</ele>
        <time>2020-10-17T09:28:51.000Z</time>
      </trkpt>
      <trkpt lat="43.64715" lon="3.792">
        <ele>71.140387177087</ele>
        <time>2020-10-17T09:28:53.000Z</time>
      </trkpt>
      <trkpt lat="43.64713" lon="3.79201">
        <ele>71.242116543767</ele>
        <time>2020-10-17T09:28:54.000Z</time>
      </trkpt>
      <trkpt lat="43.64711" lon="3.79201">
        <ele>71.343845910447</ele>
        <time>2020-10-17T09:28:55.000Z</time>
      </trkpt>
      <trkpt lat="43.64709" lon="3.79202">
        <ele>71.445575277127</ele>
        <time>2020-10-17T09:28:56.000Z</time>
      </trkpt>
      <trkpt lat="43.64707" lon="3.79203">
        <ele>71.547304643807</ele>
        <time>2020-10-17T09:28:57.000Z</time>
      </trkpt>
      <trkpt lat="43.64704" lon="3.79204">
        <ele>71.649034010487</ele>
        <time>2020-10-17T09:28:58.000Z</time>
      </trkpt>
      <trkpt lat="43.64702" lon="3.79205">
        <ele>71.750763377168</ele>
        <time>2020-10-17T09:28:59.000Z</time>
      </trkpt>
      <trkpt lat="43.647" lon="3.79206">
        <ele>71.852492743848</ele>
        <time>2020-10-17T09:29:00.000Z</time>
      </trkpt>
      <trkpt lat="43.64699" lon="3.79207">
        <ele>71.954222110528</ele>
        <time>2020-10-17T09:29:01.000Z</time>
      </trkpt>
      <trkpt lat="43.64698" lon="3.79211">
        <ele>71.698442957198</ele>
        <time>2020-10-17T09:29:03.000Z</time>
      </trkpt>
      <trkpt lat="43.64699" lon="3.79214">
        <ele>71.503890428016</ele>
        <time>2020-10-17T09:29:04.000Z</time>
      </trkpt>
      <trkpt lat="43.64699" lon="3.79217">
        <ele>71.309337898833</ele>
        <time>2020-10-17T09:29:05.000Z</time>
      </trkpt>
      <trkpt lat="43.64699" lon="3.79221">
        <ele>71.11478536965</ele>
        <time>2020-10-17T09:29:06.000Z</time>
      </trkpt>
      <trkpt lat="43.64698" lon="3.79225">
        <ele>70.920232840467</ele>
        <time>2020-10-17T09:29:07.000Z</time>
      </trkpt>
      <trkpt lat="43.64697" lon="3.79229">
        <ele>70.725680311284</ele>
        <time>2020-10-17T09:29:08.000Z</time>
      </trkpt>
      <trkpt lat="43.64697" lon="3.79233">
        <ele>70.531127782101</ele>
        <time>2020-10-17T09:29:09.000Z</time>
      </trkpt>
      <trkpt lat="43.64697" lon="3.79238">
        <ele>70.336575252918</ele>
        <time>2020-10-17T09:29:10.000Z</time>
      </trkpt>
      <trkpt lat="43.64697" lon="3.79243">
        <ele>70.142022723735</ele>
        <time>2020-10-17T09:29:11.000Z</time>
      </trkpt>
      <trkpt lat="43.64697" lon="3.79247">
        <ele>69.916665679012</ele>
        <time>2020-10-17T09:29:12.000Z</time>
      </trkpt>
      <trkpt lat="43.64699" lon="3.79252">
        <ele>69.608023703704</ele>
        <time>2020-10-17T09:29:13.000Z</time>
      </trkpt>
      <trkpt lat="43.647" lon="3.79256">
        <ele>69.299381728395</ele>
        <time>2020-10-17T09:29:14.000Z</time>
      </trkpt>
      <trkpt lat="43.64703" lon="3.79258">
        <ele>68.990739753086</ele>
        <time>2020-10-17T09:29:15.000Z</time>
      </trkpt>
      <trkpt lat="43.64705" lon="3.79261">
        <ele>68.682097777778</ele>
        <time>2020-10-17T09:29:16.000Z</time>
      </trkpt>
      <trkpt lat="43.64706" lon="3.79264">
        <ele>68.373455802469</ele>
        <time>2020-10-17T09:29:17.000Z</time>
      </trkpt>
      <trkpt lat="43.64707" lon="3.79268">
        <ele>68.064813827161</ele>
        <time>2020-10-17T09:29:18.000Z</time>
      </trkpt>
      <trkpt lat="43.64706" lon="3.79271">
        <ele>67.756171851852</ele>
        <time>2020-10-17T09:29:19.000Z</time>
      </trkpt>
      <trkpt lat="43.64704" lon="3.79274">
        <ele>67.447529876543</ele>
        <time>2020-10-17T09:29:20.000Z</time>
      </trkpt>
      <trkpt lat="43.64703" lon="3.79277">
        <ele>67.138887901235</ele>
        <time>2020-10-17T09:29:21.000Z</time>
      </trkpt>
      <trkpt lat="43.64701" lon="3.7928">
        <ele>66.946497743191</ele>
        <time>2020-10-17T09:29:22.000Z</time>
      </trkpt>
      <trkpt lat="43.64699" lon="3.79282">
        <ele>66.849221478599</ele>
        <time>2020-10-17T09:29:23.000Z</time>
      </trkpt>
      <trkpt lat="43.64697" lon="3.79284">
        <ele>66.751945214008</ele>
        <time>2020-10-17T09:29:24.000Z</time>
      </trkpt>
      <trkpt lat="43.64694" lon="3.79285">
        <ele>66.654668949416</ele>
        <time>2020-10-17T09:29:25.000Z</time>
      </trkpt>
      <trkpt lat="43.64692" lon="3.79286">
        <ele>66.557392684825</ele>
        <time>2020-10-17T09:29:26.000Z</time>
      </trkpt>
      <trkpt lat="43.64689" lon="3.79286">
        <ele>66.460116420234</ele>
        <time>2020-10-17T09:29:27.000Z</time>
      </trkpt>
      <trkpt lat="43.64686" lon="3.79287">
        <ele>66.362840155642</ele>
        <time>2020-10-17T09:29:28.000Z</time>
      </trkpt>
      <trkpt lat="43.64684" lon="3.79287">
        <ele>66.265563891051</ele>
        <time>2020-10-17T09:29:29.000Z</time>
      </trkpt>
      <trkpt lat="43.64681" lon="3.79288">
        <ele>66.168287626459</ele>
        <time>2020-10-17T09:29:30.000Z</time>
      </trkpt>
      <trkpt lat="43.64679" lon="3.79289">
        <ele>66.071011361868</ele>
        <time>2020-10-17T09:29:31.000Z</time>
      </trkpt>
      <trkpt lat="43.64676" lon="3.7929">
        <ele>66</ele>
        <time>2020-10-17T09:29:32.000Z</time>
      </trkpt>
      <trkpt lat="43.64674" lon="3.79291">
        <ele>66</ele>
        <time>2020-10-17T09:29:33.000Z</time>
      </trkpt>
      <trkpt lat="43.64672" lon="3.79294">
        <ele>66</ele>
        <time>2020-10-17T09:29:34.000Z</time>
      </trkpt>
      <trkpt lat="43.64669" lon="3.79296">
        <ele>66</ele>
        <time>2020-10-17T09:29:35.000Z</time>
      </trkpt>
      <trkpt lat="43.64667" lon="3.79299">
        <ele>66</ele>
        <time>2020-10-17T09:29:36.000Z</time>
      </trkpt>
      <trkpt lat="43.64665" lon="3.79302">
        <ele>66</ele>
        <time>2020-10-17T09:29:37.000Z</time>
      </trkpt>
      <trkpt lat="43.64664" lon="3.79304">
        <ele>66</ele>
        <time>2020-10-17T09:29:38.000Z</time>
      </trkpt>
      <trkpt lat="43.64664" lon="3.79308">
        <ele>66</ele>
        <time>2020-10-17T09:29:39.000Z</time>
      </trkpt>
      <trkpt lat="43.64663" lon="3.79311">
        <ele>66</ele>
        <time>2020-10-17T09:29:40.000Z</time>
      </trkpt>
      <trkpt lat="43.64662" lon="3.79314">
        <ele>66</ele>
        <time>2020-10-17T09:29:41.000Z</time>
      </trkpt>
      <trkpt lat="43.64661" lon="3.79318">
        <ele>65.94499968</ele>
        <time>2020-10-17T09:29:42.000Z</time>
      </trkpt>
      <trkpt lat="43.6466" lon="3.79322">
        <ele>65.84499968</ele>
        <time>2020-10-17T09:29:43.000Z</time>
      </trkpt>
      <trkpt lat="43.64659" lon="3.79327">
        <ele>65.74499968</ele>
        <time>2020-10-17T09:29:44.000Z</time>
      </trkpt>
      <trkpt lat="43.64658" lon="3.79331">
        <ele>65.64499968</ele>
        <time>2020-10-17T09:29:45.000Z</time>
      </trkpt>
      <trkpt lat="43.64658" lon="3.79335">
        <ele>65.54499968</ele>
        <time>2020-10-17T09:29:46.000Z</time>
      </trkpt>
      <trkpt lat="43.64657" lon="3.79341">
        <ele>65.44499968</ele>
        <time>2020-10-17T09:29:47.000Z</time>
      </trkpt>
      <trkpt lat="43.64655" lon="3.79348">
        <ele>65.34499968</ele>
        <time>2020-10-17T09:29:48.000Z</time>
      </trkpt>
      <trkpt lat="43.64653" lon="3.79356">
        <ele>65.24499968</ele>
        <time>2020-10-17T09:29:49.000Z</time>
      </trkpt>
      <trkpt lat="43.64652" lon="3.79364">
        <ele>65.14499968</ele>
        <time>2020-10-17T09:29:50.000Z</time>
      </trkpt>
      <trkpt lat="43.6465" lon="3.79372">
        <ele>65.04499968</ele>
        <time>2020-10-17T09:29:51.000Z</time>
      </trkpt>
      <trkpt lat="43.64648" lon="3.7938">
        <ele>64.94499968</ele>
        <time>2020-10-17T09:29:52.000Z</time>
      </trkpt>
      <trkpt lat="43.64645" lon="3.79388">
        <ele>64.84499968</ele>
        <time>2020-10-17T09:29:53.000Z</time>
      </trkpt>
      <trkpt lat="43.64641" lon="3.79395">
        <ele>64.74499968</ele>
        <time>2020-10-17T09:29:54.000Z</time>
      </trkpt>
      <trkpt lat="43.64638" lon="3.79403">
        <ele>64.64499968</ele>
        <time>2020-10-17T09:29:55.000Z</time>
      </trkpt>
      <trkpt lat="43.64633" lon="3.79409">
        <ele>64.54499968</ele>
        <time>2020-10-17T09:29:56.000Z</time>
      </trkpt>
      <trkpt lat="43.64629" lon="3.79415">
        <ele>64.44499968</ele>
        <time>2020-10-17T09:29:57.000Z</time>
      </trkpt>
      <trkpt lat="43.64625" lon="3.79422">
        <ele>64.34499968</ele>
        <time>2020-10-17T09:29:58.000Z</time>
      </trkpt>
      <trkpt lat="43.64621" lon="3.79427">
        <ele>64.24499968</ele>
        <time>2020-10-17T09:29:59.000Z</time>
      </trkpt>
      <trkpt lat="43.64616" lon="3.79432">
        <ele>64.14499968</ele>
        <time>2020-10-17T09:30:00.000Z</time>
      </trkpt>
      <trkpt lat="43.64613" lon="3.79438">
        <ele>64.04499968</ele>
        <time>2020-10-17T09:30:01.000Z</time>
      </trkpt>
      <trkpt lat="43.64608" lon="3.79442">
        <ele>63.88999936</ele>
        <time>2020-10-17T09:30:02.000Z</time>
      </trkpt>
      <trkpt lat="43.64604" lon="3.79444">
        <ele>63.68999936</ele>
        <time>2020-10-17T09:30:03.000Z</time>
      </trkpt>
      <trkpt lat="43.64601" lon="3.79447">
        <ele>63.48999936</ele>
        <time>2020-10-17T09:30:04.000Z</time>
      </trkpt>
      <trkpt lat="43.64599" lon="3.7945">
        <ele>63.28999936</ele>
        <time>2020-10-17T09:30:05.000Z</time>
      </trkpt>
      <trkpt lat="43.64597" lon="3.79452">
        <ele>63.08999936</ele>
        <time>2020-10-17T09:30:06.000Z</time>
      </trkpt>
      <trkpt lat="43.64594" lon="3.79454">
        <ele>62.88999936</ele>
        <time>2020-10-17T09:30:07.000Z</time>
      </trkpt>
      <trkpt lat="43.64592" lon="3.79454">
        <ele>62.68999936</ele>
        <time>2020-10-17T09:30:08.000Z</time>
      </trkpt>
      <trkpt lat="43.6459" lon="3.79456">
        <ele>62.28999936</ele>
        <time>2020-10-17T09:30:10.000Z</time>
      </trkpt>
      <trkpt lat="43.6459" lon="3.79458">
        <ele>61.94499968</ele>
        <time>2020-10-17T09:30:12.000Z</time>
      </trkpt>
      <trkpt lat="43.64592" lon="3.7946">
        <ele>61.84499968</ele>
        <time>2020-10-17T09:30:13.000Z</time>
      </trkpt>
      <trkpt lat="43.64595" lon="3.79463">
        <ele>61.64499968</ele>
        <time>2020-10-17T09:30:15.000Z</time>
      </trkpt>
      <trkpt lat="43.64596" lon="3.79465">
        <ele>61.54499968</ele>
        <time>2020-10-17T09:30:16.000Z</time>
      </trkpt>
      <trkpt lat="43.64598" lon="3.79467">
        <ele>61.44499968</ele>
        <time>2020-10-17T09:30:17.000Z</time>
      </trkpt>
      <trkpt lat="43.64599" lon="3.7947">
        <ele>61.34499968</ele>
        <time>2020-10-17T09:30:18.000Z</time>
      </trkpt>
      <trkpt lat="43.646" lon="3.79472">
        <ele>61.24499968</ele>
        <time>2020-10-17T09:30:19.000Z</time>
      </trkpt>
      <trkpt lat="43.64601" lon="3.79476">
        <ele>61.04499968</ele>
        <time>2020-10-17T09:30:21.000Z</time>
      </trkpt>
      <trkpt lat="43.64603" lon="3.79479">
        <ele>60.847139820346</ele>
        <time>2020-10-17T09:30:23.000Z</time>
      </trkpt>
      <trkpt lat="43.64604" lon="3.79481">
        <ele>60.649901286058</ele>
        <time>2020-10-17T09:30:25.000Z</time>
      </trkpt>
      <trkpt lat="43.64602" lon="3.79483">
        <ele>60.452662751771</ele>
        <time>2020-10-17T09:30:27.000Z</time>
      </trkpt>
      <trkpt lat="43.64598" lon="3.79484">
        <ele>60.255424217484</ele>
        <time>2020-10-17T09:30:29.000Z</time>
      </trkpt>
      <trkpt lat="43.64596" lon="3.79486">
        <ele>60.15680495034</ele>
        <time>2020-10-17T09:30:30.000Z</time>
      </trkpt>
      <trkpt lat="43.64595" lon="3.79488">
        <ele>60.058185683196</ele>
        <time>2020-10-17T09:30:31.000Z</time>
      </trkpt>
      <trkpt lat="43.64593" lon="3.7949">
        <ele>60</ele>
        <time>2020-10-17T09:30:32.000Z</time>
      </trkpt>
      <trkpt lat="43.64592" lon="3.79492">
        <ele>60</ele>
        <time>2020-10-17T09:30:33.000Z</time>
      </trkpt>
      <trkpt lat="43.64591" lon="3.79495">
        <ele>60</ele>
        <time>2020-10-17T09:30:34.000Z</time>
      </trkpt>
      <trkpt lat="43.64589" lon="3.79498">
        <ele>60</ele>
        <time>2020-10-17T09:30:35.000Z</time>
      </trkpt>
      <trkpt lat="43.64587" lon="3.79501">
        <ele>60</ele>
        <time>2020-10-17T09:30:36.000Z</time>
      </trkpt>
      <trkpt lat="43.64586" lon="3.79505">
        <ele>60</ele>
        <time>2020-10-17T09:30:37.000Z</time>
      </trkpt>
      <trkpt lat="43.64585" lon="3.79508">
        <ele>60</ele>
        <time>2020-10-17T09:30:38.000Z</time>
      </trkpt>
      <trkpt lat="43.64584" lon="3.79512">
        <ele>60</ele>
        <time>2020-10-17T09:30:39.000Z</time>
      </trkpt>
      <trkpt lat="43.64582" lon="3.79516">
        <ele>60</ele>
        <time>2020-10-17T09:30:40.000Z</time>
      </trkpt>
      <trkpt lat="43.64581" lon="3.79519">
        <ele>60</ele>
        <time>2020-10-17T09:30:41.000Z</time>
      </trkpt>
      <trkpt lat="43.64579" lon="3.79522">
        <ele>59.893203328495</ele>
        <time>2020-10-17T09:30:42.000Z</time>
      </trkpt>
      <trkpt lat="43.64578" lon="3.79525">
        <ele>59.699028691866</ele>
        <time>2020-10-17T09:30:43.000Z</time>
      </trkpt>
      <trkpt lat="43.64576" lon="3.79529">
        <ele>59.504854055236</ele>
        <time>2020-10-17T09:30:44.000Z</time>
      </trkpt>
      <trkpt lat="43.64575" lon="3.79533">
        <ele>59.310679418607</ele>
        <time>2020-10-17T09:30:45.000Z</time>
      </trkpt>
      <trkpt lat="43.64573" lon="3.79537">
        <ele>59.116504781978</ele>
        <time>2020-10-17T09:30:46.000Z</time>
      </trkpt>
      <trkpt lat="43.64572" lon="3.79541">
        <ele>58.922330145348</ele>
        <time>2020-10-17T09:30:47.000Z</time>
      </trkpt>
      <trkpt lat="43.64571" lon="3.79545">
        <ele>58.728155508719</ele>
        <time>2020-10-17T09:30:48.000Z</time>
      </trkpt>
      <trkpt lat="43.6457" lon="3.79549">
        <ele>58.53398087209</ele>
        <time>2020-10-17T09:30:49.000Z</time>
      </trkpt>
      <trkpt lat="43.64569" lon="3.79553">
        <ele>58.33980623546</ele>
        <time>2020-10-17T09:30:50.000Z</time>
      </trkpt>
      <trkpt lat="43.64567" lon="3.79556">
        <ele>58.145631598831</ele>
        <time>2020-10-17T09:30:51.000Z</time>
      </trkpt>
      <trkpt lat="43.64567" lon="3.7956">
        <ele>57.974227117016</ele>
        <time>2020-10-17T09:30:52.000Z</time>
      </trkpt>
      <trkpt lat="43.64566" lon="3.79564">
        <ele>57.871134265491</ele>
        <time>2020-10-17T09:30:53.000Z</time>
      </trkpt>
      <trkpt lat="43.64565" lon="3.79568">
        <ele>57.768041413965</ele>
        <time>2020-10-17T09:30:54.000Z</time>
      </trkpt>
      <trkpt lat="43.64563" lon="3.79571">
        <ele>57.66494856244</ele>
        <time>2020-10-17T09:30:55.000Z</time>
      </trkpt>
      <trkpt lat="43.64562" lon="3.79575">
        <ele>57.561855710915</ele>
        <time>2020-10-17T09:30:56.000Z</time>
      </trkpt>
      <trkpt lat="43.64562" lon="3.79578">
        <ele>57.45876285939</ele>
        <time>2020-10-17T09:30:57.000Z</time>
      </trkpt>
      <trkpt lat="43.64561" lon="3.79582">
        <ele>57.355670007865</ele>
        <time>2020-10-17T09:30:58.000Z</time>
      </trkpt>
      <trkpt lat="43.6456" lon="3.79587">
        <ele>57.25257715634</ele>
        <time>2020-10-17T09:30:59.000Z</time>
      </trkpt>
      <trkpt lat="43.64558" lon="3.79591">
        <ele>57.149484304814</ele>
        <time>2020-10-17T09:31:00.000Z</time>
      </trkpt>
      <trkpt lat="43.64556" lon="3.79595">
        <ele>57.046391453289</ele>
        <time>2020-10-17T09:31:01.000Z</time>
      </trkpt>
      <trkpt lat="43.64555" lon="3.79599">
        <ele>57</ele>
        <time>2020-10-17T09:31:02.000Z</time>
      </trkpt>
      <trkpt lat="43.64554" lon="3.79603">
        <ele>57</ele>
        <time>2020-10-17T09:31:03.000Z</time>
      </trkpt>
      <trkpt lat="43.64552" lon="3.79606">
        <ele>57</ele>
        <time>2020-10-17T09:31:04.000Z</time>
      </trkpt>
      <trkpt lat="43.64551" lon="3.7961">
        <ele>57</ele>
        <time>2020-10-17T09:31:05.000Z</time>
      </trkpt>
      <trkpt lat="43.6455" lon="3.79614">
        <ele>57</ele>
        <time>2020-10-17T09:31:06.000Z</time>
      </trkpt>
      <trkpt lat="43.64548" lon="3.79618">
        <ele>57</ele>
        <time>2020-10-17T09:31:07.000Z</time>
      </trkpt>
      <trkpt lat="43.64547" lon="3.79621">
        <ele>57</ele>
        <time>2020-10-17T09:31:08.000Z</time>
      </trkpt>
      <trkpt lat="43.64546" lon="3.79625">
        <ele>57</ele>
        <time>2020-10-17T09:31:09.000Z</time>
      </trkpt>
      <trkpt lat="43.64544" lon="3.79628">
        <ele>57</ele>
        <time>2020-10-17T09:31:10.000Z</time>
      </trkpt>
      <trkpt lat="43.64543" lon="3.79632">
        <ele>57</ele>
        <time>2020-10-17T09:31:11.000Z</time>
      </trkpt>
      <trkpt lat="43.64542" lon="3.79637">
        <ele>57</ele>
        <time>2020-10-17T09:31:12.000Z</time>
      </trkpt>
      <trkpt lat="43.6454" lon="3.79641">
        <ele>57</ele>
        <time>2020-10-17T09:31:13.000Z</time>
      </trkpt>
      <trkpt lat="43.64538" lon="3.79645">
        <ele>57</ele>
        <time>2020-10-17T09:31:14.000Z</time>
      </trkpt>
      <trkpt lat="43.64537" lon="3.79649">
        <ele>57</ele>
        <time>2020-10-17T09:31:15.000Z</time>
      </trkpt>
      <trkpt lat="43.64536" lon="3.79654">
        <ele>57</ele>
        <time>2020-10-17T09:31:16.000Z</time>
      </trkpt>
      <trkpt lat="43.64534" lon="3.79658">
        <ele>57</ele>
        <time>2020-10-17T09:31:17.000Z</time>
      </trkpt>
      <trkpt lat="43.64532" lon="3.79663">
        <ele>57</ele>
        <time>2020-10-17T09:31:18.000Z</time>
      </trkpt>
      <trkpt lat="43.64531" lon="3.79667">
        <ele>57</ele>
        <time>2020-10-17T09:31:19.000Z</time>
      </trkpt>
      <trkpt lat="43.6453" lon="3.79672">
        <ele>57</ele>
        <time>2020-10-17T09:31:20.000Z</time>
      </trkpt>
      <trkpt lat="43.64528" lon="3.79677">
        <ele>57</ele>
        <time>2020-10-17T09:31:21.000Z</time>
      </trkpt>
      <trkpt lat="43.64526" lon="3.79682">
        <ele>57</ele>
        <time>2020-10-17T09:31:22.000Z</time>
      </trkpt>
      <trkpt lat="43.64525" lon="3.79687">
        <ele>57</ele>
        <time>2020-10-17T09:31:23.000Z</time>
      </trkpt>
      <trkpt lat="43.64523" lon="3.79691">
        <ele>57</ele>
        <time>2020-10-17T09:31:24.000Z</time>
      </trkpt>
      <trkpt lat="43.64521" lon="3.79696">
        <ele>57</ele>
        <time>2020-10-17T09:31:25.000Z</time>
      </trkpt>
      <trkpt lat="43.6452" lon="3.797">
        <ele>57</ele>
        <time>2020-10-17T09:31:26.000Z</time>
      </trkpt>
      <trkpt lat="43.64518" lon="3.79704">
        <ele>57</ele>
        <time>2020-10-17T09:31:27.000Z</time>
      </trkpt>
      <trkpt lat="43.64516" lon="3.79707">
        <ele>57</ele>
        <time>2020-10-17T09:31:28.000Z</time>
      </trkpt>
      <trkpt lat="43.64514" lon="3.79711">
        <ele>57</ele>
        <time>2020-10-17T09:31:29.000Z</time>
      </trkpt>
      <trkpt lat="43.64512" lon="3.79714">
        <ele>57</ele>
        <time>2020-10-17T09:31:30.000Z</time>
      </trkpt>
      <trkpt lat="43.6451" lon="3.79718">
        <ele>57</ele>
        <time>2020-10-17T09:31:31.000Z</time>
      </trkpt>
      <trkpt lat="43.64508" lon="3.79723">
        <ele>57.05500032</ele>
        <time>2020-10-17T09:31:32.000Z</time>
      </trkpt>
      <trkpt lat="43.64506" lon="3.79728">
        <ele>57.15500032</ele>
        <time>2020-10-17T09:31:33.000Z</time>
      </trkpt>
      <trkpt lat="43.64504" lon="3.79732">
        <ele>57.25500032</ele>
        <time>2020-10-17T09:31:34.000Z</time>
      </trkpt>
      <trkpt lat="43.64503" lon="3.79737">
        <ele>57.35500032</ele>
        <time>2020-10-17T09:31:35.000Z</time>
      </trkpt>
      <trkpt lat="43.64501" lon="3.7974">
        <ele>57.45500032</ele>
        <time>2020-10-17T09:31:36.000Z</time>
      </trkpt>
      <trkpt lat="43.64499" lon="3.79744">
        <ele>57.55500032</ele>
        <time>2020-10-17T09:31:37.000Z</time>
      </trkpt>
      <trkpt lat="43.64497" lon="3.79747">
        <ele>57.65500032</ele>
        <time>2020-10-17T09:31:38.000Z</time>
      </trkpt>
      <trkpt lat="43.64495" lon="3.79751">
        <ele>57.75500032</ele>
        <time>2020-10-17T09:31:39.000Z</time>
      </trkpt>
      <trkpt lat="43.64492" lon="3.79755">
        <ele>57.85500032</ele>
        <time>2020-10-17T09:31:40.000Z</time>
      </trkpt>
      <trkpt lat="43.64488" lon="3.79759">
        <ele>57.95500032</ele>
        <time>2020-10-17T09:31:41.000Z</time>
      </trkpt>
      <trkpt lat="43.64485" lon="3.79761">
        <ele>58</ele>
        <time>2020-10-17T09:31:42.000Z</time>
      </trkpt>
      <trkpt lat="43.64481" lon="3.79763">
        <ele>58</ele>
        <time>2020-10-17T09:31:43.000Z</time>
      </trkpt>
      <trkpt lat="43.64478" lon="3.79766">
        <ele>58</ele>
        <time>2020-10-17T09:31:44.000Z</time>
      </trkpt>
      <trkpt lat="43.64474" lon="3.79768">
        <ele>58</ele>
        <time>2020-10-17T09:31:45.000Z</time>
      </trkpt>
      <trkpt lat="43.6447" lon="3.7977">
        <ele>58</ele>
        <time>2020-10-17T09:31:46.000Z</time>
      </trkpt>
      <trkpt lat="43.64467" lon="3.79771">
        <ele>58</ele>
        <time>2020-10-17T09:31:47.000Z</time>
      </trkpt>
      <trkpt lat="43.64464" lon="3.79774">
        <ele>58</ele>
        <time>2020-10-17T09:31:48.000Z</time>
      </trkpt>
      <trkpt lat="43.64463" lon="3.79778">
        <ele>58</ele>
        <time>2020-10-17T09:31:49.000Z</time>
      </trkpt>
      <trkpt lat="43.64462" lon="3.79782">
        <ele>58</ele>
        <time>2020-10-17T09:31:50.000Z</time>
      </trkpt>
      <trkpt lat="43.64461" lon="3.79785">
        <ele>58</ele>
        <time>2020-10-17T09:31:51.000Z</time>
      </trkpt>
      <trkpt lat="43.6446" lon="3.79788">
        <ele>58</ele>
        <time>2020-10-17T09:31:52.000Z</time>
      </trkpt>
      <trkpt lat="43.64458" lon="3.79788">
        <ele>58</ele>
        <time>2020-10-17T09:31:54.000Z</time>
      </trkpt>
      <trkpt lat="43.64455" lon="3.79788">
        <ele>58</ele>
        <time>2020-10-17T09:31:56.000Z</time>
      </trkpt>
      <trkpt lat="43.64453" lon="3.79789">
        <ele>58</ele>
        <time>2020-10-17T09:31:57.000Z</time>
      </trkpt>
      <trkpt lat="43.6445" lon="3.79789">
        <ele>58</ele>
        <time>2020-10-17T09:31:58.000Z</time>
      </trkpt>
      <trkpt lat="43.64447" lon="3.79789">
        <ele>58</ele>
        <time>2020-10-17T09:31:59.000Z</time>
      </trkpt>
      <trkpt lat="43.64444" lon="3.7979">
        <ele>58</ele>
        <time>2020-10-17T09:32:00.000Z</time>
      </trkpt>
      <trkpt lat="43.64441" lon="3.79791">
        <ele>58</ele>
        <time>2020-10-17T09:32:01.000Z</time>
      </trkpt>
      <trkpt lat="43.64437" lon="3.79791">
        <ele>58.05500032</ele>
        <time>2020-10-17T09:32:02.000Z</time>
      </trkpt>
      <trkpt lat="43.64433" lon="3.79792">
        <ele>58.15500032</ele>
        <time>2020-10-17T09:32:03.000Z</time>
      </trkpt>
      <trkpt lat="43.64429" lon="3.79793">
        <ele>58.25500032</ele>
        <time>2020-10-17T09:32:04.000Z</time>
      </trkpt>
      <trkpt lat="43.64425" lon="3.79794">
        <ele>58.35500032</ele>
        <time>2020-10-17T09:32:05.000Z</time>
      </trkpt>
      <trkpt lat="43.6442" lon="3.79794">
        <ele>58.45500032</ele>
        <time>2020-10-17T09:32:06.000Z</time>
      </trkpt>
      <trkpt lat="43.64416" lon="3.79793">
        <ele>58.55500032</ele>
        <time>2020-10-17T09:32:07.000Z</time>
      </trkpt>
      <trkpt lat="43.64412" lon="3.79792">
        <ele>58.65500032</ele>
        <time>2020-10-17T09:32:08.000Z</time>
      </trkpt>
      <trkpt lat="43.64408" lon="3.7979">
        <ele>58.75500032</ele>
        <time>2020-10-17T09:32:09.000Z</time>
      </trkpt>
      <trkpt lat="43.64405" lon="3.7979">
        <ele>58.85500032</ele>
        <time>2020-10-17T09:32:10.000Z</time>
      </trkpt>
      <trkpt lat="43.64401" lon="3.79788">
        <ele>58.95500032</ele>
        <time>2020-10-17T09:32:11.000Z</time>
      </trkpt>
      <trkpt lat="43.64398" lon="3.79786">
        <ele>58.94499968</ele>
        <time>2020-10-17T09:32:12.000Z</time>
      </trkpt>
      <trkpt lat="43.64396" lon="3.79785">
        <ele>58.84499968</ele>
        <time>2020-10-17T09:32:13.000Z</time>
      </trkpt>
      <trkpt lat="43.64392" lon="3.79784">
        <ele>58.74499968</ele>
        <time>2020-10-17T09:32:14.000Z</time>
      </trkpt>
      <trkpt lat="43.64388" lon="3.79783">
        <ele>58.64499968</ele>
        <time>2020-10-17T09:32:15.000Z</time>
      </trkpt>
      <trkpt lat="43.64383" lon="3.79783">
        <ele>58.54499968</ele>
        <time>2020-10-17T09:32:16.000Z</time>
      </trkpt>
      <trkpt lat="43.64379" lon="3.79783">
        <ele>58.44499968</ele>
        <time>2020-10-17T09:32:17.000Z</time>
      </trkpt>
      <trkpt lat="43.64374" lon="3.79783">
        <ele>58.34499968</ele>
        <time>2020-10-17T09:32:18.000Z</time>
      </trkpt>
      <trkpt lat="43.64372" lon="3.79784">
        <ele>58.24499968</ele>
        <time>2020-10-17T09:32:19.000Z</time>
      </trkpt>
      <trkpt lat="43.64369" lon="3.79786">
        <ele>58.04499968</ele>
        <time>2020-10-17T09:32:21.000Z</time>
      </trkpt>
      <trkpt lat="43.6437" lon="3.79789">
        <ele>57.147465365301</ele>
        <time>2020-10-17T09:32:27.000Z</time>
      </trkpt>
      <trkpt lat="43.64372" lon="3.7979">
        <ele>57</ele>
        <time>2020-10-17T09:32:28.000Z</time>
      </trkpt>
      <trkpt lat="43.64375" lon="3.79791">
        <ele>57</ele>
        <time>2020-10-17T09:32:30.000Z</time>
      </trkpt>
      <trkpt lat="43.64376" lon="3.79793">
        <ele>57</ele>
        <time>2020-10-17T09:32:31.000Z</time>
      </trkpt>
      <trkpt lat="43.64378" lon="3.79795">
        <ele>57</ele>
        <time>2020-10-17T09:32:32.000Z</time>
      </trkpt>
      <trkpt lat="43.64379" lon="3.79797">
        <ele>57</ele>
        <time>2020-10-17T09:32:33.000Z</time>
      </trkpt>
      <trkpt lat="43.64381" lon="3.79798">
        <ele>57</ele>
        <time>2020-10-17T09:32:34.000Z</time>
      </trkpt>
      <trkpt lat="43.64383" lon="3.79801">
        <ele>57</ele>
        <time>2020-10-17T09:32:35.000Z</time>
      </trkpt>
      <trkpt lat="43.64385" lon="3.79803">
        <ele>57</ele>
        <time>2020-10-17T09:32:36.000Z</time>
      </trkpt>
      <trkpt lat="43.64387" lon="3.79805">
        <ele>57</ele>
        <time>2020-10-17T09:32:37.000Z</time>
      </trkpt>
      <trkpt lat="43.6439" lon="3.79808">
        <ele>57</ele>
        <time>2020-10-17T09:32:38.000Z</time>
      </trkpt>
      <trkpt lat="43.64392" lon="3.7981">
        <ele>57</ele>
        <time>2020-10-17T09:32:39.000Z</time>
      </trkpt>
      <trkpt lat="43.64394" lon="3.79813">
        <ele>57</ele>
        <time>2020-10-17T09:32:40.000Z</time>
      </trkpt>
      <trkpt lat="43.64396" lon="3.79815">
        <ele>57</ele>
        <time>2020-10-17T09:32:41.000Z</time>
      </trkpt>
      <trkpt lat="43.64399" lon="3.79818">
        <ele>57</ele>
        <time>2020-10-17T09:32:42.000Z</time>
      </trkpt>
      <trkpt lat="43.64401" lon="3.79819">
        <ele>57</ele>
        <time>2020-10-17T09:32:43.000Z</time>
      </trkpt>
      <trkpt lat="43.64403" lon="3.79821">
        <ele>57</ele>
        <time>2020-10-17T09:32:44.000Z</time>
      </trkpt>
      <trkpt lat="43.64405" lon="3.79823">
        <ele>57</ele>
        <time>2020-10-17T09:32:45.000Z</time>
      </trkpt>
      <trkpt lat="43.64407" lon="3.79826">
        <ele>57</ele>
        <time>2020-10-17T09:32:46.000Z</time>
      </trkpt>
      <trkpt lat="43.6441" lon="3.79828">
        <ele>57</ele>
        <time>2020-10-17T09:32:47.000Z</time>
      </trkpt>
      <trkpt lat="43.64412" lon="3.79831">
        <ele>57</ele>
        <time>2020-10-17T09:32:48.000Z</time>
      </trkpt>
      <trkpt lat="43.64414" lon="3.79833">
        <ele>57</ele>
        <time>2020-10-17T09:32:49.000Z</time>
      </trkpt>
      <trkpt lat="43.64416" lon="3.79836">
        <ele>57</ele>
        <time>2020-10-17T09:32:50.000Z</time>
      </trkpt>
      <trkpt lat="43.64418" lon="3.79838">
        <ele>57.022750136339</ele>
        <time>2020-10-17T09:32:51.000Z</time>
      </trkpt>
      <trkpt lat="43.6442" lon="3.79841">
        <ele>57.126162855343</ele>
        <time>2020-10-17T09:32:52.000Z</time>
      </trkpt>
      <trkpt lat="43.64423" lon="3.79843">
        <ele>57.229575574346</ele>
        <time>2020-10-17T09:32:53.000Z</time>
      </trkpt>
      <trkpt lat="43.64425" lon="3.79846">
        <ele>57.332988293349</ele>
        <time>2020-10-17T09:32:54.000Z</time>
      </trkpt>
      <trkpt lat="43.64428" lon="3.79848">
        <ele>57.436401012353</ele>
        <time>2020-10-17T09:32:55.000Z</time>
      </trkpt>
      <trkpt lat="43.6443" lon="3.79851">
        <ele>57.539813731356</ele>
        <time>2020-10-17T09:32:56.000Z</time>
      </trkpt>
      <trkpt lat="43.64432" lon="3.79854">
        <ele>57.643226450359</ele>
        <time>2020-10-17T09:32:57.000Z</time>
      </trkpt>
      <trkpt lat="43.64435" lon="3.79856">
        <ele>57.746639169363</ele>
        <time>2020-10-17T09:32:58.000Z</time>
      </trkpt>
      <trkpt lat="43.64437" lon="3.79859">
        <ele>57.850051888366</ele>
        <time>2020-10-17T09:32:59.000Z</time>
      </trkpt>
      <trkpt lat="43.64439" lon="3.79861">
        <ele>57.953464607369</ele>
        <time>2020-10-17T09:33:00.000Z</time>
      </trkpt>
      <trkpt lat="43.64442" lon="3.79863">
        <ele>58.05500032</ele>
        <time>2020-10-17T09:33:01.000Z</time>
      </trkpt>
      <trkpt lat="43.64445" lon="3.79865">
        <ele>58.15500032</ele>
        <time>2020-10-17T09:33:02.000Z</time>
      </trkpt>
      <trkpt lat="43.64448" lon="3.79868">
        <ele>58.25500032</ele>
        <time>2020-10-17T09:33:03.000Z</time>
      </trkpt>
      <trkpt lat="43.6445" lon="3.79871">
        <ele>58.35500032</ele>
        <time>2020-10-17T09:33:04.000Z</time>
      </trkpt>
      <trkpt lat="43.64453" lon="3.79875">
        <ele>58.45500032</ele>
        <time>2020-10-17T09:33:05.000Z</time>
      </trkpt>
      <trkpt lat="43.64456" lon="3.79877">
        <ele>58.55500032</ele>
        <time>2020-10-17T09:33:06.000Z</time>
      </trkpt>
      <trkpt lat="43.64458" lon="3.7988">
        <ele>58.65500032</ele>
        <time>2020-10-17T09:33:07.000Z</time>
      </trkpt>
      <trkpt lat="43.64461" lon="3.79883">
        <ele>58.75500032</ele>
        <time>2020-10-17T09:33:08.000Z</time>
      </trkpt>
      <trkpt lat="43.64462" lon="3.79885">
        <ele>58.85500032</ele>
        <time>2020-10-17T09:33:09.000Z</time>
      </trkpt>
      <trkpt lat="43.64465" lon="3.79887">
        <ele>58.95500032</ele>
        <time>2020-10-17T09:33:10.000Z</time>
      </trkpt>
      <trkpt lat="43.64467" lon="3.7989">
        <ele>58.94499968</ele>
        <time>2020-10-17T09:33:11.000Z</time>
      </trkpt>
      <trkpt lat="43.6447" lon="3.79893">
        <ele>58.84499968</ele>
        <time>2020-10-17T09:33:12.000Z</time>
      </trkpt>
      <trkpt lat="43.64473" lon="3.79896">
        <ele>58.74499968</ele>
        <time>2020-10-17T09:33:13.000Z</time>
      </trkpt>
      <trkpt lat="43.64475" lon="3.799">
        <ele>58.64499968</ele>
        <time>2020-10-17T09:33:14.000Z</time>
      </trkpt>
      <trkpt lat="43.64478" lon="3.79903">
        <ele>58.54499968</ele>
        <time>2020-10-17T09:33:15.000Z</time>
      </trkpt>
      <trkpt lat="43.6448" lon="3.79906">
        <ele>58.44499968</ele>
        <time>2020-10-17T09:33:16.000Z</time>
      </trkpt>
      <trkpt lat="43.64482" lon="3.79908">
        <ele>58.34499968</ele>
        <time>2020-10-17T09:33:17.000Z</time>
      </trkpt>
      <trkpt lat="43.64484" lon="3.79911">
        <ele>58.24499968</ele>
        <time>2020-10-17T09:33:18.000Z</time>
      </trkpt>
      <trkpt lat="43.64486" lon="3.79913">
        <ele>58.14499968</ele>
        <time>2020-10-17T09:33:19.000Z</time>
      </trkpt>
      <trkpt lat="43.64488" lon="3.79915">
        <ele>58.04499968</ele>
        <time>2020-10-17T09:33:20.000Z</time>
      </trkpt>
      <trkpt lat="43.64491" lon="3.79917">
        <ele>58</ele>
        <time>2020-10-17T09:33:21.000Z</time>
      </trkpt>
      <trkpt lat="43.64493" lon="3.7992">
        <ele>58</ele>
        <time>2020-10-17T09:33:22.000Z</time>
      </trkpt>
      <trkpt lat="43.64495" lon="3.79924">
        <ele>58</ele>
        <time>2020-10-17T09:33:23.000Z</time>
      </trkpt>
      <trkpt lat="43.64497" lon="3.79926">
        <ele>58</ele>
        <time>2020-10-17T09:33:24.000Z</time>
      </trkpt>
      <trkpt lat="43.645" lon="3.79929">
        <ele>58</ele>
        <time>2020-10-17T09:33:25.000Z</time>
      </trkpt>
      <trkpt lat="43.64502" lon="3.79931">
        <ele>58</ele>
        <time>2020-10-17T09:33:26.000Z</time>
      </trkpt>
      <trkpt lat="43.64505" lon="3.79933">
        <ele>58</ele>
        <time>2020-10-17T09:33:27.000Z</time>
      </trkpt>
      <trkpt lat="43.64507" lon="3.79936">
        <ele>58</ele>
        <time>2020-10-17T09:33:28.000Z</time>
      </trkpt>
      <trkpt lat="43.64509" lon="3.79938">
        <ele>58</ele>
        <time>2020-10-17T09:33:29.000Z</time>
      </trkpt>
      <trkpt lat="43.64512" lon="3.79941">
        <ele>58</ele>
        <time>2020-10-17T09:33:30.000Z</time>
      </trkpt>
      <trkpt lat="43.64514" lon="3.79943">
        <ele>58.05500032</ele>
        <time>2020-10-17T09:33:31.000Z</time>
      </trkpt>
      <trkpt lat="43.64516" lon="3.79946">
        <ele>58.15500032</ele>
        <time>2020-10-17T09:33:32.000Z</time>
      </trkpt>
      <trkpt lat="43.64519" lon="3.79948">
        <ele>58.25500032</ele>
        <time>2020-10-17T09:33:33.000Z</time>
      </trkpt>
      <trkpt lat="43.64521" lon="3.7995">
        <ele>58.35500032</ele>
        <time>2020-10-17T09:33:34.000Z</time>
      </trkpt>
      <trkpt lat="43.64523" lon="3.79953">
        <ele>58.45500032</ele>
        <time>2020-10-17T09:33:35.000Z</time>
      </trkpt>
      <trkpt lat="43.64526" lon="3.79955">
        <ele>58.55500032</ele>
        <time>2020-10-17T09:33:36.000Z</time>
      </trkpt>
      <trkpt lat="43.64528" lon="3.79957">
        <ele>58.65500032</ele>
        <time>2020-10-17T09:33:37.000Z</time>
      </trkpt>
      <trkpt lat="43.64531" lon="3.7996">
        <ele>58.75500032</ele>
        <time>2020-10-17T09:33:38.000Z</time>
      </trkpt>
      <trkpt lat="43.64533" lon="3.79963">
        <ele>58.85500032</ele>
        <time>2020-10-17T09:33:39.000Z</time>
      </trkpt>
      <trkpt lat="43.64535" lon="3.79966">
        <ele>58.95500032</ele>
        <time>2020-10-17T09:33:40.000Z</time>
      </trkpt>
      <trkpt lat="43.64538" lon="3.79968">
        <ele>59.05500032</ele>
        <time>2020-10-17T09:33:41.000Z</time>
      </trkpt>
      <trkpt lat="43.6454" lon="3.79971">
        <ele>59.15500032</ele>
        <time>2020-10-17T09:33:42.000Z</time>
      </trkpt>
      <trkpt lat="43.64542" lon="3.79975">
        <ele>59.25500032</ele>
        <time>2020-10-17T09:33:43.000Z</time>
      </trkpt>
      <trkpt lat="43.64544" lon="3.79978">
        <ele>59.35500032</ele>
        <time>2020-10-17T09:33:44.000Z</time>
      </trkpt>
      <trkpt lat="43.64546" lon="3.7998">
        <ele>59.45500032</ele>
        <time>2020-10-17T09:33:45.000Z</time>
      </trkpt>
      <trkpt lat="43.64549" lon="3.79983">
        <ele>59.55500032</ele>
        <time>2020-10-17T09:33:46.000Z</time>
      </trkpt>
      <trkpt lat="43.64551" lon="3.79985">
        <ele>59.65500032</ele>
        <time>2020-10-17T09:33:47.000Z</time>
      </trkpt>
      <trkpt lat="43.64554" lon="3.79988">
        <ele>59.75500032</ele>
        <time>2020-10-17T09:33:48.000Z</time>
      </trkpt>
      <trkpt lat="43.64556" lon="3.79991">
        <ele>59.85500032</ele>
        <time>2020-10-17T09:33:49.000Z</time>
      </trkpt>
      <trkpt lat="43.64559" lon="3.79993">
        <ele>59.95500032</ele>
        <time>2020-10-17T09:33:50.000Z</time>
      </trkpt>
      <trkpt lat="43.64561" lon="3.79996">
        <ele>60</ele>
        <time>2020-10-17T09:33:51.000Z</time>
      </trkpt>
      <trkpt lat="43.64563" lon="3.79999">
        <ele>60</ele>
        <time>2020-10-17T09:33:52.000Z</time>
      </trkpt>
      <trkpt lat="43.64565" lon="3.80001">
        <ele>60</ele>
        <time>2020-10-17T09:33:53.000Z</time>
      </trkpt>
      <trkpt lat="43.64566" lon="3.80005">
        <ele>60</ele>
        <time>2020-10-17T09:33:54.000Z</time>
      </trkpt>
      <trkpt lat="43.64566" lon="3.80008">
        <ele>60</ele>
        <time>2020-10-17T09:33:55.000Z</time>
      </trkpt>
      <trkpt lat="43.64565" lon="3.80012">
        <ele>60</ele>
        <time>2020-10-17T09:33:56.000Z</time>
      </trkpt>
      <trkpt lat="43.64564" lon="3.80015">
        <ele>60</ele>
        <time>2020-10-17T09:33:57.000Z</time>
      </trkpt>
      <trkpt lat="43.64563" lon="3.80019">
        <ele>60</ele>
        <time>2020-10-17T09:33:58.000Z</time>
      </trkpt>
      <trkpt lat="43.64562" lon="3.80022">
        <ele>60</ele>
        <time>2020-10-17T09:33:59.000Z</time>
      </trkpt>
      <trkpt lat="43.6456" lon="3.80025">
        <ele>60</ele>
        <time>2020-10-17T09:34:00.000Z</time>
      </trkpt>
      <trkpt lat="43.64558" lon="3.80028">
        <ele>60</ele>
        <time>2020-10-17T09:34:01.000Z</time>
      </trkpt>
      <trkpt lat="43.64557" lon="3.80031">
        <ele>60</ele>
        <time>2020-10-17T09:34:02.000Z</time>
      </trkpt>
      <trkpt lat="43.64556" lon="3.80034">
        <ele>60</ele>
        <time>2020-10-17T09:34:03.000Z</time>
      </trkpt>
      <trkpt lat="43.64554" lon="3.80037">
        <ele>60</ele>
        <time>2020-10-17T09:34:04.000Z</time>
      </trkpt>
      <trkpt lat="43.64552" lon="3.80041">
        <ele>60</ele>
        <time>2020-10-17T09:34:05.000Z</time>
      </trkpt>
      <trkpt lat="43.64551" lon="3.80044">
        <ele>60</ele>
        <time>2020-10-17T09:34:06.000Z</time>
      </trkpt>
      <trkpt lat="43.64549" lon="3.80046">
        <ele>60</ele>
        <time>2020-10-17T09:34:07.000Z</time>
      </trkpt>
      <trkpt lat="43.64548" lon="3.80049">
        <ele>60</ele>
        <time>2020-10-17T09:34:08.000Z</time>
      </trkpt>
      <trkpt lat="43.64548" lon="3.80053">
        <ele>60</ele>
        <time>2020-10-17T09:34:09.000Z</time>
      </trkpt>
      <trkpt lat="43.64546" lon="3.80056">
        <ele>60</ele>
        <time>2020-10-17T09:34:10.000Z</time>
      </trkpt>
      <trkpt lat="43.64545" lon="3.80059">
        <ele>60.05310592584</ele>
        <time>2020-10-17T09:34:11.000Z</time>
      </trkpt>
      <trkpt lat="43.64543" lon="3.80062">
        <ele>60.153306390898</ele>
        <time>2020-10-17T09:34:12.000Z</time>
      </trkpt>
      <trkpt lat="43.64542" lon="3.80066">
        <ele>60.253506855956</ele>
        <time>2020-10-17T09:34:13.000Z</time>
      </trkpt>
      <trkpt lat="43.64541" lon="3.80069">
        <ele>60.353707321015</ele>
        <time>2020-10-17T09:34:14.000Z</time>
      </trkpt>
      <trkpt lat="43.6454" lon="3.80073">
        <ele>60.453907786073</ele>
        <time>2020-10-17T09:34:15.000Z</time>
      </trkpt>
      <trkpt lat="43.6454" lon="3.80076">
        <ele>60.554108251132</ele>
        <time>2020-10-17T09:34:16.000Z</time>
      </trkpt>
      <trkpt lat="43.64542" lon="3.8008">
        <ele>60.65430871619</ele>
        <time>2020-10-17T09:34:17.000Z</time>
      </trkpt>
      <trkpt lat="43.64544" lon="3.80083">
        <ele>60.754509181248</ele>
        <time>2020-10-17T09:34:18.000Z</time>
      </trkpt>
      <trkpt lat="43.64546" lon="3.80085">
        <ele>60.854709646307</ele>
        <time>2020-10-17T09:34:19.000Z</time>
      </trkpt>
      <trkpt lat="43.64548" lon="3.80087">
        <ele>60.954910111365</ele>
        <time>2020-10-17T09:34:20.000Z</time>
      </trkpt>
      <trkpt lat="43.64551" lon="3.80089">
        <ele>61.05500032</ele>
        <time>2020-10-17T09:34:21.000Z</time>
      </trkpt>
      <trkpt lat="43.64554" lon="3.8009">
        <ele>61.15500032</ele>
        <time>2020-10-17T09:34:22.000Z</time>
      </trkpt>
      <trkpt lat="43.64556" lon="3.80092">
        <ele>61.25500032</ele>
        <time>2020-10-17T09:34:23.000Z</time>
      </trkpt>
      <trkpt lat="43.64559" lon="3.80094">
        <ele>61.35500032</ele>
        <time>2020-10-17T09:34:24.000Z</time>
      </trkpt>
      <trkpt lat="43.64561" lon="3.80095">
        <ele>61.45500032</ele>
        <time>2020-10-17T09:34:25.000Z</time>
      </trkpt>
      <trkpt lat="43.64564" lon="3.80097">
        <ele>61.55500032</ele>
        <time>2020-10-17T09:34:26.000Z</time>
      </trkpt>
      <trkpt lat="43.64567" lon="3.80099">
        <ele>61.65500032</ele>
        <time>2020-10-17T09:34:27.000Z</time>
      </trkpt>
      <trkpt lat="43.6457" lon="3.801">
        <ele>61.75500032</ele>
        <time>2020-10-17T09:34:28.000Z</time>
      </trkpt>
      <trkpt lat="43.64572" lon="3.80102">
        <ele>61.85500032</ele>
        <time>2020-10-17T09:34:29.000Z</time>
      </trkpt>
      <trkpt lat="43.64575" lon="3.80104">
        <ele>61.95500032</ele>
        <time>2020-10-17T09:34:30.000Z</time>
      </trkpt>
      <trkpt lat="43.64578" lon="3.80106">
        <ele>62.11000064</ele>
        <time>2020-10-17T09:34:31.000Z</time>
      </trkpt>
      <trkpt lat="43.64581" lon="3.80107">
        <ele>62.31000064</ele>
        <time>2020-10-17T09:34:32.000Z</time>
      </trkpt>
      <trkpt lat="43.64584" lon="3.80108">
        <ele>62.51000064</ele>
        <time>2020-10-17T09:34:33.000Z</time>
      </trkpt>
      <trkpt lat="43.64587" lon="3.8011">
        <ele>62.71000064</ele>
        <time>2020-10-17T09:34:34.000Z</time>
      </trkpt>
      <trkpt lat="43.64589" lon="3.80112">
        <ele>62.91000064</ele>
        <time>2020-10-17T09:34:35.000Z</time>
      </trkpt>
      <trkpt lat="43.64592" lon="3.80113">
        <ele>63.11000064</ele>
        <time>2020-10-17T09:34:36.000Z</time>
      </trkpt>
      <trkpt lat="43.64595" lon="3.80115">
        <ele>63.31000064</ele>
        <time>2020-10-17T09:34:37.000Z</time>
      </trkpt>
      <trkpt lat="43.64597" lon="3.80116">
        <ele>63.51000064</ele>
        <time>2020-10-17T09:34:38.000Z</time>
      </trkpt>
      <trkpt lat="43.646" lon="3.80118">
        <ele>63.71000064</ele>
        <time>2020-10-17T09:34:39.000Z</time>
      </trkpt>
      <trkpt lat="43.64603" lon="3.80119">
        <ele>63.91000064</ele>
        <time>2020-10-17T09:34:40.000Z</time>
      </trkpt>
      <trkpt lat="43.64605" lon="3.80121">
        <ele>64.11000064</ele>
        <time>2020-10-17T09:34:41.000Z</time>
      </trkpt>
      <trkpt lat="43.64608" lon="3.80122">
        <ele>64.31000064</ele>
        <time>2020-10-17T09:34:42.000Z</time>
      </trkpt>
      <trkpt lat="43.64611" lon="3.80124">
        <ele>64.51000064</ele>
        <time>2020-10-17T09:34:43.000Z</time>
      </trkpt>
      <trkpt lat="43.64614" lon="3.80126">
        <ele>64.71000064</ele>
        <time>2020-10-17T09:34:44.000Z</time>
      </trkpt>
      <trkpt lat="43.64616" lon="3.80127">
        <ele>64.91000064</ele>
        <time>2020-10-17T09:34:45.000Z</time>
      </trkpt>
      <trkpt lat="43.64619" lon="3.80129">
        <ele>65.11000064</ele>
        <time>2020-10-17T09:34:46.000Z</time>
      </trkpt>
      <trkpt lat="43.64621" lon="3.8013">
        <ele>65.31000064</ele>
        <time>2020-10-17T09:34:47.000Z</time>
      </trkpt>
      <trkpt lat="43.64624" lon="3.8013">
        <ele>65.51000064</ele>
        <time>2020-10-17T09:34:48.000Z</time>
      </trkpt>
      <trkpt lat="43.64626" lon="3.8013">
        <ele>65.71000064</ele>
        <time>2020-10-17T09:34:49.000Z</time>
      </trkpt>
      <trkpt lat="43.64628" lon="3.8013">
        <ele>65.91000064</ele>
        <time>2020-10-17T09:34:50.000Z</time>
      </trkpt>
      <trkpt lat="43.6463" lon="3.8013">
        <ele>66.05500032</ele>
        <time>2020-10-17T09:34:51.000Z</time>
      </trkpt>
      <trkpt lat="43.64632" lon="3.8013">
        <ele>66.15500032</ele>
        <time>2020-10-17T09:34:52.000Z</time>
      </trkpt>
      <trkpt lat="43.64635" lon="3.8013">
        <ele>66.25500032</ele>
        <time>2020-10-17T09:34:53.000Z</time>
      </trkpt>
      <trkpt lat="43.64637" lon="3.80129">
        <ele>66.35500032</ele>
        <time>2020-10-17T09:34:54.000Z</time>
      </trkpt>
      <trkpt lat="43.6464" lon="3.80129">
        <ele>66.45500032</ele>
        <time>2020-10-17T09:34:55.000Z</time>
      </trkpt>
      <trkpt lat="43.64642" lon="3.80128">
        <ele>66.55500032</ele>
        <time>2020-10-17T09:34:56.000Z</time>
      </trkpt>
      <trkpt lat="43.64645" lon="3.80128">
        <ele>66.65500032</ele>
        <time>2020-10-17T09:34:57.000Z</time>
      </trkpt>
      <trkpt lat="43.64648" lon="3.80128">
        <ele>66.75500032</ele>
        <time>2020-10-17T09:34:58.000Z</time>
      </trkpt>
      <trkpt lat="43.6465" lon="3.80127">
        <ele>66.85500032</ele>
        <time>2020-10-17T09:34:59.000Z</time>
      </trkpt>
      <trkpt lat="43.64653" lon="3.80127">
        <ele>66.95500032</ele>
        <time>2020-10-17T09:35:00.000Z</time>
      </trkpt>
      <trkpt lat="43.64656" lon="3.80127">
        <ele>67</ele>
        <time>2020-10-17T09:35:01.000Z</time>
      </trkpt>
      <trkpt lat="43.64659" lon="3.80127">
        <ele>67</ele>
        <time>2020-10-17T09:35:02.000Z</time>
      </trkpt>
      <trkpt lat="43.64661" lon="3.80127">
        <ele>67</ele>
        <time>2020-10-17T09:35:03.000Z</time>
      </trkpt>
      <trkpt lat="43.64664" lon="3.80127">
        <ele>67</ele>
        <time>2020-10-17T09:35:04.000Z</time>
      </trkpt>
      <trkpt lat="43.64667" lon="3.80127">
        <ele>67</ele>
        <time>2020-10-17T09:35:05.000Z</time>
      </trkpt>
      <trkpt lat="43.6467" lon="3.80127">
        <ele>67</ele>
        <time>2020-10-17T09:35:06.000Z</time>
      </trkpt>
      <trkpt lat="43.64673" lon="3.80127">
        <ele>67</ele>
        <time>2020-10-17T09:35:07.000Z</time>
      </trkpt>
      <trkpt lat="43.64675" lon="3.80127">
        <ele>67</ele>
        <time>2020-10-17T09:35:08.000Z</time>
      </trkpt>
      <trkpt lat="43.64678" lon="3.80127">
        <ele>67</ele>
        <time>2020-10-17T09:35:09.000Z</time>
      </trkpt>
      <trkpt lat="43.64681" lon="3.80128">
        <ele>67</ele>
        <time>2020-10-17T09:35:10.000Z</time>
      </trkpt>
      <trkpt lat="43.64684" lon="3.80128">
        <ele>66.88999936</ele>
        <time>2020-10-17T09:35:11.000Z</time>
      </trkpt>
      <trkpt lat="43.64686" lon="3.80128">
        <ele>66.68999936</ele>
        <time>2020-10-17T09:35:12.000Z</time>
      </trkpt>
      <trkpt lat="43.64689" lon="3.80129">
        <ele>66.48999936</ele>
        <time>2020-10-17T09:35:13.000Z</time>
      </trkpt>
      <trkpt lat="43.64693" lon="3.80129">
        <ele>66.28999936</ele>
        <time>2020-10-17T09:35:14.000Z</time>
      </trkpt>
      <trkpt lat="43.64696" lon="3.80131">
        <ele>66.08999936</ele>
        <time>2020-10-17T09:35:15.000Z</time>
      </trkpt>
      <trkpt lat="43.64697" lon="3.80135">
        <ele>65.88999936</ele>
        <time>2020-10-17T09:35:16.000Z</time>
      </trkpt>
      <trkpt lat="43.64697" lon="3.80141">
        <ele>65.68999936</ele>
        <time>2020-10-17T09:35:17.000Z</time>
      </trkpt>
      <trkpt lat="43.64696" lon="3.80147">
        <ele>65.48999936</ele>
        <time>2020-10-17T09:35:18.000Z</time>
      </trkpt>
      <trkpt lat="43.64695" lon="3.80153">
        <ele>65.28999936</ele>
        <time>2020-10-17T09:35:19.000Z</time>
      </trkpt>
      <trkpt lat="43.64694" lon="3.80159">
        <ele>65.08999936</ele>
        <time>2020-10-17T09:35:20.000Z</time>
      </trkpt>
      <trkpt lat="43.64694" lon="3.80164">
        <ele>64.94499968</ele>
        <time>2020-10-17T09:35:21.000Z</time>
      </trkpt>
      <trkpt lat="43.64693" lon="3.8017">
        <ele>64.84499968</ele>
        <time>2020-10-17T09:35:22.000Z</time>
      </trkpt>
      <trkpt lat="43.64691" lon="3.80175">
        <ele>64.74499968</ele>
        <time>2020-10-17T09:35:23.000Z</time>
      </trkpt>
      <trkpt lat="43.6469" lon="3.80181">
        <ele>64.64499968</ele>
        <time>2020-10-17T09:35:24.000Z</time>
      </trkpt>
      <trkpt lat="43.64689" lon="3.80186">
        <ele>64.54499968</ele>
        <time>2020-10-17T09:35:25.000Z</time>
      </trkpt>
      <trkpt lat="43.64688" lon="3.80191">
        <ele>64.44499968</ele>
        <time>2020-10-17T09:35:26.000Z</time>
      </trkpt>
      <trkpt lat="43.64687" lon="3.80197">
        <ele>64.34499968</ele>
        <time>2020-10-17T09:35:27.000Z</time>
      </trkpt>
      <trkpt lat="43.64686" lon="3.80202">
        <ele>64.24499968</ele>
        <time>2020-10-17T09:35:28.000Z</time>
      </trkpt>
      <trkpt lat="43.64685" lon="3.80207">
        <ele>64.14499968</ele>
        <time>2020-10-17T09:35:29.000Z</time>
      </trkpt>
      <trkpt lat="43.64684" lon="3.80213">
        <ele>64.04499968</ele>
        <time>2020-10-17T09:35:30.000Z</time>
      </trkpt>
      <trkpt lat="43.64684" lon="3.80218">
        <ele>64</ele>
        <time>2020-10-17T09:35:31.000Z</time>
      </trkpt>
      <trkpt lat="43.64683" lon="3.80224">
        <ele>64</ele>
        <time>2020-10-17T09:35:32.000Z</time>
      </trkpt>
      <trkpt lat="43.64683" lon="3.8023">
        <ele>64</ele>
        <time>2020-10-17T09:35:33.000Z</time>
      </trkpt>
      <trkpt lat="43.64682" lon="3.80236">
        <ele>64</ele>
        <time>2020-10-17T09:35:34.000Z</time>
      </trkpt>
      <trkpt lat="43.64681" lon="3.80242">
        <ele>64</ele>
        <time>2020-10-17T09:35:35.000Z</time>
      </trkpt>
      <trkpt lat="43.6468" lon="3.80249">
        <ele>64</ele>
        <time>2020-10-17T09:35:36.000Z</time>
      </trkpt>
      <trkpt lat="43.64679" lon="3.80255">
        <ele>64</ele>
        <time>2020-10-17T09:35:37.000Z</time>
      </trkpt>
      <trkpt lat="43.64677" lon="3.80262">
        <ele>64</ele>
        <time>2020-10-17T09:35:38.000Z</time>
      </trkpt>
      <trkpt lat="43.64677" lon="3.80269">
        <ele>64</ele>
        <time>2020-10-17T09:35:39.000Z</time>
      </trkpt>
      <trkpt lat="43.64676" lon="3.80277">
        <ele>64</ele>
        <time>2020-10-17T09:35:40.000Z</time>
      </trkpt>
      <trkpt lat="43.64675" lon="3.80284">
        <ele>64</ele>
        <time>2020-10-17T09:35:41.000Z</time>
      </trkpt>
      <trkpt lat="43.64674" lon="3.80292">
        <ele>64</ele>
        <time>2020-10-17T09:35:42.000Z</time>
      </trkpt>
      <trkpt lat="43.64673" lon="3.803">
        <ele>64</ele>
        <time>2020-10-17T09:35:43.000Z</time>
      </trkpt>
      <trkpt lat="43.64673" lon="3.80307">
        <ele>64</ele>
        <time>2020-10-17T09:35:44.000Z</time>
      </trkpt>
      <trkpt lat="43.64672" lon="3.80314">
        <ele>64</ele>
        <time>2020-10-17T09:35:45.000Z</time>
      </trkpt>
      <trkpt lat="43.64671" lon="3.80322">
        <ele>64</ele>
        <time>2020-10-17T09:35:46.000Z</time>
      </trkpt>
      <trkpt lat="43.64671" lon="3.80329">
        <ele>64</ele>
        <time>2020-10-17T09:35:47.000Z</time>
      </trkpt>
      <trkpt lat="43.6467" lon="3.80335">
        <ele>64</ele>
        <time>2020-10-17T09:35:48.000Z</time>
      </trkpt>
      <trkpt lat="43.6467" lon="3.80342">
        <ele>64</ele>
        <time>2020-10-17T09:35:49.000Z</time>
      </trkpt>
      <trkpt lat="43.64669" lon="3.80348">
        <ele>64</ele>
        <time>2020-10-17T09:35:50.000Z</time>
      </trkpt>
      <trkpt lat="43.64669" lon="3.80354">
        <ele>64</ele>
        <time>2020-10-17T09:35:51.000Z</time>
      </trkpt>
      <trkpt lat="43.64669" lon="3.8036">
        <ele>64</ele>
        <time>2020-10-17T09:35:52.000Z</time>
      </trkpt>
      <trkpt lat="43.64668" lon="3.80366">
        <ele>64</ele>
        <time>2020-10-17T09:35:53.000Z</time>
      </trkpt>
      <trkpt lat="43.64668" lon="3.80372">
        <ele>64</ele>
        <time>2020-10-17T09:35:54.000Z</time>
      </trkpt>
      <trkpt lat="43.64668" lon="3.80378">
        <ele>64</ele>
        <time>2020-10-17T09:35:55.000Z</time>
      </trkpt>
      <trkpt lat="43.64667" lon="3.80383">
        <ele>64</ele>
        <time>2020-10-17T09:35:56.000Z</time>
      </trkpt>
      <trkpt lat="43.64667" lon="3.80388">
        <ele>64</ele>
        <time>2020-10-17T09:35:57.000Z</time>
      </trkpt>
      <trkpt lat="43.64666" lon="3.80393">
        <ele>64</ele>
        <time>2020-10-17T09:35:58.000Z</time>
      </trkpt>
      <trkpt lat="43.64666" lon="3.80398">
        <ele>64</ele>
        <time>2020-10-17T09:35:59.000Z</time>
      </trkpt>
      <trkpt lat="43.64665" lon="3.80402">
        <ele>64</ele>
        <time>2020-10-17T09:36:00.000Z</time>
      </trkpt>
      <trkpt lat="43.64664" lon="3.80406">
        <ele>63.973026644724</ele>
        <time>2020-10-17T09:36:01.000Z</time>
      </trkpt>
      <trkpt lat="43.64664" lon="3.8041">
        <ele>63.873126512888</ele>
        <time>2020-10-17T09:36:02.000Z</time>
      </trkpt>
      <trkpt lat="43.64663" lon="3.80414">
        <ele>63.773226381051</ele>
        <time>2020-10-17T09:36:03.000Z</time>
      </trkpt>
      <trkpt lat="43.64663" lon="3.80419">
        <ele>63.673326249215</ele>
        <time>2020-10-17T09:36:04.000Z</time>
      </trkpt>
      <trkpt lat="43.64662" lon="3.80423">
        <ele>63.573426117379</ele>
        <time>2020-10-17T09:36:05.000Z</time>
      </trkpt>
      <trkpt lat="43.64662" lon="3.80428">
        <ele>63.473525985543</ele>
        <time>2020-10-17T09:36:06.000Z</time>
      </trkpt>
      <trkpt lat="43.64662" lon="3.80432">
        <ele>63.373625853707</ele>
        <time>2020-10-17T09:36:07.000Z</time>
      </trkpt>
      <trkpt lat="43.64662" lon="3.80437">
        <ele>63.27372572187</ele>
        <time>2020-10-17T09:36:08.000Z</time>
      </trkpt>
      <trkpt lat="43.64662" lon="3.8044">
        <ele>63.173825590034</ele>
        <time>2020-10-17T09:36:09.000Z</time>
      </trkpt>
      <trkpt lat="43.64662" lon="3.80444">
        <ele>63.073925458198</ele>
        <time>2020-10-17T09:36:10.000Z</time>
      </trkpt>
      <trkpt lat="43.64663" lon="3.80448">
        <ele>63</ele>
        <time>2020-10-17T09:36:11.000Z</time>
      </trkpt>
      <trkpt lat="43.64664" lon="3.80451">
        <ele>63</ele>
        <time>2020-10-17T09:36:12.000Z</time>
      </trkpt>
      <trkpt lat="43.64664" lon="3.80455">
        <ele>63</ele>
        <time>2020-10-17T09:36:13.000Z</time>
      </trkpt>
      <trkpt lat="43.64665" lon="3.80459">
        <ele>63</ele>
        <time>2020-10-17T09:36:14.000Z</time>
      </trkpt>
      <trkpt lat="43.64665" lon="3.80463">
        <ele>63</ele>
        <time>2020-10-17T09:36:15.000Z</time>
      </trkpt>
      <trkpt lat="43.64665" lon="3.80466">
        <ele>63</ele>
        <time>2020-10-17T09:36:16.000Z</time>
      </trkpt>
      <trkpt lat="43.64665" lon="3.8047">
        <ele>63</ele>
        <time>2020-10-17T09:36:17.000Z</time>
      </trkpt>
      <trkpt lat="43.64666" lon="3.80474">
        <ele>63</ele>
        <time>2020-10-17T09:36:18.000Z</time>
      </trkpt>
      <trkpt lat="43.64667" lon="3.80478">
        <ele>63</ele>
        <time>2020-10-17T09:36:19.000Z</time>
      </trkpt>
      <trkpt lat="43.64667" lon="3.80483">
        <ele>63</ele>
        <time>2020-10-17T09:36:20.000Z</time>
      </trkpt>
      <trkpt lat="43.64668" lon="3.80488">
        <ele>63</ele>
        <time>2020-10-17T09:36:21.000Z</time>
      </trkpt>
      <trkpt lat="43.64668" lon="3.80493">
        <ele>63</ele>
        <time>2020-10-17T09:36:22.000Z</time>
      </trkpt>
      <trkpt lat="43.64669" lon="3.80498">
        <ele>63</ele>
        <time>2020-10-17T09:36:23.000Z</time>
      </trkpt>
      <trkpt lat="43.64669" lon="3.80503">
        <ele>63</ele>
        <time>2020-10-17T09:36:24.000Z</time>
      </trkpt>
      <trkpt lat="43.6467" lon="3.80508">
        <ele>63</ele>
        <time>2020-10-17T09:36:25.000Z</time>
      </trkpt>
      <trkpt lat="43.6467" lon="3.80513">
        <ele>63</ele>
        <time>2020-10-17T09:36:26.000Z</time>
      </trkpt>
      <trkpt lat="43.64671" lon="3.80518">
        <ele>63</ele>
        <time>2020-10-17T09:36:27.000Z</time>
      </trkpt>
      <trkpt lat="43.64671" lon="3.80523">
        <ele>63</ele>
        <time>2020-10-17T09:36:28.000Z</time>
      </trkpt>
      <trkpt lat="43.64672" lon="3.80527">
        <ele>63</ele>
        <time>2020-10-17T09:36:29.000Z</time>
      </trkpt>
      <trkpt lat="43.64673" lon="3.80532">
        <ele>63</ele>
        <time>2020-10-17T09:36:30.000Z</time>
      </trkpt>
      <trkpt lat="43.64673" lon="3.80536">
        <ele>63</ele>
        <time>2020-10-17T09:36:31.000Z</time>
      </trkpt>
      <trkpt lat="43.64674" lon="3.80541">
        <ele>63</ele>
        <time>2020-10-17T09:36:32.000Z</time>
      </trkpt>
      <trkpt lat="43.64674" lon="3.80547">
        <ele>63</ele>
        <time>2020-10-17T09:36:33.000Z</time>
      </trkpt>
      <trkpt lat="43.64674" lon="3.80552">
        <ele>63</ele>
        <time>2020-10-17T09:36:34.000Z</time>
      </trkpt>
      <trkpt lat="43.64675" lon="3.80557">
        <ele>63</ele>
        <time>2020-10-17T09:36:35.000Z</time>
      </trkpt>
      <trkpt lat="43.64675" lon="3.80562">
        <ele>63</ele>
        <time>2020-10-17T09:36:36.000Z</time>
      </trkpt>
      <trkpt lat="43.64676" lon="3.80567">
        <ele>63</ele>
        <time>2020-10-17T09:36:37.000Z</time>
      </trkpt>
      <trkpt lat="43.64676" lon="3.80572">
        <ele>63</ele>
        <time>2020-10-17T09:36:38.000Z</time>
      </trkpt>
      <trkpt lat="43.64677" lon="3.80577">
        <ele>63</ele>
        <time>2020-10-17T09:36:39.000Z</time>
      </trkpt>
      <trkpt lat="43.64677" lon="3.80581">
        <ele>63</ele>
        <time>2020-10-17T09:36:40.000Z</time>
      </trkpt>
      <trkpt lat="43.64677" lon="3.80585">
        <ele>62.973222830658</ele>
        <time>2020-10-17T09:36:41.000Z</time>
      </trkpt>
      <trkpt lat="43.64677" lon="3.8059">
        <ele>62.870236252857</ele>
        <time>2020-10-17T09:36:42.000Z</time>
      </trkpt>
      <trkpt lat="43.64678" lon="3.80594">
        <ele>62.767249675057</ele>
        <time>2020-10-17T09:36:43.000Z</time>
      </trkpt>
      <trkpt lat="43.64678" lon="3.80598">
        <ele>62.664263097256</ele>
        <time>2020-10-17T09:36:44.000Z</time>
      </trkpt>
      <trkpt lat="43.64678" lon="3.80602">
        <ele>62.561276519456</ele>
        <time>2020-10-17T09:36:45.000Z</time>
      </trkpt>
      <trkpt lat="43.64678" lon="3.80605">
        <ele>62.458289941655</ele>
        <time>2020-10-17T09:36:46.000Z</time>
      </trkpt>
      <trkpt lat="43.64679" lon="3.80609">
        <ele>62.355303363855</ele>
        <time>2020-10-17T09:36:47.000Z</time>
      </trkpt>
      <trkpt lat="43.64679" lon="3.80613">
        <ele>62.252316786054</ele>
        <time>2020-10-17T09:36:48.000Z</time>
      </trkpt>
      <trkpt lat="43.64679" lon="3.80617">
        <ele>62.149330208254</ele>
        <time>2020-10-17T09:36:49.000Z</time>
      </trkpt>
      <trkpt lat="43.6468" lon="3.80621">
        <ele>62.046343630453</ele>
        <time>2020-10-17T09:36:50.000Z</time>
      </trkpt>
      <trkpt lat="43.6468" lon="3.80625">
        <ele>62</ele>
        <time>2020-10-17T09:36:51.000Z</time>
      </trkpt>
      <trkpt lat="43.6468" lon="3.80629">
        <ele>62</ele>
        <time>2020-10-17T09:36:52.000Z</time>
      </trkpt>
      <trkpt lat="43.6468" lon="3.80634">
        <ele>62</ele>
        <time>2020-10-17T09:36:53.000Z</time>
      </trkpt>
      <trkpt lat="43.6468" lon="3.80638">
        <ele>62</ele>
        <time>2020-10-17T09:36:54.000Z</time>
      </trkpt>
      <trkpt lat="43.6468" lon="3.80642">
        <ele>62</ele>
        <time>2020-10-17T09:36:55.000Z</time>
      </trkpt>
      <trkpt lat="43.64679" lon="3.80647">
        <ele>62</ele>
        <time>2020-10-17T09:36:56.000Z</time>
      </trkpt>
      <trkpt lat="43.64679" lon="3.80651">
        <ele>62</ele>
        <time>2020-10-17T09:36:57.000Z</time>
      </trkpt>
      <trkpt lat="43.64678" lon="3.80656">
        <ele>62</ele>
        <time>2020-10-17T09:36:58.000Z</time>
      </trkpt>
      <trkpt lat="43.64678" lon="3.8066">
        <ele>62</ele>
        <time>2020-10-17T09:36:59.000Z</time>
      </trkpt>
      <trkpt lat="43.64678" lon="3.80664">
        <ele>62</ele>
        <time>2020-10-17T09:37:00.000Z</time>
      </trkpt>
      <trkpt lat="43.64677" lon="3.80669">
        <ele>62.05500032</ele>
        <time>2020-10-17T09:37:01.000Z</time>
      </trkpt>
      <trkpt lat="43.64677" lon="3.80674">
        <ele>62.15500032</ele>
        <time>2020-10-17T09:37:02.000Z</time>
      </trkpt>
      <trkpt lat="43.64677" lon="3.80678">
        <ele>62.25500032</ele>
        <time>2020-10-17T09:37:03.000Z</time>
      </trkpt>
      <trkpt lat="43.64677" lon="3.80682">
        <ele>62.35500032</ele>
        <time>2020-10-17T09:37:04.000Z</time>
      </trkpt>
      <trkpt lat="43.64677" lon="3.80687">
        <ele>62.45500032</ele>
        <time>2020-10-17T09:37:05.000Z</time>
      </trkpt>
      <trkpt lat="43.64677" lon="3.80692">
        <ele>62.55500032</ele>
        <time>2020-10-17T09:37:06.000Z</time>
      </trkpt>
      <trkpt lat="43.64676" lon="3.80696">
        <ele>62.65500032</ele>
        <time>2020-10-17T09:37:07.000Z</time>
      </trkpt>
      <trkpt lat="43.64675" lon="3.80701">
        <ele>62.75500032</ele>
        <time>2020-10-17T09:37:08.000Z</time>
      </trkpt>
      <trkpt lat="43.64674" lon="3.80705">
        <ele>62.85500032</ele>
        <time>2020-10-17T09:37:09.000Z</time>
      </trkpt>
      <trkpt lat="43.64672" lon="3.8071">
        <ele>62.95500032</ele>
        <time>2020-10-17T09:37:10.000Z</time>
      </trkpt>
      <trkpt lat="43.64671" lon="3.80714">
        <ele>63.054945321931</ele>
        <time>2020-10-17T09:37:11.000Z</time>
      </trkpt>
      <trkpt lat="43.6467" lon="3.80718">
        <ele>63.154845326023</ele>
        <time>2020-10-17T09:37:12.000Z</time>
      </trkpt>
      <trkpt lat="43.64669" lon="3.80722">
        <ele>63.254745330114</ele>
        <time>2020-10-17T09:37:13.000Z</time>
      </trkpt>
      <trkpt lat="43.64668" lon="3.80727">
        <ele>63.354645334206</ele>
        <time>2020-10-17T09:37:14.000Z</time>
      </trkpt>
      <trkpt lat="43.64668" lon="3.80731">
        <ele>63.454545338298</ele>
        <time>2020-10-17T09:37:15.000Z</time>
      </trkpt>
      <trkpt lat="43.64667" lon="3.80735">
        <ele>63.55444534239</ele>
        <time>2020-10-17T09:37:16.000Z</time>
      </trkpt>
      <trkpt lat="43.64666" lon="3.8074">
        <ele>63.654345346482</ele>
        <time>2020-10-17T09:37:17.000Z</time>
      </trkpt>
      <trkpt lat="43.64665" lon="3.80744">
        <ele>63.754245350574</ele>
        <time>2020-10-17T09:37:18.000Z</time>
      </trkpt>
      <trkpt lat="43.64665" lon="3.80748">
        <ele>63.854145354666</ele>
        <time>2020-10-17T09:37:19.000Z</time>
      </trkpt>
      <trkpt lat="43.64665" lon="3.80752">
        <ele>63.954045358758</ele>
        <time>2020-10-17T09:37:20.000Z</time>
      </trkpt>
      <trkpt lat="43.64665" lon="3.80755">
        <ele>64</ele>
        <time>2020-10-17T09:37:21.000Z</time>
      </trkpt>
      <trkpt lat="43.64664" lon="3.80758">
        <ele>64</ele>
        <time>2020-10-17T09:37:22.000Z</time>
      </trkpt>
      <trkpt lat="43.64663" lon="3.80762">
        <ele>64</ele>
        <time>2020-10-17T09:37:23.000Z</time>
      </trkpt>
      <trkpt lat="43.64662" lon="3.80765">
        <ele>64</ele>
        <time>2020-10-17T09:37:24.000Z</time>
      </trkpt>
      <trkpt lat="43.64661" lon="3.80769">
        <ele>64</ele>
        <time>2020-10-17T09:37:25.000Z</time>
      </trkpt>
      <trkpt lat="43.64659" lon="3.80772">
        <ele>64</ele>
        <time>2020-10-17T09:37:26.000Z</time>
      </trkpt>
      <trkpt lat="43.64658" lon="3.80776">
        <ele>64</ele>
        <time>2020-10-17T09:37:27.000Z</time>
      </trkpt>
      <trkpt lat="43.64657" lon="3.8078">
        <ele>64</ele>
        <time>2020-10-17T09:37:28.000Z</time>
      </trkpt>
      <trkpt lat="43.64655" lon="3.80785">
        <ele>64</ele>
        <time>2020-10-17T09:37:29.000Z</time>
      </trkpt>
      <trkpt lat="43.64654" lon="3.80789">
        <ele>64</ele>
        <time>2020-10-17T09:37:30.000Z</time>
      </trkpt>
      <trkpt lat="43.64652" lon="3.80793">
        <ele>64</ele>
        <time>2020-10-17T09:37:31.000Z</time>
      </trkpt>
      <trkpt lat="43.6465" lon="3.80797">
        <ele>64</ele>
        <time>2020-10-17T09:37:32.000Z</time>
      </trkpt>
      <trkpt lat="43.64649" lon="3.80802">
        <ele>64</ele>
        <time>2020-10-17T09:37:33.000Z</time>
      </trkpt>
      <trkpt lat="43.64647" lon="3.80806">
        <ele>64</ele>
        <time>2020-10-17T09:37:34.000Z</time>
      </trkpt>
      <trkpt lat="43.64645" lon="3.8081">
        <ele>64</ele>
        <time>2020-10-17T09:37:35.000Z</time>
      </trkpt>
      <trkpt lat="43.64644" lon="3.80814">
        <ele>64</ele>
        <time>2020-10-17T09:37:36.000Z</time>
      </trkpt>
      <trkpt lat="43.64642" lon="3.80818">
        <ele>64</ele>
        <time>2020-10-17T09:37:37.000Z</time>
      </trkpt>
      <trkpt lat="43.64641" lon="3.80823">
        <ele>64</ele>
        <time>2020-10-17T09:37:38.000Z</time>
      </trkpt>
      <trkpt lat="43.6464" lon="3.80828">
        <ele>64</ele>
        <time>2020-10-17T09:37:39.000Z</time>
      </trkpt>
      <trkpt lat="43.64638" lon="3.80832">
        <ele>64</ele>
        <time>2020-10-17T09:37:40.000Z</time>
      </trkpt>
      <trkpt lat="43.64637" lon="3.80837">
        <ele>64.05500032</ele>
        <time>2020-10-17T09:37:41.000Z</time>
      </trkpt>
      <trkpt lat="43.64636" lon="3.80842">
        <ele>64.15500032</ele>
        <time>2020-10-17T09:37:42.000Z</time>
      </trkpt>
      <trkpt lat="43.64635" lon="3.80847">
        <ele>64.25500032</ele>
        <time>2020-10-17T09:37:43.000Z</time>
      </trkpt>
      <trkpt lat="43.64634" lon="3.80852">
        <ele>64.35500032</ele>
        <time>2020-10-17T09:37:44.000Z</time>
      </trkpt>
      <trkpt lat="43.64633" lon="3.80857">
        <ele>64.45500032</ele>
        <time>2020-10-17T09:37:45.000Z</time>
      </trkpt>
      <trkpt lat="43.64632" lon="3.80862">
        <ele>64.55500032</ele>
        <time>2020-10-17T09:37:46.000Z</time>
      </trkpt>
      <trkpt lat="43.64631" lon="3.80867">
        <ele>64.65500032</ele>
        <time>2020-10-17T09:37:47.000Z</time>
      </trkpt>
      <trkpt lat="43.6463" lon="3.80872">
        <ele>64.75500032</ele>
        <time>2020-10-17T09:37:48.000Z</time>
      </trkpt>
      <trkpt lat="43.64628" lon="3.80877">
        <ele>64.85500032</ele>
        <time>2020-10-17T09:37:49.000Z</time>
      </trkpt>
      <trkpt lat="43.64627" lon="3.80882">
        <ele>64.95500032</ele>
        <time>2020-10-17T09:37:50.000Z</time>
      </trkpt>
      <trkpt lat="43.64626" lon="3.80887">
        <ele>65</ele>
        <time>2020-10-17T09:37:51.000Z</time>
      </trkpt>
      <trkpt lat="43.64625" lon="3.80892">
        <ele>65</ele>
        <time>2020-10-17T09:37:52.000Z</time>
      </trkpt>
      <trkpt lat="43.64624" lon="3.80897">
        <ele>65</ele>
        <time>2020-10-17T09:37:53.000Z</time>
      </trkpt>
      <trkpt lat="43.64623" lon="3.80901">
        <ele>65</ele>
        <time>2020-10-17T09:37:54.000Z</time>
      </trkpt>
      <trkpt lat="43.64622" lon="3.80906">
        <ele>65</ele>
        <time>2020-10-17T09:37:55.000Z</time>
      </trkpt>
      <trkpt lat="43.6462" lon="3.8091">
        <ele>65</ele>
        <time>2020-10-17T09:37:56.000Z</time>
      </trkpt>
      <trkpt lat="43.64619" lon="3.80914">
        <ele>65</ele>
        <time>2020-10-17T09:37:57.000Z</time>
      </trkpt>
      <trkpt lat="43.64618" lon="3.80918">
        <ele>65</ele>
        <time>2020-10-17T09:37:58.000Z</time>
      </trkpt>
      <trkpt lat="43.64617" lon="3.80921">
        <ele>65</ele>
        <time>2020-10-17T09:37:59.000Z</time>
      </trkpt>
      <trkpt lat="43.64617" lon="3.80925">
        <ele>65</ele>
        <time>2020-10-17T09:38:00.000Z</time>
      </trkpt>
      <trkpt lat="43.64616" lon="3.80929">
        <ele>65</ele>
        <time>2020-10-17T09:38:01.000Z</time>
      </trkpt>
      <trkpt lat="43.64615" lon="3.80932">
        <ele>65</ele>
        <time>2020-10-17T09:38:02.000Z</time>
      </trkpt>
      <trkpt lat="43.64615" lon="3.80936">
        <ele>65</ele>
        <time>2020-10-17T09:38:03.000Z</time>
      </trkpt>
      <trkpt lat="43.64614" lon="3.8094">
        <ele>65</ele>
        <time>2020-10-17T09:38:04.000Z</time>
      </trkpt>
      <trkpt lat="43.64613" lon="3.80943">
        <ele>65</ele>
        <time>2020-10-17T09:38:05.000Z</time>
      </trkpt>
      <trkpt lat="43.64612" lon="3.80947">
        <ele>65</ele>
        <time>2020-10-17T09:38:06.000Z</time>
      </trkpt>
      <trkpt lat="43.64611" lon="3.80951">
        <ele>65</ele>
        <time>2020-10-17T09:38:07.000Z</time>
      </trkpt>
      <trkpt lat="43.6461" lon="3.80956">
        <ele>65</ele>
        <time>2020-10-17T09:38:08.000Z</time>
      </trkpt>
      <trkpt lat="43.64609" lon="3.8096">
        <ele>65</ele>
        <time>2020-10-17T09:38:09.000Z</time>
      </trkpt>
      <trkpt lat="43.64608" lon="3.80963">
        <ele>65</ele>
        <time>2020-10-17T09:38:10.000Z</time>
      </trkpt>
      <trkpt lat="43.64608" lon="3.80967">
        <ele>65</ele>
        <time>2020-10-17T09:38:11.000Z</time>
      </trkpt>
      <trkpt lat="43.64607" lon="3.80971">
        <ele>65</ele>
        <time>2020-10-17T09:38:12.000Z</time>
      </trkpt>
      <trkpt lat="43.64606" lon="3.80975">
        <ele>65</ele>
        <time>2020-10-17T09:38:13.000Z</time>
      </trkpt>
      <trkpt lat="43.64605" lon="3.8098">
        <ele>65</ele>
        <time>2020-10-17T09:38:14.000Z</time>
      </trkpt>
      <trkpt lat="43.64604" lon="3.80984">
        <ele>65</ele>
        <time>2020-10-17T09:38:15.000Z</time>
      </trkpt>
      <trkpt lat="43.64603" lon="3.80988">
        <ele>65</ele>
        <time>2020-10-17T09:38:16.000Z</time>
      </trkpt>
      <trkpt lat="43.64602" lon="3.80991">
        <ele>65</ele>
        <time>2020-10-17T09:38:17.000Z</time>
      </trkpt>
      <trkpt lat="43.64601" lon="3.80995">
        <ele>65</ele>
        <time>2020-10-17T09:38:18.000Z</time>
      </trkpt>
      <trkpt lat="43.646" lon="3.80999">
        <ele>65</ele>
        <time>2020-10-17T09:38:19.000Z</time>
      </trkpt>
      <trkpt lat="43.64599" lon="3.81003">
        <ele>65</ele>
        <time>2020-10-17T09:38:20.000Z</time>
      </trkpt>
      <trkpt lat="43.64598" lon="3.81006">
        <ele>64.946549720987</ele>
        <time>2020-10-17T09:38:21.000Z</time>
      </trkpt>
      <trkpt lat="43.64597" lon="3.8101">
        <ele>64.849367960931</ele>
        <time>2020-10-17T09:38:22.000Z</time>
      </trkpt>
      <trkpt lat="43.64596" lon="3.81014">
        <ele>64.752186200874</ele>
        <time>2020-10-17T09:38:23.000Z</time>
      </trkpt>
      <trkpt lat="43.64595" lon="3.81017">
        <ele>64.655004440818</ele>
        <time>2020-10-17T09:38:24.000Z</time>
      </trkpt>
      <trkpt lat="43.64593" lon="3.81019">
        <ele>64.557822680761</ele>
        <time>2020-10-17T09:38:25.000Z</time>
      </trkpt>
      <trkpt lat="43.64591" lon="3.81022">
        <ele>64.460640920705</ele>
        <time>2020-10-17T09:38:26.000Z</time>
      </trkpt>
      <trkpt lat="43.64588" lon="3.81024">
        <ele>64.363459160648</ele>
        <time>2020-10-17T09:38:27.000Z</time>
      </trkpt>
      <trkpt lat="43.64586" lon="3.81027">
        <ele>64.266277400592</ele>
        <time>2020-10-17T09:38:28.000Z</time>
      </trkpt>
      <trkpt lat="43.64585" lon="3.81031">
        <ele>64.169095640535</ele>
        <time>2020-10-17T09:38:29.000Z</time>
      </trkpt>
      <trkpt lat="43.64584" lon="3.81036">
        <ele>64.071913880479</ele>
        <time>2020-10-17T09:38:30.000Z</time>
      </trkpt>
      <trkpt lat="43.64585" lon="3.8104">
        <ele>64</ele>
        <time>2020-10-17T09:38:31.000Z</time>
      </trkpt>
      <trkpt lat="43.64586" lon="3.81043">
        <ele>64</ele>
        <time>2020-10-17T09:38:32.000Z</time>
      </trkpt>
      <trkpt lat="43.64587" lon="3.81046">
        <ele>64</ele>
        <time>2020-10-17T09:38:33.000Z</time>
      </trkpt>
      <trkpt lat="43.64588" lon="3.81049">
        <ele>64</ele>
        <time>2020-10-17T09:38:34.000Z</time>
      </trkpt>
      <trkpt lat="43.6459" lon="3.81052">
        <ele>64</ele>
        <time>2020-10-17T09:38:35.000Z</time>
      </trkpt>
      <trkpt lat="43.64591" lon="3.81056">
        <ele>64</ele>
        <time>2020-10-17T09:38:36.000Z</time>
      </trkpt>
      <trkpt lat="43.64593" lon="3.81059">
        <ele>64</ele>
        <time>2020-10-17T09:38:37.000Z</time>
      </trkpt>
      <trkpt lat="43.64594" lon="3.81063">
        <ele>64</ele>
        <time>2020-10-17T09:38:38.000Z</time>
      </trkpt>
      <trkpt lat="43.64595" lon="3.81067">
        <ele>64</ele>
        <time>2020-10-17T09:38:39.000Z</time>
      </trkpt>
      <trkpt lat="43.64595" lon="3.81072">
        <ele>64</ele>
        <time>2020-10-17T09:38:40.000Z</time>
      </trkpt>
      <trkpt lat="43.64594" lon="3.81076">
        <ele>63.945946534643</ele>
        <time>2020-10-17T09:38:41.000Z</time>
      </trkpt>
      <trkpt lat="43.64594" lon="3.81081">
        <ele>63.845846338351</ele>
        <time>2020-10-17T09:38:42.000Z</time>
      </trkpt>
      <trkpt lat="43.64593" lon="3.81086">
        <ele>63.745746142058</ele>
        <time>2020-10-17T09:38:43.000Z</time>
      </trkpt>
      <trkpt lat="43.64593" lon="3.81091">
        <ele>63.645645945766</ele>
        <time>2020-10-17T09:38:44.000Z</time>
      </trkpt>
      <trkpt lat="43.64592" lon="3.81097">
        <ele>63.545545749473</ele>
        <time>2020-10-17T09:38:45.000Z</time>
      </trkpt>
      <trkpt lat="43.64592" lon="3.81102">
        <ele>63.445445553181</ele>
        <time>2020-10-17T09:38:46.000Z</time>
      </trkpt>
      <trkpt lat="43.64591" lon="3.81106">
        <ele>63.345345356888</ele>
        <time>2020-10-17T09:38:47.000Z</time>
      </trkpt>
      <trkpt lat="43.64591" lon="3.81111">
        <ele>63.245245160596</ele>
        <time>2020-10-17T09:38:48.000Z</time>
      </trkpt>
      <trkpt lat="43.6459" lon="3.81115">
        <ele>63.145144964303</ele>
        <time>2020-10-17T09:38:49.000Z</time>
      </trkpt>
      <trkpt lat="43.6459" lon="3.8112">
        <ele>63.045044768011</ele>
        <time>2020-10-17T09:38:50.000Z</time>
      </trkpt>
      <trkpt lat="43.64589" lon="3.81124">
        <ele>63.05500032</ele>
        <time>2020-10-17T09:38:51.000Z</time>
      </trkpt>
      <trkpt lat="43.64589" lon="3.81129">
        <ele>63.15500032</ele>
        <time>2020-10-17T09:38:52.000Z</time>
      </trkpt>
      <trkpt lat="43.64588" lon="3.81134">
        <ele>63.25500032</ele>
        <time>2020-10-17T09:38:53.000Z</time>
      </trkpt>
      <trkpt lat="43.64588" lon="3.81139">
        <ele>63.35500032</ele>
        <time>2020-10-17T09:38:54.000Z</time>
      </trkpt>
      <trkpt lat="43.64588" lon="3.81144">
        <ele>63.45500032</ele>
        <time>2020-10-17T09:38:55.000Z</time>
      </trkpt>
      <trkpt lat="43.64588" lon="3.81149">
        <ele>63.55500032</ele>
        <time>2020-10-17T09:38:56.000Z</time>
      </trkpt>
      <trkpt lat="43.64587" lon="3.81153">
        <ele>63.65500032</ele>
        <time>2020-10-17T09:38:57.000Z</time>
      </trkpt>
      <trkpt lat="43.64586" lon="3.81158">
        <ele>63.75500032</ele>
        <time>2020-10-17T09:38:58.000Z</time>
      </trkpt>
      <trkpt lat="43.64585" lon="3.81161">
        <ele>63.85500032</ele>
        <time>2020-10-17T09:38:59.000Z</time>
      </trkpt>
      <trkpt lat="43.64584" lon="3.81165">
        <ele>63.95500032</ele>
        <time>2020-10-17T09:39:00.000Z</time>
      </trkpt>
      <trkpt lat="43.64583" lon="3.81169">
        <ele>64</ele>
        <time>2020-10-17T09:39:01.000Z</time>
      </trkpt>
      <trkpt lat="43.64582" lon="3.81173">
        <ele>64</ele>
        <time>2020-10-17T09:39:02.000Z</time>
      </trkpt>
      <trkpt lat="43.64581" lon="3.81176">
        <ele>64</ele>
        <time>2020-10-17T09:39:03.000Z</time>
      </trkpt>
      <trkpt lat="43.6458" lon="3.8118">
        <ele>64</ele>
        <time>2020-10-17T09:39:04.000Z</time>
      </trkpt>
      <trkpt lat="43.6458" lon="3.81184">
        <ele>64</ele>
        <time>2020-10-17T09:39:05.000Z</time>
      </trkpt>
      <trkpt lat="43.6458" lon="3.81188">
        <ele>64</ele>
        <time>2020-10-17T09:39:06.000Z</time>
      </trkpt>
      <trkpt lat="43.6458" lon="3.81192">
        <ele>64</ele>
        <time>2020-10-17T09:39:07.000Z</time>
      </trkpt>
      <trkpt lat="43.64581" lon="3.81195">
        <ele>64</ele>
        <time>2020-10-17T09:39:08.000Z</time>
      </trkpt>
      <trkpt lat="43.64583" lon="3.81197">
        <ele>64</ele>
        <time>2020-10-17T09:39:09.000Z</time>
      </trkpt>
      <trkpt lat="43.64585" lon="3.81199">
        <ele>64</ele>
        <time>2020-10-17T09:39:10.000Z</time>
      </trkpt>
      <trkpt lat="43.64587" lon="3.81202">
        <ele>64.05500032</ele>
        <time>2020-10-17T09:39:11.000Z</time>
      </trkpt>
      <trkpt lat="43.64588" lon="3.81205">
        <ele>64.15500032</ele>
        <time>2020-10-17T09:39:12.000Z</time>
      </trkpt>
      <trkpt lat="43.64589" lon="3.81209">
        <ele>64.25500032</ele>
        <time>2020-10-17T09:39:13.000Z</time>
      </trkpt>
      <trkpt lat="43.64589" lon="3.81214">
        <ele>64.35500032</ele>
        <time>2020-10-17T09:39:14.000Z</time>
      </trkpt>
      <trkpt lat="43.64588" lon="3.81218">
        <ele>64.45500032</ele>
        <time>2020-10-17T09:39:15.000Z</time>
      </trkpt>
      <trkpt lat="43.64588" lon="3.81223">
        <ele>64.55500032</ele>
        <time>2020-10-17T09:39:16.000Z</time>
      </trkpt>
      <trkpt lat="43.64588" lon="3.81227">
        <ele>64.65500032</ele>
        <time>2020-10-17T09:39:17.000Z</time>
      </trkpt>
      <trkpt lat="43.64588" lon="3.81231">
        <ele>64.75500032</ele>
        <time>2020-10-17T09:39:18.000Z</time>
      </trkpt>
      <trkpt lat="43.64588" lon="3.81235">
        <ele>64.85500032</ele>
        <time>2020-10-17T09:39:19.000Z</time>
      </trkpt>
      <trkpt lat="43.64588" lon="3.81238">
        <ele>64.95500032</ele>
        <time>2020-10-17T09:39:20.000Z</time>
      </trkpt>
      <trkpt lat="43.64588" lon="3.81242">
        <ele>65</ele>
        <time>2020-10-17T09:39:21.000Z</time>
      </trkpt>
      <trkpt lat="43.64588" lon="3.81246">
        <ele>65</ele>
        <time>2020-10-17T09:39:22.000Z</time>
      </trkpt>
      <trkpt lat="43.64588" lon="3.8125">
        <ele>65</ele>
        <time>2020-10-17T09:39:23.000Z</time>
      </trkpt>
      <trkpt lat="43.64588" lon="3.81254">
        <ele>65</ele>
        <time>2020-10-17T09:39:24.000Z</time>
      </trkpt>
      <trkpt lat="43.64588" lon="3.81258">
        <ele>65</ele>
        <time>2020-10-17T09:39:25.000Z</time>
      </trkpt>
      <trkpt lat="43.64588" lon="3.81261">
        <ele>65</ele>
        <time>2020-10-17T09:39:26.000Z</time>
      </trkpt>
      <trkpt lat="43.64588" lon="3.81265">
        <ele>65</ele>
        <time>2020-10-17T09:39:27.000Z</time>
      </trkpt>
      <trkpt lat="43.64589" lon="3.81269">
        <ele>65</ele>
        <time>2020-10-17T09:39:28.000Z</time>
      </trkpt>
      <trkpt lat="43.64589" lon="3.81273">
        <ele>65</ele>
        <time>2020-10-17T09:39:29.000Z</time>
      </trkpt>
      <trkpt lat="43.64589" lon="3.81277">
        <ele>65</ele>
        <time>2020-10-17T09:39:30.000Z</time>
      </trkpt>
      <trkpt lat="43.64589" lon="3.81281">
        <ele>65.05500032</ele>
        <time>2020-10-17T09:39:31.000Z</time>
      </trkpt>
      <trkpt lat="43.64589" lon="3.81284">
        <ele>65.15500032</ele>
        <time>2020-10-17T09:39:32.000Z</time>
      </trkpt>
      <trkpt lat="43.64589" lon="3.81288">
        <ele>65.25500032</ele>
        <time>2020-10-17T09:39:33.000Z</time>
      </trkpt>
      <trkpt lat="43.64589" lon="3.81292">
        <ele>65.35500032</ele>
        <time>2020-10-17T09:39:34.000Z</time>
      </trkpt>
      <trkpt lat="43.64589" lon="3.81295">
        <ele>65.45500032</ele>
        <time>2020-10-17T09:39:35.000Z</time>
      </trkpt>
      <trkpt lat="43.64589" lon="3.81299">
        <ele>65.55500032</ele>
        <time>2020-10-17T09:39:36.000Z</time>
      </trkpt>
      <trkpt lat="43.64589" lon="3.81303">
        <ele>65.65500032</ele>
        <time>2020-10-17T09:39:37.000Z</time>
      </trkpt>
      <trkpt lat="43.64589" lon="3.81307">
        <ele>65.75500032</ele>
        <time>2020-10-17T09:39:38.000Z</time>
      </trkpt>
      <trkpt lat="43.64589" lon="3.8131">
        <ele>65.85500032</ele>
        <time>2020-10-17T09:39:39.000Z</time>
      </trkpt>
      <trkpt lat="43.6459" lon="3.81314">
        <ele>65.95500032</ele>
        <time>2020-10-17T09:39:40.000Z</time>
      </trkpt>
      <trkpt lat="43.6459" lon="3.81318">
        <ele>66.05500032</ele>
        <time>2020-10-17T09:39:41.000Z</time>
      </trkpt>
      <trkpt lat="43.6459" lon="3.81322">
        <ele>66.15500032</ele>
        <time>2020-10-17T09:39:42.000Z</time>
      </trkpt>
      <trkpt lat="43.6459" lon="3.81326">
        <ele>66.25500032</ele>
        <time>2020-10-17T09:39:43.000Z</time>
      </trkpt>
      <trkpt lat="43.6459" lon="3.81329">
        <ele>66.35500032</ele>
        <time>2020-10-17T09:39:44.000Z</time>
      </trkpt>
      <trkpt lat="43.64591" lon="3.81333">
        <ele>66.45500032</ele>
        <time>2020-10-17T09:39:45.000Z</time>
      </trkpt>
      <trkpt lat="43.64591" lon="3.81337">
        <ele>66.55500032</ele>
        <time>2020-10-17T09:39:46.000Z</time>
      </trkpt>
      <trkpt lat="43.64591" lon="3.81341">
        <ele>66.65500032</ele>
        <time>2020-10-17T09:39:47.000Z</time>
      </trkpt>
      <trkpt lat="43.64591" lon="3.81344">
        <ele>66.75500032</ele>
        <time>2020-10-17T09:39:48.000Z</time>
      </trkpt>
      <trkpt lat="43.64591" lon="3.81348">
        <ele>66.85500032</ele>
        <time>2020-10-17T09:39:49.000Z</time>
      </trkpt>
      <trkpt lat="43.64591" lon="3.81352">
        <ele>66.95500032</ele>
        <time>2020-10-17T09:39:50.000Z</time>
      </trkpt>
      <trkpt lat="43.64591" lon="3.81355">
        <ele>67.05500032</ele>
        <time>2020-10-17T09:39:51.000Z</time>
      </trkpt>
      <trkpt lat="43.64592" lon="3.81359">
        <ele>67.15500032</ele>
        <time>2020-10-17T09:39:52.000Z</time>
      </trkpt>
      <trkpt lat="43.64592" lon="3.81363">
        <ele>67.25500032</ele>
        <time>2020-10-17T09:39:53.000Z</time>
      </trkpt>
      <trkpt lat="43.64592" lon="3.81367">
        <ele>67.35500032</ele>
        <time>2020-10-17T09:39:54.000Z</time>
      </trkpt>
      <trkpt lat="43.64592" lon="3.8137">
        <ele>67.45500032</ele>
        <time>2020-10-17T09:39:55.000Z</time>
      </trkpt>
      <trkpt lat="43.64592" lon="3.81374">
        <ele>67.55500032</ele>
        <time>2020-10-17T09:39:56.000Z</time>
      </trkpt>
      <trkpt lat="43.64592" lon="3.81378">
        <ele>67.65500032</ele>
        <time>2020-10-17T09:39:57.000Z</time>
      </trkpt>
      <trkpt lat="43.64592" lon="3.81381">
        <ele>67.75500032</ele>
        <time>2020-10-17T09:39:58.000Z</time>
      </trkpt>
      <trkpt lat="43.64592" lon="3.81385">
        <ele>67.85500032</ele>
        <time>2020-10-17T09:39:59.000Z</time>
      </trkpt>
      <trkpt lat="43.64593" lon="3.81389">
        <ele>67.95500032</ele>
        <time>2020-10-17T09:40:00.000Z</time>
      </trkpt>
      <trkpt lat="43.64593" lon="3.81393">
        <ele>68</ele>
        <time>2020-10-17T09:40:01.000Z</time>
      </trkpt>
      <trkpt lat="43.64593" lon="3.81396">
        <ele>68</ele>
        <time>2020-10-17T09:40:02.000Z</time>
      </trkpt>
      <trkpt lat="43.64593" lon="3.814">
        <ele>68</ele>
        <time>2020-10-17T09:40:03.000Z</time>
      </trkpt>
      <trkpt lat="43.64593" lon="3.81404">
        <ele>68</ele>
        <time>2020-10-17T09:40:04.000Z</time>
      </trkpt>
      <trkpt lat="43.64593" lon="3.81407">
        <ele>68</ele>
        <time>2020-10-17T09:40:05.000Z</time>
      </trkpt>
      <trkpt lat="43.64593" lon="3.81411">
        <ele>68</ele>
        <time>2020-10-17T09:40:06.000Z</time>
      </trkpt>
      <trkpt lat="43.64593" lon="3.81415">
        <ele>68</ele>
        <time>2020-10-17T09:40:07.000Z</time>
      </trkpt>
      <trkpt lat="43.64593" lon="3.81419">
        <ele>68</ele>
        <time>2020-10-17T09:40:08.000Z</time>
      </trkpt>
      <trkpt lat="43.64593" lon="3.81423">
        <ele>68</ele>
        <time>2020-10-17T09:40:09.000Z</time>
      </trkpt>
      <trkpt lat="43.64593" lon="3.81427">
        <ele>68</ele>
        <time>2020-10-17T09:40:10.000Z</time>
      </trkpt>
      <trkpt lat="43.64593" lon="3.81431">
        <ele>68.05500032</ele>
        <time>2020-10-17T09:40:11.000Z</time>
      </trkpt>
      <trkpt lat="43.64593" lon="3.81435">
        <ele>68.15500032</ele>
        <time>2020-10-17T09:40:12.000Z</time>
      </trkpt>
      <trkpt lat="43.64593" lon="3.81438">
        <ele>68.25500032</ele>
        <time>2020-10-17T09:40:13.000Z</time>
      </trkpt>
      <trkpt lat="43.64593" lon="3.81442">
        <ele>68.35500032</ele>
        <time>2020-10-17T09:40:14.000Z</time>
      </trkpt>
      <trkpt lat="43.64593" lon="3.81446">
        <ele>68.45500032</ele>
        <time>2020-10-17T09:40:15.000Z</time>
      </trkpt>
      <trkpt lat="43.64593" lon="3.8145">
        <ele>68.55500032</ele>
        <time>2020-10-17T09:40:16.000Z</time>
      </trkpt>
      <trkpt lat="43.64593" lon="3.81453">
        <ele>68.65500032</ele>
        <time>2020-10-17T09:40:17.000Z</time>
      </trkpt>
      <trkpt lat="43.64593" lon="3.81457">
        <ele>68.75500032</ele>
        <time>2020-10-17T09:40:18.000Z</time>
      </trkpt>
      <trkpt lat="43.64593" lon="3.81461">
        <ele>68.85500032</ele>
        <time>2020-10-17T09:40:19.000Z</time>
      </trkpt>
      <trkpt lat="43.64593" lon="3.81464">
        <ele>68.95500032</ele>
        <time>2020-10-17T09:40:20.000Z</time>
      </trkpt>
      <trkpt lat="43.64593" lon="3.81468">
        <ele>69.05500032</ele>
        <time>2020-10-17T09:40:21.000Z</time>
      </trkpt>
      <trkpt lat="43.64593" lon="3.81471">
        <ele>69.15500032</ele>
        <time>2020-10-17T09:40:22.000Z</time>
      </trkpt>
      <trkpt lat="43.64592" lon="3.81474">
        <ele>69.25500032</ele>
        <time>2020-10-17T09:40:23.000Z</time>
      </trkpt>
      <trkpt lat="43.64591" lon="3.81477">
        <ele>69.35500032</ele>
        <time>2020-10-17T09:40:24.000Z</time>
      </trkpt>
      <trkpt lat="43.64589" lon="3.81479">
        <ele>69.45500032</ele>
        <time>2020-10-17T09:40:25.000Z</time>
      </trkpt>
      <trkpt lat="43.64588" lon="3.81482">
        <ele>69.55500032</ele>
        <time>2020-10-17T09:40:26.000Z</time>
      </trkpt>
      <trkpt lat="43.64587" lon="3.81484">
        <ele>69.65500032</ele>
        <time>2020-10-17T09:40:27.000Z</time>
      </trkpt>
      <trkpt lat="43.64585" lon="3.81487">
        <ele>69.75500032</ele>
        <time>2020-10-17T09:40:28.000Z</time>
      </trkpt>
      <trkpt lat="43.64584" lon="3.8149">
        <ele>69.85500032</ele>
        <time>2020-10-17T09:40:29.000Z</time>
      </trkpt>
      <trkpt lat="43.64584" lon="3.81493">
        <ele>69.95500032</ele>
        <time>2020-10-17T09:40:30.000Z</time>
      </trkpt>
      <trkpt lat="43.64583" lon="3.81497">
        <ele>70.05500032</ele>
        <time>2020-10-17T09:40:31.000Z</time>
      </trkpt>
      <trkpt lat="43.64582" lon="3.815">
        <ele>70.15500032</ele>
        <time>2020-10-17T09:40:32.000Z</time>
      </trkpt>
      <trkpt lat="43.6458" lon="3.81503">
        <ele>70.25500032</ele>
        <time>2020-10-17T09:40:33.000Z</time>
      </trkpt>
      <trkpt lat="43.6458" lon="3.81506">
        <ele>70.35500032</ele>
        <time>2020-10-17T09:40:34.000Z</time>
      </trkpt>
      <trkpt lat="43.6458" lon="3.81509">
        <ele>70.45500032</ele>
        <time>2020-10-17T09:40:35.000Z</time>
      </trkpt>
      <trkpt lat="43.6458" lon="3.81512">
        <ele>70.55500032</ele>
        <time>2020-10-17T09:40:36.000Z</time>
      </trkpt>
      <trkpt lat="43.64581" lon="3.81515">
        <ele>70.65500032</ele>
        <time>2020-10-17T09:40:37.000Z</time>
      </trkpt>
      <trkpt lat="43.64582" lon="3.81517">
        <ele>70.75500032</ele>
        <time>2020-10-17T09:40:38.000Z</time>
      </trkpt>
      <trkpt lat="43.64584" lon="3.8152">
        <ele>70.85500032</ele>
        <time>2020-10-17T09:40:39.000Z</time>
      </trkpt>
      <trkpt lat="43.64586" lon="3.81522">
        <ele>70.95500032</ele>
        <time>2020-10-17T09:40:40.000Z</time>
      </trkpt>
      <trkpt lat="43.64587" lon="3.81524">
        <ele>71.05500032</ele>
        <time>2020-10-17T09:40:41.000Z</time>
      </trkpt>
      <trkpt lat="43.64589" lon="3.81526">
        <ele>71.15500032</ele>
        <time>2020-10-17T09:40:42.000Z</time>
      </trkpt>
      <trkpt lat="43.64591" lon="3.81529">
        <ele>71.25500032</ele>
        <time>2020-10-17T09:40:43.000Z</time>
      </trkpt>
      <trkpt lat="43.64592" lon="3.81531">
        <ele>71.35500032</ele>
        <time>2020-10-17T09:40:44.000Z</time>
      </trkpt>
      <trkpt lat="43.64594" lon="3.81534">
        <ele>71.45500032</ele>
        <time>2020-10-17T09:40:45.000Z</time>
      </trkpt>
      <trkpt lat="43.64595" lon="3.81537">
        <ele>71.55500032</ele>
        <time>2020-10-17T09:40:46.000Z</time>
      </trkpt>
      <trkpt lat="43.64595" lon="3.8154">
        <ele>71.65500032</ele>
        <time>2020-10-17T09:40:47.000Z</time>
      </trkpt>
      <trkpt lat="43.64595" lon="3.81543">
        <ele>71.75500032</ele>
        <time>2020-10-17T09:40:48.000Z</time>
      </trkpt>
      <trkpt lat="43.64596" lon="3.81546">
        <ele>71.85500032</ele>
        <time>2020-10-17T09:40:49.000Z</time>
      </trkpt>
      <trkpt lat="43.64596" lon="3.8155">
        <ele>71.95500032</ele>
        <time>2020-10-17T09:40:50.000Z</time>
      </trkpt>
      <trkpt lat="43.64596" lon="3.81553">
        <ele>72.05500032</ele>
        <time>2020-10-17T09:40:51.000Z</time>
      </trkpt>
      <trkpt lat="43.64597" lon="3.81556">
        <ele>72.15500032</ele>
        <time>2020-10-17T09:40:52.000Z</time>
      </trkpt>
      <trkpt lat="43.64597" lon="3.8156">
        <ele>72.25500032</ele>
        <time>2020-10-17T09:40:53.000Z</time>
      </trkpt>
      <trkpt lat="43.64597" lon="3.81563">
        <ele>72.35500032</ele>
        <time>2020-10-17T09:40:54.000Z</time>
      </trkpt>
      <trkpt lat="43.64597" lon="3.81566">
        <ele>72.45500032</ele>
        <time>2020-10-17T09:40:55.000Z</time>
      </trkpt>
      <trkpt lat="43.64597" lon="3.8157">
        <ele>72.55500032</ele>
        <time>2020-10-17T09:40:56.000Z</time>
      </trkpt>
      <trkpt lat="43.64597" lon="3.81574">
        <ele>72.65500032</ele>
        <time>2020-10-17T09:40:57.000Z</time>
      </trkpt>
      <trkpt lat="43.64597" lon="3.81577">
        <ele>72.75500032</ele>
        <time>2020-10-17T09:40:58.000Z</time>
      </trkpt>
      <trkpt lat="43.64598" lon="3.81581">
        <ele>72.85500032</ele>
        <time>2020-10-17T09:40:59.000Z</time>
      </trkpt>
      <trkpt lat="43.64598" lon="3.81584">
        <ele>72.95500032</ele>
        <time>2020-10-17T09:41:00.000Z</time>
      </trkpt>
      <trkpt lat="43.64598" lon="3.81588">
        <ele>73.05500032</ele>
        <time>2020-10-17T09:41:01.000Z</time>
      </trkpt>
      <trkpt lat="43.64598" lon="3.81592">
        <ele>73.15500032</ele>
        <time>2020-10-17T09:41:02.000Z</time>
      </trkpt>
      <trkpt lat="43.64598" lon="3.81595">
        <ele>73.25500032</ele>
        <time>2020-10-17T09:41:03.000Z</time>
      </trkpt>
      <trkpt lat="43.64598" lon="3.81598">
        <ele>73.35500032</ele>
        <time>2020-10-17T09:41:04.000Z</time>
      </trkpt>
      <trkpt lat="43.64599" lon="3.81602">
        <ele>73.45500032</ele>
        <time>2020-10-17T09:41:05.000Z</time>
      </trkpt>
      <trkpt lat="43.64599" lon="3.81605">
        <ele>73.55500032</ele>
        <time>2020-10-17T09:41:06.000Z</time>
      </trkpt>
      <trkpt lat="43.64598" lon="3.81608">
        <ele>73.65500032</ele>
        <time>2020-10-17T09:41:07.000Z</time>
      </trkpt>
      <trkpt lat="43.64597" lon="3.81611">
        <ele>73.75500032</ele>
        <time>2020-10-17T09:41:08.000Z</time>
      </trkpt>
      <trkpt lat="43.64596" lon="3.81614">
        <ele>73.85500032</ele>
        <time>2020-10-17T09:41:09.000Z</time>
      </trkpt>
      <trkpt lat="43.64595" lon="3.81617">
        <ele>73.95500032</ele>
        <time>2020-10-17T09:41:10.000Z</time>
      </trkpt>
      <trkpt lat="43.64596" lon="3.81621">
        <ele>74</ele>
        <time>2020-10-17T09:41:11.000Z</time>
      </trkpt>
      <trkpt lat="43.64596" lon="3.81624">
        <ele>74</ele>
        <time>2020-10-17T09:41:12.000Z</time>
      </trkpt>
      <trkpt lat="43.64597" lon="3.81628">
        <ele>74</ele>
        <time>2020-10-17T09:41:13.000Z</time>
      </trkpt>
      <trkpt lat="43.64597" lon="3.81631">
        <ele>74</ele>
        <time>2020-10-17T09:41:14.000Z</time>
      </trkpt>
      <trkpt lat="43.64597" lon="3.81635">
        <ele>74</ele>
        <time>2020-10-17T09:41:15.000Z</time>
      </trkpt>
      <trkpt lat="43.64597" lon="3.81639">
        <ele>74</ele>
        <time>2020-10-17T09:41:16.000Z</time>
      </trkpt>
      <trkpt lat="43.64597" lon="3.81643">
        <ele>74</ele>
        <time>2020-10-17T09:41:17.000Z</time>
      </trkpt>
      <trkpt lat="43.64598" lon="3.81646">
        <ele>74</ele>
        <time>2020-10-17T09:41:18.000Z</time>
      </trkpt>
      <trkpt lat="43.64598" lon="3.8165">
        <ele>74</ele>
        <time>2020-10-17T09:41:19.000Z</time>
      </trkpt>
      <trkpt lat="43.64598" lon="3.81654">
        <ele>74</ele>
        <time>2020-10-17T09:41:20.000Z</time>
      </trkpt>
      <trkpt lat="43.64598" lon="3.81657">
        <ele>74.05500032</ele>
        <time>2020-10-17T09:41:21.000Z</time>
      </trkpt>
      <trkpt lat="43.64598" lon="3.81661">
        <ele>74.15500032</ele>
        <time>2020-10-17T09:41:22.000Z</time>
      </trkpt>
      <trkpt lat="43.64598" lon="3.81665">
        <ele>74.25500032</ele>
        <time>2020-10-17T09:41:23.000Z</time>
      </trkpt>
      <trkpt lat="43.64598" lon="3.81669">
        <ele>74.35500032</ele>
        <time>2020-10-17T09:41:24.000Z</time>
      </trkpt>
      <trkpt lat="43.64598" lon="3.81672">
        <ele>74.45500032</ele>
        <time>2020-10-17T09:41:25.000Z</time>
      </trkpt>
      <trkpt lat="43.64599" lon="3.81676">
        <ele>74.55500032</ele>
        <time>2020-10-17T09:41:26.000Z</time>
      </trkpt>
      <trkpt lat="43.64599" lon="3.8168">
        <ele>74.65500032</ele>
        <time>2020-10-17T09:41:27.000Z</time>
      </trkpt>
      <trkpt lat="43.64599" lon="3.81683">
        <ele>74.75500032</ele>
        <time>2020-10-17T09:41:28.000Z</time>
      </trkpt>
      <trkpt lat="43.64599" lon="3.81687">
        <ele>74.85500032</ele>
        <time>2020-10-17T09:41:29.000Z</time>
      </trkpt>
      <trkpt lat="43.64599" lon="3.8169">
        <ele>74.95500032</ele>
        <time>2020-10-17T09:41:30.000Z</time>
      </trkpt>
      <trkpt lat="43.64599" lon="3.81694">
        <ele>75.11000064</ele>
        <time>2020-10-17T09:41:31.000Z</time>
      </trkpt>
      <trkpt lat="43.64599" lon="3.81697">
        <ele>75.31000064</ele>
        <time>2020-10-17T09:41:32.000Z</time>
      </trkpt>
      <trkpt lat="43.64599" lon="3.817">
        <ele>75.51000064</ele>
        <time>2020-10-17T09:41:33.000Z</time>
      </trkpt>
      <trkpt lat="43.64599" lon="3.81704">
        <ele>75.71000064</ele>
        <time>2020-10-17T09:41:34.000Z</time>
      </trkpt>
      <trkpt lat="43.646" lon="3.81707">
        <ele>75.91000064</ele>
        <time>2020-10-17T09:41:35.000Z</time>
      </trkpt>
      <trkpt lat="43.646" lon="3.8171">
        <ele>76.11000064</ele>
        <time>2020-10-17T09:41:36.000Z</time>
      </trkpt>
      <trkpt lat="43.646" lon="3.81714">
        <ele>76.31000064</ele>
        <time>2020-10-17T09:41:37.000Z</time>
      </trkpt>
      <trkpt lat="43.646" lon="3.81717">
        <ele>76.51000064</ele>
        <time>2020-10-17T09:41:38.000Z</time>
      </trkpt>
      <trkpt lat="43.646" lon="3.8172">
        <ele>76.71000064</ele>
        <time>2020-10-17T09:41:39.000Z</time>
      </trkpt>
      <trkpt lat="43.646" lon="3.81723">
        <ele>76.91000064</ele>
        <time>2020-10-17T09:41:40.000Z</time>
      </trkpt>
      <trkpt lat="43.646" lon="3.81726">
        <ele>77.11000064</ele>
        <time>2020-10-17T09:41:41.000Z</time>
      </trkpt>
      <trkpt lat="43.646" lon="3.81729">
        <ele>77.31000064</ele>
        <time>2020-10-17T09:41:42.000Z</time>
      </trkpt>
      <trkpt lat="43.64601" lon="3.81733">
        <ele>77.51000064</ele>
        <time>2020-10-17T09:41:43.000Z</time>
      </trkpt>
      <trkpt lat="43.646" lon="3.81736">
        <ele>77.71000064</ele>
        <time>2020-10-17T09:41:44.000Z</time>
      </trkpt>
      <trkpt lat="43.646" lon="3.81739">
        <ele>77.91000064</ele>
        <time>2020-10-17T09:41:45.000Z</time>
      </trkpt>
      <trkpt lat="43.64601" lon="3.81743">
        <ele>78.11000064</ele>
        <time>2020-10-17T09:41:46.000Z</time>
      </trkpt>
      <trkpt lat="43.64601" lon="3.81746">
        <ele>78.31000064</ele>
        <time>2020-10-17T09:41:47.000Z</time>
      </trkpt>
      <trkpt lat="43.64601" lon="3.8175">
        <ele>78.51000064</ele>
        <time>2020-10-17T09:41:48.000Z</time>
      </trkpt>
      <trkpt lat="43.64601" lon="3.81753">
        <ele>78.71000064</ele>
        <time>2020-10-17T09:41:49.000Z</time>
      </trkpt>
      <trkpt lat="43.64601" lon="3.81755">
        <ele>78.91000064</ele>
        <time>2020-10-17T09:41:50.000Z</time>
      </trkpt>
      <trkpt lat="43.64601" lon="3.81758">
        <ele>79.05500032</ele>
        <time>2020-10-17T09:41:51.000Z</time>
      </trkpt>
      <trkpt lat="43.64602" lon="3.81761">
        <ele>79.15500032</ele>
        <time>2020-10-17T09:41:52.000Z</time>
      </trkpt>
      <trkpt lat="43.64602" lon="3.81764">
        <ele>79.25500032</ele>
        <time>2020-10-17T09:41:53.000Z</time>
      </trkpt>
      <trkpt lat="43.64602" lon="3.81767">
        <ele>79.35500032</ele>
        <time>2020-10-17T09:41:54.000Z</time>
      </trkpt>
      <trkpt lat="43.64602" lon="3.8177">
        <ele>79.45500032</ele>
        <time>2020-10-17T09:41:55.000Z</time>
      </trkpt>
      <trkpt lat="43.64603" lon="3.81773">
        <ele>79.55500032</ele>
        <time>2020-10-17T09:41:56.000Z</time>
      </trkpt>
      <trkpt lat="43.64603" lon="3.81776">
        <ele>79.65500032</ele>
        <time>2020-10-17T09:41:57.000Z</time>
      </trkpt>
      <trkpt lat="43.64603" lon="3.81779">
        <ele>79.75500032</ele>
        <time>2020-10-17T09:41:58.000Z</time>
      </trkpt>
      <trkpt lat="43.64603" lon="3.81782">
        <ele>79.85500032</ele>
        <time>2020-10-17T09:41:59.000Z</time>
      </trkpt>
      <trkpt lat="43.64603" lon="3.81785">
        <ele>79.95500032</ele>
        <time>2020-10-17T09:42:00.000Z</time>
      </trkpt>
      <trkpt lat="43.64603" lon="3.81789">
        <ele>80.05500032</ele>
        <time>2020-10-17T09:42:01.000Z</time>
      </trkpt>
      <trkpt lat="43.64603" lon="3.81792">
        <ele>80.15500032</ele>
        <time>2020-10-17T09:42:02.000Z</time>
      </trkpt>
      <trkpt lat="43.64603" lon="3.81796">
        <ele>80.25500032</ele>
        <time>2020-10-17T09:42:03.000Z</time>
      </trkpt>
      <trkpt lat="43.64603" lon="3.81799">
        <ele>80.35500032</ele>
        <time>2020-10-17T09:42:04.000Z</time>
      </trkpt>
      <trkpt lat="43.64603" lon="3.81802">
        <ele>80.45500032</ele>
        <time>2020-10-17T09:42:05.000Z</time>
      </trkpt>
      <trkpt lat="43.64603" lon="3.81806">
        <ele>80.55500032</ele>
        <time>2020-10-17T09:42:06.000Z</time>
      </trkpt>
      <trkpt lat="43.64604" lon="3.81809">
        <ele>80.65500032</ele>
        <time>2020-10-17T09:42:07.000Z</time>
      </trkpt>
      <trkpt lat="43.64604" lon="3.81812">
        <ele>80.75500032</ele>
        <time>2020-10-17T09:42:08.000Z</time>
      </trkpt>
      <trkpt lat="43.64604" lon="3.81816">
        <ele>80.85500032</ele>
        <time>2020-10-17T09:42:09.000Z</time>
      </trkpt>
      <trkpt lat="43.64604" lon="3.8182">
        <ele>80.95500032</ele>
        <time>2020-10-17T09:42:10.000Z</time>
      </trkpt>
      <trkpt lat="43.64604" lon="3.81823">
        <ele>81</ele>
        <time>2020-10-17T09:42:11.000Z</time>
      </trkpt>
      <trkpt lat="43.64604" lon="3.81827">
        <ele>81</ele>
        <time>2020-10-17T09:42:12.000Z</time>
      </trkpt>
      <trkpt lat="43.64604" lon="3.81831">
        <ele>81</ele>
        <time>2020-10-17T09:42:13.000Z</time>
      </trkpt>
      <trkpt lat="43.64604" lon="3.81834">
        <ele>81</ele>
        <time>2020-10-17T09:42:14.000Z</time>
      </trkpt>
      <trkpt lat="43.64604" lon="3.81838">
        <ele>81</ele>
        <time>2020-10-17T09:42:15.000Z</time>
      </trkpt>
      <trkpt lat="43.64605" lon="3.81842">
        <ele>81</ele>
        <time>2020-10-17T09:42:16.000Z</time>
      </trkpt>
      <trkpt lat="43.64606" lon="3.81846">
        <ele>81</ele>
        <time>2020-10-17T09:42:17.000Z</time>
      </trkpt>
      <trkpt lat="43.64606" lon="3.81849">
        <ele>81</ele>
        <time>2020-10-17T09:42:18.000Z</time>
      </trkpt>
      <trkpt lat="43.64607" lon="3.81853">
        <ele>81</ele>
        <time>2020-10-17T09:42:19.000Z</time>
      </trkpt>
      <trkpt lat="43.64607" lon="3.81857">
        <ele>81</ele>
        <time>2020-10-17T09:42:20.000Z</time>
      </trkpt>
      <trkpt lat="43.64607" lon="3.81861">
        <ele>81.027778106996</ele>
        <time>2020-10-17T09:42:21.000Z</time>
      </trkpt>
      <trkpt lat="43.64607" lon="3.81865">
        <ele>81.130658765432</ele>
        <time>2020-10-17T09:42:22.000Z</time>
      </trkpt>
      <trkpt lat="43.64607" lon="3.81868">
        <ele>81.233539423868</ele>
        <time>2020-10-17T09:42:23.000Z</time>
      </trkpt>
      <trkpt lat="43.64607" lon="3.81872">
        <ele>81.336420082304</ele>
        <time>2020-10-17T09:42:24.000Z</time>
      </trkpt>
      <trkpt lat="43.64607" lon="3.81875">
        <ele>81.439300740741</ele>
        <time>2020-10-17T09:42:25.000Z</time>
      </trkpt>
      <trkpt lat="43.64607" lon="3.81879">
        <ele>81.542181399177</ele>
        <time>2020-10-17T09:42:26.000Z</time>
      </trkpt>
      <trkpt lat="43.64607" lon="3.81883">
        <ele>81.645062057613</ele>
        <time>2020-10-17T09:42:27.000Z</time>
      </trkpt>
      <trkpt lat="43.64607" lon="3.81886">
        <ele>81.747942716049</ele>
        <time>2020-10-17T09:42:28.000Z</time>
      </trkpt>
      <trkpt lat="43.64607" lon="3.8189">
        <ele>81.850823374486</ele>
        <time>2020-10-17T09:42:29.000Z</time>
      </trkpt>
      <trkpt lat="43.64607" lon="3.81893">
        <ele>81.953704032922</ele>
        <time>2020-10-17T09:42:30.000Z</time>
      </trkpt>
      <trkpt lat="43.64607" lon="3.81897">
        <ele>82.05500032</ele>
        <time>2020-10-17T09:42:31.000Z</time>
      </trkpt>
      <trkpt lat="43.64607" lon="3.819">
        <ele>82.15500032</ele>
        <time>2020-10-17T09:42:32.000Z</time>
      </trkpt>
      <trkpt lat="43.64607" lon="3.81904">
        <ele>82.25500032</ele>
        <time>2020-10-17T09:42:33.000Z</time>
      </trkpt>
      <trkpt lat="43.64607" lon="3.81907">
        <ele>82.35500032</ele>
        <time>2020-10-17T09:42:34.000Z</time>
      </trkpt>
      <trkpt lat="43.64607" lon="3.81911">
        <ele>82.45500032</ele>
        <time>2020-10-17T09:42:35.000Z</time>
      </trkpt>
      <trkpt lat="43.64607" lon="3.81915">
        <ele>82.55500032</ele>
        <time>2020-10-17T09:42:36.000Z</time>
      </trkpt>
      <trkpt lat="43.64606" lon="3.81919">
        <ele>82.65500032</ele>
        <time>2020-10-17T09:42:37.000Z</time>
      </trkpt>
      <trkpt lat="43.64607" lon="3.81922">
        <ele>82.75500032</ele>
        <time>2020-10-17T09:42:38.000Z</time>
      </trkpt>
      <trkpt lat="43.64607" lon="3.81926">
        <ele>82.85500032</ele>
        <time>2020-10-17T09:42:39.000Z</time>
      </trkpt>
      <trkpt lat="43.64607" lon="3.8193">
        <ele>82.95500032</ele>
        <time>2020-10-17T09:42:40.000Z</time>
      </trkpt>
      <trkpt lat="43.64607" lon="3.81934">
        <ele>83</ele>
        <time>2020-10-17T09:42:41.000Z</time>
      </trkpt>
      <trkpt lat="43.64607" lon="3.81938">
        <ele>83</ele>
        <time>2020-10-17T09:42:42.000Z</time>
      </trkpt>
      <trkpt lat="43.64607" lon="3.81941">
        <ele>83</ele>
        <time>2020-10-17T09:42:43.000Z</time>
      </trkpt>
      <trkpt lat="43.64607" lon="3.81945">
        <ele>83</ele>
        <time>2020-10-17T09:42:44.000Z</time>
      </trkpt>
      <trkpt lat="43.64607" lon="3.81949">
        <ele>83</ele>
        <time>2020-10-17T09:42:45.000Z</time>
      </trkpt>
      <trkpt lat="43.64607" lon="3.81953">
        <ele>83</ele>
        <time>2020-10-17T09:42:46.000Z</time>
      </trkpt>
      <trkpt lat="43.64607" lon="3.81957">
        <ele>83</ele>
        <time>2020-10-17T09:42:47.000Z</time>
      </trkpt>
      <trkpt lat="43.64607" lon="3.81961">
        <ele>83</ele>
        <time>2020-10-17T09:42:48.000Z</time>
      </trkpt>
      <trkpt lat="43.64607" lon="3.81964">
        <ele>83</ele>
        <time>2020-10-17T09:42:49.000Z</time>
      </trkpt>
      <trkpt lat="43.64607" lon="3.81968">
        <ele>83</ele>
        <time>2020-10-17T09:42:50.000Z</time>
      </trkpt>
      <trkpt lat="43.64608" lon="3.81972">
        <ele>83.11000064</ele>
        <time>2020-10-17T09:42:51.000Z</time>
      </trkpt>
      <trkpt lat="43.64608" lon="3.81976">
        <ele>83.31000064</ele>
        <time>2020-10-17T09:42:52.000Z</time>
      </trkpt>
      <trkpt lat="43.64608" lon="3.81979">
        <ele>83.51000064</ele>
        <time>2020-10-17T09:42:53.000Z</time>
      </trkpt>
      <trkpt lat="43.64608" lon="3.81983">
        <ele>83.71000064</ele>
        <time>2020-10-17T09:42:54.000Z</time>
      </trkpt>
      <trkpt lat="43.64608" lon="3.81987">
        <ele>83.91000064</ele>
        <time>2020-10-17T09:42:55.000Z</time>
      </trkpt>
      <trkpt lat="43.64609" lon="3.81991">
        <ele>84.11000064</ele>
        <time>2020-10-17T09:42:56.000Z</time>
      </trkpt>
      <trkpt lat="43.64609" lon="3.81995">
        <ele>84.31000064</ele>
        <time>2020-10-17T09:42:57.000Z</time>
      </trkpt>
      <trkpt lat="43.64608" lon="3.81999">
        <ele>84.51000064</ele>
        <time>2020-10-17T09:42:58.000Z</time>
      </trkpt>
      <trkpt lat="43.64608" lon="3.82002">
        <ele>84.71000064</ele>
        <time>2020-10-17T09:42:59.000Z</time>
      </trkpt>
      <trkpt lat="43.64608" lon="3.82006">
        <ele>84.91000064</ele>
        <time>2020-10-17T09:43:00.000Z</time>
      </trkpt>
      <trkpt lat="43.64607" lon="3.8201">
        <ele>85.109890643861</ele>
        <time>2020-10-17T09:43:01.000Z</time>
      </trkpt>
      <trkpt lat="43.64607" lon="3.82014">
        <ele>85.309690652045</ele>
        <time>2020-10-17T09:43:02.000Z</time>
      </trkpt>
      <trkpt lat="43.64607" lon="3.82017">
        <ele>85.509490660229</ele>
        <time>2020-10-17T09:43:03.000Z</time>
      </trkpt>
      <trkpt lat="43.64607" lon="3.82021">
        <ele>85.709290668413</ele>
        <time>2020-10-17T09:43:04.000Z</time>
      </trkpt>
      <trkpt lat="43.64607" lon="3.82025">
        <ele>85.909090676596</ele>
        <time>2020-10-17T09:43:05.000Z</time>
      </trkpt>
      <trkpt lat="43.64606" lon="3.82028">
        <ele>86.10889068478</ele>
        <time>2020-10-17T09:43:06.000Z</time>
      </trkpt>
      <trkpt lat="43.64606" lon="3.82032">
        <ele>86.308690692964</ele>
        <time>2020-10-17T09:43:07.000Z</time>
      </trkpt>
      <trkpt lat="43.64606" lon="3.82035">
        <ele>86.508490701148</ele>
        <time>2020-10-17T09:43:08.000Z</time>
      </trkpt>
      <trkpt lat="43.64606" lon="3.82039">
        <ele>86.708290709332</ele>
        <time>2020-10-17T09:43:09.000Z</time>
      </trkpt>
      <trkpt lat="43.64605" lon="3.82042">
        <ele>86.908090717515</ele>
        <time>2020-10-17T09:43:10.000Z</time>
      </trkpt>
      <trkpt lat="43.64604" lon="3.82046">
        <ele>87.054053465357</ele>
        <time>2020-10-17T09:43:11.000Z</time>
      </trkpt>
      <trkpt lat="43.64604" lon="3.82049">
        <ele>87.154153661649</ele>
        <time>2020-10-17T09:43:12.000Z</time>
      </trkpt>
      <trkpt lat="43.64604" lon="3.82052">
        <ele>87.254253857942</ele>
        <time>2020-10-17T09:43:13.000Z</time>
      </trkpt>
      <trkpt lat="43.64603" lon="3.82056">
        <ele>87.354354054234</ele>
        <time>2020-10-17T09:43:14.000Z</time>
      </trkpt>
      <trkpt lat="43.64603" lon="3.8206">
        <ele>87.454454250527</ele>
        <time>2020-10-17T09:43:15.000Z</time>
      </trkpt>
      <trkpt lat="43.64602" lon="3.82063">
        <ele>87.554554446819</ele>
        <time>2020-10-17T09:43:16.000Z</time>
      </trkpt>
      <trkpt lat="43.64601" lon="3.82067">
        <ele>87.654654643112</ele>
        <time>2020-10-17T09:43:17.000Z</time>
      </trkpt>
      <trkpt lat="43.64601" lon="3.8207">
        <ele>87.754754839404</ele>
        <time>2020-10-17T09:43:18.000Z</time>
      </trkpt>
      <trkpt lat="43.646" lon="3.82074">
        <ele>87.854855035697</ele>
        <time>2020-10-17T09:43:19.000Z</time>
      </trkpt>
      <trkpt lat="43.64599" lon="3.82078">
        <ele>87.954955231989</ele>
        <time>2020-10-17T09:43:20.000Z</time>
      </trkpt>
      <trkpt lat="43.64598" lon="3.82081">
        <ele>88.11000064</ele>
        <time>2020-10-17T09:43:21.000Z</time>
      </trkpt>
      <trkpt lat="43.64598" lon="3.82085">
        <ele>88.31000064</ele>
        <time>2020-10-17T09:43:22.000Z</time>
      </trkpt>
      <trkpt lat="43.64597" lon="3.82089">
        <ele>88.51000064</ele>
        <time>2020-10-17T09:43:23.000Z</time>
      </trkpt>
      <trkpt lat="43.64596" lon="3.82093">
        <ele>88.71000064</ele>
        <time>2020-10-17T09:43:24.000Z</time>
      </trkpt>
      <trkpt lat="43.64595" lon="3.82096">
        <ele>88.91000064</ele>
        <time>2020-10-17T09:43:25.000Z</time>
      </trkpt>
      <trkpt lat="43.64594" lon="3.821">
        <ele>89.11000064</ele>
        <time>2020-10-17T09:43:26.000Z</time>
      </trkpt>
      <trkpt lat="43.64593" lon="3.82104">
        <ele>89.31000064</ele>
        <time>2020-10-17T09:43:27.000Z</time>
      </trkpt>
      <trkpt lat="43.64592" lon="3.82107">
        <ele>89.51000064</ele>
        <time>2020-10-17T09:43:28.000Z</time>
      </trkpt>
      <trkpt lat="43.6459" lon="3.8211">
        <ele>89.71000064</ele>
        <time>2020-10-17T09:43:29.000Z</time>
      </trkpt>
      <trkpt lat="43.64589" lon="3.82113">
        <ele>89.91000064</ele>
        <time>2020-10-17T09:43:30.000Z</time>
      </trkpt>
      <trkpt lat="43.64588" lon="3.82117">
        <ele>90.05445572787</ele>
        <time>2020-10-17T09:43:31.000Z</time>
      </trkpt>
      <trkpt lat="43.64587" lon="3.8212">
        <ele>90.153465566121</ele>
        <time>2020-10-17T09:43:32.000Z</time>
      </trkpt>
      <trkpt lat="43.64586" lon="3.82123">
        <ele>90.252475404372</ele>
        <time>2020-10-17T09:43:33.000Z</time>
      </trkpt>
      <trkpt lat="43.64585" lon="3.82126">
        <ele>90.351485242623</ele>
        <time>2020-10-17T09:43:34.000Z</time>
      </trkpt>
      <trkpt lat="43.64584" lon="3.82129">
        <ele>90.450495080874</ele>
        <time>2020-10-17T09:43:35.000Z</time>
      </trkpt>
      <trkpt lat="43.64583" lon="3.82132">
        <ele>90.549504919126</ele>
        <time>2020-10-17T09:43:36.000Z</time>
      </trkpt>
      <trkpt lat="43.64581" lon="3.82135">
        <ele>90.648514757377</ele>
        <time>2020-10-17T09:43:37.000Z</time>
      </trkpt>
      <trkpt lat="43.6458" lon="3.82138">
        <ele>90.747524595628</ele>
        <time>2020-10-17T09:43:38.000Z</time>
      </trkpt>
      <trkpt lat="43.64578" lon="3.82141">
        <ele>90.846534433879</ele>
        <time>2020-10-17T09:43:39.000Z</time>
      </trkpt>
      <trkpt lat="43.64577" lon="3.82144">
        <ele>90.94554427213</ele>
        <time>2020-10-17T09:43:40.000Z</time>
      </trkpt>
      <trkpt lat="43.64576" lon="3.82147">
        <ele>91.045454251607</ele>
        <time>2020-10-17T09:43:41.000Z</time>
      </trkpt>
      <trkpt lat="43.64574" lon="3.8215">
        <ele>91.146464417916</ele>
        <time>2020-10-17T09:43:42.000Z</time>
      </trkpt>
      <trkpt lat="43.64573" lon="3.82153">
        <ele>91.247474584226</ele>
        <time>2020-10-17T09:43:43.000Z</time>
      </trkpt>
      <trkpt lat="43.64571" lon="3.82156">
        <ele>91.348484750536</ele>
        <time>2020-10-17T09:43:44.000Z</time>
      </trkpt>
      <trkpt lat="43.6457" lon="3.82159">
        <ele>91.449494916845</ele>
        <time>2020-10-17T09:43:45.000Z</time>
      </trkpt>
      <trkpt lat="43.64568" lon="3.82162">
        <ele>91.550505083155</ele>
        <time>2020-10-17T09:43:46.000Z</time>
      </trkpt>
      <trkpt lat="43.64566" lon="3.82165">
        <ele>91.651515249464</ele>
        <time>2020-10-17T09:43:47.000Z</time>
      </trkpt>
      <trkpt lat="43.64565" lon="3.82168">
        <ele>91.752525415774</ele>
        <time>2020-10-17T09:43:48.000Z</time>
      </trkpt>
      <trkpt lat="43.64563" lon="3.82171">
        <ele>91.853535582084</ele>
        <time>2020-10-17T09:43:49.000Z</time>
      </trkpt>
      <trkpt lat="43.64561" lon="3.82174">
        <ele>91.954545748393</ele>
        <time>2020-10-17T09:43:50.000Z</time>
      </trkpt>
      <trkpt lat="43.6456" lon="3.82177">
        <ele>92.05500032</ele>
        <time>2020-10-17T09:43:51.000Z</time>
      </trkpt>
      <trkpt lat="43.64558" lon="3.82179">
        <ele>92.15500032</ele>
        <time>2020-10-17T09:43:52.000Z</time>
      </trkpt>
      <trkpt lat="43.64557" lon="3.82182">
        <ele>92.25500032</ele>
        <time>2020-10-17T09:43:53.000Z</time>
      </trkpt>
      <trkpt lat="43.64555" lon="3.82185">
        <ele>92.35500032</ele>
        <time>2020-10-17T09:43:54.000Z</time>
      </trkpt>
      <trkpt lat="43.64553" lon="3.82188">
        <ele>92.45500032</ele>
        <time>2020-10-17T09:43:55.000Z</time>
      </trkpt>
      <trkpt lat="43.64551" lon="3.8219">
        <ele>92.55500032</ele>
        <time>2020-10-17T09:43:56.000Z</time>
      </trkpt>
      <trkpt lat="43.64549" lon="3.82193">
        <ele>92.65500032</ele>
        <time>2020-10-17T09:43:57.000Z</time>
      </trkpt>
      <trkpt lat="43.64547" lon="3.82196">
        <ele>92.75500032</ele>
        <time>2020-10-17T09:43:58.000Z</time>
      </trkpt>
      <trkpt lat="43.64545" lon="3.82199">
        <ele>92.85500032</ele>
        <time>2020-10-17T09:43:59.000Z</time>
      </trkpt>
      <trkpt lat="43.64543" lon="3.82202">
        <ele>92.95500032</ele>
        <time>2020-10-17T09:44:00.000Z</time>
      </trkpt>
      <trkpt lat="43.64541" lon="3.82204">
        <ele>93.11000064</ele>
        <time>2020-10-17T09:44:01.000Z</time>
      </trkpt>
      <trkpt lat="43.6454" lon="3.82207">
        <ele>93.31000064</ele>
        <time>2020-10-17T09:44:02.000Z</time>
      </trkpt>
      <trkpt lat="43.64538" lon="3.8221">
        <ele>93.51000064</ele>
        <time>2020-10-17T09:44:03.000Z</time>
      </trkpt>
      <trkpt lat="43.64536" lon="3.82212">
        <ele>93.71000064</ele>
        <time>2020-10-17T09:44:04.000Z</time>
      </trkpt>
      <trkpt lat="43.64534" lon="3.82214">
        <ele>93.91000064</ele>
        <time>2020-10-17T09:44:05.000Z</time>
      </trkpt>
      <trkpt lat="43.64532" lon="3.82217">
        <ele>94.11000064</ele>
        <time>2020-10-17T09:44:06.000Z</time>
      </trkpt>
      <trkpt lat="43.6453" lon="3.82219">
        <ele>94.31000064</ele>
        <time>2020-10-17T09:44:07.000Z</time>
      </trkpt>
      <trkpt lat="43.64527" lon="3.82222">
        <ele>94.51000064</ele>
        <time>2020-10-17T09:44:08.000Z</time>
      </trkpt>
      <trkpt lat="43.64525" lon="3.82224">
        <ele>94.71000064</ele>
        <time>2020-10-17T09:44:09.000Z</time>
      </trkpt>
      <trkpt lat="43.64523" lon="3.82226">
        <ele>94.91000064</ele>
        <time>2020-10-17T09:44:10.000Z</time>
      </trkpt>
      <trkpt lat="43.64521" lon="3.82229">
        <ele>95</ele>
        <time>2020-10-17T09:44:11.000Z</time>
      </trkpt>
      <trkpt lat="43.64518" lon="3.82231">
        <ele>95</ele>
        <time>2020-10-17T09:44:12.000Z</time>
      </trkpt>
      <trkpt lat="43.64516" lon="3.82233">
        <ele>95</ele>
        <time>2020-10-17T09:44:13.000Z</time>
      </trkpt>
      <trkpt lat="43.64513" lon="3.82235">
        <ele>95</ele>
        <time>2020-10-17T09:44:14.000Z</time>
      </trkpt>
      <trkpt lat="43.64511" lon="3.82238">
        <ele>95</ele>
        <time>2020-10-17T09:44:15.000Z</time>
      </trkpt>
      <trkpt lat="43.64508" lon="3.8224">
        <ele>95</ele>
        <time>2020-10-17T09:44:16.000Z</time>
      </trkpt>
      <trkpt lat="43.64506" lon="3.82242">
        <ele>95</ele>
        <time>2020-10-17T09:44:17.000Z</time>
      </trkpt>
      <trkpt lat="43.64504" lon="3.82245">
        <ele>95</ele>
        <time>2020-10-17T09:44:18.000Z</time>
      </trkpt>
      <trkpt lat="43.64501" lon="3.82247">
        <ele>95</ele>
        <time>2020-10-17T09:44:19.000Z</time>
      </trkpt>
      <trkpt lat="43.64499" lon="3.8225">
        <ele>95</ele>
        <time>2020-10-17T09:44:20.000Z</time>
      </trkpt>
      <trkpt lat="43.64496" lon="3.82252">
        <ele>95.054835795067</ele>
        <time>2020-10-17T09:44:21.000Z</time>
      </trkpt>
      <trkpt lat="43.64494" lon="3.82254">
        <ele>95.154536660567</ele>
        <time>2020-10-17T09:44:22.000Z</time>
      </trkpt>
      <trkpt lat="43.64491" lon="3.82256">
        <ele>95.254237526066</ele>
        <time>2020-10-17T09:44:23.000Z</time>
      </trkpt>
      <trkpt lat="43.64489" lon="3.82257">
        <ele>95.353938391565</ele>
        <time>2020-10-17T09:44:24.000Z</time>
      </trkpt>
      <trkpt lat="43.64486" lon="3.8226">
        <ele>95.453639257064</ele>
        <time>2020-10-17T09:44:25.000Z</time>
      </trkpt>
      <trkpt lat="43.64483" lon="3.82262">
        <ele>95.553340122563</ele>
        <time>2020-10-17T09:44:26.000Z</time>
      </trkpt>
      <trkpt lat="43.64481" lon="3.82264">
        <ele>95.653040988063</ele>
        <time>2020-10-17T09:44:27.000Z</time>
      </trkpt>
      <trkpt lat="43.64478" lon="3.82265">
        <ele>95.752741853562</ele>
        <time>2020-10-17T09:44:28.000Z</time>
      </trkpt>
      <trkpt lat="43.64475" lon="3.82267">
        <ele>95.852442719061</ele>
        <time>2020-10-17T09:44:29.000Z</time>
      </trkpt>
      <trkpt lat="43.64472" lon="3.82269">
        <ele>95.95214358456</ele>
        <time>2020-10-17T09:44:30.000Z</time>
      </trkpt>
      <trkpt lat="43.6447" lon="3.82271">
        <ele>96.101463446311</ele>
        <time>2020-10-17T09:44:31.000Z</time>
      </trkpt>
      <trkpt lat="43.64467" lon="3.82273">
        <ele>96.296585458446</ele>
        <time>2020-10-17T09:44:32.000Z</time>
      </trkpt>
      <trkpt lat="43.64464" lon="3.82275">
        <ele>96.491707470582</ele>
        <time>2020-10-17T09:44:33.000Z</time>
      </trkpt>
      <trkpt lat="43.64461" lon="3.82276">
        <ele>96.686829482717</ele>
        <time>2020-10-17T09:44:34.000Z</time>
      </trkpt>
      <trkpt lat="43.64457" lon="3.82275">
        <ele>96.881951494853</ele>
        <time>2020-10-17T09:44:35.000Z</time>
      </trkpt>
      <trkpt lat="43.64454" lon="3.82275">
        <ele>97.077073506989</ele>
        <time>2020-10-17T09:44:36.000Z</time>
      </trkpt>
      <trkpt lat="43.64451" lon="3.82274">
        <ele>97.272195519124</ele>
        <time>2020-10-17T09:44:37.000Z</time>
      </trkpt>
      <trkpt lat="43.64448" lon="3.82272">
        <ele>97.46731753126</ele>
        <time>2020-10-17T09:44:38.000Z</time>
      </trkpt>
      <trkpt lat="43.64446" lon="3.82269">
        <ele>97.662439543396</ele>
        <time>2020-10-17T09:44:39.000Z</time>
      </trkpt>
      <trkpt lat="43.64443" lon="3.82266">
        <ele>97.857561555531</ele>
        <time>2020-10-17T09:44:40.000Z</time>
      </trkpt>
      <trkpt lat="43.6444" lon="3.82264">
        <ele>97.972221893004</ele>
        <time>2020-10-17T09:44:41.000Z</time>
      </trkpt>
      <trkpt lat="43.64437" lon="3.82261">
        <ele>97.869341234568</ele>
        <time>2020-10-17T09:44:42.000Z</time>
      </trkpt>
      <trkpt lat="43.64433" lon="3.82259">
        <ele>97.766460576132</ele>
        <time>2020-10-17T09:44:43.000Z</time>
      </trkpt>
      <trkpt lat="43.6443" lon="3.82256">
        <ele>97.663579917696</ele>
        <time>2020-10-17T09:44:44.000Z</time>
      </trkpt>
      <trkpt lat="43.64427" lon="3.82252">
        <ele>97.560699259259</ele>
        <time>2020-10-17T09:44:45.000Z</time>
      </trkpt>
      <trkpt lat="43.64424" lon="3.82247">
        <ele>97.457818600823</ele>
        <time>2020-10-17T09:44:46.000Z</time>
      </trkpt>
      <trkpt lat="43.64422" lon="3.82241">
        <ele>97.354937942387</ele>
        <time>2020-10-17T09:44:47.000Z</time>
      </trkpt>
      <trkpt lat="43.64419" lon="3.82238">
        <ele>97.252057283951</ele>
        <time>2020-10-17T09:44:48.000Z</time>
      </trkpt>
      <trkpt lat="43.64415" lon="3.82237">
        <ele>97.149176625514</ele>
        <time>2020-10-17T09:44:49.000Z</time>
      </trkpt>
      <trkpt lat="43.64412" lon="3.8224">
        <ele>97.046295967078</ele>
        <time>2020-10-17T09:44:50.000Z</time>
      </trkpt>
      <trkpt lat="43.6441" lon="3.82243">
        <ele>97.05500032</ele>
        <time>2020-10-17T09:44:51.000Z</time>
      </trkpt>
      <trkpt lat="43.64408" lon="3.82247">
        <ele>97.15500032</ele>
        <time>2020-10-17T09:44:52.000Z</time>
      </trkpt>
      <trkpt lat="43.64405" lon="3.8225">
        <ele>97.25500032</ele>
        <time>2020-10-17T09:44:53.000Z</time>
      </trkpt>
      <trkpt lat="43.64402" lon="3.82253">
        <ele>97.35500032</ele>
        <time>2020-10-17T09:44:54.000Z</time>
      </trkpt>
      <trkpt lat="43.64398" lon="3.82255">
        <ele>97.45500032</ele>
        <time>2020-10-17T09:44:55.000Z</time>
      </trkpt>
      <trkpt lat="43.64394" lon="3.82256">
        <ele>97.55500032</ele>
        <time>2020-10-17T09:44:56.000Z</time>
      </trkpt>
      <trkpt lat="43.6439" lon="3.82258">
        <ele>97.65500032</ele>
        <time>2020-10-17T09:44:57.000Z</time>
      </trkpt>
      <trkpt lat="43.64386" lon="3.8226">
        <ele>97.75500032</ele>
        <time>2020-10-17T09:44:58.000Z</time>
      </trkpt>
      <trkpt lat="43.64382" lon="3.82262">
        <ele>97.85500032</ele>
        <time>2020-10-17T09:44:59.000Z</time>
      </trkpt>
      <trkpt lat="43.64377" lon="3.82262">
        <ele>97.95500032</ele>
        <time>2020-10-17T09:45:00.000Z</time>
      </trkpt>
      <trkpt lat="43.64373" lon="3.82263">
        <ele>98.05500032</ele>
        <time>2020-10-17T09:45:01.000Z</time>
      </trkpt>
      <trkpt lat="43.64369" lon="3.82266">
        <ele>98.15500032</ele>
        <time>2020-10-17T09:45:02.000Z</time>
      </trkpt>
      <trkpt lat="43.64366" lon="3.8227">
        <ele>98.25500032</ele>
        <time>2020-10-17T09:45:03.000Z</time>
      </trkpt>
      <trkpt lat="43.64363" lon="3.82274">
        <ele>98.35500032</ele>
        <time>2020-10-17T09:45:04.000Z</time>
      </trkpt>
      <trkpt lat="43.64359" lon="3.82274">
        <ele>98.45500032</ele>
        <time>2020-10-17T09:45:05.000Z</time>
      </trkpt>
      <trkpt lat="43.64356" lon="3.82273">
        <ele>98.55500032</ele>
        <time>2020-10-17T09:45:06.000Z</time>
      </trkpt>
      <trkpt lat="43.64354" lon="3.82274">
        <ele>98.65500032</ele>
        <time>2020-10-17T09:45:07.000Z</time>
      </trkpt>
      <trkpt lat="43.64351" lon="3.82275">
        <ele>98.75500032</ele>
        <time>2020-10-17T09:45:08.000Z</time>
      </trkpt>
      <trkpt lat="43.64349" lon="3.82277">
        <ele>98.85500032</ele>
        <time>2020-10-17T09:45:09.000Z</time>
      </trkpt>
      <trkpt lat="43.64348" lon="3.82279">
        <ele>98.95500032</ele>
        <time>2020-10-17T09:45:10.000Z</time>
      </trkpt>
      <trkpt lat="43.64347" lon="3.82281">
        <ele>99.05500032</ele>
        <time>2020-10-17T09:45:11.000Z</time>
      </trkpt>
      <trkpt lat="43.64345" lon="3.82284">
        <ele>99.25500032</ele>
        <time>2020-10-17T09:45:13.000Z</time>
      </trkpt>
      <trkpt lat="43.64343" lon="3.82288">
        <ele>99.45500032</ele>
        <time>2020-10-17T09:45:15.000Z</time>
      </trkpt>
      <trkpt lat="43.6434" lon="3.8229">
        <ele>99.65500032</ele>
        <time>2020-10-17T09:45:17.000Z</time>
      </trkpt>
      <trkpt lat="43.64339" lon="3.8229">
        <ele>100</ele>
        <time>2020-10-17T09:45:23.000Z</time>
      </trkpt>
      <trkpt lat="43.64329" lon="3.82295">
        <ele>100.96734492505</ele>
        <time>2020-10-17T09:45:42.000Z</time>
      </trkpt>
      <trkpt lat="43.64325" lon="3.82296">
        <ele>101</ele>
        <time>2020-10-17T09:45:43.000Z</time>
      </trkpt>
      <trkpt lat="43.64322" lon="3.82297">
        <ele>101</ele>
        <time>2020-10-17T09:45:44.000Z</time>
      </trkpt>
      <trkpt lat="43.64318" lon="3.82298">
        <ele>101</ele>
        <time>2020-10-17T09:45:45.000Z</time>
      </trkpt>
      <trkpt lat="43.64314" lon="3.82299">
        <ele>101</ele>
        <time>2020-10-17T09:45:46.000Z</time>
      </trkpt>
      <trkpt lat="43.6431" lon="3.82301">
        <ele>101</ele>
        <time>2020-10-17T09:45:47.000Z</time>
      </trkpt>
      <trkpt lat="43.64306" lon="3.82301">
        <ele>101</ele>
        <time>2020-10-17T09:45:48.000Z</time>
      </trkpt>
      <trkpt lat="43.64302" lon="3.823">
        <ele>101</ele>
        <time>2020-10-17T09:45:49.000Z</time>
      </trkpt>
      <trkpt lat="43.64298" lon="3.82299">
        <ele>101</ele>
        <time>2020-10-17T09:45:50.000Z</time>
      </trkpt>
      <trkpt lat="43.64295" lon="3.823">
        <ele>101</ele>
        <time>2020-10-17T09:45:51.000Z</time>
      </trkpt>
      <trkpt lat="43.64292" lon="3.82302">
        <ele>101</ele>
        <time>2020-10-17T09:45:52.000Z</time>
      </trkpt>
      <trkpt lat="43.6429" lon="3.82306">
        <ele>101</ele>
        <time>2020-10-17T09:45:53.000Z</time>
      </trkpt>
      <trkpt lat="43.64288" lon="3.8231">
        <ele>101</ele>
        <time>2020-10-17T09:45:54.000Z</time>
      </trkpt>
      <trkpt lat="43.64285" lon="3.82313">
        <ele>101</ele>
        <time>2020-10-17T09:45:55.000Z</time>
      </trkpt>
      <trkpt lat="43.64281" lon="3.82314">
        <ele>101</ele>
        <time>2020-10-17T09:45:56.000Z</time>
      </trkpt>
      <trkpt lat="43.64278" lon="3.82315">
        <ele>101</ele>
        <time>2020-10-17T09:45:57.000Z</time>
      </trkpt>
      <trkpt lat="43.64275" lon="3.82316">
        <ele>101</ele>
        <time>2020-10-17T09:45:58.000Z</time>
      </trkpt>
      <trkpt lat="43.64272" lon="3.82316">
        <ele>101</ele>
        <time>2020-10-17T09:45:59.000Z</time>
      </trkpt>
      <trkpt lat="43.64269" lon="3.82315">
        <ele>101</ele>
        <time>2020-10-17T09:46:00.000Z</time>
      </trkpt>
      <trkpt lat="43.64266" lon="3.82312">
        <ele>101</ele>
        <time>2020-10-17T09:46:01.000Z</time>
      </trkpt>
      <trkpt lat="43.64263" lon="3.8231">
        <ele>101</ele>
        <time>2020-10-17T09:46:02.000Z</time>
      </trkpt>
      <trkpt lat="43.6426" lon="3.82308">
        <ele>101.02677716934</ele>
        <time>2020-10-17T09:46:03.000Z</time>
      </trkpt>
      <trkpt lat="43.64257" lon="3.82307">
        <ele>101.12976374714</ele>
        <time>2020-10-17T09:46:04.000Z</time>
      </trkpt>
      <trkpt lat="43.64254" lon="3.82307">
        <ele>101.23275032494</ele>
        <time>2020-10-17T09:46:05.000Z</time>
      </trkpt>
      <trkpt lat="43.64251" lon="3.82306">
        <ele>101.33573690274</ele>
        <time>2020-10-17T09:46:06.000Z</time>
      </trkpt>
      <trkpt lat="43.64248" lon="3.82306">
        <ele>101.43872348054</ele>
        <time>2020-10-17T09:46:07.000Z</time>
      </trkpt>
      <trkpt lat="43.64246" lon="3.82307">
        <ele>101.54171005835</ele>
        <time>2020-10-17T09:46:08.000Z</time>
      </trkpt>
      <trkpt lat="43.64243" lon="3.82308">
        <ele>101.64469663614</ele>
        <time>2020-10-17T09:46:09.000Z</time>
      </trkpt>
      <trkpt lat="43.64241" lon="3.82308">
        <ele>101.74768321395</ele>
        <time>2020-10-17T09:46:10.000Z</time>
      </trkpt>
      <trkpt lat="43.64238" lon="3.82308">
        <ele>101.85066979175</ele>
        <time>2020-10-17T09:46:11.000Z</time>
      </trkpt>
      <trkpt lat="43.64236" lon="3.82308">
        <ele>101.95365636955</ele>
        <time>2020-10-17T09:46:12.000Z</time>
      </trkpt>
      <trkpt lat="43.64233" lon="3.82307">
        <ele>102.11000064</ele>
        <time>2020-10-17T09:46:13.000Z</time>
      </trkpt>
      <trkpt lat="43.64231" lon="3.82307">
        <ele>102.31000064</ele>
        <time>2020-10-17T09:46:14.000Z</time>
      </trkpt>
      <trkpt lat="43.64228" lon="3.82307">
        <ele>102.51000064</ele>
        <time>2020-10-17T09:46:15.000Z</time>
      </trkpt>
      <trkpt lat="43.64225" lon="3.82307">
        <ele>102.71000064</ele>
        <time>2020-10-17T09:46:16.000Z</time>
      </trkpt>
      <trkpt lat="43.64222" lon="3.82308">
        <ele>102.91000064</ele>
        <time>2020-10-17T09:46:17.000Z</time>
      </trkpt>
      <trkpt lat="43.64219" lon="3.82307">
        <ele>103.11000064</ele>
        <time>2020-10-17T09:46:18.000Z</time>
      </trkpt>
      <trkpt lat="43.64217" lon="3.82308">
        <ele>103.31000064</ele>
        <time>2020-10-17T09:46:19.000Z</time>
      </trkpt>
      <trkpt lat="43.64214" lon="3.82308">
        <ele>103.51000064</ele>
        <time>2020-10-17T09:46:20.000Z</time>
      </trkpt>
      <trkpt lat="43.64212" lon="3.82309">
        <ele>103.71000064</ele>
        <time>2020-10-17T09:46:21.000Z</time>
      </trkpt>
      <trkpt lat="43.6421" lon="3.8231">
        <ele>103.91000064</ele>
        <time>2020-10-17T09:46:22.000Z</time>
      </trkpt>
      <trkpt lat="43.64208" lon="3.82312">
        <ele>104.11000064</ele>
        <time>2020-10-17T09:46:23.000Z</time>
      </trkpt>
      <trkpt lat="43.64205" lon="3.82313">
        <ele>104.31000064</ele>
        <time>2020-10-17T09:46:24.000Z</time>
      </trkpt>
      <trkpt lat="43.64203" lon="3.82314">
        <ele>104.51000064</ele>
        <time>2020-10-17T09:46:25.000Z</time>
      </trkpt>
      <trkpt lat="43.64201" lon="3.82316">
        <ele>104.71000064</ele>
        <time>2020-10-17T09:46:26.000Z</time>
      </trkpt>
      <trkpt lat="43.64198" lon="3.82318">
        <ele>104.91000064</ele>
        <time>2020-10-17T09:46:27.000Z</time>
      </trkpt>
      <trkpt lat="43.64195" lon="3.8232">
        <ele>105.11000064</ele>
        <time>2020-10-17T09:46:28.000Z</time>
      </trkpt>
      <trkpt lat="43.64193" lon="3.82323">
        <ele>105.31000064</ele>
        <time>2020-10-17T09:46:29.000Z</time>
      </trkpt>
      <trkpt lat="43.6419" lon="3.82325">
        <ele>105.51000064</ele>
        <time>2020-10-17T09:46:30.000Z</time>
      </trkpt>
      <trkpt lat="43.64188" lon="3.82328">
        <ele>105.71000064</ele>
        <time>2020-10-17T09:46:31.000Z</time>
      </trkpt>
      <trkpt lat="43.64186" lon="3.82331">
        <ele>105.91000064</ele>
        <time>2020-10-17T09:46:32.000Z</time>
      </trkpt>
      <trkpt lat="43.64184" lon="3.82334">
        <ele>106.05500032</ele>
        <time>2020-10-17T09:46:33.000Z</time>
      </trkpt>
      <trkpt lat="43.64182" lon="3.82337">
        <ele>106.15500032</ele>
        <time>2020-10-17T09:46:34.000Z</time>
      </trkpt>
      <trkpt lat="43.64181" lon="3.82341">
        <ele>106.25500032</ele>
        <time>2020-10-17T09:46:35.000Z</time>
      </trkpt>
      <trkpt lat="43.64181" lon="3.82345">
        <ele>106.35500032</ele>
        <time>2020-10-17T09:46:36.000Z</time>
      </trkpt>
      <trkpt lat="43.6418" lon="3.82349">
        <ele>106.45500032</ele>
        <time>2020-10-17T09:46:37.000Z</time>
      </trkpt>
      <trkpt lat="43.64179" lon="3.82352">
        <ele>106.55500032</ele>
        <time>2020-10-17T09:46:38.000Z</time>
      </trkpt>
      <trkpt lat="43.64179" lon="3.82356">
        <ele>106.65500032</ele>
        <time>2020-10-17T09:46:39.000Z</time>
      </trkpt>
      <trkpt lat="43.64178" lon="3.82359">
        <ele>106.75500032</ele>
        <time>2020-10-17T09:46:40.000Z</time>
      </trkpt>
      <trkpt lat="43.64177" lon="3.82363">
        <ele>106.85500032</ele>
        <time>2020-10-17T09:46:41.000Z</time>
      </trkpt>
      <trkpt lat="43.64175" lon="3.82366">
        <ele>106.95500032</ele>
        <time>2020-10-17T09:46:42.000Z</time>
      </trkpt>
      <trkpt lat="43.64174" lon="3.8237">
        <ele>107</ele>
        <time>2020-10-17T09:46:43.000Z</time>
      </trkpt>
      <trkpt lat="43.64173" lon="3.82373">
        <ele>107</ele>
        <time>2020-10-17T09:46:44.000Z</time>
      </trkpt>
      <trkpt lat="43.64172" lon="3.82376">
        <ele>107</ele>
        <time>2020-10-17T09:46:45.000Z</time>
      </trkpt>
      <trkpt lat="43.6417" lon="3.82377">
        <ele>107</ele>
        <time>2020-10-17T09:46:47.000Z</time>
      </trkpt>
      <trkpt lat="43.64167" lon="3.82378">
        <ele>107</ele>
        <time>2020-10-17T09:46:49.000Z</time>
      </trkpt>
      <trkpt lat="43.64166" lon="3.8238">
        <ele>107</ele>
        <time>2020-10-17T09:46:50.000Z</time>
      </trkpt>
      <trkpt lat="43.64164" lon="3.82383">
        <ele>107</ele>
        <time>2020-10-17T09:46:51.000Z</time>
      </trkpt>
      <trkpt lat="43.64162" lon="3.82385">
        <ele>107</ele>
        <time>2020-10-17T09:46:52.000Z</time>
      </trkpt>
      <trkpt lat="43.64161" lon="3.82389">
        <ele>106.89309944197</ele>
        <time>2020-10-17T09:46:53.000Z</time>
      </trkpt>
      <trkpt lat="43.6416" lon="3.82392">
        <ele>106.69873592186</ele>
        <time>2020-10-17T09:46:54.000Z</time>
      </trkpt>
      <trkpt lat="43.64159" lon="3.82396">
        <ele>106.50437240175</ele>
        <time>2020-10-17T09:46:55.000Z</time>
      </trkpt>
      <trkpt lat="43.64158" lon="3.82399">
        <ele>106.31000888163</ele>
        <time>2020-10-17T09:46:56.000Z</time>
      </trkpt>
      <trkpt lat="43.64157" lon="3.82403">
        <ele>106.11564536152</ele>
        <time>2020-10-17T09:46:57.000Z</time>
      </trkpt>
      <trkpt lat="43.64156" lon="3.82406">
        <ele>105.92128184141</ele>
        <time>2020-10-17T09:46:58.000Z</time>
      </trkpt>
      <trkpt lat="43.64154" lon="3.8241">
        <ele>105.7269183213</ele>
        <time>2020-10-17T09:46:59.000Z</time>
      </trkpt>
      <trkpt lat="43.64153" lon="3.82413">
        <ele>105.53255480118</ele>
        <time>2020-10-17T09:47:00.000Z</time>
      </trkpt>
      <trkpt lat="43.64152" lon="3.82416">
        <ele>105.33819128107</ele>
        <time>2020-10-17T09:47:01.000Z</time>
      </trkpt>
      <trkpt lat="43.6415" lon="3.82419">
        <ele>105.14382776096</ele>
        <time>2020-10-17T09:47:02.000Z</time>
      </trkpt>
      <trkpt lat="43.64149" lon="3.82422">
        <ele>105</ele>
        <time>2020-10-17T09:47:03.000Z</time>
      </trkpt>
      <trkpt lat="43.64149" lon="3.82424">
        <ele>105</ele>
        <time>2020-10-17T09:47:05.000Z</time>
      </trkpt>
      <trkpt lat="43.64149" lon="3.82424">
        <ele>105</ele>
        <time>2020-10-17T09:47:09.000Z</time>
      </trkpt>
      <trkpt lat="43.6415" lon="3.82435">
        <ele>104.12708266667</ele>
        <time>2020-10-17T09:47:14.000Z</time>
      </trkpt>
      <trkpt lat="43.64149" lon="3.82439">
        <ele>103.96134344139</ele>
        <time>2020-10-17T09:47:15.000Z</time>
      </trkpt>
      <trkpt lat="43.64147" lon="3.82442">
        <ele>103.85961394225</ele>
        <time>2020-10-17T09:47:16.000Z</time>
      </trkpt>
      <trkpt lat="43.64146" lon="3.82447">
        <ele>103.7578844431</ele>
        <time>2020-10-17T09:47:17.000Z</time>
      </trkpt>
      <trkpt lat="43.64146" lon="3.82452">
        <ele>103.65615494396</ele>
        <time>2020-10-17T09:47:18.000Z</time>
      </trkpt>
      <trkpt lat="43.64145" lon="3.82458">
        <ele>103.55442544481</ele>
        <time>2020-10-17T09:47:19.000Z</time>
      </trkpt>
      <trkpt lat="43.64144" lon="3.82464">
        <ele>103.45269594566</ele>
        <time>2020-10-17T09:47:20.000Z</time>
      </trkpt>
      <trkpt lat="43.64142" lon="3.82469">
        <ele>103.35096644652</ele>
        <time>2020-10-17T09:47:21.000Z</time>
      </trkpt>
      <trkpt lat="43.6414" lon="3.82473">
        <ele>103.24923694737</ele>
        <time>2020-10-17T09:47:22.000Z</time>
      </trkpt>
      <trkpt lat="43.64138" lon="3.82477">
        <ele>103.14750744823</ele>
        <time>2020-10-17T09:47:23.000Z</time>
      </trkpt>
      <trkpt lat="43.64137" lon="3.8248">
        <ele>103.04577794908</ele>
        <time>2020-10-17T09:47:24.000Z</time>
      </trkpt>
      <trkpt lat="43.64136" lon="3.82485">
        <ele>102.94701321186</ele>
        <time>2020-10-17T09:47:25.000Z</time>
      </trkpt>
      <trkpt lat="43.64134" lon="3.8249">
        <ele>102.85067415758</ele>
        <time>2020-10-17T09:47:26.000Z</time>
      </trkpt>
      <trkpt lat="43.64133" lon="3.82496">
        <ele>102.7543351033</ele>
        <time>2020-10-17T09:47:27.000Z</time>
      </trkpt>
      <trkpt lat="43.64131" lon="3.82501">
        <ele>102.65799604902</ele>
        <time>2020-10-17T09:47:28.000Z</time>
      </trkpt>
      <trkpt lat="43.64128" lon="3.82506">
        <ele>102.56165699474</ele>
        <time>2020-10-17T09:47:29.000Z</time>
      </trkpt>
      <trkpt lat="43.64125" lon="3.8251">
        <ele>102.46531794046</ele>
        <time>2020-10-17T09:47:30.000Z</time>
      </trkpt>
      <trkpt lat="43.64122" lon="3.82514">
        <ele>102.36897888618</ele>
        <time>2020-10-17T09:47:31.000Z</time>
      </trkpt>
      <trkpt lat="43.6412" lon="3.82518">
        <ele>102.2726398319</ele>
        <time>2020-10-17T09:47:32.000Z</time>
      </trkpt>
      <trkpt lat="43.64118" lon="3.82522">
        <ele>102.17630077762</ele>
        <time>2020-10-17T09:47:33.000Z</time>
      </trkpt>
      <trkpt lat="43.64116" lon="3.82527">
        <ele>102.07996172334</ele>
        <time>2020-10-17T09:47:34.000Z</time>
      </trkpt>
      <trkpt lat="43.64114" lon="3.82532">
        <ele>101.96465760643</ele>
        <time>2020-10-17T09:47:35.000Z</time>
      </trkpt>
      <trkpt lat="43.64112" lon="3.82537">
        <ele>101.75675726021</ele>
        <time>2020-10-17T09:47:36.000Z</time>
      </trkpt>
      <trkpt lat="43.6411" lon="3.82542">
        <ele>101.548856914</ele>
        <time>2020-10-17T09:47:37.000Z</time>
      </trkpt>
      <trkpt lat="43.64108" lon="3.82548">
        <ele>101.34095656779</ele>
        <time>2020-10-17T09:47:38.000Z</time>
      </trkpt>
      <trkpt lat="43.64107" lon="3.82553">
        <ele>101.13305622158</ele>
        <time>2020-10-17T09:47:39.000Z</time>
      </trkpt>
      <trkpt lat="43.64106" lon="3.82559">
        <ele>100.92515587536</ele>
        <time>2020-10-17T09:47:40.000Z</time>
      </trkpt>
      <trkpt lat="43.64104" lon="3.82565">
        <ele>100.71725552915</ele>
        <time>2020-10-17T09:47:41.000Z</time>
      </trkpt>
      <trkpt lat="43.64101" lon="3.8257">
        <ele>100.50935518294</ele>
        <time>2020-10-17T09:47:42.000Z</time>
      </trkpt>
      <trkpt lat="43.64099" lon="3.82576">
        <ele>100.30145483673</ele>
        <time>2020-10-17T09:47:43.000Z</time>
      </trkpt>
      <trkpt lat="43.64097" lon="3.82582">
        <ele>100.09355449051</ele>
        <time>2020-10-17T09:47:44.000Z</time>
      </trkpt>
      <trkpt lat="43.64094" lon="3.82588">
        <ele>99.88999936</ele>
        <time>2020-10-17T09:47:45.000Z</time>
      </trkpt>
      <trkpt lat="43.64091" lon="3.82593">
        <ele>99.68999936</ele>
        <time>2020-10-17T09:47:46.000Z</time>
      </trkpt>
      <trkpt lat="43.64089" lon="3.826">
        <ele>99.48999936</ele>
        <time>2020-10-17T09:47:47.000Z</time>
      </trkpt>
      <trkpt lat="43.64087" lon="3.82607">
        <ele>99.28999936</ele>
        <time>2020-10-17T09:47:48.000Z</time>
      </trkpt>
      <trkpt lat="43.64085" lon="3.82613">
        <ele>99.08999936</ele>
        <time>2020-10-17T09:47:49.000Z</time>
      </trkpt>
      <trkpt lat="43.64083" lon="3.8262">
        <ele>98.88999936</ele>
        <time>2020-10-17T09:47:50.000Z</time>
      </trkpt>
      <trkpt lat="43.64081" lon="3.82627">
        <ele>98.68999936</ele>
        <time>2020-10-17T09:47:51.000Z</time>
      </trkpt>
      <trkpt lat="43.6408" lon="3.82634">
        <ele>98.48999936</ele>
        <time>2020-10-17T09:47:52.000Z</time>
      </trkpt>
      <trkpt lat="43.64079" lon="3.82642">
        <ele>98.28999936</ele>
        <time>2020-10-17T09:47:53.000Z</time>
      </trkpt>
      <trkpt lat="43.64077" lon="3.8265">
        <ele>98.08999936</ele>
        <time>2020-10-17T09:47:54.000Z</time>
      </trkpt>
      <trkpt lat="43.64074" lon="3.82658">
        <ele>97.7249984</ele>
        <time>2020-10-17T09:47:55.000Z</time>
      </trkpt>
      <trkpt lat="43.6407" lon="3.82666">
        <ele>97.2249984</ele>
        <time>2020-10-17T09:47:56.000Z</time>
      </trkpt>
      <trkpt lat="43.64066" lon="3.82674">
        <ele>96.7249984</ele>
        <time>2020-10-17T09:47:57.000Z</time>
      </trkpt>
      <trkpt lat="43.64062" lon="3.82682">
        <ele>96.2249984</ele>
        <time>2020-10-17T09:47:58.000Z</time>
      </trkpt>
      <trkpt lat="43.64059" lon="3.8269">
        <ele>95.7249984</ele>
        <time>2020-10-17T09:47:59.000Z</time>
      </trkpt>
      <trkpt lat="43.64057" lon="3.82699">
        <ele>95.2249984</ele>
        <time>2020-10-17T09:48:00.000Z</time>
      </trkpt>
      <trkpt lat="43.64055" lon="3.82708">
        <ele>94.7249984</ele>
        <time>2020-10-17T09:48:01.000Z</time>
      </trkpt>
      <trkpt lat="43.64051" lon="3.82715">
        <ele>94.2249984</ele>
        <time>2020-10-17T09:48:02.000Z</time>
      </trkpt>
      <trkpt lat="43.64048" lon="3.82722">
        <ele>93.7249984</ele>
        <time>2020-10-17T09:48:03.000Z</time>
      </trkpt>
      <trkpt lat="43.64044" lon="3.8273">
        <ele>93.2249984</ele>
        <time>2020-10-17T09:48:04.000Z</time>
      </trkpt>
      <trkpt lat="43.64039" lon="3.82737">
        <ele>92.83499904</ele>
        <time>2020-10-17T09:48:05.000Z</time>
      </trkpt>
      <trkpt lat="43.64035" lon="3.82744">
        <ele>92.53499904</ele>
        <time>2020-10-17T09:48:06.000Z</time>
      </trkpt>
      <trkpt lat="43.64032" lon="3.82752">
        <ele>92.23499904</ele>
        <time>2020-10-17T09:48:07.000Z</time>
      </trkpt>
      <trkpt lat="43.64029" lon="3.8276">
        <ele>91.93499904</ele>
        <time>2020-10-17T09:48:08.000Z</time>
      </trkpt>
      <trkpt lat="43.64025" lon="3.82767">
        <ele>91.63499904</ele>
        <time>2020-10-17T09:48:09.000Z</time>
      </trkpt>
      <trkpt lat="43.64021" lon="3.82774">
        <ele>91.33499904</ele>
        <time>2020-10-17T09:48:10.000Z</time>
      </trkpt>
      <trkpt lat="43.64018" lon="3.82779">
        <ele>91.03499904</ele>
        <time>2020-10-17T09:48:11.000Z</time>
      </trkpt>
      <trkpt lat="43.64016" lon="3.82784">
        <ele>90.73499904</ele>
        <time>2020-10-17T09:48:12.000Z</time>
      </trkpt>
      <trkpt lat="43.64015" lon="3.82788">
        <ele>90.43499904</ele>
        <time>2020-10-17T09:48:13.000Z</time>
      </trkpt>
      <trkpt lat="43.64014" lon="3.82792">
        <ele>90.13499904</ele>
        <time>2020-10-17T09:48:14.000Z</time>
      </trkpt>
      <trkpt lat="43.64014" lon="3.82796">
        <ele>89.781996835107</ele>
        <time>2020-10-17T09:48:16.000Z</time>
      </trkpt>
      <trkpt lat="43.64014" lon="3.82794">
        <ele>89.078762271162</ele>
        <time>2020-10-17T09:48:21.000Z</time>
      </trkpt>
      <trkpt lat="43.6402" lon="3.82789">
        <ele>86.993691518343</ele>
        <time>2020-10-17T09:48:57.000Z</time>
      </trkpt>
      <trkpt lat="43.64019" lon="3.82786">
        <ele>86.783386363881</ele>
        <time>2020-10-17T09:48:59.000Z</time>
      </trkpt>
      <trkpt lat="43.64016" lon="3.82787">
        <ele>86.573081209419</ele>
        <time>2020-10-17T09:49:01.000Z</time>
      </trkpt>
      <trkpt lat="43.64014" lon="3.82789">
        <ele>86.362776054958</ele>
        <time>2020-10-17T09:49:03.000Z</time>
      </trkpt>
      <trkpt lat="43.64012" lon="3.82791">
        <ele>86.152470900496</ele>
        <time>2020-10-17T09:49:05.000Z</time>
      </trkpt>
      <trkpt lat="43.6401" lon="3.82791">
        <ele>85.461165072674</ele>
        <time>2020-10-17T09:49:12.000Z</time>
      </trkpt>
      <trkpt lat="43.64008" lon="3.82793">
        <ele>85.364077754359</ele>
        <time>2020-10-17T09:49:13.000Z</time>
      </trkpt>
      <trkpt lat="43.64006" lon="3.82794">
        <ele>85.266990436045</ele>
        <time>2020-10-17T09:49:14.000Z</time>
      </trkpt>
      <trkpt lat="43.64003" lon="3.82794">
        <ele>85.16990311773</ele>
        <time>2020-10-17T09:49:15.000Z</time>
      </trkpt>
      <trkpt lat="43.64" lon="3.82794">
        <ele>85.072815799415</ele>
        <time>2020-10-17T09:49:16.000Z</time>
      </trkpt>
      <trkpt lat="43.63997" lon="3.82795">
        <ele>84.974227117016</ele>
        <time>2020-10-17T09:49:17.000Z</time>
      </trkpt>
      <trkpt lat="43.63993" lon="3.82795">
        <ele>84.871134265491</ele>
        <time>2020-10-17T09:49:18.000Z</time>
      </trkpt>
      <trkpt lat="43.63989" lon="3.82797">
        <ele>84.768041413966</ele>
        <time>2020-10-17T09:49:19.000Z</time>
      </trkpt>
      <trkpt lat="43.63985" lon="3.82798">
        <ele>84.66494856244</ele>
        <time>2020-10-17T09:49:20.000Z</time>
      </trkpt>
      <trkpt lat="43.63981" lon="3.82799">
        <ele>84.561855710915</ele>
        <time>2020-10-17T09:49:21.000Z</time>
      </trkpt>
      <trkpt lat="43.63977" lon="3.82799">
        <ele>84.45876285939</ele>
        <time>2020-10-17T09:49:22.000Z</time>
      </trkpt>
      <trkpt lat="43.63973" lon="3.828">
        <ele>84.355670007865</ele>
        <time>2020-10-17T09:49:23.000Z</time>
      </trkpt>
      <trkpt lat="43.6397" lon="3.82801">
        <ele>84.25257715634</ele>
        <time>2020-10-17T09:49:24.000Z</time>
      </trkpt>
      <trkpt lat="43.63968" lon="3.82803">
        <ele>84.149484304814</ele>
        <time>2020-10-17T09:49:25.000Z</time>
      </trkpt>
      <trkpt lat="43.63966" lon="3.82806">
        <ele>84.046391453289</ele>
        <time>2020-10-17T09:49:26.000Z</time>
      </trkpt>
      <trkpt lat="43.63964" lon="3.82808">
        <ele>83.94499968</ele>
        <time>2020-10-17T09:49:27.000Z</time>
      </trkpt>
      <trkpt lat="43.63962" lon="3.82811">
        <ele>83.84499968</ele>
        <time>2020-10-17T09:49:28.000Z</time>
      </trkpt>
      <trkpt lat="43.63959" lon="3.82814">
        <ele>83.74499968</ele>
        <time>2020-10-17T09:49:29.000Z</time>
      </trkpt>
      <trkpt lat="43.63957" lon="3.82817">
        <ele>83.64499968</ele>
        <time>2020-10-17T09:49:30.000Z</time>
      </trkpt>
      <trkpt lat="43.63953" lon="3.8282">
        <ele>83.54499968</ele>
        <time>2020-10-17T09:49:31.000Z</time>
      </trkpt>
      <trkpt lat="43.63949" lon="3.82822">
        <ele>83.44499968</ele>
        <time>2020-10-17T09:49:32.000Z</time>
      </trkpt>
      <trkpt lat="43.63945" lon="3.82822">
        <ele>83.34499968</ele>
        <time>2020-10-17T09:49:33.000Z</time>
      </trkpt>
      <trkpt lat="43.63942" lon="3.82822">
        <ele>83.24499968</ele>
        <time>2020-10-17T09:49:34.000Z</time>
      </trkpt>
      <trkpt lat="43.63939" lon="3.82822">
        <ele>83.14499968</ele>
        <time>2020-10-17T09:49:35.000Z</time>
      </trkpt>
      <trkpt lat="43.63936" lon="3.82823">
        <ele>83.04499968</ele>
        <time>2020-10-17T09:49:36.000Z</time>
      </trkpt>
      <trkpt lat="43.63934" lon="3.82825">
        <ele>83</ele>
        <time>2020-10-17T09:49:37.000Z</time>
      </trkpt>
      <trkpt lat="43.63932" lon="3.82825">
        <ele>83</ele>
        <time>2020-10-17T09:49:38.000Z</time>
      </trkpt>
      <trkpt lat="43.63931" lon="3.82826">
        <ele>83</ele>
        <time>2020-10-17T09:49:45.000Z</time>
      </trkpt>
      <trkpt lat="43.63923" lon="3.82829">
        <ele>83</ele>
        <time>2020-10-17T09:50:00.000Z</time>
      </trkpt>
      <trkpt lat="43.63922" lon="3.82827">
        <ele>82.992760788331</ele>
        <time>2020-10-17T09:50:01.000Z</time>
      </trkpt>
      <trkpt lat="43.63921" lon="3.82824">
        <ele>82.889348206214</ele>
        <time>2020-10-17T09:50:02.000Z</time>
      </trkpt>
      <trkpt lat="43.63919" lon="3.82819">
        <ele>82.785935624096</ele>
        <time>2020-10-17T09:50:03.000Z</time>
      </trkpt>
      <trkpt lat="43.63918" lon="3.82815">
        <ele>82.682523041978</ele>
        <time>2020-10-17T09:50:04.000Z</time>
      </trkpt>
      <trkpt lat="43.63917" lon="3.82811">
        <ele>82.57911045986</ele>
        <time>2020-10-17T09:50:05.000Z</time>
      </trkpt>
      <trkpt lat="43.63916" lon="3.82807">
        <ele>82.475697877742</ele>
        <time>2020-10-17T09:50:06.000Z</time>
      </trkpt>
      <trkpt lat="43.63913" lon="3.82805">
        <ele>82.372285295624</ele>
        <time>2020-10-17T09:50:07.000Z</time>
      </trkpt>
      <trkpt lat="43.63911" lon="3.82804">
        <ele>82.268872713506</ele>
        <time>2020-10-17T09:50:08.000Z</time>
      </trkpt>
      <trkpt lat="43.63909" lon="3.82806">
        <ele>82.165460131389</ele>
        <time>2020-10-17T09:50:09.000Z</time>
      </trkpt>
      <trkpt lat="43.63907" lon="3.82807">
        <ele>82.062047549271</ele>
        <time>2020-10-17T09:50:10.000Z</time>
      </trkpt>
      <trkpt lat="43.63905" lon="3.82807">
        <ele>82.039486685721</ele>
        <time>2020-10-17T09:50:11.000Z</time>
      </trkpt>
      <trkpt lat="43.63902" lon="3.82807">
        <ele>82.138203400025</ele>
        <time>2020-10-17T09:50:12.000Z</time>
      </trkpt>
      <trkpt lat="43.63899" lon="3.82806">
        <ele>82.236920114328</ele>
        <time>2020-10-17T09:50:13.000Z</time>
      </trkpt>
      <trkpt lat="43.63896" lon="3.82804">
        <ele>82.335636828632</ele>
        <time>2020-10-17T09:50:14.000Z</time>
      </trkpt>
      <trkpt lat="43.63894" lon="3.82801">
        <ele>82.434353542935</ele>
        <time>2020-10-17T09:50:15.000Z</time>
      </trkpt>
      <trkpt lat="43.63892" lon="3.82797">
        <ele>82.533070257238</ele>
        <time>2020-10-17T09:50:16.000Z</time>
      </trkpt>
      <trkpt lat="43.63891" lon="3.82791">
        <ele>82.631786971542</ele>
        <time>2020-10-17T09:50:17.000Z</time>
      </trkpt>
      <trkpt lat="43.63889" lon="3.82786">
        <ele>82.730503685845</ele>
        <time>2020-10-17T09:50:18.000Z</time>
      </trkpt>
      <trkpt lat="43.63888" lon="3.82781">
        <ele>82.829220400149</ele>
        <time>2020-10-17T09:50:19.000Z</time>
      </trkpt>
      <trkpt lat="43.63886" lon="3.82777">
        <ele>82.927937114452</ele>
        <time>2020-10-17T09:50:20.000Z</time>
      </trkpt>
      <trkpt lat="43.63885" lon="3.82772">
        <ele>83.027778106996</ele>
        <time>2020-10-17T09:50:21.000Z</time>
      </trkpt>
      <trkpt lat="43.63883" lon="3.82769">
        <ele>83.130658765432</ele>
        <time>2020-10-17T09:50:22.000Z</time>
      </trkpt>
      <trkpt lat="43.63882" lon="3.82765">
        <ele>83.233539423868</ele>
        <time>2020-10-17T09:50:23.000Z</time>
      </trkpt>
      <trkpt lat="43.6388" lon="3.82762">
        <ele>83.336420082304</ele>
        <time>2020-10-17T09:50:24.000Z</time>
      </trkpt>
      <trkpt lat="43.63879" lon="3.82758">
        <ele>83.439300740741</ele>
        <time>2020-10-17T09:50:25.000Z</time>
      </trkpt>
      <trkpt lat="43.63879" lon="3.82754">
        <ele>83.542181399177</ele>
        <time>2020-10-17T09:50:26.000Z</time>
      </trkpt>
      <trkpt lat="43.63878" lon="3.8275">
        <ele>83.645062057613</ele>
        <time>2020-10-17T09:50:27.000Z</time>
      </trkpt>
      <trkpt lat="43.63878" lon="3.82746">
        <ele>83.747942716049</ele>
        <time>2020-10-17T09:50:28.000Z</time>
      </trkpt>
      <trkpt lat="43.63877" lon="3.82742">
        <ele>83.850823374486</ele>
        <time>2020-10-17T09:50:29.000Z</time>
      </trkpt>
      <trkpt lat="43.63875" lon="3.82738">
        <ele>83.953704032922</ele>
        <time>2020-10-17T09:50:30.000Z</time>
      </trkpt>
      <trkpt lat="43.63874" lon="3.82734">
        <ele>84</ele>
        <time>2020-10-17T09:50:31.000Z</time>
      </trkpt>
      <trkpt lat="43.63873" lon="3.8273">
        <ele>84</ele>
        <time>2020-10-17T09:50:32.000Z</time>
      </trkpt>
      <trkpt lat="43.63872" lon="3.82726">
        <ele>84</ele>
        <time>2020-10-17T09:50:33.000Z</time>
      </trkpt>
      <trkpt lat="43.63871" lon="3.82722">
        <ele>84</ele>
        <time>2020-10-17T09:50:34.000Z</time>
      </trkpt>
      <trkpt lat="43.63869" lon="3.8272">
        <ele>84</ele>
        <time>2020-10-17T09:50:35.000Z</time>
      </trkpt>
      <trkpt lat="43.63866" lon="3.82718">
        <ele>84</ele>
        <time>2020-10-17T09:50:36.000Z</time>
      </trkpt>
      <trkpt lat="43.63863" lon="3.82716">
        <ele>84</ele>
        <time>2020-10-17T09:50:37.000Z</time>
      </trkpt>
      <trkpt lat="43.6386" lon="3.82716">
        <ele>84</ele>
        <time>2020-10-17T09:50:38.000Z</time>
      </trkpt>
      <trkpt lat="43.63856" lon="3.82716">
        <ele>84</ele>
        <time>2020-10-17T09:50:39.000Z</time>
      </trkpt>
      <trkpt lat="43.63852" lon="3.82717">
        <ele>84</ele>
        <time>2020-10-17T09:50:40.000Z</time>
      </trkpt>
      <trkpt lat="43.63848" lon="3.82718">
        <ele>83.911021204779</ele>
        <time>2020-10-17T09:50:41.000Z</time>
      </trkpt>
      <trkpt lat="43.63844" lon="3.8272">
        <ele>83.708796670187</ele>
        <time>2020-10-17T09:50:42.000Z</time>
      </trkpt>
      <trkpt lat="43.63839" lon="3.82721">
        <ele>83.506572135595</ele>
        <time>2020-10-17T09:50:43.000Z</time>
      </trkpt>
      <trkpt lat="43.63833" lon="3.82723">
        <ele>83.304347601002</ele>
        <time>2020-10-17T09:50:44.000Z</time>
      </trkpt>
      <trkpt lat="43.63827" lon="3.82724">
        <ele>83.10212306641</ele>
        <time>2020-10-17T09:50:45.000Z</time>
      </trkpt>
      <trkpt lat="43.63822" lon="3.82725">
        <ele>82.899898531817</ele>
        <time>2020-10-17T09:50:46.000Z</time>
      </trkpt>
      <trkpt lat="43.63816" lon="3.82728">
        <ele>82.697673997225</ele>
        <time>2020-10-17T09:50:47.000Z</time>
      </trkpt>
      <trkpt lat="43.63809" lon="3.8273">
        <ele>82.495449462633</ele>
        <time>2020-10-17T09:50:48.000Z</time>
      </trkpt>
      <trkpt lat="43.63803" lon="3.82733">
        <ele>82.29322492804</ele>
        <time>2020-10-17T09:50:49.000Z</time>
      </trkpt>
      <trkpt lat="43.63797" lon="3.82735">
        <ele>82.091000393448</ele>
        <time>2020-10-17T09:50:50.000Z</time>
      </trkpt>
      <trkpt lat="43.63791" lon="3.82736">
        <ele>82</ele>
        <time>2020-10-17T09:50:51.000Z</time>
      </trkpt>
      <trkpt lat="43.63786" lon="3.82739">
        <ele>82</ele>
        <time>2020-10-17T09:50:52.000Z</time>
      </trkpt>
      <trkpt lat="43.63781" lon="3.82743">
        <ele>82</ele>
        <time>2020-10-17T09:50:53.000Z</time>
      </trkpt>
      <trkpt lat="43.63775" lon="3.82746">
        <ele>82</ele>
        <time>2020-10-17T09:50:54.000Z</time>
      </trkpt>
      <trkpt lat="43.63769" lon="3.82748">
        <ele>82</ele>
        <time>2020-10-17T09:50:55.000Z</time>
      </trkpt>
      <trkpt lat="43.63762" lon="3.82749">
        <ele>82</ele>
        <time>2020-10-17T09:50:56.000Z</time>
      </trkpt>
      <trkpt lat="43.63755" lon="3.8275">
        <ele>82</ele>
        <time>2020-10-17T09:50:57.000Z</time>
      </trkpt>
      <trkpt lat="43.63749" lon="3.82751">
        <ele>82</ele>
        <time>2020-10-17T09:50:58.000Z</time>
      </trkpt>
      <trkpt lat="43.63743" lon="3.82752">
        <ele>82</ele>
        <time>2020-10-17T09:50:59.000Z</time>
      </trkpt>
      <trkpt lat="43.63736" lon="3.82753">
        <ele>82</ele>
        <time>2020-10-17T09:51:00.000Z</time>
      </trkpt>
      <trkpt lat="43.6373" lon="3.82754">
        <ele>81.94499968</ele>
        <time>2020-10-17T09:51:01.000Z</time>
      </trkpt>
      <trkpt lat="43.63724" lon="3.82756">
        <ele>81.84499968</ele>
        <time>2020-10-17T09:51:02.000Z</time>
      </trkpt>
      <trkpt lat="43.63719" lon="3.82757">
        <ele>81.74499968</ele>
        <time>2020-10-17T09:51:03.000Z</time>
      </trkpt>
      <trkpt lat="43.63713" lon="3.82759">
        <ele>81.64499968</ele>
        <time>2020-10-17T09:51:04.000Z</time>
      </trkpt>
      <trkpt lat="43.63707" lon="3.8276">
        <ele>81.54499968</ele>
        <time>2020-10-17T09:51:05.000Z</time>
      </trkpt>
      <trkpt lat="43.63702" lon="3.82762">
        <ele>81.44499968</ele>
        <time>2020-10-17T09:51:06.000Z</time>
      </trkpt>
      <trkpt lat="43.63697" lon="3.82763">
        <ele>81.34499968</ele>
        <time>2020-10-17T09:51:07.000Z</time>
      </trkpt>
      <trkpt lat="43.63692" lon="3.82764">
        <ele>81.24499968</ele>
        <time>2020-10-17T09:51:08.000Z</time>
      </trkpt>
      <trkpt lat="43.63687" lon="3.82766">
        <ele>81.14499968</ele>
        <time>2020-10-17T09:51:09.000Z</time>
      </trkpt>
      <trkpt lat="43.63682" lon="3.82767">
        <ele>81.04499968</ele>
        <time>2020-10-17T09:51:10.000Z</time>
      </trkpt>
      <trkpt lat="43.63677" lon="3.82768">
        <ele>80.94499968</ele>
        <time>2020-10-17T09:51:11.000Z</time>
      </trkpt>
      <trkpt lat="43.63672" lon="3.82769">
        <ele>80.84499968</ele>
        <time>2020-10-17T09:51:12.000Z</time>
      </trkpt>
      <trkpt lat="43.63668" lon="3.8277">
        <ele>80.74499968</ele>
        <time>2020-10-17T09:51:13.000Z</time>
      </trkpt>
      <trkpt lat="43.63663" lon="3.82771">
        <ele>80.64499968</ele>
        <time>2020-10-17T09:51:14.000Z</time>
      </trkpt>
      <trkpt lat="43.63659" lon="3.82772">
        <ele>80.54499968</ele>
        <time>2020-10-17T09:51:15.000Z</time>
      </trkpt>
      <trkpt lat="43.63654" lon="3.82773">
        <ele>80.44499968</ele>
        <time>2020-10-17T09:51:16.000Z</time>
      </trkpt>
      <trkpt lat="43.6365" lon="3.82773">
        <ele>80.34499968</ele>
        <time>2020-10-17T09:51:17.000Z</time>
      </trkpt>
      <trkpt lat="43.63646" lon="3.82771">
        <ele>80.24499968</ele>
        <time>2020-10-17T09:51:18.000Z</time>
      </trkpt>
      <trkpt lat="43.63643" lon="3.82769">
        <ele>80.14499968</ele>
        <time>2020-10-17T09:51:19.000Z</time>
      </trkpt>
      <trkpt lat="43.63641" lon="3.82769">
        <ele>80.04499968</ele>
        <time>2020-10-17T09:51:20.000Z</time>
      </trkpt>
      <trkpt lat="43.63638" lon="3.82769">
        <ele>80.05500032</ele>
        <time>2020-10-17T09:51:21.000Z</time>
      </trkpt>
      <trkpt lat="43.63636" lon="3.82768">
        <ele>80.15500032</ele>
        <time>2020-10-17T09:51:22.000Z</time>
      </trkpt>
      <trkpt lat="43.63633" lon="3.82767">
        <ele>80.25500032</ele>
        <time>2020-10-17T09:51:23.000Z</time>
      </trkpt>
      <trkpt lat="43.63631" lon="3.82767">
        <ele>80.35500032</ele>
        <time>2020-10-17T09:51:24.000Z</time>
      </trkpt>
      <trkpt lat="43.63629" lon="3.82768">
        <ele>80.45500032</ele>
        <time>2020-10-17T09:51:25.000Z</time>
      </trkpt>
      <trkpt lat="43.63627" lon="3.8277">
        <ele>80.55500032</ele>
        <time>2020-10-17T09:51:26.000Z</time>
      </trkpt>
      <trkpt lat="43.63625" lon="3.82771">
        <ele>80.65500032</ele>
        <time>2020-10-17T09:51:27.000Z</time>
      </trkpt>
      <trkpt lat="43.63622" lon="3.82772">
        <ele>80.75500032</ele>
        <time>2020-10-17T09:51:28.000Z</time>
      </trkpt>
      <trkpt lat="43.6362" lon="3.82773">
        <ele>80.85500032</ele>
        <time>2020-10-17T09:51:29.000Z</time>
      </trkpt>
      <trkpt lat="43.63617" lon="3.82774">
        <ele>80.95500032</ele>
        <time>2020-10-17T09:51:30.000Z</time>
      </trkpt>
      <trkpt lat="43.63614" lon="3.82776">
        <ele>81.05500032</ele>
        <time>2020-10-17T09:51:31.000Z</time>
      </trkpt>
      <trkpt lat="43.63611" lon="3.82776">
        <ele>81.15500032</ele>
        <time>2020-10-17T09:51:32.000Z</time>
      </trkpt>
      <trkpt lat="43.63609" lon="3.82777">
        <ele>81.25500032</ele>
        <time>2020-10-17T09:51:33.000Z</time>
      </trkpt>
      <trkpt lat="43.63606" lon="3.82778">
        <ele>81.35500032</ele>
        <time>2020-10-17T09:51:34.000Z</time>
      </trkpt>
      <trkpt lat="43.63603" lon="3.82778">
        <ele>81.45500032</ele>
        <time>2020-10-17T09:51:35.000Z</time>
      </trkpt>
      <trkpt lat="43.636" lon="3.82779">
        <ele>81.55500032</ele>
        <time>2020-10-17T09:51:36.000Z</time>
      </trkpt>
      <trkpt lat="43.63598" lon="3.8278">
        <ele>81.65500032</ele>
        <time>2020-10-17T09:51:37.000Z</time>
      </trkpt>
      <trkpt lat="43.63595" lon="3.82781">
        <ele>81.75500032</ele>
        <time>2020-10-17T09:51:38.000Z</time>
      </trkpt>
      <trkpt lat="43.63592" lon="3.82782">
        <ele>81.85500032</ele>
        <time>2020-10-17T09:51:39.000Z</time>
      </trkpt>
      <trkpt lat="43.63589" lon="3.82782">
        <ele>81.95500032</ele>
        <time>2020-10-17T09:51:40.000Z</time>
      </trkpt>
      <trkpt lat="43.63586" lon="3.82783">
        <ele>82.11000064</ele>
        <time>2020-10-17T09:51:41.000Z</time>
      </trkpt>
      <trkpt lat="43.63583" lon="3.82784">
        <ele>82.31000064</ele>
        <time>2020-10-17T09:51:42.000Z</time>
      </trkpt>
      <trkpt lat="43.6358" lon="3.82785">
        <ele>82.51000064</ele>
        <time>2020-10-17T09:51:43.000Z</time>
      </trkpt>
      <trkpt lat="43.63577" lon="3.82786">
        <ele>82.71000064</ele>
        <time>2020-10-17T09:51:44.000Z</time>
      </trkpt>
      <trkpt lat="43.63574" lon="3.82786">
        <ele>82.91000064</ele>
        <time>2020-10-17T09:51:45.000Z</time>
      </trkpt>
      <trkpt lat="43.63571" lon="3.82787">
        <ele>83.11000064</ele>
        <time>2020-10-17T09:51:46.000Z</time>
      </trkpt>
      <trkpt lat="43.63569" lon="3.82788">
        <ele>83.31000064</ele>
        <time>2020-10-17T09:51:47.000Z</time>
      </trkpt>
      <trkpt lat="43.63566" lon="3.82789">
        <ele>83.51000064</ele>
        <time>2020-10-17T09:51:48.000Z</time>
      </trkpt>
      <trkpt lat="43.63563" lon="3.8279">
        <ele>83.71000064</ele>
        <time>2020-10-17T09:51:49.000Z</time>
      </trkpt>
      <trkpt lat="43.6356" lon="3.82791">
        <ele>83.91000064</ele>
        <time>2020-10-17T09:51:50.000Z</time>
      </trkpt>
      <trkpt lat="43.63557" lon="3.82792">
        <ele>84.053294883721</ele>
        <time>2020-10-17T09:51:51.000Z</time>
      </trkpt>
      <trkpt lat="43.63555" lon="3.82793">
        <ele>84.150194108527</ele>
        <time>2020-10-17T09:51:52.000Z</time>
      </trkpt>
      <trkpt lat="43.63551" lon="3.82794">
        <ele>84.247093333333</ele>
        <time>2020-10-17T09:51:53.000Z</time>
      </trkpt>
      <trkpt lat="43.63548" lon="3.82796">
        <ele>84.34399255814</ele>
        <time>2020-10-17T09:51:54.000Z</time>
      </trkpt>
      <trkpt lat="43.63545" lon="3.82797">
        <ele>84.440891782946</ele>
        <time>2020-10-17T09:51:55.000Z</time>
      </trkpt>
      <trkpt lat="43.63542" lon="3.82799">
        <ele>84.537791007752</ele>
        <time>2020-10-17T09:51:56.000Z</time>
      </trkpt>
      <trkpt lat="43.63539" lon="3.828">
        <ele>84.634690232558</ele>
        <time>2020-10-17T09:51:57.000Z</time>
      </trkpt>
      <trkpt lat="43.63536" lon="3.82802">
        <ele>84.731589457364</ele>
        <time>2020-10-17T09:51:58.000Z</time>
      </trkpt>
      <trkpt lat="43.63533" lon="3.82804">
        <ele>84.828488682171</ele>
        <time>2020-10-17T09:51:59.000Z</time>
      </trkpt>
      <trkpt lat="43.6353" lon="3.82805">
        <ele>84.925387906977</ele>
        <time>2020-10-17T09:52:00.000Z</time>
      </trkpt>
      <trkpt lat="43.63527" lon="3.82807">
        <ele>85</ele>
        <time>2020-10-17T09:52:01.000Z</time>
      </trkpt>
      <trkpt lat="43.63524" lon="3.82808">
        <ele>85</ele>
        <time>2020-10-17T09:52:02.000Z</time>
      </trkpt>
      <trkpt lat="43.63521" lon="3.82811">
        <ele>85</ele>
        <time>2020-10-17T09:52:03.000Z</time>
      </trkpt>
      <trkpt lat="43.63518" lon="3.82813">
        <ele>85</ele>
        <time>2020-10-17T09:52:04.000Z</time>
      </trkpt>
      <trkpt lat="43.63515" lon="3.82815">
        <ele>85</ele>
        <time>2020-10-17T09:52:05.000Z</time>
      </trkpt>
      <trkpt lat="43.63512" lon="3.82817">
        <ele>85</ele>
        <time>2020-10-17T09:52:06.000Z</time>
      </trkpt>
      <trkpt lat="43.63509" lon="3.8282">
        <ele>85</ele>
        <time>2020-10-17T09:52:07.000Z</time>
      </trkpt>
      <trkpt lat="43.63506" lon="3.82822">
        <ele>85</ele>
        <time>2020-10-17T09:52:08.000Z</time>
      </trkpt>
      <trkpt lat="43.63503" lon="3.82825">
        <ele>85</ele>
        <time>2020-10-17T09:52:09.000Z</time>
      </trkpt>
      <trkpt lat="43.635" lon="3.82828">
        <ele>85</ele>
        <time>2020-10-17T09:52:10.000Z</time>
      </trkpt>
      <trkpt lat="43.63497" lon="3.82832">
        <ele>85</ele>
        <time>2020-10-17T09:52:11.000Z</time>
      </trkpt>
      <trkpt lat="43.63495" lon="3.82835">
        <ele>85</ele>
        <time>2020-10-17T09:52:12.000Z</time>
      </trkpt>
      <trkpt lat="43.63492" lon="3.82838">
        <ele>85</ele>
        <time>2020-10-17T09:52:13.000Z</time>
      </trkpt>
      <trkpt lat="43.63489" lon="3.82841">
        <ele>85</ele>
        <time>2020-10-17T09:52:14.000Z</time>
      </trkpt>
      <trkpt lat="43.63486" lon="3.82845">
        <ele>85</ele>
        <time>2020-10-17T09:52:15.000Z</time>
      </trkpt>
      <trkpt lat="43.63483" lon="3.82848">
        <ele>85</ele>
        <time>2020-10-17T09:52:16.000Z</time>
      </trkpt>
      <trkpt lat="43.6348" lon="3.82851">
        <ele>85</ele>
        <time>2020-10-17T09:52:17.000Z</time>
      </trkpt>
      <trkpt lat="43.63477" lon="3.82854">
        <ele>85</ele>
        <time>2020-10-17T09:52:18.000Z</time>
      </trkpt>
      <trkpt lat="43.63475" lon="3.82858">
        <ele>85</ele>
        <time>2020-10-17T09:52:19.000Z</time>
      </trkpt>
      <trkpt lat="43.63472" lon="3.82861">
        <ele>85</ele>
        <time>2020-10-17T09:52:20.000Z</time>
      </trkpt>
      <trkpt lat="43.63469" lon="3.82865">
        <ele>85</ele>
        <time>2020-10-17T09:52:21.000Z</time>
      </trkpt>
      <trkpt lat="43.63466" lon="3.82868">
        <ele>85</ele>
        <time>2020-10-17T09:52:22.000Z</time>
      </trkpt>
      <trkpt lat="43.63464" lon="3.82872">
        <ele>85</ele>
        <time>2020-10-17T09:52:23.000Z</time>
      </trkpt>
      <trkpt lat="43.63461" lon="3.82876">
        <ele>85</ele>
        <time>2020-10-17T09:52:24.000Z</time>
      </trkpt>
      <trkpt lat="43.63458" lon="3.8288">
        <ele>85</ele>
        <time>2020-10-17T09:52:25.000Z</time>
      </trkpt>
      <trkpt lat="43.63456" lon="3.82884">
        <ele>85</ele>
        <time>2020-10-17T09:52:26.000Z</time>
      </trkpt>
      <trkpt lat="43.63453" lon="3.82887">
        <ele>85</ele>
        <time>2020-10-17T09:52:27.000Z</time>
      </trkpt>
      <trkpt lat="43.63451" lon="3.82891">
        <ele>85</ele>
        <time>2020-10-17T09:52:28.000Z</time>
      </trkpt>
      <trkpt lat="43.63448" lon="3.82894">
        <ele>85</ele>
        <time>2020-10-17T09:52:29.000Z</time>
      </trkpt>
      <trkpt lat="43.63446" lon="3.82898">
        <ele>85</ele>
        <time>2020-10-17T09:52:30.000Z</time>
      </trkpt>
      <trkpt lat="43.63443" lon="3.82901">
        <ele>85</ele>
        <time>2020-10-17T09:52:31.000Z</time>
      </trkpt>
      <trkpt lat="43.63441" lon="3.82905">
        <ele>85</ele>
        <time>2020-10-17T09:52:32.000Z</time>
      </trkpt>
      <trkpt lat="43.63438" lon="3.82908">
        <ele>85</ele>
        <time>2020-10-17T09:52:33.000Z</time>
      </trkpt>
      <trkpt lat="43.63436" lon="3.82912">
        <ele>85</ele>
        <time>2020-10-17T09:52:34.000Z</time>
      </trkpt>
      <trkpt lat="43.63433" lon="3.82915">
        <ele>85</ele>
        <time>2020-10-17T09:52:35.000Z</time>
      </trkpt>
      <trkpt lat="43.63431" lon="3.82919">
        <ele>85</ele>
        <time>2020-10-17T09:52:36.000Z</time>
      </trkpt>
      <trkpt lat="43.63428" lon="3.82922">
        <ele>85</ele>
        <time>2020-10-17T09:52:37.000Z</time>
      </trkpt>
      <trkpt lat="43.63425" lon="3.82926">
        <ele>85</ele>
        <time>2020-10-17T09:52:38.000Z</time>
      </trkpt>
      <trkpt lat="43.63422" lon="3.82929">
        <ele>85</ele>
        <time>2020-10-17T09:52:39.000Z</time>
      </trkpt>
      <trkpt lat="43.63419" lon="3.82933">
        <ele>85</ele>
        <time>2020-10-17T09:52:40.000Z</time>
      </trkpt>
      <trkpt lat="43.63417" lon="3.82936">
        <ele>85.05500032</ele>
        <time>2020-10-17T09:52:41.000Z</time>
      </trkpt>
      <trkpt lat="43.63414" lon="3.8294">
        <ele>85.15500032</ele>
        <time>2020-10-17T09:52:42.000Z</time>
      </trkpt>
      <trkpt lat="43.63411" lon="3.82943">
        <ele>85.25500032</ele>
        <time>2020-10-17T09:52:43.000Z</time>
      </trkpt>
      <trkpt lat="43.63409" lon="3.82947">
        <ele>85.35500032</ele>
        <time>2020-10-17T09:52:44.000Z</time>
      </trkpt>
      <trkpt lat="43.63406" lon="3.8295">
        <ele>85.45500032</ele>
        <time>2020-10-17T09:52:45.000Z</time>
      </trkpt>
      <trkpt lat="43.63403" lon="3.82952">
        <ele>85.55500032</ele>
        <time>2020-10-17T09:52:46.000Z</time>
      </trkpt>
      <trkpt lat="43.634" lon="3.82955">
        <ele>85.65500032</ele>
        <time>2020-10-17T09:52:47.000Z</time>
      </trkpt>
      <trkpt lat="43.63398" lon="3.82959">
        <ele>85.75500032</ele>
        <time>2020-10-17T09:52:48.000Z</time>
      </trkpt>
      <trkpt lat="43.63395" lon="3.82962">
        <ele>85.85500032</ele>
        <time>2020-10-17T09:52:49.000Z</time>
      </trkpt>
      <trkpt lat="43.63393" lon="3.82965">
        <ele>85.95500032</ele>
        <time>2020-10-17T09:52:50.000Z</time>
      </trkpt>
      <trkpt lat="43.6339" lon="3.82969">
        <ele>86</ele>
        <time>2020-10-17T09:52:51.000Z</time>
      </trkpt>
      <trkpt lat="43.63387" lon="3.82972">
        <ele>86</ele>
        <time>2020-10-17T09:52:52.000Z</time>
      </trkpt>
      <trkpt lat="43.63384" lon="3.82975">
        <ele>86</ele>
        <time>2020-10-17T09:52:53.000Z</time>
      </trkpt>
      <trkpt lat="43.63381" lon="3.82978">
        <ele>86</ele>
        <time>2020-10-17T09:52:54.000Z</time>
      </trkpt>
      <trkpt lat="43.63378" lon="3.8298">
        <ele>86</ele>
        <time>2020-10-17T09:52:55.000Z</time>
      </trkpt>
      <trkpt lat="43.63375" lon="3.82983">
        <ele>86</ele>
        <time>2020-10-17T09:52:56.000Z</time>
      </trkpt>
      <trkpt lat="43.63372" lon="3.82987">
        <ele>86</ele>
        <time>2020-10-17T09:52:57.000Z</time>
      </trkpt>
      <trkpt lat="43.63369" lon="3.8299">
        <ele>86</ele>
        <time>2020-10-17T09:52:58.000Z</time>
      </trkpt>
      <trkpt lat="43.63367" lon="3.82994">
        <ele>86</ele>
        <time>2020-10-17T09:52:59.000Z</time>
      </trkpt>
      <trkpt lat="43.63364" lon="3.82997">
        <ele>86</ele>
        <time>2020-10-17T09:53:00.000Z</time>
      </trkpt>
      <trkpt lat="43.6336" lon="3.83">
        <ele>85.94499968</ele>
        <time>2020-10-17T09:53:01.000Z</time>
      </trkpt>
      <trkpt lat="43.63357" lon="3.83003">
        <ele>85.84499968</ele>
        <time>2020-10-17T09:53:02.000Z</time>
      </trkpt>
      <trkpt lat="43.63353" lon="3.83007">
        <ele>85.74499968</ele>
        <time>2020-10-17T09:53:03.000Z</time>
      </trkpt>
      <trkpt lat="43.63349" lon="3.8301">
        <ele>85.64499968</ele>
        <time>2020-10-17T09:53:04.000Z</time>
      </trkpt>
      <trkpt lat="43.63345" lon="3.83013">
        <ele>85.54499968</ele>
        <time>2020-10-17T09:53:05.000Z</time>
      </trkpt>
      <trkpt lat="43.63341" lon="3.83017">
        <ele>85.44499968</ele>
        <time>2020-10-17T09:53:06.000Z</time>
      </trkpt>
      <trkpt lat="43.63337" lon="3.8302">
        <ele>85.34499968</ele>
        <time>2020-10-17T09:53:07.000Z</time>
      </trkpt>
      <trkpt lat="43.63334" lon="3.83024">
        <ele>85.24499968</ele>
        <time>2020-10-17T09:53:08.000Z</time>
      </trkpt>
      <trkpt lat="43.6333" lon="3.83027">
        <ele>85.14499968</ele>
        <time>2020-10-17T09:53:09.000Z</time>
      </trkpt>
      <trkpt lat="43.63326" lon="3.8303">
        <ele>85.04499968</ele>
        <time>2020-10-17T09:53:10.000Z</time>
      </trkpt>
      <trkpt lat="43.63323" lon="3.83033">
        <ele>85</ele>
        <time>2020-10-17T09:53:11.000Z</time>
      </trkpt>
      <trkpt lat="43.63319" lon="3.83036">
        <ele>85</ele>
        <time>2020-10-17T09:53:12.000Z</time>
      </trkpt>
      <trkpt lat="43.63315" lon="3.83039">
        <ele>85</ele>
        <time>2020-10-17T09:53:13.000Z</time>
      </trkpt>
      <trkpt lat="43.63311" lon="3.83042">
        <ele>85</ele>
        <time>2020-10-17T09:53:14.000Z</time>
      </trkpt>
      <trkpt lat="43.63307" lon="3.83044">
        <ele>85</ele>
        <time>2020-10-17T09:53:15.000Z</time>
      </trkpt>
      <trkpt lat="43.63303" lon="3.83047">
        <ele>85</ele>
        <time>2020-10-17T09:53:16.000Z</time>
      </trkpt>
      <trkpt lat="43.63299" lon="3.8305">
        <ele>85</ele>
        <time>2020-10-17T09:53:17.000Z</time>
      </trkpt>
      <trkpt lat="43.63295" lon="3.83052">
        <ele>85</ele>
        <time>2020-10-17T09:53:18.000Z</time>
      </trkpt>
      <trkpt lat="43.63292" lon="3.83055">
        <ele>85</ele>
        <time>2020-10-17T09:53:19.000Z</time>
      </trkpt>
      <trkpt lat="43.63288" lon="3.83058">
        <ele>85</ele>
        <time>2020-10-17T09:53:20.000Z</time>
      </trkpt>
      <trkpt lat="43.63284" lon="3.8306">
        <ele>84.892995486381</ele>
        <time>2020-10-17T09:53:21.000Z</time>
      </trkpt>
      <trkpt lat="43.63281" lon="3.83063">
        <ele>84.698442957198</ele>
        <time>2020-10-17T09:53:22.000Z</time>
      </trkpt>
      <trkpt lat="43.63277" lon="3.83065">
        <ele>84.503890428016</ele>
        <time>2020-10-17T09:53:23.000Z</time>
      </trkpt>
      <trkpt lat="43.63273" lon="3.83067">
        <ele>84.309337898833</ele>
        <time>2020-10-17T09:53:24.000Z</time>
      </trkpt>
      <trkpt lat="43.63269" lon="3.83069">
        <ele>84.11478536965</ele>
        <time>2020-10-17T09:53:25.000Z</time>
      </trkpt>
      <trkpt lat="43.63265" lon="3.83071">
        <ele>83.920232840467</ele>
        <time>2020-10-17T09:53:26.000Z</time>
      </trkpt>
      <trkpt lat="43.63261" lon="3.83073">
        <ele>83.725680311284</ele>
        <time>2020-10-17T09:53:27.000Z</time>
      </trkpt>
      <trkpt lat="43.63257" lon="3.83076">
        <ele>83.531127782101</ele>
        <time>2020-10-17T09:53:28.000Z</time>
      </trkpt>
      <trkpt lat="43.63254" lon="3.83078">
        <ele>83.336575252918</ele>
        <time>2020-10-17T09:53:29.000Z</time>
      </trkpt>
      <trkpt lat="43.6325" lon="3.8308">
        <ele>83.142022723735</ele>
        <time>2020-10-17T09:53:30.000Z</time>
      </trkpt>
      <trkpt lat="43.63246" lon="3.83081">
        <ele>82.972221893004</ele>
        <time>2020-10-17T09:53:31.000Z</time>
      </trkpt>
      <trkpt lat="43.63242" lon="3.83083">
        <ele>82.869341234568</ele>
        <time>2020-10-17T09:53:32.000Z</time>
      </trkpt>
      <trkpt lat="43.63238" lon="3.83084">
        <ele>82.766460576132</ele>
        <time>2020-10-17T09:53:33.000Z</time>
      </trkpt>
      <trkpt lat="43.63234" lon="3.83085">
        <ele>82.663579917696</ele>
        <time>2020-10-17T09:53:34.000Z</time>
      </trkpt>
      <trkpt lat="43.63231" lon="3.83086">
        <ele>82.560699259259</ele>
        <time>2020-10-17T09:53:35.000Z</time>
      </trkpt>
      <trkpt lat="43.63227" lon="3.83088">
        <ele>82.457818600823</ele>
        <time>2020-10-17T09:53:36.000Z</time>
      </trkpt>
      <trkpt lat="43.63224" lon="3.83089">
        <ele>82.354937942387</ele>
        <time>2020-10-17T09:53:37.000Z</time>
      </trkpt>
      <trkpt lat="43.63221" lon="3.8309">
        <ele>82.252057283951</ele>
        <time>2020-10-17T09:53:38.000Z</time>
      </trkpt>
      <trkpt lat="43.63218" lon="3.83092">
        <ele>82.149176625514</ele>
        <time>2020-10-17T09:53:39.000Z</time>
      </trkpt>
      <trkpt lat="43.63215" lon="3.83093">
        <ele>82.046295967078</ele>
        <time>2020-10-17T09:53:40.000Z</time>
      </trkpt>
      <trkpt lat="43.63212" lon="3.83094">
        <ele>81.94499968</ele>
        <time>2020-10-17T09:53:41.000Z</time>
      </trkpt>
      <trkpt lat="43.63208" lon="3.83096">
        <ele>81.84499968</ele>
        <time>2020-10-17T09:53:42.000Z</time>
      </trkpt>
      <trkpt lat="43.63205" lon="3.83097">
        <ele>81.74499968</ele>
        <time>2020-10-17T09:53:43.000Z</time>
      </trkpt>
      <trkpt lat="43.63201" lon="3.83099">
        <ele>81.64499968</ele>
        <time>2020-10-17T09:53:44.000Z</time>
      </trkpt>
      <trkpt lat="43.63197" lon="3.831">
        <ele>81.54499968</ele>
        <time>2020-10-17T09:53:45.000Z</time>
      </trkpt>
      <trkpt lat="43.63193" lon="3.83102">
        <ele>81.44499968</ele>
        <time>2020-10-17T09:53:46.000Z</time>
      </trkpt>
      <trkpt lat="43.63189" lon="3.83103">
        <ele>81.34499968</ele>
        <time>2020-10-17T09:53:47.000Z</time>
      </trkpt>
      <trkpt lat="43.63185" lon="3.83105">
        <ele>81.24499968</ele>
        <time>2020-10-17T09:53:48.000Z</time>
      </trkpt>
      <trkpt lat="43.63181" lon="3.83106">
        <ele>81.14499968</ele>
        <time>2020-10-17T09:53:49.000Z</time>
      </trkpt>
      <trkpt lat="43.63177" lon="3.83107">
        <ele>81.04499968</ele>
        <time>2020-10-17T09:53:50.000Z</time>
      </trkpt>
      <trkpt lat="43.63173" lon="3.83108">
        <ele>81</ele>
        <time>2020-10-17T09:53:51.000Z</time>
      </trkpt>
      <trkpt lat="43.63169" lon="3.83109">
        <ele>81</ele>
        <time>2020-10-17T09:53:52.000Z</time>
      </trkpt>
      <trkpt lat="43.63166" lon="3.8311">
        <ele>81</ele>
        <time>2020-10-17T09:53:53.000Z</time>
      </trkpt>
      <trkpt lat="43.63162" lon="3.83112">
        <ele>81</ele>
        <time>2020-10-17T09:53:54.000Z</time>
      </trkpt>
      <trkpt lat="43.63158" lon="3.83113">
        <ele>81</ele>
        <time>2020-10-17T09:53:55.000Z</time>
      </trkpt>
      <trkpt lat="43.63155" lon="3.83114">
        <ele>81</ele>
        <time>2020-10-17T09:53:56.000Z</time>
      </trkpt>
      <trkpt lat="43.63151" lon="3.83115">
        <ele>81</ele>
        <time>2020-10-17T09:53:57.000Z</time>
      </trkpt>
      <trkpt lat="43.63147" lon="3.83117">
        <ele>81</ele>
        <time>2020-10-17T09:53:58.000Z</time>
      </trkpt>
      <trkpt lat="43.63144" lon="3.83118">
        <ele>81</ele>
        <time>2020-10-17T09:53:59.000Z</time>
      </trkpt>
      <trkpt lat="43.6314" lon="3.83119">
        <ele>81</ele>
        <time>2020-10-17T09:54:00.000Z</time>
      </trkpt>
      <trkpt lat="43.63137" lon="3.8312">
        <ele>81.05500032</ele>
        <time>2020-10-17T09:54:01.000Z</time>
      </trkpt>
      <trkpt lat="43.63133" lon="3.83121">
        <ele>81.15500032</ele>
        <time>2020-10-17T09:54:02.000Z</time>
      </trkpt>
      <trkpt lat="43.6313" lon="3.83122">
        <ele>81.25500032</ele>
        <time>2020-10-17T09:54:03.000Z</time>
      </trkpt>
      <trkpt lat="43.63126" lon="3.83123">
        <ele>81.35500032</ele>
        <time>2020-10-17T09:54:04.000Z</time>
      </trkpt>
      <trkpt lat="43.63123" lon="3.83124">
        <ele>81.45500032</ele>
        <time>2020-10-17T09:54:05.000Z</time>
      </trkpt>
      <trkpt lat="43.63119" lon="3.83125">
        <ele>81.55500032</ele>
        <time>2020-10-17T09:54:06.000Z</time>
      </trkpt>
      <trkpt lat="43.63116" lon="3.83125">
        <ele>81.65500032</ele>
        <time>2020-10-17T09:54:07.000Z</time>
      </trkpt>
      <trkpt lat="43.63112" lon="3.83126">
        <ele>81.75500032</ele>
        <time>2020-10-17T09:54:08.000Z</time>
      </trkpt>
      <trkpt lat="43.63109" lon="3.83126">
        <ele>81.85500032</ele>
        <time>2020-10-17T09:54:09.000Z</time>
      </trkpt>
      <trkpt lat="43.63105" lon="3.83126">
        <ele>81.95500032</ele>
        <time>2020-10-17T09:54:10.000Z</time>
      </trkpt>
      <trkpt lat="43.63102" lon="3.83126">
        <ele>82.05500032</ele>
        <time>2020-10-17T09:54:11.000Z</time>
      </trkpt>
      <trkpt lat="43.63098" lon="3.83127">
        <ele>82.15500032</ele>
        <time>2020-10-17T09:54:12.000Z</time>
      </trkpt>
      <trkpt lat="43.63094" lon="3.83127">
        <ele>82.25500032</ele>
        <time>2020-10-17T09:54:13.000Z</time>
      </trkpt>
      <trkpt lat="43.6309" lon="3.83127">
        <ele>82.35500032</ele>
        <time>2020-10-17T09:54:14.000Z</time>
      </trkpt>
      <trkpt lat="43.63087" lon="3.83127">
        <ele>82.45500032</ele>
        <time>2020-10-17T09:54:15.000Z</time>
      </trkpt>
      <trkpt lat="43.63083" lon="3.83126">
        <ele>82.55500032</ele>
        <time>2020-10-17T09:54:16.000Z</time>
      </trkpt>
      <trkpt lat="43.63079" lon="3.83125">
        <ele>82.65500032</ele>
        <time>2020-10-17T09:54:17.000Z</time>
      </trkpt>
      <trkpt lat="43.63076" lon="3.83124">
        <ele>82.75500032</ele>
        <time>2020-10-17T09:54:18.000Z</time>
      </trkpt>
      <trkpt lat="43.63072" lon="3.83122">
        <ele>82.85500032</ele>
        <time>2020-10-17T09:54:19.000Z</time>
      </trkpt>
      <trkpt lat="43.63069" lon="3.8312">
        <ele>82.95500032</ele>
        <time>2020-10-17T09:54:20.000Z</time>
      </trkpt>
      <trkpt lat="43.63066" lon="3.83118">
        <ele>83</ele>
        <time>2020-10-17T09:54:21.000Z</time>
      </trkpt>
      <trkpt lat="43.63062" lon="3.83117">
        <ele>83</ele>
        <time>2020-10-17T09:54:22.000Z</time>
      </trkpt>
      <trkpt lat="43.63059" lon="3.83115">
        <ele>83</ele>
        <time>2020-10-17T09:54:23.000Z</time>
      </trkpt>
      <trkpt lat="43.63055" lon="3.83114">
        <ele>83</ele>
        <time>2020-10-17T09:54:24.000Z</time>
      </trkpt>
      <trkpt lat="43.63052" lon="3.83113">
        <ele>83</ele>
        <time>2020-10-17T09:54:25.000Z</time>
      </trkpt>
      <trkpt lat="43.63049" lon="3.83112">
        <ele>83</ele>
        <time>2020-10-17T09:54:26.000Z</time>
      </trkpt>
      <trkpt lat="43.63046" lon="3.83111">
        <ele>83</ele>
        <time>2020-10-17T09:54:27.000Z</time>
      </trkpt>
      <trkpt lat="43.63043" lon="3.83111">
        <ele>83</ele>
        <time>2020-10-17T09:54:28.000Z</time>
      </trkpt>
      <trkpt lat="43.6304" lon="3.83111">
        <ele>83</ele>
        <time>2020-10-17T09:54:29.000Z</time>
      </trkpt>
      <trkpt lat="43.63037" lon="3.83111">
        <ele>83</ele>
        <time>2020-10-17T09:54:30.000Z</time>
      </trkpt>
      <trkpt lat="43.63034" lon="3.83111">
        <ele>83</ele>
        <time>2020-10-17T09:54:31.000Z</time>
      </trkpt>
      <trkpt lat="43.63032" lon="3.83111">
        <ele>83</ele>
        <time>2020-10-17T09:54:32.000Z</time>
      </trkpt>
      <trkpt lat="43.63029" lon="3.83111">
        <ele>83</ele>
        <time>2020-10-17T09:54:33.000Z</time>
      </trkpt>
      <trkpt lat="43.63027" lon="3.8311">
        <ele>83</ele>
        <time>2020-10-17T09:54:34.000Z</time>
      </trkpt>
      <trkpt lat="43.63024" lon="3.8311">
        <ele>83</ele>
        <time>2020-10-17T09:54:35.000Z</time>
      </trkpt>
      <trkpt lat="43.63022" lon="3.8311">
        <ele>83</ele>
        <time>2020-10-17T09:54:36.000Z</time>
      </trkpt>
      <trkpt lat="43.63019" lon="3.83111">
        <ele>83</ele>
        <time>2020-10-17T09:54:37.000Z</time>
      </trkpt>
      <trkpt lat="43.63017" lon="3.83113">
        <ele>83</ele>
        <time>2020-10-17T09:54:38.000Z</time>
      </trkpt>
      <trkpt lat="43.63016" lon="3.83115">
        <ele>83</ele>
        <time>2020-10-17T09:54:39.000Z</time>
      </trkpt>
      <trkpt lat="43.63015" lon="3.83119">
        <ele>83</ele>
        <time>2020-10-17T09:54:40.000Z</time>
      </trkpt>
      <trkpt lat="43.63013" lon="3.83121">
        <ele>83</ele>
        <time>2020-10-17T09:54:41.000Z</time>
      </trkpt>
      <trkpt lat="43.63011" lon="3.83123">
        <ele>83</ele>
        <time>2020-10-17T09:54:42.000Z</time>
      </trkpt>
      <trkpt lat="43.63009" lon="3.83125">
        <ele>83</ele>
        <time>2020-10-17T09:54:43.000Z</time>
      </trkpt>
      <trkpt lat="43.63007" lon="3.83127">
        <ele>83</ele>
        <time>2020-10-17T09:54:44.000Z</time>
      </trkpt>
      <trkpt lat="43.63005" lon="3.83129">
        <ele>83</ele>
        <time>2020-10-17T09:54:45.000Z</time>
      </trkpt>
      <trkpt lat="43.63004" lon="3.83132">
        <ele>83</ele>
        <time>2020-10-17T09:54:46.000Z</time>
      </trkpt>
      <trkpt lat="43.63003" lon="3.83135">
        <ele>83</ele>
        <time>2020-10-17T09:54:47.000Z</time>
      </trkpt>
      <trkpt lat="43.63001" lon="3.83138">
        <ele>83</ele>
        <time>2020-10-17T09:54:48.000Z</time>
      </trkpt>
      <trkpt lat="43.62999" lon="3.83139">
        <ele>83</ele>
        <time>2020-10-17T09:54:49.000Z</time>
      </trkpt>
      <trkpt lat="43.62996" lon="3.83139">
        <ele>83</ele>
        <time>2020-10-17T09:54:50.000Z</time>
      </trkpt>
      <trkpt lat="43.62994" lon="3.83138">
        <ele>82.94499968</ele>
        <time>2020-10-17T09:54:51.000Z</time>
      </trkpt>
      <trkpt lat="43.62991" lon="3.83136">
        <ele>82.84499968</ele>
        <time>2020-10-17T09:54:52.000Z</time>
      </trkpt>
      <trkpt lat="43.62989" lon="3.83135">
        <ele>82.74499968</ele>
        <time>2020-10-17T09:54:53.000Z</time>
      </trkpt>
      <trkpt lat="43.62986" lon="3.83133">
        <ele>82.64499968</ele>
        <time>2020-10-17T09:54:54.000Z</time>
      </trkpt>
      <trkpt lat="43.62983" lon="3.83132">
        <ele>82.54499968</ele>
        <time>2020-10-17T09:54:55.000Z</time>
      </trkpt>
      <trkpt lat="43.62979" lon="3.83131">
        <ele>82.44499968</ele>
        <time>2020-10-17T09:54:56.000Z</time>
      </trkpt>
      <trkpt lat="43.62976" lon="3.8313">
        <ele>82.34499968</ele>
        <time>2020-10-17T09:54:57.000Z</time>
      </trkpt>
      <trkpt lat="43.62973" lon="3.83129">
        <ele>82.24499968</ele>
        <time>2020-10-17T09:54:58.000Z</time>
      </trkpt>
      <trkpt lat="43.6297" lon="3.83128">
        <ele>82.14499968</ele>
        <time>2020-10-17T09:54:59.000Z</time>
      </trkpt>
      <trkpt lat="43.62967" lon="3.83127">
        <ele>82.04499968</ele>
        <time>2020-10-17T09:55:00.000Z</time>
      </trkpt>
      <trkpt lat="43.62964" lon="3.83126">
        <ele>82</ele>
        <time>2020-10-17T09:55:01.000Z</time>
      </trkpt>
      <trkpt lat="43.62961" lon="3.83125">
        <ele>82</ele>
        <time>2020-10-17T09:55:02.000Z</time>
      </trkpt>
      <trkpt lat="43.62958" lon="3.83124">
        <ele>82</ele>
        <time>2020-10-17T09:55:03.000Z</time>
      </trkpt>
      <trkpt lat="43.62954" lon="3.83123">
        <ele>82</ele>
        <time>2020-10-17T09:55:04.000Z</time>
      </trkpt>
      <trkpt lat="43.62951" lon="3.83122">
        <ele>82</ele>
        <time>2020-10-17T09:55:05.000Z</time>
      </trkpt>
      <trkpt lat="43.62948" lon="3.83121">
        <ele>82</ele>
        <time>2020-10-17T09:55:06.000Z</time>
      </trkpt>
      <trkpt lat="43.62944" lon="3.8312">
        <ele>82</ele>
        <time>2020-10-17T09:55:07.000Z</time>
      </trkpt>
      <trkpt lat="43.62941" lon="3.83119">
        <ele>82</ele>
        <time>2020-10-17T09:55:08.000Z</time>
      </trkpt>
      <trkpt lat="43.62937" lon="3.83117">
        <ele>82</ele>
        <time>2020-10-17T09:55:09.000Z</time>
      </trkpt>
      <trkpt lat="43.62934" lon="3.83116">
        <ele>82</ele>
        <time>2020-10-17T09:55:10.000Z</time>
      </trkpt>
      <trkpt lat="43.62931" lon="3.83115">
        <ele>82.05500032</ele>
        <time>2020-10-17T09:55:11.000Z</time>
      </trkpt>
      <trkpt lat="43.62927" lon="3.83114">
        <ele>82.15500032</ele>
        <time>2020-10-17T09:55:12.000Z</time>
      </trkpt>
      <trkpt lat="43.62924" lon="3.83113">
        <ele>82.25500032</ele>
        <time>2020-10-17T09:55:13.000Z</time>
      </trkpt>
      <trkpt lat="43.62921" lon="3.83112">
        <ele>82.35500032</ele>
        <time>2020-10-17T09:55:14.000Z</time>
      </trkpt>
      <trkpt lat="43.62917" lon="3.83112">
        <ele>82.45500032</ele>
        <time>2020-10-17T09:55:15.000Z</time>
      </trkpt>
      <trkpt lat="43.62913" lon="3.83111">
        <ele>82.55500032</ele>
        <time>2020-10-17T09:55:16.000Z</time>
      </trkpt>
      <trkpt lat="43.6291" lon="3.8311">
        <ele>82.65500032</ele>
        <time>2020-10-17T09:55:17.000Z</time>
      </trkpt>
      <trkpt lat="43.62906" lon="3.83109">
        <ele>82.75500032</ele>
        <time>2020-10-17T09:55:18.000Z</time>
      </trkpt>
      <trkpt lat="43.62903" lon="3.83108">
        <ele>82.85500032</ele>
        <time>2020-10-17T09:55:19.000Z</time>
      </trkpt>
      <trkpt lat="43.62899" lon="3.83108">
        <ele>82.95500032</ele>
        <time>2020-10-17T09:55:20.000Z</time>
      </trkpt>
      <trkpt lat="43.62895" lon="3.83107">
        <ele>83</ele>
        <time>2020-10-17T09:55:21.000Z</time>
      </trkpt>
      <trkpt lat="43.62892" lon="3.83106">
        <ele>83</ele>
        <time>2020-10-17T09:55:22.000Z</time>
      </trkpt>
      <trkpt lat="43.62888" lon="3.83105">
        <ele>83</ele>
        <time>2020-10-17T09:55:23.000Z</time>
      </trkpt>
      <trkpt lat="43.62885" lon="3.83105">
        <ele>83</ele>
        <time>2020-10-17T09:55:24.000Z</time>
      </trkpt>
      <trkpt lat="43.62881" lon="3.83105">
        <ele>83</ele>
        <time>2020-10-17T09:55:25.000Z</time>
      </trkpt>
      <trkpt lat="43.62878" lon="3.83105">
        <ele>83</ele>
        <time>2020-10-17T09:55:26.000Z</time>
      </trkpt>
      <trkpt lat="43.62875" lon="3.83105">
        <ele>83</ele>
        <time>2020-10-17T09:55:27.000Z</time>
      </trkpt>
      <trkpt lat="43.62873" lon="3.83105">
        <ele>83</ele>
        <time>2020-10-17T09:55:28.000Z</time>
      </trkpt>
      <trkpt lat="43.6287" lon="3.83105">
        <ele>83</ele>
        <time>2020-10-17T09:55:29.000Z</time>
      </trkpt>
      <trkpt lat="43.62868" lon="3.83105">
        <ele>83</ele>
        <time>2020-10-17T09:55:30.000Z</time>
      </trkpt>
      <trkpt lat="43.62865" lon="3.83106">
        <ele>83</ele>
        <time>2020-10-17T09:55:31.000Z</time>
      </trkpt>
      <trkpt lat="43.62861" lon="3.83106">
        <ele>83</ele>
        <time>2020-10-17T09:55:32.000Z</time>
      </trkpt>
      <trkpt lat="43.62858" lon="3.83106">
        <ele>83</ele>
        <time>2020-10-17T09:55:33.000Z</time>
      </trkpt>
      <trkpt lat="43.62854" lon="3.83106">
        <ele>83</ele>
        <time>2020-10-17T09:55:34.000Z</time>
      </trkpt>
      <trkpt lat="43.62851" lon="3.83107">
        <ele>83</ele>
        <time>2020-10-17T09:55:35.000Z</time>
      </trkpt>
      <trkpt lat="43.62847" lon="3.83107">
        <ele>83</ele>
        <time>2020-10-17T09:55:36.000Z</time>
      </trkpt>
      <trkpt lat="43.62843" lon="3.83108">
        <ele>83</ele>
        <time>2020-10-17T09:55:37.000Z</time>
      </trkpt>
      <trkpt lat="43.62839" lon="3.83108">
        <ele>83</ele>
        <time>2020-10-17T09:55:38.000Z</time>
      </trkpt>
      <trkpt lat="43.62835" lon="3.83109">
        <ele>83</ele>
        <time>2020-10-17T09:55:39.000Z</time>
      </trkpt>
      <trkpt lat="43.62831" lon="3.83109">
        <ele>83</ele>
        <time>2020-10-17T09:55:40.000Z</time>
      </trkpt>
      <trkpt lat="43.62827" lon="3.8311">
        <ele>83</ele>
        <time>2020-10-17T09:55:41.000Z</time>
      </trkpt>
      <trkpt lat="43.62823" lon="3.8311">
        <ele>83</ele>
        <time>2020-10-17T09:55:42.000Z</time>
      </trkpt>
      <trkpt lat="43.62819" lon="3.83111">
        <ele>83</ele>
        <time>2020-10-17T09:55:43.000Z</time>
      </trkpt>
      <trkpt lat="43.62815" lon="3.83113">
        <ele>83</ele>
        <time>2020-10-17T09:55:44.000Z</time>
      </trkpt>
      <trkpt lat="43.62811" lon="3.83114">
        <ele>83</ele>
        <time>2020-10-17T09:55:45.000Z</time>
      </trkpt>
      <trkpt lat="43.62807" lon="3.83115">
        <ele>83</ele>
        <time>2020-10-17T09:55:46.000Z</time>
      </trkpt>
      <trkpt lat="43.62802" lon="3.83115">
        <ele>83</ele>
        <time>2020-10-17T09:55:47.000Z</time>
      </trkpt>
      <trkpt lat="43.62798" lon="3.83116">
        <ele>83</ele>
        <time>2020-10-17T09:55:48.000Z</time>
      </trkpt>
      <trkpt lat="43.62793" lon="3.83116">
        <ele>83</ele>
        <time>2020-10-17T09:55:49.000Z</time>
      </trkpt>
      <trkpt lat="43.62789" lon="3.83117">
        <ele>83</ele>
        <time>2020-10-17T09:55:50.000Z</time>
      </trkpt>
      <trkpt lat="43.62785" lon="3.83117">
        <ele>83.05500032</ele>
        <time>2020-10-17T09:55:51.000Z</time>
      </trkpt>
      <trkpt lat="43.62781" lon="3.83118">
        <ele>83.15500032</ele>
        <time>2020-10-17T09:55:52.000Z</time>
      </trkpt>
      <trkpt lat="43.62777" lon="3.83118">
        <ele>83.25500032</ele>
        <time>2020-10-17T09:55:53.000Z</time>
      </trkpt>
      <trkpt lat="43.62773" lon="3.83118">
        <ele>83.35500032</ele>
        <time>2020-10-17T09:55:54.000Z</time>
      </trkpt>
      <trkpt lat="43.62769" lon="3.83119">
        <ele>83.45500032</ele>
        <time>2020-10-17T09:55:55.000Z</time>
      </trkpt>
      <trkpt lat="43.62765" lon="3.8312">
        <ele>83.55500032</ele>
        <time>2020-10-17T09:55:56.000Z</time>
      </trkpt>
      <trkpt lat="43.62761" lon="3.83121">
        <ele>83.65500032</ele>
        <time>2020-10-17T09:55:57.000Z</time>
      </trkpt>
      <trkpt lat="43.62757" lon="3.83122">
        <ele>83.75500032</ele>
        <time>2020-10-17T09:55:58.000Z</time>
      </trkpt>
      <trkpt lat="43.62753" lon="3.83123">
        <ele>83.85500032</ele>
        <time>2020-10-17T09:55:59.000Z</time>
      </trkpt>
      <trkpt lat="43.62749" lon="3.83125">
        <ele>83.95500032</ele>
        <time>2020-10-17T09:56:00.000Z</time>
      </trkpt>
      <trkpt lat="43.62745" lon="3.83127">
        <ele>84.053346559582</ele>
        <time>2020-10-17T09:56:01.000Z</time>
      </trkpt>
      <trkpt lat="43.62742" lon="3.83128">
        <ele>84.150339739953</ele>
        <time>2020-10-17T09:56:02.000Z</time>
      </trkpt>
      <trkpt lat="43.62738" lon="3.8313">
        <ele>84.247332920323</ele>
        <time>2020-10-17T09:56:03.000Z</time>
      </trkpt>
      <trkpt lat="43.62734" lon="3.83132">
        <ele>84.344326100694</ele>
        <time>2020-10-17T09:56:04.000Z</time>
      </trkpt>
      <trkpt lat="43.62731" lon="3.83134">
        <ele>84.441319281065</ele>
        <time>2020-10-17T09:56:05.000Z</time>
      </trkpt>
      <trkpt lat="43.62728" lon="3.83134">
        <ele>84.538312461435</ele>
        <time>2020-10-17T09:56:06.000Z</time>
      </trkpt>
      <trkpt lat="43.62725" lon="3.83133">
        <ele>84.635305641806</ele>
        <time>2020-10-17T09:56:07.000Z</time>
      </trkpt>
      <trkpt lat="43.62723" lon="3.83132">
        <ele>84.732298822177</ele>
        <time>2020-10-17T09:56:08.000Z</time>
      </trkpt>
      <trkpt lat="43.62721" lon="3.83132">
        <ele>84.829292002548</ele>
        <time>2020-10-17T09:56:09.000Z</time>
      </trkpt>
      <trkpt lat="43.62718" lon="3.83133">
        <ele>84.926285182918</ele>
        <time>2020-10-17T09:56:10.000Z</time>
      </trkpt>
      <trkpt lat="43.62715" lon="3.83134">
        <ele>85</ele>
        <time>2020-10-17T09:56:11.000Z</time>
      </trkpt>
      <trkpt lat="43.62711" lon="3.83136">
        <ele>85</ele>
        <time>2020-10-17T09:56:12.000Z</time>
      </trkpt>
      <trkpt lat="43.62708" lon="3.83138">
        <ele>85</ele>
        <time>2020-10-17T09:56:13.000Z</time>
      </trkpt>
      <trkpt lat="43.62705" lon="3.83141">
        <ele>85</ele>
        <time>2020-10-17T09:56:14.000Z</time>
      </trkpt>
      <trkpt lat="43.62701" lon="3.83143">
        <ele>85</ele>
        <time>2020-10-17T09:56:15.000Z</time>
      </trkpt>
      <trkpt lat="43.62698" lon="3.83145">
        <ele>85</ele>
        <time>2020-10-17T09:56:16.000Z</time>
      </trkpt>
      <trkpt lat="43.62694" lon="3.83147">
        <ele>85</ele>
        <time>2020-10-17T09:56:17.000Z</time>
      </trkpt>
      <trkpt lat="43.6269" lon="3.8315">
        <ele>85</ele>
        <time>2020-10-17T09:56:18.000Z</time>
      </trkpt>
      <trkpt lat="43.62686" lon="3.83152">
        <ele>85</ele>
        <time>2020-10-17T09:56:19.000Z</time>
      </trkpt>
      <trkpt lat="43.62682" lon="3.83155">
        <ele>85</ele>
        <time>2020-10-17T09:56:20.000Z</time>
      </trkpt>
      <trkpt lat="43.62678" lon="3.83159">
        <ele>84.895687027703</ele>
        <time>2020-10-17T09:56:21.000Z</time>
      </trkpt>
      <trkpt lat="43.62675" lon="3.83163">
        <ele>84.695085157901</ele>
        <time>2020-10-17T09:56:22.000Z</time>
      </trkpt>
      <trkpt lat="43.62672" lon="3.83168">
        <ele>84.494483288099</ele>
        <time>2020-10-17T09:56:23.000Z</time>
      </trkpt>
      <trkpt lat="43.62669" lon="3.83174">
        <ele>84.293881418297</ele>
        <time>2020-10-17T09:56:24.000Z</time>
      </trkpt>
      <trkpt lat="43.62666" lon="3.83178">
        <ele>84.093279548495</ele>
        <time>2020-10-17T09:56:25.000Z</time>
      </trkpt>
      <trkpt lat="43.62663" lon="3.83181">
        <ele>83.892677678693</ele>
        <time>2020-10-17T09:56:26.000Z</time>
      </trkpt>
      <trkpt lat="43.62658" lon="3.83184">
        <ele>83.692075808891</ele>
        <time>2020-10-17T09:56:27.000Z</time>
      </trkpt>
      <trkpt lat="43.62654" lon="3.83187">
        <ele>83.491473939089</ele>
        <time>2020-10-17T09:56:28.000Z</time>
      </trkpt>
      <trkpt lat="43.6265" lon="3.8319">
        <ele>83.290872069287</ele>
        <time>2020-10-17T09:56:29.000Z</time>
      </trkpt>
      <trkpt lat="43.62645" lon="3.83194">
        <ele>83.090270199485</ele>
        <time>2020-10-17T09:56:30.000Z</time>
      </trkpt>
      <trkpt lat="43.6264" lon="3.83197">
        <ele>82.946549720987</ele>
        <time>2020-10-17T09:56:31.000Z</time>
      </trkpt>
      <trkpt lat="43.62635" lon="3.83201">
        <ele>82.849367960931</ele>
        <time>2020-10-17T09:56:32.000Z</time>
      </trkpt>
      <trkpt lat="43.6263" lon="3.83206">
        <ele>82.752186200874</ele>
        <time>2020-10-17T09:56:33.000Z</time>
      </trkpt>
      <trkpt lat="43.62624" lon="3.83209">
        <ele>82.655004440818</ele>
        <time>2020-10-17T09:56:34.000Z</time>
      </trkpt>
      <trkpt lat="43.62619" lon="3.83213">
        <ele>82.557822680761</ele>
        <time>2020-10-17T09:56:35.000Z</time>
      </trkpt>
      <trkpt lat="43.62613" lon="3.83217">
        <ele>82.460640920705</ele>
        <time>2020-10-17T09:56:36.000Z</time>
      </trkpt>
      <trkpt lat="43.62608" lon="3.83221">
        <ele>82.363459160648</ele>
        <time>2020-10-17T09:56:37.000Z</time>
      </trkpt>
      <trkpt lat="43.62603" lon="3.83226">
        <ele>82.266277400592</ele>
        <time>2020-10-17T09:56:38.000Z</time>
      </trkpt>
      <trkpt lat="43.62598" lon="3.83231">
        <ele>82.169095640535</ele>
        <time>2020-10-17T09:56:39.000Z</time>
      </trkpt>
      <trkpt lat="43.62593" lon="3.83235">
        <ele>82.071913880479</ele>
        <time>2020-10-17T09:56:40.000Z</time>
      </trkpt>
      <trkpt lat="43.62588" lon="3.8324">
        <ele>81.974051274059</ele>
        <time>2020-10-17T09:56:41.000Z</time>
      </trkpt>
      <trkpt lat="43.62584" lon="3.83246">
        <ele>81.874250938602</ele>
        <time>2020-10-17T09:56:42.000Z</time>
      </trkpt>
      <trkpt lat="43.62582" lon="3.83253">
        <ele>81.774450603145</ele>
        <time>2020-10-17T09:56:43.000Z</time>
      </trkpt>
      <trkpt lat="43.62579" lon="3.8326">
        <ele>81.674650267688</ele>
        <time>2020-10-17T09:56:44.000Z</time>
      </trkpt>
      <trkpt lat="43.62575" lon="3.83264">
        <ele>81.574849932232</ele>
        <time>2020-10-17T09:56:45.000Z</time>
      </trkpt>
      <trkpt lat="43.6257" lon="3.83268">
        <ele>81.475049596775</ele>
        <time>2020-10-17T09:56:46.000Z</time>
      </trkpt>
      <trkpt lat="43.62566" lon="3.83273">
        <ele>81.375249261318</ele>
        <time>2020-10-17T09:56:47.000Z</time>
      </trkpt>
      <trkpt lat="43.62562" lon="3.83277">
        <ele>81.275448925861</ele>
        <time>2020-10-17T09:56:48.000Z</time>
      </trkpt>
      <trkpt lat="43.62558" lon="3.83281">
        <ele>81.175648590404</ele>
        <time>2020-10-17T09:56:49.000Z</time>
      </trkpt>
      <trkpt lat="43.62554" lon="3.83286">
        <ele>81.075848254947</ele>
        <time>2020-10-17T09:56:50.000Z</time>
      </trkpt>
      <trkpt lat="43.62551" lon="3.83292">
        <ele>80.975232189963</ele>
        <time>2020-10-17T09:56:51.000Z</time>
      </trkpt>
      <trkpt lat="43.62548" lon="3.83298">
        <ele>80.872032981476</ele>
        <time>2020-10-17T09:56:52.000Z</time>
      </trkpt>
      <trkpt lat="43.62546" lon="3.83306">
        <ele>80.768833772989</ele>
        <time>2020-10-17T09:56:53.000Z</time>
      </trkpt>
      <trkpt lat="43.62543" lon="3.83314">
        <ele>80.665634564503</ele>
        <time>2020-10-17T09:56:54.000Z</time>
      </trkpt>
      <trkpt lat="43.62541" lon="3.83322">
        <ele>80.562435356016</ele>
        <time>2020-10-17T09:56:55.000Z</time>
      </trkpt>
      <trkpt lat="43.62539" lon="3.8333">
        <ele>80.459236147529</ele>
        <time>2020-10-17T09:56:56.000Z</time>
      </trkpt>
      <trkpt lat="43.62536" lon="3.83338">
        <ele>80.356036939042</ele>
        <time>2020-10-17T09:56:57.000Z</time>
      </trkpt>
      <trkpt lat="43.62534" lon="3.83346">
        <ele>80.252837730555</ele>
        <time>2020-10-17T09:56:58.000Z</time>
      </trkpt>
      <trkpt lat="43.62531" lon="3.83354">
        <ele>80.149638522068</ele>
        <time>2020-10-17T09:56:59.000Z</time>
      </trkpt>
      <trkpt lat="43.62529" lon="3.83362">
        <ele>80.046439313582</ele>
        <time>2020-10-17T09:57:00.000Z</time>
      </trkpt>
      <trkpt lat="43.62526" lon="3.8337">
        <ele>79.94499968</ele>
        <time>2020-10-17T09:57:01.000Z</time>
      </trkpt>
      <trkpt lat="43.62523" lon="3.83378">
        <ele>79.84499968</ele>
        <time>2020-10-17T09:57:02.000Z</time>
      </trkpt>
      <trkpt lat="43.62521" lon="3.83385">
        <ele>79.74499968</ele>
        <time>2020-10-17T09:57:03.000Z</time>
      </trkpt>
      <trkpt lat="43.62518" lon="3.83393">
        <ele>79.64499968</ele>
        <time>2020-10-17T09:57:04.000Z</time>
      </trkpt>
      <trkpt lat="43.62516" lon="3.83401">
        <ele>79.54499968</ele>
        <time>2020-10-17T09:57:05.000Z</time>
      </trkpt>
      <trkpt lat="43.62515" lon="3.83408">
        <ele>79.44499968</ele>
        <time>2020-10-17T09:57:06.000Z</time>
      </trkpt>
      <trkpt lat="43.62515" lon="3.83416">
        <ele>79.34499968</ele>
        <time>2020-10-17T09:57:07.000Z</time>
      </trkpt>
      <trkpt lat="43.62514" lon="3.83423">
        <ele>79.24499968</ele>
        <time>2020-10-17T09:57:08.000Z</time>
      </trkpt>
      <trkpt lat="43.62512" lon="3.8343">
        <ele>79.14499968</ele>
        <time>2020-10-17T09:57:09.000Z</time>
      </trkpt>
      <trkpt lat="43.6251" lon="3.83436">
        <ele>79.04499968</ele>
        <time>2020-10-17T09:57:10.000Z</time>
      </trkpt>
      <trkpt lat="43.62508" lon="3.83442">
        <ele>79</ele>
        <time>2020-10-17T09:57:11.000Z</time>
      </trkpt>
      <trkpt lat="43.62506" lon="3.83448">
        <ele>79</ele>
        <time>2020-10-17T09:57:12.000Z</time>
      </trkpt>
      <trkpt lat="43.62505" lon="3.83454">
        <ele>79</ele>
        <time>2020-10-17T09:57:13.000Z</time>
      </trkpt>
      <trkpt lat="43.62503" lon="3.8346">
        <ele>79</ele>
        <time>2020-10-17T09:57:14.000Z</time>
      </trkpt>
      <trkpt lat="43.62503" lon="3.83465">
        <ele>79</ele>
        <time>2020-10-17T09:57:15.000Z</time>
      </trkpt>
      <trkpt lat="43.62503" lon="3.8347">
        <ele>79</ele>
        <time>2020-10-17T09:57:16.000Z</time>
      </trkpt>
      <trkpt lat="43.62505" lon="3.83473">
        <ele>79</ele>
        <time>2020-10-17T09:57:17.000Z</time>
      </trkpt>
      <trkpt lat="43.62507" lon="3.83475">
        <ele>79</ele>
        <time>2020-10-17T09:57:18.000Z</time>
      </trkpt>
      <trkpt lat="43.6251" lon="3.83475">
        <ele>79</ele>
        <time>2020-10-17T09:57:19.000Z</time>
      </trkpt>
      <trkpt lat="43.62513" lon="3.83473">
        <ele>79</ele>
        <time>2020-10-17T09:57:20.000Z</time>
      </trkpt>
      <trkpt lat="43.62516" lon="3.83472">
        <ele>78.94499968</ele>
        <time>2020-10-17T09:57:21.000Z</time>
      </trkpt>
      <trkpt lat="43.62518" lon="3.8347">
        <ele>78.84499968</ele>
        <time>2020-10-17T09:57:22.000Z</time>
      </trkpt>
      <trkpt lat="43.62521" lon="3.83469">
        <ele>78.74499968</ele>
        <time>2020-10-17T09:57:23.000Z</time>
      </trkpt>
      <trkpt lat="43.62524" lon="3.83469">
        <ele>78.64499968</ele>
        <time>2020-10-17T09:57:24.000Z</time>
      </trkpt>
      <trkpt lat="43.62526" lon="3.83469">
        <ele>78.54499968</ele>
        <time>2020-10-17T09:57:25.000Z</time>
      </trkpt>
      <trkpt lat="43.62529" lon="3.83469">
        <ele>78.44499968</ele>
        <time>2020-10-17T09:57:26.000Z</time>
      </trkpt>
      <trkpt lat="43.62532" lon="3.83468">
        <ele>78.34499968</ele>
        <time>2020-10-17T09:57:27.000Z</time>
      </trkpt>
      <trkpt lat="43.62534" lon="3.83467">
        <ele>78.24499968</ele>
        <time>2020-10-17T09:57:28.000Z</time>
      </trkpt>
      <trkpt lat="43.62537" lon="3.83467">
        <ele>78.14499968</ele>
        <time>2020-10-17T09:57:29.000Z</time>
      </trkpt>
      <trkpt lat="43.62539" lon="3.83467">
        <ele>78.04499968</ele>
        <time>2020-10-17T09:57:30.000Z</time>
      </trkpt>
      <trkpt lat="43.62542" lon="3.83467">
        <ele>78</ele>
        <time>2020-10-17T09:57:31.000Z</time>
      </trkpt>
      <trkpt lat="43.62544" lon="3.83467">
        <ele>78</ele>
        <time>2020-10-17T09:57:32.000Z</time>
      </trkpt>
      <trkpt lat="43.62547" lon="3.83466">
        <ele>78</ele>
        <time>2020-10-17T09:57:33.000Z</time>
      </trkpt>
      <trkpt lat="43.62549" lon="3.83465">
        <ele>78</ele>
        <time>2020-10-17T09:57:34.000Z</time>
      </trkpt>
      <trkpt lat="43.62551" lon="3.83463">
        <ele>78</ele>
        <time>2020-10-17T09:57:39.000Z</time>
      </trkpt>
      <trkpt lat="43.62551" lon="3.83463">
        <ele>78.001647247679</ele>
        <time>2020-10-17T09:57:40.000Z</time>
      </trkpt>
      <trkpt lat="43.62551" lon="3.83463">
        <ele>79.993261503444</ele>
        <time>2020-10-17T10:02:06.000Z</time>
      </trkpt>
      <trkpt lat="43.62552" lon="3.83464">
        <ele>80</ele>
        <time>2020-10-17T10:02:10.000Z</time>
      </trkpt>
      <trkpt lat="43.62553" lon="3.83466">
        <ele>80</ele>
        <time>2020-10-17T10:13:54.000Z</time>
      </trkpt>
      <trkpt lat="43.62553" lon="3.83466">
        <ele>80</ele>
        <time>2020-10-17T10:14:00.000Z</time>
      </trkpt>
      <trkpt lat="43.62546" lon="3.83464">
        <ele>80</ele>
        <time>2020-10-17T10:14:26.000Z</time>
      </trkpt>
      <trkpt lat="43.62544" lon="3.83464">
        <ele>79.859613942248</ele>
        <time>2020-10-17T10:14:28.000Z</time>
      </trkpt>
      <trkpt lat="43.6254" lon="3.83465">
        <ele>79.656154943956</ele>
        <time>2020-10-17T10:14:30.000Z</time>
      </trkpt>
      <trkpt lat="43.62538" lon="3.83466">
        <ele>79.55442544481</ele>
        <time>2020-10-17T10:14:31.000Z</time>
      </trkpt>
      <trkpt lat="43.62535" lon="3.83466">
        <ele>79.452695945664</ele>
        <time>2020-10-17T10:14:32.000Z</time>
      </trkpt>
      <trkpt lat="43.62532" lon="3.83466">
        <ele>79.350966446519</ele>
        <time>2020-10-17T10:14:33.000Z</time>
      </trkpt>
      <trkpt lat="43.62528" lon="3.83467">
        <ele>79.249236947373</ele>
        <time>2020-10-17T10:14:34.000Z</time>
      </trkpt>
      <trkpt lat="43.62524" lon="3.83468">
        <ele>79.147507448227</ele>
        <time>2020-10-17T10:14:35.000Z</time>
      </trkpt>
      <trkpt lat="43.6252" lon="3.83469">
        <ele>79.045777949081</ele>
        <time>2020-10-17T10:14:36.000Z</time>
      </trkpt>
      <trkpt lat="43.62517" lon="3.8347">
        <ele>78.946549720987</ele>
        <time>2020-10-17T10:14:37.000Z</time>
      </trkpt>
      <trkpt lat="43.62514" lon="3.83472">
        <ele>78.849367960931</ele>
        <time>2020-10-17T10:14:38.000Z</time>
      </trkpt>
      <trkpt lat="43.62511" lon="3.83475">
        <ele>78.752186200874</ele>
        <time>2020-10-17T10:14:39.000Z</time>
      </trkpt>
      <trkpt lat="43.6251" lon="3.83479">
        <ele>78.655004440818</ele>
        <time>2020-10-17T10:14:40.000Z</time>
      </trkpt>
      <trkpt lat="43.6251" lon="3.83482">
        <ele>78.557822680761</ele>
        <time>2020-10-17T10:14:41.000Z</time>
      </trkpt>
      <trkpt lat="43.62511" lon="3.83486">
        <ele>78.460640920705</ele>
        <time>2020-10-17T10:14:42.000Z</time>
      </trkpt>
      <trkpt lat="43.62513" lon="3.83489">
        <ele>78.363459160648</ele>
        <time>2020-10-17T10:14:43.000Z</time>
      </trkpt>
      <trkpt lat="43.62515" lon="3.83494">
        <ele>78.266277400592</ele>
        <time>2020-10-17T10:14:44.000Z</time>
      </trkpt>
      <trkpt lat="43.62517" lon="3.83499">
        <ele>78.169095640535</ele>
        <time>2020-10-17T10:14:45.000Z</time>
      </trkpt>
      <trkpt lat="43.6252" lon="3.83504">
        <ele>78.071913880479</ele>
        <time>2020-10-17T10:14:46.000Z</time>
      </trkpt>
      <trkpt lat="43.62522" lon="3.8351">
        <ele>77.974051274059</ele>
        <time>2020-10-17T10:14:47.000Z</time>
      </trkpt>
      <trkpt lat="43.62524" lon="3.83515">
        <ele>77.874250938602</ele>
        <time>2020-10-17T10:14:48.000Z</time>
      </trkpt>
      <trkpt lat="43.62526" lon="3.83521">
        <ele>77.774450603145</ele>
        <time>2020-10-17T10:14:49.000Z</time>
      </trkpt>
      <trkpt lat="43.62529" lon="3.83526">
        <ele>77.674650267688</ele>
        <time>2020-10-17T10:14:50.000Z</time>
      </trkpt>
      <trkpt lat="43.62531" lon="3.83532">
        <ele>77.574849932232</ele>
        <time>2020-10-17T10:14:51.000Z</time>
      </trkpt>
      <trkpt lat="43.62533" lon="3.83538">
        <ele>77.475049596775</ele>
        <time>2020-10-17T10:14:52.000Z</time>
      </trkpt>
      <trkpt lat="43.62534" lon="3.83544">
        <ele>77.375249261318</ele>
        <time>2020-10-17T10:14:53.000Z</time>
      </trkpt>
      <trkpt lat="43.62535" lon="3.83549">
        <ele>77.275448925861</ele>
        <time>2020-10-17T10:14:54.000Z</time>
      </trkpt>
      <trkpt lat="43.62536" lon="3.83553">
        <ele>77.175648590404</ele>
        <time>2020-10-17T10:14:55.000Z</time>
      </trkpt>
      <trkpt lat="43.62538" lon="3.83555">
        <ele>77.075848254947</ele>
        <time>2020-10-17T10:14:56.000Z</time>
      </trkpt>
      <trkpt lat="43.6254" lon="3.83558">
        <ele>77</ele>
        <time>2020-10-17T10:14:57.000Z</time>
      </trkpt>
      <trkpt lat="43.62542" lon="3.83561">
        <ele>77</ele>
        <time>2020-10-17T10:14:58.000Z</time>
      </trkpt>
      <trkpt lat="43.62543" lon="3.83564">
        <ele>77</ele>
        <time>2020-10-17T10:14:59.000Z</time>
      </trkpt>
      <trkpt lat="43.62544" lon="3.83566">
        <ele>77</ele>
        <time>2020-10-17T10:15:00.000Z</time>
      </trkpt>
      <trkpt lat="43.62545" lon="3.83568">
        <ele>77</ele>
        <time>2020-10-17T10:15:01.000Z</time>
      </trkpt>
      <trkpt lat="43.62547" lon="3.8357">
        <ele>77</ele>
        <time>2020-10-17T10:15:02.000Z</time>
      </trkpt>
      <trkpt lat="43.6255" lon="3.83572">
        <ele>77</ele>
        <time>2020-10-17T10:15:03.000Z</time>
      </trkpt>
      <trkpt lat="43.62553" lon="3.83575">
        <ele>77</ele>
        <time>2020-10-17T10:15:04.000Z</time>
      </trkpt>
      <trkpt lat="43.62556" lon="3.83578">
        <ele>77</ele>
        <time>2020-10-17T10:15:05.000Z</time>
      </trkpt>
      <trkpt lat="43.62559" lon="3.83582">
        <ele>77</ele>
        <time>2020-10-17T10:15:06.000Z</time>
      </trkpt>
      <trkpt lat="43.62562" lon="3.83584">
        <ele>77</ele>
        <time>2020-10-17T10:15:07.000Z</time>
      </trkpt>
      <trkpt lat="43.62564" lon="3.83586">
        <ele>77</ele>
        <time>2020-10-17T10:15:08.000Z</time>
      </trkpt>
      <trkpt lat="43.62566" lon="3.83587">
        <ele>77</ele>
        <time>2020-10-17T10:15:09.000Z</time>
      </trkpt>
      <trkpt lat="43.62568" lon="3.83589">
        <ele>77</ele>
        <time>2020-10-17T10:15:10.000Z</time>
      </trkpt>
      <trkpt lat="43.62569" lon="3.83591">
        <ele>77</ele>
        <time>2020-10-17T10:15:11.000Z</time>
      </trkpt>
      <trkpt lat="43.62571" lon="3.83594">
        <ele>77</ele>
        <time>2020-10-17T10:15:12.000Z</time>
      </trkpt>
      <trkpt lat="43.62573" lon="3.83597">
        <ele>77</ele>
        <time>2020-10-17T10:15:13.000Z</time>
      </trkpt>
      <trkpt lat="43.62575" lon="3.836">
        <ele>77</ele>
        <time>2020-10-17T10:15:14.000Z</time>
      </trkpt>
      <trkpt lat="43.62576" lon="3.83603">
        <ele>77</ele>
        <time>2020-10-17T10:15:15.000Z</time>
      </trkpt>
      <trkpt lat="43.62577" lon="3.83607">
        <ele>77</ele>
        <time>2020-10-17T10:15:16.000Z</time>
      </trkpt>
      <trkpt lat="43.62576" lon="3.83612">
        <ele>77.05500032</ele>
        <time>2020-10-17T10:15:17.000Z</time>
      </trkpt>
      <trkpt lat="43.62573" lon="3.83615">
        <ele>77.15500032</ele>
        <time>2020-10-17T10:15:18.000Z</time>
      </trkpt>
      <trkpt lat="43.6257" lon="3.83616">
        <ele>77.25500032</ele>
        <time>2020-10-17T10:15:19.000Z</time>
      </trkpt>
      <trkpt lat="43.62568" lon="3.83617">
        <ele>77.35500032</ele>
        <time>2020-10-17T10:15:20.000Z</time>
      </trkpt>
      <trkpt lat="43.62565" lon="3.83618">
        <ele>77.45500032</ele>
        <time>2020-10-17T10:15:21.000Z</time>
      </trkpt>
      <trkpt lat="43.62563" lon="3.83619">
        <ele>77.55500032</ele>
        <time>2020-10-17T10:15:22.000Z</time>
      </trkpt>
      <trkpt lat="43.62561" lon="3.8362">
        <ele>77.65500032</ele>
        <time>2020-10-17T10:15:23.000Z</time>
      </trkpt>
      <trkpt lat="43.62559" lon="3.8362">
        <ele>77.75500032</ele>
        <time>2020-10-17T10:15:24.000Z</time>
      </trkpt>
      <trkpt lat="43.62556" lon="3.83621">
        <ele>77.85500032</ele>
        <time>2020-10-17T10:15:25.000Z</time>
      </trkpt>
      <trkpt lat="43.62554" lon="3.83622">
        <ele>77.95500032</ele>
        <time>2020-10-17T10:15:26.000Z</time>
      </trkpt>
      <trkpt lat="43.62552" lon="3.83623">
        <ele>78</ele>
        <time>2020-10-17T10:15:27.000Z</time>
      </trkpt>
      <trkpt lat="43.6255" lon="3.83623">
        <ele>78</ele>
        <time>2020-10-17T10:15:28.000Z</time>
      </trkpt>
      <trkpt lat="43.62548" lon="3.83624">
        <ele>78</ele>
        <time>2020-10-17T10:15:29.000Z</time>
      </trkpt>
      <trkpt lat="43.62546" lon="3.83624">
        <ele>78</ele>
        <time>2020-10-17T10:15:30.000Z</time>
      </trkpt>
      <trkpt lat="43.62544" lon="3.83622">
        <ele>78</ele>
        <time>2020-10-17T10:15:31.000Z</time>
      </trkpt>
      <trkpt lat="43.62542" lon="3.83621">
        <ele>78</ele>
        <time>2020-10-17T10:15:32.000Z</time>
      </trkpt>
      <trkpt lat="43.6254" lon="3.83619">
        <ele>78</ele>
        <time>2020-10-17T10:15:33.000Z</time>
      </trkpt>
      <trkpt lat="43.62537" lon="3.83618">
        <ele>78</ele>
        <time>2020-10-17T10:15:34.000Z</time>
      </trkpt>
      <trkpt lat="43.62535" lon="3.83616">
        <ele>78</ele>
        <time>2020-10-17T10:15:35.000Z</time>
      </trkpt>
      <trkpt lat="43.62533" lon="3.83614">
        <ele>78</ele>
        <time>2020-10-17T10:15:36.000Z</time>
      </trkpt>
      <trkpt lat="43.62531" lon="3.83612">
        <ele>78</ele>
        <time>2020-10-17T10:15:37.000Z</time>
      </trkpt>
      <trkpt lat="43.62529" lon="3.83611">
        <ele>78</ele>
        <time>2020-10-17T10:15:38.000Z</time>
      </trkpt>
      <trkpt lat="43.62527" lon="3.8361">
        <ele>78</ele>
        <time>2020-10-17T10:15:39.000Z</time>
      </trkpt>
      <trkpt lat="43.62524" lon="3.83608">
        <ele>78</ele>
        <time>2020-10-17T10:15:40.000Z</time>
      </trkpt>
      <trkpt lat="43.62522" lon="3.83607">
        <ele>78</ele>
        <time>2020-10-17T10:15:41.000Z</time>
      </trkpt>
      <trkpt lat="43.6252" lon="3.83607">
        <ele>78</ele>
        <time>2020-10-17T10:15:42.000Z</time>
      </trkpt>
      <trkpt lat="43.62518" lon="3.83606">
        <ele>78</ele>
        <time>2020-10-17T10:15:43.000Z</time>
      </trkpt>
      <trkpt lat="43.62515" lon="3.83606">
        <ele>78</ele>
        <time>2020-10-17T10:15:44.000Z</time>
      </trkpt>
      <trkpt lat="43.62513" lon="3.83606">
        <ele>78</ele>
        <time>2020-10-17T10:15:45.000Z</time>
      </trkpt>
      <trkpt lat="43.62511" lon="3.83607">
        <ele>78</ele>
        <time>2020-10-17T10:15:46.000Z</time>
      </trkpt>
      <trkpt lat="43.62508" lon="3.83609">
        <ele>77.94499968</ele>
        <time>2020-10-17T10:15:47.000Z</time>
      </trkpt>
      <trkpt lat="43.62506" lon="3.8361">
        <ele>77.84499968</ele>
        <time>2020-10-17T10:15:48.000Z</time>
      </trkpt>
      <trkpt lat="43.62504" lon="3.83612">
        <ele>77.74499968</ele>
        <time>2020-10-17T10:15:49.000Z</time>
      </trkpt>
      <trkpt lat="43.62502" lon="3.83614">
        <ele>77.64499968</ele>
        <time>2020-10-17T10:15:50.000Z</time>
      </trkpt>
      <trkpt lat="43.62501" lon="3.83617">
        <ele>77.54499968</ele>
        <time>2020-10-17T10:15:51.000Z</time>
      </trkpt>
      <trkpt lat="43.62499" lon="3.83619">
        <ele>77.44499968</ele>
        <time>2020-10-17T10:15:52.000Z</time>
      </trkpt>
      <trkpt lat="43.62498" lon="3.83622">
        <ele>77.34499968</ele>
        <time>2020-10-17T10:15:53.000Z</time>
      </trkpt>
      <trkpt lat="43.62497" lon="3.83625">
        <ele>77.24499968</ele>
        <time>2020-10-17T10:15:54.000Z</time>
      </trkpt>
      <trkpt lat="43.62496" lon="3.83628">
        <ele>77.14499968</ele>
        <time>2020-10-17T10:15:55.000Z</time>
      </trkpt>
      <trkpt lat="43.62495" lon="3.83631">
        <ele>77.04499968</ele>
        <time>2020-10-17T10:15:56.000Z</time>
      </trkpt>
      <trkpt lat="43.62494" lon="3.83635">
        <ele>77</ele>
        <time>2020-10-17T10:15:57.000Z</time>
      </trkpt>
      <trkpt lat="43.62494" lon="3.83638">
        <ele>77</ele>
        <time>2020-10-17T10:15:58.000Z</time>
      </trkpt>
      <trkpt lat="43.62493" lon="3.83642">
        <ele>77</ele>
        <time>2020-10-17T10:15:59.000Z</time>
      </trkpt>
      <trkpt lat="43.62492" lon="3.83646">
        <ele>77</ele>
        <time>2020-10-17T10:16:00.000Z</time>
      </trkpt>
      <trkpt lat="43.62491" lon="3.83649">
        <ele>77</ele>
        <time>2020-10-17T10:16:01.000Z</time>
      </trkpt>
      <trkpt lat="43.62488" lon="3.83651">
        <ele>77</ele>
        <time>2020-10-17T10:16:02.000Z</time>
      </trkpt>
      <trkpt lat="43.62486" lon="3.83652">
        <ele>77</ele>
        <time>2020-10-17T10:16:03.000Z</time>
      </trkpt>
      <trkpt lat="43.62484" lon="3.83653">
        <ele>77</ele>
        <time>2020-10-17T10:16:04.000Z</time>
      </trkpt>
      <trkpt lat="43.62481" lon="3.83654">
        <ele>77</ele>
        <time>2020-10-17T10:16:05.000Z</time>
      </trkpt>
      <trkpt lat="43.62479" lon="3.83655">
        <ele>77</ele>
        <time>2020-10-17T10:16:06.000Z</time>
      </trkpt>
      <trkpt lat="43.62477" lon="3.83656">
        <ele>77</ele>
        <time>2020-10-17T10:16:07.000Z</time>
      </trkpt>
      <trkpt lat="43.62475" lon="3.83656">
        <ele>77</ele>
        <time>2020-10-17T10:16:08.000Z</time>
      </trkpt>
      <trkpt lat="43.62473" lon="3.83658">
        <ele>77</ele>
        <time>2020-10-17T10:16:09.000Z</time>
      </trkpt>
      <trkpt lat="43.62471" lon="3.83658">
        <ele>77</ele>
        <time>2020-10-17T10:16:10.000Z</time>
      </trkpt>
      <trkpt lat="43.62469" lon="3.83659">
        <ele>77</ele>
        <time>2020-10-17T10:16:11.000Z</time>
      </trkpt>
      <trkpt lat="43.62467" lon="3.83661">
        <ele>77</ele>
        <time>2020-10-17T10:16:12.000Z</time>
      </trkpt>
      <trkpt lat="43.62465" lon="3.83663">
        <ele>77</ele>
        <time>2020-10-17T10:16:13.000Z</time>
      </trkpt>
      <trkpt lat="43.62462" lon="3.83665">
        <ele>77</ele>
        <time>2020-10-17T10:16:14.000Z</time>
      </trkpt>
      <trkpt lat="43.6246" lon="3.83667">
        <ele>77</ele>
        <time>2020-10-17T10:16:15.000Z</time>
      </trkpt>
      <trkpt lat="43.62456" lon="3.83668">
        <ele>77</ele>
        <time>2020-10-17T10:16:16.000Z</time>
      </trkpt>
      <trkpt lat="43.62453" lon="3.8367">
        <ele>76.94628875</ele>
        <time>2020-10-17T10:16:17.000Z</time>
      </trkpt>
      <trkpt lat="43.6245" lon="3.83671">
        <ele>76.8486325</ele>
        <time>2020-10-17T10:16:18.000Z</time>
      </trkpt>
      <trkpt lat="43.62446" lon="3.83672">
        <ele>76.75097625</ele>
        <time>2020-10-17T10:16:19.000Z</time>
      </trkpt>
      <trkpt lat="43.62442" lon="3.83673">
        <ele>76.65332</ele>
        <time>2020-10-17T10:16:20.000Z</time>
      </trkpt>
      <trkpt lat="43.62438" lon="3.83675">
        <ele>76.55566375</ele>
        <time>2020-10-17T10:16:21.000Z</time>
      </trkpt>
      <trkpt lat="43.62434" lon="3.83676">
        <ele>76.4580075</ele>
        <time>2020-10-17T10:16:22.000Z</time>
      </trkpt>
      <trkpt lat="43.6243" lon="3.83678">
        <ele>76.36035125</ele>
        <time>2020-10-17T10:16:23.000Z</time>
      </trkpt>
      <trkpt lat="43.62426" lon="3.83679">
        <ele>76.262695</ele>
        <time>2020-10-17T10:16:24.000Z</time>
      </trkpt>
      <trkpt lat="43.62423" lon="3.83681">
        <ele>76.16503875</ele>
        <time>2020-10-17T10:16:25.000Z</time>
      </trkpt>
      <trkpt lat="43.6242" lon="3.83685">
        <ele>76.0673825</ele>
        <time>2020-10-17T10:16:26.000Z</time>
      </trkpt>
      <trkpt lat="43.62419" lon="3.83689">
        <ele>75.936604704062</ele>
        <time>2020-10-17T10:16:27.000Z</time>
      </trkpt>
      <trkpt lat="43.6242" lon="3.83693">
        <ele>75.732105860381</ele>
        <time>2020-10-17T10:16:28.000Z</time>
      </trkpt>
      <trkpt lat="43.62421" lon="3.83698">
        <ele>75.527607016699</ele>
        <time>2020-10-17T10:16:29.000Z</time>
      </trkpt>
      <trkpt lat="43.62423" lon="3.83701">
        <ele>75.323108173017</ele>
        <time>2020-10-17T10:16:30.000Z</time>
      </trkpt>
      <trkpt lat="43.62425" lon="3.83706">
        <ele>75.118609329335</ele>
        <time>2020-10-17T10:16:31.000Z</time>
      </trkpt>
      <trkpt lat="43.62427" lon="3.83711">
        <ele>74.914110485654</ele>
        <time>2020-10-17T10:16:32.000Z</time>
      </trkpt>
      <trkpt lat="43.62429" lon="3.83717">
        <ele>74.709611641972</ele>
        <time>2020-10-17T10:16:33.000Z</time>
      </trkpt>
      <trkpt lat="43.6243" lon="3.83723">
        <ele>74.50511279829</ele>
        <time>2020-10-17T10:16:34.000Z</time>
      </trkpt>
      <trkpt lat="43.62432" lon="3.83728">
        <ele>74.300613954608</ele>
        <time>2020-10-17T10:16:35.000Z</time>
      </trkpt>
      <trkpt lat="43.62434" lon="3.83734">
        <ele>74.096115110927</ele>
        <time>2020-10-17T10:16:36.000Z</time>
      </trkpt>
      <trkpt lat="43.62435" lon="3.83739">
        <ele>74.05310592584</ele>
        <time>2020-10-17T10:16:37.000Z</time>
      </trkpt>
      <trkpt lat="43.62436" lon="3.83744">
        <ele>74.153306390898</ele>
        <time>2020-10-17T10:16:38.000Z</time>
      </trkpt>
      <trkpt lat="43.62437" lon="3.83748">
        <ele>74.253506855956</ele>
        <time>2020-10-17T10:16:39.000Z</time>
      </trkpt>
      <trkpt lat="43.62438" lon="3.83752">
        <ele>74.353707321015</ele>
        <time>2020-10-17T10:16:40.000Z</time>
      </trkpt>
      <trkpt lat="43.62439" lon="3.83756">
        <ele>74.453907786073</ele>
        <time>2020-10-17T10:16:41.000Z</time>
      </trkpt>
      <trkpt lat="43.6244" lon="3.8376">
        <ele>74.554108251131</ele>
        <time>2020-10-17T10:16:42.000Z</time>
      </trkpt>
      <trkpt lat="43.62441" lon="3.83764">
        <ele>74.65430871619</ele>
        <time>2020-10-17T10:16:43.000Z</time>
      </trkpt>
      <trkpt lat="43.62442" lon="3.83768">
        <ele>74.754509181248</ele>
        <time>2020-10-17T10:16:44.000Z</time>
      </trkpt>
      <trkpt lat="43.62444" lon="3.83772">
        <ele>74.854709646307</ele>
        <time>2020-10-17T10:16:45.000Z</time>
      </trkpt>
      <trkpt lat="43.62445" lon="3.83776">
        <ele>74.954910111365</ele>
        <time>2020-10-17T10:16:46.000Z</time>
      </trkpt>
      <trkpt lat="43.62447" lon="3.83779">
        <ele>75</ele>
        <time>2020-10-17T10:16:47.000Z</time>
      </trkpt>
      <trkpt lat="43.62449" lon="3.83783">
        <ele>75</ele>
        <time>2020-10-17T10:16:48.000Z</time>
      </trkpt>
      <trkpt lat="43.62451" lon="3.83786">
        <ele>75</ele>
        <time>2020-10-17T10:16:49.000Z</time>
      </trkpt>
      <trkpt lat="43.62454" lon="3.83789">
        <ele>75</ele>
        <time>2020-10-17T10:16:50.000Z</time>
      </trkpt>
      <trkpt lat="43.62457" lon="3.83791">
        <ele>75</ele>
        <time>2020-10-17T10:16:51.000Z</time>
      </trkpt>
      <trkpt lat="43.6246" lon="3.83794">
        <ele>75</ele>
        <time>2020-10-17T10:16:52.000Z</time>
      </trkpt>
      <trkpt lat="43.62462" lon="3.83796">
        <ele>75</ele>
        <time>2020-10-17T10:16:53.000Z</time>
      </trkpt>
      <trkpt lat="43.62465" lon="3.83798">
        <ele>75</ele>
        <time>2020-10-17T10:16:54.000Z</time>
      </trkpt>
      <trkpt lat="43.62469" lon="3.83801">
        <ele>75</ele>
        <time>2020-10-17T10:16:55.000Z</time>
      </trkpt>
      <trkpt lat="43.62472" lon="3.83804">
        <ele>75</ele>
        <time>2020-10-17T10:16:56.000Z</time>
      </trkpt>
      <trkpt lat="43.62475" lon="3.83806">
        <ele>75</ele>
        <time>2020-10-17T10:16:57.000Z</time>
      </trkpt>
      <trkpt lat="43.62479" lon="3.83809">
        <ele>75</ele>
        <time>2020-10-17T10:16:58.000Z</time>
      </trkpt>
      <trkpt lat="43.62482" lon="3.83811">
        <ele>75</ele>
        <time>2020-10-17T10:16:59.000Z</time>
      </trkpt>
      <trkpt lat="43.62486" lon="3.83814">
        <ele>75</ele>
        <time>2020-10-17T10:17:00.000Z</time>
      </trkpt>
      <trkpt lat="43.62489" lon="3.83817">
        <ele>75</ele>
        <time>2020-10-17T10:17:01.000Z</time>
      </trkpt>
      <trkpt lat="43.62491" lon="3.83819">
        <ele>75</ele>
        <time>2020-10-17T10:17:02.000Z</time>
      </trkpt>
      <trkpt lat="43.62494" lon="3.83821">
        <ele>75</ele>
        <time>2020-10-17T10:17:03.000Z</time>
      </trkpt>
      <trkpt lat="43.62497" lon="3.83824">
        <ele>75</ele>
        <time>2020-10-17T10:17:04.000Z</time>
      </trkpt>
      <trkpt lat="43.625" lon="3.83828">
        <ele>75</ele>
        <time>2020-10-17T10:17:05.000Z</time>
      </trkpt>
      <trkpt lat="43.62504" lon="3.83831">
        <ele>75</ele>
        <time>2020-10-17T10:17:06.000Z</time>
      </trkpt>
      <trkpt lat="43.62508" lon="3.83834">
        <ele>74.88999936</ele>
        <time>2020-10-17T10:17:07.000Z</time>
      </trkpt>
      <trkpt lat="43.62512" lon="3.83839">
        <ele>74.68999936</ele>
        <time>2020-10-17T10:17:08.000Z</time>
      </trkpt>
      <trkpt lat="43.62516" lon="3.83843">
        <ele>74.48999936</ele>
        <time>2020-10-17T10:17:09.000Z</time>
      </trkpt>
      <trkpt lat="43.62519" lon="3.83848">
        <ele>74.28999936</ele>
        <time>2020-10-17T10:17:10.000Z</time>
      </trkpt>
      <trkpt lat="43.62521" lon="3.83854">
        <ele>74.08999936</ele>
        <time>2020-10-17T10:17:11.000Z</time>
      </trkpt>
      <trkpt lat="43.62523" lon="3.8386">
        <ele>73.88999936</ele>
        <time>2020-10-17T10:17:12.000Z</time>
      </trkpt>
      <trkpt lat="43.62524" lon="3.83867">
        <ele>73.68999936</ele>
        <time>2020-10-17T10:17:13.000Z</time>
      </trkpt>
      <trkpt lat="43.62525" lon="3.83874">
        <ele>73.48999936</ele>
        <time>2020-10-17T10:17:14.000Z</time>
      </trkpt>
      <trkpt lat="43.62527" lon="3.83881">
        <ele>73.28999936</ele>
        <time>2020-10-17T10:17:15.000Z</time>
      </trkpt>
      <trkpt lat="43.62528" lon="3.83888">
        <ele>73.08999936</ele>
        <time>2020-10-17T10:17:16.000Z</time>
      </trkpt>
      <trkpt lat="43.62528" lon="3.83895">
        <ele>72.88999936</ele>
        <time>2020-10-17T10:17:17.000Z</time>
      </trkpt>
      <trkpt lat="43.62528" lon="3.83902">
        <ele>72.68999936</ele>
        <time>2020-10-17T10:17:18.000Z</time>
      </trkpt>
      <trkpt lat="43.6253" lon="3.83908">
        <ele>72.48999936</ele>
        <time>2020-10-17T10:17:19.000Z</time>
      </trkpt>
      <trkpt lat="43.62532" lon="3.83914">
        <ele>72.28999936</ele>
        <time>2020-10-17T10:17:20.000Z</time>
      </trkpt>
      <trkpt lat="43.62534" lon="3.83921">
        <ele>72.08999936</ele>
        <time>2020-10-17T10:17:21.000Z</time>
      </trkpt>
      <trkpt lat="43.62536" lon="3.83928">
        <ele>71.88999936</ele>
        <time>2020-10-17T10:17:22.000Z</time>
      </trkpt>
      <trkpt lat="43.62537" lon="3.83935">
        <ele>71.68999936</ele>
        <time>2020-10-17T10:17:23.000Z</time>
      </trkpt>
      <trkpt lat="43.62538" lon="3.83942">
        <ele>71.48999936</ele>
        <time>2020-10-17T10:17:24.000Z</time>
      </trkpt>
      <trkpt lat="43.62538" lon="3.8395">
        <ele>71.28999936</ele>
        <time>2020-10-17T10:17:25.000Z</time>
      </trkpt>
      <trkpt lat="43.62537" lon="3.83957">
        <ele>71.08999936</ele>
        <time>2020-10-17T10:17:26.000Z</time>
      </trkpt>
      <trkpt lat="43.62535" lon="3.83965">
        <ele>70.839960321254</ele>
        <time>2020-10-17T10:17:27.000Z</time>
      </trkpt>
      <trkpt lat="43.62533" lon="3.83972">
        <ele>70.548980780142</ele>
        <time>2020-10-17T10:17:28.000Z</time>
      </trkpt>
      <trkpt lat="43.6253" lon="3.83979">
        <ele>70.25800123903</ele>
        <time>2020-10-17T10:17:29.000Z</time>
      </trkpt>
      <trkpt lat="43.62527" lon="3.83985">
        <ele>69.967021697918</ele>
        <time>2020-10-17T10:17:30.000Z</time>
      </trkpt>
      <trkpt lat="43.62524" lon="3.83992">
        <ele>69.676042156805</ele>
        <time>2020-10-17T10:17:31.000Z</time>
      </trkpt>
      <trkpt lat="43.6252" lon="3.83999">
        <ele>69.385062615693</ele>
        <time>2020-10-17T10:17:32.000Z</time>
      </trkpt>
      <trkpt lat="43.62517" lon="3.84006">
        <ele>69.094083074581</ele>
        <time>2020-10-17T10:17:33.000Z</time>
      </trkpt>
      <trkpt lat="43.62513" lon="3.84013">
        <ele>68.803103533469</ele>
        <time>2020-10-17T10:17:34.000Z</time>
      </trkpt>
      <trkpt lat="43.6251" lon="3.84021">
        <ele>68.512123992357</ele>
        <time>2020-10-17T10:17:35.000Z</time>
      </trkpt>
      <trkpt lat="43.62506" lon="3.8403">
        <ele>68.221144451245</ele>
        <time>2020-10-17T10:17:36.000Z</time>
      </trkpt>
      <trkpt lat="43.62503" lon="3.84038">
        <ele>67.950464379926</ele>
        <time>2020-10-17T10:17:37.000Z</time>
      </trkpt>
      <trkpt lat="43.625" lon="3.84046">
        <ele>67.744065962953</ele>
        <time>2020-10-17T10:17:38.000Z</time>
      </trkpt>
      <trkpt lat="43.62497" lon="3.84055">
        <ele>67.537667545979</ele>
        <time>2020-10-17T10:17:39.000Z</time>
      </trkpt>
      <trkpt lat="43.62493" lon="3.84063">
        <ele>67.331269129005</ele>
        <time>2020-10-17T10:17:40.000Z</time>
      </trkpt>
      <trkpt lat="43.6249" lon="3.8407">
        <ele>67.124870712032</ele>
        <time>2020-10-17T10:17:41.000Z</time>
      </trkpt>
      <trkpt lat="43.62487" lon="3.84078">
        <ele>66.918472295058</ele>
        <time>2020-10-17T10:17:42.000Z</time>
      </trkpt>
      <trkpt lat="43.62483" lon="3.84086">
        <ele>66.712073878084</ele>
        <time>2020-10-17T10:17:43.000Z</time>
      </trkpt>
      <trkpt lat="43.6248" lon="3.84094">
        <ele>66.505675461111</ele>
        <time>2020-10-17T10:17:44.000Z</time>
      </trkpt>
      <trkpt lat="43.62476" lon="3.84102">
        <ele>66.299277044137</ele>
        <time>2020-10-17T10:17:45.000Z</time>
      </trkpt>
      <trkpt lat="43.62472" lon="3.8411">
        <ele>66.092878627163</ele>
        <time>2020-10-17T10:17:46.000Z</time>
      </trkpt>
      <trkpt lat="43.62469" lon="3.84117">
        <ele>65.946497743191</ele>
        <time>2020-10-17T10:17:47.000Z</time>
      </trkpt>
      <trkpt lat="43.62466" lon="3.84121">
        <ele>65.849221478599</ele>
        <time>2020-10-17T10:17:48.000Z</time>
      </trkpt>
      <trkpt lat="43.62464" lon="3.84125">
        <ele>65.751945214008</ele>
        <time>2020-10-17T10:17:49.000Z</time>
      </trkpt>
      <trkpt lat="43.62461" lon="3.84129">
        <ele>65.654668949416</ele>
        <time>2020-10-17T10:17:50.000Z</time>
      </trkpt>
      <trkpt lat="43.62458" lon="3.84131">
        <ele>65.557392684825</ele>
        <time>2020-10-17T10:17:51.000Z</time>
      </trkpt>
      <trkpt lat="43.62455" lon="3.84132">
        <ele>65.460116420234</ele>
        <time>2020-10-17T10:17:52.000Z</time>
      </trkpt>
      <trkpt lat="43.62452" lon="3.84133">
        <ele>65.362840155642</ele>
        <time>2020-10-17T10:17:53.000Z</time>
      </trkpt>
      <trkpt lat="43.62448" lon="3.84134">
        <ele>65.265563891051</ele>
        <time>2020-10-17T10:17:54.000Z</time>
      </trkpt>
      <trkpt lat="43.62445" lon="3.84135">
        <ele>65.168287626459</ele>
        <time>2020-10-17T10:17:55.000Z</time>
      </trkpt>
      <trkpt lat="43.62442" lon="3.84136">
        <ele>65.071011361868</ele>
        <time>2020-10-17T10:17:56.000Z</time>
      </trkpt>
      <trkpt lat="43.62438" lon="3.84138">
        <ele>64.972221893004</ele>
        <time>2020-10-17T10:17:57.000Z</time>
      </trkpt>
      <trkpt lat="43.62433" lon="3.8414">
        <ele>64.869341234568</ele>
        <time>2020-10-17T10:17:58.000Z</time>
      </trkpt>
      <trkpt lat="43.62428" lon="3.84142">
        <ele>64.766460576132</ele>
        <time>2020-10-17T10:17:59.000Z</time>
      </trkpt>
      <trkpt lat="43.62423" lon="3.84144">
        <ele>64.663579917696</ele>
        <time>2020-10-17T10:18:00.000Z</time>
      </trkpt>
      <trkpt lat="43.62418" lon="3.84145">
        <ele>64.560699259259</ele>
        <time>2020-10-17T10:18:01.000Z</time>
      </trkpt>
      <trkpt lat="43.62413" lon="3.84147">
        <ele>64.457818600823</ele>
        <time>2020-10-17T10:18:02.000Z</time>
      </trkpt>
      <trkpt lat="43.62408" lon="3.84149">
        <ele>64.354937942387</ele>
        <time>2020-10-17T10:18:03.000Z</time>
      </trkpt>
      <trkpt lat="43.62402" lon="3.8415">
        <ele>64.252057283951</ele>
        <time>2020-10-17T10:18:04.000Z</time>
      </trkpt>
      <trkpt lat="43.62398" lon="3.84151">
        <ele>64.149176625514</ele>
        <time>2020-10-17T10:18:05.000Z</time>
      </trkpt>
      <trkpt lat="43.62393" lon="3.84152">
        <ele>64.046295967078</ele>
        <time>2020-10-17T10:18:06.000Z</time>
      </trkpt>
      <trkpt lat="43.62389" lon="3.84152">
        <ele>64</ele>
        <time>2020-10-17T10:18:07.000Z</time>
      </trkpt>
      <trkpt lat="43.62386" lon="3.84151">
        <ele>64</ele>
        <time>2020-10-17T10:18:08.000Z</time>
      </trkpt>
      <trkpt lat="43.62383" lon="3.8415">
        <ele>64</ele>
        <time>2020-10-17T10:18:09.000Z</time>
      </trkpt>
      <trkpt lat="43.6238" lon="3.84148">
        <ele>64</ele>
        <time>2020-10-17T10:18:10.000Z</time>
      </trkpt>
      <trkpt lat="43.62378" lon="3.84148">
        <ele>64</ele>
        <time>2020-10-17T10:18:11.000Z</time>
      </trkpt>
      <trkpt lat="43.62376" lon="3.84148">
        <ele>64</ele>
        <time>2020-10-17T10:18:12.000Z</time>
      </trkpt>
      <trkpt lat="43.62374" lon="3.84148">
        <ele>64</ele>
        <time>2020-10-17T10:18:13.000Z</time>
      </trkpt>
      <trkpt lat="43.62372" lon="3.8415">
        <ele>64</ele>
        <time>2020-10-17T10:18:15.000Z</time>
      </trkpt>
      <trkpt lat="43.62372" lon="3.8415">
        <ele>64</ele>
        <time>2020-10-17T10:18:20.000Z</time>
      </trkpt>
      <trkpt lat="43.62373" lon="3.84155">
        <ele>62.019708886574</ele>
        <time>2020-10-17T10:19:51.000Z</time>
      </trkpt>
      <trkpt lat="43.62375" lon="3.84154">
        <ele>61.771488987162</ele>
        <time>2020-10-17T10:19:53.000Z</time>
      </trkpt>
      <trkpt lat="43.62377" lon="3.8415">
        <ele>61.142557747628</ele>
        <time>2020-10-17T10:19:56.000Z</time>
      </trkpt>
      <trkpt lat="43.62377" lon="3.84147">
        <ele>60.723270254605</ele>
        <time>2020-10-17T10:19:58.000Z</time>
      </trkpt>
      <trkpt lat="43.62375" lon="3.8415">
        <ele>60.09433901507</ele>
        <time>2020-10-17T10:20:01.000Z</time>
      </trkpt>
      <trkpt lat="43.62373" lon="3.84151">
        <ele>60.150631851694</ele>
        <time>2020-10-17T10:20:03.000Z</time>
      </trkpt>
      <trkpt lat="43.62374" lon="3.84154">
        <ele>60.442176769203</ele>
        <time>2020-10-17T10:20:06.000Z</time>
      </trkpt>
      <trkpt lat="43.62375" lon="3.84151">
        <ele>60.733721686712</ele>
        <time>2020-10-17T10:20:09.000Z</time>
      </trkpt>
      <trkpt lat="43.62375" lon="3.84148">
        <ele>60.928084965052</ele>
        <time>2020-10-17T10:20:11.000Z</time>
      </trkpt>
      <trkpt lat="43.62378" lon="3.84146">
        <ele>61.129762599971</ele>
        <time>2020-10-17T10:20:13.000Z</time>
      </trkpt>
      <trkpt lat="43.62379" lon="3.84148">
        <ele>61.335736027092</ele>
        <time>2020-10-17T10:20:15.000Z</time>
      </trkpt>
      <trkpt lat="43.62377" lon="3.84149">
        <ele>61.541709454213</ele>
        <time>2020-10-17T10:20:17.000Z</time>
      </trkpt>
      <trkpt lat="43.62376" lon="3.84147">
        <ele>61.747682881334</ele>
        <time>2020-10-17T10:20:19.000Z</time>
      </trkpt>
      <trkpt lat="43.62375" lon="3.84145">
        <ele>61.953656308455</ele>
        <time>2020-10-17T10:20:21.000Z</time>
      </trkpt>
      <trkpt lat="43.62372" lon="3.84147">
        <ele>62</ele>
        <time>2020-10-17T10:20:23.000Z</time>
      </trkpt>
      <trkpt lat="43.62374" lon="3.8415">
        <ele>62</ele>
        <time>2020-10-17T10:20:25.000Z</time>
      </trkpt>
      <trkpt lat="43.62377" lon="3.84147">
        <ele>62</ele>
        <time>2020-10-17T10:20:27.000Z</time>
      </trkpt>
      <trkpt lat="43.6238" lon="3.84147">
        <ele>62</ele>
        <time>2020-10-17T10:20:28.000Z</time>
      </trkpt>
      <trkpt lat="43.62383" lon="3.84149">
        <ele>62</ele>
        <time>2020-10-17T10:20:29.000Z</time>
      </trkpt>
      <trkpt lat="43.62385" lon="3.84153">
        <ele>62</ele>
        <time>2020-10-17T10:20:30.000Z</time>
      </trkpt>
      <trkpt lat="43.62385" lon="3.84159">
        <ele>62</ele>
        <time>2020-10-17T10:20:31.000Z</time>
      </trkpt>
      <trkpt lat="43.62385" lon="3.84165">
        <ele>62.05500032</ele>
        <time>2020-10-17T10:20:32.000Z</time>
      </trkpt>
      <trkpt lat="43.62386" lon="3.84172">
        <ele>62.15500032</ele>
        <time>2020-10-17T10:20:33.000Z</time>
      </trkpt>
      <trkpt lat="43.62387" lon="3.84178">
        <ele>62.25500032</ele>
        <time>2020-10-17T10:20:34.000Z</time>
      </trkpt>
      <trkpt lat="43.62388" lon="3.84185">
        <ele>62.35500032</ele>
        <time>2020-10-17T10:20:35.000Z</time>
      </trkpt>
      <trkpt lat="43.62389" lon="3.84191">
        <ele>62.45500032</ele>
        <time>2020-10-17T10:20:36.000Z</time>
      </trkpt>
      <trkpt lat="43.6239" lon="3.84196">
        <ele>62.55500032</ele>
        <time>2020-10-17T10:20:37.000Z</time>
      </trkpt>
      <trkpt lat="43.62391" lon="3.84202">
        <ele>62.65500032</ele>
        <time>2020-10-17T10:20:38.000Z</time>
      </trkpt>
      <trkpt lat="43.62392" lon="3.84207">
        <ele>62.75500032</ele>
        <time>2020-10-17T10:20:39.000Z</time>
      </trkpt>
      <trkpt lat="43.62394" lon="3.84213">
        <ele>62.85500032</ele>
        <time>2020-10-17T10:20:40.000Z</time>
      </trkpt>
      <trkpt lat="43.62395" lon="3.84217">
        <ele>62.95500032</ele>
        <time>2020-10-17T10:20:41.000Z</time>
      </trkpt>
      <trkpt lat="43.62395" lon="3.84221">
        <ele>62.94499968</ele>
        <time>2020-10-17T10:20:42.000Z</time>
      </trkpt>
      <trkpt lat="43.62394" lon="3.84224">
        <ele>62.84499968</ele>
        <time>2020-10-17T10:20:43.000Z</time>
      </trkpt>
      <trkpt lat="43.62392" lon="3.84227">
        <ele>62.74499968</ele>
        <time>2020-10-17T10:20:44.000Z</time>
      </trkpt>
      <trkpt lat="43.62389" lon="3.84228">
        <ele>62.64499968</ele>
        <time>2020-10-17T10:20:45.000Z</time>
      </trkpt>
      <trkpt lat="43.62388" lon="3.84232">
        <ele>62.44499968</ele>
        <time>2020-10-17T10:20:47.000Z</time>
      </trkpt>
      <trkpt lat="43.62389" lon="3.84238">
        <ele>62.34499968</ele>
        <time>2020-10-17T10:20:48.000Z</time>
      </trkpt>
      <trkpt lat="43.62389" lon="3.84247">
        <ele>62.24499968</ele>
        <time>2020-10-17T10:20:49.000Z</time>
      </trkpt>
      <trkpt lat="43.62388" lon="3.84254">
        <ele>62.14499968</ele>
        <time>2020-10-17T10:20:50.000Z</time>
      </trkpt>
      <trkpt lat="43.62388" lon="3.8426">
        <ele>62.04499968</ele>
        <time>2020-10-17T10:20:51.000Z</time>
      </trkpt>
      <trkpt lat="43.62389" lon="3.84266">
        <ele>62</ele>
        <time>2020-10-17T10:20:52.000Z</time>
      </trkpt>
      <trkpt lat="43.62388" lon="3.84272">
        <ele>62</ele>
        <time>2020-10-17T10:20:53.000Z</time>
      </trkpt>
      <trkpt lat="43.62386" lon="3.84277">
        <ele>62</ele>
        <time>2020-10-17T10:20:54.000Z</time>
      </trkpt>
      <trkpt lat="43.62383" lon="3.84281">
        <ele>62</ele>
        <time>2020-10-17T10:20:55.000Z</time>
      </trkpt>
      <trkpt lat="43.6238" lon="3.84285">
        <ele>62</ele>
        <time>2020-10-17T10:20:56.000Z</time>
      </trkpt>
      <trkpt lat="43.62377" lon="3.84289">
        <ele>62</ele>
        <time>2020-10-17T10:20:57.000Z</time>
      </trkpt>
      <trkpt lat="43.62374" lon="3.84293">
        <ele>62</ele>
        <time>2020-10-17T10:20:58.000Z</time>
      </trkpt>
      <trkpt lat="43.62372" lon="3.84299">
        <ele>62</ele>
        <time>2020-10-17T10:20:59.000Z</time>
      </trkpt>
      <trkpt lat="43.62369" lon="3.84304">
        <ele>62</ele>
        <time>2020-10-17T10:21:00.000Z</time>
      </trkpt>
      <trkpt lat="43.62367" lon="3.8431">
        <ele>62</ele>
        <time>2020-10-17T10:21:01.000Z</time>
      </trkpt>
      <trkpt lat="43.62365" lon="3.84317">
        <ele>61.94800128</ele>
        <time>2020-10-17T10:21:02.000Z</time>
      </trkpt>
      <trkpt lat="43.62362" lon="3.84323">
        <ele>61.74800128</ele>
        <time>2020-10-17T10:21:03.000Z</time>
      </trkpt>
      <trkpt lat="43.6236" lon="3.84329">
        <ele>61.54800128</ele>
        <time>2020-10-17T10:21:04.000Z</time>
      </trkpt>
      <trkpt lat="43.62359" lon="3.84335">
        <ele>61.34800128</ele>
        <time>2020-10-17T10:21:05.000Z</time>
      </trkpt>
      <trkpt lat="43.62359" lon="3.84341">
        <ele>61.14800128</ele>
        <time>2020-10-17T10:21:06.000Z</time>
      </trkpt>
      <trkpt lat="43.62358" lon="3.84348">
        <ele>60.94800128</ele>
        <time>2020-10-17T10:21:07.000Z</time>
      </trkpt>
      <trkpt lat="43.62357" lon="3.84355">
        <ele>60.74800128</ele>
        <time>2020-10-17T10:21:08.000Z</time>
      </trkpt>
      <trkpt lat="43.62356" lon="3.84361">
        <ele>60.54800128</ele>
        <time>2020-10-17T10:21:09.000Z</time>
      </trkpt>
      <trkpt lat="43.62353" lon="3.84368">
        <ele>60.34800128</ele>
        <time>2020-10-17T10:21:10.000Z</time>
      </trkpt>
      <trkpt lat="43.6235" lon="3.84374">
        <ele>60.14800128</ele>
        <time>2020-10-17T10:21:11.000Z</time>
      </trkpt>
      <trkpt lat="43.62346" lon="3.84379">
        <ele>59.946448227179</ele>
        <time>2020-10-17T10:21:12.000Z</time>
      </trkpt>
      <trkpt lat="43.62342" lon="3.84385">
        <ele>59.740474800057</ele>
        <time>2020-10-17T10:21:13.000Z</time>
      </trkpt>
      <trkpt lat="43.62338" lon="3.84391">
        <ele>59.534501372936</ele>
        <time>2020-10-17T10:21:14.000Z</time>
      </trkpt>
      <trkpt lat="43.62333" lon="3.84397">
        <ele>59.328527945816</ele>
        <time>2020-10-17T10:21:15.000Z</time>
      </trkpt>
      <trkpt lat="43.62329" lon="3.84403">
        <ele>59.122554518694</ele>
        <time>2020-10-17T10:21:16.000Z</time>
      </trkpt>
      <trkpt lat="43.62324" lon="3.8441">
        <ele>58.916581091573</ele>
        <time>2020-10-17T10:21:17.000Z</time>
      </trkpt>
      <trkpt lat="43.6232" lon="3.84417">
        <ele>58.710607664453</ele>
        <time>2020-10-17T10:21:18.000Z</time>
      </trkpt>
      <trkpt lat="43.62316" lon="3.84424">
        <ele>58.504634237332</ele>
        <time>2020-10-17T10:21:19.000Z</time>
      </trkpt>
      <trkpt lat="43.62312" lon="3.8443">
        <ele>58.29866081021</ele>
        <time>2020-10-17T10:21:20.000Z</time>
      </trkpt>
      <trkpt lat="43.62308" lon="3.84437">
        <ele>58.092687383089</ele>
        <time>2020-10-17T10:21:21.000Z</time>
      </trkpt>
      <trkpt lat="43.62304" lon="3.84443">
        <ele>57.94499968</ele>
        <time>2020-10-17T10:21:22.000Z</time>
      </trkpt>
      <trkpt lat="43.623" lon="3.84449">
        <ele>57.84499968</ele>
        <time>2020-10-17T10:21:23.000Z</time>
      </trkpt>
      <trkpt lat="43.62296" lon="3.84455">
        <ele>57.74499968</ele>
        <time>2020-10-17T10:21:24.000Z</time>
      </trkpt>
      <trkpt lat="43.62293" lon="3.84461">
        <ele>57.64499968</ele>
        <time>2020-10-17T10:21:25.000Z</time>
      </trkpt>
      <trkpt lat="43.62289" lon="3.84467">
        <ele>57.54499968</ele>
        <time>2020-10-17T10:21:26.000Z</time>
      </trkpt>
      <trkpt lat="43.62286" lon="3.84472">
        <ele>57.44499968</ele>
        <time>2020-10-17T10:21:27.000Z</time>
      </trkpt>
      <trkpt lat="43.62282" lon="3.84478">
        <ele>57.34499968</ele>
        <time>2020-10-17T10:21:28.000Z</time>
      </trkpt>
      <trkpt lat="43.62279" lon="3.84483">
        <ele>57.24499968</ele>
        <time>2020-10-17T10:21:29.000Z</time>
      </trkpt>
      <trkpt lat="43.62276" lon="3.84488">
        <ele>57.14499968</ele>
        <time>2020-10-17T10:21:30.000Z</time>
      </trkpt>
      <trkpt lat="43.62272" lon="3.84493">
        <ele>57.04499968</ele>
        <time>2020-10-17T10:21:31.000Z</time>
      </trkpt>
      <trkpt lat="43.62269" lon="3.84498">
        <ele>56.94499968</ele>
        <time>2020-10-17T10:21:32.000Z</time>
      </trkpt>
      <trkpt lat="43.62266" lon="3.84502">
        <ele>56.84499968</ele>
        <time>2020-10-17T10:21:33.000Z</time>
      </trkpt>
      <trkpt lat="43.62262" lon="3.84507">
        <ele>56.74499968</ele>
        <time>2020-10-17T10:21:34.000Z</time>
      </trkpt>
      <trkpt lat="43.62259" lon="3.84511">
        <ele>56.64499968</ele>
        <time>2020-10-17T10:21:35.000Z</time>
      </trkpt>
      <trkpt lat="43.62256" lon="3.84516">
        <ele>56.54499968</ele>
        <time>2020-10-17T10:21:36.000Z</time>
      </trkpt>
      <trkpt lat="43.62253" lon="3.8452">
        <ele>56.44499968</ele>
        <time>2020-10-17T10:21:37.000Z</time>
      </trkpt>
      <trkpt lat="43.62251" lon="3.84524">
        <ele>56.34499968</ele>
        <time>2020-10-17T10:21:38.000Z</time>
      </trkpt>
      <trkpt lat="43.62248" lon="3.84529">
        <ele>56.24499968</ele>
        <time>2020-10-17T10:21:39.000Z</time>
      </trkpt>
      <trkpt lat="43.62245" lon="3.84534">
        <ele>56.14499968</ele>
        <time>2020-10-17T10:21:40.000Z</time>
      </trkpt>
      <trkpt lat="43.62242" lon="3.8454">
        <ele>56.04499968</ele>
        <time>2020-10-17T10:21:41.000Z</time>
      </trkpt>
      <trkpt lat="43.62238" lon="3.84545">
        <ele>55.88999936</ele>
        <time>2020-10-17T10:21:42.000Z</time>
      </trkpt>
      <trkpt lat="43.62235" lon="3.84551">
        <ele>55.68999936</ele>
        <time>2020-10-17T10:21:43.000Z</time>
      </trkpt>
      <trkpt lat="43.62231" lon="3.84556">
        <ele>55.48999936</ele>
        <time>2020-10-17T10:21:44.000Z</time>
      </trkpt>
      <trkpt lat="43.62228" lon="3.84562">
        <ele>55.28999936</ele>
        <time>2020-10-17T10:21:45.000Z</time>
      </trkpt>
      <trkpt lat="43.62224" lon="3.84568">
        <ele>55.08999936</ele>
        <time>2020-10-17T10:21:46.000Z</time>
      </trkpt>
      <trkpt lat="43.62221" lon="3.84574">
        <ele>54.88999936</ele>
        <time>2020-10-17T10:21:47.000Z</time>
      </trkpt>
      <trkpt lat="43.62217" lon="3.8458">
        <ele>54.68999936</ele>
        <time>2020-10-17T10:21:48.000Z</time>
      </trkpt>
      <trkpt lat="43.62214" lon="3.84587">
        <ele>54.48999936</ele>
        <time>2020-10-17T10:21:49.000Z</time>
      </trkpt>
      <trkpt lat="43.62211" lon="3.84594">
        <ele>54.28999936</ele>
        <time>2020-10-17T10:21:50.000Z</time>
      </trkpt>
      <trkpt lat="43.62208" lon="3.84602">
        <ele>54.08999936</ele>
        <time>2020-10-17T10:21:51.000Z</time>
      </trkpt>
      <trkpt lat="43.62205" lon="3.8461">
        <ele>53.83499904</ele>
        <time>2020-10-17T10:21:52.000Z</time>
      </trkpt>
      <trkpt lat="43.62203" lon="3.84618">
        <ele>53.53499904</ele>
        <time>2020-10-17T10:21:53.000Z</time>
      </trkpt>
      <trkpt lat="43.622" lon="3.84627">
        <ele>53.23499904</ele>
        <time>2020-10-17T10:21:54.000Z</time>
      </trkpt>
      <trkpt lat="43.62198" lon="3.84636">
        <ele>52.93499904</ele>
        <time>2020-10-17T10:21:55.000Z</time>
      </trkpt>
      <trkpt lat="43.62195" lon="3.84644">
        <ele>52.63499904</ele>
        <time>2020-10-17T10:21:56.000Z</time>
      </trkpt>
      <trkpt lat="43.62193" lon="3.84653">
        <ele>52.33499904</ele>
        <time>2020-10-17T10:21:57.000Z</time>
      </trkpt>
      <trkpt lat="43.62191" lon="3.84662">
        <ele>52.03499904</ele>
        <time>2020-10-17T10:21:58.000Z</time>
      </trkpt>
      <trkpt lat="43.62188" lon="3.84672">
        <ele>51.73499904</ele>
        <time>2020-10-17T10:21:59.000Z</time>
      </trkpt>
      <trkpt lat="43.62186" lon="3.84681">
        <ele>51.43499904</ele>
        <time>2020-10-17T10:22:00.000Z</time>
      </trkpt>
      <trkpt lat="43.62183" lon="3.8469">
        <ele>51.13499904</ele>
        <time>2020-10-17T10:22:01.000Z</time>
      </trkpt>
      <trkpt lat="43.62181" lon="3.84699">
        <ele>50.88999936</ele>
        <time>2020-10-17T10:22:02.000Z</time>
      </trkpt>
      <trkpt lat="43.62178" lon="3.84708">
        <ele>50.68999936</ele>
        <time>2020-10-17T10:22:03.000Z</time>
      </trkpt>
      <trkpt lat="43.62176" lon="3.84717">
        <ele>50.48999936</ele>
        <time>2020-10-17T10:22:04.000Z</time>
      </trkpt>
      <trkpt lat="43.62174" lon="3.84726">
        <ele>50.28999936</ele>
        <time>2020-10-17T10:22:05.000Z</time>
      </trkpt>
      <trkpt lat="43.62172" lon="3.84735">
        <ele>50.08999936</ele>
        <time>2020-10-17T10:22:06.000Z</time>
      </trkpt>
      <trkpt lat="43.62169" lon="3.84744">
        <ele>49.88999936</ele>
        <time>2020-10-17T10:22:07.000Z</time>
      </trkpt>
      <trkpt lat="43.62165" lon="3.84753">
        <ele>49.68999936</ele>
        <time>2020-10-17T10:22:08.000Z</time>
      </trkpt>
      <trkpt lat="43.62162" lon="3.84761">
        <ele>49.48999936</ele>
        <time>2020-10-17T10:22:09.000Z</time>
      </trkpt>
      <trkpt lat="43.62158" lon="3.8477">
        <ele>49.28999936</ele>
        <time>2020-10-17T10:22:10.000Z</time>
      </trkpt>
      <trkpt lat="43.62154" lon="3.84778">
        <ele>49.08999936</ele>
        <time>2020-10-17T10:22:11.000Z</time>
      </trkpt>
      <trkpt lat="43.6215" lon="3.84786">
        <ele>49</ele>
        <time>2020-10-17T10:22:12.000Z</time>
      </trkpt>
      <trkpt lat="43.62147" lon="3.84794">
        <ele>49</ele>
        <time>2020-10-17T10:22:13.000Z</time>
      </trkpt>
      <trkpt lat="43.62143" lon="3.84801">
        <ele>49</ele>
        <time>2020-10-17T10:22:14.000Z</time>
      </trkpt>
      <trkpt lat="43.62139" lon="3.84809">
        <ele>49</ele>
        <time>2020-10-17T10:22:15.000Z</time>
      </trkpt>
      <trkpt lat="43.62135" lon="3.84815">
        <ele>49</ele>
        <time>2020-10-17T10:22:16.000Z</time>
      </trkpt>
      <trkpt lat="43.62132" lon="3.84822">
        <ele>49</ele>
        <time>2020-10-17T10:22:17.000Z</time>
      </trkpt>
      <trkpt lat="43.62128" lon="3.8483">
        <ele>49</ele>
        <time>2020-10-17T10:22:18.000Z</time>
      </trkpt>
      <trkpt lat="43.62124" lon="3.84837">
        <ele>49</ele>
        <time>2020-10-17T10:22:19.000Z</time>
      </trkpt>
      <trkpt lat="43.62121" lon="3.84844">
        <ele>49</ele>
        <time>2020-10-17T10:22:20.000Z</time>
      </trkpt>
      <trkpt lat="43.62117" lon="3.84851">
        <ele>49</ele>
        <time>2020-10-17T10:22:21.000Z</time>
      </trkpt>
      <trkpt lat="43.62113" lon="3.84858">
        <ele>49</ele>
        <time>2020-10-17T10:22:22.000Z</time>
      </trkpt>
      <trkpt lat="43.62109" lon="3.84865">
        <ele>49</ele>
        <time>2020-10-17T10:22:23.000Z</time>
      </trkpt>
      <trkpt lat="43.62105" lon="3.84872">
        <ele>49</ele>
        <time>2020-10-17T10:22:24.000Z</time>
      </trkpt>
      <trkpt lat="43.62101" lon="3.84879">
        <ele>49</ele>
        <time>2020-10-17T10:22:25.000Z</time>
      </trkpt>
      <trkpt lat="43.62097" lon="3.84885">
        <ele>49</ele>
        <time>2020-10-17T10:22:26.000Z</time>
      </trkpt>
      <trkpt lat="43.62094" lon="3.84892">
        <ele>49</ele>
        <time>2020-10-17T10:22:27.000Z</time>
      </trkpt>
      <trkpt lat="43.6209" lon="3.84899">
        <ele>49</ele>
        <time>2020-10-17T10:22:28.000Z</time>
      </trkpt>
      <trkpt lat="43.62086" lon="3.84905">
        <ele>49</ele>
        <time>2020-10-17T10:22:29.000Z</time>
      </trkpt>
      <trkpt lat="43.62082" lon="3.84912">
        <ele>49</ele>
        <time>2020-10-17T10:22:30.000Z</time>
      </trkpt>
      <trkpt lat="43.62078" lon="3.84918">
        <ele>49</ele>
        <time>2020-10-17T10:22:31.000Z</time>
      </trkpt>
      <trkpt lat="43.62075" lon="3.84925">
        <ele>49.054781195219</ele>
        <time>2020-10-17T10:22:32.000Z</time>
      </trkpt>
      <trkpt lat="43.62071" lon="3.84932">
        <ele>49.154382788845</ele>
        <time>2020-10-17T10:22:33.000Z</time>
      </trkpt>
      <trkpt lat="43.62067" lon="3.84939">
        <ele>49.25398438247</ele>
        <time>2020-10-17T10:22:34.000Z</time>
      </trkpt>
      <trkpt lat="43.62064" lon="3.84945">
        <ele>49.353585976096</ele>
        <time>2020-10-17T10:22:35.000Z</time>
      </trkpt>
      <trkpt lat="43.6206" lon="3.84952">
        <ele>49.453187569721</ele>
        <time>2020-10-17T10:22:36.000Z</time>
      </trkpt>
      <trkpt lat="43.62056" lon="3.84959">
        <ele>49.552789163347</ele>
        <time>2020-10-17T10:22:37.000Z</time>
      </trkpt>
      <trkpt lat="43.62052" lon="3.84965">
        <ele>49.652390756972</ele>
        <time>2020-10-17T10:22:38.000Z</time>
      </trkpt>
      <trkpt lat="43.62049" lon="3.84972">
        <ele>49.751992350598</ele>
        <time>2020-10-17T10:22:39.000Z</time>
      </trkpt>
      <trkpt lat="43.62045" lon="3.84979">
        <ele>49.851593944223</ele>
        <time>2020-10-17T10:22:40.000Z</time>
      </trkpt>
      <trkpt lat="43.62042" lon="3.84985">
        <ele>49.951195537849</ele>
        <time>2020-10-17T10:22:41.000Z</time>
      </trkpt>
      <trkpt lat="43.62038" lon="3.84991">
        <ele>50</ele>
        <time>2020-10-17T10:22:42.000Z</time>
      </trkpt>
      <trkpt lat="43.62035" lon="3.84997">
        <ele>50</ele>
        <time>2020-10-17T10:22:43.000Z</time>
      </trkpt>
      <trkpt lat="43.62031" lon="3.85002">
        <ele>50</ele>
        <time>2020-10-17T10:22:44.000Z</time>
      </trkpt>
      <trkpt lat="43.62028" lon="3.85007">
        <ele>50</ele>
        <time>2020-10-17T10:22:45.000Z</time>
      </trkpt>
      <trkpt lat="43.62025" lon="3.85011">
        <ele>50</ele>
        <time>2020-10-17T10:22:46.000Z</time>
      </trkpt>
      <trkpt lat="43.62023" lon="3.85016">
        <ele>50</ele>
        <time>2020-10-17T10:22:47.000Z</time>
      </trkpt>
      <trkpt lat="43.6202" lon="3.8502">
        <ele>50</ele>
        <time>2020-10-17T10:22:48.000Z</time>
      </trkpt>
      <trkpt lat="43.62017" lon="3.85025">
        <ele>50</ele>
        <time>2020-10-17T10:22:49.000Z</time>
      </trkpt>
      <trkpt lat="43.62015" lon="3.85029">
        <ele>50</ele>
        <time>2020-10-17T10:22:50.000Z</time>
      </trkpt>
      <trkpt lat="43.62011" lon="3.85034">
        <ele>50</ele>
        <time>2020-10-17T10:22:51.000Z</time>
      </trkpt>
      <trkpt lat="43.62007" lon="3.85039">
        <ele>49.94499968</ele>
        <time>2020-10-17T10:22:52.000Z</time>
      </trkpt>
      <trkpt lat="43.62004" lon="3.85045">
        <ele>49.84499968</ele>
        <time>2020-10-17T10:22:53.000Z</time>
      </trkpt>
      <trkpt lat="43.62001" lon="3.85051">
        <ele>49.74499968</ele>
        <time>2020-10-17T10:22:54.000Z</time>
      </trkpt>
      <trkpt lat="43.61999" lon="3.85057">
        <ele>49.64499968</ele>
        <time>2020-10-17T10:22:55.000Z</time>
      </trkpt>
      <trkpt lat="43.61998" lon="3.85064">
        <ele>49.54499968</ele>
        <time>2020-10-17T10:22:56.000Z</time>
      </trkpt>
      <trkpt lat="43.61998" lon="3.85072">
        <ele>49.44499968</ele>
        <time>2020-10-17T10:22:57.000Z</time>
      </trkpt>
      <trkpt lat="43.61998" lon="3.85079">
        <ele>49.34499968</ele>
        <time>2020-10-17T10:22:58.000Z</time>
      </trkpt>
      <trkpt lat="43.61998" lon="3.85087">
        <ele>49.24499968</ele>
        <time>2020-10-17T10:22:59.000Z</time>
      </trkpt>
      <trkpt lat="43.61999" lon="3.85096">
        <ele>49.14499968</ele>
        <time>2020-10-17T10:23:00.000Z</time>
      </trkpt>
      <trkpt lat="43.61997" lon="3.85103">
        <ele>49.04499968</ele>
        <time>2020-10-17T10:23:01.000Z</time>
      </trkpt>
      <trkpt lat="43.61995" lon="3.8511">
        <ele>49.05500032</ele>
        <time>2020-10-17T10:23:02.000Z</time>
      </trkpt>
      <trkpt lat="43.6199" lon="3.85115">
        <ele>49.15500032</ele>
        <time>2020-10-17T10:23:03.000Z</time>
      </trkpt>
      <trkpt lat="43.61986" lon="3.8512">
        <ele>49.25500032</ele>
        <time>2020-10-17T10:23:04.000Z</time>
      </trkpt>
      <trkpt lat="43.61981" lon="3.85125">
        <ele>49.35500032</ele>
        <time>2020-10-17T10:23:05.000Z</time>
      </trkpt>
      <trkpt lat="43.61977" lon="3.85131">
        <ele>49.45500032</ele>
        <time>2020-10-17T10:23:06.000Z</time>
      </trkpt>
      <trkpt lat="43.61972" lon="3.85136">
        <ele>49.55500032</ele>
        <time>2020-10-17T10:23:07.000Z</time>
      </trkpt>
      <trkpt lat="43.61968" lon="3.85142">
        <ele>49.65500032</ele>
        <time>2020-10-17T10:23:08.000Z</time>
      </trkpt>
      <trkpt lat="43.61963" lon="3.85147">
        <ele>49.75500032</ele>
        <time>2020-10-17T10:23:09.000Z</time>
      </trkpt>
      <trkpt lat="43.61958" lon="3.85152">
        <ele>49.85500032</ele>
        <time>2020-10-17T10:23:10.000Z</time>
      </trkpt>
      <trkpt lat="43.61953" lon="3.85157">
        <ele>49.95500032</ele>
        <time>2020-10-17T10:23:11.000Z</time>
      </trkpt>
      <trkpt lat="43.61949" lon="3.85163">
        <ele>50</ele>
        <time>2020-10-17T10:23:12.000Z</time>
      </trkpt>
      <trkpt lat="43.61944" lon="3.85169">
        <ele>50</ele>
        <time>2020-10-17T10:23:13.000Z</time>
      </trkpt>
      <trkpt lat="43.6194" lon="3.85174">
        <ele>50</ele>
        <time>2020-10-17T10:23:14.000Z</time>
      </trkpt>
      <trkpt lat="43.61936" lon="3.8518">
        <ele>50</ele>
        <time>2020-10-17T10:23:15.000Z</time>
      </trkpt>
      <trkpt lat="43.61932" lon="3.85186">
        <ele>50</ele>
        <time>2020-10-17T10:23:16.000Z</time>
      </trkpt>
      <trkpt lat="43.61928" lon="3.85192">
        <ele>50</ele>
        <time>2020-10-17T10:23:17.000Z</time>
      </trkpt>
      <trkpt lat="43.61924" lon="3.85198">
        <ele>50</ele>
        <time>2020-10-17T10:23:18.000Z</time>
      </trkpt>
      <trkpt lat="43.6192" lon="3.85204">
        <ele>50</ele>
        <time>2020-10-17T10:23:19.000Z</time>
      </trkpt>
      <trkpt lat="43.61916" lon="3.8521">
        <ele>50</ele>
        <time>2020-10-17T10:23:20.000Z</time>
      </trkpt>
      <trkpt lat="43.61912" lon="3.85217">
        <ele>50</ele>
        <time>2020-10-17T10:23:21.000Z</time>
      </trkpt>
      <trkpt lat="43.61908" lon="3.85223">
        <ele>50</ele>
        <time>2020-10-17T10:23:22.000Z</time>
      </trkpt>
      <trkpt lat="43.61904" lon="3.85229">
        <ele>50</ele>
        <time>2020-10-17T10:23:23.000Z</time>
      </trkpt>
      <trkpt lat="43.61899" lon="3.85235">
        <ele>50</ele>
        <time>2020-10-17T10:23:24.000Z</time>
      </trkpt>
      <trkpt lat="43.61895" lon="3.85242">
        <ele>50</ele>
        <time>2020-10-17T10:23:25.000Z</time>
      </trkpt>
      <trkpt lat="43.61891" lon="3.85249">
        <ele>50</ele>
        <time>2020-10-17T10:23:26.000Z</time>
      </trkpt>
      <trkpt lat="43.61887" lon="3.85255">
        <ele>50</ele>
        <time>2020-10-17T10:23:27.000Z</time>
      </trkpt>
      <trkpt lat="43.61883" lon="3.85262">
        <ele>50</ele>
        <time>2020-10-17T10:23:28.000Z</time>
      </trkpt>
      <trkpt lat="43.61878" lon="3.85268">
        <ele>50</ele>
        <time>2020-10-17T10:23:29.000Z</time>
      </trkpt>
      <trkpt lat="43.61874" lon="3.85274">
        <ele>50</ele>
        <time>2020-10-17T10:23:30.000Z</time>
      </trkpt>
      <trkpt lat="43.6187" lon="3.85281">
        <ele>50</ele>
        <time>2020-10-17T10:23:31.000Z</time>
      </trkpt>
      <trkpt lat="43.61865" lon="3.85287">
        <ele>50.053243307878</ele>
        <time>2020-10-17T10:23:32.000Z</time>
      </trkpt>
      <trkpt lat="43.6186" lon="3.85292">
        <ele>50.15004875897</ele>
        <time>2020-10-17T10:23:33.000Z</time>
      </trkpt>
      <trkpt lat="43.61855" lon="3.85297">
        <ele>50.246854210061</ele>
        <time>2020-10-17T10:23:34.000Z</time>
      </trkpt>
      <trkpt lat="43.6185" lon="3.85302">
        <ele>50.343659661153</ele>
        <time>2020-10-17T10:23:35.000Z</time>
      </trkpt>
      <trkpt lat="43.61844" lon="3.85306">
        <ele>50.440465112245</ele>
        <time>2020-10-17T10:23:36.000Z</time>
      </trkpt>
      <trkpt lat="43.61839" lon="3.8531">
        <ele>50.537270563336</ele>
        <time>2020-10-17T10:23:37.000Z</time>
      </trkpt>
      <trkpt lat="43.61833" lon="3.85313">
        <ele>50.634076014428</ele>
        <time>2020-10-17T10:23:38.000Z</time>
      </trkpt>
      <trkpt lat="43.61828" lon="3.85317">
        <ele>50.73088146552</ele>
        <time>2020-10-17T10:23:39.000Z</time>
      </trkpt>
      <trkpt lat="43.61822" lon="3.8532">
        <ele>50.827686916612</ele>
        <time>2020-10-17T10:23:40.000Z</time>
      </trkpt>
      <trkpt lat="43.61817" lon="3.85324">
        <ele>50.924492367703</ele>
        <time>2020-10-17T10:23:41.000Z</time>
      </trkpt>
      <trkpt lat="43.61811" lon="3.85327">
        <ele>51</ele>
        <time>2020-10-17T10:23:42.000Z</time>
      </trkpt>
      <trkpt lat="43.61806" lon="3.85331">
        <ele>51</ele>
        <time>2020-10-17T10:23:43.000Z</time>
      </trkpt>
      <trkpt lat="43.618" lon="3.85334">
        <ele>51</ele>
        <time>2020-10-17T10:23:44.000Z</time>
      </trkpt>
      <trkpt lat="43.61795" lon="3.85337">
        <ele>51</ele>
        <time>2020-10-17T10:23:45.000Z</time>
      </trkpt>
      <trkpt lat="43.6179" lon="3.85341">
        <ele>51</ele>
        <time>2020-10-17T10:23:46.000Z</time>
      </trkpt>
      <trkpt lat="43.61784" lon="3.85344">
        <ele>51</ele>
        <time>2020-10-17T10:23:47.000Z</time>
      </trkpt>
      <trkpt lat="43.61779" lon="3.85347">
        <ele>51</ele>
        <time>2020-10-17T10:23:48.000Z</time>
      </trkpt>
      <trkpt lat="43.61775" lon="3.8535">
        <ele>51</ele>
        <time>2020-10-17T10:23:49.000Z</time>
      </trkpt>
      <trkpt lat="43.6177" lon="3.85354">
        <ele>51</ele>
        <time>2020-10-17T10:23:50.000Z</time>
      </trkpt>
      <trkpt lat="43.61766" lon="3.85359">
        <ele>51</ele>
        <time>2020-10-17T10:23:51.000Z</time>
      </trkpt>
      <trkpt lat="43.61762" lon="3.85365">
        <ele>51</ele>
        <time>2020-10-17T10:23:52.000Z</time>
      </trkpt>
      <trkpt lat="43.61759" lon="3.85372">
        <ele>51</ele>
        <time>2020-10-17T10:23:53.000Z</time>
      </trkpt>
      <trkpt lat="43.61756" lon="3.85378">
        <ele>51</ele>
        <time>2020-10-17T10:23:54.000Z</time>
      </trkpt>
      <trkpt lat="43.61752" lon="3.85385">
        <ele>51</ele>
        <time>2020-10-17T10:23:55.000Z</time>
      </trkpt>
      <trkpt lat="43.61749" lon="3.85391">
        <ele>51</ele>
        <time>2020-10-17T10:23:56.000Z</time>
      </trkpt>
      <trkpt lat="43.61745" lon="3.85397">
        <ele>51</ele>
        <time>2020-10-17T10:23:57.000Z</time>
      </trkpt>
      <trkpt lat="43.61742" lon="3.85404">
        <ele>51</ele>
        <time>2020-10-17T10:23:58.000Z</time>
      </trkpt>
      <trkpt lat="43.61737" lon="3.8541">
        <ele>51</ele>
        <time>2020-10-17T10:23:59.000Z</time>
      </trkpt>
      <trkpt lat="43.61733" lon="3.85416">
        <ele>51</ele>
        <time>2020-10-17T10:24:00.000Z</time>
      </trkpt>
      <trkpt lat="43.61728" lon="3.85422">
        <ele>51</ele>
        <time>2020-10-17T10:24:01.000Z</time>
      </trkpt>
      <trkpt lat="43.61724" lon="3.85428">
        <ele>51</ele>
        <time>2020-10-17T10:24:02.000Z</time>
      </trkpt>
      <trkpt lat="43.61719" lon="3.85433">
        <ele>51</ele>
        <time>2020-10-17T10:24:03.000Z</time>
      </trkpt>
      <trkpt lat="43.61714" lon="3.85439">
        <ele>51</ele>
        <time>2020-10-17T10:24:04.000Z</time>
      </trkpt>
      <trkpt lat="43.61709" lon="3.85445">
        <ele>51</ele>
        <time>2020-10-17T10:24:05.000Z</time>
      </trkpt>
      <trkpt lat="43.61705" lon="3.8545">
        <ele>51</ele>
        <time>2020-10-17T10:24:06.000Z</time>
      </trkpt>
      <trkpt lat="43.617" lon="3.85456">
        <ele>51</ele>
        <time>2020-10-17T10:24:07.000Z</time>
      </trkpt>
      <trkpt lat="43.61695" lon="3.85461">
        <ele>51</ele>
        <time>2020-10-17T10:24:08.000Z</time>
      </trkpt>
      <trkpt lat="43.6169" lon="3.85466">
        <ele>51</ele>
        <time>2020-10-17T10:24:09.000Z</time>
      </trkpt>
      <trkpt lat="43.61685" lon="3.85472">
        <ele>51</ele>
        <time>2020-10-17T10:24:10.000Z</time>
      </trkpt>
      <trkpt lat="43.61681" lon="3.85478">
        <ele>51</ele>
        <time>2020-10-17T10:24:11.000Z</time>
      </trkpt>
      <trkpt lat="43.61676" lon="3.85483">
        <ele>51.05500032</ele>
        <time>2020-10-17T10:24:12.000Z</time>
      </trkpt>
      <trkpt lat="43.61671" lon="3.85489">
        <ele>51.15500032</ele>
        <time>2020-10-17T10:24:13.000Z</time>
      </trkpt>
      <trkpt lat="43.61666" lon="3.85495">
        <ele>51.25500032</ele>
        <time>2020-10-17T10:24:14.000Z</time>
      </trkpt>
      <trkpt lat="43.61661" lon="3.85501">
        <ele>51.35500032</ele>
        <time>2020-10-17T10:24:15.000Z</time>
      </trkpt>
      <trkpt lat="43.61655" lon="3.85508">
        <ele>51.45500032</ele>
        <time>2020-10-17T10:24:16.000Z</time>
      </trkpt>
      <trkpt lat="43.6165" lon="3.85514">
        <ele>51.55500032</ele>
        <time>2020-10-17T10:24:17.000Z</time>
      </trkpt>
      <trkpt lat="43.61645" lon="3.8552">
        <ele>51.65500032</ele>
        <time>2020-10-17T10:24:18.000Z</time>
      </trkpt>
      <trkpt lat="43.6164" lon="3.85526">
        <ele>51.75500032</ele>
        <time>2020-10-17T10:24:19.000Z</time>
      </trkpt>
      <trkpt lat="43.61634" lon="3.85532">
        <ele>51.85500032</ele>
        <time>2020-10-17T10:24:20.000Z</time>
      </trkpt>
      <trkpt lat="43.61629" lon="3.85538">
        <ele>51.95500032</ele>
        <time>2020-10-17T10:24:21.000Z</time>
      </trkpt>
      <trkpt lat="43.61624" lon="3.85544">
        <ele>51.794774925373</ele>
        <time>2020-10-17T10:24:22.000Z</time>
      </trkpt>
      <trkpt lat="43.61619" lon="3.85551">
        <ele>51.421640597015</ele>
        <time>2020-10-17T10:24:23.000Z</time>
      </trkpt>
      <trkpt lat="43.61614" lon="3.85557">
        <ele>51.048506268657</ele>
        <time>2020-10-17T10:24:24.000Z</time>
      </trkpt>
      <trkpt lat="43.61608" lon="3.85563">
        <ele>51.228948210526</ele>
        <time>2020-10-17T10:24:25.000Z</time>
      </trkpt>
      <trkpt lat="43.61603" lon="3.85569">
        <ele>51.492106105263</ele>
        <time>2020-10-17T10:24:26.000Z</time>
      </trkpt>
      <trkpt lat="43.61598" lon="3.85576">
        <ele>51.755264</ele>
        <time>2020-10-17T10:24:27.000Z</time>
      </trkpt>
      <trkpt lat="43.61593" lon="3.85582">
        <ele>52.018421894737</ele>
        <time>2020-10-17T10:24:28.000Z</time>
      </trkpt>
      <trkpt lat="43.61588" lon="3.85588">
        <ele>52.281579789474</ele>
        <time>2020-10-17T10:24:29.000Z</time>
      </trkpt>
      <trkpt lat="43.61583" lon="3.85595">
        <ele>52.544737684211</ele>
        <time>2020-10-17T10:24:30.000Z</time>
      </trkpt>
      <trkpt lat="43.61579" lon="3.856">
        <ele>52.807895578947</ele>
        <time>2020-10-17T10:24:31.000Z</time>
      </trkpt>
      <trkpt lat="43.61575" lon="3.85604">
        <ele>53.053892819869</ele>
        <time>2020-10-17T10:24:32.000Z</time>
      </trkpt>
      <trkpt lat="43.61572" lon="3.85606">
        <ele>53.253493490783</ele>
        <time>2020-10-17T10:24:33.000Z</time>
      </trkpt>
      <trkpt lat="43.6157" lon="3.85609">
        <ele>53.453094161696</ele>
        <time>2020-10-17T10:24:34.000Z</time>
      </trkpt>
      <trkpt lat="43.61568" lon="3.85611">
        <ele>53.852295503524</ele>
        <time>2020-10-17T10:24:36.000Z</time>
      </trkpt>
      <trkpt lat="43.61565" lon="3.85612">
        <ele>55.068963718511</ele>
        <time>2020-10-17T10:24:43.000Z</time>
      </trkpt>
      <trkpt lat="43.61563" lon="3.85616">
        <ele>55.69592485294</ele>
        <time>2020-10-17T10:24:45.000Z</time>
      </trkpt>
      <trkpt lat="43.61561" lon="3.85618">
        <ele>55.99788874126</ele>
        <time>2020-10-17T10:24:46.000Z</time>
      </trkpt>
      <trkpt lat="43.61558" lon="3.85622">
        <ele>55.892292013306</ele>
        <time>2020-10-17T10:24:47.000Z</time>
      </trkpt>
      <trkpt lat="43.61555" lon="3.85626">
        <ele>55.786695285351</ele>
        <time>2020-10-17T10:24:48.000Z</time>
      </trkpt>
      <trkpt lat="43.61552" lon="3.85631">
        <ele>55.681098557397</ele>
        <time>2020-10-17T10:24:49.000Z</time>
      </trkpt>
      <trkpt lat="43.61549" lon="3.85635">
        <ele>55.575501829442</ele>
        <time>2020-10-17T10:24:50.000Z</time>
      </trkpt>
      <trkpt lat="43.61546" lon="3.85639">
        <ele>55.469905101488</ele>
        <time>2020-10-17T10:24:51.000Z</time>
      </trkpt>
      <trkpt lat="43.61543" lon="3.85644">
        <ele>55.364308373533</ele>
        <time>2020-10-17T10:24:52.000Z</time>
      </trkpt>
      <trkpt lat="43.61539" lon="3.85647">
        <ele>55.258711645579</ele>
        <time>2020-10-17T10:24:53.000Z</time>
      </trkpt>
      <trkpt lat="43.61535" lon="3.85653">
        <ele>55.153114917624</ele>
        <time>2020-10-17T10:24:54.000Z</time>
      </trkpt>
      <trkpt lat="43.61532" lon="3.85658">
        <ele>55.04751818967</ele>
        <time>2020-10-17T10:24:55.000Z</time>
      </trkpt>
      <trkpt lat="43.61528" lon="3.85664">
        <ele>55</ele>
        <time>2020-10-17T10:24:56.000Z</time>
      </trkpt>
      <trkpt lat="43.61523" lon="3.8567">
        <ele>55</ele>
        <time>2020-10-17T10:24:57.000Z</time>
      </trkpt>
      <trkpt lat="43.61517" lon="3.85676">
        <ele>55</ele>
        <time>2020-10-17T10:24:58.000Z</time>
      </trkpt>
      <trkpt lat="43.61512" lon="3.85682">
        <ele>55</ele>
        <time>2020-10-17T10:24:59.000Z</time>
      </trkpt>
      <trkpt lat="43.61507" lon="3.85688">
        <ele>55</ele>
        <time>2020-10-17T10:25:00.000Z</time>
      </trkpt>
      <trkpt lat="43.61501" lon="3.85694">
        <ele>55</ele>
        <time>2020-10-17T10:25:01.000Z</time>
      </trkpt>
      <trkpt lat="43.61494" lon="3.85699">
        <ele>55</ele>
        <time>2020-10-17T10:25:02.000Z</time>
      </trkpt>
      <trkpt lat="43.61488" lon="3.85704">
        <ele>55</ele>
        <time>2020-10-17T10:25:03.000Z</time>
      </trkpt>
      <trkpt lat="43.61482" lon="3.8571">
        <ele>55</ele>
        <time>2020-10-17T10:25:04.000Z</time>
      </trkpt>
      <trkpt lat="43.61477" lon="3.85716">
        <ele>55</ele>
        <time>2020-10-17T10:25:05.000Z</time>
      </trkpt>
      <trkpt lat="43.61472" lon="3.85723">
        <ele>54.973080447272</ele>
        <time>2020-10-17T10:25:06.000Z</time>
      </trkpt>
      <trkpt lat="43.61467" lon="3.85729">
        <ele>54.873379581773</ele>
        <time>2020-10-17T10:25:07.000Z</time>
      </trkpt>
      <trkpt lat="43.61461" lon="3.85736">
        <ele>54.773678716274</ele>
        <time>2020-10-17T10:25:08.000Z</time>
      </trkpt>
      <trkpt lat="43.61456" lon="3.85743">
        <ele>54.673977850775</ele>
        <time>2020-10-17T10:25:09.000Z</time>
      </trkpt>
      <trkpt lat="43.61451" lon="3.85749">
        <ele>54.574276985276</ele>
        <time>2020-10-17T10:25:10.000Z</time>
      </trkpt>
      <trkpt lat="43.61446" lon="3.85756">
        <ele>54.474576119776</ele>
        <time>2020-10-17T10:25:11.000Z</time>
      </trkpt>
      <trkpt lat="43.6144" lon="3.85763">
        <ele>54.374875254277</ele>
        <time>2020-10-17T10:25:12.000Z</time>
      </trkpt>
      <trkpt lat="43.61435" lon="3.8577">
        <ele>54.275174388778</ele>
        <time>2020-10-17T10:25:13.000Z</time>
      </trkpt>
      <trkpt lat="43.6143" lon="3.85777">
        <ele>54.175473523279</ele>
        <time>2020-10-17T10:25:14.000Z</time>
      </trkpt>
      <trkpt lat="43.61424" lon="3.85783">
        <ele>54.075772657779</ele>
        <time>2020-10-17T10:25:15.000Z</time>
      </trkpt>
      <trkpt lat="43.61419" lon="3.8579">
        <ele>53.950464379926</ele>
        <time>2020-10-17T10:25:16.000Z</time>
      </trkpt>
      <trkpt lat="43.61413" lon="3.85796">
        <ele>53.744065962953</ele>
        <time>2020-10-17T10:25:17.000Z</time>
      </trkpt>
      <trkpt lat="43.61407" lon="3.85803">
        <ele>53.537667545979</ele>
        <time>2020-10-17T10:25:18.000Z</time>
      </trkpt>
      <trkpt lat="43.61401" lon="3.85809">
        <ele>53.331269129005</ele>
        <time>2020-10-17T10:25:19.000Z</time>
      </trkpt>
      <trkpt lat="43.61396" lon="3.85816">
        <ele>53.124870712032</ele>
        <time>2020-10-17T10:25:20.000Z</time>
      </trkpt>
      <trkpt lat="43.6139" lon="3.85823">
        <ele>52.918472295058</ele>
        <time>2020-10-17T10:25:21.000Z</time>
      </trkpt>
      <trkpt lat="43.61385" lon="3.85829">
        <ele>52.712073878084</ele>
        <time>2020-10-17T10:25:22.000Z</time>
      </trkpt>
      <trkpt lat="43.61379" lon="3.85836">
        <ele>52.505675461111</ele>
        <time>2020-10-17T10:25:23.000Z</time>
      </trkpt>
      <trkpt lat="43.61373" lon="3.85842">
        <ele>52.299277044137</ele>
        <time>2020-10-17T10:25:24.000Z</time>
      </trkpt>
      <trkpt lat="43.61368" lon="3.85849">
        <ele>52.092878627163</ele>
        <time>2020-10-17T10:25:25.000Z</time>
      </trkpt>
      <trkpt lat="43.61362" lon="3.85856">
        <ele>51.946653440418</ele>
        <time>2020-10-17T10:25:26.000Z</time>
      </trkpt>
      <trkpt lat="43.61356" lon="3.85863">
        <ele>51.849660260047</ele>
        <time>2020-10-17T10:25:27.000Z</time>
      </trkpt>
      <trkpt lat="43.6135" lon="3.85869">
        <ele>51.752667079677</ele>
        <time>2020-10-17T10:25:28.000Z</time>
      </trkpt>
      <trkpt lat="43.61344" lon="3.85875">
        <ele>51.655673899306</ele>
        <time>2020-10-17T10:25:29.000Z</time>
      </trkpt>
      <trkpt lat="43.61337" lon="3.8588">
        <ele>51.558680718935</ele>
        <time>2020-10-17T10:25:30.000Z</time>
      </trkpt>
      <trkpt lat="43.61329" lon="3.85884">
        <ele>51.461687538564</ele>
        <time>2020-10-17T10:25:31.000Z</time>
      </trkpt>
      <trkpt lat="43.61322" lon="3.85888">
        <ele>51.364694358194</ele>
        <time>2020-10-17T10:25:32.000Z</time>
      </trkpt>
      <trkpt lat="43.61316" lon="3.85891">
        <ele>51.267701177823</ele>
        <time>2020-10-17T10:25:33.000Z</time>
      </trkpt>
      <trkpt lat="43.6131" lon="3.85896">
        <ele>51.170707997452</ele>
        <time>2020-10-17T10:25:34.000Z</time>
      </trkpt>
      <trkpt lat="43.61304" lon="3.85902">
        <ele>51.073714817082</ele>
        <time>2020-10-17T10:25:35.000Z</time>
      </trkpt>
      <trkpt lat="43.61299" lon="3.8591">
        <ele>51</ele>
        <time>2020-10-17T10:25:36.000Z</time>
      </trkpt>
      <trkpt lat="43.61296" lon="3.85919">
        <ele>51</ele>
        <time>2020-10-17T10:25:37.000Z</time>
      </trkpt>
      <trkpt lat="43.61292" lon="3.85929">
        <ele>51</ele>
        <time>2020-10-17T10:25:38.000Z</time>
      </trkpt>
      <trkpt lat="43.61288" lon="3.85938">
        <ele>51</ele>
        <time>2020-10-17T10:25:39.000Z</time>
      </trkpt>
      <trkpt lat="43.61284" lon="3.85947">
        <ele>51</ele>
        <time>2020-10-17T10:25:40.000Z</time>
      </trkpt>
      <trkpt lat="43.61279" lon="3.85956">
        <ele>51</ele>
        <time>2020-10-17T10:25:41.000Z</time>
      </trkpt>
      <trkpt lat="43.61274" lon="3.85964">
        <ele>51</ele>
        <time>2020-10-17T10:25:42.000Z</time>
      </trkpt>
      <trkpt lat="43.61268" lon="3.85972">
        <ele>51</ele>
        <time>2020-10-17T10:25:43.000Z</time>
      </trkpt>
      <trkpt lat="43.61263" lon="3.8598">
        <ele>51</ele>
        <time>2020-10-17T10:25:44.000Z</time>
      </trkpt>
      <trkpt lat="43.61258" lon="3.85988">
        <ele>51</ele>
        <time>2020-10-17T10:25:45.000Z</time>
      </trkpt>
      <trkpt lat="43.61254" lon="3.85996">
        <ele>50.890764046629</ele>
        <time>2020-10-17T10:25:46.000Z</time>
      </trkpt>
      <trkpt lat="43.6125" lon="3.86005">
        <ele>50.692154377865</ele>
        <time>2020-10-17T10:25:47.000Z</time>
      </trkpt>
      <trkpt lat="43.61245" lon="3.86012">
        <ele>50.493544709102</ele>
        <time>2020-10-17T10:25:48.000Z</time>
      </trkpt>
      <trkpt lat="43.61241" lon="3.86019">
        <ele>50.294935040338</ele>
        <time>2020-10-17T10:25:49.000Z</time>
      </trkpt>
      <trkpt lat="43.61238" lon="3.86028">
        <ele>50.096325371575</ele>
        <time>2020-10-17T10:25:50.000Z</time>
      </trkpt>
      <trkpt lat="43.61234" lon="3.86037">
        <ele>49.897715702811</ele>
        <time>2020-10-17T10:25:51.000Z</time>
      </trkpt>
      <trkpt lat="43.6123" lon="3.86046">
        <ele>49.699106034048</ele>
        <time>2020-10-17T10:25:52.000Z</time>
      </trkpt>
      <trkpt lat="43.61227" lon="3.86055">
        <ele>49.500496365284</ele>
        <time>2020-10-17T10:25:53.000Z</time>
      </trkpt>
      <trkpt lat="43.61224" lon="3.86065">
        <ele>49.301886696521</ele>
        <time>2020-10-17T10:25:54.000Z</time>
      </trkpt>
      <trkpt lat="43.61221" lon="3.86074">
        <ele>49.103277027757</ele>
        <time>2020-10-17T10:25:55.000Z</time>
      </trkpt>
      <trkpt lat="43.61219" lon="3.86084">
        <ele>49.048338384157</ele>
        <time>2020-10-17T10:25:56.000Z</time>
      </trkpt>
      <trkpt lat="43.61217" lon="3.86093">
        <ele>49.149043351152</ele>
        <time>2020-10-17T10:25:57.000Z</time>
      </trkpt>
      <trkpt lat="43.61214" lon="3.86102">
        <ele>49.249748318147</ele>
        <time>2020-10-17T10:25:58.000Z</time>
      </trkpt>
      <trkpt lat="43.61212" lon="3.8611">
        <ele>49.350453285141</ele>
        <time>2020-10-17T10:25:59.000Z</time>
      </trkpt>
      <trkpt lat="43.6121" lon="3.86118">
        <ele>49.451158252136</ele>
        <time>2020-10-17T10:26:00.000Z</time>
      </trkpt>
      <trkpt lat="43.61209" lon="3.86126">
        <ele>49.55186321913</ele>
        <time>2020-10-17T10:26:01.000Z</time>
      </trkpt>
      <trkpt lat="43.61207" lon="3.86134">
        <ele>49.652568186125</ele>
        <time>2020-10-17T10:26:02.000Z</time>
      </trkpt>
      <trkpt lat="43.61204" lon="3.86141">
        <ele>49.753273153119</ele>
        <time>2020-10-17T10:26:03.000Z</time>
      </trkpt>
      <trkpt lat="43.612" lon="3.86146">
        <ele>49.853978120114</ele>
        <time>2020-10-17T10:26:04.000Z</time>
      </trkpt>
      <trkpt lat="43.61195" lon="3.86149">
        <ele>49.954683087108</ele>
        <time>2020-10-17T10:26:05.000Z</time>
      </trkpt>
      <trkpt lat="43.6119" lon="3.86147">
        <ele>50</ele>
        <time>2020-10-17T10:26:06.000Z</time>
      </trkpt>
      <trkpt lat="43.61186" lon="3.86142">
        <ele>50</ele>
        <time>2020-10-17T10:26:07.000Z</time>
      </trkpt>
      <trkpt lat="43.61184" lon="3.86135">
        <ele>50</ele>
        <time>2020-10-17T10:26:08.000Z</time>
      </trkpt>
      <trkpt lat="43.61182" lon="3.86128">
        <ele>50</ele>
        <time>2020-10-17T10:26:09.000Z</time>
      </trkpt>
      <trkpt lat="43.6118" lon="3.86122">
        <ele>50</ele>
        <time>2020-10-17T10:26:10.000Z</time>
      </trkpt>
      <trkpt lat="43.61178" lon="3.86117">
        <ele>50</ele>
        <time>2020-10-17T10:26:11.000Z</time>
      </trkpt>
      <trkpt lat="43.61177" lon="3.86111">
        <ele>50</ele>
        <time>2020-10-17T10:26:12.000Z</time>
      </trkpt>
      <trkpt lat="43.61175" lon="3.86106">
        <ele>50</ele>
        <time>2020-10-17T10:26:13.000Z</time>
      </trkpt>
      <trkpt lat="43.61174" lon="3.86103">
        <ele>50</ele>
        <time>2020-10-17T10:26:14.000Z</time>
      </trkpt>
      <trkpt lat="43.61172" lon="3.86099">
        <ele>49.88999936</ele>
        <time>2020-10-17T10:26:16.000Z</time>
      </trkpt>
      <trkpt lat="43.61171" lon="3.86098">
        <ele>49.68999936</ele>
        <time>2020-10-17T10:26:17.000Z</time>
      </trkpt>
      <trkpt lat="43.61169" lon="3.86098">
        <ele>49.48999936</ele>
        <time>2020-10-17T10:26:18.000Z</time>
      </trkpt>
      <trkpt lat="43.61167" lon="3.861">
        <ele>49.28999936</ele>
        <time>2020-10-17T10:26:19.000Z</time>
      </trkpt>
      <trkpt lat="43.61165" lon="3.86103">
        <ele>49.08999936</ele>
        <time>2020-10-17T10:26:20.000Z</time>
      </trkpt>
      <trkpt lat="43.61163" lon="3.86105">
        <ele>48.88999936</ele>
        <time>2020-10-17T10:26:21.000Z</time>
      </trkpt>
      <trkpt lat="43.6116" lon="3.86107">
        <ele>48.68999936</ele>
        <time>2020-10-17T10:26:22.000Z</time>
      </trkpt>
      <trkpt lat="43.61158" lon="3.86109">
        <ele>48.48999936</ele>
        <time>2020-10-17T10:26:23.000Z</time>
      </trkpt>
      <trkpt lat="43.61157" lon="3.86112">
        <ele>48.28999936</ele>
        <time>2020-10-17T10:26:24.000Z</time>
      </trkpt>
      <trkpt lat="43.61156" lon="3.86114">
        <ele>48.08999936</ele>
        <time>2020-10-17T10:26:25.000Z</time>
      </trkpt>
      <trkpt lat="43.61154" lon="3.86117">
        <ele>47.94499968</ele>
        <time>2020-10-17T10:26:26.000Z</time>
      </trkpt>
      <trkpt lat="43.61153" lon="3.86121">
        <ele>47.84499968</ele>
        <time>2020-10-17T10:26:27.000Z</time>
      </trkpt>
      <trkpt lat="43.61154" lon="3.86126">
        <ele>47.74499968</ele>
        <time>2020-10-17T10:26:28.000Z</time>
      </trkpt>
      <trkpt lat="43.61155" lon="3.86131">
        <ele>47.64499968</ele>
        <time>2020-10-17T10:26:29.000Z</time>
      </trkpt>
      <trkpt lat="43.61156" lon="3.86137">
        <ele>47.54499968</ele>
        <time>2020-10-17T10:26:30.000Z</time>
      </trkpt>
      <trkpt lat="43.61158" lon="3.86142">
        <ele>47.44499968</ele>
        <time>2020-10-17T10:26:31.000Z</time>
      </trkpt>
      <trkpt lat="43.6116" lon="3.86149">
        <ele>47.34499968</ele>
        <time>2020-10-17T10:26:32.000Z</time>
      </trkpt>
      <trkpt lat="43.61161" lon="3.86155">
        <ele>47.24499968</ele>
        <time>2020-10-17T10:26:33.000Z</time>
      </trkpt>
      <trkpt lat="43.61163" lon="3.86161">
        <ele>47.14499968</ele>
        <time>2020-10-17T10:26:34.000Z</time>
      </trkpt>
      <trkpt lat="43.61164" lon="3.86168">
        <ele>47.04499968</ele>
        <time>2020-10-17T10:26:35.000Z</time>
      </trkpt>
      <trkpt lat="43.61167" lon="3.86174">
        <ele>47.11000064</ele>
        <time>2020-10-17T10:26:36.000Z</time>
      </trkpt>
      <trkpt lat="43.61169" lon="3.8618">
        <ele>47.31000064</ele>
        <time>2020-10-17T10:26:37.000Z</time>
      </trkpt>
      <trkpt lat="43.6117" lon="3.86186">
        <ele>47.51000064</ele>
        <time>2020-10-17T10:26:38.000Z</time>
      </trkpt>
      <trkpt lat="43.61171" lon="3.86193">
        <ele>47.71000064</ele>
        <time>2020-10-17T10:26:39.000Z</time>
      </trkpt>
      <trkpt lat="43.61173" lon="3.86199">
        <ele>47.91000064</ele>
        <time>2020-10-17T10:26:40.000Z</time>
      </trkpt>
      <trkpt lat="43.61174" lon="3.86203">
        <ele>48.11000064</ele>
        <time>2020-10-17T10:26:41.000Z</time>
      </trkpt>
      <trkpt lat="43.61175" lon="3.86207">
        <ele>48.31000064</ele>
        <time>2020-10-17T10:26:42.000Z</time>
      </trkpt>
      <trkpt lat="43.61175" lon="3.8621">
        <ele>48.51000064</ele>
        <time>2020-10-17T10:26:43.000Z</time>
      </trkpt>
      <trkpt lat="43.61175" lon="3.86214">
        <ele>48.71000064</ele>
        <time>2020-10-17T10:26:44.000Z</time>
      </trkpt>
      <trkpt lat="43.61175" lon="3.86218">
        <ele>48.91000064</ele>
        <time>2020-10-17T10:26:45.000Z</time>
      </trkpt>
      <trkpt lat="43.61175" lon="3.86222">
        <ele>49.16500096</ele>
        <time>2020-10-17T10:26:46.000Z</time>
      </trkpt>
      <trkpt lat="43.61175" lon="3.86226">
        <ele>49.46500096</ele>
        <time>2020-10-17T10:26:47.000Z</time>
      </trkpt>
      <trkpt lat="43.61175" lon="3.86231">
        <ele>49.76500096</ele>
        <time>2020-10-17T10:26:48.000Z</time>
      </trkpt>
      <trkpt lat="43.61174" lon="3.86235">
        <ele>50.06500096</ele>
        <time>2020-10-17T10:26:49.000Z</time>
      </trkpt>
      <trkpt lat="43.61174" lon="3.86239">
        <ele>50.36500096</ele>
        <time>2020-10-17T10:26:50.000Z</time>
      </trkpt>
      <trkpt lat="43.61174" lon="3.86243">
        <ele>50.66500096</ele>
        <time>2020-10-17T10:26:51.000Z</time>
      </trkpt>
      <trkpt lat="43.61174" lon="3.86247">
        <ele>50.96500096</ele>
        <time>2020-10-17T10:26:52.000Z</time>
      </trkpt>
      <trkpt lat="43.61174" lon="3.86251">
        <ele>51.26500096</ele>
        <time>2020-10-17T10:26:53.000Z</time>
      </trkpt>
      <trkpt lat="43.61174" lon="3.86255">
        <ele>51.56500096</ele>
        <time>2020-10-17T10:26:54.000Z</time>
      </trkpt>
      <trkpt lat="43.61173" lon="3.86259">
        <ele>51.86500096</ele>
        <time>2020-10-17T10:26:55.000Z</time>
      </trkpt>
      <trkpt lat="43.61173" lon="3.86263">
        <ele>52.05500032</ele>
        <time>2020-10-17T10:26:56.000Z</time>
      </trkpt>
      <trkpt lat="43.61172" lon="3.86267">
        <ele>52.15500032</ele>
        <time>2020-10-17T10:26:57.000Z</time>
      </trkpt>
      <trkpt lat="43.61172" lon="3.86271">
        <ele>52.25500032</ele>
        <time>2020-10-17T10:26:58.000Z</time>
      </trkpt>
      <trkpt lat="43.61172" lon="3.86274">
        <ele>52.35500032</ele>
        <time>2020-10-17T10:26:59.000Z</time>
      </trkpt>
      <trkpt lat="43.61172" lon="3.86278">
        <ele>52.45500032</ele>
        <time>2020-10-17T10:27:00.000Z</time>
      </trkpt>
      <trkpt lat="43.61171" lon="3.86281">
        <ele>52.55500032</ele>
        <time>2020-10-17T10:27:01.000Z</time>
      </trkpt>
      <trkpt lat="43.61171" lon="3.86285">
        <ele>52.65500032</ele>
        <time>2020-10-17T10:27:02.000Z</time>
      </trkpt>
      <trkpt lat="43.61171" lon="3.86289">
        <ele>52.75500032</ele>
        <time>2020-10-17T10:27:03.000Z</time>
      </trkpt>
      <trkpt lat="43.61171" lon="3.86292">
        <ele>52.85500032</ele>
        <time>2020-10-17T10:27:04.000Z</time>
      </trkpt>
      <trkpt lat="43.61171" lon="3.86296">
        <ele>52.95500032</ele>
        <time>2020-10-17T10:27:05.000Z</time>
      </trkpt>
      <trkpt lat="43.6117" lon="3.86301">
        <ele>53</ele>
        <time>2020-10-17T10:27:06.000Z</time>
      </trkpt>
      <trkpt lat="43.61169" lon="3.86305">
        <ele>53</ele>
        <time>2020-10-17T10:27:07.000Z</time>
      </trkpt>
      <trkpt lat="43.61168" lon="3.86308">
        <ele>53</ele>
        <time>2020-10-17T10:27:08.000Z</time>
      </trkpt>
      <trkpt lat="43.61168" lon="3.86312">
        <ele>53</ele>
        <time>2020-10-17T10:27:09.000Z</time>
      </trkpt>
      <trkpt lat="43.61168" lon="3.86315">
        <ele>53</ele>
        <time>2020-10-17T10:27:10.000Z</time>
      </trkpt>
      <trkpt lat="43.61167" lon="3.86319">
        <ele>53</ele>
        <time>2020-10-17T10:27:11.000Z</time>
      </trkpt>
      <trkpt lat="43.61167" lon="3.86322">
        <ele>53</ele>
        <time>2020-10-17T10:27:12.000Z</time>
      </trkpt>
      <trkpt lat="43.61167" lon="3.86326">
        <ele>53</ele>
        <time>2020-10-17T10:27:13.000Z</time>
      </trkpt>
      <trkpt lat="43.61167" lon="3.8633">
        <ele>53</ele>
        <time>2020-10-17T10:27:14.000Z</time>
      </trkpt>
      <trkpt lat="43.61167" lon="3.86333">
        <ele>53</ele>
        <time>2020-10-17T10:27:15.000Z</time>
      </trkpt>
      <trkpt lat="43.61167" lon="3.86337">
        <ele>53.31000064</ele>
        <time>2020-10-17T10:27:17.000Z</time>
      </trkpt>
      <trkpt lat="43.61165" lon="3.86341">
        <ele>54.11000064</ele>
        <time>2020-10-17T10:27:21.000Z</time>
      </trkpt>
      <trkpt lat="43.61163" lon="3.86343">
        <ele>54.31000064</ele>
        <time>2020-10-17T10:27:22.000Z</time>
      </trkpt>
      <trkpt lat="43.61162" lon="3.86345">
        <ele>54.51000064</ele>
        <time>2020-10-17T10:27:23.000Z</time>
      </trkpt>
      <trkpt lat="43.61161" lon="3.86349">
        <ele>54.91000064</ele>
        <time>2020-10-17T10:27:25.000Z</time>
      </trkpt>
      <trkpt lat="43.61162" lon="3.86353">
        <ele>55.31000064</ele>
        <time>2020-10-17T10:27:27.000Z</time>
      </trkpt>
      <trkpt lat="43.61163" lon="3.86356">
        <ele>55.51000064</ele>
        <time>2020-10-17T10:27:28.000Z</time>
      </trkpt>
      <trkpt lat="43.61164" lon="3.8636">
        <ele>55.71000064</ele>
        <time>2020-10-17T10:27:29.000Z</time>
      </trkpt>
      <trkpt lat="43.61165" lon="3.86364">
        <ele>55.91000064</ele>
        <time>2020-10-17T10:27:30.000Z</time>
      </trkpt>
      <trkpt lat="43.61164" lon="3.86369">
        <ele>56.11000064</ele>
        <time>2020-10-17T10:27:31.000Z</time>
      </trkpt>
      <trkpt lat="43.61164" lon="3.86373">
        <ele>56.31000064</ele>
        <time>2020-10-17T10:27:32.000Z</time>
      </trkpt>
      <trkpt lat="43.61165" lon="3.86378">
        <ele>56.51000064</ele>
        <time>2020-10-17T10:27:33.000Z</time>
      </trkpt>
      <trkpt lat="43.61165" lon="3.86383">
        <ele>56.71000064</ele>
        <time>2020-10-17T10:27:34.000Z</time>
      </trkpt>
      <trkpt lat="43.61165" lon="3.86388">
        <ele>56.91000064</ele>
        <time>2020-10-17T10:27:35.000Z</time>
      </trkpt>
      <trkpt lat="43.61165" lon="3.86393">
        <ele>57.11000064</ele>
        <time>2020-10-17T10:27:36.000Z</time>
      </trkpt>
      <trkpt lat="43.61164" lon="3.86399">
        <ele>57.31000064</ele>
        <time>2020-10-17T10:27:37.000Z</time>
      </trkpt>
      <trkpt lat="43.61163" lon="3.86405">
        <ele>57.51000064</ele>
        <time>2020-10-17T10:27:38.000Z</time>
      </trkpt>
      <trkpt lat="43.61162" lon="3.86411">
        <ele>57.71000064</ele>
        <time>2020-10-17T10:27:39.000Z</time>
      </trkpt>
      <trkpt lat="43.61161" lon="3.86418">
        <ele>57.91000064</ele>
        <time>2020-10-17T10:27:40.000Z</time>
      </trkpt>
      <trkpt lat="43.6116" lon="3.86425">
        <ele>58.11000064</ele>
        <time>2020-10-17T10:27:41.000Z</time>
      </trkpt>
      <trkpt lat="43.6116" lon="3.86431">
        <ele>58.31000064</ele>
        <time>2020-10-17T10:27:42.000Z</time>
      </trkpt>
      <trkpt lat="43.61159" lon="3.86438">
        <ele>58.51000064</ele>
        <time>2020-10-17T10:27:43.000Z</time>
      </trkpt>
      <trkpt lat="43.61158" lon="3.86444">
        <ele>58.71000064</ele>
        <time>2020-10-17T10:27:44.000Z</time>
      </trkpt>
      <trkpt lat="43.61158" lon="3.86451">
        <ele>58.91000064</ele>
        <time>2020-10-17T10:27:45.000Z</time>
      </trkpt>
      <trkpt lat="43.61158" lon="3.86457">
        <ele>58.88999936</ele>
        <time>2020-10-17T10:27:46.000Z</time>
      </trkpt>
      <trkpt lat="43.61157" lon="3.86464">
        <ele>58.68999936</ele>
        <time>2020-10-17T10:27:47.000Z</time>
      </trkpt>
      <trkpt lat="43.61157" lon="3.8647">
        <ele>58.48999936</ele>
        <time>2020-10-17T10:27:48.000Z</time>
      </trkpt>
      <trkpt lat="43.61157" lon="3.86477">
        <ele>58.28999936</ele>
        <time>2020-10-17T10:27:49.000Z</time>
      </trkpt>
      <trkpt lat="43.61156" lon="3.86483">
        <ele>58.08999936</ele>
        <time>2020-10-17T10:27:50.000Z</time>
      </trkpt>
      <trkpt lat="43.61156" lon="3.86489">
        <ele>57.88999936</ele>
        <time>2020-10-17T10:27:51.000Z</time>
      </trkpt>
      <trkpt lat="43.61155" lon="3.86495">
        <ele>57.68999936</ele>
        <time>2020-10-17T10:27:52.000Z</time>
      </trkpt>
      <trkpt lat="43.61155" lon="3.86501">
        <ele>57.48999936</ele>
        <time>2020-10-17T10:27:53.000Z</time>
      </trkpt>
      <trkpt lat="43.61154" lon="3.86506">
        <ele>57.28999936</ele>
        <time>2020-10-17T10:27:54.000Z</time>
      </trkpt>
      <trkpt lat="43.61154" lon="3.86512">
        <ele>57.08999936</ele>
        <time>2020-10-17T10:27:55.000Z</time>
      </trkpt>
      <trkpt lat="43.61153" lon="3.86517">
        <ele>56.77999872</ele>
        <time>2020-10-17T10:27:56.000Z</time>
      </trkpt>
      <trkpt lat="43.61153" lon="3.86522">
        <ele>56.37999872</ele>
        <time>2020-10-17T10:27:57.000Z</time>
      </trkpt>
      <trkpt lat="43.61153" lon="3.86527">
        <ele>55.97999872</ele>
        <time>2020-10-17T10:27:58.000Z</time>
      </trkpt>
      <trkpt lat="43.61152" lon="3.86532">
        <ele>55.57999872</ele>
        <time>2020-10-17T10:27:59.000Z</time>
      </trkpt>
      <trkpt lat="43.61151" lon="3.86538">
        <ele>55.17999872</ele>
        <time>2020-10-17T10:28:00.000Z</time>
      </trkpt>
      <trkpt lat="43.61151" lon="3.86543">
        <ele>54.77999872</ele>
        <time>2020-10-17T10:28:01.000Z</time>
      </trkpt>
      <trkpt lat="43.61151" lon="3.86549">
        <ele>54.37999872</ele>
        <time>2020-10-17T10:28:02.000Z</time>
      </trkpt>
      <trkpt lat="43.6115" lon="3.86555">
        <ele>53.97999872</ele>
        <time>2020-10-17T10:28:03.000Z</time>
      </trkpt>
      <trkpt lat="43.61149" lon="3.86561">
        <ele>53.57999872</ele>
        <time>2020-10-17T10:28:04.000Z</time>
      </trkpt>
      <trkpt lat="43.61149" lon="3.86566">
        <ele>53.17999872</ele>
        <time>2020-10-17T10:28:05.000Z</time>
      </trkpt>
      <trkpt lat="43.61149" lon="3.86571">
        <ele>52.893513384244</ele>
        <time>2020-10-17T10:28:06.000Z</time>
      </trkpt>
      <trkpt lat="43.6115" lon="3.86575">
        <ele>52.699902482061</ele>
        <time>2020-10-17T10:28:07.000Z</time>
      </trkpt>
      <trkpt lat="43.61152" lon="3.86578">
        <ele>52.506291579877</ele>
        <time>2020-10-17T10:28:08.000Z</time>
      </trkpt>
      <trkpt lat="43.61155" lon="3.86579">
        <ele>52.312680677694</ele>
        <time>2020-10-17T10:28:09.000Z</time>
      </trkpt>
      <trkpt lat="43.61158" lon="3.8658">
        <ele>52.119069775511</ele>
        <time>2020-10-17T10:28:10.000Z</time>
      </trkpt>
      <trkpt lat="43.61161" lon="3.86581">
        <ele>51.925458873327</ele>
        <time>2020-10-17T10:28:11.000Z</time>
      </trkpt>
      <trkpt lat="43.61164" lon="3.86581">
        <ele>51.731847971144</ele>
        <time>2020-10-17T10:28:12.000Z</time>
      </trkpt>
      <trkpt lat="43.61167" lon="3.86581">
        <ele>51.53823706896</ele>
        <time>2020-10-17T10:28:13.000Z</time>
      </trkpt>
      <trkpt lat="43.6117" lon="3.86582">
        <ele>51.344626166777</ele>
        <time>2020-10-17T10:28:14.000Z</time>
      </trkpt>
      <trkpt lat="43.61172" lon="3.86584">
        <ele>51.151015264593</ele>
        <time>2020-10-17T10:28:15.000Z</time>
      </trkpt>
      <trkpt lat="43.61174" lon="3.86588">
        <ele>50.931745710281</ele>
        <time>2020-10-17T10:28:16.000Z</time>
      </trkpt>
      <trkpt lat="43.61175" lon="3.86593">
        <ele>50.621507963927</ele>
        <time>2020-10-17T10:28:17.000Z</time>
      </trkpt>
      <trkpt lat="43.61175" lon="3.866">
        <ele>50.311270217574</ele>
        <time>2020-10-17T10:28:18.000Z</time>
      </trkpt>
      <trkpt lat="43.61175" lon="3.86606">
        <ele>50.00103247122</ele>
        <time>2020-10-17T10:28:19.000Z</time>
      </trkpt>
      <trkpt lat="43.61175" lon="3.86613">
        <ele>49.690794724866</ele>
        <time>2020-10-17T10:28:20.000Z</time>
      </trkpt>
      <trkpt lat="43.61175" lon="3.86619">
        <ele>49.380556978513</ele>
        <time>2020-10-17T10:28:21.000Z</time>
      </trkpt>
      <trkpt lat="43.61176" lon="3.86625">
        <ele>49.070319232159</ele>
        <time>2020-10-17T10:28:22.000Z</time>
      </trkpt>
      <trkpt lat="43.61176" lon="3.86631">
        <ele>48.760081485806</ele>
        <time>2020-10-17T10:28:23.000Z</time>
      </trkpt>
      <trkpt lat="43.61176" lon="3.86636">
        <ele>48.449843739452</ele>
        <time>2020-10-17T10:28:24.000Z</time>
      </trkpt>
      <trkpt lat="43.61175" lon="3.8664">
        <ele>48.139605993098</ele>
        <time>2020-10-17T10:28:25.000Z</time>
      </trkpt>
      <trkpt lat="43.61174" lon="3.86643">
        <ele>47.88999936</ele>
        <time>2020-10-17T10:28:26.000Z</time>
      </trkpt>
      <trkpt lat="43.61174" lon="3.86645">
        <ele>47.68999936</ele>
        <time>2020-10-17T10:28:27.000Z</time>
      </trkpt>
      <trkpt lat="43.61173" lon="3.86648">
        <ele>47.48999936</ele>
        <time>2020-10-17T10:28:28.000Z</time>
      </trkpt>
      <trkpt lat="43.61173" lon="3.8665">
        <ele>47.28999936</ele>
        <time>2020-10-17T10:28:29.000Z</time>
      </trkpt>
      <trkpt lat="43.61175" lon="3.86654">
        <ele>47.08999936</ele>
        <time>2020-10-17T10:28:30.000Z</time>
      </trkpt>
      <trkpt lat="43.61176" lon="3.86658">
        <ele>46.88999936</ele>
        <time>2020-10-17T10:28:31.000Z</time>
      </trkpt>
      <trkpt lat="43.61179" lon="3.86661">
        <ele>46.68999936</ele>
        <time>2020-10-17T10:28:32.000Z</time>
      </trkpt>
      <trkpt lat="43.61182" lon="3.86663">
        <ele>46.48999936</ele>
        <time>2020-10-17T10:28:33.000Z</time>
      </trkpt>
      <trkpt lat="43.61185" lon="3.86665">
        <ele>46.28999936</ele>
        <time>2020-10-17T10:28:34.000Z</time>
      </trkpt>
      <trkpt lat="43.61188" lon="3.86666">
        <ele>46.08999936</ele>
        <time>2020-10-17T10:28:35.000Z</time>
      </trkpt>
      <trkpt lat="43.61193" lon="3.86667">
        <ele>45.88999936</ele>
        <time>2020-10-17T10:28:36.000Z</time>
      </trkpt>
      <trkpt lat="43.61197" lon="3.86668">
        <ele>45.68999936</ele>
        <time>2020-10-17T10:28:37.000Z</time>
      </trkpt>
      <trkpt lat="43.61202" lon="3.86669">
        <ele>45.48999936</ele>
        <time>2020-10-17T10:28:38.000Z</time>
      </trkpt>
      <trkpt lat="43.61206" lon="3.86672">
        <ele>45.28999936</ele>
        <time>2020-10-17T10:28:39.000Z</time>
      </trkpt>
      <trkpt lat="43.61208" lon="3.86677">
        <ele>45.08999936</ele>
        <time>2020-10-17T10:28:40.000Z</time>
      </trkpt>
      <trkpt lat="43.61208" lon="3.86683">
        <ele>44.88999936</ele>
        <time>2020-10-17T10:28:41.000Z</time>
      </trkpt>
      <trkpt lat="43.61208" lon="3.86689">
        <ele>44.68999936</ele>
        <time>2020-10-17T10:28:42.000Z</time>
      </trkpt>
      <trkpt lat="43.61207" lon="3.86695">
        <ele>44.48999936</ele>
        <time>2020-10-17T10:28:43.000Z</time>
      </trkpt>
      <trkpt lat="43.61206" lon="3.86702">
        <ele>44.28999936</ele>
        <time>2020-10-17T10:28:44.000Z</time>
      </trkpt>
      <trkpt lat="43.61206" lon="3.86708">
        <ele>44.08999936</ele>
        <time>2020-10-17T10:28:45.000Z</time>
      </trkpt>
      <trkpt lat="43.61205" lon="3.86715">
        <ele>44</ele>
        <time>2020-10-17T10:28:46.000Z</time>
      </trkpt>
      <trkpt lat="43.61205" lon="3.86721">
        <ele>44</ele>
        <time>2020-10-17T10:28:47.000Z</time>
      </trkpt>
      <trkpt lat="43.61205" lon="3.86728">
        <ele>44</ele>
        <time>2020-10-17T10:28:48.000Z</time>
      </trkpt>
      <trkpt lat="43.61205" lon="3.86734">
        <ele>44</ele>
        <time>2020-10-17T10:28:49.000Z</time>
      </trkpt>
      <trkpt lat="43.61204" lon="3.8674">
        <ele>44</ele>
        <time>2020-10-17T10:28:50.000Z</time>
      </trkpt>
      <trkpt lat="43.61204" lon="3.86747">
        <ele>44</ele>
        <time>2020-10-17T10:28:51.000Z</time>
      </trkpt>
      <trkpt lat="43.61203" lon="3.86753">
        <ele>44</ele>
        <time>2020-10-17T10:28:52.000Z</time>
      </trkpt>
      <trkpt lat="43.61203" lon="3.86759">
        <ele>44</ele>
        <time>2020-10-17T10:28:53.000Z</time>
      </trkpt>
      <trkpt lat="43.61203" lon="3.86765">
        <ele>44</ele>
        <time>2020-10-17T10:28:54.000Z</time>
      </trkpt>
      <trkpt lat="43.61203" lon="3.86771">
        <ele>44</ele>
        <time>2020-10-17T10:28:55.000Z</time>
      </trkpt>
      <trkpt lat="43.61204" lon="3.86777">
        <ele>44</ele>
        <time>2020-10-17T10:28:56.000Z</time>
      </trkpt>
      <trkpt lat="43.61205" lon="3.86782">
        <ele>44</ele>
        <time>2020-10-17T10:28:57.000Z</time>
      </trkpt>
      <trkpt lat="43.61206" lon="3.86787">
        <ele>44</ele>
        <time>2020-10-17T10:28:58.000Z</time>
      </trkpt>
      <trkpt lat="43.61208" lon="3.86792">
        <ele>44</ele>
        <time>2020-10-17T10:28:59.000Z</time>
      </trkpt>
      <trkpt lat="43.6121" lon="3.86797">
        <ele>44</ele>
        <time>2020-10-17T10:29:00.000Z</time>
      </trkpt>
      <trkpt lat="43.61212" lon="3.86802">
        <ele>44</ele>
        <time>2020-10-17T10:29:01.000Z</time>
      </trkpt>
      <trkpt lat="43.61215" lon="3.86806">
        <ele>44</ele>
        <time>2020-10-17T10:29:02.000Z</time>
      </trkpt>
      <trkpt lat="43.61216" lon="3.86811">
        <ele>44</ele>
        <time>2020-10-17T10:29:03.000Z</time>
      </trkpt>
      <trkpt lat="43.61218" lon="3.86816">
        <ele>44</ele>
        <time>2020-10-17T10:29:04.000Z</time>
      </trkpt>
      <trkpt lat="43.61219" lon="3.86822">
        <ele>44</ele>
        <time>2020-10-17T10:29:05.000Z</time>
      </trkpt>
      <trkpt lat="43.61219" lon="3.86827">
        <ele>44.109890784381</ele>
        <time>2020-10-17T10:29:06.000Z</time>
      </trkpt>
      <trkpt lat="43.61219" lon="3.86833">
        <ele>44.309691048053</ele>
        <time>2020-10-17T10:29:07.000Z</time>
      </trkpt>
      <trkpt lat="43.6122" lon="3.86838">
        <ele>44.509491311725</ele>
        <time>2020-10-17T10:29:08.000Z</time>
      </trkpt>
      <trkpt lat="43.6122" lon="3.86844">
        <ele>44.709291575398</ele>
        <time>2020-10-17T10:29:09.000Z</time>
      </trkpt>
      <trkpt lat="43.61219" lon="3.86849">
        <ele>44.90909183907</ele>
        <time>2020-10-17T10:29:10.000Z</time>
      </trkpt>
      <trkpt lat="43.61219" lon="3.86855">
        <ele>45.108892102743</ele>
        <time>2020-10-17T10:29:11.000Z</time>
      </trkpt>
      <trkpt lat="43.61218" lon="3.86861">
        <ele>45.308692366415</ele>
        <time>2020-10-17T10:29:12.000Z</time>
      </trkpt>
      <trkpt lat="43.61218" lon="3.86866">
        <ele>45.508492630088</ele>
        <time>2020-10-17T10:29:13.000Z</time>
      </trkpt>
      <trkpt lat="43.61217" lon="3.86872">
        <ele>45.70829289376</ele>
        <time>2020-10-17T10:29:14.000Z</time>
      </trkpt>
      <trkpt lat="43.61217" lon="3.86878">
        <ele>45.908093157432</ele>
        <time>2020-10-17T10:29:15.000Z</time>
      </trkpt>
      <trkpt lat="43.61216" lon="3.86884">
        <ele>46.05405467738</ele>
        <time>2020-10-17T10:29:16.000Z</time>
      </trkpt>
      <trkpt lat="43.61216" lon="3.8689">
        <ele>46.154154745416</ele>
        <time>2020-10-17T10:29:17.000Z</time>
      </trkpt>
      <trkpt lat="43.61216" lon="3.86896">
        <ele>46.254254813452</ele>
        <time>2020-10-17T10:29:18.000Z</time>
      </trkpt>
      <trkpt lat="43.61215" lon="3.86902">
        <ele>46.354354881488</ele>
        <time>2020-10-17T10:29:19.000Z</time>
      </trkpt>
      <trkpt lat="43.61215" lon="3.86908">
        <ele>46.454454949524</ele>
        <time>2020-10-17T10:29:20.000Z</time>
      </trkpt>
      <trkpt lat="43.61214" lon="3.86914">
        <ele>46.55455501756</ele>
        <time>2020-10-17T10:29:21.000Z</time>
      </trkpt>
      <trkpt lat="43.61214" lon="3.8692">
        <ele>46.654655085596</ele>
        <time>2020-10-17T10:29:22.000Z</time>
      </trkpt>
      <trkpt lat="43.61214" lon="3.86927">
        <ele>46.754755153632</ele>
        <time>2020-10-17T10:29:23.000Z</time>
      </trkpt>
      <trkpt lat="43.61213" lon="3.86933">
        <ele>46.854855221668</ele>
        <time>2020-10-17T10:29:24.000Z</time>
      </trkpt>
      <trkpt lat="43.61213" lon="3.8694">
        <ele>46.954955289704</ele>
        <time>2020-10-17T10:29:25.000Z</time>
      </trkpt>
      <trkpt lat="43.61212" lon="3.86946">
        <ele>47.05500032</ele>
        <time>2020-10-17T10:29:26.000Z</time>
      </trkpt>
      <trkpt lat="43.61212" lon="3.86953">
        <ele>47.15500032</ele>
        <time>2020-10-17T10:29:27.000Z</time>
      </trkpt>
      <trkpt lat="43.61211" lon="3.86959">
        <ele>47.25500032</ele>
        <time>2020-10-17T10:29:28.000Z</time>
      </trkpt>
      <trkpt lat="43.6121" lon="3.86966">
        <ele>47.35500032</ele>
        <time>2020-10-17T10:29:29.000Z</time>
      </trkpt>
      <trkpt lat="43.6121" lon="3.86973">
        <ele>47.45500032</ele>
        <time>2020-10-17T10:29:30.000Z</time>
      </trkpt>
      <trkpt lat="43.61209" lon="3.86979">
        <ele>47.55500032</ele>
        <time>2020-10-17T10:29:31.000Z</time>
      </trkpt>
      <trkpt lat="43.61209" lon="3.86986">
        <ele>47.65500032</ele>
        <time>2020-10-17T10:29:32.000Z</time>
      </trkpt>
      <trkpt lat="43.61208" lon="3.86993">
        <ele>47.75500032</ele>
        <time>2020-10-17T10:29:33.000Z</time>
      </trkpt>
      <trkpt lat="43.61208" lon="3.87">
        <ele>47.85500032</ele>
        <time>2020-10-17T10:29:34.000Z</time>
      </trkpt>
      <trkpt lat="43.61207" lon="3.87006">
        <ele>47.95500032</ele>
        <time>2020-10-17T10:29:35.000Z</time>
      </trkpt>
      <trkpt lat="43.61207" lon="3.87013">
        <ele>48.05500032</ele>
        <time>2020-10-17T10:29:36.000Z</time>
      </trkpt>
      <trkpt lat="43.61206" lon="3.87019">
        <ele>48.15500032</ele>
        <time>2020-10-17T10:29:37.000Z</time>
      </trkpt>
      <trkpt lat="43.61206" lon="3.87026">
        <ele>48.25500032</ele>
        <time>2020-10-17T10:29:38.000Z</time>
      </trkpt>
      <trkpt lat="43.61205" lon="3.87033">
        <ele>48.35500032</ele>
        <time>2020-10-17T10:29:39.000Z</time>
      </trkpt>
      <trkpt lat="43.61205" lon="3.8704">
        <ele>48.45500032</ele>
        <time>2020-10-17T10:29:40.000Z</time>
      </trkpt>
      <trkpt lat="43.61205" lon="3.87047">
        <ele>48.55500032</ele>
        <time>2020-10-17T10:29:41.000Z</time>
      </trkpt>
      <trkpt lat="43.61204" lon="3.87053">
        <ele>48.65500032</ele>
        <time>2020-10-17T10:29:42.000Z</time>
      </trkpt>
      <trkpt lat="43.61203" lon="3.8706">
        <ele>48.75500032</ele>
        <time>2020-10-17T10:29:43.000Z</time>
      </trkpt>
      <trkpt lat="43.61203" lon="3.87067">
        <ele>48.85500032</ele>
        <time>2020-10-17T10:29:44.000Z</time>
      </trkpt>
      <trkpt lat="43.61202" lon="3.87074">
        <ele>48.95500032</ele>
        <time>2020-10-17T10:29:45.000Z</time>
      </trkpt>
      <trkpt lat="43.61202" lon="3.87081">
        <ele>49.05500032</ele>
        <time>2020-10-17T10:29:46.000Z</time>
      </trkpt>
      <trkpt lat="43.61201" lon="3.87088">
        <ele>49.15500032</ele>
        <time>2020-10-17T10:29:47.000Z</time>
      </trkpt>
      <trkpt lat="43.61201" lon="3.87095">
        <ele>49.25500032</ele>
        <time>2020-10-17T10:29:48.000Z</time>
      </trkpt>
      <trkpt lat="43.612" lon="3.87102">
        <ele>49.35500032</ele>
        <time>2020-10-17T10:29:49.000Z</time>
      </trkpt>
      <trkpt lat="43.612" lon="3.87109">
        <ele>49.45500032</ele>
        <time>2020-10-17T10:29:50.000Z</time>
      </trkpt>
      <trkpt lat="43.61199" lon="3.87116">
        <ele>49.55500032</ele>
        <time>2020-10-17T10:29:51.000Z</time>
      </trkpt>
      <trkpt lat="43.61198" lon="3.87123">
        <ele>49.65500032</ele>
        <time>2020-10-17T10:29:52.000Z</time>
      </trkpt>
      <trkpt lat="43.61198" lon="3.8713">
        <ele>49.75500032</ele>
        <time>2020-10-17T10:29:53.000Z</time>
      </trkpt>
      <trkpt lat="43.61197" lon="3.87137">
        <ele>49.85500032</ele>
        <time>2020-10-17T10:29:54.000Z</time>
      </trkpt>
      <trkpt lat="43.61197" lon="3.87144">
        <ele>49.95500032</ele>
        <time>2020-10-17T10:29:55.000Z</time>
      </trkpt>
      <trkpt lat="43.61196" lon="3.8715">
        <ele>50.05500032</ele>
        <time>2020-10-17T10:29:56.000Z</time>
      </trkpt>
      <trkpt lat="43.61196" lon="3.87157">
        <ele>50.15500032</ele>
        <time>2020-10-17T10:29:57.000Z</time>
      </trkpt>
      <trkpt lat="43.61196" lon="3.87164">
        <ele>50.25500032</ele>
        <time>2020-10-17T10:29:58.000Z</time>
      </trkpt>
      <trkpt lat="43.61196" lon="3.87171">
        <ele>50.35500032</ele>
        <time>2020-10-17T10:29:59.000Z</time>
      </trkpt>
      <trkpt lat="43.61196" lon="3.87177">
        <ele>50.45500032</ele>
        <time>2020-10-17T10:30:00.000Z</time>
      </trkpt>
      <trkpt lat="43.61195" lon="3.87184">
        <ele>50.55500032</ele>
        <time>2020-10-17T10:30:01.000Z</time>
      </trkpt>
      <trkpt lat="43.61194" lon="3.87189">
        <ele>50.65500032</ele>
        <time>2020-10-17T10:30:02.000Z</time>
      </trkpt>
      <trkpt lat="43.61194" lon="3.87195">
        <ele>50.75500032</ele>
        <time>2020-10-17T10:30:03.000Z</time>
      </trkpt>
      <trkpt lat="43.61194" lon="3.872">
        <ele>50.85500032</ele>
        <time>2020-10-17T10:30:04.000Z</time>
      </trkpt>
      <trkpt lat="43.61195" lon="3.87205">
        <ele>50.95500032</ele>
        <time>2020-10-17T10:30:05.000Z</time>
      </trkpt>
      <trkpt lat="43.61196" lon="3.87209">
        <ele>51</ele>
        <time>2020-10-17T10:30:06.000Z</time>
      </trkpt>
      <trkpt lat="43.61197" lon="3.87214">
        <ele>51</ele>
        <time>2020-10-17T10:30:07.000Z</time>
      </trkpt>
      <trkpt lat="43.61199" lon="3.87219">
        <ele>51</ele>
        <time>2020-10-17T10:30:08.000Z</time>
      </trkpt>
      <trkpt lat="43.61201" lon="3.87224">
        <ele>51</ele>
        <time>2020-10-17T10:30:09.000Z</time>
      </trkpt>
      <trkpt lat="43.61205" lon="3.87228">
        <ele>51</ele>
        <time>2020-10-17T10:30:10.000Z</time>
      </trkpt>
      <trkpt lat="43.61209" lon="3.87231">
        <ele>51</ele>
        <time>2020-10-17T10:30:11.000Z</time>
      </trkpt>
      <trkpt lat="43.61213" lon="3.87235">
        <ele>51</ele>
        <time>2020-10-17T10:30:12.000Z</time>
      </trkpt>
      <trkpt lat="43.61218" lon="3.87239">
        <ele>51</ele>
        <time>2020-10-17T10:30:13.000Z</time>
      </trkpt>
      <trkpt lat="43.61222" lon="3.87243">
        <ele>51</ele>
        <time>2020-10-17T10:30:14.000Z</time>
      </trkpt>
      <trkpt lat="43.61227" lon="3.87247">
        <ele>51</ele>
        <time>2020-10-17T10:30:15.000Z</time>
      </trkpt>
      <trkpt lat="43.61232" lon="3.87251">
        <ele>51.05310592584</ele>
        <time>2020-10-17T10:30:16.000Z</time>
      </trkpt>
      <trkpt lat="43.61237" lon="3.87254">
        <ele>51.153306390898</ele>
        <time>2020-10-17T10:30:17.000Z</time>
      </trkpt>
      <trkpt lat="43.61242" lon="3.87257">
        <ele>51.253506855956</ele>
        <time>2020-10-17T10:30:18.000Z</time>
      </trkpt>
      <trkpt lat="43.61246" lon="3.87258">
        <ele>51.353707321015</ele>
        <time>2020-10-17T10:30:19.000Z</time>
      </trkpt>
      <trkpt lat="43.6125" lon="3.87258">
        <ele>51.453907786073</ele>
        <time>2020-10-17T10:30:20.000Z</time>
      </trkpt>
      <trkpt lat="43.61252" lon="3.87259">
        <ele>51.554108251132</ele>
        <time>2020-10-17T10:30:21.000Z</time>
      </trkpt>
      <trkpt lat="43.61254" lon="3.87261">
        <ele>51.65430871619</ele>
        <time>2020-10-17T10:30:22.000Z</time>
      </trkpt>
      <trkpt lat="43.61255" lon="3.87264">
        <ele>51.754509181248</ele>
        <time>2020-10-17T10:30:23.000Z</time>
      </trkpt>
      <trkpt lat="43.61255" lon="3.87267">
        <ele>51.854709646307</ele>
        <time>2020-10-17T10:30:24.000Z</time>
      </trkpt>
      <trkpt lat="43.61255" lon="3.87271">
        <ele>51.954910111365</ele>
        <time>2020-10-17T10:30:25.000Z</time>
      </trkpt>
      <trkpt lat="43.61253" lon="3.87273">
        <ele>51.94499968</ele>
        <time>2020-10-17T10:30:26.000Z</time>
      </trkpt>
      <trkpt lat="43.61251" lon="3.87276">
        <ele>51.84499968</ele>
        <time>2020-10-17T10:30:27.000Z</time>
      </trkpt>
      <trkpt lat="43.61249" lon="3.87278">
        <ele>51.74499968</ele>
        <time>2020-10-17T10:30:28.000Z</time>
      </trkpt>
      <trkpt lat="43.61248" lon="3.87282">
        <ele>51.64499968</ele>
        <time>2020-10-17T10:30:29.000Z</time>
      </trkpt>
      <trkpt lat="43.61246" lon="3.87285">
        <ele>51.54499968</ele>
        <time>2020-10-17T10:30:30.000Z</time>
      </trkpt>
      <trkpt lat="43.61244" lon="3.87288">
        <ele>51.44499968</ele>
        <time>2020-10-17T10:30:31.000Z</time>
      </trkpt>
      <trkpt lat="43.61242" lon="3.87291">
        <ele>51.34499968</ele>
        <time>2020-10-17T10:30:32.000Z</time>
      </trkpt>
      <trkpt lat="43.6124" lon="3.87294">
        <ele>51.24499968</ele>
        <time>2020-10-17T10:30:33.000Z</time>
      </trkpt>
      <trkpt lat="43.61237" lon="3.87297">
        <ele>51.14499968</ele>
        <time>2020-10-17T10:30:34.000Z</time>
      </trkpt>
      <trkpt lat="43.61235" lon="3.873">
        <ele>51.04499968</ele>
        <time>2020-10-17T10:30:35.000Z</time>
      </trkpt>
      <trkpt lat="43.61233" lon="3.87304">
        <ele>51</ele>
        <time>2020-10-17T10:30:36.000Z</time>
      </trkpt>
      <trkpt lat="43.6123" lon="3.87307">
        <ele>51</ele>
        <time>2020-10-17T10:30:37.000Z</time>
      </trkpt>
      <trkpt lat="43.61227" lon="3.87311">
        <ele>51</ele>
        <time>2020-10-17T10:30:38.000Z</time>
      </trkpt>
      <trkpt lat="43.61225" lon="3.87315">
        <ele>51</ele>
        <time>2020-10-17T10:30:39.000Z</time>
      </trkpt>
      <trkpt lat="43.61223" lon="3.87319">
        <ele>51</ele>
        <time>2020-10-17T10:30:40.000Z</time>
      </trkpt>
      <trkpt lat="43.61221" lon="3.87323">
        <ele>51</ele>
        <time>2020-10-17T10:30:41.000Z</time>
      </trkpt>
      <trkpt lat="43.61219" lon="3.87327">
        <ele>51</ele>
        <time>2020-10-17T10:30:42.000Z</time>
      </trkpt>
      <trkpt lat="43.61217" lon="3.8733">
        <ele>51</ele>
        <time>2020-10-17T10:30:43.000Z</time>
      </trkpt>
      <trkpt lat="43.61215" lon="3.87334">
        <ele>51</ele>
        <time>2020-10-17T10:30:44.000Z</time>
      </trkpt>
      <trkpt lat="43.61213" lon="3.87338">
        <ele>51</ele>
        <time>2020-10-17T10:30:45.000Z</time>
      </trkpt>
      <trkpt lat="43.61211" lon="3.87341">
        <ele>51</ele>
        <time>2020-10-17T10:30:46.000Z</time>
      </trkpt>
      <trkpt lat="43.61208" lon="3.87344">
        <ele>51</ele>
        <time>2020-10-17T10:30:47.000Z</time>
      </trkpt>
      <trkpt lat="43.61206" lon="3.87348">
        <ele>51</ele>
        <time>2020-10-17T10:30:48.000Z</time>
      </trkpt>
      <trkpt lat="43.61204" lon="3.87351">
        <ele>51</ele>
        <time>2020-10-17T10:30:49.000Z</time>
      </trkpt>
      <trkpt lat="43.61202" lon="3.87354">
        <ele>51</ele>
        <time>2020-10-17T10:30:50.000Z</time>
      </trkpt>
      <trkpt lat="43.612" lon="3.87357">
        <ele>51</ele>
        <time>2020-10-17T10:30:51.000Z</time>
      </trkpt>
      <trkpt lat="43.61198" lon="3.87361">
        <ele>51</ele>
        <time>2020-10-17T10:30:52.000Z</time>
      </trkpt>
      <trkpt lat="43.61197" lon="3.87363">
        <ele>51</ele>
        <time>2020-10-17T10:30:53.000Z</time>
      </trkpt>
      <trkpt lat="43.61195" lon="3.87368">
        <ele>51</ele>
        <time>2020-10-17T10:30:55.000Z</time>
      </trkpt>
      <trkpt lat="43.61192" lon="3.87371">
        <ele>51.11000064</ele>
        <time>2020-10-17T10:30:56.000Z</time>
      </trkpt>
      <trkpt lat="43.61191" lon="3.87374">
        <ele>51.31000064</ele>
        <time>2020-10-17T10:30:57.000Z</time>
      </trkpt>
      <trkpt lat="43.61189" lon="3.87377">
        <ele>51.51000064</ele>
        <time>2020-10-17T10:30:58.000Z</time>
      </trkpt>
      <trkpt lat="43.61187" lon="3.87381">
        <ele>51.71000064</ele>
        <time>2020-10-17T10:30:59.000Z</time>
      </trkpt>
      <trkpt lat="43.61184" lon="3.87384">
        <ele>51.91000064</ele>
        <time>2020-10-17T10:31:00.000Z</time>
      </trkpt>
      <trkpt lat="43.61182" lon="3.87386">
        <ele>52.11000064</ele>
        <time>2020-10-17T10:31:01.000Z</time>
      </trkpt>
      <trkpt lat="43.6118" lon="3.87387">
        <ele>52.31000064</ele>
        <time>2020-10-17T10:31:02.000Z</time>
      </trkpt>
      <trkpt lat="43.61177" lon="3.87387">
        <ele>52.51000064</ele>
        <time>2020-10-17T10:31:03.000Z</time>
      </trkpt>
      <trkpt lat="43.61173" lon="3.87384">
        <ele>52.71000064</ele>
        <time>2020-10-17T10:31:04.000Z</time>
      </trkpt>
      <trkpt lat="43.61171" lon="3.8738">
        <ele>52.91000064</ele>
        <time>2020-10-17T10:31:05.000Z</time>
      </trkpt>
      <trkpt lat="43.61168" lon="3.87378">
        <ele>53.16500096</ele>
        <time>2020-10-17T10:31:06.000Z</time>
      </trkpt>
      <trkpt lat="43.61164" lon="3.87376">
        <ele>53.46500096</ele>
        <time>2020-10-17T10:31:07.000Z</time>
      </trkpt>
      <trkpt lat="43.61161" lon="3.87375">
        <ele>53.76500096</ele>
        <time>2020-10-17T10:31:08.000Z</time>
      </trkpt>
      <trkpt lat="43.61158" lon="3.87374">
        <ele>54.06500096</ele>
        <time>2020-10-17T10:31:09.000Z</time>
      </trkpt>
      <trkpt lat="43.61156" lon="3.87376">
        <ele>54.36500096</ele>
        <time>2020-10-17T10:31:10.000Z</time>
      </trkpt>
      <trkpt lat="43.61154" lon="3.87381">
        <ele>54.66500096</ele>
        <time>2020-10-17T10:31:11.000Z</time>
      </trkpt>
      <trkpt lat="43.61152" lon="3.87387">
        <ele>54.96500096</ele>
        <time>2020-10-17T10:31:12.000Z</time>
      </trkpt>
      <trkpt lat="43.6115" lon="3.87392">
        <ele>55.26500096</ele>
        <time>2020-10-17T10:31:13.000Z</time>
      </trkpt>
      <trkpt lat="43.61149" lon="3.87397">
        <ele>55.56500096</ele>
        <time>2020-10-17T10:31:14.000Z</time>
      </trkpt>
      <trkpt lat="43.61148" lon="3.87402">
        <ele>55.86500096</ele>
        <time>2020-10-17T10:31:15.000Z</time>
      </trkpt>
      <trkpt lat="43.61147" lon="3.87408">
        <ele>56.053502256809</ele>
        <time>2020-10-17T10:31:16.000Z</time>
      </trkpt>
      <trkpt lat="43.61147" lon="3.87414">
        <ele>56.150778521401</ele>
        <time>2020-10-17T10:31:17.000Z</time>
      </trkpt>
      <trkpt lat="43.61147" lon="3.87419">
        <ele>56.248054785992</ele>
        <time>2020-10-17T10:31:18.000Z</time>
      </trkpt>
      <trkpt lat="43.61146" lon="3.87426">
        <ele>56.345331050584</ele>
        <time>2020-10-17T10:31:19.000Z</time>
      </trkpt>
      <trkpt lat="43.61145" lon="3.87432">
        <ele>56.442607315175</ele>
        <time>2020-10-17T10:31:20.000Z</time>
      </trkpt>
      <trkpt lat="43.61144" lon="3.87437">
        <ele>56.539883579767</ele>
        <time>2020-10-17T10:31:21.000Z</time>
      </trkpt>
      <trkpt lat="43.61142" lon="3.87442">
        <ele>56.637159844358</ele>
        <time>2020-10-17T10:31:22.000Z</time>
      </trkpt>
      <trkpt lat="43.61142" lon="3.87447">
        <ele>56.734436108949</ele>
        <time>2020-10-17T10:31:23.000Z</time>
      </trkpt>
      <trkpt lat="43.61141" lon="3.87452">
        <ele>56.831712373541</ele>
        <time>2020-10-17T10:31:24.000Z</time>
      </trkpt>
      <trkpt lat="43.61141" lon="3.87458">
        <ele>56.928988638132</ele>
        <time>2020-10-17T10:31:25.000Z</time>
      </trkpt>
      <trkpt lat="43.61141" lon="3.87463">
        <ele>57.027721049547</ele>
        <time>2020-10-17T10:31:26.000Z</time>
      </trkpt>
      <trkpt lat="43.6114" lon="3.87469">
        <ele>57.130390386602</ele>
        <time>2020-10-17T10:31:27.000Z</time>
      </trkpt>
      <trkpt lat="43.61138" lon="3.87476">
        <ele>57.233059723657</ele>
        <time>2020-10-17T10:31:28.000Z</time>
      </trkpt>
      <trkpt lat="43.61137" lon="3.87482">
        <ele>57.335729060712</ele>
        <time>2020-10-17T10:31:29.000Z</time>
      </trkpt>
      <trkpt lat="43.61136" lon="3.87488">
        <ele>57.438398397767</ele>
        <time>2020-10-17T10:31:30.000Z</time>
      </trkpt>
      <trkpt lat="43.61137" lon="3.87493">
        <ele>57.541067734822</ele>
        <time>2020-10-17T10:31:31.000Z</time>
      </trkpt>
      <trkpt lat="43.61137" lon="3.87498">
        <ele>57.643737071877</ele>
        <time>2020-10-17T10:31:32.000Z</time>
      </trkpt>
      <trkpt lat="43.61137" lon="3.87504">
        <ele>57.746406408932</ele>
        <time>2020-10-17T10:31:33.000Z</time>
      </trkpt>
      <trkpt lat="43.61137" lon="3.87509">
        <ele>57.849075745987</ele>
        <time>2020-10-17T10:31:34.000Z</time>
      </trkpt>
      <trkpt lat="43.61137" lon="3.87514">
        <ele>57.951745083042</ele>
        <time>2020-10-17T10:31:35.000Z</time>
      </trkpt>
      <trkpt lat="43.61137" lon="3.87519">
        <ele>58</ele>
        <time>2020-10-17T10:31:36.000Z</time>
      </trkpt>
      <trkpt lat="43.61134" lon="3.87526">
        <ele>58</ele>
        <time>2020-10-17T10:31:37.000Z</time>
      </trkpt>
      <trkpt lat="43.61135" lon="3.87532">
        <ele>58</ele>
        <time>2020-10-17T10:31:38.000Z</time>
      </trkpt>
      <trkpt lat="43.61136" lon="3.87538">
        <ele>58</ele>
        <time>2020-10-17T10:31:39.000Z</time>
      </trkpt>
      <trkpt lat="43.61137" lon="3.87543">
        <ele>58</ele>
        <time>2020-10-17T10:31:40.000Z</time>
      </trkpt>
      <trkpt lat="43.61138" lon="3.87548">
        <ele>58</ele>
        <time>2020-10-17T10:31:41.000Z</time>
      </trkpt>
      <trkpt lat="43.61138" lon="3.87552">
        <ele>58</ele>
        <time>2020-10-17T10:31:42.000Z</time>
      </trkpt>
      <trkpt lat="43.61139" lon="3.87556">
        <ele>58</ele>
        <time>2020-10-17T10:31:43.000Z</time>
      </trkpt>
      <trkpt lat="43.6114" lon="3.87561">
        <ele>58</ele>
        <time>2020-10-17T10:31:44.000Z</time>
      </trkpt>
      <trkpt lat="43.61141" lon="3.87567">
        <ele>58</ele>
        <time>2020-10-17T10:31:45.000Z</time>
      </trkpt>
      <trkpt lat="43.61142" lon="3.87572">
        <ele>58</ele>
        <time>2020-10-17T10:31:46.000Z</time>
      </trkpt>
      <trkpt lat="43.61142" lon="3.87577">
        <ele>58</ele>
        <time>2020-10-17T10:31:47.000Z</time>
      </trkpt>
      <trkpt lat="43.61143" lon="3.87581">
        <ele>58</ele>
        <time>2020-10-17T10:31:48.000Z</time>
      </trkpt>
      <trkpt lat="43.61144" lon="3.87585">
        <ele>58</ele>
        <time>2020-10-17T10:31:49.000Z</time>
      </trkpt>
      <trkpt lat="43.61147" lon="3.8759">
        <ele>58</ele>
        <time>2020-10-17T10:31:50.000Z</time>
      </trkpt>
      <trkpt lat="43.61153" lon="3.876">
        <ele>58</ele>
        <time>2020-10-17T10:31:52.000Z</time>
      </trkpt>
      <trkpt lat="43.61156" lon="3.87604">
        <ele>58</ele>
        <time>2020-10-17T10:31:53.000Z</time>
      </trkpt>
      <trkpt lat="43.61163" lon="3.87616">
        <ele>58.109781007725</ele>
        <time>2020-10-17T10:31:56.000Z</time>
      </trkpt>
      <trkpt lat="43.61166" lon="3.87622">
        <ele>58.309381678639</ele>
        <time>2020-10-17T10:31:57.000Z</time>
      </trkpt>
      <trkpt lat="43.6117" lon="3.87626">
        <ele>58.508982349552</ele>
        <time>2020-10-17T10:31:58.000Z</time>
      </trkpt>
      <trkpt lat="43.61174" lon="3.8763">
        <ele>58.708583020466</ele>
        <time>2020-10-17T10:31:59.000Z</time>
      </trkpt>
      <trkpt lat="43.61178" lon="3.87632">
        <ele>58.90818369138</ele>
        <time>2020-10-17T10:32:00.000Z</time>
      </trkpt>
      <trkpt lat="43.6118" lon="3.87633">
        <ele>59.107784362293</ele>
        <time>2020-10-17T10:32:01.000Z</time>
      </trkpt>
      <trkpt lat="43.61183" lon="3.87634">
        <ele>59.307385033207</ele>
        <time>2020-10-17T10:32:02.000Z</time>
      </trkpt>
      <trkpt lat="43.61186" lon="3.87635">
        <ele>59.506985704121</ele>
        <time>2020-10-17T10:32:03.000Z</time>
      </trkpt>
      <trkpt lat="43.61189" lon="3.87636">
        <ele>59.706586375035</ele>
        <time>2020-10-17T10:32:04.000Z</time>
      </trkpt>
      <trkpt lat="43.61191" lon="3.87637">
        <ele>59.906187045948</ele>
        <time>2020-10-17T10:32:05.000Z</time>
      </trkpt>
      <trkpt lat="43.61194" lon="3.87639">
        <ele>60</ele>
        <time>2020-10-17T10:32:06.000Z</time>
      </trkpt>
      <trkpt lat="43.61198" lon="3.87639">
        <ele>60</ele>
        <time>2020-10-17T10:32:07.000Z</time>
      </trkpt>
      <trkpt lat="43.61201" lon="3.8764">
        <ele>60</ele>
        <time>2020-10-17T10:32:08.000Z</time>
      </trkpt>
      <trkpt lat="43.61205" lon="3.87651">
        <ele>60</ele>
        <time>2020-10-17T10:32:11.000Z</time>
      </trkpt>
      <trkpt lat="43.61202" lon="3.87667">
        <ele>60</ele>
        <time>2020-10-17T10:32:14.000Z</time>
      </trkpt>
      <trkpt lat="43.612" lon="3.87678">
        <ele>60</ele>
        <time>2020-10-17T10:32:16.000Z</time>
      </trkpt>
      <trkpt lat="43.612" lon="3.87684">
        <ele>60</ele>
        <time>2020-10-17T10:32:17.000Z</time>
      </trkpt>
      <trkpt lat="43.61199" lon="3.87691">
        <ele>60</ele>
        <time>2020-10-17T10:32:18.000Z</time>
      </trkpt>
      <trkpt lat="43.61199" lon="3.87697">
        <ele>60</ele>
        <time>2020-10-17T10:32:19.000Z</time>
      </trkpt>
      <trkpt lat="43.61199" lon="3.87703">
        <ele>60</ele>
        <time>2020-10-17T10:32:20.000Z</time>
      </trkpt>
      <trkpt lat="43.612" lon="3.87709">
        <ele>60</ele>
        <time>2020-10-17T10:32:21.000Z</time>
      </trkpt>
      <trkpt lat="43.612" lon="3.87715">
        <ele>60</ele>
        <time>2020-10-17T10:32:22.000Z</time>
      </trkpt>
      <trkpt lat="43.61201" lon="3.8772">
        <ele>60</ele>
        <time>2020-10-17T10:32:23.000Z</time>
      </trkpt>
      <trkpt lat="43.61204" lon="3.87725">
        <ele>60</ele>
        <time>2020-10-17T10:32:24.000Z</time>
      </trkpt>
      <trkpt lat="43.61207" lon="3.87737">
        <ele>59.88999936</ele>
        <time>2020-10-17T10:32:26.000Z</time>
      </trkpt>
      <trkpt lat="43.61205" lon="3.87752">
        <ele>59.48999936</ele>
        <time>2020-10-17T10:32:28.000Z</time>
      </trkpt>
      <trkpt lat="43.61199" lon="3.87766">
        <ele>59.08999936</ele>
        <time>2020-10-17T10:32:30.000Z</time>
      </trkpt>
      <trkpt lat="43.61196" lon="3.87772">
        <ele>58.88999936</ele>
        <time>2020-10-17T10:32:31.000Z</time>
      </trkpt>
      <trkpt lat="43.61193" lon="3.87778">
        <ele>58.68999936</ele>
        <time>2020-10-17T10:32:32.000Z</time>
      </trkpt>
      <trkpt lat="43.61189" lon="3.87784">
        <ele>58.48999936</ele>
        <time>2020-10-17T10:32:33.000Z</time>
      </trkpt>
      <trkpt lat="43.61186" lon="3.87789">
        <ele>58.28999936</ele>
        <time>2020-10-17T10:32:34.000Z</time>
      </trkpt>
      <trkpt lat="43.61184" lon="3.87795">
        <ele>58.08999936</ele>
        <time>2020-10-17T10:32:35.000Z</time>
      </trkpt>
      <trkpt lat="43.61181" lon="3.87799">
        <ele>57.88999936</ele>
        <time>2020-10-17T10:32:36.000Z</time>
      </trkpt>
      <trkpt lat="43.61178" lon="3.87807">
        <ele>57.48999936</ele>
        <time>2020-10-17T10:32:38.000Z</time>
      </trkpt>
      <trkpt lat="43.61177" lon="3.87811">
        <ele>57.28999936</ele>
        <time>2020-10-17T10:32:39.000Z</time>
      </trkpt>
      <trkpt lat="43.61176" lon="3.87815">
        <ele>57.08999936</ele>
        <time>2020-10-17T10:32:40.000Z</time>
      </trkpt>
      <trkpt lat="43.61175" lon="3.87819">
        <ele>56.88999936</ele>
        <time>2020-10-17T10:32:41.000Z</time>
      </trkpt>
      <trkpt lat="43.61174" lon="3.87823">
        <ele>56.68999936</ele>
        <time>2020-10-17T10:32:42.000Z</time>
      </trkpt>
      <trkpt lat="43.61172" lon="3.87827">
        <ele>56.48999936</ele>
        <time>2020-10-17T10:32:43.000Z</time>
      </trkpt>
      <trkpt lat="43.6117" lon="3.8783">
        <ele>56.28999936</ele>
        <time>2020-10-17T10:32:44.000Z</time>
      </trkpt>
      <trkpt lat="43.61169" lon="3.87833">
        <ele>56.08999936</ele>
        <time>2020-10-17T10:32:45.000Z</time>
      </trkpt>
      <trkpt lat="43.61167" lon="3.87837">
        <ele>56.05500032</ele>
        <time>2020-10-17T10:32:46.000Z</time>
      </trkpt>
      <trkpt lat="43.61166" lon="3.87841">
        <ele>56.15500032</ele>
        <time>2020-10-17T10:32:47.000Z</time>
      </trkpt>
      <trkpt lat="43.61165" lon="3.87844">
        <ele>56.25500032</ele>
        <time>2020-10-17T10:32:48.000Z</time>
      </trkpt>
      <trkpt lat="43.61163" lon="3.87847">
        <ele>56.35500032</ele>
        <time>2020-10-17T10:32:49.000Z</time>
      </trkpt>
      <trkpt lat="43.61161" lon="3.87851">
        <ele>56.45500032</ele>
        <time>2020-10-17T10:32:50.000Z</time>
      </trkpt>
      <trkpt lat="43.61158" lon="3.87855">
        <ele>56.55500032</ele>
        <time>2020-10-17T10:32:51.000Z</time>
      </trkpt>
      <trkpt lat="43.61155" lon="3.87859">
        <ele>56.65500032</ele>
        <time>2020-10-17T10:32:52.000Z</time>
      </trkpt>
      <trkpt lat="43.61152" lon="3.87864">
        <ele>56.75500032</ele>
        <time>2020-10-17T10:32:53.000Z</time>
      </trkpt>
      <trkpt lat="43.61149" lon="3.87868">
        <ele>56.85500032</ele>
        <time>2020-10-17T10:32:54.000Z</time>
      </trkpt>
      <trkpt lat="43.61147" lon="3.8787">
        <ele>56.95500032</ele>
        <time>2020-10-17T10:32:55.000Z</time>
      </trkpt>
      <trkpt lat="43.61147" lon="3.87875">
        <ele>57.15500032</ele>
        <time>2020-10-17T10:32:57.000Z</time>
      </trkpt>
      <trkpt lat="43.6115" lon="3.87878">
        <ele>57.35500032</ele>
        <time>2020-10-17T10:32:59.000Z</time>
      </trkpt>
      <trkpt lat="43.61151" lon="3.8788">
        <ele>57.45500032</ele>
        <time>2020-10-17T10:33:00.000Z</time>
      </trkpt>
      <trkpt lat="43.61154" lon="3.87882">
        <ele>57.65500032</ele>
        <time>2020-10-17T10:33:02.000Z</time>
      </trkpt>
      <trkpt lat="43.61157" lon="3.87884">
        <ele>57.85500032</ele>
        <time>2020-10-17T10:33:04.000Z</time>
      </trkpt>
      <trkpt lat="43.61159" lon="3.87885">
        <ele>57.95500032</ele>
        <time>2020-10-17T10:33:05.000Z</time>
      </trkpt>
      <trkpt lat="43.61161" lon="3.87887">
        <ele>58.05500032</ele>
        <time>2020-10-17T10:33:06.000Z</time>
      </trkpt>
      <trkpt lat="43.61164" lon="3.87888">
        <ele>58.15500032</ele>
        <time>2020-10-17T10:33:07.000Z</time>
      </trkpt>
      <trkpt lat="43.61169" lon="3.87891">
        <ele>58.35500032</ele>
        <time>2020-10-17T10:33:09.000Z</time>
      </trkpt>
      <trkpt lat="43.61173" lon="3.87893">
        <ele>58.45500032</ele>
        <time>2020-10-17T10:33:10.000Z</time>
      </trkpt>
      <trkpt lat="43.61176" lon="3.87895">
        <ele>58.55500032</ele>
        <time>2020-10-17T10:33:11.000Z</time>
      </trkpt>
      <trkpt lat="43.61179" lon="3.87896">
        <ele>58.65500032</ele>
        <time>2020-10-17T10:33:12.000Z</time>
      </trkpt>
      <trkpt lat="43.61181" lon="3.87897">
        <ele>58.75500032</ele>
        <time>2020-10-17T10:33:13.000Z</time>
      </trkpt>
      <trkpt lat="43.61183" lon="3.879">
        <ele>58.95500032</ele>
        <time>2020-10-17T10:33:15.000Z</time>
      </trkpt>
      <trkpt lat="43.61186" lon="3.87904">
        <ele>59.301263703389</ele>
        <time>2020-10-17T10:33:17.000Z</time>
      </trkpt>
      <trkpt lat="43.61189" lon="3.87907">
        <ele>59.495626981728</ele>
        <time>2020-10-17T10:33:18.000Z</time>
      </trkpt>
      <trkpt lat="43.61193" lon="3.87911">
        <ele>59.689990260067</ele>
        <time>2020-10-17T10:33:19.000Z</time>
      </trkpt>
      <trkpt lat="43.61196" lon="3.87916">
        <ele>59.884353538407</ele>
        <time>2020-10-17T10:33:20.000Z</time>
      </trkpt>
      <trkpt lat="43.61199" lon="3.87918">
        <ele>60.078716816746</ele>
        <time>2020-10-17T10:33:21.000Z</time>
      </trkpt>
      <trkpt lat="43.61202" lon="3.8792">
        <ele>60.273080095086</ele>
        <time>2020-10-17T10:33:22.000Z</time>
      </trkpt>
      <trkpt lat="43.61205" lon="3.87922">
        <ele>60.467443373425</ele>
        <time>2020-10-17T10:33:23.000Z</time>
      </trkpt>
      <trkpt lat="43.61209" lon="3.87923">
        <ele>60.661806651764</ele>
        <time>2020-10-17T10:33:24.000Z</time>
      </trkpt>
      <trkpt lat="43.61212" lon="3.87924">
        <ele>60.856169930104</ele>
        <time>2020-10-17T10:33:25.000Z</time>
      </trkpt>
      <trkpt lat="43.61214" lon="3.87925">
        <ele>61.026775886411</ele>
        <time>2020-10-17T10:33:26.000Z</time>
      </trkpt>
      <trkpt lat="43.61213" lon="3.87927">
        <ele>61.644696167774</ele>
        <time>2020-10-17T10:33:32.000Z</time>
      </trkpt>
      <trkpt lat="43.61209" lon="3.87925">
        <ele>61.850669594895</ele>
        <time>2020-10-17T10:33:34.000Z</time>
      </trkpt>
      <trkpt lat="43.61206" lon="3.87925">
        <ele>61.953656308455</ele>
        <time>2020-10-17T10:33:35.000Z</time>
      </trkpt>
      <trkpt lat="43.61203" lon="3.87924">
        <ele>62</ele>
        <time>2020-10-17T10:33:36.000Z</time>
      </trkpt>
      <trkpt lat="43.612" lon="3.87924">
        <ele>62</ele>
        <time>2020-10-17T10:33:37.000Z</time>
      </trkpt>
      <trkpt lat="43.61196" lon="3.87924">
        <ele>62</ele>
        <time>2020-10-17T10:33:38.000Z</time>
      </trkpt>
      <trkpt lat="43.61192" lon="3.87923">
        <ele>62</ele>
        <time>2020-10-17T10:33:39.000Z</time>
      </trkpt>
      <trkpt lat="43.61187" lon="3.87923">
        <ele>62</ele>
        <time>2020-10-17T10:33:40.000Z</time>
      </trkpt>
      <trkpt lat="43.61181" lon="3.87923">
        <ele>62</ele>
        <time>2020-10-17T10:33:41.000Z</time>
      </trkpt>
      <trkpt lat="43.61176" lon="3.87923">
        <ele>62</ele>
        <time>2020-10-17T10:33:42.000Z</time>
      </trkpt>
      <trkpt lat="43.61171" lon="3.87923">
        <ele>62</ele>
        <time>2020-10-17T10:33:43.000Z</time>
      </trkpt>
      <trkpt lat="43.61165" lon="3.87923">
        <ele>62</ele>
        <time>2020-10-17T10:33:44.000Z</time>
      </trkpt>
      <trkpt lat="43.6116" lon="3.87922">
        <ele>62</ele>
        <time>2020-10-17T10:33:45.000Z</time>
      </trkpt>
      <trkpt lat="43.61154" lon="3.87921">
        <ele>62</ele>
        <time>2020-10-17T10:33:46.000Z</time>
      </trkpt>
      <trkpt lat="43.61149" lon="3.87921">
        <ele>62</ele>
        <time>2020-10-17T10:33:47.000Z</time>
      </trkpt>
      <trkpt lat="43.61143" lon="3.8792">
        <ele>62</ele>
        <time>2020-10-17T10:33:48.000Z</time>
      </trkpt>
      <trkpt lat="43.61137" lon="3.8792">
        <ele>62</ele>
        <time>2020-10-17T10:33:49.000Z</time>
      </trkpt>
      <trkpt lat="43.6113" lon="3.8792">
        <ele>62</ele>
        <time>2020-10-17T10:33:50.000Z</time>
      </trkpt>
      <trkpt lat="43.61124" lon="3.87922">
        <ele>62</ele>
        <time>2020-10-17T10:33:51.000Z</time>
      </trkpt>
      <trkpt lat="43.61118" lon="3.87922">
        <ele>62</ele>
        <time>2020-10-17T10:33:52.000Z</time>
      </trkpt>
      <trkpt lat="43.61114" lon="3.87923">
        <ele>62</ele>
        <time>2020-10-17T10:33:53.000Z</time>
      </trkpt>
      <trkpt lat="43.61109" lon="3.87919">
        <ele>62</ele>
        <time>2020-10-17T10:33:55.000Z</time>
      </trkpt>
      <trkpt lat="43.61108" lon="3.87914">
        <ele>61.88999936</ele>
        <time>2020-10-17T10:33:56.000Z</time>
      </trkpt>
      <trkpt lat="43.61107" lon="3.87909">
        <ele>61.68999936</ele>
        <time>2020-10-17T10:33:57.000Z</time>
      </trkpt>
      <trkpt lat="43.61107" lon="3.87903">
        <ele>61.48999936</ele>
        <time>2020-10-17T10:33:58.000Z</time>
      </trkpt>
      <trkpt lat="43.61107" lon="3.87899">
        <ele>61.28999936</ele>
        <time>2020-10-17T10:33:59.000Z</time>
      </trkpt>
      <trkpt lat="43.61108" lon="3.87896">
        <ele>61.08999936</ele>
        <time>2020-10-17T10:34:00.000Z</time>
      </trkpt>
      <trkpt lat="43.61111" lon="3.87894">
        <ele>60.88999936</ele>
        <time>2020-10-17T10:34:01.000Z</time>
      </trkpt>
      <trkpt lat="43.61113" lon="3.87891">
        <ele>60.68999936</ele>
        <time>2020-10-17T10:34:02.000Z</time>
      </trkpt>
      <trkpt lat="43.61116" lon="3.87888">
        <ele>60.48999936</ele>
        <time>2020-10-17T10:34:03.000Z</time>
      </trkpt>
      <trkpt lat="43.61117" lon="3.87886">
        <ele>60.28999936</ele>
        <time>2020-10-17T10:34:04.000Z</time>
      </trkpt>
      <trkpt lat="43.61118" lon="3.87883">
        <ele>60.08999936</ele>
        <time>2020-10-17T10:34:05.000Z</time>
      </trkpt>
      <trkpt lat="43.61119" lon="3.87881">
        <ele>60.054294440155</ele>
        <time>2020-10-17T10:34:06.000Z</time>
      </trkpt>
      <trkpt lat="43.6112" lon="3.87878">
        <ele>60.153011029723</ele>
        <time>2020-10-17T10:34:07.000Z</time>
      </trkpt>
      <trkpt lat="43.6112" lon="3.87876">
        <ele>60.251727619291</ele>
        <time>2020-10-17T10:34:08.000Z</time>
      </trkpt>
      <trkpt lat="43.61121" lon="3.87873">
        <ele>60.350444208858</ele>
        <time>2020-10-17T10:34:09.000Z</time>
      </trkpt>
      <trkpt lat="43.61123" lon="3.87871">
        <ele>60.449160798426</ele>
        <time>2020-10-17T10:34:10.000Z</time>
      </trkpt>
      <trkpt lat="43.61125" lon="3.8787">
        <ele>60.547877387994</ele>
        <time>2020-10-17T10:34:11.000Z</time>
      </trkpt>
      <trkpt lat="43.61126" lon="3.87868">
        <ele>60.646593977562</ele>
        <time>2020-10-17T10:34:12.000Z</time>
      </trkpt>
      <trkpt lat="43.61128" lon="3.87866">
        <ele>60.745310567129</ele>
        <time>2020-10-17T10:34:13.000Z</time>
      </trkpt>
      <trkpt lat="43.6113" lon="3.87866">
        <ele>60.844027156697</ele>
        <time>2020-10-17T10:34:14.000Z</time>
      </trkpt>
      <trkpt lat="43.61132" lon="3.87866">
        <ele>60.942743746265</ele>
        <time>2020-10-17T10:34:15.000Z</time>
      </trkpt>
      <trkpt lat="43.61134" lon="3.87867">
        <ele>60.914894831103</ele>
        <time>2020-10-17T10:34:16.000Z</time>
      </trkpt>
      <trkpt lat="43.61137" lon="3.87868">
        <ele>60.712260388825</ele>
        <time>2020-10-17T10:34:17.000Z</time>
      </trkpt>
      <trkpt lat="43.61139" lon="3.87869">
        <ele>60.509625946546</ele>
        <time>2020-10-17T10:34:18.000Z</time>
      </trkpt>
      <trkpt lat="43.61141" lon="3.87869">
        <ele>60.306991504267</ele>
        <time>2020-10-17T10:34:19.000Z</time>
      </trkpt>
      <trkpt lat="43.61143" lon="3.87867">
        <ele>60.104357061989</ele>
        <time>2020-10-17T10:34:20.000Z</time>
      </trkpt>
      <trkpt lat="43.61145" lon="3.87864">
        <ele>59.90172261971</ele>
        <time>2020-10-17T10:34:21.000Z</time>
      </trkpt>
      <trkpt lat="43.61146" lon="3.87861">
        <ele>59.699088177431</ele>
        <time>2020-10-17T10:34:22.000Z</time>
      </trkpt>
      <trkpt lat="43.61147" lon="3.87857">
        <ele>59.496453735153</ele>
        <time>2020-10-17T10:34:23.000Z</time>
      </trkpt>
      <trkpt lat="43.61148" lon="3.87852">
        <ele>59.293819292874</ele>
        <time>2020-10-17T10:34:24.000Z</time>
      </trkpt>
      <trkpt lat="43.6115" lon="3.87849">
        <ele>59.091184850595</ele>
        <time>2020-10-17T10:34:25.000Z</time>
      </trkpt>
      <trkpt lat="43.61152" lon="3.87845">
        <ele>58.893099574951</ele>
        <time>2020-10-17T10:34:26.000Z</time>
      </trkpt>
      <trkpt lat="43.61155" lon="3.87843">
        <ele>58.698736296611</ele>
        <time>2020-10-17T10:34:27.000Z</time>
      </trkpt>
      <trkpt lat="43.61157" lon="3.8784">
        <ele>58.504373018272</ele>
        <time>2020-10-17T10:34:28.000Z</time>
      </trkpt>
      <trkpt lat="43.6116" lon="3.87837">
        <ele>58.310009739933</ele>
        <time>2020-10-17T10:34:29.000Z</time>
      </trkpt>
      <trkpt lat="43.61163" lon="3.87834">
        <ele>58.115646461593</ele>
        <time>2020-10-17T10:34:30.000Z</time>
      </trkpt>
      <trkpt lat="43.61166" lon="3.87831">
        <ele>57.921283183254</ele>
        <time>2020-10-17T10:34:31.000Z</time>
      </trkpt>
      <trkpt lat="43.61167" lon="3.87827">
        <ele>57.726919904914</ele>
        <time>2020-10-17T10:34:32.000Z</time>
      </trkpt>
      <trkpt lat="43.61169" lon="3.87824">
        <ele>57.532556626575</ele>
        <time>2020-10-17T10:34:33.000Z</time>
      </trkpt>
      <trkpt lat="43.61171" lon="3.87821">
        <ele>57.338193348236</ele>
        <time>2020-10-17T10:34:34.000Z</time>
      </trkpt>
      <trkpt lat="43.61174" lon="3.87818">
        <ele>57.143830069896</ele>
        <time>2020-10-17T10:34:35.000Z</time>
      </trkpt>
      <trkpt lat="43.61178" lon="3.87813">
        <ele>57</ele>
        <time>2020-10-17T10:34:37.000Z</time>
      </trkpt>
      <trkpt lat="43.61179" lon="3.87811">
        <ele>57</ele>
        <time>2020-10-17T10:34:38.000Z</time>
      </trkpt>
      <trkpt lat="43.61179" lon="3.87807">
        <ele>57</ele>
        <time>2020-10-17T10:34:39.000Z</time>
      </trkpt>
      <trkpt lat="43.61177" lon="3.87803">
        <ele>57</ele>
        <time>2020-10-17T10:34:40.000Z</time>
      </trkpt>
      <trkpt lat="43.61174" lon="3.87799">
        <ele>57</ele>
        <time>2020-10-17T10:34:41.000Z</time>
      </trkpt>
      <trkpt lat="43.61171" lon="3.87795">
        <ele>57</ele>
        <time>2020-10-17T10:34:42.000Z</time>
      </trkpt>
      <trkpt lat="43.61169" lon="3.87791">
        <ele>57</ele>
        <time>2020-10-17T10:34:43.000Z</time>
      </trkpt>
      <trkpt lat="43.61166" lon="3.87788">
        <ele>57</ele>
        <time>2020-10-17T10:34:44.000Z</time>
      </trkpt>
      <trkpt lat="43.61163" lon="3.87785">
        <ele>57</ele>
        <time>2020-10-17T10:34:45.000Z</time>
      </trkpt>
      <trkpt lat="43.61161" lon="3.87782">
        <ele>57.11000064</ele>
        <time>2020-10-17T10:34:46.000Z</time>
      </trkpt>
      <trkpt lat="43.61158" lon="3.8778">
        <ele>57.31000064</ele>
        <time>2020-10-17T10:34:47.000Z</time>
      </trkpt>
      <trkpt lat="43.61156" lon="3.87777">
        <ele>57.51000064</ele>
        <time>2020-10-17T10:34:48.000Z</time>
      </trkpt>
      <trkpt lat="43.61154" lon="3.87774">
        <ele>57.71000064</ele>
        <time>2020-10-17T10:34:49.000Z</time>
      </trkpt>
      <trkpt lat="43.61153" lon="3.87771">
        <ele>57.91000064</ele>
        <time>2020-10-17T10:34:50.000Z</time>
      </trkpt>
      <trkpt lat="43.61152" lon="3.87769">
        <ele>58.11000064</ele>
        <time>2020-10-17T10:34:51.000Z</time>
      </trkpt>
      <trkpt lat="43.61153" lon="3.87766">
        <ele>58.31000064</ele>
        <time>2020-10-17T10:34:52.000Z</time>
      </trkpt>
      <trkpt lat="43.61154" lon="3.87763">
        <ele>58.51000064</ele>
        <time>2020-10-17T10:34:53.000Z</time>
      </trkpt>
      <trkpt lat="43.61155" lon="3.8776">
        <ele>58.71000064</ele>
        <time>2020-10-17T10:34:54.000Z</time>
      </trkpt>
      <trkpt lat="43.61156" lon="3.87757">
        <ele>58.91000064</ele>
        <time>2020-10-17T10:34:55.000Z</time>
      </trkpt>
      <trkpt lat="43.61157" lon="3.87753">
        <ele>59.219562015449</ele>
        <time>2020-10-17T10:34:56.000Z</time>
      </trkpt>
      <trkpt lat="43.61157" lon="3.8775">
        <ele>59.618763357277</ele>
        <time>2020-10-17T10:34:57.000Z</time>
      </trkpt>
      <trkpt lat="43.61158" lon="3.87747">
        <ele>60.017964699104</ele>
        <time>2020-10-17T10:34:58.000Z</time>
      </trkpt>
      <trkpt lat="43.6116" lon="3.87744">
        <ele>60.816367382759</ele>
        <time>2020-10-17T10:35:00.000Z</time>
      </trkpt>
      <trkpt lat="43.6116" lon="3.87742">
        <ele>62.413172750069</ele>
        <time>2020-10-17T10:35:04.000Z</time>
      </trkpt>
      <trkpt lat="43.61159" lon="3.87738">
        <ele>63.334911259355</ele>
        <time>2020-10-17T10:35:06.000Z</time>
      </trkpt>
      <trkpt lat="43.61159" lon="3.87736">
        <ele>66.494470518532</ele>
        <time>2020-10-17T10:35:11.000Z</time>
      </trkpt>
      <trkpt lat="43.61158" lon="3.87736">
        <ele>69.465349997845</ele>
        <time>2020-10-17T10:35:16.000Z</time>
      </trkpt>
      <trkpt lat="43.61156" lon="3.87738">
        <ele>70</ele>
        <time>2020-10-17T10:35:20.000Z</time>
      </trkpt>
      <trkpt lat="43.61156" lon="3.8774">
        <ele>70</ele>
        <time>2020-10-17T10:35:25.000Z</time>
      </trkpt>
      <trkpt lat="43.61156" lon="3.87741">
        <ele>70.014560314587</ele>
        <time>2020-10-17T10:35:26.000Z</time>
      </trkpt>
      <trkpt lat="43.61151" lon="3.87745">
        <ele>70.941098834446</ele>
        <time>2020-10-17T10:35:40.000Z</time>
      </trkpt>
      <trkpt lat="43.61152" lon="3.87744">
        <ele>71</ele>
        <time>2020-10-17T10:35:44.000Z</time>
      </trkpt>
      <trkpt lat="43.61153" lon="3.87742">
        <ele>71.971530216689</ele>
        <time>2020-10-17T10:35:47.000Z</time>
      </trkpt>
      <trkpt lat="43.61152" lon="3.87743">
        <ele>72</ele>
        <time>2020-10-17T10:35:53.000Z</time>
      </trkpt>
      <trkpt lat="43.61152" lon="3.87742">
        <ele>74.913843458306</ele>
        <time>2020-10-17T10:36:24.000Z</time>
      </trkpt>
      <trkpt lat="43.61153" lon="3.8774">
        <ele>75.779467948936</ele>
        <time>2020-10-17T10:36:29.000Z</time>
      </trkpt>
      <trkpt lat="43.61153" lon="3.87739">
        <ele>75.96958178606</ele>
        <time>2020-10-17T10:36:30.000Z</time>
      </trkpt>
      <trkpt lat="43.61152" lon="3.87745">
        <ele>75.059558677064</ele>
        <time>2020-10-17T10:36:40.000Z</time>
      </trkpt>
      <trkpt lat="43.61152" lon="3.87747">
        <ele>75</ele>
        <time>2020-10-17T10:36:44.000Z</time>
      </trkpt>
      <trkpt lat="43.6115" lon="3.87741">
        <ele>75</ele>
        <time>2020-10-17T10:36:48.000Z</time>
      </trkpt>
      <trkpt lat="43.6115" lon="3.8774">
        <ele>75</ele>
        <time>2020-10-17T10:36:50.000Z</time>
      </trkpt>
      <trkpt lat="43.61152" lon="3.87738">
        <ele>75</ele>
        <time>2020-10-17T10:36:52.000Z</time>
      </trkpt>
      <trkpt lat="43.61154" lon="3.87736">
        <ele>75</ele>
        <time>2020-10-17T10:36:55.000Z</time>
      </trkpt>
      <trkpt lat="43.61156" lon="3.87735">
        <ele>75</ele>
        <time>2020-10-17T10:36:58.000Z</time>
      </trkpt>
      <trkpt lat="43.61156" lon="3.87734">
        <ele>75</ele>
        <time>2020-10-17T10:37:01.000Z</time>
      </trkpt>
      <trkpt lat="43.61153" lon="3.87736">
        <ele>74.079606199417</ele>
        <time>2020-10-17T10:37:12.000Z</time>
      </trkpt>
      <trkpt lat="43.61152" lon="3.87736">
        <ele>73.969968076908</ele>
        <time>2020-10-17T10:37:13.000Z</time>
      </trkpt>
      <trkpt lat="43.61151" lon="3.87738">
        <ele>72.168168006565</ele>
        <time>2020-10-17T10:37:19.000Z</time>
      </trkpt>
    </trkseg>
  </trk>
</gpx>